<?xml version="1.0" encoding="utf-8"?>
<gpx xmlns:xsi="http://www.w3.org/2001/XMLSchema-instance" xmlns:xsd="http://www.w3.org/2001/XMLSchema" version="1.1" creator="Shapelink.com" xmlns="http://www.topografix.com/GPX/1/1" xmlns:gpxtpx="http://www.garmin.com/xmlschemas/TrackPointExtension/v1">
  <metadata>
    <name>Sykling 47.14 km, 2013-05-19</name>
    <desc></desc>
    <author><name>Mikael Blom</name></author> 
    <time>2013-05-19T16:27:10Z</time>
  </metadata>
  <trk>
    <name>Sykling 47.14 km, 2013-05-19</name>
    <trkseg>
      <trkpt lat="59.9787693" lon="17.739348">
        <ele>39.0707</ele>
        <time>2013-05-19T16:27:10Z</time>
      </trkpt>
      <trkpt lat="59.9787609" lon="17.739317">
        <ele>40.0321</ele>
        <time>2013-05-19T16:27:11Z</time>
      </trkpt>
      <trkpt lat="59.9787254" lon="17.7392922">
        <ele>40.0321</ele>
        <time>2013-05-19T16:27:12Z</time>
      </trkpt>
      <trkpt lat="59.9786878" lon="17.7392775">
        <ele>40.5128</ele>
        <time>2013-05-19T16:27:13Z</time>
      </trkpt>
      <trkpt lat="59.9786499" lon="17.7392516">
        <ele>40.9934</ele>
        <time>2013-05-19T16:27:14Z</time>
      </trkpt>
      <trkpt lat="59.9786112" lon="17.7392348">
        <ele>41.474</ele>
        <time>2013-05-19T16:27:15Z</time>
      </trkpt>
      <trkpt lat="59.9785719" lon="17.7392195">
        <ele>41.9547</ele>
        <time>2013-05-19T16:27:16Z</time>
      </trkpt>
      <trkpt lat="59.9785303" lon="17.7392134">
        <ele>42.4354</ele>
        <time>2013-05-19T16:27:17Z</time>
      </trkpt>
      <trkpt lat="59.9784952" lon="17.7392046">
        <ele>44.358</ele>
        <time>2013-05-19T16:27:18Z</time>
      </trkpt>
      <trkpt lat="59.978451" lon="17.7391933">
        <ele>44.8386</ele>
        <time>2013-05-19T16:27:19Z</time>
      </trkpt>
      <trkpt lat="59.9784067" lon="17.7391823">
        <ele>45.7999</ele>
        <time>2013-05-19T16:27:20Z</time>
      </trkpt>
      <trkpt lat="59.9783621" lon="17.7391807">
        <ele>46.7612</ele>
        <time>2013-05-19T16:27:21Z</time>
      </trkpt>
      <trkpt lat="59.9783117" lon="17.7391738">
        <ele>46.7612</ele>
        <time>2013-05-19T16:27:22Z</time>
      </trkpt>
      <trkpt lat="59.9782529" lon="17.7391704">
        <ele>46.7612</ele>
        <time>2013-05-19T16:27:23Z</time>
      </trkpt>
      <trkpt lat="59.9782112" lon="17.7391586">
        <ele>45.7999</ele>
        <time>2013-05-19T16:27:24Z</time>
      </trkpt>
      <trkpt lat="59.9781658" lon="17.7391493">
        <ele>44.8386</ele>
        <time>2013-05-19T16:27:25Z</time>
      </trkpt>
      <trkpt lat="59.9781058" lon="17.739144">
        <ele>44.358</ele>
        <time>2013-05-19T16:27:26Z</time>
      </trkpt>
      <trkpt lat="59.9780512" lon="17.7391311">
        <ele>42.916</ele>
        <time>2013-05-19T16:27:27Z</time>
      </trkpt>
      <trkpt lat="59.9780092" lon="17.7391057">
        <ele>42.916</ele>
        <time>2013-05-19T16:27:28Z</time>
      </trkpt>
      <trkpt lat="59.9779602" lon="17.7390778">
        <ele>42.4354</ele>
        <time>2013-05-19T16:27:29Z</time>
      </trkpt>
      <trkpt lat="59.9779047" lon="17.7390483">
        <ele>40.9934</ele>
        <time>2013-05-19T16:27:30Z</time>
      </trkpt>
      <trkpt lat="59.9778472" lon="17.7390212">
        <ele>40.5128</ele>
        <time>2013-05-19T16:27:31Z</time>
      </trkpt>
      <trkpt lat="59.9777864" lon="17.7390016">
        <ele>39.5513</ele>
        <time>2013-05-19T16:27:32Z</time>
      </trkpt>
      <trkpt lat="59.977723" lon="17.7389907">
        <ele>38.5901</ele>
        <time>2013-05-19T16:27:33Z</time>
      </trkpt>
      <trkpt lat="59.977658" lon="17.7389842">
        <ele>38.1094</ele>
        <time>2013-05-19T16:27:34Z</time>
      </trkpt>
      <trkpt lat="59.9775904" lon="17.7389835">
        <ele>37.6287</ele>
        <time>2013-05-19T16:27:35Z</time>
      </trkpt>
      <trkpt lat="59.9775183" lon="17.7389978">
        <ele>36.1868</ele>
        <time>2013-05-19T16:27:36Z</time>
      </trkpt>
      <trkpt lat="59.9774492" lon="17.7390177">
        <ele>36.6675</ele>
        <time>2013-05-19T16:27:37Z</time>
      </trkpt>
      <trkpt lat="59.9773727" lon="17.7390502">
        <ele>37.1481</ele>
        <time>2013-05-19T16:27:38Z</time>
      </trkpt>
      <trkpt lat="59.9772904" lon="17.7390891">
        <ele>36.6675</ele>
        <time>2013-05-19T16:27:39Z</time>
      </trkpt>
      <trkpt lat="59.9772131" lon="17.7391265">
        <ele>37.6287</ele>
        <time>2013-05-19T16:27:40Z</time>
      </trkpt>
      <trkpt lat="59.9771173" lon="17.739178">
        <ele>36.6675</ele>
        <time>2013-05-19T16:27:41Z</time>
      </trkpt>
      <trkpt lat="59.9770193" lon="17.7392238">
        <ele>36.1868</ele>
        <time>2013-05-19T16:27:42Z</time>
      </trkpt>
      <trkpt lat="59.9769203" lon="17.7392627">
        <ele>35.2255</ele>
        <time>2013-05-19T16:27:43Z</time>
      </trkpt>
      <trkpt lat="59.9768224" lon="17.7392931">
        <ele>35.2255</ele>
        <time>2013-05-19T16:27:44Z</time>
      </trkpt>
      <trkpt lat="59.976733" lon="17.7393321">
        <ele>34.2642</ele>
        <time>2013-05-19T16:27:45Z</time>
      </trkpt>
      <trkpt lat="59.9766502" lon="17.7393699">
        <ele>34.2642</ele>
        <time>2013-05-19T16:27:46Z</time>
      </trkpt>
      <trkpt lat="59.976574" lon="17.7394139">
        <ele>34.7449</ele>
        <time>2013-05-19T16:27:47Z</time>
      </trkpt>
      <trkpt lat="59.9764958" lon="17.7394766">
        <ele>34.7449</ele>
        <time>2013-05-19T16:27:48Z</time>
      </trkpt>
      <trkpt lat="59.9764284" lon="17.7395542">
        <ele>35.2255</ele>
        <time>2013-05-19T16:27:49Z</time>
      </trkpt>
      <trkpt lat="59.9763637" lon="17.7396397">
        <ele>35.7061</ele>
        <time>2013-05-19T16:27:50Z</time>
      </trkpt>
      <trkpt lat="59.9762946" lon="17.7397093">
        <ele>34.7449</ele>
        <time>2013-05-19T16:27:51Z</time>
      </trkpt>
      <trkpt lat="59.9762497" lon="17.7396599">
        <ele>34.7449</ele>
        <time>2013-05-19T16:27:52Z</time>
      </trkpt>
      <trkpt lat="59.9761812" lon="17.7396294">
        <ele>34.7449</ele>
        <time>2013-05-19T16:27:53Z</time>
      </trkpt>
      <trkpt lat="59.9761291" lon="17.7395428">
        <ele>35.7061</ele>
        <time>2013-05-19T16:27:54Z</time>
      </trkpt>
      <trkpt lat="59.9760601" lon="17.7394314">
        <ele>35.7061</ele>
        <time>2013-05-19T16:27:55Z</time>
      </trkpt>
      <trkpt lat="59.9759789" lon="17.7392973">
        <ele>34.7449</ele>
        <time>2013-05-19T16:27:56Z</time>
      </trkpt>
      <trkpt lat="59.9759005" lon="17.7391424">
        <ele>34.2642</ele>
        <time>2013-05-19T16:27:57Z</time>
      </trkpt>
      <trkpt lat="59.9758228" lon="17.7389799">
        <ele>34.2642</ele>
        <time>2013-05-19T16:27:58Z</time>
      </trkpt>
      <trkpt lat="59.9757508" lon="17.7388226">
        <ele>34.7449</ele>
        <time>2013-05-19T16:27:59Z</time>
      </trkpt>
      <trkpt lat="59.9756758" lon="17.7386755">
        <ele>35.2255</ele>
        <time>2013-05-19T16:28:00Z</time>
      </trkpt>
      <trkpt lat="59.9755954" lon="17.7385341">
        <ele>35.2255</ele>
        <time>2013-05-19T16:28:01Z</time>
      </trkpt>
      <trkpt lat="59.9755141" lon="17.7383955">
        <ele>34.7449</ele>
        <time>2013-05-19T16:28:02Z</time>
      </trkpt>
      <trkpt lat="59.9754323" lon="17.738258">
        <ele>34.2642</ele>
        <time>2013-05-19T16:28:03Z</time>
      </trkpt>
      <trkpt lat="59.9753518" lon="17.7381245">
        <ele>34.2642</ele>
        <time>2013-05-19T16:28:04Z</time>
      </trkpt>
      <trkpt lat="59.9752728" lon="17.7379925">
        <ele>34.2642</ele>
        <time>2013-05-19T16:28:05Z</time>
      </trkpt>
      <trkpt lat="59.9751961" lon="17.7378597">
        <ele>34.2642</ele>
        <time>2013-05-19T16:28:06Z</time>
      </trkpt>
      <trkpt lat="59.9751199" lon="17.7377209">
        <ele>34.2642</ele>
        <time>2013-05-19T16:28:07Z</time>
      </trkpt>
      <trkpt lat="59.9750463" lon="17.7375812">
        <ele>34.2642</ele>
        <time>2013-05-19T16:28:08Z</time>
      </trkpt>
      <trkpt lat="59.9749754" lon="17.7374406">
        <ele>33.7834</ele>
        <time>2013-05-19T16:28:09Z</time>
      </trkpt>
      <trkpt lat="59.9749081" lon="17.7372963">
        <ele>33.7834</ele>
        <time>2013-05-19T16:28:10Z</time>
      </trkpt>
      <trkpt lat="59.9748436" lon="17.7371469">
        <ele>33.7834</ele>
        <time>2013-05-19T16:28:11Z</time>
      </trkpt>
      <trkpt lat="59.9747806" lon="17.736992">
        <ele>33.7834</ele>
        <time>2013-05-19T16:28:12Z</time>
      </trkpt>
      <trkpt lat="59.9747209" lon="17.7368309">
        <ele>33.7834</ele>
        <time>2013-05-19T16:28:13Z</time>
      </trkpt>
      <trkpt lat="59.9746664" lon="17.7366637">
        <ele>33.7834</ele>
        <time>2013-05-19T16:28:14Z</time>
      </trkpt>
      <trkpt lat="59.9746163" lon="17.7364917">
        <ele>33.7834</ele>
        <time>2013-05-19T16:28:15Z</time>
      </trkpt>
      <trkpt lat="59.9745701" lon="17.7363151">
        <ele>33.7834</ele>
        <time>2013-05-19T16:28:16Z</time>
      </trkpt>
      <trkpt lat="59.9745277" lon="17.7361344">
        <ele>33.7834</ele>
        <time>2013-05-19T16:28:17Z</time>
      </trkpt>
      <trkpt lat="59.9744879" lon="17.7359499">
        <ele>33.3029</ele>
        <time>2013-05-19T16:28:18Z</time>
      </trkpt>
      <trkpt lat="59.9744512" lon="17.7357609">
        <ele>33.3029</ele>
        <time>2013-05-19T16:28:19Z</time>
      </trkpt>
      <trkpt lat="59.9744181" lon="17.7355678">
        <ele>33.3029</ele>
        <time>2013-05-19T16:28:20Z</time>
      </trkpt>
      <trkpt lat="59.9743906" lon="17.7353691">
        <ele>33.3029</ele>
        <time>2013-05-19T16:28:21Z</time>
      </trkpt>
      <trkpt lat="59.9743694" lon="17.7351657">
        <ele>33.3029</ele>
        <time>2013-05-19T16:28:22Z</time>
      </trkpt>
      <trkpt lat="59.974353" lon="17.7349588">
        <ele>32.8223</ele>
        <time>2013-05-19T16:28:23Z</time>
      </trkpt>
      <trkpt lat="59.9743408" lon="17.7347492">
        <ele>32.8223</ele>
        <time>2013-05-19T16:28:24Z</time>
      </trkpt>
      <trkpt lat="59.9743336" lon="17.7345429">
        <ele>32.8223</ele>
        <time>2013-05-19T16:28:25Z</time>
      </trkpt>
      <trkpt lat="59.974332" lon="17.7343418">
        <ele>32.8223</ele>
        <time>2013-05-19T16:28:26Z</time>
      </trkpt>
      <trkpt lat="59.9743361" lon="17.7341464">
        <ele>32.8223</ele>
        <time>2013-05-19T16:28:27Z</time>
      </trkpt>
      <trkpt lat="59.974344" lon="17.7339577">
        <ele>32.8223</ele>
        <time>2013-05-19T16:28:28Z</time>
      </trkpt>
      <trkpt lat="59.9743543" lon="17.7337748">
        <ele>32.8223</ele>
        <time>2013-05-19T16:28:29Z</time>
      </trkpt>
      <trkpt lat="59.9743658" lon="17.733596">
        <ele>32.8223</ele>
        <time>2013-05-19T16:28:30Z</time>
      </trkpt>
      <trkpt lat="59.9743751" lon="17.733419">
        <ele>32.8223</ele>
        <time>2013-05-19T16:28:31Z</time>
      </trkpt>
      <trkpt lat="59.9743797" lon="17.7332452">
        <ele>32.3416</ele>
        <time>2013-05-19T16:28:32Z</time>
      </trkpt>
      <trkpt lat="59.9743838" lon="17.7330703">
        <ele>31.8607</ele>
        <time>2013-05-19T16:28:33Z</time>
      </trkpt>
      <trkpt lat="59.974387" lon="17.7328932">
        <ele>31.3801</ele>
        <time>2013-05-19T16:28:34Z</time>
      </trkpt>
      <trkpt lat="59.974388" lon="17.7327145">
        <ele>31.3801</ele>
        <time>2013-05-19T16:28:35Z</time>
      </trkpt>
      <trkpt lat="59.974386" lon="17.732535">
        <ele>30.8995</ele>
        <time>2013-05-19T16:28:36Z</time>
      </trkpt>
      <trkpt lat="59.9743822" lon="17.7323561">
        <ele>30.8995</ele>
        <time>2013-05-19T16:28:37Z</time>
      </trkpt>
      <trkpt lat="59.9743765" lon="17.7321778">
        <ele>30.8995</ele>
        <time>2013-05-19T16:28:38Z</time>
      </trkpt>
      <trkpt lat="59.9743714" lon="17.7319992">
        <ele>30.8995</ele>
        <time>2013-05-19T16:28:39Z</time>
      </trkpt>
      <trkpt lat="59.9743681" lon="17.7318209">
        <ele>30.8995</ele>
        <time>2013-05-19T16:28:40Z</time>
      </trkpt>
      <trkpt lat="59.9743675" lon="17.731642">
        <ele>30.8995</ele>
        <time>2013-05-19T16:28:41Z</time>
      </trkpt>
      <trkpt lat="59.9743699" lon="17.7314625">
        <ele>30.4188</ele>
        <time>2013-05-19T16:28:42Z</time>
      </trkpt>
      <trkpt lat="59.9743749" lon="17.731284">
        <ele>30.4188</ele>
        <time>2013-05-19T16:28:43Z</time>
      </trkpt>
      <trkpt lat="59.9743816" lon="17.7311064">
        <ele>30.4188</ele>
        <time>2013-05-19T16:28:44Z</time>
      </trkpt>
      <trkpt lat="59.9743895" lon="17.7309304">
        <ele>30.4188</ele>
        <time>2013-05-19T16:28:45Z</time>
      </trkpt>
      <trkpt lat="59.9744004" lon="17.7307565">
        <ele>30.4188</ele>
        <time>2013-05-19T16:28:46Z</time>
      </trkpt>
      <trkpt lat="59.974414" lon="17.7305849">
        <ele>30.4188</ele>
        <time>2013-05-19T16:28:47Z</time>
      </trkpt>
      <trkpt lat="59.9744283" lon="17.7304146">
        <ele>30.4188</ele>
        <time>2013-05-19T16:28:48Z</time>
      </trkpt>
      <trkpt lat="59.9744413" lon="17.7302463">
        <ele>30.4188</ele>
        <time>2013-05-19T16:28:49Z</time>
      </trkpt>
      <trkpt lat="59.9744544" lon="17.7300799">
        <ele>30.8995</ele>
        <time>2013-05-19T16:28:50Z</time>
      </trkpt>
      <trkpt lat="59.9744668" lon="17.7299149">
        <ele>30.8995</ele>
        <time>2013-05-19T16:28:51Z</time>
      </trkpt>
      <trkpt lat="59.9744771" lon="17.7297504">
        <ele>30.8995</ele>
        <time>2013-05-19T16:28:52Z</time>
      </trkpt>
      <trkpt lat="59.9744847" lon="17.7295867">
        <ele>30.8995</ele>
        <time>2013-05-19T16:28:53Z</time>
      </trkpt>
      <trkpt lat="59.9744891" lon="17.729424">
        <ele>30.8995</ele>
        <time>2013-05-19T16:28:54Z</time>
      </trkpt>
      <trkpt lat="59.9744899" lon="17.7292622">
        <ele>30.8995</ele>
        <time>2013-05-19T16:28:55Z</time>
      </trkpt>
      <trkpt lat="59.9744874" lon="17.7291017">
        <ele>30.8995</ele>
        <time>2013-05-19T16:28:56Z</time>
      </trkpt>
      <trkpt lat="59.9744838" lon="17.7289418">
        <ele>30.4188</ele>
        <time>2013-05-19T16:28:57Z</time>
      </trkpt>
      <trkpt lat="59.9744805" lon="17.7287805">
        <ele>30.4188</ele>
        <time>2013-05-19T16:28:58Z</time>
      </trkpt>
      <trkpt lat="59.9744769" lon="17.728617">
        <ele>30.4188</ele>
        <time>2013-05-19T16:28:59Z</time>
      </trkpt>
      <trkpt lat="59.9744729" lon="17.7284531">
        <ele>30.4188</ele>
        <time>2013-05-19T16:29:00Z</time>
      </trkpt>
      <trkpt lat="59.9744692" lon="17.728289">
        <ele>30.4188</ele>
        <time>2013-05-19T16:29:01Z</time>
      </trkpt>
      <trkpt lat="59.9744636" lon="17.7281263">
        <ele>30.4188</ele>
        <time>2013-05-19T16:29:02Z</time>
      </trkpt>
      <trkpt lat="59.9744585" lon="17.7279651">
        <ele>30.4188</ele>
        <time>2013-05-19T16:29:03Z</time>
      </trkpt>
      <trkpt lat="59.9744561" lon="17.7278079">
        <ele>30.4188</ele>
        <time>2013-05-19T16:29:04Z</time>
      </trkpt>
      <trkpt lat="59.974457" lon="17.7276543">
        <ele>30.8995</ele>
        <time>2013-05-19T16:29:05Z</time>
      </trkpt>
      <trkpt lat="59.9744554" lon="17.7275046">
        <ele>31.3801</ele>
        <time>2013-05-19T16:29:06Z</time>
      </trkpt>
      <trkpt lat="59.974451" lon="17.7273567">
        <ele>31.3801</ele>
        <time>2013-05-19T16:29:07Z</time>
      </trkpt>
      <trkpt lat="59.9744465" lon="17.7272099">
        <ele>31.3801</ele>
        <time>2013-05-19T16:29:08Z</time>
      </trkpt>
      <trkpt lat="59.9744414" lon="17.7270652">
        <ele>31.3801</ele>
        <time>2013-05-19T16:29:09Z</time>
      </trkpt>
      <trkpt lat="59.974439" lon="17.7269224">
        <ele>31.3801</ele>
        <time>2013-05-19T16:29:10Z</time>
      </trkpt>
      <trkpt lat="59.9744371" lon="17.7267789">
        <ele>31.3801</ele>
        <time>2013-05-19T16:29:11Z</time>
      </trkpt>
      <trkpt lat="59.9744329" lon="17.726638">
        <ele>31.3801</ele>
        <time>2013-05-19T16:29:12Z</time>
      </trkpt>
      <trkpt lat="59.9744258" lon="17.7264962">
        <ele>31.3801</ele>
        <time>2013-05-19T16:29:13Z</time>
      </trkpt>
      <trkpt lat="59.9744185" lon="17.7263516">
        <ele>31.3801</ele>
        <time>2013-05-19T16:29:14Z</time>
      </trkpt>
      <trkpt lat="59.9744113" lon="17.7262063">
        <ele>31.3801</ele>
        <time>2013-05-19T16:29:15Z</time>
      </trkpt>
      <trkpt lat="59.9744065" lon="17.7260519">
        <ele>30.8995</ele>
        <time>2013-05-19T16:29:16Z</time>
      </trkpt>
      <trkpt lat="59.9743993" lon="17.7258998">
        <ele>30.4188</ele>
        <time>2013-05-19T16:29:17Z</time>
      </trkpt>
      <trkpt lat="59.9743895" lon="17.7257543">
        <ele>30.4188</ele>
        <time>2013-05-19T16:29:18Z</time>
      </trkpt>
      <trkpt lat="59.9743864" lon="17.7256269">
        <ele>30.8995</ele>
        <time>2013-05-19T16:29:19Z</time>
      </trkpt>
      <trkpt lat="59.9743776" lon="17.7254949">
        <ele>31.3801</ele>
        <time>2013-05-19T16:29:20Z</time>
      </trkpt>
      <trkpt lat="59.974366" lon="17.7253583">
        <ele>31.3801</ele>
        <time>2013-05-19T16:29:21Z</time>
      </trkpt>
      <trkpt lat="59.9743515" lon="17.7252209">
        <ele>31.8607</ele>
        <time>2013-05-19T16:29:22Z</time>
      </trkpt>
      <trkpt lat="59.9743349" lon="17.725084">
        <ele>31.8607</ele>
        <time>2013-05-19T16:29:23Z</time>
      </trkpt>
      <trkpt lat="59.9743154" lon="17.7249453">
        <ele>31.8607</ele>
        <time>2013-05-19T16:29:24Z</time>
      </trkpt>
      <trkpt lat="59.9742947" lon="17.7248033">
        <ele>31.8607</ele>
        <time>2013-05-19T16:29:25Z</time>
      </trkpt>
      <trkpt lat="59.9742733" lon="17.7246589">
        <ele>31.8607</ele>
        <time>2013-05-19T16:29:26Z</time>
      </trkpt>
      <trkpt lat="59.974251" lon="17.7245136">
        <ele>31.8607</ele>
        <time>2013-05-19T16:29:27Z</time>
      </trkpt>
      <trkpt lat="59.9742287" lon="17.7243672">
        <ele>31.8607</ele>
        <time>2013-05-19T16:29:28Z</time>
      </trkpt>
      <trkpt lat="59.9742073" lon="17.7242191">
        <ele>31.8607</ele>
        <time>2013-05-19T16:29:29Z</time>
      </trkpt>
      <trkpt lat="59.974186" lon="17.72407">
        <ele>31.8607</ele>
        <time>2013-05-19T16:29:30Z</time>
      </trkpt>
      <trkpt lat="59.9741636" lon="17.7239206">
        <ele>31.8607</ele>
        <time>2013-05-19T16:29:31Z</time>
      </trkpt>
      <trkpt lat="59.9741412" lon="17.7237701">
        <ele>31.8607</ele>
        <time>2013-05-19T16:29:32Z</time>
      </trkpt>
      <trkpt lat="59.9741196" lon="17.7236187">
        <ele>32.3416</ele>
        <time>2013-05-19T16:29:33Z</time>
      </trkpt>
      <trkpt lat="59.9740967" lon="17.7234678">
        <ele>32.3416</ele>
        <time>2013-05-19T16:29:34Z</time>
      </trkpt>
      <trkpt lat="59.9740709" lon="17.7233174">
        <ele>32.3416</ele>
        <time>2013-05-19T16:29:35Z</time>
      </trkpt>
      <trkpt lat="59.9740423" lon="17.7231689">
        <ele>32.3416</ele>
        <time>2013-05-19T16:29:36Z</time>
      </trkpt>
      <trkpt lat="59.9740103" lon="17.7230231">
        <ele>32.3416</ele>
        <time>2013-05-19T16:29:37Z</time>
      </trkpt>
      <trkpt lat="59.9739759" lon="17.7228802">
        <ele>32.3416</ele>
        <time>2013-05-19T16:29:38Z</time>
      </trkpt>
      <trkpt lat="59.9739405" lon="17.7227381">
        <ele>32.3416</ele>
        <time>2013-05-19T16:29:39Z</time>
      </trkpt>
      <trkpt lat="59.973904" lon="17.7225971">
        <ele>32.3416</ele>
        <time>2013-05-19T16:29:40Z</time>
      </trkpt>
      <trkpt lat="59.9738642" lon="17.7224584">
        <ele>32.3416</ele>
        <time>2013-05-19T16:29:41Z</time>
      </trkpt>
      <trkpt lat="59.9738205" lon="17.7223212">
        <ele>32.3416</ele>
        <time>2013-05-19T16:29:42Z</time>
      </trkpt>
      <trkpt lat="59.9737745" lon="17.7221854">
        <ele>32.8223</ele>
        <time>2013-05-19T16:29:43Z</time>
      </trkpt>
      <trkpt lat="59.9737275" lon="17.7220503">
        <ele>32.8223</ele>
        <time>2013-05-19T16:29:44Z</time>
      </trkpt>
      <trkpt lat="59.9736788" lon="17.7219186">
        <ele>32.8223</ele>
        <time>2013-05-19T16:29:45Z</time>
      </trkpt>
      <trkpt lat="59.9736273" lon="17.7217921">
        <ele>32.8223</ele>
        <time>2013-05-19T16:29:46Z</time>
      </trkpt>
      <trkpt lat="59.9735729" lon="17.7216695">
        <ele>32.8223</ele>
        <time>2013-05-19T16:29:47Z</time>
      </trkpt>
      <trkpt lat="59.9735168" lon="17.7215501">
        <ele>32.8223</ele>
        <time>2013-05-19T16:29:48Z</time>
      </trkpt>
      <trkpt lat="59.9734602" lon="17.7214317">
        <ele>32.8223</ele>
        <time>2013-05-19T16:29:49Z</time>
      </trkpt>
      <trkpt lat="59.9734027" lon="17.7213145">
        <ele>32.8223</ele>
        <time>2013-05-19T16:29:50Z</time>
      </trkpt>
      <trkpt lat="59.9733427" lon="17.7212012">
        <ele>32.8223</ele>
        <time>2013-05-19T16:29:51Z</time>
      </trkpt>
      <trkpt lat="59.9732799" lon="17.7210933">
        <ele>32.8223</ele>
        <time>2013-05-19T16:29:52Z</time>
      </trkpt>
      <trkpt lat="59.9732135" lon="17.7209872">
        <ele>32.8223</ele>
        <time>2013-05-19T16:29:53Z</time>
      </trkpt>
      <trkpt lat="59.9731463" lon="17.7208842">
        <ele>32.8223</ele>
        <time>2013-05-19T16:29:54Z</time>
      </trkpt>
      <trkpt lat="59.9730779" lon="17.7207852">
        <ele>32.8223</ele>
        <time>2013-05-19T16:29:55Z</time>
      </trkpt>
      <trkpt lat="59.973008" lon="17.7206912">
        <ele>32.8223</ele>
        <time>2013-05-19T16:29:56Z</time>
      </trkpt>
      <trkpt lat="59.9729369" lon="17.7206003">
        <ele>32.8223</ele>
        <time>2013-05-19T16:29:57Z</time>
      </trkpt>
      <trkpt lat="59.972864" lon="17.7205139">
        <ele>32.8223</ele>
        <time>2013-05-19T16:29:58Z</time>
      </trkpt>
      <trkpt lat="59.9727889" lon="17.7204329">
        <ele>32.8223</ele>
        <time>2013-05-19T16:29:59Z</time>
      </trkpt>
      <trkpt lat="59.9727123" lon="17.7203562">
        <ele>32.8223</ele>
        <time>2013-05-19T16:30:00Z</time>
      </trkpt>
      <trkpt lat="59.9726345" lon="17.7202826">
        <ele>32.8223</ele>
        <time>2013-05-19T16:30:01Z</time>
      </trkpt>
      <trkpt lat="59.9725566" lon="17.72021">
        <ele>32.8223</ele>
        <time>2013-05-19T16:30:02Z</time>
      </trkpt>
      <trkpt lat="59.9724781" lon="17.7201393">
        <ele>32.8223</ele>
        <time>2013-05-19T16:30:03Z</time>
      </trkpt>
      <trkpt lat="59.9723997" lon="17.7200692">
        <ele>32.8223</ele>
        <time>2013-05-19T16:30:04Z</time>
      </trkpt>
      <trkpt lat="59.9723211" lon="17.7200002">
        <ele>32.8223</ele>
        <time>2013-05-19T16:30:05Z</time>
      </trkpt>
      <trkpt lat="59.9722435" lon="17.7199308">
        <ele>32.8223</ele>
        <time>2013-05-19T16:30:06Z</time>
      </trkpt>
      <trkpt lat="59.9721668" lon="17.7198604">
        <ele>32.8223</ele>
        <time>2013-05-19T16:30:07Z</time>
      </trkpt>
      <trkpt lat="59.972091" lon="17.7197907">
        <ele>32.8223</ele>
        <time>2013-05-19T16:30:08Z</time>
      </trkpt>
      <trkpt lat="59.972015" lon="17.7197217">
        <ele>33.3029</ele>
        <time>2013-05-19T16:30:09Z</time>
      </trkpt>
      <trkpt lat="59.9719388" lon="17.7196516">
        <ele>33.3029</ele>
        <time>2013-05-19T16:30:10Z</time>
      </trkpt>
      <trkpt lat="59.9718627" lon="17.7195812">
        <ele>33.3029</ele>
        <time>2013-05-19T16:30:11Z</time>
      </trkpt>
      <trkpt lat="59.971786" lon="17.7195124">
        <ele>33.3029</ele>
        <time>2013-05-19T16:30:12Z</time>
      </trkpt>
      <trkpt lat="59.9717094" lon="17.7194435">
        <ele>33.3029</ele>
        <time>2013-05-19T16:30:13Z</time>
      </trkpt>
      <trkpt lat="59.9716332" lon="17.7193742">
        <ele>33.3029</ele>
        <time>2013-05-19T16:30:14Z</time>
      </trkpt>
      <trkpt lat="59.9715568" lon="17.7193074">
        <ele>33.3029</ele>
        <time>2013-05-19T16:30:15Z</time>
      </trkpt>
      <trkpt lat="59.9714799" lon="17.7192421">
        <ele>33.3029</ele>
        <time>2013-05-19T16:30:16Z</time>
      </trkpt>
      <trkpt lat="59.971404" lon="17.719174">
        <ele>33.3029</ele>
        <time>2013-05-19T16:30:17Z</time>
      </trkpt>
      <trkpt lat="59.9713276" lon="17.7191051">
        <ele>33.3029</ele>
        <time>2013-05-19T16:30:18Z</time>
      </trkpt>
      <trkpt lat="59.9712509" lon="17.7190359">
        <ele>33.3029</ele>
        <time>2013-05-19T16:30:19Z</time>
      </trkpt>
      <trkpt lat="59.9711732" lon="17.7189663">
        <ele>33.3029</ele>
        <time>2013-05-19T16:30:20Z</time>
      </trkpt>
      <trkpt lat="59.971095" lon="17.7188946">
        <ele>33.3029</ele>
        <time>2013-05-19T16:30:21Z</time>
      </trkpt>
      <trkpt lat="59.971016" lon="17.7188226">
        <ele>33.3029</ele>
        <time>2013-05-19T16:30:22Z</time>
      </trkpt>
      <trkpt lat="59.9709365" lon="17.7187503">
        <ele>33.3029</ele>
        <time>2013-05-19T16:30:23Z</time>
      </trkpt>
      <trkpt lat="59.970857" lon="17.718676">
        <ele>33.3029</ele>
        <time>2013-05-19T16:30:24Z</time>
      </trkpt>
      <trkpt lat="59.9707768" lon="17.7186018">
        <ele>33.3029</ele>
        <time>2013-05-19T16:30:25Z</time>
      </trkpt>
      <trkpt lat="59.9706967" lon="17.7185285">
        <ele>33.3029</ele>
        <time>2013-05-19T16:30:26Z</time>
      </trkpt>
      <trkpt lat="59.9706161" lon="17.7184567">
        <ele>33.3029</ele>
        <time>2013-05-19T16:30:27Z</time>
      </trkpt>
      <trkpt lat="59.9705351" lon="17.7183848">
        <ele>33.7834</ele>
        <time>2013-05-19T16:30:28Z</time>
      </trkpt>
      <trkpt lat="59.9704547" lon="17.7183107">
        <ele>33.7834</ele>
        <time>2013-05-19T16:30:29Z</time>
      </trkpt>
      <trkpt lat="59.970374" lon="17.7182364">
        <ele>33.7834</ele>
        <time>2013-05-19T16:30:30Z</time>
      </trkpt>
      <trkpt lat="59.9702926" lon="17.7181641">
        <ele>33.7834</ele>
        <time>2013-05-19T16:30:31Z</time>
      </trkpt>
      <trkpt lat="59.9702107" lon="17.718093">
        <ele>33.7834</ele>
        <time>2013-05-19T16:30:32Z</time>
      </trkpt>
      <trkpt lat="59.970129" lon="17.7180202">
        <ele>34.2642</ele>
        <time>2013-05-19T16:30:33Z</time>
      </trkpt>
      <trkpt lat="59.9700484" lon="17.7179459">
        <ele>34.2642</ele>
        <time>2013-05-19T16:30:34Z</time>
      </trkpt>
      <trkpt lat="59.9699683" lon="17.717873">
        <ele>34.2642</ele>
        <time>2013-05-19T16:30:35Z</time>
      </trkpt>
      <trkpt lat="59.969888" lon="17.7178039">
        <ele>34.2642</ele>
        <time>2013-05-19T16:30:36Z</time>
      </trkpt>
      <trkpt lat="59.9698077" lon="17.7177381">
        <ele>34.7449</ele>
        <time>2013-05-19T16:30:37Z</time>
      </trkpt>
      <trkpt lat="59.9697269" lon="17.7176757">
        <ele>34.7449</ele>
        <time>2013-05-19T16:30:38Z</time>
      </trkpt>
      <trkpt lat="59.9696462" lon="17.7176174">
        <ele>34.7449</ele>
        <time>2013-05-19T16:30:39Z</time>
      </trkpt>
      <trkpt lat="59.9695654" lon="17.7175637">
        <ele>35.2255</ele>
        <time>2013-05-19T16:30:40Z</time>
      </trkpt>
      <trkpt lat="59.9694845" lon="17.7175154">
        <ele>35.2255</ele>
        <time>2013-05-19T16:30:41Z</time>
      </trkpt>
      <trkpt lat="59.9694036" lon="17.7174728">
        <ele>35.2255</ele>
        <time>2013-05-19T16:30:42Z</time>
      </trkpt>
      <trkpt lat="59.9693233" lon="17.717434">
        <ele>35.7061</ele>
        <time>2013-05-19T16:30:43Z</time>
      </trkpt>
      <trkpt lat="59.9692432" lon="17.7173991">
        <ele>35.7061</ele>
        <time>2013-05-19T16:30:44Z</time>
      </trkpt>
      <trkpt lat="59.9691636" lon="17.7173653">
        <ele>35.7061</ele>
        <time>2013-05-19T16:30:45Z</time>
      </trkpt>
      <trkpt lat="59.9690844" lon="17.7173312">
        <ele>35.7061</ele>
        <time>2013-05-19T16:30:46Z</time>
      </trkpt>
      <trkpt lat="59.9690052" lon="17.7172991">
        <ele>35.7061</ele>
        <time>2013-05-19T16:30:47Z</time>
      </trkpt>
      <trkpt lat="59.9689258" lon="17.7172693">
        <ele>35.7061</ele>
        <time>2013-05-19T16:30:48Z</time>
      </trkpt>
      <trkpt lat="59.9688461" lon="17.7172401">
        <ele>35.7061</ele>
        <time>2013-05-19T16:30:49Z</time>
      </trkpt>
      <trkpt lat="59.968766" lon="17.7172087">
        <ele>35.7061</ele>
        <time>2013-05-19T16:30:50Z</time>
      </trkpt>
      <trkpt lat="59.9686857" lon="17.7171727">
        <ele>35.7061</ele>
        <time>2013-05-19T16:30:51Z</time>
      </trkpt>
      <trkpt lat="59.9686038" lon="17.7171333">
        <ele>35.2255</ele>
        <time>2013-05-19T16:30:52Z</time>
      </trkpt>
      <trkpt lat="59.9685209" lon="17.7170911">
        <ele>35.2255</ele>
        <time>2013-05-19T16:30:53Z</time>
      </trkpt>
      <trkpt lat="59.9684376" lon="17.7170405">
        <ele>34.7449</ele>
        <time>2013-05-19T16:30:54Z</time>
      </trkpt>
      <trkpt lat="59.9683546" lon="17.7169768">
        <ele>34.7449</ele>
        <time>2013-05-19T16:30:55Z</time>
      </trkpt>
      <trkpt lat="59.9682713" lon="17.7169012">
        <ele>34.2642</ele>
        <time>2013-05-19T16:30:56Z</time>
      </trkpt>
      <trkpt lat="59.9681892" lon="17.7168122">
        <ele>33.7834</ele>
        <time>2013-05-19T16:30:57Z</time>
      </trkpt>
      <trkpt lat="59.9681084" lon="17.7167085">
        <ele>33.3029</ele>
        <time>2013-05-19T16:30:58Z</time>
      </trkpt>
      <trkpt lat="59.9680284" lon="17.7165909">
        <ele>32.3416</ele>
        <time>2013-05-19T16:30:59Z</time>
      </trkpt>
      <trkpt lat="59.9679501" lon="17.7164598">
        <ele>31.8607</ele>
        <time>2013-05-19T16:31:00Z</time>
      </trkpt>
      <trkpt lat="59.9678736" lon="17.7163153">
        <ele>30.8995</ele>
        <time>2013-05-19T16:31:01Z</time>
      </trkpt>
      <trkpt lat="59.9678009" lon="17.7161545">
        <ele>29.9381</ele>
        <time>2013-05-19T16:31:02Z</time>
      </trkpt>
      <trkpt lat="59.9677336" lon="17.7159765">
        <ele>29.4575</ele>
        <time>2013-05-19T16:31:03Z</time>
      </trkpt>
      <trkpt lat="59.9676738" lon="17.7157844">
        <ele>28.4962</ele>
        <time>2013-05-19T16:31:04Z</time>
      </trkpt>
      <trkpt lat="59.9676176" lon="17.7155837">
        <ele>28.0155</ele>
        <time>2013-05-19T16:31:05Z</time>
      </trkpt>
      <trkpt lat="59.9675611" lon="17.7153777">
        <ele>27.0543</ele>
        <time>2013-05-19T16:31:06Z</time>
      </trkpt>
      <trkpt lat="59.9675161" lon="17.715167">
        <ele>26.5736</ele>
        <time>2013-05-19T16:31:07Z</time>
      </trkpt>
      <trkpt lat="59.9674767" lon="17.7149519">
        <ele>26.0929</ele>
        <time>2013-05-19T16:31:08Z</time>
      </trkpt>
      <trkpt lat="59.9674497" lon="17.7147479">
        <ele>25.6123</ele>
        <time>2013-05-19T16:31:09Z</time>
      </trkpt>
      <trkpt lat="59.9674238" lon="17.7145492">
        <ele>25.6123</ele>
        <time>2013-05-19T16:31:10Z</time>
      </trkpt>
      <trkpt lat="59.9673965" lon="17.7143565">
        <ele>26.0929</ele>
        <time>2013-05-19T16:31:11Z</time>
      </trkpt>
      <trkpt lat="59.9673709" lon="17.7141773">
        <ele>26.5736</ele>
        <time>2013-05-19T16:31:12Z</time>
      </trkpt>
      <trkpt lat="59.9673465" lon="17.7140076">
        <ele>26.5736</ele>
        <time>2013-05-19T16:31:13Z</time>
      </trkpt>
      <trkpt lat="59.9673252" lon="17.7138452">
        <ele>27.0543</ele>
        <time>2013-05-19T16:31:14Z</time>
      </trkpt>
      <trkpt lat="59.9673042" lon="17.7136901">
        <ele>27.5349</ele>
        <time>2013-05-19T16:31:15Z</time>
      </trkpt>
      <trkpt lat="59.9672824" lon="17.7135422">
        <ele>28.0155</ele>
        <time>2013-05-19T16:31:16Z</time>
      </trkpt>
      <trkpt lat="59.9672594" lon="17.713401">
        <ele>28.4962</ele>
        <time>2013-05-19T16:31:17Z</time>
      </trkpt>
      <trkpt lat="59.9672358" lon="17.7132664">
        <ele>28.9769</ele>
        <time>2013-05-19T16:31:18Z</time>
      </trkpt>
      <trkpt lat="59.967211" lon="17.7131363">
        <ele>28.9769</ele>
        <time>2013-05-19T16:31:19Z</time>
      </trkpt>
      <trkpt lat="59.967184" lon="17.7130099">
        <ele>29.4575</ele>
        <time>2013-05-19T16:31:20Z</time>
      </trkpt>
      <trkpt lat="59.9671546" lon="17.7128882">
        <ele>29.4575</ele>
        <time>2013-05-19T16:31:21Z</time>
      </trkpt>
      <trkpt lat="59.9671224" lon="17.7127707">
        <ele>29.9381</ele>
        <time>2013-05-19T16:31:22Z</time>
      </trkpt>
      <trkpt lat="59.9670888" lon="17.7126551">
        <ele>29.9381</ele>
        <time>2013-05-19T16:31:23Z</time>
      </trkpt>
      <trkpt lat="59.9670541" lon="17.71254">
        <ele>29.9381</ele>
        <time>2013-05-19T16:31:24Z</time>
      </trkpt>
      <trkpt lat="59.9670163" lon="17.7124261">
        <ele>29.9381</ele>
        <time>2013-05-19T16:31:25Z</time>
      </trkpt>
      <trkpt lat="59.9669757" lon="17.7123137">
        <ele>29.9381</ele>
        <time>2013-05-19T16:31:26Z</time>
      </trkpt>
      <trkpt lat="59.9669341" lon="17.7122026">
        <ele>30.4188</ele>
        <time>2013-05-19T16:31:27Z</time>
      </trkpt>
      <trkpt lat="59.9668923" lon="17.7120902">
        <ele>30.4188</ele>
        <time>2013-05-19T16:31:28Z</time>
      </trkpt>
      <trkpt lat="59.9668509" lon="17.711974">
        <ele>30.4188</ele>
        <time>2013-05-19T16:31:29Z</time>
      </trkpt>
      <trkpt lat="59.9668089" lon="17.7118546">
        <ele>30.4188</ele>
        <time>2013-05-19T16:31:30Z</time>
      </trkpt>
      <trkpt lat="59.9667659" lon="17.7117339">
        <ele>30.4188</ele>
        <time>2013-05-19T16:31:31Z</time>
      </trkpt>
      <trkpt lat="59.9667219" lon="17.7116127">
        <ele>30.4188</ele>
        <time>2013-05-19T16:31:32Z</time>
      </trkpt>
      <trkpt lat="59.9666784" lon="17.7114894">
        <ele>30.4188</ele>
        <time>2013-05-19T16:31:33Z</time>
      </trkpt>
      <trkpt lat="59.966637" lon="17.7113622">
        <ele>30.4188</ele>
        <time>2013-05-19T16:31:34Z</time>
      </trkpt>
      <trkpt lat="59.9665985" lon="17.7112301">
        <ele>30.4188</ele>
        <time>2013-05-19T16:31:35Z</time>
      </trkpt>
      <trkpt lat="59.9665619" lon="17.7110947">
        <ele>30.4188</ele>
        <time>2013-05-19T16:31:36Z</time>
      </trkpt>
      <trkpt lat="59.9665252" lon="17.7109573">
        <ele>30.4188</ele>
        <time>2013-05-19T16:31:37Z</time>
      </trkpt>
      <trkpt lat="59.9664866" lon="17.7108195">
        <ele>30.4188</ele>
        <time>2013-05-19T16:31:38Z</time>
      </trkpt>
      <trkpt lat="59.9664489" lon="17.7106824">
        <ele>29.9381</ele>
        <time>2013-05-19T16:31:39Z</time>
      </trkpt>
      <trkpt lat="59.966412" lon="17.710541">
        <ele>29.9381</ele>
        <time>2013-05-19T16:31:40Z</time>
      </trkpt>
      <trkpt lat="59.9663729" lon="17.710395">
        <ele>29.9381</ele>
        <time>2013-05-19T16:31:41Z</time>
      </trkpt>
      <trkpt lat="59.966333" lon="17.7102461">
        <ele>29.9381</ele>
        <time>2013-05-19T16:31:42Z</time>
      </trkpt>
      <trkpt lat="59.966292" lon="17.7100945">
        <ele>29.9381</ele>
        <time>2013-05-19T16:31:43Z</time>
      </trkpt>
      <trkpt lat="59.9662503" lon="17.7099412">
        <ele>29.9381</ele>
        <time>2013-05-19T16:31:44Z</time>
      </trkpt>
      <trkpt lat="59.9662081" lon="17.7097872">
        <ele>29.9381</ele>
        <time>2013-05-19T16:31:45Z</time>
      </trkpt>
      <trkpt lat="59.9661641" lon="17.709633">
        <ele>29.9381</ele>
        <time>2013-05-19T16:31:46Z</time>
      </trkpt>
      <trkpt lat="59.9661201" lon="17.7094795">
        <ele>29.9381</ele>
        <time>2013-05-19T16:31:47Z</time>
      </trkpt>
      <trkpt lat="59.9660755" lon="17.7093264">
        <ele>29.9381</ele>
        <time>2013-05-19T16:31:48Z</time>
      </trkpt>
      <trkpt lat="59.9660304" lon="17.7091745">
        <ele>29.9381</ele>
        <time>2013-05-19T16:31:49Z</time>
      </trkpt>
      <trkpt lat="59.9659832" lon="17.7090238">
        <ele>29.9381</ele>
        <time>2013-05-19T16:31:50Z</time>
      </trkpt>
      <trkpt lat="59.965935" lon="17.7088773">
        <ele>29.9381</ele>
        <time>2013-05-19T16:31:51Z</time>
      </trkpt>
      <trkpt lat="59.9658839" lon="17.7087358">
        <ele>29.9381</ele>
        <time>2013-05-19T16:31:52Z</time>
      </trkpt>
      <trkpt lat="59.9658298" lon="17.7086005">
        <ele>29.9381</ele>
        <time>2013-05-19T16:31:53Z</time>
      </trkpt>
      <trkpt lat="59.9657719" lon="17.7084726">
        <ele>29.9381</ele>
        <time>2013-05-19T16:31:54Z</time>
      </trkpt>
      <trkpt lat="59.9657098" lon="17.7083555">
        <ele>30.4188</ele>
        <time>2013-05-19T16:31:55Z</time>
      </trkpt>
      <trkpt lat="59.9656424" lon="17.7082515">
        <ele>30.4188</ele>
        <time>2013-05-19T16:31:56Z</time>
      </trkpt>
      <trkpt lat="59.9655673" lon="17.7081573">
        <ele>29.9381</ele>
        <time>2013-05-19T16:31:57Z</time>
      </trkpt>
      <trkpt lat="59.9654907" lon="17.7080749">
        <ele>29.9381</ele>
        <time>2013-05-19T16:31:58Z</time>
      </trkpt>
      <trkpt lat="59.9654134" lon="17.7080003">
        <ele>29.9381</ele>
        <time>2013-05-19T16:31:59Z</time>
      </trkpt>
      <trkpt lat="59.9653358" lon="17.7079303">
        <ele>29.9381</ele>
        <time>2013-05-19T16:32:00Z</time>
      </trkpt>
      <trkpt lat="59.9652583" lon="17.7078635">
        <ele>29.9381</ele>
        <time>2013-05-19T16:32:01Z</time>
      </trkpt>
      <trkpt lat="59.9651808" lon="17.7077997">
        <ele>30.4188</ele>
        <time>2013-05-19T16:32:02Z</time>
      </trkpt>
      <trkpt lat="59.9651031" lon="17.7077387">
        <ele>30.4188</ele>
        <time>2013-05-19T16:32:03Z</time>
      </trkpt>
      <trkpt lat="59.9650258" lon="17.7076784">
        <ele>30.4188</ele>
        <time>2013-05-19T16:32:04Z</time>
      </trkpt>
      <trkpt lat="59.9649488" lon="17.7076175">
        <ele>30.4188</ele>
        <time>2013-05-19T16:32:05Z</time>
      </trkpt>
      <trkpt lat="59.9648724" lon="17.707559">
        <ele>30.8995</ele>
        <time>2013-05-19T16:32:06Z</time>
      </trkpt>
      <trkpt lat="59.9647961" lon="17.7075069">
        <ele>30.8995</ele>
        <time>2013-05-19T16:32:07Z</time>
      </trkpt>
      <trkpt lat="59.9647204" lon="17.7074582">
        <ele>31.3801</ele>
        <time>2013-05-19T16:32:08Z</time>
      </trkpt>
      <trkpt lat="59.9646445" lon="17.7074128">
        <ele>31.3801</ele>
        <time>2013-05-19T16:32:09Z</time>
      </trkpt>
      <trkpt lat="59.9645691" lon="17.7073698">
        <ele>31.3801</ele>
        <time>2013-05-19T16:32:10Z</time>
      </trkpt>
      <trkpt lat="59.964494" lon="17.7073271">
        <ele>31.3801</ele>
        <time>2013-05-19T16:32:11Z</time>
      </trkpt>
      <trkpt lat="59.9644173" lon="17.7072905">
        <ele>30.8995</ele>
        <time>2013-05-19T16:32:12Z</time>
      </trkpt>
      <trkpt lat="59.964339" lon="17.7072616">
        <ele>30.8995</ele>
        <time>2013-05-19T16:32:13Z</time>
      </trkpt>
      <trkpt lat="59.9642609" lon="17.7072357">
        <ele>30.8995</ele>
        <time>2013-05-19T16:32:14Z</time>
      </trkpt>
      <trkpt lat="59.9641831" lon="17.7072135">
        <ele>30.8995</ele>
        <time>2013-05-19T16:32:15Z</time>
      </trkpt>
      <trkpt lat="59.9641055" lon="17.7071957">
        <ele>30.4188</ele>
        <time>2013-05-19T16:32:16Z</time>
      </trkpt>
      <trkpt lat="59.9640284" lon="17.7071817">
        <ele>30.4188</ele>
        <time>2013-05-19T16:32:17Z</time>
      </trkpt>
      <trkpt lat="59.9639507" lon="17.7071687">
        <ele>29.9381</ele>
        <time>2013-05-19T16:32:18Z</time>
      </trkpt>
      <trkpt lat="59.9638737" lon="17.7071565">
        <ele>29.9381</ele>
        <time>2013-05-19T16:32:19Z</time>
      </trkpt>
      <trkpt lat="59.9637972" lon="17.7071475">
        <ele>29.4575</ele>
        <time>2013-05-19T16:32:20Z</time>
      </trkpt>
      <trkpt lat="59.9637212" lon="17.7071387">
        <ele>29.4575</ele>
        <time>2013-05-19T16:32:21Z</time>
      </trkpt>
      <trkpt lat="59.9636445" lon="17.7071294">
        <ele>28.9769</ele>
        <time>2013-05-19T16:32:22Z</time>
      </trkpt>
      <trkpt lat="59.9635672" lon="17.7071222">
        <ele>28.9769</ele>
        <time>2013-05-19T16:32:23Z</time>
      </trkpt>
      <trkpt lat="59.9634896" lon="17.707117">
        <ele>28.9769</ele>
        <time>2013-05-19T16:32:24Z</time>
      </trkpt>
      <trkpt lat="59.9634117" lon="17.7071127">
        <ele>28.9769</ele>
        <time>2013-05-19T16:32:25Z</time>
      </trkpt>
      <trkpt lat="59.9633337" lon="17.7071088">
        <ele>28.9769</ele>
        <time>2013-05-19T16:32:26Z</time>
      </trkpt>
      <trkpt lat="59.9632564" lon="17.707109">
        <ele>28.4962</ele>
        <time>2013-05-19T16:32:27Z</time>
      </trkpt>
      <trkpt lat="59.9631798" lon="17.7071123">
        <ele>28.4962</ele>
        <time>2013-05-19T16:32:28Z</time>
      </trkpt>
      <trkpt lat="59.9631032" lon="17.7071148">
        <ele>28.4962</ele>
        <time>2013-05-19T16:32:29Z</time>
      </trkpt>
      <trkpt lat="59.963027" lon="17.7071161">
        <ele>28.4962</ele>
        <time>2013-05-19T16:32:30Z</time>
      </trkpt>
      <trkpt lat="59.9629516" lon="17.7071201">
        <ele>28.4962</ele>
        <time>2013-05-19T16:32:31Z</time>
      </trkpt>
      <trkpt lat="59.962877" lon="17.7071268">
        <ele>28.9769</ele>
        <time>2013-05-19T16:32:32Z</time>
      </trkpt>
      <trkpt lat="59.9628011" lon="17.7071279">
        <ele>28.9769</ele>
        <time>2013-05-19T16:32:33Z</time>
      </trkpt>
      <trkpt lat="59.9627258" lon="17.7071195">
        <ele>28.4962</ele>
        <time>2013-05-19T16:32:34Z</time>
      </trkpt>
      <trkpt lat="59.9626519" lon="17.7071034">
        <ele>28.4962</ele>
        <time>2013-05-19T16:32:35Z</time>
      </trkpt>
      <trkpt lat="59.9625787" lon="17.7070824">
        <ele>28.4962</ele>
        <time>2013-05-19T16:32:36Z</time>
      </trkpt>
      <trkpt lat="59.962507" lon="17.7070595">
        <ele>28.0155</ele>
        <time>2013-05-19T16:32:37Z</time>
      </trkpt>
      <trkpt lat="59.9624359" lon="17.7070339">
        <ele>28.0155</ele>
        <time>2013-05-19T16:32:38Z</time>
      </trkpt>
      <trkpt lat="59.962365" lon="17.7070042">
        <ele>28.0155</ele>
        <time>2013-05-19T16:32:39Z</time>
      </trkpt>
      <trkpt lat="59.9622946" lon="17.7069712">
        <ele>28.0155</ele>
        <time>2013-05-19T16:32:40Z</time>
      </trkpt>
      <trkpt lat="59.962225" lon="17.7069355">
        <ele>28.0155</ele>
        <time>2013-05-19T16:32:41Z</time>
      </trkpt>
      <trkpt lat="59.9621557" lon="17.7068968">
        <ele>28.0155</ele>
        <time>2013-05-19T16:32:42Z</time>
      </trkpt>
      <trkpt lat="59.962086" lon="17.7068552">
        <ele>28.0155</ele>
        <time>2013-05-19T16:32:43Z</time>
      </trkpt>
      <trkpt lat="59.9620157" lon="17.7068119">
        <ele>27.5349</ele>
        <time>2013-05-19T16:32:44Z</time>
      </trkpt>
      <trkpt lat="59.9619453" lon="17.7067662">
        <ele>27.5349</ele>
        <time>2013-05-19T16:32:45Z</time>
      </trkpt>
      <trkpt lat="59.9618748" lon="17.7067161">
        <ele>27.5349</ele>
        <time>2013-05-19T16:32:46Z</time>
      </trkpt>
      <trkpt lat="59.9618044" lon="17.7066594">
        <ele>27.5349</ele>
        <time>2013-05-19T16:32:47Z</time>
      </trkpt>
      <trkpt lat="59.9617344" lon="17.7065941">
        <ele>27.5349</ele>
        <time>2013-05-19T16:32:48Z</time>
      </trkpt>
      <trkpt lat="59.961665" lon="17.7065216">
        <ele>27.0543</ele>
        <time>2013-05-19T16:32:49Z</time>
      </trkpt>
      <trkpt lat="59.9615961" lon="17.7064421">
        <ele>27.0543</ele>
        <time>2013-05-19T16:32:50Z</time>
      </trkpt>
      <trkpt lat="59.9615289" lon="17.7063525">
        <ele>27.0543</ele>
        <time>2013-05-19T16:32:51Z</time>
      </trkpt>
      <trkpt lat="59.9614652" lon="17.706253">
        <ele>26.5736</ele>
        <time>2013-05-19T16:32:52Z</time>
      </trkpt>
      <trkpt lat="59.9614043" lon="17.7061442">
        <ele>26.5736</ele>
        <time>2013-05-19T16:32:53Z</time>
      </trkpt>
      <trkpt lat="59.9613439" lon="17.7060295">
        <ele>27.0543</ele>
        <time>2013-05-19T16:32:54Z</time>
      </trkpt>
      <trkpt lat="59.9612833" lon="17.7059127">
        <ele>27.0543</ele>
        <time>2013-05-19T16:32:55Z</time>
      </trkpt>
      <trkpt lat="59.9612235" lon="17.7057979">
        <ele>27.0543</ele>
        <time>2013-05-19T16:32:56Z</time>
      </trkpt>
      <trkpt lat="59.9611629" lon="17.7056832">
        <ele>27.0543</ele>
        <time>2013-05-19T16:32:57Z</time>
      </trkpt>
      <trkpt lat="59.9611018" lon="17.7055698">
        <ele>27.0543</ele>
        <time>2013-05-19T16:32:58Z</time>
      </trkpt>
      <trkpt lat="59.9610383" lon="17.7054623">
        <ele>27.0543</ele>
        <time>2013-05-19T16:32:59Z</time>
      </trkpt>
      <trkpt lat="59.960974" lon="17.705359">
        <ele>27.0543</ele>
        <time>2013-05-19T16:33:00Z</time>
      </trkpt>
      <trkpt lat="59.9609041" lon="17.7052385">
        <ele>27.0543</ele>
        <time>2013-05-19T16:33:01Z</time>
      </trkpt>
      <trkpt lat="59.960833" lon="17.7051371">
        <ele>27.0543</ele>
        <time>2013-05-19T16:33:02Z</time>
      </trkpt>
      <trkpt lat="59.9607667" lon="17.7050318">
        <ele>27.0543</ele>
        <time>2013-05-19T16:33:03Z</time>
      </trkpt>
      <trkpt lat="59.9606975" lon="17.7049329">
        <ele>27.0543</ele>
        <time>2013-05-19T16:33:04Z</time>
      </trkpt>
      <trkpt lat="59.9606243" lon="17.7048381">
        <ele>27.0543</ele>
        <time>2013-05-19T16:33:05Z</time>
      </trkpt>
      <trkpt lat="59.9605482" lon="17.7047459">
        <ele>27.0543</ele>
        <time>2013-05-19T16:33:06Z</time>
      </trkpt>
      <trkpt lat="59.9604738" lon="17.704663">
        <ele>27.0543</ele>
        <time>2013-05-19T16:33:07Z</time>
      </trkpt>
      <trkpt lat="59.960402" lon="17.7045782">
        <ele>27.0543</ele>
        <time>2013-05-19T16:33:08Z</time>
      </trkpt>
      <trkpt lat="59.9603297" lon="17.7044964">
        <ele>27.0543</ele>
        <time>2013-05-19T16:33:09Z</time>
      </trkpt>
      <trkpt lat="59.960258" lon="17.7044128">
        <ele>27.0543</ele>
        <time>2013-05-19T16:33:10Z</time>
      </trkpt>
      <trkpt lat="59.9601889" lon="17.7043224">
        <ele>27.0543</ele>
        <time>2013-05-19T16:33:11Z</time>
      </trkpt>
      <trkpt lat="59.9601226" lon="17.7042175">
        <ele>27.5349</ele>
        <time>2013-05-19T16:33:12Z</time>
      </trkpt>
      <trkpt lat="59.9600637" lon="17.7041111">
        <ele>27.5349</ele>
        <time>2013-05-19T16:33:13Z</time>
      </trkpt>
      <trkpt lat="59.96001" lon="17.7039947">
        <ele>28.0155</ele>
        <time>2013-05-19T16:33:14Z</time>
      </trkpt>
      <trkpt lat="59.9599604" lon="17.7038696">
        <ele>28.0155</ele>
        <time>2013-05-19T16:33:15Z</time>
      </trkpt>
      <trkpt lat="59.9599164" lon="17.7037358">
        <ele>28.4962</ele>
        <time>2013-05-19T16:33:16Z</time>
      </trkpt>
      <trkpt lat="59.9598775" lon="17.7035991">
        <ele>28.9769</ele>
        <time>2013-05-19T16:33:17Z</time>
      </trkpt>
      <trkpt lat="59.9598355" lon="17.7034681">
        <ele>29.4575</ele>
        <time>2013-05-19T16:33:18Z</time>
      </trkpt>
      <trkpt lat="59.9597946" lon="17.703338">
        <ele>29.4575</ele>
        <time>2013-05-19T16:33:19Z</time>
      </trkpt>
      <trkpt lat="59.9597543" lon="17.7032102">
        <ele>29.9381</ele>
        <time>2013-05-19T16:33:20Z</time>
      </trkpt>
      <trkpt lat="59.9597132" lon="17.7030828">
        <ele>29.9381</ele>
        <time>2013-05-19T16:33:21Z</time>
      </trkpt>
      <trkpt lat="59.9596744" lon="17.7029548">
        <ele>30.4188</ele>
        <time>2013-05-19T16:33:22Z</time>
      </trkpt>
      <trkpt lat="59.9596386" lon="17.7028274">
        <ele>30.4188</ele>
        <time>2013-05-19T16:33:23Z</time>
      </trkpt>
      <trkpt lat="59.9596024" lon="17.7026999">
        <ele>30.4188</ele>
        <time>2013-05-19T16:33:24Z</time>
      </trkpt>
      <trkpt lat="59.9595644" lon="17.7025723">
        <ele>30.4188</ele>
        <time>2013-05-19T16:33:25Z</time>
      </trkpt>
      <trkpt lat="59.9595273" lon="17.7024445">
        <ele>30.4188</ele>
        <time>2013-05-19T16:33:26Z</time>
      </trkpt>
      <trkpt lat="59.9594898" lon="17.7023138">
        <ele>30.4188</ele>
        <time>2013-05-19T16:33:27Z</time>
      </trkpt>
      <trkpt lat="59.9594535" lon="17.7021793">
        <ele>30.4188</ele>
        <time>2013-05-19T16:33:28Z</time>
      </trkpt>
      <trkpt lat="59.9594185" lon="17.702042">
        <ele>30.8995</ele>
        <time>2013-05-19T16:33:29Z</time>
      </trkpt>
      <trkpt lat="59.9593844" lon="17.7018999">
        <ele>30.8995</ele>
        <time>2013-05-19T16:33:30Z</time>
      </trkpt>
      <trkpt lat="59.9593558" lon="17.7017591">
        <ele>30.8995</ele>
        <time>2013-05-19T16:33:31Z</time>
      </trkpt>
      <trkpt lat="59.9593338" lon="17.7016189">
        <ele>31.3801</ele>
        <time>2013-05-19T16:33:32Z</time>
      </trkpt>
      <trkpt lat="59.959305" lon="17.7014845">
        <ele>31.8607</ele>
        <time>2013-05-19T16:33:33Z</time>
      </trkpt>
      <trkpt lat="59.9592957" lon="17.7013501">
        <ele>32.3416</ele>
        <time>2013-05-19T16:33:34Z</time>
      </trkpt>
      <trkpt lat="59.9592878" lon="17.7012143">
        <ele>33.3029</ele>
        <time>2013-05-19T16:33:35Z</time>
      </trkpt>
      <trkpt lat="59.9592771" lon="17.7010688">
        <ele>33.7834</ele>
        <time>2013-05-19T16:33:36Z</time>
      </trkpt>
      <trkpt lat="59.95926" lon="17.7009065">
        <ele>33.7834</ele>
        <time>2013-05-19T16:33:37Z</time>
      </trkpt>
      <trkpt lat="59.9592476" lon="17.7007579">
        <ele>34.2642</ele>
        <time>2013-05-19T16:33:38Z</time>
      </trkpt>
      <trkpt lat="59.9592108" lon="17.7005589">
        <ele>34.2642</ele>
        <time>2013-05-19T16:33:39Z</time>
      </trkpt>
      <trkpt lat="59.9591813" lon="17.7003692">
        <ele>33.7834</ele>
        <time>2013-05-19T16:33:40Z</time>
      </trkpt>
      <trkpt lat="59.9591647" lon="17.7001969">
        <ele>33.7834</ele>
        <time>2013-05-19T16:33:41Z</time>
      </trkpt>
      <trkpt lat="59.9591517" lon="17.7000265">
        <ele>33.7834</ele>
        <time>2013-05-19T16:33:42Z</time>
      </trkpt>
      <trkpt lat="59.9591386" lon="17.6998558">
        <ele>33.7834</ele>
        <time>2013-05-19T16:33:43Z</time>
      </trkpt>
      <trkpt lat="59.9591248" lon="17.6996841">
        <ele>34.2642</ele>
        <time>2013-05-19T16:33:44Z</time>
      </trkpt>
      <trkpt lat="59.9591137" lon="17.6995131">
        <ele>34.2642</ele>
        <time>2013-05-19T16:33:45Z</time>
      </trkpt>
      <trkpt lat="59.9591039" lon="17.6993418">
        <ele>34.7449</ele>
        <time>2013-05-19T16:33:46Z</time>
      </trkpt>
      <trkpt lat="59.9590963" lon="17.6991717">
        <ele>35.2255</ele>
        <time>2013-05-19T16:33:47Z</time>
      </trkpt>
      <trkpt lat="59.9590935" lon="17.6990044">
        <ele>35.7061</ele>
        <time>2013-05-19T16:33:48Z</time>
      </trkpt>
      <trkpt lat="59.9590881" lon="17.6988336">
        <ele>35.7061</ele>
        <time>2013-05-19T16:33:49Z</time>
      </trkpt>
      <trkpt lat="59.9590829" lon="17.6986626">
        <ele>36.1868</ele>
        <time>2013-05-19T16:33:50Z</time>
      </trkpt>
      <trkpt lat="59.959078" lon="17.6984931">
        <ele>36.1868</ele>
        <time>2013-05-19T16:33:51Z</time>
      </trkpt>
      <trkpt lat="59.9590703" lon="17.6983227">
        <ele>36.1868</ele>
        <time>2013-05-19T16:33:52Z</time>
      </trkpt>
      <trkpt lat="59.9590626" lon="17.6981566">
        <ele>36.6675</ele>
        <time>2013-05-19T16:33:53Z</time>
      </trkpt>
      <trkpt lat="59.9590523" lon="17.6979944">
        <ele>36.6675</ele>
        <time>2013-05-19T16:33:54Z</time>
      </trkpt>
      <trkpt lat="59.9590335" lon="17.6978294">
        <ele>36.1868</ele>
        <time>2013-05-19T16:33:55Z</time>
      </trkpt>
      <trkpt lat="59.9590104" lon="17.6976627">
        <ele>35.7061</ele>
        <time>2013-05-19T16:33:56Z</time>
      </trkpt>
      <trkpt lat="59.9589858" lon="17.6974891">
        <ele>35.7061</ele>
        <time>2013-05-19T16:33:57Z</time>
      </trkpt>
      <trkpt lat="59.9589581" lon="17.6973131">
        <ele>35.7061</ele>
        <time>2013-05-19T16:33:58Z</time>
      </trkpt>
      <trkpt lat="59.9589265" lon="17.6971369">
        <ele>35.7061</ele>
        <time>2013-05-19T16:33:59Z</time>
      </trkpt>
      <trkpt lat="59.95889" lon="17.6969624">
        <ele>36.1868</ele>
        <time>2013-05-19T16:34:00Z</time>
      </trkpt>
      <trkpt lat="59.9588493" lon="17.6967905">
        <ele>36.1868</ele>
        <time>2013-05-19T16:34:01Z</time>
      </trkpt>
      <trkpt lat="59.9588027" lon="17.6966224">
        <ele>36.1868</ele>
        <time>2013-05-19T16:34:02Z</time>
      </trkpt>
      <trkpt lat="59.9587492" lon="17.6964594">
        <ele>35.7061</ele>
        <time>2013-05-19T16:34:03Z</time>
      </trkpt>
      <trkpt lat="59.9586911" lon="17.696302">
        <ele>35.7061</ele>
        <time>2013-05-19T16:34:04Z</time>
      </trkpt>
      <trkpt lat="59.9586305" lon="17.6961488">
        <ele>35.7061</ele>
        <time>2013-05-19T16:34:05Z</time>
      </trkpt>
      <trkpt lat="59.9585704" lon="17.6959972">
        <ele>35.7061</ele>
        <time>2013-05-19T16:34:06Z</time>
      </trkpt>
      <trkpt lat="59.9585088" lon="17.6958437">
        <ele>35.7061</ele>
        <time>2013-05-19T16:34:07Z</time>
      </trkpt>
      <trkpt lat="59.9584467" lon="17.6956891">
        <ele>35.2255</ele>
        <time>2013-05-19T16:34:08Z</time>
      </trkpt>
      <trkpt lat="59.9583844" lon="17.6955348">
        <ele>35.2255</ele>
        <time>2013-05-19T16:34:09Z</time>
      </trkpt>
      <trkpt lat="59.9583233" lon="17.6953803">
        <ele>35.2255</ele>
        <time>2013-05-19T16:34:10Z</time>
      </trkpt>
      <trkpt lat="59.9582642" lon="17.6952231">
        <ele>35.2255</ele>
        <time>2013-05-19T16:34:11Z</time>
      </trkpt>
      <trkpt lat="59.9582062" lon="17.6950639">
        <ele>35.2255</ele>
        <time>2013-05-19T16:34:12Z</time>
      </trkpt>
      <trkpt lat="59.9581482" lon="17.6949053">
        <ele>35.2255</ele>
        <time>2013-05-19T16:34:13Z</time>
      </trkpt>
      <trkpt lat="59.9580904" lon="17.6947474">
        <ele>35.2255</ele>
        <time>2013-05-19T16:34:14Z</time>
      </trkpt>
      <trkpt lat="59.9580338" lon="17.6945878">
        <ele>35.2255</ele>
        <time>2013-05-19T16:34:15Z</time>
      </trkpt>
      <trkpt lat="59.957978" lon="17.6944278">
        <ele>35.2255</ele>
        <time>2013-05-19T16:34:16Z</time>
      </trkpt>
      <trkpt lat="59.9579231" lon="17.6942691">
        <ele>35.2255</ele>
        <time>2013-05-19T16:34:17Z</time>
      </trkpt>
      <trkpt lat="59.9578689" lon="17.6941117">
        <ele>35.2255</ele>
        <time>2013-05-19T16:34:18Z</time>
      </trkpt>
      <trkpt lat="59.9578137" lon="17.6939557">
        <ele>35.2255</ele>
        <time>2013-05-19T16:34:19Z</time>
      </trkpt>
      <trkpt lat="59.9577583" lon="17.6937996">
        <ele>35.2255</ele>
        <time>2013-05-19T16:34:20Z</time>
      </trkpt>
      <trkpt lat="59.957703" lon="17.6936428">
        <ele>35.2255</ele>
        <time>2013-05-19T16:34:21Z</time>
      </trkpt>
      <trkpt lat="59.9576479" lon="17.6934869">
        <ele>35.2255</ele>
        <time>2013-05-19T16:34:22Z</time>
      </trkpt>
      <trkpt lat="59.9575931" lon="17.6933325">
        <ele>35.2255</ele>
        <time>2013-05-19T16:34:23Z</time>
      </trkpt>
      <trkpt lat="59.9575397" lon="17.6931773">
        <ele>35.2255</ele>
        <time>2013-05-19T16:34:24Z</time>
      </trkpt>
      <trkpt lat="59.9574872" lon="17.6930212">
        <ele>35.7061</ele>
        <time>2013-05-19T16:34:25Z</time>
      </trkpt>
      <trkpt lat="59.957434" lon="17.692866">
        <ele>35.7061</ele>
        <time>2013-05-19T16:34:26Z</time>
      </trkpt>
      <trkpt lat="59.9573791" lon="17.6927116">
        <ele>35.7061</ele>
        <time>2013-05-19T16:34:27Z</time>
      </trkpt>
      <trkpt lat="59.9573242" lon="17.6925578">
        <ele>35.7061</ele>
        <time>2013-05-19T16:34:28Z</time>
      </trkpt>
      <trkpt lat="59.9572722" lon="17.6924059">
        <ele>35.7061</ele>
        <time>2013-05-19T16:34:29Z</time>
      </trkpt>
      <trkpt lat="59.95722" lon="17.6922553">
        <ele>35.7061</ele>
        <time>2013-05-19T16:34:30Z</time>
      </trkpt>
      <trkpt lat="59.9571662" lon="17.6921051">
        <ele>35.2255</ele>
        <time>2013-05-19T16:34:31Z</time>
      </trkpt>
      <trkpt lat="59.9571152" lon="17.6919564">
        <ele>35.7061</ele>
        <time>2013-05-19T16:34:32Z</time>
      </trkpt>
      <trkpt lat="59.9570663" lon="17.6918097">
        <ele>35.7061</ele>
        <time>2013-05-19T16:34:33Z</time>
      </trkpt>
      <trkpt lat="59.9570183" lon="17.6916658">
        <ele>35.7061</ele>
        <time>2013-05-19T16:34:34Z</time>
      </trkpt>
      <trkpt lat="59.9569705" lon="17.6915231">
        <ele>36.1868</ele>
        <time>2013-05-19T16:34:35Z</time>
      </trkpt>
      <trkpt lat="59.9569218" lon="17.6913809">
        <ele>36.1868</ele>
        <time>2013-05-19T16:34:36Z</time>
      </trkpt>
      <trkpt lat="59.9568735" lon="17.6912419">
        <ele>36.6675</ele>
        <time>2013-05-19T16:34:37Z</time>
      </trkpt>
      <trkpt lat="59.9568253" lon="17.691107">
        <ele>37.1481</ele>
        <time>2013-05-19T16:34:38Z</time>
      </trkpt>
      <trkpt lat="59.9567798" lon="17.690977">
        <ele>37.1481</ele>
        <time>2013-05-19T16:34:39Z</time>
      </trkpt>
      <trkpt lat="59.9567361" lon="17.690853">
        <ele>37.1481</ele>
        <time>2013-05-19T16:34:40Z</time>
      </trkpt>
      <trkpt lat="59.9566881" lon="17.6907412">
        <ele>37.6287</ele>
        <time>2013-05-19T16:34:41Z</time>
      </trkpt>
      <trkpt lat="59.9566309" lon="17.6906375">
        <ele>37.6287</ele>
        <time>2013-05-19T16:34:42Z</time>
      </trkpt>
      <trkpt lat="59.9565755" lon="17.6905346">
        <ele>37.6287</ele>
        <time>2013-05-19T16:34:43Z</time>
      </trkpt>
      <trkpt lat="59.9565248" lon="17.6904236">
        <ele>37.6287</ele>
        <time>2013-05-19T16:34:44Z</time>
      </trkpt>
      <trkpt lat="59.9564797" lon="17.6903033">
        <ele>37.6287</ele>
        <time>2013-05-19T16:34:45Z</time>
      </trkpt>
      <trkpt lat="59.9564387" lon="17.6901773">
        <ele>37.6287</ele>
        <time>2013-05-19T16:34:46Z</time>
      </trkpt>
      <trkpt lat="59.9563985" lon="17.6900475">
        <ele>37.6287</ele>
        <time>2013-05-19T16:34:47Z</time>
      </trkpt>
      <trkpt lat="59.956358" lon="17.6899134">
        <ele>37.6287</ele>
        <time>2013-05-19T16:34:48Z</time>
      </trkpt>
      <trkpt lat="59.9563198" lon="17.6897749">
        <ele>37.6287</ele>
        <time>2013-05-19T16:34:49Z</time>
      </trkpt>
      <trkpt lat="59.956281" lon="17.6896338">
        <ele>37.6287</ele>
        <time>2013-05-19T16:34:50Z</time>
      </trkpt>
      <trkpt lat="59.9562372" lon="17.6894956">
        <ele>37.1481</ele>
        <time>2013-05-19T16:34:51Z</time>
      </trkpt>
      <trkpt lat="59.9561902" lon="17.6893539">
        <ele>37.1481</ele>
        <time>2013-05-19T16:34:52Z</time>
      </trkpt>
      <trkpt lat="59.9561499" lon="17.6891955">
        <ele>37.1481</ele>
        <time>2013-05-19T16:34:53Z</time>
      </trkpt>
      <trkpt lat="59.9561214" lon="17.6890294">
        <ele>37.1481</ele>
        <time>2013-05-19T16:34:54Z</time>
      </trkpt>
      <trkpt lat="59.9560964" lon="17.6888602">
        <ele>37.1481</ele>
        <time>2013-05-19T16:34:55Z</time>
      </trkpt>
      <trkpt lat="59.9560711" lon="17.6886875">
        <ele>37.1481</ele>
        <time>2013-05-19T16:34:56Z</time>
      </trkpt>
      <trkpt lat="59.95605" lon="17.6885204">
        <ele>37.6287</ele>
        <time>2013-05-19T16:34:57Z</time>
      </trkpt>
      <trkpt lat="59.9560274" lon="17.6883504">
        <ele>38.1094</ele>
        <time>2013-05-19T16:34:58Z</time>
      </trkpt>
      <trkpt lat="59.9559971" lon="17.6881693">
        <ele>37.6287</ele>
        <time>2013-05-19T16:34:59Z</time>
      </trkpt>
      <trkpt lat="59.9559676" lon="17.6879879">
        <ele>37.6287</ele>
        <time>2013-05-19T16:35:00Z</time>
      </trkpt>
      <trkpt lat="59.9559459" lon="17.6878173">
        <ele>38.1094</ele>
        <time>2013-05-19T16:35:01Z</time>
      </trkpt>
      <trkpt lat="59.9559223" lon="17.6876464">
        <ele>38.5901</ele>
        <time>2013-05-19T16:35:02Z</time>
      </trkpt>
      <trkpt lat="59.9559" lon="17.6874793">
        <ele>39.0707</ele>
        <time>2013-05-19T16:35:03Z</time>
      </trkpt>
      <trkpt lat="59.9558805" lon="17.6873156">
        <ele>40.0321</ele>
        <time>2013-05-19T16:35:04Z</time>
      </trkpt>
      <trkpt lat="59.9558613" lon="17.6871532">
        <ele>40.9934</ele>
        <time>2013-05-19T16:35:05Z</time>
      </trkpt>
      <trkpt lat="59.9558384" lon="17.6869871">
        <ele>40.9934</ele>
        <time>2013-05-19T16:35:06Z</time>
      </trkpt>
      <trkpt lat="59.9558142" lon="17.6868176">
        <ele>41.474</ele>
        <time>2013-05-19T16:35:07Z</time>
      </trkpt>
      <trkpt lat="59.9557901" lon="17.6866484">
        <ele>41.474</ele>
        <time>2013-05-19T16:35:08Z</time>
      </trkpt>
      <trkpt lat="59.9557577" lon="17.686471">
        <ele>40.9934</ele>
        <time>2013-05-19T16:35:09Z</time>
      </trkpt>
      <trkpt lat="59.9557295" lon="17.6862987">
        <ele>40.9934</ele>
        <time>2013-05-19T16:35:10Z</time>
      </trkpt>
      <trkpt lat="59.9557074" lon="17.6861288">
        <ele>40.9934</ele>
        <time>2013-05-19T16:35:11Z</time>
      </trkpt>
      <trkpt lat="59.9556868" lon="17.6859614">
        <ele>40.9934</ele>
        <time>2013-05-19T16:35:12Z</time>
      </trkpt>
      <trkpt lat="59.9556583" lon="17.6857836">
        <ele>40.5128</ele>
        <time>2013-05-19T16:35:13Z</time>
      </trkpt>
      <trkpt lat="59.9556379" lon="17.6856165">
        <ele>40.9934</ele>
        <time>2013-05-19T16:35:14Z</time>
      </trkpt>
      <trkpt lat="59.9556156" lon="17.6854476">
        <ele>40.9934</ele>
        <time>2013-05-19T16:35:15Z</time>
      </trkpt>
      <trkpt lat="59.9555917" lon="17.6852759">
        <ele>40.5128</ele>
        <time>2013-05-19T16:35:16Z</time>
      </trkpt>
      <trkpt lat="59.9555656" lon="17.685103">
        <ele>40.0321</ele>
        <time>2013-05-19T16:35:17Z</time>
      </trkpt>
      <trkpt lat="59.9555327" lon="17.6849213">
        <ele>39.5513</ele>
        <time>2013-05-19T16:35:18Z</time>
      </trkpt>
      <trkpt lat="59.9554983" lon="17.6847424">
        <ele>39.0707</ele>
        <time>2013-05-19T16:35:19Z</time>
      </trkpt>
      <trkpt lat="59.9554676" lon="17.6845721">
        <ele>38.5901</ele>
        <time>2013-05-19T16:35:20Z</time>
      </trkpt>
      <trkpt lat="59.9554366" lon="17.6844034">
        <ele>38.5901</ele>
        <time>2013-05-19T16:35:21Z</time>
      </trkpt>
      <trkpt lat="59.9554032" lon="17.6842376">
        <ele>38.1094</ele>
        <time>2013-05-19T16:35:22Z</time>
      </trkpt>
      <trkpt lat="59.9553681" lon="17.6840719">
        <ele>38.1094</ele>
        <time>2013-05-19T16:35:23Z</time>
      </trkpt>
      <trkpt lat="59.9553322" lon="17.6839023">
        <ele>38.1094</ele>
        <time>2013-05-19T16:35:24Z</time>
      </trkpt>
      <trkpt lat="59.9552935" lon="17.6837295">
        <ele>37.6287</ele>
        <time>2013-05-19T16:35:25Z</time>
      </trkpt>
      <trkpt lat="59.9552517" lon="17.6835547">
        <ele>37.6287</ele>
        <time>2013-05-19T16:35:26Z</time>
      </trkpt>
      <trkpt lat="59.9552108" lon="17.6833774">
        <ele>37.6287</ele>
        <time>2013-05-19T16:35:27Z</time>
      </trkpt>
      <trkpt lat="59.9551701" lon="17.6831999">
        <ele>37.6287</ele>
        <time>2013-05-19T16:35:28Z</time>
      </trkpt>
      <trkpt lat="59.9551268" lon="17.6830274">
        <ele>37.6287</ele>
        <time>2013-05-19T16:35:29Z</time>
      </trkpt>
      <trkpt lat="59.9550796" lon="17.6828606">
        <ele>37.6287</ele>
        <time>2013-05-19T16:35:30Z</time>
      </trkpt>
      <trkpt lat="59.955032" lon="17.6826966">
        <ele>37.6287</ele>
        <time>2013-05-19T16:35:31Z</time>
      </trkpt>
      <trkpt lat="59.9549839" lon="17.6825342">
        <ele>37.6287</ele>
        <time>2013-05-19T16:35:32Z</time>
      </trkpt>
      <trkpt lat="59.954932" lon="17.6823696">
        <ele>37.1481</ele>
        <time>2013-05-19T16:35:33Z</time>
      </trkpt>
      <trkpt lat="59.9548805" lon="17.6822086">
        <ele>36.1868</ele>
        <time>2013-05-19T16:35:34Z</time>
      </trkpt>
      <trkpt lat="59.9548293" lon="17.6820473">
        <ele>35.7061</ele>
        <time>2013-05-19T16:35:35Z</time>
      </trkpt>
      <trkpt lat="59.9547771" lon="17.6818847">
        <ele>35.2255</ele>
        <time>2013-05-19T16:35:36Z</time>
      </trkpt>
      <trkpt lat="59.9547277" lon="17.6817198">
        <ele>35.2255</ele>
        <time>2013-05-19T16:35:37Z</time>
      </trkpt>
      <trkpt lat="59.954679" lon="17.6815563">
        <ele>34.7449</ele>
        <time>2013-05-19T16:35:38Z</time>
      </trkpt>
      <trkpt lat="59.9546282" lon="17.6814025">
        <ele>34.7449</ele>
        <time>2013-05-19T16:35:39Z</time>
      </trkpt>
      <trkpt lat="59.954571" lon="17.6812683">
        <ele>34.2642</ele>
        <time>2013-05-19T16:35:40Z</time>
      </trkpt>
      <trkpt lat="59.9545067" lon="17.6811619">
        <ele>34.2642</ele>
        <time>2013-05-19T16:35:41Z</time>
      </trkpt>
      <trkpt lat="59.9544385" lon="17.6810697">
        <ele>33.7834</ele>
        <time>2013-05-19T16:35:42Z</time>
      </trkpt>
      <trkpt lat="59.9543762" lon="17.6809622">
        <ele>33.7834</ele>
        <time>2013-05-19T16:35:43Z</time>
      </trkpt>
      <trkpt lat="59.9543258" lon="17.6808327">
        <ele>33.7834</ele>
        <time>2013-05-19T16:35:44Z</time>
      </trkpt>
      <trkpt lat="59.9542802" lon="17.6806912">
        <ele>33.7834</ele>
        <time>2013-05-19T16:35:45Z</time>
      </trkpt>
      <trkpt lat="59.9542358" lon="17.6805431">
        <ele>33.3029</ele>
        <time>2013-05-19T16:35:46Z</time>
      </trkpt>
      <trkpt lat="59.9541903" lon="17.6803937">
        <ele>33.7834</ele>
        <time>2013-05-19T16:35:47Z</time>
      </trkpt>
      <trkpt lat="59.9541406" lon="17.6802466">
        <ele>33.7834</ele>
        <time>2013-05-19T16:35:48Z</time>
      </trkpt>
      <trkpt lat="59.9540897" lon="17.6801012">
        <ele>33.7834</ele>
        <time>2013-05-19T16:35:49Z</time>
      </trkpt>
      <trkpt lat="59.95404" lon="17.6799566">
        <ele>33.7834</ele>
        <time>2013-05-19T16:35:50Z</time>
      </trkpt>
      <trkpt lat="59.9539909" lon="17.6798115">
        <ele>33.7834</ele>
        <time>2013-05-19T16:35:51Z</time>
      </trkpt>
      <trkpt lat="59.9539429" lon="17.6796661">
        <ele>34.2642</ele>
        <time>2013-05-19T16:35:52Z</time>
      </trkpt>
      <trkpt lat="59.9538958" lon="17.6795196">
        <ele>34.2642</ele>
        <time>2013-05-19T16:35:53Z</time>
      </trkpt>
      <trkpt lat="59.9538483" lon="17.6793715">
        <ele>34.2642</ele>
        <time>2013-05-19T16:35:54Z</time>
      </trkpt>
      <trkpt lat="59.9538011" lon="17.679224">
        <ele>34.7449</ele>
        <time>2013-05-19T16:35:55Z</time>
      </trkpt>
      <trkpt lat="59.9537515" lon="17.6790771">
        <ele>34.7449</ele>
        <time>2013-05-19T16:35:56Z</time>
      </trkpt>
      <trkpt lat="59.9537015" lon="17.6789296">
        <ele>34.7449</ele>
        <time>2013-05-19T16:35:57Z</time>
      </trkpt>
      <trkpt lat="59.9536505" lon="17.6787803">
        <ele>34.7449</ele>
        <time>2013-05-19T16:35:58Z</time>
      </trkpt>
      <trkpt lat="59.9535984" lon="17.678633">
        <ele>35.2255</ele>
        <time>2013-05-19T16:35:59Z</time>
      </trkpt>
      <trkpt lat="59.953547" lon="17.6784866">
        <ele>35.2255</ele>
        <time>2013-05-19T16:36:00Z</time>
      </trkpt>
      <trkpt lat="59.9534946" lon="17.6783338">
        <ele>35.2255</ele>
        <time>2013-05-19T16:36:01Z</time>
      </trkpt>
      <trkpt lat="59.9534426" lon="17.6781814">
        <ele>35.2255</ele>
        <time>2013-05-19T16:36:02Z</time>
      </trkpt>
      <trkpt lat="59.953391" lon="17.6780328">
        <ele>35.2255</ele>
        <time>2013-05-19T16:36:03Z</time>
      </trkpt>
      <trkpt lat="59.9533365" lon="17.6778804">
        <ele>35.2255</ele>
        <time>2013-05-19T16:36:04Z</time>
      </trkpt>
      <trkpt lat="59.9532847" lon="17.6777356">
        <ele>35.2255</ele>
        <time>2013-05-19T16:36:05Z</time>
      </trkpt>
      <trkpt lat="59.9532346" lon="17.6775968">
        <ele>35.2255</ele>
        <time>2013-05-19T16:36:06Z</time>
      </trkpt>
      <trkpt lat="59.9531847" lon="17.6774567">
        <ele>35.2255</ele>
        <time>2013-05-19T16:36:07Z</time>
      </trkpt>
      <trkpt lat="59.9531354" lon="17.6773191">
        <ele>35.2255</ele>
        <time>2013-05-19T16:36:08Z</time>
      </trkpt>
      <trkpt lat="59.9530847" lon="17.6771831">
        <ele>34.7449</ele>
        <time>2013-05-19T16:36:09Z</time>
      </trkpt>
      <trkpt lat="59.9530355" lon="17.6770466">
        <ele>34.7449</ele>
        <time>2013-05-19T16:36:10Z</time>
      </trkpt>
      <trkpt lat="59.9529844" lon="17.6769086">
        <ele>34.7449</ele>
        <time>2013-05-19T16:36:11Z</time>
      </trkpt>
      <trkpt lat="59.9529314" lon="17.6767735">
        <ele>34.7449</ele>
        <time>2013-05-19T16:36:12Z</time>
      </trkpt>
      <trkpt lat="59.9528769" lon="17.6766439">
        <ele>34.7449</ele>
        <time>2013-05-19T16:36:13Z</time>
      </trkpt>
      <trkpt lat="59.9528225" lon="17.676513">
        <ele>35.2255</ele>
        <time>2013-05-19T16:36:14Z</time>
      </trkpt>
      <trkpt lat="59.9527723" lon="17.6763788">
        <ele>35.2255</ele>
        <time>2013-05-19T16:36:15Z</time>
      </trkpt>
      <trkpt lat="59.9527264" lon="17.6762421">
        <ele>35.2255</ele>
        <time>2013-05-19T16:36:16Z</time>
      </trkpt>
      <trkpt lat="59.9526797" lon="17.6761044">
        <ele>35.2255</ele>
        <time>2013-05-19T16:36:17Z</time>
      </trkpt>
      <trkpt lat="59.9526319" lon="17.6759711">
        <ele>35.2255</ele>
        <time>2013-05-19T16:36:18Z</time>
      </trkpt>
      <trkpt lat="59.9525828" lon="17.6758436">
        <ele>35.7061</ele>
        <time>2013-05-19T16:36:19Z</time>
      </trkpt>
      <trkpt lat="59.9525341" lon="17.675722">
        <ele>35.7061</ele>
        <time>2013-05-19T16:36:20Z</time>
      </trkpt>
      <trkpt lat="59.952487" lon="17.675607">
        <ele>36.1868</ele>
        <time>2013-05-19T16:36:21Z</time>
      </trkpt>
      <trkpt lat="59.9524429" lon="17.6754951">
        <ele>36.6675</ele>
        <time>2013-05-19T16:36:22Z</time>
      </trkpt>
      <trkpt lat="59.9524032" lon="17.6753843">
        <ele>37.1481</ele>
        <time>2013-05-19T16:36:23Z</time>
      </trkpt>
      <trkpt lat="59.9523687" lon="17.6752724">
        <ele>37.6287</ele>
        <time>2013-05-19T16:36:24Z</time>
      </trkpt>
      <trkpt lat="59.9523369" lon="17.6751563">
        <ele>37.6287</ele>
        <time>2013-05-19T16:36:25Z</time>
      </trkpt>
      <trkpt lat="59.9523091" lon="17.6750382">
        <ele>37.6287</ele>
        <time>2013-05-19T16:36:26Z</time>
      </trkpt>
      <trkpt lat="59.9522849" lon="17.6749142">
        <ele>37.6287</ele>
        <time>2013-05-19T16:36:27Z</time>
      </trkpt>
      <trkpt lat="59.9522613" lon="17.6747785">
        <ele>37.1481</ele>
        <time>2013-05-19T16:36:28Z</time>
      </trkpt>
      <trkpt lat="59.9522366" lon="17.674631">
        <ele>37.1481</ele>
        <time>2013-05-19T16:36:29Z</time>
      </trkpt>
      <trkpt lat="59.9522082" lon="17.6744777">
        <ele>36.6675</ele>
        <time>2013-05-19T16:36:30Z</time>
      </trkpt>
      <trkpt lat="59.952176" lon="17.6743231">
        <ele>36.6675</ele>
        <time>2013-05-19T16:36:31Z</time>
      </trkpt>
      <trkpt lat="59.9521416" lon="17.6741679">
        <ele>36.1868</ele>
        <time>2013-05-19T16:36:32Z</time>
      </trkpt>
      <trkpt lat="59.9521094" lon="17.6740077">
        <ele>36.1868</ele>
        <time>2013-05-19T16:36:33Z</time>
      </trkpt>
      <trkpt lat="59.9520805" lon="17.6738393">
        <ele>35.2255</ele>
        <time>2013-05-19T16:36:34Z</time>
      </trkpt>
      <trkpt lat="59.952054" lon="17.6736659">
        <ele>34.7449</ele>
        <time>2013-05-19T16:36:35Z</time>
      </trkpt>
      <trkpt lat="59.9520268" lon="17.6734894">
        <ele>34.7449</ele>
        <time>2013-05-19T16:36:36Z</time>
      </trkpt>
      <trkpt lat="59.9519994" lon="17.6733101">
        <ele>34.2642</ele>
        <time>2013-05-19T16:36:37Z</time>
      </trkpt>
      <trkpt lat="59.9519709" lon="17.6731277">
        <ele>34.2642</ele>
        <time>2013-05-19T16:36:38Z</time>
      </trkpt>
      <trkpt lat="59.9519432" lon="17.6729426">
        <ele>33.7834</ele>
        <time>2013-05-19T16:36:39Z</time>
      </trkpt>
      <trkpt lat="59.9519177" lon="17.6727536">
        <ele>33.7834</ele>
        <time>2013-05-19T16:36:40Z</time>
      </trkpt>
      <trkpt lat="59.9518948" lon="17.6725585">
        <ele>33.3029</ele>
        <time>2013-05-19T16:36:41Z</time>
      </trkpt>
      <trkpt lat="59.9518746" lon="17.6723579">
        <ele>32.8223</ele>
        <time>2013-05-19T16:36:42Z</time>
      </trkpt>
      <trkpt lat="59.9518554" lon="17.6721544">
        <ele>32.8223</ele>
        <time>2013-05-19T16:36:43Z</time>
      </trkpt>
      <trkpt lat="59.9518379" lon="17.6719451">
        <ele>32.3416</ele>
        <time>2013-05-19T16:36:44Z</time>
      </trkpt>
      <trkpt lat="59.951826" lon="17.671737">
        <ele>31.3801</ele>
        <time>2013-05-19T16:36:45Z</time>
      </trkpt>
      <trkpt lat="59.951814" lon="17.6715298">
        <ele>30.8995</ele>
        <time>2013-05-19T16:36:46Z</time>
      </trkpt>
      <trkpt lat="59.9517901" lon="17.6713242">
        <ele>30.4188</ele>
        <time>2013-05-19T16:36:47Z</time>
      </trkpt>
      <trkpt lat="59.9517587" lon="17.671119">
        <ele>29.4575</ele>
        <time>2013-05-19T16:36:48Z</time>
      </trkpt>
      <trkpt lat="59.9517369" lon="17.670905">
        <ele>28.9769</ele>
        <time>2013-05-19T16:36:49Z</time>
      </trkpt>
      <trkpt lat="59.9517352" lon="17.6706836">
        <ele>28.4962</ele>
        <time>2013-05-19T16:36:50Z</time>
      </trkpt>
      <trkpt lat="59.9517445" lon="17.6704579">
        <ele>28.0155</ele>
        <time>2013-05-19T16:36:51Z</time>
      </trkpt>
      <trkpt lat="59.9517592" lon="17.6702368">
        <ele>27.5349</ele>
        <time>2013-05-19T16:36:52Z</time>
      </trkpt>
      <trkpt lat="59.9517745" lon="17.6700176">
        <ele>27.5349</ele>
        <time>2013-05-19T16:36:53Z</time>
      </trkpt>
      <trkpt lat="59.9517865" lon="17.6697996">
        <ele>27.0543</ele>
        <time>2013-05-19T16:36:54Z</time>
      </trkpt>
      <trkpt lat="59.951796" lon="17.6695825">
        <ele>26.5736</ele>
        <time>2013-05-19T16:36:55Z</time>
      </trkpt>
      <trkpt lat="59.9518037" lon="17.6693678">
        <ele>26.5736</ele>
        <time>2013-05-19T16:36:56Z</time>
      </trkpt>
      <trkpt lat="59.9518094" lon="17.6691587">
        <ele>26.5736</ele>
        <time>2013-05-19T16:36:57Z</time>
      </trkpt>
      <trkpt lat="59.95181" lon="17.6689548">
        <ele>26.0929</ele>
        <time>2013-05-19T16:36:58Z</time>
      </trkpt>
      <trkpt lat="59.9517981" lon="17.6687545">
        <ele>26.0929</ele>
        <time>2013-05-19T16:36:59Z</time>
      </trkpt>
      <trkpt lat="59.9517683" lon="17.6685649">
        <ele>25.6123</ele>
        <time>2013-05-19T16:37:00Z</time>
      </trkpt>
      <trkpt lat="59.9517266" lon="17.6683853">
        <ele>25.6123</ele>
        <time>2013-05-19T16:37:01Z</time>
      </trkpt>
      <trkpt lat="59.9516717" lon="17.6682284">
        <ele>25.6123</ele>
        <time>2013-05-19T16:37:02Z</time>
      </trkpt>
      <trkpt lat="59.9515943" lon="17.6681435">
        <ele>26.0929</ele>
        <time>2013-05-19T16:37:03Z</time>
      </trkpt>
      <trkpt lat="59.9514976" lon="17.6681257">
        <ele>26.0929</ele>
        <time>2013-05-19T16:37:04Z</time>
      </trkpt>
      <trkpt lat="59.9514032" lon="17.6681268">
        <ele>26.5736</ele>
        <time>2013-05-19T16:37:05Z</time>
      </trkpt>
      <trkpt lat="59.9513094" lon="17.6681476">
        <ele>26.5736</ele>
        <time>2013-05-19T16:37:06Z</time>
      </trkpt>
      <trkpt lat="59.9512179" lon="17.6681751">
        <ele>26.5736</ele>
        <time>2013-05-19T16:37:07Z</time>
      </trkpt>
      <trkpt lat="59.9511277" lon="17.6682041">
        <ele>26.5736</ele>
        <time>2013-05-19T16:37:08Z</time>
      </trkpt>
      <trkpt lat="59.951039" lon="17.668232">
        <ele>27.0543</ele>
        <time>2013-05-19T16:37:09Z</time>
      </trkpt>
      <trkpt lat="59.9509515" lon="17.6682555">
        <ele>27.0543</ele>
        <time>2013-05-19T16:37:10Z</time>
      </trkpt>
      <trkpt lat="59.9508651" lon="17.6682776">
        <ele>27.0543</ele>
        <time>2013-05-19T16:37:11Z</time>
      </trkpt>
      <trkpt lat="59.9507801" lon="17.6682987">
        <ele>27.0543</ele>
        <time>2013-05-19T16:37:12Z</time>
      </trkpt>
      <trkpt lat="59.9506948" lon="17.6683166">
        <ele>27.0543</ele>
        <time>2013-05-19T16:37:13Z</time>
      </trkpt>
      <trkpt lat="59.9506097" lon="17.66833">
        <ele>27.0543</ele>
        <time>2013-05-19T16:37:14Z</time>
      </trkpt>
      <trkpt lat="59.9505247" lon="17.6683386">
        <ele>27.0543</ele>
        <time>2013-05-19T16:37:15Z</time>
      </trkpt>
      <trkpt lat="59.9504389" lon="17.6683423">
        <ele>27.0543</ele>
        <time>2013-05-19T16:37:16Z</time>
      </trkpt>
      <trkpt lat="59.9503528" lon="17.6683404">
        <ele>27.0543</ele>
        <time>2013-05-19T16:37:17Z</time>
      </trkpt>
      <trkpt lat="59.9502668" lon="17.6683336">
        <ele>27.0543</ele>
        <time>2013-05-19T16:37:18Z</time>
      </trkpt>
      <trkpt lat="59.9501809" lon="17.6683202">
        <ele>27.0543</ele>
        <time>2013-05-19T16:37:19Z</time>
      </trkpt>
      <trkpt lat="59.9500953" lon="17.6682993">
        <ele>27.0543</ele>
        <time>2013-05-19T16:37:20Z</time>
      </trkpt>
      <trkpt lat="59.9500099" lon="17.6682717">
        <ele>27.0543</ele>
        <time>2013-05-19T16:37:21Z</time>
      </trkpt>
      <trkpt lat="59.949924" lon="17.6682401">
        <ele>27.0543</ele>
        <time>2013-05-19T16:37:22Z</time>
      </trkpt>
      <trkpt lat="59.9498379" lon="17.6682051">
        <ele>27.0543</ele>
        <time>2013-05-19T16:37:23Z</time>
      </trkpt>
      <trkpt lat="59.9497514" lon="17.6681694">
        <ele>27.0543</ele>
        <time>2013-05-19T16:37:24Z</time>
      </trkpt>
      <trkpt lat="59.9496643" lon="17.6681322">
        <ele>26.5736</ele>
        <time>2013-05-19T16:37:25Z</time>
      </trkpt>
      <trkpt lat="59.9495776" lon="17.6680896">
        <ele>26.5736</ele>
        <time>2013-05-19T16:37:26Z</time>
      </trkpt>
      <trkpt lat="59.9494918" lon="17.6680423">
        <ele>26.5736</ele>
        <time>2013-05-19T16:37:27Z</time>
      </trkpt>
      <trkpt lat="59.9494065" lon="17.6679933">
        <ele>26.5736</ele>
        <time>2013-05-19T16:37:28Z</time>
      </trkpt>
      <trkpt lat="59.9493214" lon="17.6679431">
        <ele>27.0543</ele>
        <time>2013-05-19T16:37:29Z</time>
      </trkpt>
      <trkpt lat="59.9492365" lon="17.6678912">
        <ele>27.0543</ele>
        <time>2013-05-19T16:37:30Z</time>
      </trkpt>
      <trkpt lat="59.9491513" lon="17.6678389">
        <ele>27.0543</ele>
        <time>2013-05-19T16:37:31Z</time>
      </trkpt>
      <trkpt lat="59.9490653" lon="17.6677876">
        <ele>27.0543</ele>
        <time>2013-05-19T16:37:32Z</time>
      </trkpt>
      <trkpt lat="59.9489789" lon="17.6677384">
        <ele>27.0543</ele>
        <time>2013-05-19T16:37:33Z</time>
      </trkpt>
      <trkpt lat="59.9488931" lon="17.6676892">
        <ele>27.0543</ele>
        <time>2013-05-19T16:37:34Z</time>
      </trkpt>
      <trkpt lat="59.9488087" lon="17.6676403">
        <ele>27.0543</ele>
        <time>2013-05-19T16:37:35Z</time>
      </trkpt>
      <trkpt lat="59.9487251" lon="17.6675923">
        <ele>27.0543</ele>
        <time>2013-05-19T16:37:36Z</time>
      </trkpt>
      <trkpt lat="59.9486418" lon="17.6675456">
        <ele>27.0543</ele>
        <time>2013-05-19T16:37:37Z</time>
      </trkpt>
      <trkpt lat="59.9485595" lon="17.6675006">
        <ele>27.0543</ele>
        <time>2013-05-19T16:37:38Z</time>
      </trkpt>
      <trkpt lat="59.9484782" lon="17.6674552">
        <ele>27.0543</ele>
        <time>2013-05-19T16:37:39Z</time>
      </trkpt>
      <trkpt lat="59.9483974" lon="17.66741">
        <ele>27.0543</ele>
        <time>2013-05-19T16:37:40Z</time>
      </trkpt>
      <trkpt lat="59.9483169" lon="17.6673665">
        <ele>27.0543</ele>
        <time>2013-05-19T16:37:41Z</time>
      </trkpt>
      <trkpt lat="59.9482368" lon="17.6673235">
        <ele>26.5736</ele>
        <time>2013-05-19T16:37:42Z</time>
      </trkpt>
      <trkpt lat="59.9481576" lon="17.6672798">
        <ele>26.5736</ele>
        <time>2013-05-19T16:37:43Z</time>
      </trkpt>
      <trkpt lat="59.9480788" lon="17.6672357">
        <ele>26.5736</ele>
        <time>2013-05-19T16:37:44Z</time>
      </trkpt>
      <trkpt lat="59.948" lon="17.6671923">
        <ele>26.5736</ele>
        <time>2013-05-19T16:37:45Z</time>
      </trkpt>
      <trkpt lat="59.9479213" lon="17.6671494">
        <ele>26.5736</ele>
        <time>2013-05-19T16:37:46Z</time>
      </trkpt>
      <trkpt lat="59.9478424" lon="17.6671071">
        <ele>26.5736</ele>
        <time>2013-05-19T16:37:47Z</time>
      </trkpt>
      <trkpt lat="59.9477633" lon="17.6670665">
        <ele>26.5736</ele>
        <time>2013-05-19T16:37:48Z</time>
      </trkpt>
      <trkpt lat="59.9476835" lon="17.6670271">
        <ele>26.5736</ele>
        <time>2013-05-19T16:37:49Z</time>
      </trkpt>
      <trkpt lat="59.9476028" lon="17.666986">
        <ele>26.5736</ele>
        <time>2013-05-19T16:37:50Z</time>
      </trkpt>
      <trkpt lat="59.9475215" lon="17.6669441">
        <ele>26.5736</ele>
        <time>2013-05-19T16:37:51Z</time>
      </trkpt>
      <trkpt lat="59.94744" lon="17.6669035">
        <ele>26.5736</ele>
        <time>2013-05-19T16:37:52Z</time>
      </trkpt>
      <trkpt lat="59.9473588" lon="17.6668649">
        <ele>26.5736</ele>
        <time>2013-05-19T16:37:53Z</time>
      </trkpt>
      <trkpt lat="59.9472783" lon="17.6668276">
        <ele>26.0929</ele>
        <time>2013-05-19T16:37:54Z</time>
      </trkpt>
      <trkpt lat="59.9471977" lon="17.6667918">
        <ele>26.0929</ele>
        <time>2013-05-19T16:37:55Z</time>
      </trkpt>
      <trkpt lat="59.9471172" lon="17.6667562">
        <ele>26.0929</ele>
        <time>2013-05-19T16:37:56Z</time>
      </trkpt>
      <trkpt lat="59.9470364" lon="17.6667187">
        <ele>26.0929</ele>
        <time>2013-05-19T16:37:57Z</time>
      </trkpt>
      <trkpt lat="59.9469553" lon="17.6666806">
        <ele>26.0929</ele>
        <time>2013-05-19T16:37:58Z</time>
      </trkpt>
      <trkpt lat="59.9468737" lon="17.6666452">
        <ele>26.0929</ele>
        <time>2013-05-19T16:37:59Z</time>
      </trkpt>
      <trkpt lat="59.946791" lon="17.6666162">
        <ele>26.0929</ele>
        <time>2013-05-19T16:38:00Z</time>
      </trkpt>
      <trkpt lat="59.9467077" lon="17.6665972">
        <ele>26.5736</ele>
        <time>2013-05-19T16:38:01Z</time>
      </trkpt>
      <trkpt lat="59.9466236" lon="17.6665872">
        <ele>26.0929</ele>
        <time>2013-05-19T16:38:02Z</time>
      </trkpt>
      <trkpt lat="59.9465393" lon="17.6665759">
        <ele>26.0929</ele>
        <time>2013-05-19T16:38:03Z</time>
      </trkpt>
      <trkpt lat="59.9464553" lon="17.6665541">
        <ele>26.0929</ele>
        <time>2013-05-19T16:38:04Z</time>
      </trkpt>
      <trkpt lat="59.9463717" lon="17.6665212">
        <ele>26.0929</ele>
        <time>2013-05-19T16:38:05Z</time>
      </trkpt>
      <trkpt lat="59.9462893" lon="17.6664765">
        <ele>26.0929</ele>
        <time>2013-05-19T16:38:06Z</time>
      </trkpt>
      <trkpt lat="59.9462077" lon="17.6664233">
        <ele>26.0929</ele>
        <time>2013-05-19T16:38:07Z</time>
      </trkpt>
      <trkpt lat="59.9461261" lon="17.6663724">
        <ele>26.0929</ele>
        <time>2013-05-19T16:38:08Z</time>
      </trkpt>
      <trkpt lat="59.9460434" lon="17.6663288">
        <ele>26.0929</ele>
        <time>2013-05-19T16:38:09Z</time>
      </trkpt>
      <trkpt lat="59.9459602" lon="17.6662919">
        <ele>26.5736</ele>
        <time>2013-05-19T16:38:10Z</time>
      </trkpt>
      <trkpt lat="59.945877" lon="17.6662574">
        <ele>26.5736</ele>
        <time>2013-05-19T16:38:11Z</time>
      </trkpt>
      <trkpt lat="59.9457936" lon="17.6662236">
        <ele>26.5736</ele>
        <time>2013-05-19T16:38:12Z</time>
      </trkpt>
      <trkpt lat="59.9457098" lon="17.6661901">
        <ele>26.5736</ele>
        <time>2013-05-19T16:38:13Z</time>
      </trkpt>
      <trkpt lat="59.9456254" lon="17.6661575">
        <ele>26.5736</ele>
        <time>2013-05-19T16:38:14Z</time>
      </trkpt>
      <trkpt lat="59.9455405" lon="17.6661253">
        <ele>26.5736</ele>
        <time>2013-05-19T16:38:15Z</time>
      </trkpt>
      <trkpt lat="59.945455" lon="17.6660925">
        <ele>26.5736</ele>
        <time>2013-05-19T16:38:16Z</time>
      </trkpt>
      <trkpt lat="59.945369" lon="17.6660606">
        <ele>26.5736</ele>
        <time>2013-05-19T16:38:17Z</time>
      </trkpt>
      <trkpt lat="59.9452825" lon="17.666029">
        <ele>26.5736</ele>
        <time>2013-05-19T16:38:18Z</time>
      </trkpt>
      <trkpt lat="59.945196" lon="17.6659958">
        <ele>26.5736</ele>
        <time>2013-05-19T16:38:19Z</time>
      </trkpt>
      <trkpt lat="59.9451094" lon="17.6659627">
        <ele>26.5736</ele>
        <time>2013-05-19T16:38:20Z</time>
      </trkpt>
      <trkpt lat="59.9450224" lon="17.6659315">
        <ele>26.5736</ele>
        <time>2013-05-19T16:38:21Z</time>
      </trkpt>
      <trkpt lat="59.9449354" lon="17.6658996">
        <ele>27.0543</ele>
        <time>2013-05-19T16:38:22Z</time>
      </trkpt>
      <trkpt lat="59.9448484" lon="17.6658654">
        <ele>26.5736</ele>
        <time>2013-05-19T16:38:23Z</time>
      </trkpt>
      <trkpt lat="59.9447614" lon="17.6658305">
        <ele>26.5736</ele>
        <time>2013-05-19T16:38:24Z</time>
      </trkpt>
      <trkpt lat="59.9446739" lon="17.6657954">
        <ele>27.0543</ele>
        <time>2013-05-19T16:38:25Z</time>
      </trkpt>
      <trkpt lat="59.9445858" lon="17.6657612">
        <ele>27.0543</ele>
        <time>2013-05-19T16:38:26Z</time>
      </trkpt>
      <trkpt lat="59.944498" lon="17.665728">
        <ele>27.0543</ele>
        <time>2013-05-19T16:38:27Z</time>
      </trkpt>
      <trkpt lat="59.9444102" lon="17.6656938">
        <ele>27.0543</ele>
        <time>2013-05-19T16:38:28Z</time>
      </trkpt>
      <trkpt lat="59.9443226" lon="17.6656586">
        <ele>27.0543</ele>
        <time>2013-05-19T16:38:29Z</time>
      </trkpt>
      <trkpt lat="59.944235" lon="17.6656242">
        <ele>27.0543</ele>
        <time>2013-05-19T16:38:30Z</time>
      </trkpt>
      <trkpt lat="59.9441475" lon="17.6655875">
        <ele>27.0543</ele>
        <time>2013-05-19T16:38:31Z</time>
      </trkpt>
      <trkpt lat="59.9440605" lon="17.6655476">
        <ele>27.0543</ele>
        <time>2013-05-19T16:38:32Z</time>
      </trkpt>
      <trkpt lat="59.9439744" lon="17.6655048">
        <ele>27.0543</ele>
        <time>2013-05-19T16:38:33Z</time>
      </trkpt>
      <trkpt lat="59.943889" lon="17.665458">
        <ele>27.0543</ele>
        <time>2013-05-19T16:38:34Z</time>
      </trkpt>
      <trkpt lat="59.9438036" lon="17.6654089">
        <ele>27.0543</ele>
        <time>2013-05-19T16:38:35Z</time>
      </trkpt>
      <trkpt lat="59.9437192" lon="17.6653591">
        <ele>27.0543</ele>
        <time>2013-05-19T16:38:36Z</time>
      </trkpt>
      <trkpt lat="59.9436356" lon="17.6653069">
        <ele>27.0543</ele>
        <time>2013-05-19T16:38:37Z</time>
      </trkpt>
      <trkpt lat="59.9435529" lon="17.6652505">
        <ele>27.0543</ele>
        <time>2013-05-19T16:38:38Z</time>
      </trkpt>
      <trkpt lat="59.943471" lon="17.6651899">
        <ele>27.5349</ele>
        <time>2013-05-19T16:38:39Z</time>
      </trkpt>
      <trkpt lat="59.9433903" lon="17.6651271">
        <ele>27.5349</ele>
        <time>2013-05-19T16:38:40Z</time>
      </trkpt>
      <trkpt lat="59.94331" lon="17.6650649">
        <ele>27.5349</ele>
        <time>2013-05-19T16:38:41Z</time>
      </trkpt>
      <trkpt lat="59.9432302" lon="17.6650023">
        <ele>27.5349</ele>
        <time>2013-05-19T16:38:42Z</time>
      </trkpt>
      <trkpt lat="59.9431519" lon="17.664936">
        <ele>27.5349</ele>
        <time>2013-05-19T16:38:43Z</time>
      </trkpt>
      <trkpt lat="59.9430747" lon="17.6648646">
        <ele>27.5349</ele>
        <time>2013-05-19T16:38:44Z</time>
      </trkpt>
      <trkpt lat="59.9429985" lon="17.6647904">
        <ele>27.5349</ele>
        <time>2013-05-19T16:38:45Z</time>
      </trkpt>
      <trkpt lat="59.9429229" lon="17.6647153">
        <ele>27.5349</ele>
        <time>2013-05-19T16:38:46Z</time>
      </trkpt>
      <trkpt lat="59.9428482" lon="17.6646384">
        <ele>27.5349</ele>
        <time>2013-05-19T16:38:47Z</time>
      </trkpt>
      <trkpt lat="59.9427739" lon="17.6645602">
        <ele>27.5349</ele>
        <time>2013-05-19T16:38:48Z</time>
      </trkpt>
      <trkpt lat="59.9427002" lon="17.6644817">
        <ele>28.0155</ele>
        <time>2013-05-19T16:38:49Z</time>
      </trkpt>
      <trkpt lat="59.9426278" lon="17.6644017">
        <ele>28.0155</ele>
        <time>2013-05-19T16:38:50Z</time>
      </trkpt>
      <trkpt lat="59.9425566" lon="17.6643185">
        <ele>28.0155</ele>
        <time>2013-05-19T16:38:51Z</time>
      </trkpt>
      <trkpt lat="59.9424854" lon="17.6642337">
        <ele>28.0155</ele>
        <time>2013-05-19T16:38:52Z</time>
      </trkpt>
      <trkpt lat="59.9424148" lon="17.6641471">
        <ele>28.0155</ele>
        <time>2013-05-19T16:38:53Z</time>
      </trkpt>
      <trkpt lat="59.9423457" lon="17.664057">
        <ele>28.0155</ele>
        <time>2013-05-19T16:38:54Z</time>
      </trkpt>
      <trkpt lat="59.9422771" lon="17.6639646">
        <ele>28.0155</ele>
        <time>2013-05-19T16:38:55Z</time>
      </trkpt>
      <trkpt lat="59.9422081" lon="17.6638693">
        <ele>28.0155</ele>
        <time>2013-05-19T16:38:56Z</time>
      </trkpt>
      <trkpt lat="59.9421397" lon="17.6637725">
        <ele>28.0155</ele>
        <time>2013-05-19T16:38:57Z</time>
      </trkpt>
      <trkpt lat="59.9420719" lon="17.6636754">
        <ele>28.0155</ele>
        <time>2013-05-19T16:38:58Z</time>
      </trkpt>
      <trkpt lat="59.9420055" lon="17.663576">
        <ele>28.0155</ele>
        <time>2013-05-19T16:38:59Z</time>
      </trkpt>
      <trkpt lat="59.9419409" lon="17.663474">
        <ele>28.0155</ele>
        <time>2013-05-19T16:39:00Z</time>
      </trkpt>
      <trkpt lat="59.9418779" lon="17.6633709">
        <ele>28.0155</ele>
        <time>2013-05-19T16:39:01Z</time>
      </trkpt>
      <trkpt lat="59.941816" lon="17.6632664">
        <ele>28.0155</ele>
        <time>2013-05-19T16:39:02Z</time>
      </trkpt>
      <trkpt lat="59.941758" lon="17.6631577">
        <ele>27.5349</ele>
        <time>2013-05-19T16:39:03Z</time>
      </trkpt>
      <trkpt lat="59.9417004" lon="17.6630483">
        <ele>27.5349</ele>
        <time>2013-05-19T16:39:04Z</time>
      </trkpt>
      <trkpt lat="59.9416431" lon="17.6629385">
        <ele>27.5349</ele>
        <time>2013-05-19T16:39:05Z</time>
      </trkpt>
      <trkpt lat="59.9415855" lon="17.662828">
        <ele>27.5349</ele>
        <time>2013-05-19T16:39:06Z</time>
      </trkpt>
      <trkpt lat="59.9415258" lon="17.6627189">
        <ele>27.5349</ele>
        <time>2013-05-19T16:39:07Z</time>
      </trkpt>
      <trkpt lat="59.941461" lon="17.662618">
        <ele>27.5349</ele>
        <time>2013-05-19T16:39:08Z</time>
      </trkpt>
      <trkpt lat="59.941391" lon="17.6625288">
        <ele>27.0543</ele>
        <time>2013-05-19T16:39:09Z</time>
      </trkpt>
      <trkpt lat="59.941318" lon="17.6624476">
        <ele>27.0543</ele>
        <time>2013-05-19T16:39:10Z</time>
      </trkpt>
      <trkpt lat="59.9412415" lon="17.6623744">
        <ele>27.0543</ele>
        <time>2013-05-19T16:39:11Z</time>
      </trkpt>
      <trkpt lat="59.9411618" lon="17.6623094">
        <ele>27.0543</ele>
        <time>2013-05-19T16:39:12Z</time>
      </trkpt>
      <trkpt lat="59.9410795" lon="17.6622536">
        <ele>27.0543</ele>
        <time>2013-05-19T16:39:13Z</time>
      </trkpt>
      <trkpt lat="59.940995" lon="17.6622101">
        <ele>27.0543</ele>
        <time>2013-05-19T16:39:14Z</time>
      </trkpt>
      <trkpt lat="59.9409091" lon="17.6621822">
        <ele>27.0543</ele>
        <time>2013-05-19T16:39:15Z</time>
      </trkpt>
      <trkpt lat="59.9408225" lon="17.662166">
        <ele>27.0543</ele>
        <time>2013-05-19T16:39:16Z</time>
      </trkpt>
      <trkpt lat="59.9407354" lon="17.6621506">
        <ele>26.5736</ele>
        <time>2013-05-19T16:39:17Z</time>
      </trkpt>
      <trkpt lat="59.9406494" lon="17.6621174">
        <ele>26.5736</ele>
        <time>2013-05-19T16:39:18Z</time>
      </trkpt>
      <trkpt lat="59.9405672" lon="17.662046">
        <ele>26.5736</ele>
        <time>2013-05-19T16:39:19Z</time>
      </trkpt>
      <trkpt lat="59.9404923" lon="17.661938">
        <ele>26.0929</ele>
        <time>2013-05-19T16:39:20Z</time>
      </trkpt>
      <trkpt lat="59.9404319" lon="17.6617992">
        <ele>25.6123</ele>
        <time>2013-05-19T16:39:21Z</time>
      </trkpt>
      <trkpt lat="59.9403935" lon="17.661618">
        <ele>25.1317</ele>
        <time>2013-05-19T16:39:22Z</time>
      </trkpt>
      <trkpt lat="59.9403628" lon="17.661429">
        <ele>24.1703</ele>
        <time>2013-05-19T16:39:23Z</time>
      </trkpt>
      <trkpt lat="59.9403491" lon="17.6612332">
        <ele>24.1703</ele>
        <time>2013-05-19T16:39:24Z</time>
      </trkpt>
      <trkpt lat="59.9403821" lon="17.6610414">
        <ele>24.1703</ele>
        <time>2013-05-19T16:39:25Z</time>
      </trkpt>
      <trkpt lat="59.9404273" lon="17.6608634">
        <ele>24.1703</ele>
        <time>2013-05-19T16:39:26Z</time>
      </trkpt>
      <trkpt lat="59.9404649" lon="17.6606924">
        <ele>24.651</ele>
        <time>2013-05-19T16:39:27Z</time>
      </trkpt>
      <trkpt lat="59.9404973" lon="17.6605195">
        <ele>25.6123</ele>
        <time>2013-05-19T16:39:28Z</time>
      </trkpt>
      <trkpt lat="59.9405083" lon="17.6603091">
        <ele>25.6123</ele>
        <time>2013-05-19T16:39:29Z</time>
      </trkpt>
      <trkpt lat="59.9405251" lon="17.6601419">
        <ele>27.0543</ele>
        <time>2013-05-19T16:39:30Z</time>
      </trkpt>
      <trkpt lat="59.9405061" lon="17.6600211">
        <ele>28.9769</ele>
        <time>2013-05-19T16:39:31Z</time>
      </trkpt>
      <trkpt lat="59.9404806" lon="17.6600028">
        <ele>30.8995</ele>
        <time>2013-05-19T16:39:32Z</time>
      </trkpt>
      <trkpt lat="59.9404597" lon="17.6597859">
        <ele>29.9381</ele>
        <time>2013-05-19T16:39:33Z</time>
      </trkpt>
      <trkpt lat="59.9404089" lon="17.6596357">
        <ele>29.4575</ele>
        <time>2013-05-19T16:39:34Z</time>
      </trkpt>
      <trkpt lat="59.9403646" lon="17.6594723">
        <ele>28.9769</ele>
        <time>2013-05-19T16:39:35Z</time>
      </trkpt>
      <trkpt lat="59.9403346" lon="17.6593017">
        <ele>28.9769</ele>
        <time>2013-05-19T16:39:36Z</time>
      </trkpt>
      <trkpt lat="59.9403061" lon="17.659131">
        <ele>28.9769</ele>
        <time>2013-05-19T16:39:37Z</time>
      </trkpt>
      <trkpt lat="59.940274" lon="17.6589612">
        <ele>28.9769</ele>
        <time>2013-05-19T16:39:38Z</time>
      </trkpt>
      <trkpt lat="59.9402384" lon="17.6587938">
        <ele>28.9769</ele>
        <time>2013-05-19T16:39:39Z</time>
      </trkpt>
      <trkpt lat="59.9401999" lon="17.6586302">
        <ele>29.4575</ele>
        <time>2013-05-19T16:39:40Z</time>
      </trkpt>
      <trkpt lat="59.940162" lon="17.658469">
        <ele>29.4575</ele>
        <time>2013-05-19T16:39:41Z</time>
      </trkpt>
      <trkpt lat="59.9401247" lon="17.6583079">
        <ele>29.4575</ele>
        <time>2013-05-19T16:39:42Z</time>
      </trkpt>
      <trkpt lat="59.9400918" lon="17.6581542">
        <ele>30.4188</ele>
        <time>2013-05-19T16:39:43Z</time>
      </trkpt>
      <trkpt lat="59.9400584" lon="17.6579988">
        <ele>30.8995</ele>
        <time>2013-05-19T16:39:44Z</time>
      </trkpt>
      <trkpt lat="59.9400248" lon="17.6578429">
        <ele>31.3801</ele>
        <time>2013-05-19T16:39:45Z</time>
      </trkpt>
      <trkpt lat="59.9399935" lon="17.6576888">
        <ele>31.8607</ele>
        <time>2013-05-19T16:39:46Z</time>
      </trkpt>
      <trkpt lat="59.9399629" lon="17.6575351">
        <ele>32.3416</ele>
        <time>2013-05-19T16:39:47Z</time>
      </trkpt>
      <trkpt lat="59.9399325" lon="17.6573816">
        <ele>32.8223</ele>
        <time>2013-05-19T16:39:48Z</time>
      </trkpt>
      <trkpt lat="59.9399024" lon="17.6572285">
        <ele>33.3029</ele>
        <time>2013-05-19T16:39:49Z</time>
      </trkpt>
      <trkpt lat="59.9398709" lon="17.657076">
        <ele>33.7834</ele>
        <time>2013-05-19T16:39:50Z</time>
      </trkpt>
      <trkpt lat="59.9398392" lon="17.656923">
        <ele>34.2642</ele>
        <time>2013-05-19T16:39:51Z</time>
      </trkpt>
      <trkpt lat="59.9398093" lon="17.6567675">
        <ele>34.7449</ele>
        <time>2013-05-19T16:39:52Z</time>
      </trkpt>
      <trkpt lat="59.9397813" lon="17.6566106">
        <ele>35.2255</ele>
        <time>2013-05-19T16:39:53Z</time>
      </trkpt>
      <trkpt lat="59.9397522" lon="17.656452">
        <ele>35.7061</ele>
        <time>2013-05-19T16:39:54Z</time>
      </trkpt>
      <trkpt lat="59.9397221" lon="17.6562934">
        <ele>36.1868</ele>
        <time>2013-05-19T16:39:55Z</time>
      </trkpt>
      <trkpt lat="59.9396885" lon="17.6561262">
        <ele>36.1868</ele>
        <time>2013-05-19T16:39:56Z</time>
      </trkpt>
      <trkpt lat="59.939656" lon="17.6559647">
        <ele>36.6675</ele>
        <time>2013-05-19T16:39:57Z</time>
      </trkpt>
      <trkpt lat="59.9396238" lon="17.6558049">
        <ele>37.1481</ele>
        <time>2013-05-19T16:39:58Z</time>
      </trkpt>
      <trkpt lat="59.9395911" lon="17.6556443">
        <ele>37.1481</ele>
        <time>2013-05-19T16:39:59Z</time>
      </trkpt>
      <trkpt lat="59.9395601" lon="17.6554854">
        <ele>37.1481</ele>
        <time>2013-05-19T16:40:00Z</time>
      </trkpt>
      <trkpt lat="59.9395289" lon="17.6553284">
        <ele>37.6287</ele>
        <time>2013-05-19T16:40:01Z</time>
      </trkpt>
      <trkpt lat="59.9394968" lon="17.6551713">
        <ele>37.6287</ele>
        <time>2013-05-19T16:40:02Z</time>
      </trkpt>
      <trkpt lat="59.9394651" lon="17.655012">
        <ele>37.6287</ele>
        <time>2013-05-19T16:40:03Z</time>
      </trkpt>
      <trkpt lat="59.9394347" lon="17.6548519">
        <ele>37.6287</ele>
        <time>2013-05-19T16:40:04Z</time>
      </trkpt>
      <trkpt lat="59.9394034" lon="17.6546918">
        <ele>37.6287</ele>
        <time>2013-05-19T16:40:05Z</time>
      </trkpt>
      <trkpt lat="59.93937" lon="17.6545311">
        <ele>37.6287</ele>
        <time>2013-05-19T16:40:06Z</time>
      </trkpt>
      <trkpt lat="59.9393356" lon="17.6543706">
        <ele>37.1481</ele>
        <time>2013-05-19T16:40:07Z</time>
      </trkpt>
      <trkpt lat="59.9393011" lon="17.6542096">
        <ele>37.6287</ele>
        <time>2013-05-19T16:40:08Z</time>
      </trkpt>
      <trkpt lat="59.9392674" lon="17.6540477">
        <ele>37.6287</ele>
        <time>2013-05-19T16:40:09Z</time>
      </trkpt>
      <trkpt lat="59.9392341" lon="17.6538842">
        <ele>37.6287</ele>
        <time>2013-05-19T16:40:10Z</time>
      </trkpt>
      <trkpt lat="59.9391998" lon="17.6537191">
        <ele>37.6287</ele>
        <time>2013-05-19T16:40:11Z</time>
      </trkpt>
      <trkpt lat="59.9391638" lon="17.6535547">
        <ele>37.6287</ele>
        <time>2013-05-19T16:40:12Z</time>
      </trkpt>
      <trkpt lat="59.9391261" lon="17.6533926">
        <ele>37.6287</ele>
        <time>2013-05-19T16:40:13Z</time>
      </trkpt>
      <trkpt lat="59.9390875" lon="17.6532311">
        <ele>37.6287</ele>
        <time>2013-05-19T16:40:14Z</time>
      </trkpt>
      <trkpt lat="59.9390478" lon="17.6530694">
        <ele>37.6287</ele>
        <time>2013-05-19T16:40:15Z</time>
      </trkpt>
      <trkpt lat="59.9390073" lon="17.6529091">
        <ele>37.1481</ele>
        <time>2013-05-19T16:40:16Z</time>
      </trkpt>
      <trkpt lat="59.9389665" lon="17.6527498">
        <ele>37.1481</ele>
        <time>2013-05-19T16:40:17Z</time>
      </trkpt>
      <trkpt lat="59.9389255" lon="17.6525913">
        <ele>37.1481</ele>
        <time>2013-05-19T16:40:18Z</time>
      </trkpt>
      <trkpt lat="59.9388829" lon="17.6524343">
        <ele>37.1481</ele>
        <time>2013-05-19T16:40:19Z</time>
      </trkpt>
      <trkpt lat="59.9388377" lon="17.6522787">
        <ele>37.1481</ele>
        <time>2013-05-19T16:40:20Z</time>
      </trkpt>
      <trkpt lat="59.9387899" lon="17.652124">
        <ele>37.1481</ele>
        <time>2013-05-19T16:40:21Z</time>
      </trkpt>
      <trkpt lat="59.9387433" lon="17.6519707">
        <ele>37.1481</ele>
        <time>2013-05-19T16:40:22Z</time>
      </trkpt>
      <trkpt lat="59.9386972" lon="17.6518173">
        <ele>37.1481</ele>
        <time>2013-05-19T16:40:23Z</time>
      </trkpt>
      <trkpt lat="59.93865" lon="17.6516635">
        <ele>37.1481</ele>
        <time>2013-05-19T16:40:24Z</time>
      </trkpt>
      <trkpt lat="59.9386015" lon="17.6515086">
        <ele>37.1481</ele>
        <time>2013-05-19T16:40:25Z</time>
      </trkpt>
      <trkpt lat="59.9385525" lon="17.6513548">
        <ele>37.1481</ele>
        <time>2013-05-19T16:40:26Z</time>
      </trkpt>
      <trkpt lat="59.9385011" lon="17.6512028">
        <ele>37.1481</ele>
        <time>2013-05-19T16:40:27Z</time>
      </trkpt>
      <trkpt lat="59.9384443" lon="17.6510565">
        <ele>37.1481</ele>
        <time>2013-05-19T16:40:28Z</time>
      </trkpt>
      <trkpt lat="59.9383821" lon="17.650919">
        <ele>37.1481</ele>
        <time>2013-05-19T16:40:29Z</time>
      </trkpt>
      <trkpt lat="59.938321" lon="17.6507837">
        <ele>37.1481</ele>
        <time>2013-05-19T16:40:30Z</time>
      </trkpt>
      <trkpt lat="59.938264" lon="17.6506421">
        <ele>37.1481</ele>
        <time>2013-05-19T16:40:31Z</time>
      </trkpt>
      <trkpt lat="59.9382097" lon="17.6504975">
        <ele>37.1481</ele>
        <time>2013-05-19T16:40:32Z</time>
      </trkpt>
      <trkpt lat="59.9381564" lon="17.6503531">
        <ele>37.1481</ele>
        <time>2013-05-19T16:40:33Z</time>
      </trkpt>
      <trkpt lat="59.938105" lon="17.6502119">
        <ele>37.1481</ele>
        <time>2013-05-19T16:40:34Z</time>
      </trkpt>
      <trkpt lat="59.9380519" lon="17.6500737">
        <ele>37.1481</ele>
        <time>2013-05-19T16:40:35Z</time>
      </trkpt>
      <trkpt lat="59.9379966" lon="17.6499405">
        <ele>37.1481</ele>
        <time>2013-05-19T16:40:36Z</time>
      </trkpt>
      <trkpt lat="59.9379403" lon="17.6498106">
        <ele>37.1481</ele>
        <time>2013-05-19T16:40:37Z</time>
      </trkpt>
      <trkpt lat="59.9378848" lon="17.6496789">
        <ele>36.6675</ele>
        <time>2013-05-19T16:40:38Z</time>
      </trkpt>
      <trkpt lat="59.9378359" lon="17.6495412">
        <ele>36.6675</ele>
        <time>2013-05-19T16:40:39Z</time>
      </trkpt>
      <trkpt lat="59.9377927" lon="17.6493984">
        <ele>36.6675</ele>
        <time>2013-05-19T16:40:40Z</time>
      </trkpt>
      <trkpt lat="59.937753" lon="17.6492563">
        <ele>37.1481</ele>
        <time>2013-05-19T16:40:41Z</time>
      </trkpt>
      <trkpt lat="59.9377104" lon="17.64912">
        <ele>37.1481</ele>
        <time>2013-05-19T16:40:42Z</time>
      </trkpt>
      <trkpt lat="59.9376639" lon="17.6489883">
        <ele>37.1481</ele>
        <time>2013-05-19T16:40:43Z</time>
      </trkpt>
      <trkpt lat="59.937614" lon="17.6488646">
        <ele>37.1481</ele>
        <time>2013-05-19T16:40:44Z</time>
      </trkpt>
      <trkpt lat="59.9375609" lon="17.6487527">
        <ele>37.1481</ele>
        <time>2013-05-19T16:40:45Z</time>
      </trkpt>
      <trkpt lat="59.9375041" lon="17.6486421">
        <ele>37.1481</ele>
        <time>2013-05-19T16:40:46Z</time>
      </trkpt>
      <trkpt lat="59.9374507" lon="17.6485249">
        <ele>37.1481</ele>
        <time>2013-05-19T16:40:47Z</time>
      </trkpt>
      <trkpt lat="59.9373967" lon="17.6484052">
        <ele>36.6675</ele>
        <time>2013-05-19T16:40:48Z</time>
      </trkpt>
      <trkpt lat="59.9373342" lon="17.648295">
        <ele>36.6675</ele>
        <time>2013-05-19T16:40:49Z</time>
      </trkpt>
      <trkpt lat="59.9372616" lon="17.6481933">
        <ele>36.6675</ele>
        <time>2013-05-19T16:40:50Z</time>
      </trkpt>
      <trkpt lat="59.9371889" lon="17.6481006">
        <ele>36.1868</ele>
        <time>2013-05-19T16:40:51Z</time>
      </trkpt>
      <trkpt lat="59.9371167" lon="17.6480113">
        <ele>36.1868</ele>
        <time>2013-05-19T16:40:52Z</time>
      </trkpt>
      <trkpt lat="59.9370425" lon="17.6479207">
        <ele>36.1868</ele>
        <time>2013-05-19T16:40:53Z</time>
      </trkpt>
      <trkpt lat="59.9369685" lon="17.6478308">
        <ele>35.7061</ele>
        <time>2013-05-19T16:40:54Z</time>
      </trkpt>
      <trkpt lat="59.9368959" lon="17.6477401">
        <ele>35.7061</ele>
        <time>2013-05-19T16:40:55Z</time>
      </trkpt>
      <trkpt lat="59.9368245" lon="17.647651">
        <ele>36.1868</ele>
        <time>2013-05-19T16:40:56Z</time>
      </trkpt>
      <trkpt lat="59.9367544" lon="17.6475598">
        <ele>36.1868</ele>
        <time>2013-05-19T16:40:57Z</time>
      </trkpt>
      <trkpt lat="59.9366859" lon="17.6474666">
        <ele>36.1868</ele>
        <time>2013-05-19T16:40:58Z</time>
      </trkpt>
      <trkpt lat="59.9366152" lon="17.6473712">
        <ele>35.7061</ele>
        <time>2013-05-19T16:40:59Z</time>
      </trkpt>
      <trkpt lat="59.936543" lon="17.6472743">
        <ele>35.2255</ele>
        <time>2013-05-19T16:41:00Z</time>
      </trkpt>
      <trkpt lat="59.9364696" lon="17.6471787">
        <ele>35.2255</ele>
        <time>2013-05-19T16:41:01Z</time>
      </trkpt>
      <trkpt lat="59.9363975" lon="17.6470843">
        <ele>35.2255</ele>
        <time>2013-05-19T16:41:02Z</time>
      </trkpt>
      <trkpt lat="59.9363266" lon="17.6469921">
        <ele>35.2255</ele>
        <time>2013-05-19T16:41:03Z</time>
      </trkpt>
      <trkpt lat="59.9362566" lon="17.6469031">
        <ele>35.2255</ele>
        <time>2013-05-19T16:41:04Z</time>
      </trkpt>
      <trkpt lat="59.9361873" lon="17.6468156">
        <ele>35.2255</ele>
        <time>2013-05-19T16:41:05Z</time>
      </trkpt>
      <trkpt lat="59.9361173" lon="17.6467288">
        <ele>35.2255</ele>
        <time>2013-05-19T16:41:06Z</time>
      </trkpt>
      <trkpt lat="59.936048" lon="17.6466461">
        <ele>35.2255</ele>
        <time>2013-05-19T16:41:07Z</time>
      </trkpt>
      <trkpt lat="59.93598" lon="17.6465684">
        <ele>35.2255</ele>
        <time>2013-05-19T16:41:08Z</time>
      </trkpt>
      <trkpt lat="59.9359125" lon="17.646488">
        <ele>35.2255</ele>
        <time>2013-05-19T16:41:09Z</time>
      </trkpt>
      <trkpt lat="59.9358436" lon="17.6464034">
        <ele>35.2255</ele>
        <time>2013-05-19T16:41:10Z</time>
      </trkpt>
      <trkpt lat="59.9357801" lon="17.6463144">
        <ele>35.7061</ele>
        <time>2013-05-19T16:41:11Z</time>
      </trkpt>
      <trkpt lat="59.9357131" lon="17.6462239">
        <ele>35.2255</ele>
        <time>2013-05-19T16:41:12Z</time>
      </trkpt>
      <trkpt lat="59.9356433" lon="17.6461353">
        <ele>34.7449</ele>
        <time>2013-05-19T16:41:13Z</time>
      </trkpt>
      <trkpt lat="59.935571" lon="17.646051">
        <ele>34.2642</ele>
        <time>2013-05-19T16:41:14Z</time>
      </trkpt>
      <trkpt lat="59.9354978" lon="17.6459699">
        <ele>34.2642</ele>
        <time>2013-05-19T16:41:15Z</time>
      </trkpt>
      <trkpt lat="59.9354231" lon="17.6458932">
        <ele>34.2642</ele>
        <time>2013-05-19T16:41:16Z</time>
      </trkpt>
      <trkpt lat="59.935347" lon="17.6458171">
        <ele>33.7834</ele>
        <time>2013-05-19T16:41:17Z</time>
      </trkpt>
      <trkpt lat="59.9352745" lon="17.6457358">
        <ele>33.7834</ele>
        <time>2013-05-19T16:41:18Z</time>
      </trkpt>
      <trkpt lat="59.9352045" lon="17.6456464">
        <ele>33.7834</ele>
        <time>2013-05-19T16:41:19Z</time>
      </trkpt>
      <trkpt lat="59.9351327" lon="17.6455577">
        <ele>33.7834</ele>
        <time>2013-05-19T16:41:20Z</time>
      </trkpt>
      <trkpt lat="59.9350594" lon="17.6454759">
        <ele>33.7834</ele>
        <time>2013-05-19T16:41:21Z</time>
      </trkpt>
      <trkpt lat="59.9349853" lon="17.6453987">
        <ele>33.3029</ele>
        <time>2013-05-19T16:41:22Z</time>
      </trkpt>
      <trkpt lat="59.9349138" lon="17.64532">
        <ele>33.3029</ele>
        <time>2013-05-19T16:41:23Z</time>
      </trkpt>
      <trkpt lat="59.9348432" lon="17.6452374">
        <ele>33.3029</ele>
        <time>2013-05-19T16:41:24Z</time>
      </trkpt>
      <trkpt lat="59.9347709" lon="17.64515">
        <ele>32.8223</ele>
        <time>2013-05-19T16:41:25Z</time>
      </trkpt>
      <trkpt lat="59.9347004" lon="17.6450614">
        <ele>32.3416</ele>
        <time>2013-05-19T16:41:26Z</time>
      </trkpt>
      <trkpt lat="59.9346291" lon="17.6449735">
        <ele>31.8607</ele>
        <time>2013-05-19T16:41:27Z</time>
      </trkpt>
      <trkpt lat="59.9345582" lon="17.6448823">
        <ele>31.3801</ele>
        <time>2013-05-19T16:41:28Z</time>
      </trkpt>
      <trkpt lat="59.9344877" lon="17.6447855">
        <ele>31.3801</ele>
        <time>2013-05-19T16:41:29Z</time>
      </trkpt>
      <trkpt lat="59.9344193" lon="17.6446793">
        <ele>30.4188</ele>
        <time>2013-05-19T16:41:30Z</time>
      </trkpt>
      <trkpt lat="59.9343511" lon="17.6445647">
        <ele>29.9381</ele>
        <time>2013-05-19T16:41:31Z</time>
      </trkpt>
      <trkpt lat="59.9342775" lon="17.6444502">
        <ele>29.4575</ele>
        <time>2013-05-19T16:41:32Z</time>
      </trkpt>
      <trkpt lat="59.9341967" lon="17.6443419">
        <ele>28.9769</ele>
        <time>2013-05-19T16:41:33Z</time>
      </trkpt>
      <trkpt lat="59.9341141" lon="17.6442368">
        <ele>28.9769</ele>
        <time>2013-05-19T16:41:34Z</time>
      </trkpt>
      <trkpt lat="59.9340315" lon="17.6441314">
        <ele>28.4962</ele>
        <time>2013-05-19T16:41:35Z</time>
      </trkpt>
      <trkpt lat="59.9339488" lon="17.644027">
        <ele>28.4962</ele>
        <time>2013-05-19T16:41:36Z</time>
      </trkpt>
      <trkpt lat="59.9338645" lon="17.6439281">
        <ele>28.4962</ele>
        <time>2013-05-19T16:41:37Z</time>
      </trkpt>
      <trkpt lat="59.9337774" lon="17.6438396">
        <ele>28.0155</ele>
        <time>2013-05-19T16:41:38Z</time>
      </trkpt>
      <trkpt lat="59.9336883" lon="17.6437577">
        <ele>27.5349</ele>
        <time>2013-05-19T16:41:39Z</time>
      </trkpt>
      <trkpt lat="59.9336001" lon="17.6436699">
        <ele>27.5349</ele>
        <time>2013-05-19T16:41:40Z</time>
      </trkpt>
      <trkpt lat="59.9335119" lon="17.6435721">
        <ele>27.5349</ele>
        <time>2013-05-19T16:41:41Z</time>
      </trkpt>
      <trkpt lat="59.9334262" lon="17.6434661">
        <ele>27.0543</ele>
        <time>2013-05-19T16:41:42Z</time>
      </trkpt>
      <trkpt lat="59.9333388" lon="17.6433448">
        <ele>26.5736</ele>
        <time>2013-05-19T16:41:43Z</time>
      </trkpt>
      <trkpt lat="59.9332585" lon="17.6432147">
        <ele>26.0929</ele>
        <time>2013-05-19T16:41:44Z</time>
      </trkpt>
      <trkpt lat="59.9331749" lon="17.6430754">
        <ele>25.6123</ele>
        <time>2013-05-19T16:41:45Z</time>
      </trkpt>
      <trkpt lat="59.933085" lon="17.6429397">
        <ele>25.1317</ele>
        <time>2013-05-19T16:41:46Z</time>
      </trkpt>
      <trkpt lat="59.932986" lon="17.6428067">
        <ele>24.651</ele>
        <time>2013-05-19T16:41:47Z</time>
      </trkpt>
      <trkpt lat="59.932888" lon="17.6426749">
        <ele>24.1703</ele>
        <time>2013-05-19T16:41:48Z</time>
      </trkpt>
      <trkpt lat="59.9327969" lon="17.6425327">
        <ele>23.6896</ele>
        <time>2013-05-19T16:41:49Z</time>
      </trkpt>
      <trkpt lat="59.9327092" lon="17.6423809">
        <ele>23.6896</ele>
        <time>2013-05-19T16:41:50Z</time>
      </trkpt>
      <trkpt lat="59.9326125" lon="17.6422423">
        <ele>23.209</ele>
        <time>2013-05-19T16:41:51Z</time>
      </trkpt>
      <trkpt lat="59.9325099" lon="17.6421239">
        <ele>23.209</ele>
        <time>2013-05-19T16:41:52Z</time>
      </trkpt>
      <trkpt lat="59.9324046" lon="17.6420159">
        <ele>23.209</ele>
        <time>2013-05-19T16:41:53Z</time>
      </trkpt>
      <trkpt lat="59.9322981" lon="17.6419147">
        <ele>23.209</ele>
        <time>2013-05-19T16:41:54Z</time>
      </trkpt>
      <trkpt lat="59.932192" lon="17.6418176">
        <ele>23.209</ele>
        <time>2013-05-19T16:41:55Z</time>
      </trkpt>
      <trkpt lat="59.9320888" lon="17.6417204">
        <ele>23.6896</ele>
        <time>2013-05-19T16:41:56Z</time>
      </trkpt>
      <trkpt lat="59.9319871" lon="17.6416307">
        <ele>23.209</ele>
        <time>2013-05-19T16:41:57Z</time>
      </trkpt>
      <trkpt lat="59.9318836" lon="17.6415521">
        <ele>23.209</ele>
        <time>2013-05-19T16:41:58Z</time>
      </trkpt>
      <trkpt lat="59.9317764" lon="17.6414803">
        <ele>22.7283</ele>
        <time>2013-05-19T16:41:59Z</time>
      </trkpt>
      <trkpt lat="59.9316678" lon="17.6414094">
        <ele>22.7283</ele>
        <time>2013-05-19T16:42:00Z</time>
      </trkpt>
      <trkpt lat="59.9315597" lon="17.6413364">
        <ele>22.7283</ele>
        <time>2013-05-19T16:42:01Z</time>
      </trkpt>
      <trkpt lat="59.9314527" lon="17.6412596">
        <ele>22.7283</ele>
        <time>2013-05-19T16:42:02Z</time>
      </trkpt>
      <trkpt lat="59.9313466" lon="17.6411817">
        <ele>22.7283</ele>
        <time>2013-05-19T16:42:03Z</time>
      </trkpt>
      <trkpt lat="59.9312406" lon="17.6411035">
        <ele>22.2476</ele>
        <time>2013-05-19T16:42:04Z</time>
      </trkpt>
      <trkpt lat="59.9311315" lon="17.6410231">
        <ele>21.767</ele>
        <time>2013-05-19T16:42:05Z</time>
      </trkpt>
      <trkpt lat="59.9310187" lon="17.6409458">
        <ele>21.2864</ele>
        <time>2013-05-19T16:42:06Z</time>
      </trkpt>
      <trkpt lat="59.9309037" lon="17.6408835">
        <ele>21.2864</ele>
        <time>2013-05-19T16:42:07Z</time>
      </trkpt>
      <trkpt lat="59.9307877" lon="17.6408475">
        <ele>21.2864</ele>
        <time>2013-05-19T16:42:08Z</time>
      </trkpt>
      <trkpt lat="59.9306725" lon="17.6408395">
        <ele>20.8057</ele>
        <time>2013-05-19T16:42:09Z</time>
      </trkpt>
      <trkpt lat="59.9305587" lon="17.6408478">
        <ele>20.325</ele>
        <time>2013-05-19T16:42:10Z</time>
      </trkpt>
      <trkpt lat="59.9304451" lon="17.6408604">
        <ele>19.8444</ele>
        <time>2013-05-19T16:42:11Z</time>
      </trkpt>
      <trkpt lat="59.9303302" lon="17.6408664">
        <ele>19.3638</ele>
        <time>2013-05-19T16:42:12Z</time>
      </trkpt>
      <trkpt lat="59.9302152" lon="17.6408639">
        <ele>18.8831</ele>
        <time>2013-05-19T16:42:13Z</time>
      </trkpt>
      <trkpt lat="59.930101" lon="17.6408598">
        <ele>18.8831</ele>
        <time>2013-05-19T16:42:14Z</time>
      </trkpt>
      <trkpt lat="59.9299871" lon="17.6408583">
        <ele>18.4023</ele>
        <time>2013-05-19T16:42:15Z</time>
      </trkpt>
      <trkpt lat="59.9298749" lon="17.6408602">
        <ele>18.8831</ele>
        <time>2013-05-19T16:42:16Z</time>
      </trkpt>
      <trkpt lat="59.9297654" lon="17.6408678">
        <ele>18.8831</ele>
        <time>2013-05-19T16:42:17Z</time>
      </trkpt>
      <trkpt lat="59.9296568" lon="17.6408825">
        <ele>18.4023</ele>
        <time>2013-05-19T16:42:18Z</time>
      </trkpt>
      <trkpt lat="59.9295495" lon="17.6409034">
        <ele>17.9218</ele>
        <time>2013-05-19T16:42:19Z</time>
      </trkpt>
      <trkpt lat="59.9294418" lon="17.6409257">
        <ele>17.9218</ele>
        <time>2013-05-19T16:42:20Z</time>
      </trkpt>
      <trkpt lat="59.9293339" lon="17.6409432">
        <ele>17.9218</ele>
        <time>2013-05-19T16:42:21Z</time>
      </trkpt>
      <trkpt lat="59.9292266" lon="17.6409525">
        <ele>17.4412</ele>
        <time>2013-05-19T16:42:22Z</time>
      </trkpt>
      <trkpt lat="59.9291195" lon="17.6409566">
        <ele>17.4412</ele>
        <time>2013-05-19T16:42:23Z</time>
      </trkpt>
      <trkpt lat="59.9290134" lon="17.6409623">
        <ele>17.4412</ele>
        <time>2013-05-19T16:42:24Z</time>
      </trkpt>
      <trkpt lat="59.9289087" lon="17.6409759">
        <ele>16.9604</ele>
        <time>2013-05-19T16:42:25Z</time>
      </trkpt>
      <trkpt lat="59.928805" lon="17.6409957">
        <ele>16.9604</ele>
        <time>2013-05-19T16:42:26Z</time>
      </trkpt>
      <trkpt lat="59.9287026" lon="17.641017">
        <ele>16.9604</ele>
        <time>2013-05-19T16:42:27Z</time>
      </trkpt>
      <trkpt lat="59.9286015" lon="17.6410374">
        <ele>16.9604</ele>
        <time>2013-05-19T16:42:28Z</time>
      </trkpt>
      <trkpt lat="59.9285012" lon="17.641055">
        <ele>16.9604</ele>
        <time>2013-05-19T16:42:29Z</time>
      </trkpt>
      <trkpt lat="59.9284011" lon="17.6410706">
        <ele>16.4797</ele>
        <time>2013-05-19T16:42:30Z</time>
      </trkpt>
      <trkpt lat="59.9283005" lon="17.6410853">
        <ele>16.4797</ele>
        <time>2013-05-19T16:42:31Z</time>
      </trkpt>
      <trkpt lat="59.9281996" lon="17.6410995">
        <ele>16.4797</ele>
        <time>2013-05-19T16:42:32Z</time>
      </trkpt>
      <trkpt lat="59.9280987" lon="17.6411125">
        <ele>16.4797</ele>
        <time>2013-05-19T16:42:33Z</time>
      </trkpt>
      <trkpt lat="59.9279976" lon="17.6411245">
        <ele>16.4797</ele>
        <time>2013-05-19T16:42:34Z</time>
      </trkpt>
      <trkpt lat="59.9278965" lon="17.6411351">
        <ele>16.4797</ele>
        <time>2013-05-19T16:42:35Z</time>
      </trkpt>
      <trkpt lat="59.9277951" lon="17.6411443">
        <ele>16.4797</ele>
        <time>2013-05-19T16:42:36Z</time>
      </trkpt>
      <trkpt lat="59.9276941" lon="17.6411546">
        <ele>16.4797</ele>
        <time>2013-05-19T16:42:37Z</time>
      </trkpt>
      <trkpt lat="59.9275933" lon="17.6411671">
        <ele>16.4797</ele>
        <time>2013-05-19T16:42:38Z</time>
      </trkpt>
      <trkpt lat="59.9274925" lon="17.6411795">
        <ele>16.4797</ele>
        <time>2013-05-19T16:42:39Z</time>
      </trkpt>
      <trkpt lat="59.927392" lon="17.6411888">
        <ele>16.4797</ele>
        <time>2013-05-19T16:42:40Z</time>
      </trkpt>
      <trkpt lat="59.9272915" lon="17.6411961">
        <ele>16.4797</ele>
        <time>2013-05-19T16:42:41Z</time>
      </trkpt>
      <trkpt lat="59.9271915" lon="17.6412039">
        <ele>16.9604</ele>
        <time>2013-05-19T16:42:42Z</time>
      </trkpt>
      <trkpt lat="59.9270917" lon="17.6412112">
        <ele>16.9604</ele>
        <time>2013-05-19T16:42:43Z</time>
      </trkpt>
      <trkpt lat="59.9269921" lon="17.6412189">
        <ele>16.9604</ele>
        <time>2013-05-19T16:42:44Z</time>
      </trkpt>
      <trkpt lat="59.9268928" lon="17.6412292">
        <ele>16.9604</ele>
        <time>2013-05-19T16:42:45Z</time>
      </trkpt>
      <trkpt lat="59.9267938" lon="17.6412411">
        <ele>16.9604</ele>
        <time>2013-05-19T16:42:46Z</time>
      </trkpt>
      <trkpt lat="59.9266949" lon="17.6412531">
        <ele>16.9604</ele>
        <time>2013-05-19T16:42:47Z</time>
      </trkpt>
      <trkpt lat="59.9265964" lon="17.6412653">
        <ele>16.9604</ele>
        <time>2013-05-19T16:42:48Z</time>
      </trkpt>
      <trkpt lat="59.9264975" lon="17.641279">
        <ele>16.9604</ele>
        <time>2013-05-19T16:42:49Z</time>
      </trkpt>
      <trkpt lat="59.9263984" lon="17.6412924">
        <ele>16.9604</ele>
        <time>2013-05-19T16:42:50Z</time>
      </trkpt>
      <trkpt lat="59.9262991" lon="17.6413036">
        <ele>16.9604</ele>
        <time>2013-05-19T16:42:51Z</time>
      </trkpt>
      <trkpt lat="59.9262004" lon="17.6413142">
        <ele>16.9604</ele>
        <time>2013-05-19T16:42:52Z</time>
      </trkpt>
      <trkpt lat="59.9261022" lon="17.6413269">
        <ele>17.4412</ele>
        <time>2013-05-19T16:42:53Z</time>
      </trkpt>
      <trkpt lat="59.9260048" lon="17.6413415">
        <ele>17.4412</ele>
        <time>2013-05-19T16:42:54Z</time>
      </trkpt>
      <trkpt lat="59.9259083" lon="17.6413559">
        <ele>17.4412</ele>
        <time>2013-05-19T16:42:55Z</time>
      </trkpt>
      <trkpt lat="59.9258122" lon="17.6413701">
        <ele>17.9218</ele>
        <time>2013-05-19T16:42:56Z</time>
      </trkpt>
      <trkpt lat="59.9257167" lon="17.6413846">
        <ele>17.9218</ele>
        <time>2013-05-19T16:42:57Z</time>
      </trkpt>
      <trkpt lat="59.9256214" lon="17.6414001">
        <ele>17.9218</ele>
        <time>2013-05-19T16:42:58Z</time>
      </trkpt>
      <trkpt lat="59.9255265" lon="17.6414153">
        <ele>17.9218</ele>
        <time>2013-05-19T16:42:59Z</time>
      </trkpt>
      <trkpt lat="59.9254319" lon="17.6414261">
        <ele>18.4023</ele>
        <time>2013-05-19T16:43:00Z</time>
      </trkpt>
      <trkpt lat="59.9253385" lon="17.6414314">
        <ele>18.4023</ele>
        <time>2013-05-19T16:43:01Z</time>
      </trkpt>
      <trkpt lat="59.9252464" lon="17.6414345">
        <ele>18.4023</ele>
        <time>2013-05-19T16:43:02Z</time>
      </trkpt>
      <trkpt lat="59.9251547" lon="17.6414371">
        <ele>18.8831</ele>
        <time>2013-05-19T16:43:03Z</time>
      </trkpt>
      <trkpt lat="59.9250636" lon="17.6414386">
        <ele>18.8831</ele>
        <time>2013-05-19T16:43:04Z</time>
      </trkpt>
      <trkpt lat="59.924974" lon="17.6414424">
        <ele>18.8831</ele>
        <time>2013-05-19T16:43:05Z</time>
      </trkpt>
      <trkpt lat="59.9248854" lon="17.6414508">
        <ele>18.8831</ele>
        <time>2013-05-19T16:43:06Z</time>
      </trkpt>
      <trkpt lat="59.9247969" lon="17.6414633">
        <ele>18.8831</ele>
        <time>2013-05-19T16:43:07Z</time>
      </trkpt>
      <trkpt lat="59.9247096" lon="17.6414808">
        <ele>18.8831</ele>
        <time>2013-05-19T16:43:08Z</time>
      </trkpt>
      <trkpt lat="59.9246226" lon="17.6415029">
        <ele>19.3638</ele>
        <time>2013-05-19T16:43:09Z</time>
      </trkpt>
      <trkpt lat="59.9245347" lon="17.6415266">
        <ele>19.3638</ele>
        <time>2013-05-19T16:43:10Z</time>
      </trkpt>
      <trkpt lat="59.9244456" lon="17.6415473">
        <ele>19.3638</ele>
        <time>2013-05-19T16:43:11Z</time>
      </trkpt>
      <trkpt lat="59.9243548" lon="17.6415644">
        <ele>19.8444</ele>
        <time>2013-05-19T16:43:12Z</time>
      </trkpt>
      <trkpt lat="59.9242626" lon="17.6415776">
        <ele>19.8444</ele>
        <time>2013-05-19T16:43:13Z</time>
      </trkpt>
      <trkpt lat="59.9241687" lon="17.6415866">
        <ele>19.8444</ele>
        <time>2013-05-19T16:43:14Z</time>
      </trkpt>
      <trkpt lat="59.9240737" lon="17.6415943">
        <ele>19.8444</ele>
        <time>2013-05-19T16:43:15Z</time>
      </trkpt>
      <trkpt lat="59.9239784" lon="17.6416038">
        <ele>20.325</ele>
        <time>2013-05-19T16:43:16Z</time>
      </trkpt>
      <trkpt lat="59.9238833" lon="17.6416167">
        <ele>20.325</ele>
        <time>2013-05-19T16:43:17Z</time>
      </trkpt>
      <trkpt lat="59.9237882" lon="17.6416297">
        <ele>20.325</ele>
        <time>2013-05-19T16:43:18Z</time>
      </trkpt>
      <trkpt lat="59.9236938" lon="17.6416369">
        <ele>20.8057</ele>
        <time>2013-05-19T16:43:19Z</time>
      </trkpt>
      <trkpt lat="59.9236011" lon="17.6416394">
        <ele>21.2864</ele>
        <time>2013-05-19T16:43:20Z</time>
      </trkpt>
      <trkpt lat="59.923511" lon="17.641645">
        <ele>21.2864</ele>
        <time>2013-05-19T16:43:21Z</time>
      </trkpt>
      <trkpt lat="59.9234228" lon="17.6416561">
        <ele>21.767</ele>
        <time>2013-05-19T16:43:22Z</time>
      </trkpt>
      <trkpt lat="59.9233361" lon="17.6416704">
        <ele>22.2476</ele>
        <time>2013-05-19T16:43:23Z</time>
      </trkpt>
      <trkpt lat="59.9232505" lon="17.641683">
        <ele>22.2476</ele>
        <time>2013-05-19T16:43:24Z</time>
      </trkpt>
      <trkpt lat="59.923165" lon="17.6416948">
        <ele>22.7283</ele>
        <time>2013-05-19T16:43:25Z</time>
      </trkpt>
      <trkpt lat="59.9230796" lon="17.6417063">
        <ele>22.7283</ele>
        <time>2013-05-19T16:43:26Z</time>
      </trkpt>
      <trkpt lat="59.922994" lon="17.6417177">
        <ele>23.209</ele>
        <time>2013-05-19T16:43:27Z</time>
      </trkpt>
      <trkpt lat="59.9229084" lon="17.6417276">
        <ele>23.209</ele>
        <time>2013-05-19T16:43:28Z</time>
      </trkpt>
      <trkpt lat="59.9228237" lon="17.6417362">
        <ele>23.6896</ele>
        <time>2013-05-19T16:43:29Z</time>
      </trkpt>
      <trkpt lat="59.9227409" lon="17.6417447">
        <ele>23.6896</ele>
        <time>2013-05-19T16:43:30Z</time>
      </trkpt>
      <trkpt lat="59.9226599" lon="17.6417553">
        <ele>24.1703</ele>
        <time>2013-05-19T16:43:31Z</time>
      </trkpt>
      <trkpt lat="59.9225792" lon="17.6417679">
        <ele>24.1703</ele>
        <time>2013-05-19T16:43:32Z</time>
      </trkpt>
      <trkpt lat="59.9224985" lon="17.6417817">
        <ele>24.1703</ele>
        <time>2013-05-19T16:43:33Z</time>
      </trkpt>
      <trkpt lat="59.9224175" lon="17.6417934">
        <ele>24.1703</ele>
        <time>2013-05-19T16:43:34Z</time>
      </trkpt>
      <trkpt lat="59.922336" lon="17.6418035">
        <ele>24.1703</ele>
        <time>2013-05-19T16:43:35Z</time>
      </trkpt>
      <trkpt lat="59.9222537" lon="17.641812">
        <ele>24.1703</ele>
        <time>2013-05-19T16:43:36Z</time>
      </trkpt>
      <trkpt lat="59.9221704" lon="17.6418198">
        <ele>23.6896</ele>
        <time>2013-05-19T16:43:37Z</time>
      </trkpt>
      <trkpt lat="59.9220866" lon="17.6418274">
        <ele>23.6896</ele>
        <time>2013-05-19T16:43:38Z</time>
      </trkpt>
      <trkpt lat="59.9220037" lon="17.6418361">
        <ele>23.6896</ele>
        <time>2013-05-19T16:43:39Z</time>
      </trkpt>
      <trkpt lat="59.9219218" lon="17.6418453">
        <ele>23.6896</ele>
        <time>2013-05-19T16:43:40Z</time>
      </trkpt>
      <trkpt lat="59.9218413" lon="17.6418558">
        <ele>23.6896</ele>
        <time>2013-05-19T16:43:41Z</time>
      </trkpt>
      <trkpt lat="59.9217617" lon="17.6418672">
        <ele>23.6896</ele>
        <time>2013-05-19T16:43:42Z</time>
      </trkpt>
      <trkpt lat="59.921683" lon="17.6418803">
        <ele>23.6896</ele>
        <time>2013-05-19T16:43:43Z</time>
      </trkpt>
      <trkpt lat="59.9216053" lon="17.6418949">
        <ele>23.209</ele>
        <time>2013-05-19T16:43:44Z</time>
      </trkpt>
      <trkpt lat="59.9215285" lon="17.6419078">
        <ele>23.209</ele>
        <time>2013-05-19T16:43:45Z</time>
      </trkpt>
      <trkpt lat="59.9214535" lon="17.6419202">
        <ele>23.209</ele>
        <time>2013-05-19T16:43:46Z</time>
      </trkpt>
      <trkpt lat="59.9213774" lon="17.6419327">
        <ele>23.209</ele>
        <time>2013-05-19T16:43:47Z</time>
      </trkpt>
      <trkpt lat="59.9212995" lon="17.6419431">
        <ele>23.209</ele>
        <time>2013-05-19T16:43:48Z</time>
      </trkpt>
      <trkpt lat="59.92122" lon="17.6419513">
        <ele>23.209</ele>
        <time>2013-05-19T16:43:49Z</time>
      </trkpt>
      <trkpt lat="59.9211381" lon="17.6419566">
        <ele>22.2476</ele>
        <time>2013-05-19T16:43:50Z</time>
      </trkpt>
      <trkpt lat="59.921055" lon="17.6419634">
        <ele>22.2476</ele>
        <time>2013-05-19T16:43:51Z</time>
      </trkpt>
      <trkpt lat="59.9209721" lon="17.64197">
        <ele>22.2476</ele>
        <time>2013-05-19T16:43:52Z</time>
      </trkpt>
      <trkpt lat="59.9208894" lon="17.6419758">
        <ele>22.2476</ele>
        <time>2013-05-19T16:43:53Z</time>
      </trkpt>
      <trkpt lat="59.9208041" lon="17.6419757">
        <ele>22.2476</ele>
        <time>2013-05-19T16:43:54Z</time>
      </trkpt>
      <trkpt lat="59.9207181" lon="17.6419739">
        <ele>22.2476</ele>
        <time>2013-05-19T16:43:55Z</time>
      </trkpt>
      <trkpt lat="59.920632" lon="17.6419737">
        <ele>22.2476</ele>
        <time>2013-05-19T16:43:56Z</time>
      </trkpt>
      <trkpt lat="59.9205445" lon="17.6419752">
        <ele>22.2476</ele>
        <time>2013-05-19T16:43:57Z</time>
      </trkpt>
      <trkpt lat="59.9204579" lon="17.6419747">
        <ele>22.7283</ele>
        <time>2013-05-19T16:43:58Z</time>
      </trkpt>
      <trkpt lat="59.9203717" lon="17.6419776">
        <ele>22.7283</ele>
        <time>2013-05-19T16:43:59Z</time>
      </trkpt>
      <trkpt lat="59.9202854" lon="17.641983">
        <ele>23.209</ele>
        <time>2013-05-19T16:44:00Z</time>
      </trkpt>
      <trkpt lat="59.9201999" lon="17.6419881">
        <ele>23.209</ele>
        <time>2013-05-19T16:44:01Z</time>
      </trkpt>
      <trkpt lat="59.9201153" lon="17.6419916">
        <ele>23.209</ele>
        <time>2013-05-19T16:44:02Z</time>
      </trkpt>
      <trkpt lat="59.920029" lon="17.6419967">
        <ele>23.209</ele>
        <time>2013-05-19T16:44:03Z</time>
      </trkpt>
      <trkpt lat="59.9199415" lon="17.642006">
        <ele>23.209</ele>
        <time>2013-05-19T16:44:04Z</time>
      </trkpt>
      <trkpt lat="59.9198551" lon="17.6420238">
        <ele>23.209</ele>
        <time>2013-05-19T16:44:05Z</time>
      </trkpt>
      <trkpt lat="59.9197696" lon="17.6420471">
        <ele>23.6896</ele>
        <time>2013-05-19T16:44:06Z</time>
      </trkpt>
      <trkpt lat="59.9196831" lon="17.6420684">
        <ele>23.209</ele>
        <time>2013-05-19T16:44:07Z</time>
      </trkpt>
      <trkpt lat="59.9195963" lon="17.642085">
        <ele>23.209</ele>
        <time>2013-05-19T16:44:08Z</time>
      </trkpt>
      <trkpt lat="59.9195092" lon="17.642097">
        <ele>23.209</ele>
        <time>2013-05-19T16:44:09Z</time>
      </trkpt>
      <trkpt lat="59.9194233" lon="17.6421094">
        <ele>23.6896</ele>
        <time>2013-05-19T16:44:10Z</time>
      </trkpt>
      <trkpt lat="59.9193383" lon="17.6421207">
        <ele>23.6896</ele>
        <time>2013-05-19T16:44:11Z</time>
      </trkpt>
      <trkpt lat="59.9192536" lon="17.6421306">
        <ele>23.6896</ele>
        <time>2013-05-19T16:44:12Z</time>
      </trkpt>
      <trkpt lat="59.9191681" lon="17.6421374">
        <ele>23.6896</ele>
        <time>2013-05-19T16:44:13Z</time>
      </trkpt>
      <trkpt lat="59.919083" lon="17.6421455">
        <ele>23.6896</ele>
        <time>2013-05-19T16:44:14Z</time>
      </trkpt>
      <trkpt lat="59.9189983" lon="17.6421561">
        <ele>23.6896</ele>
        <time>2013-05-19T16:44:15Z</time>
      </trkpt>
      <trkpt lat="59.918913" lon="17.6421668">
        <ele>23.209</ele>
        <time>2013-05-19T16:44:16Z</time>
      </trkpt>
      <trkpt lat="59.9188263" lon="17.6421762">
        <ele>23.209</ele>
        <time>2013-05-19T16:44:17Z</time>
      </trkpt>
      <trkpt lat="59.9187387" lon="17.6421848">
        <ele>22.7283</ele>
        <time>2013-05-19T16:44:18Z</time>
      </trkpt>
      <trkpt lat="59.9186507" lon="17.6421932">
        <ele>22.7283</ele>
        <time>2013-05-19T16:44:19Z</time>
      </trkpt>
      <trkpt lat="59.9185635" lon="17.6422032">
        <ele>22.7283</ele>
        <time>2013-05-19T16:44:20Z</time>
      </trkpt>
      <trkpt lat="59.9184765" lon="17.6422151">
        <ele>22.7283</ele>
        <time>2013-05-19T16:44:21Z</time>
      </trkpt>
      <trkpt lat="59.9183895" lon="17.6422265">
        <ele>22.2476</ele>
        <time>2013-05-19T16:44:22Z</time>
      </trkpt>
      <trkpt lat="59.9183015" lon="17.6422368">
        <ele>22.2476</ele>
        <time>2013-05-19T16:44:23Z</time>
      </trkpt>
      <trkpt lat="59.9182118" lon="17.6422445">
        <ele>21.767</ele>
        <time>2013-05-19T16:44:24Z</time>
      </trkpt>
      <trkpt lat="59.9181202" lon="17.6422528">
        <ele>21.2864</ele>
        <time>2013-05-19T16:44:25Z</time>
      </trkpt>
      <trkpt lat="59.9180269" lon="17.6422606">
        <ele>20.8057</ele>
        <time>2013-05-19T16:44:26Z</time>
      </trkpt>
      <trkpt lat="59.9179316" lon="17.6422671">
        <ele>20.325</ele>
        <time>2013-05-19T16:44:27Z</time>
      </trkpt>
      <trkpt lat="59.917835" lon="17.642274">
        <ele>20.325</ele>
        <time>2013-05-19T16:44:28Z</time>
      </trkpt>
      <trkpt lat="59.9177376" lon="17.6422806">
        <ele>19.8444</ele>
        <time>2013-05-19T16:44:29Z</time>
      </trkpt>
      <trkpt lat="59.91764" lon="17.6422839">
        <ele>19.8444</ele>
        <time>2013-05-19T16:44:30Z</time>
      </trkpt>
      <trkpt lat="59.9175427" lon="17.6422856">
        <ele>19.8444</ele>
        <time>2013-05-19T16:44:31Z</time>
      </trkpt>
      <trkpt lat="59.9174461" lon="17.6422871">
        <ele>19.3638</ele>
        <time>2013-05-19T16:44:32Z</time>
      </trkpt>
      <trkpt lat="59.9173499" lon="17.6422875">
        <ele>19.3638</ele>
        <time>2013-05-19T16:44:33Z</time>
      </trkpt>
      <trkpt lat="59.9172543" lon="17.6422863">
        <ele>19.3638</ele>
        <time>2013-05-19T16:44:34Z</time>
      </trkpt>
      <trkpt lat="59.9171593" lon="17.6422894">
        <ele>19.3638</ele>
        <time>2013-05-19T16:44:35Z</time>
      </trkpt>
      <trkpt lat="59.9170665" lon="17.6423099">
        <ele>19.8444</ele>
        <time>2013-05-19T16:44:36Z</time>
      </trkpt>
      <trkpt lat="59.9169755" lon="17.6423388">
        <ele>19.8444</ele>
        <time>2013-05-19T16:44:37Z</time>
      </trkpt>
      <trkpt lat="59.9168858" lon="17.6423617">
        <ele>20.325</ele>
        <time>2013-05-19T16:44:38Z</time>
      </trkpt>
      <trkpt lat="59.9167971" lon="17.6423785">
        <ele>20.325</ele>
        <time>2013-05-19T16:44:39Z</time>
      </trkpt>
      <trkpt lat="59.91671" lon="17.6423936">
        <ele>20.8057</ele>
        <time>2013-05-19T16:44:40Z</time>
      </trkpt>
      <trkpt lat="59.9166244" lon="17.642406">
        <ele>20.8057</ele>
        <time>2013-05-19T16:44:41Z</time>
      </trkpt>
      <trkpt lat="59.9165407" lon="17.6424176">
        <ele>21.2864</ele>
        <time>2013-05-19T16:44:42Z</time>
      </trkpt>
      <trkpt lat="59.9164584" lon="17.6424288">
        <ele>21.2864</ele>
        <time>2013-05-19T16:44:43Z</time>
      </trkpt>
      <trkpt lat="59.9163765" lon="17.6424386">
        <ele>21.2864</ele>
        <time>2013-05-19T16:44:44Z</time>
      </trkpt>
      <trkpt lat="59.9162951" lon="17.6424484">
        <ele>21.2864</ele>
        <time>2013-05-19T16:44:45Z</time>
      </trkpt>
      <trkpt lat="59.9162137" lon="17.6424565">
        <ele>21.2864</ele>
        <time>2013-05-19T16:44:46Z</time>
      </trkpt>
      <trkpt lat="59.9161313" lon="17.6424629">
        <ele>21.2864</ele>
        <time>2013-05-19T16:44:47Z</time>
      </trkpt>
      <trkpt lat="59.9160469" lon="17.6424657">
        <ele>20.8057</ele>
        <time>2013-05-19T16:44:48Z</time>
      </trkpt>
      <trkpt lat="59.9159607" lon="17.6424658">
        <ele>20.8057</ele>
        <time>2013-05-19T16:44:49Z</time>
      </trkpt>
      <trkpt lat="59.9158734" lon="17.6424664">
        <ele>20.8057</ele>
        <time>2013-05-19T16:44:50Z</time>
      </trkpt>
      <trkpt lat="59.9157849" lon="17.6424684">
        <ele>20.325</ele>
        <time>2013-05-19T16:44:51Z</time>
      </trkpt>
      <trkpt lat="59.9156959" lon="17.6424733">
        <ele>20.325</ele>
        <time>2013-05-19T16:44:52Z</time>
      </trkpt>
      <trkpt lat="59.9156068" lon="17.6424843">
        <ele>20.325</ele>
        <time>2013-05-19T16:44:53Z</time>
      </trkpt>
      <trkpt lat="59.9155177" lon="17.6425008">
        <ele>20.325</ele>
        <time>2013-05-19T16:44:54Z</time>
      </trkpt>
      <trkpt lat="59.9154302" lon="17.6425212">
        <ele>20.325</ele>
        <time>2013-05-19T16:44:55Z</time>
      </trkpt>
      <trkpt lat="59.9153439" lon="17.6425512">
        <ele>20.325</ele>
        <time>2013-05-19T16:44:56Z</time>
      </trkpt>
      <trkpt lat="59.9152582" lon="17.6425951">
        <ele>20.325</ele>
        <time>2013-05-19T16:44:57Z</time>
      </trkpt>
      <trkpt lat="59.9151804" lon="17.6426424">
        <ele>20.8057</ele>
        <time>2013-05-19T16:44:58Z</time>
      </trkpt>
      <trkpt lat="59.915107" lon="17.6426843">
        <ele>21.2864</ele>
        <time>2013-05-19T16:44:59Z</time>
      </trkpt>
      <trkpt lat="59.9150303" lon="17.6427092">
        <ele>21.767</ele>
        <time>2013-05-19T16:45:00Z</time>
      </trkpt>
      <trkpt lat="59.9149498" lon="17.6427211">
        <ele>21.767</ele>
        <time>2013-05-19T16:45:01Z</time>
      </trkpt>
      <trkpt lat="59.9148676" lon="17.6427316">
        <ele>22.2476</ele>
        <time>2013-05-19T16:45:02Z</time>
      </trkpt>
      <trkpt lat="59.914785" lon="17.6427466">
        <ele>22.2476</ele>
        <time>2013-05-19T16:45:03Z</time>
      </trkpt>
      <trkpt lat="59.9147019" lon="17.6427656">
        <ele>22.7283</ele>
        <time>2013-05-19T16:45:04Z</time>
      </trkpt>
      <trkpt lat="59.9146189" lon="17.6427852">
        <ele>22.7283</ele>
        <time>2013-05-19T16:45:05Z</time>
      </trkpt>
      <trkpt lat="59.9145356" lon="17.6428053">
        <ele>23.209</ele>
        <time>2013-05-19T16:45:06Z</time>
      </trkpt>
      <trkpt lat="59.9144526" lon="17.6428219">
        <ele>23.6896</ele>
        <time>2013-05-19T16:45:07Z</time>
      </trkpt>
      <trkpt lat="59.9143691" lon="17.6428356">
        <ele>23.6896</ele>
        <time>2013-05-19T16:45:08Z</time>
      </trkpt>
      <trkpt lat="59.9142853" lon="17.6428492">
        <ele>24.1703</ele>
        <time>2013-05-19T16:45:09Z</time>
      </trkpt>
      <trkpt lat="59.914202" lon="17.6428657">
        <ele>24.1703</ele>
        <time>2013-05-19T16:45:10Z</time>
      </trkpt>
      <trkpt lat="59.9141201" lon="17.6428848">
        <ele>24.651</ele>
        <time>2013-05-19T16:45:11Z</time>
      </trkpt>
      <trkpt lat="59.9140387" lon="17.642905">
        <ele>25.1317</ele>
        <time>2013-05-19T16:45:12Z</time>
      </trkpt>
      <trkpt lat="59.9139568" lon="17.642918">
        <ele>25.1317</ele>
        <time>2013-05-19T16:45:13Z</time>
      </trkpt>
      <trkpt lat="59.9138733" lon="17.6429304">
        <ele>25.6123</ele>
        <time>2013-05-19T16:45:14Z</time>
      </trkpt>
      <trkpt lat="59.9137911" lon="17.6429459">
        <ele>26.0929</ele>
        <time>2013-05-19T16:45:15Z</time>
      </trkpt>
      <trkpt lat="59.9137112" lon="17.6429604">
        <ele>26.0929</ele>
        <time>2013-05-19T16:45:16Z</time>
      </trkpt>
      <trkpt lat="59.913633" lon="17.6429764">
        <ele>26.0929</ele>
        <time>2013-05-19T16:45:17Z</time>
      </trkpt>
      <trkpt lat="59.9135554" lon="17.6429898">
        <ele>26.0929</ele>
        <time>2013-05-19T16:45:18Z</time>
      </trkpt>
      <trkpt lat="59.9134793" lon="17.6430017">
        <ele>26.5736</ele>
        <time>2013-05-19T16:45:19Z</time>
      </trkpt>
      <trkpt lat="59.9134022" lon="17.6430179">
        <ele>26.0929</ele>
        <time>2013-05-19T16:45:20Z</time>
      </trkpt>
      <trkpt lat="59.9133268" lon="17.6430434">
        <ele>26.0929</ele>
        <time>2013-05-19T16:45:21Z</time>
      </trkpt>
      <trkpt lat="59.9132515" lon="17.6430701">
        <ele>26.0929</ele>
        <time>2013-05-19T16:45:22Z</time>
      </trkpt>
      <trkpt lat="59.9131758" lon="17.6430918">
        <ele>26.0929</ele>
        <time>2013-05-19T16:45:23Z</time>
      </trkpt>
      <trkpt lat="59.9131017" lon="17.6431028">
        <ele>26.0929</ele>
        <time>2013-05-19T16:45:24Z</time>
      </trkpt>
      <trkpt lat="59.9130295" lon="17.64311">
        <ele>26.5736</ele>
        <time>2013-05-19T16:45:25Z</time>
      </trkpt>
      <trkpt lat="59.9129595" lon="17.6431221">
        <ele>26.5736</ele>
        <time>2013-05-19T16:45:26Z</time>
      </trkpt>
      <trkpt lat="59.9128893" lon="17.6431402">
        <ele>27.0543</ele>
        <time>2013-05-19T16:45:27Z</time>
      </trkpt>
      <trkpt lat="59.9128172" lon="17.6431538">
        <ele>27.0543</ele>
        <time>2013-05-19T16:45:28Z</time>
      </trkpt>
      <trkpt lat="59.9127437" lon="17.6431547">
        <ele>26.5736</ele>
        <time>2013-05-19T16:45:29Z</time>
      </trkpt>
      <trkpt lat="59.9126672" lon="17.6431343">
        <ele>25.1317</ele>
        <time>2013-05-19T16:45:30Z</time>
      </trkpt>
      <trkpt lat="59.9125881" lon="17.6430992">
        <ele>24.651</ele>
        <time>2013-05-19T16:45:31Z</time>
      </trkpt>
      <trkpt lat="59.9125057" lon="17.6430737">
        <ele>24.651</ele>
        <time>2013-05-19T16:45:32Z</time>
      </trkpt>
      <trkpt lat="59.9124218" lon="17.6430723">
        <ele>24.651</ele>
        <time>2013-05-19T16:45:33Z</time>
      </trkpt>
      <trkpt lat="59.9123386" lon="17.6430857">
        <ele>25.1317</ele>
        <time>2013-05-19T16:45:34Z</time>
      </trkpt>
      <trkpt lat="59.9122572" lon="17.6431061">
        <ele>25.1317</ele>
        <time>2013-05-19T16:45:35Z</time>
      </trkpt>
      <trkpt lat="59.9121785" lon="17.6431303">
        <ele>25.6123</ele>
        <time>2013-05-19T16:45:36Z</time>
      </trkpt>
      <trkpt lat="59.9121014" lon="17.6431561">
        <ele>25.6123</ele>
        <time>2013-05-19T16:45:37Z</time>
      </trkpt>
      <trkpt lat="59.9120269" lon="17.6431814">
        <ele>26.0929</ele>
        <time>2013-05-19T16:45:38Z</time>
      </trkpt>
      <trkpt lat="59.9119543" lon="17.6432044">
        <ele>26.0929</ele>
        <time>2013-05-19T16:45:39Z</time>
      </trkpt>
      <trkpt lat="59.9118818" lon="17.6432225">
        <ele>26.0929</ele>
        <time>2013-05-19T16:45:40Z</time>
      </trkpt>
      <trkpt lat="59.9118118" lon="17.6432386">
        <ele>26.0929</ele>
        <time>2013-05-19T16:45:41Z</time>
      </trkpt>
      <trkpt lat="59.9117383" lon="17.6432537">
        <ele>26.0929</ele>
        <time>2013-05-19T16:45:42Z</time>
      </trkpt>
      <trkpt lat="59.9116641" lon="17.6432627">
        <ele>25.6123</ele>
        <time>2013-05-19T16:45:43Z</time>
      </trkpt>
      <trkpt lat="59.9115895" lon="17.6432738">
        <ele>25.6123</ele>
        <time>2013-05-19T16:45:44Z</time>
      </trkpt>
      <trkpt lat="59.9115134" lon="17.6432856">
        <ele>25.6123</ele>
        <time>2013-05-19T16:45:45Z</time>
      </trkpt>
      <trkpt lat="59.9114384" lon="17.6432987">
        <ele>25.6123</ele>
        <time>2013-05-19T16:45:46Z</time>
      </trkpt>
      <trkpt lat="59.911363" lon="17.6433152">
        <ele>25.1317</ele>
        <time>2013-05-19T16:45:47Z</time>
      </trkpt>
      <trkpt lat="59.911289" lon="17.6433384">
        <ele>25.1317</ele>
        <time>2013-05-19T16:45:48Z</time>
      </trkpt>
      <trkpt lat="59.9112149" lon="17.6433613">
        <ele>25.1317</ele>
        <time>2013-05-19T16:45:49Z</time>
      </trkpt>
      <trkpt lat="59.9111394" lon="17.6433775">
        <ele>25.1317</ele>
        <time>2013-05-19T16:45:50Z</time>
      </trkpt>
      <trkpt lat="59.9110628" lon="17.6433899">
        <ele>25.1317</ele>
        <time>2013-05-19T16:45:51Z</time>
      </trkpt>
      <trkpt lat="59.9109846" lon="17.6434024">
        <ele>25.1317</ele>
        <time>2013-05-19T16:45:52Z</time>
      </trkpt>
      <trkpt lat="59.9109049" lon="17.6434158">
        <ele>24.651</ele>
        <time>2013-05-19T16:45:53Z</time>
      </trkpt>
      <trkpt lat="59.9108235" lon="17.6434301">
        <ele>24.651</ele>
        <time>2013-05-19T16:45:54Z</time>
      </trkpt>
      <trkpt lat="59.9107416" lon="17.6434477">
        <ele>24.651</ele>
        <time>2013-05-19T16:45:55Z</time>
      </trkpt>
      <trkpt lat="59.9106598" lon="17.6434715">
        <ele>24.651</ele>
        <time>2013-05-19T16:45:56Z</time>
      </trkpt>
      <trkpt lat="59.9105783" lon="17.6435001">
        <ele>24.651</ele>
        <time>2013-05-19T16:45:57Z</time>
      </trkpt>
      <trkpt lat="59.9104987" lon="17.6435353">
        <ele>24.651</ele>
        <time>2013-05-19T16:45:58Z</time>
      </trkpt>
      <trkpt lat="59.910421" lon="17.6435706">
        <ele>24.651</ele>
        <time>2013-05-19T16:45:59Z</time>
      </trkpt>
      <trkpt lat="59.9103452" lon="17.6435986">
        <ele>24.651</ele>
        <time>2013-05-19T16:46:00Z</time>
      </trkpt>
      <trkpt lat="59.9102682" lon="17.6436161">
        <ele>24.651</ele>
        <time>2013-05-19T16:46:01Z</time>
      </trkpt>
      <trkpt lat="59.9101905" lon="17.6436286">
        <ele>24.651</ele>
        <time>2013-05-19T16:46:02Z</time>
      </trkpt>
      <trkpt lat="59.9101107" lon="17.6436327">
        <ele>24.651</ele>
        <time>2013-05-19T16:46:03Z</time>
      </trkpt>
      <trkpt lat="59.9100292" lon="17.6436228">
        <ele>24.1703</ele>
        <time>2013-05-19T16:46:04Z</time>
      </trkpt>
      <trkpt lat="59.9099447" lon="17.6435958">
        <ele>23.209</ele>
        <time>2013-05-19T16:46:05Z</time>
      </trkpt>
      <trkpt lat="59.9098579" lon="17.6435644">
        <ele>23.6896</ele>
        <time>2013-05-19T16:46:06Z</time>
      </trkpt>
      <trkpt lat="59.9097683" lon="17.6435511">
        <ele>23.209</ele>
        <time>2013-05-19T16:46:07Z</time>
      </trkpt>
      <trkpt lat="59.909678" lon="17.6435603">
        <ele>23.6896</ele>
        <time>2013-05-19T16:46:08Z</time>
      </trkpt>
      <trkpt lat="59.9095875" lon="17.6435792">
        <ele>23.6896</ele>
        <time>2013-05-19T16:46:09Z</time>
      </trkpt>
      <trkpt lat="59.9094968" lon="17.6436026">
        <ele>23.6896</ele>
        <time>2013-05-19T16:46:10Z</time>
      </trkpt>
      <trkpt lat="59.9094065" lon="17.6436241">
        <ele>23.6896</ele>
        <time>2013-05-19T16:46:11Z</time>
      </trkpt>
      <trkpt lat="59.9093169" lon="17.6436417">
        <ele>23.6896</ele>
        <time>2013-05-19T16:46:12Z</time>
      </trkpt>
      <trkpt lat="59.9092276" lon="17.6436585">
        <ele>23.6896</ele>
        <time>2013-05-19T16:46:13Z</time>
      </trkpt>
      <trkpt lat="59.9091384" lon="17.6436717">
        <ele>23.6896</ele>
        <time>2013-05-19T16:46:14Z</time>
      </trkpt>
      <trkpt lat="59.9090497" lon="17.643681">
        <ele>23.6896</ele>
        <time>2013-05-19T16:46:15Z</time>
      </trkpt>
      <trkpt lat="59.9089608" lon="17.6436917">
        <ele>23.6896</ele>
        <time>2013-05-19T16:46:16Z</time>
      </trkpt>
      <trkpt lat="59.9088716" lon="17.6437041">
        <ele>24.1703</ele>
        <time>2013-05-19T16:46:17Z</time>
      </trkpt>
      <trkpt lat="59.9087825" lon="17.6437153">
        <ele>24.1703</ele>
        <time>2013-05-19T16:46:18Z</time>
      </trkpt>
      <trkpt lat="59.9086945" lon="17.6437271">
        <ele>24.1703</ele>
        <time>2013-05-19T16:46:19Z</time>
      </trkpt>
      <trkpt lat="59.9086078" lon="17.6437375">
        <ele>24.1703</ele>
        <time>2013-05-19T16:46:20Z</time>
      </trkpt>
      <trkpt lat="59.9085203" lon="17.6437374">
        <ele>24.1703</ele>
        <time>2013-05-19T16:46:21Z</time>
      </trkpt>
      <trkpt lat="59.9084345" lon="17.6437313">
        <ele>24.1703</ele>
        <time>2013-05-19T16:46:22Z</time>
      </trkpt>
      <trkpt lat="59.9083531" lon="17.6437484">
        <ele>24.651</ele>
        <time>2013-05-19T16:46:23Z</time>
      </trkpt>
      <trkpt lat="59.9082775" lon="17.6437971">
        <ele>25.1317</ele>
        <time>2013-05-19T16:46:24Z</time>
      </trkpt>
      <trkpt lat="59.9082017" lon="17.6438374">
        <ele>25.1317</ele>
        <time>2013-05-19T16:46:25Z</time>
      </trkpt>
      <trkpt lat="59.9081215" lon="17.6438479">
        <ele>24.651</ele>
        <time>2013-05-19T16:46:26Z</time>
      </trkpt>
      <trkpt lat="59.9080393" lon="17.6438452">
        <ele>24.651</ele>
        <time>2013-05-19T16:46:27Z</time>
      </trkpt>
      <trkpt lat="59.9079566" lon="17.6438379">
        <ele>24.651</ele>
        <time>2013-05-19T16:46:28Z</time>
      </trkpt>
      <trkpt lat="59.9078727" lon="17.6438265">
        <ele>24.651</ele>
        <time>2013-05-19T16:46:29Z</time>
      </trkpt>
      <trkpt lat="59.9077877" lon="17.6438151">
        <ele>24.651</ele>
        <time>2013-05-19T16:46:30Z</time>
      </trkpt>
      <trkpt lat="59.9077022" lon="17.6438027">
        <ele>24.1703</ele>
        <time>2013-05-19T16:46:31Z</time>
      </trkpt>
      <trkpt lat="59.9076158" lon="17.6437893">
        <ele>24.1703</ele>
        <time>2013-05-19T16:46:32Z</time>
      </trkpt>
      <trkpt lat="59.9075285" lon="17.643774">
        <ele>24.1703</ele>
        <time>2013-05-19T16:46:33Z</time>
      </trkpt>
      <trkpt lat="59.9074409" lon="17.6437554">
        <ele>23.6896</ele>
        <time>2013-05-19T16:46:34Z</time>
      </trkpt>
      <trkpt lat="59.9073516" lon="17.643735">
        <ele>23.6896</ele>
        <time>2013-05-19T16:46:35Z</time>
      </trkpt>
      <trkpt lat="59.9072601" lon="17.6437153">
        <ele>23.6896</ele>
        <time>2013-05-19T16:46:36Z</time>
      </trkpt>
      <trkpt lat="59.9071669" lon="17.6436958">
        <ele>23.6896</ele>
        <time>2013-05-19T16:46:37Z</time>
      </trkpt>
      <trkpt lat="59.9070725" lon="17.6436742">
        <ele>23.209</ele>
        <time>2013-05-19T16:46:38Z</time>
      </trkpt>
      <trkpt lat="59.906976" lon="17.6436489">
        <ele>23.209</ele>
        <time>2013-05-19T16:46:39Z</time>
      </trkpt>
      <trkpt lat="59.9068777" lon="17.6436193">
        <ele>22.7283</ele>
        <time>2013-05-19T16:46:40Z</time>
      </trkpt>
      <trkpt lat="59.9067779" lon="17.6435872">
        <ele>22.2476</ele>
        <time>2013-05-19T16:46:41Z</time>
      </trkpt>
      <trkpt lat="59.9066768" lon="17.6435546">
        <ele>22.2476</ele>
        <time>2013-05-19T16:46:42Z</time>
      </trkpt>
      <trkpt lat="59.906575" lon="17.6435226">
        <ele>21.767</ele>
        <time>2013-05-19T16:46:43Z</time>
      </trkpt>
      <trkpt lat="59.9064725" lon="17.6434914">
        <ele>21.767</ele>
        <time>2013-05-19T16:46:44Z</time>
      </trkpt>
      <trkpt lat="59.9063694" lon="17.6434581">
        <ele>21.2864</ele>
        <time>2013-05-19T16:46:45Z</time>
      </trkpt>
      <trkpt lat="59.9062654" lon="17.6434225">
        <ele>20.8057</ele>
        <time>2013-05-19T16:46:46Z</time>
      </trkpt>
      <trkpt lat="59.9061614" lon="17.6433861">
        <ele>20.325</ele>
        <time>2013-05-19T16:46:47Z</time>
      </trkpt>
      <trkpt lat="59.9060578" lon="17.6433462">
        <ele>20.325</ele>
        <time>2013-05-19T16:46:48Z</time>
      </trkpt>
      <trkpt lat="59.9059542" lon="17.6432996">
        <ele>19.8444</ele>
        <time>2013-05-19T16:46:49Z</time>
      </trkpt>
      <trkpt lat="59.9058509" lon="17.6432521">
        <ele>19.8444</ele>
        <time>2013-05-19T16:46:50Z</time>
      </trkpt>
      <trkpt lat="59.9057479" lon="17.6432059">
        <ele>19.8444</ele>
        <time>2013-05-19T16:46:51Z</time>
      </trkpt>
      <trkpt lat="59.9056453" lon="17.6431618">
        <ele>19.3638</ele>
        <time>2013-05-19T16:46:52Z</time>
      </trkpt>
      <trkpt lat="59.9055439" lon="17.6431188">
        <ele>19.3638</ele>
        <time>2013-05-19T16:46:53Z</time>
      </trkpt>
      <trkpt lat="59.905443" lon="17.6430745">
        <ele>18.8831</ele>
        <time>2013-05-19T16:46:54Z</time>
      </trkpt>
      <trkpt lat="59.9053433" lon="17.6430298">
        <ele>18.8831</ele>
        <time>2013-05-19T16:46:55Z</time>
      </trkpt>
      <trkpt lat="59.9052445" lon="17.642983">
        <ele>18.8831</ele>
        <time>2013-05-19T16:46:56Z</time>
      </trkpt>
      <trkpt lat="59.9051466" lon="17.6429346">
        <ele>18.4023</ele>
        <time>2013-05-19T16:46:57Z</time>
      </trkpt>
      <trkpt lat="59.9050501" lon="17.6428882">
        <ele>18.4023</ele>
        <time>2013-05-19T16:46:58Z</time>
      </trkpt>
      <trkpt lat="59.9049526" lon="17.6428414">
        <ele>18.4023</ele>
        <time>2013-05-19T16:46:59Z</time>
      </trkpt>
      <trkpt lat="59.904856" lon="17.6427937">
        <ele>18.4023</ele>
        <time>2013-05-19T16:47:00Z</time>
      </trkpt>
      <trkpt lat="59.9047582" lon="17.6427463">
        <ele>18.4023</ele>
        <time>2013-05-19T16:47:01Z</time>
      </trkpt>
      <trkpt lat="59.9046612" lon="17.6427009">
        <ele>18.4023</ele>
        <time>2013-05-19T16:47:02Z</time>
      </trkpt>
      <trkpt lat="59.9045657" lon="17.6426577">
        <ele>18.4023</ele>
        <time>2013-05-19T16:47:03Z</time>
      </trkpt>
      <trkpt lat="59.9044717" lon="17.6426144">
        <ele>18.4023</ele>
        <time>2013-05-19T16:47:04Z</time>
      </trkpt>
      <trkpt lat="59.9043792" lon="17.6425698">
        <ele>18.4023</ele>
        <time>2013-05-19T16:47:05Z</time>
      </trkpt>
      <trkpt lat="59.9042877" lon="17.6425253">
        <ele>18.4023</ele>
        <time>2013-05-19T16:47:06Z</time>
      </trkpt>
      <trkpt lat="59.9041951" lon="17.6424821">
        <ele>17.9218</ele>
        <time>2013-05-19T16:47:07Z</time>
      </trkpt>
      <trkpt lat="59.9041018" lon="17.6424388">
        <ele>17.9218</ele>
        <time>2013-05-19T16:47:08Z</time>
      </trkpt>
      <trkpt lat="59.9040071" lon="17.6423953">
        <ele>17.9218</ele>
        <time>2013-05-19T16:47:09Z</time>
      </trkpt>
      <trkpt lat="59.903913" lon="17.642349">
        <ele>17.9218</ele>
        <time>2013-05-19T16:47:10Z</time>
      </trkpt>
      <trkpt lat="59.9038188" lon="17.6423009">
        <ele>17.9218</ele>
        <time>2013-05-19T16:47:11Z</time>
      </trkpt>
      <trkpt lat="59.9037237" lon="17.6422543">
        <ele>17.9218</ele>
        <time>2013-05-19T16:47:12Z</time>
      </trkpt>
      <trkpt lat="59.9036287" lon="17.6422109">
        <ele>17.4412</ele>
        <time>2013-05-19T16:47:13Z</time>
      </trkpt>
      <trkpt lat="59.903534" lon="17.6421692">
        <ele>17.4412</ele>
        <time>2013-05-19T16:47:14Z</time>
      </trkpt>
      <trkpt lat="59.9034403" lon="17.642127">
        <ele>17.4412</ele>
        <time>2013-05-19T16:47:15Z</time>
      </trkpt>
      <trkpt lat="59.9033474" lon="17.6420835">
        <ele>16.9604</ele>
        <time>2013-05-19T16:47:16Z</time>
      </trkpt>
      <trkpt lat="59.9032551" lon="17.6420383">
        <ele>16.9604</ele>
        <time>2013-05-19T16:47:17Z</time>
      </trkpt>
      <trkpt lat="59.9031635" lon="17.6419912">
        <ele>16.9604</ele>
        <time>2013-05-19T16:47:18Z</time>
      </trkpt>
      <trkpt lat="59.9030725" lon="17.6419455">
        <ele>16.9604</ele>
        <time>2013-05-19T16:47:19Z</time>
      </trkpt>
      <trkpt lat="59.9029822" lon="17.6419027">
        <ele>16.9604</ele>
        <time>2013-05-19T16:47:20Z</time>
      </trkpt>
      <trkpt lat="59.9028927" lon="17.6418591">
        <ele>16.9604</ele>
        <time>2013-05-19T16:47:21Z</time>
      </trkpt>
      <trkpt lat="59.9028046" lon="17.6418114">
        <ele>16.9604</ele>
        <time>2013-05-19T16:47:22Z</time>
      </trkpt>
      <trkpt lat="59.9027169" lon="17.6417601">
        <ele>16.9604</ele>
        <time>2013-05-19T16:47:23Z</time>
      </trkpt>
      <trkpt lat="59.9026297" lon="17.6417063">
        <ele>16.9604</ele>
        <time>2013-05-19T16:47:24Z</time>
      </trkpt>
      <trkpt lat="59.9025434" lon="17.6416503">
        <ele>16.9604</ele>
        <time>2013-05-19T16:47:25Z</time>
      </trkpt>
      <trkpt lat="59.9024576" lon="17.6415924">
        <ele>16.9604</ele>
        <time>2013-05-19T16:47:26Z</time>
      </trkpt>
      <trkpt lat="59.9023721" lon="17.6415342">
        <ele>16.9604</ele>
        <time>2013-05-19T16:47:27Z</time>
      </trkpt>
      <trkpt lat="59.9022864" lon="17.6414766">
        <ele>16.9604</ele>
        <time>2013-05-19T16:47:28Z</time>
      </trkpt>
      <trkpt lat="59.9022007" lon="17.6414188">
        <ele>16.9604</ele>
        <time>2013-05-19T16:47:29Z</time>
      </trkpt>
      <trkpt lat="59.9021148" lon="17.6413592">
        <ele>17.4412</ele>
        <time>2013-05-19T16:47:30Z</time>
      </trkpt>
      <trkpt lat="59.9020292" lon="17.6412964">
        <ele>17.4412</ele>
        <time>2013-05-19T16:47:31Z</time>
      </trkpt>
      <trkpt lat="59.9019442" lon="17.6412295">
        <ele>17.4412</ele>
        <time>2013-05-19T16:47:32Z</time>
      </trkpt>
      <trkpt lat="59.9018593" lon="17.6411583">
        <ele>17.4412</ele>
        <time>2013-05-19T16:47:33Z</time>
      </trkpt>
      <trkpt lat="59.9017748" lon="17.6410857">
        <ele>17.4412</ele>
        <time>2013-05-19T16:47:34Z</time>
      </trkpt>
      <trkpt lat="59.9016894" lon="17.6410148">
        <ele>17.9218</ele>
        <time>2013-05-19T16:47:35Z</time>
      </trkpt>
      <trkpt lat="59.901604" lon="17.6409433">
        <ele>17.9218</ele>
        <time>2013-05-19T16:47:36Z</time>
      </trkpt>
      <trkpt lat="59.9015194" lon="17.6408671">
        <ele>17.9218</ele>
        <time>2013-05-19T16:47:37Z</time>
      </trkpt>
      <trkpt lat="59.9014352" lon="17.6407875">
        <ele>17.9218</ele>
        <time>2013-05-19T16:47:38Z</time>
      </trkpt>
      <trkpt lat="59.9013512" lon="17.6407082">
        <ele>17.9218</ele>
        <time>2013-05-19T16:47:39Z</time>
      </trkpt>
      <trkpt lat="59.9012677" lon="17.6406284">
        <ele>17.9218</ele>
        <time>2013-05-19T16:47:40Z</time>
      </trkpt>
      <trkpt lat="59.9011848" lon="17.6405473">
        <ele>17.9218</ele>
        <time>2013-05-19T16:47:41Z</time>
      </trkpt>
      <trkpt lat="59.9011024" lon="17.6404666">
        <ele>18.4023</ele>
        <time>2013-05-19T16:47:42Z</time>
      </trkpt>
      <trkpt lat="59.9010199" lon="17.6403885">
        <ele>18.4023</ele>
        <time>2013-05-19T16:47:43Z</time>
      </trkpt>
      <trkpt lat="59.9009378" lon="17.6403111">
        <ele>18.4023</ele>
        <time>2013-05-19T16:47:44Z</time>
      </trkpt>
      <trkpt lat="59.9008564" lon="17.6402314">
        <ele>18.4023</ele>
        <time>2013-05-19T16:47:45Z</time>
      </trkpt>
      <trkpt lat="59.9007761" lon="17.6401496">
        <ele>18.4023</ele>
        <time>2013-05-19T16:47:46Z</time>
      </trkpt>
      <trkpt lat="59.9006958" lon="17.6400666">
        <ele>18.8831</ele>
        <time>2013-05-19T16:47:47Z</time>
      </trkpt>
      <trkpt lat="59.9006156" lon="17.6399871">
        <ele>18.8831</ele>
        <time>2013-05-19T16:47:48Z</time>
      </trkpt>
      <trkpt lat="59.9005361" lon="17.6399088">
        <ele>18.8831</ele>
        <time>2013-05-19T16:47:49Z</time>
      </trkpt>
      <trkpt lat="59.9004585" lon="17.6398276">
        <ele>18.8831</ele>
        <time>2013-05-19T16:47:50Z</time>
      </trkpt>
      <trkpt lat="59.9003815" lon="17.6397473">
        <ele>19.3638</ele>
        <time>2013-05-19T16:47:51Z</time>
      </trkpt>
      <trkpt lat="59.9003043" lon="17.639672">
        <ele>19.3638</ele>
        <time>2013-05-19T16:47:52Z</time>
      </trkpt>
      <trkpt lat="59.9002271" lon="17.6395996">
        <ele>19.8444</ele>
        <time>2013-05-19T16:47:53Z</time>
      </trkpt>
      <trkpt lat="59.9001514" lon="17.6395261">
        <ele>19.8444</ele>
        <time>2013-05-19T16:47:54Z</time>
      </trkpt>
      <trkpt lat="59.9000768" lon="17.6394495">
        <ele>20.325</ele>
        <time>2013-05-19T16:47:55Z</time>
      </trkpt>
      <trkpt lat="59.9000023" lon="17.639372">
        <ele>20.325</ele>
        <time>2013-05-19T16:47:56Z</time>
      </trkpt>
      <trkpt lat="59.8999286" lon="17.6392938">
        <ele>20.325</ele>
        <time>2013-05-19T16:47:57Z</time>
      </trkpt>
      <trkpt lat="59.8998552" lon="17.6392158">
        <ele>20.8057</ele>
        <time>2013-05-19T16:47:58Z</time>
      </trkpt>
      <trkpt lat="59.8997821" lon="17.6391401">
        <ele>20.8057</ele>
        <time>2013-05-19T16:47:59Z</time>
      </trkpt>
      <trkpt lat="59.8997091" lon="17.6390667">
        <ele>21.2864</ele>
        <time>2013-05-19T16:48:00Z</time>
      </trkpt>
      <trkpt lat="59.8996361" lon="17.6389976">
        <ele>21.2864</ele>
        <time>2013-05-19T16:48:01Z</time>
      </trkpt>
      <trkpt lat="59.8995648" lon="17.6389301">
        <ele>21.2864</ele>
        <time>2013-05-19T16:48:02Z</time>
      </trkpt>
      <trkpt lat="59.8994937" lon="17.6388624">
        <ele>21.2864</ele>
        <time>2013-05-19T16:48:03Z</time>
      </trkpt>
      <trkpt lat="59.8994232" lon="17.6387939">
        <ele>21.2864</ele>
        <time>2013-05-19T16:48:04Z</time>
      </trkpt>
      <trkpt lat="59.8993536" lon="17.6387244">
        <ele>21.2864</ele>
        <time>2013-05-19T16:48:05Z</time>
      </trkpt>
      <trkpt lat="59.8992843" lon="17.6386559">
        <ele>21.767</ele>
        <time>2013-05-19T16:48:06Z</time>
      </trkpt>
      <trkpt lat="59.8992165" lon="17.6385877">
        <ele>21.767</ele>
        <time>2013-05-19T16:48:07Z</time>
      </trkpt>
      <trkpt lat="59.8991507" lon="17.6385219">
        <ele>21.767</ele>
        <time>2013-05-19T16:48:08Z</time>
      </trkpt>
      <trkpt lat="59.8990847" lon="17.6384606">
        <ele>21.767</ele>
        <time>2013-05-19T16:48:09Z</time>
      </trkpt>
      <trkpt lat="59.8990163" lon="17.6384029">
        <ele>21.767</ele>
        <time>2013-05-19T16:48:10Z</time>
      </trkpt>
      <trkpt lat="59.8989459" lon="17.6383464">
        <ele>21.767</ele>
        <time>2013-05-19T16:48:11Z</time>
      </trkpt>
      <trkpt lat="59.8988759" lon="17.6382984">
        <ele>21.767</ele>
        <time>2013-05-19T16:48:12Z</time>
      </trkpt>
      <trkpt lat="59.8988039" lon="17.6382636">
        <ele>21.767</ele>
        <time>2013-05-19T16:48:13Z</time>
      </trkpt>
      <trkpt lat="59.8987296" lon="17.6382532">
        <ele>21.767</ele>
        <time>2013-05-19T16:48:14Z</time>
      </trkpt>
      <trkpt lat="59.898656" lon="17.6382626">
        <ele>21.767</ele>
        <time>2013-05-19T16:48:15Z</time>
      </trkpt>
      <trkpt lat="59.8985828" lon="17.6382671">
        <ele>22.2476</ele>
        <time>2013-05-19T16:48:16Z</time>
      </trkpt>
      <trkpt lat="59.8985098" lon="17.6382453">
        <ele>22.2476</ele>
        <time>2013-05-19T16:48:17Z</time>
      </trkpt>
      <trkpt lat="59.8984398" lon="17.6382005">
        <ele>22.2476</ele>
        <time>2013-05-19T16:48:18Z</time>
      </trkpt>
      <trkpt lat="59.8983719" lon="17.6381422">
        <ele>22.7283</ele>
        <time>2013-05-19T16:48:19Z</time>
      </trkpt>
      <trkpt lat="59.8983038" lon="17.6380801">
        <ele>22.7283</ele>
        <time>2013-05-19T16:48:20Z</time>
      </trkpt>
      <trkpt lat="59.8982351" lon="17.6380165">
        <ele>23.209</ele>
        <time>2013-05-19T16:48:21Z</time>
      </trkpt>
      <trkpt lat="59.8981659" lon="17.6379511">
        <ele>23.209</ele>
        <time>2013-05-19T16:48:22Z</time>
      </trkpt>
      <trkpt lat="59.8980963" lon="17.637884">
        <ele>23.209</ele>
        <time>2013-05-19T16:48:23Z</time>
      </trkpt>
      <trkpt lat="59.8980271" lon="17.6378114">
        <ele>23.6896</ele>
        <time>2013-05-19T16:48:24Z</time>
      </trkpt>
      <trkpt lat="59.8979591" lon="17.6377286">
        <ele>23.6896</ele>
        <time>2013-05-19T16:48:25Z</time>
      </trkpt>
      <trkpt lat="59.8978945" lon="17.637632">
        <ele>24.1703</ele>
        <time>2013-05-19T16:48:26Z</time>
      </trkpt>
      <trkpt lat="59.8978354" lon="17.6375185">
        <ele>24.1703</ele>
        <time>2013-05-19T16:48:27Z</time>
      </trkpt>
      <trkpt lat="59.8977763" lon="17.637402">
        <ele>24.651</ele>
        <time>2013-05-19T16:48:28Z</time>
      </trkpt>
      <trkpt lat="59.8977099" lon="17.6372991">
        <ele>24.651</ele>
        <time>2013-05-19T16:48:29Z</time>
      </trkpt>
      <trkpt lat="59.8976363" lon="17.6372165">
        <ele>25.1317</ele>
        <time>2013-05-19T16:48:30Z</time>
      </trkpt>
      <trkpt lat="59.8975587" lon="17.6371499">
        <ele>25.1317</ele>
        <time>2013-05-19T16:48:31Z</time>
      </trkpt>
      <trkpt lat="59.8974806" lon="17.6370975">
        <ele>25.6123</ele>
        <time>2013-05-19T16:48:32Z</time>
      </trkpt>
      <trkpt lat="59.8974023" lon="17.6370551">
        <ele>25.6123</ele>
        <time>2013-05-19T16:48:33Z</time>
      </trkpt>
      <trkpt lat="59.8973251" lon="17.6370152">
        <ele>26.0929</ele>
        <time>2013-05-19T16:48:34Z</time>
      </trkpt>
      <trkpt lat="59.8972495" lon="17.6369768">
        <ele>26.0929</ele>
        <time>2013-05-19T16:48:35Z</time>
      </trkpt>
      <trkpt lat="59.8971763" lon="17.6369387">
        <ele>26.5736</ele>
        <time>2013-05-19T16:48:36Z</time>
      </trkpt>
      <trkpt lat="59.897104" lon="17.6369002">
        <ele>26.5736</ele>
        <time>2013-05-19T16:48:37Z</time>
      </trkpt>
      <trkpt lat="59.8970325" lon="17.6368619">
        <ele>27.0543</ele>
        <time>2013-05-19T16:48:38Z</time>
      </trkpt>
      <trkpt lat="59.8969605" lon="17.6368255">
        <ele>27.0543</ele>
        <time>2013-05-19T16:48:39Z</time>
      </trkpt>
      <trkpt lat="59.896889" lon="17.6367893">
        <ele>27.0543</ele>
        <time>2013-05-19T16:48:40Z</time>
      </trkpt>
      <trkpt lat="59.8968176" lon="17.6367534">
        <ele>27.0543</ele>
        <time>2013-05-19T16:48:41Z</time>
      </trkpt>
      <trkpt lat="59.8967453" lon="17.6367197">
        <ele>27.0543</ele>
        <time>2013-05-19T16:48:42Z</time>
      </trkpt>
      <trkpt lat="59.8966723" lon="17.6366892">
        <ele>27.0543</ele>
        <time>2013-05-19T16:48:43Z</time>
      </trkpt>
      <trkpt lat="59.8965989" lon="17.6366603">
        <ele>27.0543</ele>
        <time>2013-05-19T16:48:44Z</time>
      </trkpt>
      <trkpt lat="59.8965249" lon="17.6366328">
        <ele>27.0543</ele>
        <time>2013-05-19T16:48:45Z</time>
      </trkpt>
      <trkpt lat="59.8964502" lon="17.6366044">
        <ele>27.0543</ele>
        <time>2013-05-19T16:48:46Z</time>
      </trkpt>
      <trkpt lat="59.8963749" lon="17.6365735">
        <ele>27.0543</ele>
        <time>2013-05-19T16:48:47Z</time>
      </trkpt>
      <trkpt lat="59.8963" lon="17.6365418">
        <ele>27.0543</ele>
        <time>2013-05-19T16:48:48Z</time>
      </trkpt>
      <trkpt lat="59.8962254" lon="17.6365105">
        <ele>27.5349</ele>
        <time>2013-05-19T16:48:49Z</time>
      </trkpt>
      <trkpt lat="59.8961504" lon="17.6364809">
        <ele>27.5349</ele>
        <time>2013-05-19T16:48:50Z</time>
      </trkpt>
      <trkpt lat="59.8960747" lon="17.6364537">
        <ele>27.5349</ele>
        <time>2013-05-19T16:48:51Z</time>
      </trkpt>
      <trkpt lat="59.8959976" lon="17.6364329">
        <ele>27.5349</ele>
        <time>2013-05-19T16:48:52Z</time>
      </trkpt>
      <trkpt lat="59.8959198" lon="17.6364199">
        <ele>27.0543</ele>
        <time>2013-05-19T16:48:53Z</time>
      </trkpt>
      <trkpt lat="59.8958419" lon="17.6364168">
        <ele>27.0543</ele>
        <time>2013-05-19T16:48:54Z</time>
      </trkpt>
      <trkpt lat="59.8957637" lon="17.6364256">
        <ele>27.0543</ele>
        <time>2013-05-19T16:48:55Z</time>
      </trkpt>
      <trkpt lat="59.8956857" lon="17.6364429">
        <ele>27.0543</ele>
        <time>2013-05-19T16:48:56Z</time>
      </trkpt>
      <trkpt lat="59.8956077" lon="17.6364673">
        <ele>27.0543</ele>
        <time>2013-05-19T16:48:57Z</time>
      </trkpt>
      <trkpt lat="59.8955302" lon="17.6365004">
        <ele>27.0543</ele>
        <time>2013-05-19T16:48:58Z</time>
      </trkpt>
      <trkpt lat="59.8954526" lon="17.6365407">
        <ele>27.0543</ele>
        <time>2013-05-19T16:48:59Z</time>
      </trkpt>
      <trkpt lat="59.8953763" lon="17.6365868">
        <ele>27.0543</ele>
        <time>2013-05-19T16:49:00Z</time>
      </trkpt>
      <trkpt lat="59.8953003" lon="17.6366351">
        <ele>27.0543</ele>
        <time>2013-05-19T16:49:01Z</time>
      </trkpt>
      <trkpt lat="59.8952237" lon="17.6366838">
        <ele>27.0543</ele>
        <time>2013-05-19T16:49:02Z</time>
      </trkpt>
      <trkpt lat="59.895147" lon="17.6367343">
        <ele>26.5736</ele>
        <time>2013-05-19T16:49:03Z</time>
      </trkpt>
      <trkpt lat="59.8950707" lon="17.6367852">
        <ele>27.0543</ele>
        <time>2013-05-19T16:49:04Z</time>
      </trkpt>
      <trkpt lat="59.8949927" lon="17.636835">
        <ele>26.5736</ele>
        <time>2013-05-19T16:49:05Z</time>
      </trkpt>
      <trkpt lat="59.8949147" lon="17.6368842">
        <ele>26.5736</ele>
        <time>2013-05-19T16:49:06Z</time>
      </trkpt>
      <trkpt lat="59.8948361" lon="17.6369316">
        <ele>27.0543</ele>
        <time>2013-05-19T16:49:07Z</time>
      </trkpt>
      <trkpt lat="59.8947589" lon="17.6369826">
        <ele>27.0543</ele>
        <time>2013-05-19T16:49:08Z</time>
      </trkpt>
      <trkpt lat="59.8946826" lon="17.6370353">
        <ele>27.0543</ele>
        <time>2013-05-19T16:49:09Z</time>
      </trkpt>
      <trkpt lat="59.8946052" lon="17.6370831">
        <ele>27.0543</ele>
        <time>2013-05-19T16:49:10Z</time>
      </trkpt>
      <trkpt lat="59.8945268" lon="17.6371282">
        <ele>27.0543</ele>
        <time>2013-05-19T16:49:11Z</time>
      </trkpt>
      <trkpt lat="59.8944501" lon="17.6371761">
        <ele>27.0543</ele>
        <time>2013-05-19T16:49:12Z</time>
      </trkpt>
      <trkpt lat="59.8943741" lon="17.6372254">
        <ele>27.0543</ele>
        <time>2013-05-19T16:49:13Z</time>
      </trkpt>
      <trkpt lat="59.8942982" lon="17.6372748">
        <ele>27.5349</ele>
        <time>2013-05-19T16:49:14Z</time>
      </trkpt>
      <trkpt lat="59.8942236" lon="17.6373254">
        <ele>27.5349</ele>
        <time>2013-05-19T16:49:15Z</time>
      </trkpt>
      <trkpt lat="59.8941509" lon="17.6373831">
        <ele>28.0155</ele>
        <time>2013-05-19T16:49:16Z</time>
      </trkpt>
      <trkpt lat="59.8940773" lon="17.6374389">
        <ele>28.0155</ele>
        <time>2013-05-19T16:49:17Z</time>
      </trkpt>
      <trkpt lat="59.8940037" lon="17.6374927">
        <ele>28.0155</ele>
        <time>2013-05-19T16:49:18Z</time>
      </trkpt>
      <trkpt lat="59.8939306" lon="17.6375482">
        <ele>28.0155</ele>
        <time>2013-05-19T16:49:19Z</time>
      </trkpt>
      <trkpt lat="59.8938566" lon="17.637601">
        <ele>28.0155</ele>
        <time>2013-05-19T16:49:20Z</time>
      </trkpt>
      <trkpt lat="59.8937814" lon="17.6376544">
        <ele>28.0155</ele>
        <time>2013-05-19T16:49:21Z</time>
      </trkpt>
      <trkpt lat="59.8937066" lon="17.6377109">
        <ele>28.0155</ele>
        <time>2013-05-19T16:49:22Z</time>
      </trkpt>
      <trkpt lat="59.8936305" lon="17.6377632">
        <ele>27.5349</ele>
        <time>2013-05-19T16:49:23Z</time>
      </trkpt>
      <trkpt lat="59.893552" lon="17.6378146">
        <ele>27.5349</ele>
        <time>2013-05-19T16:49:24Z</time>
      </trkpt>
      <trkpt lat="59.8934753" lon="17.6378726">
        <ele>27.0543</ele>
        <time>2013-05-19T16:49:25Z</time>
      </trkpt>
      <trkpt lat="59.8934016" lon="17.6379331">
        <ele>27.0543</ele>
        <time>2013-05-19T16:49:26Z</time>
      </trkpt>
      <trkpt lat="59.8933269" lon="17.637986">
        <ele>27.0543</ele>
        <time>2013-05-19T16:49:27Z</time>
      </trkpt>
      <trkpt lat="59.8932505" lon="17.6380291">
        <ele>26.5736</ele>
        <time>2013-05-19T16:49:28Z</time>
      </trkpt>
      <trkpt lat="59.8931728" lon="17.6380705">
        <ele>26.5736</ele>
        <time>2013-05-19T16:49:29Z</time>
      </trkpt>
      <trkpt lat="59.893097" lon="17.6381146">
        <ele>26.0929</ele>
        <time>2013-05-19T16:49:30Z</time>
      </trkpt>
      <trkpt lat="59.8930205" lon="17.6381541">
        <ele>25.6123</ele>
        <time>2013-05-19T16:49:31Z</time>
      </trkpt>
      <trkpt lat="59.8929444" lon="17.6381884">
        <ele>25.6123</ele>
        <time>2013-05-19T16:49:32Z</time>
      </trkpt>
      <trkpt lat="59.892869" lon="17.6382142">
        <ele>25.1317</ele>
        <time>2013-05-19T16:49:33Z</time>
      </trkpt>
      <trkpt lat="59.8927936" lon="17.6382273">
        <ele>24.651</ele>
        <time>2013-05-19T16:49:34Z</time>
      </trkpt>
      <trkpt lat="59.8927209" lon="17.6382217">
        <ele>24.651</ele>
        <time>2013-05-19T16:49:35Z</time>
      </trkpt>
      <trkpt lat="59.8926562" lon="17.6382233">
        <ele>24.1703</ele>
        <time>2013-05-19T16:49:36Z</time>
      </trkpt>
      <trkpt lat="59.8926155" lon="17.6382947">
        <ele>24.1703</ele>
        <time>2013-05-19T16:49:37Z</time>
      </trkpt>
      <trkpt lat="59.8926009" lon="17.638429">
        <ele>24.651</ele>
        <time>2013-05-19T16:49:38Z</time>
      </trkpt>
      <trkpt lat="59.8926164" lon="17.6385013">
        <ele>24.651</ele>
        <time>2013-05-19T16:49:39Z</time>
      </trkpt>
      <trkpt lat="59.8926427" lon="17.6385781">
        <ele>24.651</ele>
        <time>2013-05-19T16:49:40Z</time>
      </trkpt>
      <trkpt lat="59.892663" lon="17.6386739">
        <ele>24.651</ele>
        <time>2013-05-19T16:49:41Z</time>
      </trkpt>
      <trkpt lat="59.8926704" lon="17.6387707">
        <ele>24.651</ele>
        <time>2013-05-19T16:49:42Z</time>
      </trkpt>
      <trkpt lat="59.8926745" lon="17.63888">
        <ele>24.651</ele>
        <time>2013-05-19T16:49:43Z</time>
      </trkpt>
      <trkpt lat="59.892674" lon="17.638994">
        <ele>24.651</ele>
        <time>2013-05-19T16:49:44Z</time>
      </trkpt>
      <trkpt lat="59.8926684" lon="17.6391286">
        <ele>24.651</ele>
        <time>2013-05-19T16:49:45Z</time>
      </trkpt>
      <trkpt lat="59.8926677" lon="17.6392515">
        <ele>24.651</ele>
        <time>2013-05-19T16:49:46Z</time>
      </trkpt>
      <trkpt lat="59.8926708" lon="17.6393674">
        <ele>25.1317</ele>
        <time>2013-05-19T16:49:47Z</time>
      </trkpt>
      <trkpt lat="59.8926704" lon="17.6394925">
        <ele>25.1317</ele>
        <time>2013-05-19T16:49:48Z</time>
      </trkpt>
      <trkpt lat="59.8926662" lon="17.6396235">
        <ele>25.1317</ele>
        <time>2013-05-19T16:49:49Z</time>
      </trkpt>
      <trkpt lat="59.8926641" lon="17.6397543">
        <ele>25.6123</ele>
        <time>2013-05-19T16:49:50Z</time>
      </trkpt>
      <trkpt lat="59.8926632" lon="17.6398855">
        <ele>25.6123</ele>
        <time>2013-05-19T16:49:51Z</time>
      </trkpt>
      <trkpt lat="59.8926631" lon="17.6400166">
        <ele>25.6123</ele>
        <time>2013-05-19T16:49:52Z</time>
      </trkpt>
      <trkpt lat="59.8926646" lon="17.6401565">
        <ele>25.6123</ele>
        <time>2013-05-19T16:49:53Z</time>
      </trkpt>
      <trkpt lat="59.892666" lon="17.6402901">
        <ele>26.0929</ele>
        <time>2013-05-19T16:49:54Z</time>
      </trkpt>
      <trkpt lat="59.892665" lon="17.6404254">
        <ele>26.5736</ele>
        <time>2013-05-19T16:49:55Z</time>
      </trkpt>
      <trkpt lat="59.8926631" lon="17.6405614">
        <ele>27.0543</ele>
        <time>2013-05-19T16:49:56Z</time>
      </trkpt>
      <trkpt lat="59.8926589" lon="17.6406991">
        <ele>27.5349</ele>
        <time>2013-05-19T16:49:57Z</time>
      </trkpt>
      <trkpt lat="59.8926547" lon="17.6408393">
        <ele>28.4962</ele>
        <time>2013-05-19T16:49:58Z</time>
      </trkpt>
      <trkpt lat="59.8926481" lon="17.6409821">
        <ele>28.9769</ele>
        <time>2013-05-19T16:49:59Z</time>
      </trkpt>
      <trkpt lat="59.8926388" lon="17.6411268">
        <ele>28.9769</ele>
        <time>2013-05-19T16:50:00Z</time>
      </trkpt>
      <trkpt lat="59.8926308" lon="17.6412741">
        <ele>29.4575</ele>
        <time>2013-05-19T16:50:01Z</time>
      </trkpt>
      <trkpt lat="59.8926242" lon="17.6414251">
        <ele>29.9381</ele>
        <time>2013-05-19T16:50:02Z</time>
      </trkpt>
      <trkpt lat="59.8926169" lon="17.6415735">
        <ele>30.4188</ele>
        <time>2013-05-19T16:50:03Z</time>
      </trkpt>
      <trkpt lat="59.8926074" lon="17.6417256">
        <ele>30.4188</ele>
        <time>2013-05-19T16:50:04Z</time>
      </trkpt>
      <trkpt lat="59.8925968" lon="17.6418796">
        <ele>30.4188</ele>
        <time>2013-05-19T16:50:05Z</time>
      </trkpt>
      <trkpt lat="59.8925879" lon="17.6420346">
        <ele>30.8995</ele>
        <time>2013-05-19T16:50:06Z</time>
      </trkpt>
      <trkpt lat="59.8925767" lon="17.642187">
        <ele>30.8995</ele>
        <time>2013-05-19T16:50:07Z</time>
      </trkpt>
      <trkpt lat="59.8925652" lon="17.6423392">
        <ele>31.3801</ele>
        <time>2013-05-19T16:50:08Z</time>
      </trkpt>
      <trkpt lat="59.8925533" lon="17.6424901">
        <ele>31.3801</ele>
        <time>2013-05-19T16:50:09Z</time>
      </trkpt>
      <trkpt lat="59.8925413" lon="17.6426429">
        <ele>31.3801</ele>
        <time>2013-05-19T16:50:10Z</time>
      </trkpt>
      <trkpt lat="59.8925304" lon="17.6427977">
        <ele>31.3801</ele>
        <time>2013-05-19T16:50:11Z</time>
      </trkpt>
      <trkpt lat="59.8925185" lon="17.642952">
        <ele>31.3801</ele>
        <time>2013-05-19T16:50:12Z</time>
      </trkpt>
      <trkpt lat="59.8925064" lon="17.6431043">
        <ele>31.8607</ele>
        <time>2013-05-19T16:50:13Z</time>
      </trkpt>
      <trkpt lat="59.8924926" lon="17.6432557">
        <ele>31.8607</ele>
        <time>2013-05-19T16:50:14Z</time>
      </trkpt>
      <trkpt lat="59.8924785" lon="17.6434057">
        <ele>32.3416</ele>
        <time>2013-05-19T16:50:15Z</time>
      </trkpt>
      <trkpt lat="59.8924635" lon="17.643553">
        <ele>32.8223</ele>
        <time>2013-05-19T16:50:16Z</time>
      </trkpt>
      <trkpt lat="59.892447" lon="17.6437005">
        <ele>32.8223</ele>
        <time>2013-05-19T16:50:17Z</time>
      </trkpt>
      <trkpt lat="59.8924293" lon="17.6438467">
        <ele>32.3416</ele>
        <time>2013-05-19T16:50:18Z</time>
      </trkpt>
      <trkpt lat="59.8924127" lon="17.643998">
        <ele>31.8607</ele>
        <time>2013-05-19T16:50:19Z</time>
      </trkpt>
      <trkpt lat="59.8923964" lon="17.6441525">
        <ele>31.8607</ele>
        <time>2013-05-19T16:50:20Z</time>
      </trkpt>
      <trkpt lat="59.8923809" lon="17.6443109">
        <ele>31.3801</ele>
        <time>2013-05-19T16:50:21Z</time>
      </trkpt>
      <trkpt lat="59.892364" lon="17.6444725">
        <ele>31.3801</ele>
        <time>2013-05-19T16:50:22Z</time>
      </trkpt>
      <trkpt lat="59.8923445" lon="17.6446352">
        <ele>31.3801</ele>
        <time>2013-05-19T16:50:23Z</time>
      </trkpt>
      <trkpt lat="59.8923226" lon="17.6447979">
        <ele>31.3801</ele>
        <time>2013-05-19T16:50:24Z</time>
      </trkpt>
      <trkpt lat="59.8923016" lon="17.6449606">
        <ele>30.8995</ele>
        <time>2013-05-19T16:50:25Z</time>
      </trkpt>
      <trkpt lat="59.8922806" lon="17.6451241">
        <ele>29.9381</ele>
        <time>2013-05-19T16:50:26Z</time>
      </trkpt>
      <trkpt lat="59.8922628" lon="17.6452837">
        <ele>29.9381</ele>
        <time>2013-05-19T16:50:27Z</time>
      </trkpt>
      <trkpt lat="59.8922461" lon="17.6454426">
        <ele>29.4575</ele>
        <time>2013-05-19T16:50:28Z</time>
      </trkpt>
      <trkpt lat="59.8922282" lon="17.6455997">
        <ele>29.4575</ele>
        <time>2013-05-19T16:50:29Z</time>
      </trkpt>
      <trkpt lat="59.8922104" lon="17.6457562">
        <ele>28.9769</ele>
        <time>2013-05-19T16:50:30Z</time>
      </trkpt>
      <trkpt lat="59.8921923" lon="17.6459121">
        <ele>28.4962</ele>
        <time>2013-05-19T16:50:31Z</time>
      </trkpt>
      <trkpt lat="59.8921767" lon="17.6460705">
        <ele>28.4962</ele>
        <time>2013-05-19T16:50:32Z</time>
      </trkpt>
      <trkpt lat="59.8921605" lon="17.6462278">
        <ele>28.4962</ele>
        <time>2013-05-19T16:50:33Z</time>
      </trkpt>
      <trkpt lat="59.8921433" lon="17.6463837">
        <ele>28.0155</ele>
        <time>2013-05-19T16:50:34Z</time>
      </trkpt>
      <trkpt lat="59.892126" lon="17.6465404">
        <ele>28.0155</ele>
        <time>2013-05-19T16:50:35Z</time>
      </trkpt>
      <trkpt lat="59.8921072" lon="17.6466972">
        <ele>28.0155</ele>
        <time>2013-05-19T16:50:36Z</time>
      </trkpt>
      <trkpt lat="59.892085" lon="17.646856">
        <ele>27.5349</ele>
        <time>2013-05-19T16:50:37Z</time>
      </trkpt>
      <trkpt lat="59.8920632" lon="17.6470118">
        <ele>27.5349</ele>
        <time>2013-05-19T16:50:38Z</time>
      </trkpt>
      <trkpt lat="59.8920416" lon="17.6471644">
        <ele>27.5349</ele>
        <time>2013-05-19T16:50:39Z</time>
      </trkpt>
      <trkpt lat="59.8920218" lon="17.6473199">
        <ele>27.5349</ele>
        <time>2013-05-19T16:50:40Z</time>
      </trkpt>
      <trkpt lat="59.892001" lon="17.6474753">
        <ele>28.0155</ele>
        <time>2013-05-19T16:50:41Z</time>
      </trkpt>
      <trkpt lat="59.8919806" lon="17.6476312">
        <ele>28.0155</ele>
        <time>2013-05-19T16:50:42Z</time>
      </trkpt>
      <trkpt lat="59.8919581" lon="17.6477852">
        <ele>28.4962</ele>
        <time>2013-05-19T16:50:43Z</time>
      </trkpt>
      <trkpt lat="59.8919345" lon="17.6479369">
        <ele>28.4962</ele>
        <time>2013-05-19T16:50:44Z</time>
      </trkpt>
      <trkpt lat="59.891909" lon="17.6480867">
        <ele>28.4962</ele>
        <time>2013-05-19T16:50:45Z</time>
      </trkpt>
      <trkpt lat="59.8918843" lon="17.6482358">
        <ele>28.9769</ele>
        <time>2013-05-19T16:50:46Z</time>
      </trkpt>
      <trkpt lat="59.8918577" lon="17.648384">
        <ele>28.9769</ele>
        <time>2013-05-19T16:50:47Z</time>
      </trkpt>
      <trkpt lat="59.8918322" lon="17.6485332">
        <ele>28.9769</ele>
        <time>2013-05-19T16:50:48Z</time>
      </trkpt>
      <trkpt lat="59.8918062" lon="17.6486813">
        <ele>29.4575</ele>
        <time>2013-05-19T16:50:49Z</time>
      </trkpt>
      <trkpt lat="59.8917786" lon="17.648826">
        <ele>28.9769</ele>
        <time>2013-05-19T16:50:50Z</time>
      </trkpt>
      <trkpt lat="59.8917515" lon="17.6489734">
        <ele>28.9769</ele>
        <time>2013-05-19T16:50:51Z</time>
      </trkpt>
      <trkpt lat="59.8917239" lon="17.6491216">
        <ele>28.9769</ele>
        <time>2013-05-19T16:50:52Z</time>
      </trkpt>
      <trkpt lat="59.8916948" lon="17.6492701">
        <ele>28.4962</ele>
        <time>2013-05-19T16:50:53Z</time>
      </trkpt>
      <trkpt lat="59.8916647" lon="17.6494174">
        <ele>28.4962</ele>
        <time>2013-05-19T16:50:54Z</time>
      </trkpt>
      <trkpt lat="59.8916339" lon="17.649564">
        <ele>28.4962</ele>
        <time>2013-05-19T16:50:55Z</time>
      </trkpt>
      <trkpt lat="59.8916028" lon="17.6497104">
        <ele>28.4962</ele>
        <time>2013-05-19T16:50:56Z</time>
      </trkpt>
      <trkpt lat="59.89157" lon="17.6498546">
        <ele>28.4962</ele>
        <time>2013-05-19T16:50:57Z</time>
      </trkpt>
      <trkpt lat="59.8915352" lon="17.6499953">
        <ele>28.4962</ele>
        <time>2013-05-19T16:50:58Z</time>
      </trkpt>
      <trkpt lat="59.8915006" lon="17.6501321">
        <ele>28.4962</ele>
        <time>2013-05-19T16:50:59Z</time>
      </trkpt>
      <trkpt lat="59.8914685" lon="17.6502538">
        <ele>28.4962</ele>
        <time>2013-05-19T16:51:00Z</time>
      </trkpt>
      <trkpt lat="59.8914411" lon="17.6503535">
        <ele>28.4962</ele>
        <time>2013-05-19T16:51:01Z</time>
      </trkpt>
      <trkpt lat="59.8914173" lon="17.6504344">
        <ele>28.4962</ele>
        <time>2013-05-19T16:51:02Z</time>
      </trkpt>
      <trkpt lat="59.8913979" lon="17.650497">
        <ele>28.4962</ele>
        <time>2013-05-19T16:51:03Z</time>
      </trkpt>
      <trkpt lat="59.8913841" lon="17.6505363">
        <ele>28.4962</ele>
        <time>2013-05-19T16:51:04Z</time>
      </trkpt>
      <trkpt lat="59.8913735" lon="17.6505628">
        <ele>28.9769</ele>
        <time>2013-05-19T16:51:05Z</time>
      </trkpt>
      <trkpt lat="59.8913633" lon="17.6505839">
        <ele>28.9769</ele>
        <time>2013-05-19T16:51:06Z</time>
      </trkpt>
      <trkpt lat="59.891352" lon="17.6506077">
        <ele>28.9769</ele>
        <time>2013-05-19T16:51:07Z</time>
      </trkpt>
      <trkpt lat="59.8913406" lon="17.6506371">
        <ele>28.9769</ele>
        <time>2013-05-19T16:51:08Z</time>
      </trkpt>
      <trkpt lat="59.8913276" lon="17.6506771">
        <ele>28.9769</ele>
        <time>2013-05-19T16:51:09Z</time>
      </trkpt>
      <trkpt lat="59.8913126" lon="17.6507257">
        <ele>28.9769</ele>
        <time>2013-05-19T16:51:10Z</time>
      </trkpt>
      <trkpt lat="59.8912949" lon="17.6507798">
        <ele>28.9769</ele>
        <time>2013-05-19T16:51:11Z</time>
      </trkpt>
      <trkpt lat="59.8912764" lon="17.6508346">
        <ele>28.9769</ele>
        <time>2013-05-19T16:51:12Z</time>
      </trkpt>
      <trkpt lat="59.8912593" lon="17.6508842">
        <ele>28.9769</ele>
        <time>2013-05-19T16:51:13Z</time>
      </trkpt>
      <trkpt lat="59.8912478" lon="17.6509207">
        <ele>28.9769</ele>
        <time>2013-05-19T16:51:14Z</time>
      </trkpt>
      <trkpt lat="59.8912396" lon="17.6509476">
        <ele>28.9769</ele>
        <time>2013-05-19T16:51:15Z</time>
      </trkpt>
      <trkpt lat="59.8912306" lon="17.6509733">
        <ele>28.9769</ele>
        <time>2013-05-19T16:51:16Z</time>
      </trkpt>
      <trkpt lat="59.8912214" lon="17.6509951">
        <ele>28.9769</ele>
        <time>2013-05-19T16:51:17Z</time>
      </trkpt>
      <trkpt lat="59.8912137" lon="17.6510137">
        <ele>28.9769</ele>
        <time>2013-05-19T16:51:18Z</time>
      </trkpt>
      <trkpt lat="59.8912065" lon="17.6510377">
        <ele>28.9769</ele>
        <time>2013-05-19T16:51:19Z</time>
      </trkpt>
      <trkpt lat="59.8911971" lon="17.6510704">
        <ele>29.4575</ele>
        <time>2013-05-19T16:51:20Z</time>
      </trkpt>
      <trkpt lat="59.8911852" lon="17.6511106">
        <ele>29.4575</ele>
        <time>2013-05-19T16:51:21Z</time>
      </trkpt>
      <trkpt lat="59.8911695" lon="17.6511593">
        <ele>29.4575</ele>
        <time>2013-05-19T16:51:22Z</time>
      </trkpt>
      <trkpt lat="59.8911488" lon="17.6512183">
        <ele>29.4575</ele>
        <time>2013-05-19T16:51:23Z</time>
      </trkpt>
      <trkpt lat="59.8911238" lon="17.651288">
        <ele>29.4575</ele>
        <time>2013-05-19T16:51:24Z</time>
      </trkpt>
      <trkpt lat="59.8910964" lon="17.6513673">
        <ele>29.9381</ele>
        <time>2013-05-19T16:51:25Z</time>
      </trkpt>
      <trkpt lat="59.8910667" lon="17.651454">
        <ele>29.9381</ele>
        <time>2013-05-19T16:51:26Z</time>
      </trkpt>
      <trkpt lat="59.8910355" lon="17.6515439">
        <ele>29.9381</ele>
        <time>2013-05-19T16:51:27Z</time>
      </trkpt>
      <trkpt lat="59.8910012" lon="17.651637">
        <ele>29.9381</ele>
        <time>2013-05-19T16:51:28Z</time>
      </trkpt>
      <trkpt lat="59.8909651" lon="17.6517359">
        <ele>30.4188</ele>
        <time>2013-05-19T16:51:29Z</time>
      </trkpt>
      <trkpt lat="59.8909288" lon="17.6518397">
        <ele>30.4188</ele>
        <time>2013-05-19T16:51:30Z</time>
      </trkpt>
      <trkpt lat="59.8908919" lon="17.6519489">
        <ele>30.8995</ele>
        <time>2013-05-19T16:51:31Z</time>
      </trkpt>
      <trkpt lat="59.8908529" lon="17.6520618">
        <ele>31.3801</ele>
        <time>2013-05-19T16:51:32Z</time>
      </trkpt>
      <trkpt lat="59.8908127" lon="17.6521751">
        <ele>31.3801</ele>
        <time>2013-05-19T16:51:33Z</time>
      </trkpt>
      <trkpt lat="59.8907707" lon="17.6522877">
        <ele>31.3801</ele>
        <time>2013-05-19T16:51:34Z</time>
      </trkpt>
      <trkpt lat="59.8907293" lon="17.6524043">
        <ele>31.8607</ele>
        <time>2013-05-19T16:51:35Z</time>
      </trkpt>
      <trkpt lat="59.8906862" lon="17.6525213">
        <ele>31.8607</ele>
        <time>2013-05-19T16:51:36Z</time>
      </trkpt>
      <trkpt lat="59.8906428" lon="17.6526399">
        <ele>32.3416</ele>
        <time>2013-05-19T16:51:37Z</time>
      </trkpt>
      <trkpt lat="59.8905988" lon="17.6527575">
        <ele>31.8607</ele>
        <time>2013-05-19T16:51:38Z</time>
      </trkpt>
      <trkpt lat="59.8905544" lon="17.6528788">
        <ele>31.8607</ele>
        <time>2013-05-19T16:51:39Z</time>
      </trkpt>
      <trkpt lat="59.8905096" lon="17.6530031">
        <ele>31.8607</ele>
        <time>2013-05-19T16:51:40Z</time>
      </trkpt>
      <trkpt lat="59.8904634" lon="17.6531285">
        <ele>31.8607</ele>
        <time>2013-05-19T16:51:41Z</time>
      </trkpt>
      <trkpt lat="59.8904157" lon="17.6532548">
        <ele>31.8607</ele>
        <time>2013-05-19T16:51:42Z</time>
      </trkpt>
      <trkpt lat="59.8903682" lon="17.6533838">
        <ele>31.3801</ele>
        <time>2013-05-19T16:51:43Z</time>
      </trkpt>
      <trkpt lat="59.8903205" lon="17.6535149">
        <ele>31.3801</ele>
        <time>2013-05-19T16:51:44Z</time>
      </trkpt>
      <trkpt lat="59.8902719" lon="17.6536476">
        <ele>31.3801</ele>
        <time>2013-05-19T16:51:45Z</time>
      </trkpt>
      <trkpt lat="59.8902227" lon="17.6537827">
        <ele>31.3801</ele>
        <time>2013-05-19T16:51:46Z</time>
      </trkpt>
      <trkpt lat="59.8901725" lon="17.6539189">
        <ele>31.3801</ele>
        <time>2013-05-19T16:51:47Z</time>
      </trkpt>
      <trkpt lat="59.8901218" lon="17.6540571">
        <ele>31.3801</ele>
        <time>2013-05-19T16:51:48Z</time>
      </trkpt>
      <trkpt lat="59.890071" lon="17.6541971">
        <ele>31.3801</ele>
        <time>2013-05-19T16:51:49Z</time>
      </trkpt>
      <trkpt lat="59.890021" lon="17.6543358">
        <ele>31.3801</ele>
        <time>2013-05-19T16:51:50Z</time>
      </trkpt>
      <trkpt lat="59.8899705" lon="17.6544741">
        <ele>31.3801</ele>
        <time>2013-05-19T16:51:51Z</time>
      </trkpt>
      <trkpt lat="59.8899201" lon="17.6546113">
        <ele>31.3801</ele>
        <time>2013-05-19T16:51:52Z</time>
      </trkpt>
      <trkpt lat="59.8898704" lon="17.6547484">
        <ele>31.3801</ele>
        <time>2013-05-19T16:51:53Z</time>
      </trkpt>
      <trkpt lat="59.8898197" lon="17.654885">
        <ele>31.3801</ele>
        <time>2013-05-19T16:51:54Z</time>
      </trkpt>
      <trkpt lat="59.8897689" lon="17.6550226">
        <ele>31.3801</ele>
        <time>2013-05-19T16:51:55Z</time>
      </trkpt>
      <trkpt lat="59.8897187" lon="17.6551606">
        <ele>31.3801</ele>
        <time>2013-05-19T16:51:56Z</time>
      </trkpt>
      <trkpt lat="59.8896678" lon="17.6552998">
        <ele>31.3801</ele>
        <time>2013-05-19T16:51:57Z</time>
      </trkpt>
      <trkpt lat="59.8896161" lon="17.6554403">
        <ele>31.3801</ele>
        <time>2013-05-19T16:51:58Z</time>
      </trkpt>
      <trkpt lat="59.8895642" lon="17.6555812">
        <ele>30.8995</ele>
        <time>2013-05-19T16:51:59Z</time>
      </trkpt>
      <trkpt lat="59.8895105" lon="17.6557233">
        <ele>30.8995</ele>
        <time>2013-05-19T16:52:00Z</time>
      </trkpt>
      <trkpt lat="59.8894571" lon="17.6558664">
        <ele>30.8995</ele>
        <time>2013-05-19T16:52:01Z</time>
      </trkpt>
      <trkpt lat="59.8894054" lon="17.6560106">
        <ele>31.3801</ele>
        <time>2013-05-19T16:52:02Z</time>
      </trkpt>
      <trkpt lat="59.8893539" lon="17.6561544">
        <ele>31.3801</ele>
        <time>2013-05-19T16:52:03Z</time>
      </trkpt>
      <trkpt lat="59.8893018" lon="17.6562966">
        <ele>31.3801</ele>
        <time>2013-05-19T16:52:04Z</time>
      </trkpt>
      <trkpt lat="59.8892485" lon="17.6564423">
        <ele>31.3801</ele>
        <time>2013-05-19T16:52:05Z</time>
      </trkpt>
      <trkpt lat="59.8891972" lon="17.6565877">
        <ele>31.8607</ele>
        <time>2013-05-19T16:52:06Z</time>
      </trkpt>
      <trkpt lat="59.8891454" lon="17.6567326">
        <ele>32.3416</ele>
        <time>2013-05-19T16:52:07Z</time>
      </trkpt>
      <trkpt lat="59.8890929" lon="17.6568763">
        <ele>32.3416</ele>
        <time>2013-05-19T16:52:08Z</time>
      </trkpt>
      <trkpt lat="59.8890417" lon="17.6570211">
        <ele>32.8223</ele>
        <time>2013-05-19T16:52:09Z</time>
      </trkpt>
      <trkpt lat="59.88899" lon="17.6571649">
        <ele>32.3416</ele>
        <time>2013-05-19T16:52:10Z</time>
      </trkpt>
      <trkpt lat="59.8889376" lon="17.6573072">
        <ele>32.3416</ele>
        <time>2013-05-19T16:52:11Z</time>
      </trkpt>
      <trkpt lat="59.8888857" lon="17.6574476">
        <ele>32.3416</ele>
        <time>2013-05-19T16:52:12Z</time>
      </trkpt>
      <trkpt lat="59.8888337" lon="17.657587">
        <ele>32.3416</ele>
        <time>2013-05-19T16:52:13Z</time>
      </trkpt>
      <trkpt lat="59.8887821" lon="17.6577259">
        <ele>32.3416</ele>
        <time>2013-05-19T16:52:14Z</time>
      </trkpt>
      <trkpt lat="59.8887313" lon="17.6578645">
        <ele>32.3416</ele>
        <time>2013-05-19T16:52:15Z</time>
      </trkpt>
      <trkpt lat="59.8886815" lon="17.6580022">
        <ele>32.3416</ele>
        <time>2013-05-19T16:52:16Z</time>
      </trkpt>
      <trkpt lat="59.8886317" lon="17.6581391">
        <ele>32.8223</ele>
        <time>2013-05-19T16:52:17Z</time>
      </trkpt>
      <trkpt lat="59.8885813" lon="17.6582749">
        <ele>32.3416</ele>
        <time>2013-05-19T16:52:18Z</time>
      </trkpt>
      <trkpt lat="59.8885315" lon="17.6584109">
        <ele>32.8223</ele>
        <time>2013-05-19T16:52:19Z</time>
      </trkpt>
      <trkpt lat="59.8884817" lon="17.6585464">
        <ele>32.8223</ele>
        <time>2013-05-19T16:52:20Z</time>
      </trkpt>
      <trkpt lat="59.8884314" lon="17.6586805">
        <ele>32.3416</ele>
        <time>2013-05-19T16:52:21Z</time>
      </trkpt>
      <trkpt lat="59.888382" lon="17.6588141">
        <ele>32.3416</ele>
        <time>2013-05-19T16:52:22Z</time>
      </trkpt>
      <trkpt lat="59.8883335" lon="17.6589474">
        <ele>32.3416</ele>
        <time>2013-05-19T16:52:23Z</time>
      </trkpt>
      <trkpt lat="59.8882848" lon="17.6590797">
        <ele>32.3416</ele>
        <time>2013-05-19T16:52:24Z</time>
      </trkpt>
      <trkpt lat="59.8882362" lon="17.6592097">
        <ele>32.3416</ele>
        <time>2013-05-19T16:52:25Z</time>
      </trkpt>
      <trkpt lat="59.8881884" lon="17.6593392">
        <ele>32.3416</ele>
        <time>2013-05-19T16:52:26Z</time>
      </trkpt>
      <trkpt lat="59.8881409" lon="17.6594664">
        <ele>31.8607</ele>
        <time>2013-05-19T16:52:27Z</time>
      </trkpt>
      <trkpt lat="59.8880932" lon="17.6595966">
        <ele>31.8607</ele>
        <time>2013-05-19T16:52:28Z</time>
      </trkpt>
      <trkpt lat="59.8880451" lon="17.6597294">
        <ele>31.8607</ele>
        <time>2013-05-19T16:52:29Z</time>
      </trkpt>
      <trkpt lat="59.8879952" lon="17.6598606">
        <ele>31.3801</ele>
        <time>2013-05-19T16:52:30Z</time>
      </trkpt>
      <trkpt lat="59.8879464" lon="17.6599945">
        <ele>31.3801</ele>
        <time>2013-05-19T16:52:31Z</time>
      </trkpt>
      <trkpt lat="59.8878966" lon="17.6601286">
        <ele>30.8995</ele>
        <time>2013-05-19T16:52:32Z</time>
      </trkpt>
      <trkpt lat="59.8878451" lon="17.6602625">
        <ele>30.8995</ele>
        <time>2013-05-19T16:52:33Z</time>
      </trkpt>
      <trkpt lat="59.887793" lon="17.660393">
        <ele>30.4188</ele>
        <time>2013-05-19T16:52:34Z</time>
      </trkpt>
      <trkpt lat="59.8877389" lon="17.6605161">
        <ele>30.4188</ele>
        <time>2013-05-19T16:52:35Z</time>
      </trkpt>
      <trkpt lat="59.8876829" lon="17.6606276">
        <ele>30.4188</ele>
        <time>2013-05-19T16:52:36Z</time>
      </trkpt>
      <trkpt lat="59.8876231" lon="17.6607219">
        <ele>30.4188</ele>
        <time>2013-05-19T16:52:37Z</time>
      </trkpt>
      <trkpt lat="59.8875632" lon="17.6607981">
        <ele>29.9381</ele>
        <time>2013-05-19T16:52:38Z</time>
      </trkpt>
      <trkpt lat="59.8875078" lon="17.6608598">
        <ele>29.9381</ele>
        <time>2013-05-19T16:52:39Z</time>
      </trkpt>
      <trkpt lat="59.8874567" lon="17.6609058">
        <ele>29.9381</ele>
        <time>2013-05-19T16:52:40Z</time>
      </trkpt>
      <trkpt lat="59.8874083" lon="17.6609354">
        <ele>29.9381</ele>
        <time>2013-05-19T16:52:41Z</time>
      </trkpt>
      <trkpt lat="59.8873646" lon="17.6609512">
        <ele>29.4575</ele>
        <time>2013-05-19T16:52:42Z</time>
      </trkpt>
      <trkpt lat="59.8873289" lon="17.660955">
        <ele>29.4575</ele>
        <time>2013-05-19T16:52:43Z</time>
      </trkpt>
      <trkpt lat="59.8873021" lon="17.6609513">
        <ele>29.4575</ele>
        <time>2013-05-19T16:52:44Z</time>
      </trkpt>
      <trkpt lat="59.8872846" lon="17.6609477">
        <ele>28.9769</ele>
        <time>2013-05-19T16:52:45Z</time>
      </trkpt>
      <trkpt lat="59.8872711" lon="17.6609419">
        <ele>28.9769</ele>
        <time>2013-05-19T16:52:46Z</time>
      </trkpt>
      <trkpt lat="59.8872567" lon="17.6609297">
        <ele>28.9769</ele>
        <time>2013-05-19T16:52:47Z</time>
      </trkpt>
      <trkpt lat="59.8872412" lon="17.660914">
        <ele>28.9769</ele>
        <time>2013-05-19T16:52:48Z</time>
      </trkpt>
      <trkpt lat="59.887223" lon="17.6608958">
        <ele>28.9769</ele>
        <time>2013-05-19T16:52:49Z</time>
      </trkpt>
      <trkpt lat="59.8872031" lon="17.6608717">
        <ele>28.4962</ele>
        <time>2013-05-19T16:52:50Z</time>
      </trkpt>
      <trkpt lat="59.8871769" lon="17.6608421">
        <ele>28.4962</ele>
        <time>2013-05-19T16:52:51Z</time>
      </trkpt>
      <trkpt lat="59.8871381" lon="17.6608199">
        <ele>28.4962</ele>
        <time>2013-05-19T16:52:52Z</time>
      </trkpt>
      <trkpt lat="59.8870898" lon="17.6608188">
        <ele>28.4962</ele>
        <time>2013-05-19T16:52:53Z</time>
      </trkpt>
      <trkpt lat="59.8870379" lon="17.6608541">
        <ele>28.4962</ele>
        <time>2013-05-19T16:52:54Z</time>
      </trkpt>
      <trkpt lat="59.8869929" lon="17.660931">
        <ele>28.4962</ele>
        <time>2013-05-19T16:52:55Z</time>
      </trkpt>
      <trkpt lat="59.8869648" lon="17.6610424">
        <ele>28.4962</ele>
        <time>2013-05-19T16:52:56Z</time>
      </trkpt>
      <trkpt lat="59.8869596" lon="17.6611762">
        <ele>28.4962</ele>
        <time>2013-05-19T16:52:57Z</time>
      </trkpt>
      <trkpt lat="59.8869753" lon="17.6613134">
        <ele>28.4962</ele>
        <time>2013-05-19T16:52:58Z</time>
      </trkpt>
      <trkpt lat="59.8869989" lon="17.6614492">
        <ele>28.0155</ele>
        <time>2013-05-19T16:52:59Z</time>
      </trkpt>
      <trkpt lat="59.8870147" lon="17.6615915">
        <ele>28.0155</ele>
        <time>2013-05-19T16:53:00Z</time>
      </trkpt>
      <trkpt lat="59.8870192" lon="17.6617404">
        <ele>28.0155</ele>
        <time>2013-05-19T16:53:01Z</time>
      </trkpt>
      <trkpt lat="59.8870142" lon="17.6618917">
        <ele>27.5349</ele>
        <time>2013-05-19T16:53:02Z</time>
      </trkpt>
      <trkpt lat="59.8869997" lon="17.6620427">
        <ele>27.5349</ele>
        <time>2013-05-19T16:53:03Z</time>
      </trkpt>
      <trkpt lat="59.8869779" lon="17.6621927">
        <ele>27.5349</ele>
        <time>2013-05-19T16:53:04Z</time>
      </trkpt>
      <trkpt lat="59.8869494" lon="17.6623397">
        <ele>27.5349</ele>
        <time>2013-05-19T16:53:05Z</time>
      </trkpt>
      <trkpt lat="59.8869153" lon="17.6624833">
        <ele>27.5349</ele>
        <time>2013-05-19T16:53:06Z</time>
      </trkpt>
      <trkpt lat="59.886877" lon="17.6626251">
        <ele>27.5349</ele>
        <time>2013-05-19T16:53:07Z</time>
      </trkpt>
      <trkpt lat="59.8868358" lon="17.6627645">
        <ele>27.5349</ele>
        <time>2013-05-19T16:53:08Z</time>
      </trkpt>
      <trkpt lat="59.8867905" lon="17.662898">
        <ele>27.5349</ele>
        <time>2013-05-19T16:53:09Z</time>
      </trkpt>
      <trkpt lat="59.886741" lon="17.6630248">
        <ele>27.5349</ele>
        <time>2013-05-19T16:53:10Z</time>
      </trkpt>
      <trkpt lat="59.8866873" lon="17.6631429">
        <ele>27.5349</ele>
        <time>2013-05-19T16:53:11Z</time>
      </trkpt>
      <trkpt lat="59.8866306" lon="17.6632505">
        <ele>27.5349</ele>
        <time>2013-05-19T16:53:12Z</time>
      </trkpt>
      <trkpt lat="59.8865713" lon="17.6633486">
        <ele>27.5349</ele>
        <time>2013-05-19T16:53:13Z</time>
      </trkpt>
      <trkpt lat="59.8865091" lon="17.6634387">
        <ele>27.5349</ele>
        <time>2013-05-19T16:53:14Z</time>
      </trkpt>
      <trkpt lat="59.8864432" lon="17.6635212">
        <ele>27.5349</ele>
        <time>2013-05-19T16:53:15Z</time>
      </trkpt>
      <trkpt lat="59.8863728" lon="17.6635927">
        <ele>27.5349</ele>
        <time>2013-05-19T16:53:16Z</time>
      </trkpt>
      <trkpt lat="59.8862978" lon="17.6636436">
        <ele>28.0155</ele>
        <time>2013-05-19T16:53:17Z</time>
      </trkpt>
      <trkpt lat="59.886217" lon="17.6636648">
        <ele>28.0155</ele>
        <time>2013-05-19T16:53:18Z</time>
      </trkpt>
      <trkpt lat="59.8861331" lon="17.6636554">
        <ele>28.0155</ele>
        <time>2013-05-19T16:53:19Z</time>
      </trkpt>
      <trkpt lat="59.8860486" lon="17.6636228">
        <ele>28.0155</ele>
        <time>2013-05-19T16:53:20Z</time>
      </trkpt>
      <trkpt lat="59.8859658" lon="17.6635861">
        <ele>28.0155</ele>
        <time>2013-05-19T16:53:21Z</time>
      </trkpt>
      <trkpt lat="59.8858827" lon="17.663574">
        <ele>28.0155</ele>
        <time>2013-05-19T16:53:22Z</time>
      </trkpt>
      <trkpt lat="59.8857995" lon="17.6635934">
        <ele>28.0155</ele>
        <time>2013-05-19T16:53:23Z</time>
      </trkpt>
      <trkpt lat="59.8857203" lon="17.6636472">
        <ele>28.0155</ele>
        <time>2013-05-19T16:53:24Z</time>
      </trkpt>
      <trkpt lat="59.8856502" lon="17.6637388">
        <ele>28.0155</ele>
        <time>2013-05-19T16:53:25Z</time>
      </trkpt>
      <trkpt lat="59.8855925" lon="17.6638599">
        <ele>28.0155</ele>
        <time>2013-05-19T16:53:26Z</time>
      </trkpt>
      <trkpt lat="59.8855467" lon="17.6639985">
        <ele>28.4962</ele>
        <time>2013-05-19T16:53:27Z</time>
      </trkpt>
      <trkpt lat="59.8855094" lon="17.6641456">
        <ele>28.4962</ele>
        <time>2013-05-19T16:53:28Z</time>
      </trkpt>
      <trkpt lat="59.8854752" lon="17.664295">
        <ele>28.4962</ele>
        <time>2013-05-19T16:53:29Z</time>
      </trkpt>
      <trkpt lat="59.8854406" lon="17.6644439">
        <ele>28.4962</ele>
        <time>2013-05-19T16:53:30Z</time>
      </trkpt>
      <trkpt lat="59.8854047" lon="17.6645905">
        <ele>28.4962</ele>
        <time>2013-05-19T16:53:31Z</time>
      </trkpt>
      <trkpt lat="59.8853672" lon="17.6647333">
        <ele>28.4962</ele>
        <time>2013-05-19T16:53:32Z</time>
      </trkpt>
      <trkpt lat="59.8853287" lon="17.6648728">
        <ele>28.4962</ele>
        <time>2013-05-19T16:53:33Z</time>
      </trkpt>
      <trkpt lat="59.8852906" lon="17.6650107">
        <ele>28.4962</ele>
        <time>2013-05-19T16:53:34Z</time>
      </trkpt>
      <trkpt lat="59.8852529" lon="17.6651485">
        <ele>28.9769</ele>
        <time>2013-05-19T16:53:35Z</time>
      </trkpt>
      <trkpt lat="59.8852178" lon="17.6652872">
        <ele>28.9769</ele>
        <time>2013-05-19T16:53:36Z</time>
      </trkpt>
      <trkpt lat="59.8851864" lon="17.6654279">
        <ele>28.9769</ele>
        <time>2013-05-19T16:53:37Z</time>
      </trkpt>
      <trkpt lat="59.8851601" lon="17.6655708">
        <ele>28.9769</ele>
        <time>2013-05-19T16:53:38Z</time>
      </trkpt>
      <trkpt lat="59.885139" lon="17.665715">
        <ele>28.9769</ele>
        <time>2013-05-19T16:53:39Z</time>
      </trkpt>
      <trkpt lat="59.8851206" lon="17.6658588">
        <ele>28.9769</ele>
        <time>2013-05-19T16:53:40Z</time>
      </trkpt>
      <trkpt lat="59.8851037" lon="17.666001">
        <ele>29.4575</ele>
        <time>2013-05-19T16:53:41Z</time>
      </trkpt>
      <trkpt lat="59.8850883" lon="17.6661412">
        <ele>29.4575</ele>
        <time>2013-05-19T16:53:42Z</time>
      </trkpt>
      <trkpt lat="59.8850741" lon="17.6662787">
        <ele>29.4575</ele>
        <time>2013-05-19T16:53:43Z</time>
      </trkpt>
      <trkpt lat="59.8850611" lon="17.6664154">
        <ele>29.4575</ele>
        <time>2013-05-19T16:53:44Z</time>
      </trkpt>
      <trkpt lat="59.8850495" lon="17.6665511">
        <ele>29.4575</ele>
        <time>2013-05-19T16:53:45Z</time>
      </trkpt>
      <trkpt lat="59.8850385" lon="17.6666858">
        <ele>29.4575</ele>
        <time>2013-05-19T16:53:46Z</time>
      </trkpt>
      <trkpt lat="59.885026" lon="17.666819">
        <ele>29.4575</ele>
        <time>2013-05-19T16:53:47Z</time>
      </trkpt>
      <trkpt lat="59.8850088" lon="17.6669491">
        <ele>29.4575</ele>
        <time>2013-05-19T16:53:48Z</time>
      </trkpt>
      <trkpt lat="59.8849799" lon="17.6670677">
        <ele>29.4575</ele>
        <time>2013-05-19T16:53:49Z</time>
      </trkpt>
      <trkpt lat="59.8849391" lon="17.6671736">
        <ele>29.4575</ele>
        <time>2013-05-19T16:53:50Z</time>
      </trkpt>
      <trkpt lat="59.8848909" lon="17.6672663">
        <ele>29.4575</ele>
        <time>2013-05-19T16:53:51Z</time>
      </trkpt>
      <trkpt lat="59.8848458" lon="17.6673629">
        <ele>29.4575</ele>
        <time>2013-05-19T16:53:52Z</time>
      </trkpt>
      <trkpt lat="59.8848122" lon="17.6674792">
        <ele>29.4575</ele>
        <time>2013-05-19T16:53:53Z</time>
      </trkpt>
      <trkpt lat="59.8847969" lon="17.6676095">
        <ele>29.4575</ele>
        <time>2013-05-19T16:53:54Z</time>
      </trkpt>
      <trkpt lat="59.8847987" lon="17.6677455">
        <ele>29.4575</ele>
        <time>2013-05-19T16:53:55Z</time>
      </trkpt>
      <trkpt lat="59.8848064" lon="17.6678827">
        <ele>29.4575</ele>
        <time>2013-05-19T16:53:56Z</time>
      </trkpt>
      <trkpt lat="59.8848086" lon="17.6680229">
        <ele>29.4575</ele>
        <time>2013-05-19T16:53:57Z</time>
      </trkpt>
      <trkpt lat="59.8847997" lon="17.6681643">
        <ele>29.4575</ele>
        <time>2013-05-19T16:53:58Z</time>
      </trkpt>
      <trkpt lat="59.8847787" lon="17.6683016">
        <ele>29.4575</ele>
        <time>2013-05-19T16:53:59Z</time>
      </trkpt>
      <trkpt lat="59.8847492" lon="17.6684287">
        <ele>29.4575</ele>
        <time>2013-05-19T16:54:00Z</time>
      </trkpt>
      <trkpt lat="59.8847163" lon="17.6685543">
        <ele>29.4575</ele>
        <time>2013-05-19T16:54:01Z</time>
      </trkpt>
      <trkpt lat="59.8846809" lon="17.668677">
        <ele>29.9381</ele>
        <time>2013-05-19T16:54:02Z</time>
      </trkpt>
      <trkpt lat="59.8846436" lon="17.668796">
        <ele>29.9381</ele>
        <time>2013-05-19T16:54:03Z</time>
      </trkpt>
      <trkpt lat="59.8846054" lon="17.6689122">
        <ele>29.9381</ele>
        <time>2013-05-19T16:54:04Z</time>
      </trkpt>
      <trkpt lat="59.8845656" lon="17.6690257">
        <ele>29.9381</ele>
        <time>2013-05-19T16:54:05Z</time>
      </trkpt>
      <trkpt lat="59.8845249" lon="17.669137">
        <ele>29.9381</ele>
        <time>2013-05-19T16:54:06Z</time>
      </trkpt>
      <trkpt lat="59.8844831" lon="17.6692463">
        <ele>29.9381</ele>
        <time>2013-05-19T16:54:07Z</time>
      </trkpt>
      <trkpt lat="59.8844403" lon="17.6693551">
        <ele>29.9381</ele>
        <time>2013-05-19T16:54:08Z</time>
      </trkpt>
      <trkpt lat="59.8843963" lon="17.6694629">
        <ele>29.4575</ele>
        <time>2013-05-19T16:54:09Z</time>
      </trkpt>
      <trkpt lat="59.8843516" lon="17.669569">
        <ele>29.9381</ele>
        <time>2013-05-19T16:54:10Z</time>
      </trkpt>
      <trkpt lat="59.8843061" lon="17.6696735">
        <ele>29.9381</ele>
        <time>2013-05-19T16:54:11Z</time>
      </trkpt>
      <trkpt lat="59.8842604" lon="17.6697762">
        <ele>29.9381</ele>
        <time>2013-05-19T16:54:12Z</time>
      </trkpt>
      <trkpt lat="59.8842148" lon="17.6698772">
        <ele>29.9381</ele>
        <time>2013-05-19T16:54:13Z</time>
      </trkpt>
      <trkpt lat="59.8841682" lon="17.6699757">
        <ele>30.4188</ele>
        <time>2013-05-19T16:54:14Z</time>
      </trkpt>
      <trkpt lat="59.8841215" lon="17.670072">
        <ele>30.4188</ele>
        <time>2013-05-19T16:54:15Z</time>
      </trkpt>
      <trkpt lat="59.8840739" lon="17.670163">
        <ele>30.4188</ele>
        <time>2013-05-19T16:54:16Z</time>
      </trkpt>
      <trkpt lat="59.8840227" lon="17.6702409">
        <ele>30.4188</ele>
        <time>2013-05-19T16:54:17Z</time>
      </trkpt>
      <trkpt lat="59.8839644" lon="17.6702937">
        <ele>30.4188</ele>
        <time>2013-05-19T16:54:18Z</time>
      </trkpt>
      <trkpt lat="59.8839018" lon="17.6703233">
        <ele>30.4188</ele>
        <time>2013-05-19T16:54:19Z</time>
      </trkpt>
      <trkpt lat="59.8838382" lon="17.6703466">
        <ele>30.8995</ele>
        <time>2013-05-19T16:54:20Z</time>
      </trkpt>
      <trkpt lat="59.8837766" lon="17.6703844">
        <ele>30.8995</ele>
        <time>2013-05-19T16:54:21Z</time>
      </trkpt>
      <trkpt lat="59.8837207" lon="17.6704496">
        <ele>30.8995</ele>
        <time>2013-05-19T16:54:22Z</time>
      </trkpt>
      <trkpt lat="59.8836762" lon="17.6705433">
        <ele>30.8995</ele>
        <time>2013-05-19T16:54:23Z</time>
      </trkpt>
      <trkpt lat="59.8836436" lon="17.6706553">
        <ele>30.8995</ele>
        <time>2013-05-19T16:54:24Z</time>
      </trkpt>
      <trkpt lat="59.8836186" lon="17.6707744">
        <ele>30.8995</ele>
        <time>2013-05-19T16:54:25Z</time>
      </trkpt>
      <trkpt lat="59.8835933" lon="17.6708932">
        <ele>30.8995</ele>
        <time>2013-05-19T16:54:26Z</time>
      </trkpt>
      <trkpt lat="59.8835612" lon="17.6710034">
        <ele>30.8995</ele>
        <time>2013-05-19T16:54:27Z</time>
      </trkpt>
      <trkpt lat="59.8835202" lon="17.6711017">
        <ele>30.8995</ele>
        <time>2013-05-19T16:54:28Z</time>
      </trkpt>
      <trkpt lat="59.8834724" lon="17.6711881">
        <ele>30.8995</ele>
        <time>2013-05-19T16:54:29Z</time>
      </trkpt>
      <trkpt lat="59.8834202" lon="17.6712676">
        <ele>30.8995</ele>
        <time>2013-05-19T16:54:30Z</time>
      </trkpt>
      <trkpt lat="59.8833667" lon="17.6713468">
        <ele>31.3801</ele>
        <time>2013-05-19T16:54:31Z</time>
      </trkpt>
      <trkpt lat="59.8833118" lon="17.6714246">
        <ele>31.3801</ele>
        <time>2013-05-19T16:54:32Z</time>
      </trkpt>
      <trkpt lat="59.8832554" lon="17.6714997">
        <ele>31.3801</ele>
        <time>2013-05-19T16:54:33Z</time>
      </trkpt>
      <trkpt lat="59.8831985" lon="17.671572">
        <ele>31.3801</ele>
        <time>2013-05-19T16:54:34Z</time>
      </trkpt>
      <trkpt lat="59.8831414" lon="17.6716435">
        <ele>31.3801</ele>
        <time>2013-05-19T16:54:35Z</time>
      </trkpt>
      <trkpt lat="59.8830838" lon="17.6717121">
        <ele>31.3801</ele>
        <time>2013-05-19T16:54:36Z</time>
      </trkpt>
      <trkpt lat="59.8830235" lon="17.6717785">
        <ele>31.3801</ele>
        <time>2013-05-19T16:54:37Z</time>
      </trkpt>
      <trkpt lat="59.8829616" lon="17.6718401">
        <ele>31.3801</ele>
        <time>2013-05-19T16:54:38Z</time>
      </trkpt>
      <trkpt lat="59.8828981" lon="17.6718991">
        <ele>31.3801</ele>
        <time>2013-05-19T16:54:39Z</time>
      </trkpt>
      <trkpt lat="59.8828342" lon="17.6719558">
        <ele>31.3801</ele>
        <time>2013-05-19T16:54:40Z</time>
      </trkpt>
      <trkpt lat="59.8827695" lon="17.6720108">
        <ele>31.3801</ele>
        <time>2013-05-19T16:54:41Z</time>
      </trkpt>
      <trkpt lat="59.8827046" lon="17.6720648">
        <ele>31.8607</ele>
        <time>2013-05-19T16:54:42Z</time>
      </trkpt>
      <trkpt lat="59.8826394" lon="17.6721182">
        <ele>31.8607</ele>
        <time>2013-05-19T16:54:43Z</time>
      </trkpt>
      <trkpt lat="59.8825739" lon="17.6721721">
        <ele>31.3801</ele>
        <time>2013-05-19T16:54:44Z</time>
      </trkpt>
      <trkpt lat="59.8825084" lon="17.6722271">
        <ele>31.8607</ele>
        <time>2013-05-19T16:54:45Z</time>
      </trkpt>
      <trkpt lat="59.8824423" lon="17.6722824">
        <ele>31.3801</ele>
        <time>2013-05-19T16:54:46Z</time>
      </trkpt>
      <trkpt lat="59.8823767" lon="17.6723383">
        <ele>31.8607</ele>
        <time>2013-05-19T16:54:47Z</time>
      </trkpt>
      <trkpt lat="59.8823106" lon="17.6723944">
        <ele>31.8607</ele>
        <time>2013-05-19T16:54:48Z</time>
      </trkpt>
      <trkpt lat="59.8822438" lon="17.6724505">
        <ele>31.3801</ele>
        <time>2013-05-19T16:54:49Z</time>
      </trkpt>
      <trkpt lat="59.8821758" lon="17.6725056">
        <ele>31.3801</ele>
        <time>2013-05-19T16:54:50Z</time>
      </trkpt>
      <trkpt lat="59.8821076" lon="17.6725612">
        <ele>31.8607</ele>
        <time>2013-05-19T16:54:51Z</time>
      </trkpt>
      <trkpt lat="59.8820393" lon="17.6726191">
        <ele>31.8607</ele>
        <time>2013-05-19T16:54:52Z</time>
      </trkpt>
      <trkpt lat="59.8819717" lon="17.6726774">
        <ele>31.8607</ele>
        <time>2013-05-19T16:54:53Z</time>
      </trkpt>
      <trkpt lat="59.8819049" lon="17.6727337">
        <ele>31.8607</ele>
        <time>2013-05-19T16:54:54Z</time>
      </trkpt>
      <trkpt lat="59.8818386" lon="17.6727889">
        <ele>31.8607</ele>
        <time>2013-05-19T16:54:55Z</time>
      </trkpt>
      <trkpt lat="59.8817724" lon="17.6728434">
        <ele>31.8607</ele>
        <time>2013-05-19T16:54:56Z</time>
      </trkpt>
      <trkpt lat="59.8817061" lon="17.6728987">
        <ele>31.8607</ele>
        <time>2013-05-19T16:54:57Z</time>
      </trkpt>
      <trkpt lat="59.8816398" lon="17.6729553">
        <ele>31.8607</ele>
        <time>2013-05-19T16:54:58Z</time>
      </trkpt>
      <trkpt lat="59.8815735" lon="17.6730123">
        <ele>31.8607</ele>
        <time>2013-05-19T16:54:59Z</time>
      </trkpt>
      <trkpt lat="59.881507" lon="17.6730687">
        <ele>31.8607</ele>
        <time>2013-05-19T16:55:00Z</time>
      </trkpt>
      <trkpt lat="59.8814399" lon="17.6731226">
        <ele>31.8607</ele>
        <time>2013-05-19T16:55:01Z</time>
      </trkpt>
      <trkpt lat="59.8813724" lon="17.6731768">
        <ele>31.8607</ele>
        <time>2013-05-19T16:55:02Z</time>
      </trkpt>
      <trkpt lat="59.8813052" lon="17.6732348">
        <ele>31.8607</ele>
        <time>2013-05-19T16:55:03Z</time>
      </trkpt>
      <trkpt lat="59.8812379" lon="17.6732945">
        <ele>31.8607</ele>
        <time>2013-05-19T16:55:04Z</time>
      </trkpt>
      <trkpt lat="59.88117" lon="17.6733537">
        <ele>31.8607</ele>
        <time>2013-05-19T16:55:05Z</time>
      </trkpt>
      <trkpt lat="59.8811011" lon="17.6734122">
        <ele>31.8607</ele>
        <time>2013-05-19T16:55:06Z</time>
      </trkpt>
      <trkpt lat="59.8810315" lon="17.6734722">
        <ele>31.8607</ele>
        <time>2013-05-19T16:55:07Z</time>
      </trkpt>
      <trkpt lat="59.8809612" lon="17.6735348">
        <ele>31.8607</ele>
        <time>2013-05-19T16:55:08Z</time>
      </trkpt>
      <trkpt lat="59.8808909" lon="17.6735981">
        <ele>32.3416</ele>
        <time>2013-05-19T16:55:09Z</time>
      </trkpt>
      <trkpt lat="59.8808206" lon="17.6736616">
        <ele>32.3416</ele>
        <time>2013-05-19T16:55:10Z</time>
      </trkpt>
      <trkpt lat="59.8807498" lon="17.6737249">
        <ele>32.3416</ele>
        <time>2013-05-19T16:55:11Z</time>
      </trkpt>
      <trkpt lat="59.8806789" lon="17.6737907">
        <ele>32.3416</ele>
        <time>2013-05-19T16:55:12Z</time>
      </trkpt>
      <trkpt lat="59.8806085" lon="17.6738588">
        <ele>32.3416</ele>
        <time>2013-05-19T16:55:13Z</time>
      </trkpt>
      <trkpt lat="59.880539" lon="17.6739271">
        <ele>32.3416</ele>
        <time>2013-05-19T16:55:14Z</time>
      </trkpt>
      <trkpt lat="59.8804701" lon="17.6739952">
        <ele>32.3416</ele>
        <time>2013-05-19T16:55:15Z</time>
      </trkpt>
      <trkpt lat="59.8804019" lon="17.674061">
        <ele>32.3416</ele>
        <time>2013-05-19T16:55:16Z</time>
      </trkpt>
      <trkpt lat="59.8803345" lon="17.6741255">
        <ele>32.3416</ele>
        <time>2013-05-19T16:55:17Z</time>
      </trkpt>
      <trkpt lat="59.8802685" lon="17.6741926">
        <ele>32.3416</ele>
        <time>2013-05-19T16:55:18Z</time>
      </trkpt>
      <trkpt lat="59.8802026" lon="17.6742594">
        <ele>32.3416</ele>
        <time>2013-05-19T16:55:19Z</time>
      </trkpt>
      <trkpt lat="59.8801361" lon="17.6743259">
        <ele>32.3416</ele>
        <time>2013-05-19T16:55:20Z</time>
      </trkpt>
      <trkpt lat="59.8800688" lon="17.6743926">
        <ele>32.3416</ele>
        <time>2013-05-19T16:55:21Z</time>
      </trkpt>
      <trkpt lat="59.8800011" lon="17.6744599">
        <ele>32.3416</ele>
        <time>2013-05-19T16:55:22Z</time>
      </trkpt>
      <trkpt lat="59.8799344" lon="17.674529">
        <ele>32.3416</ele>
        <time>2013-05-19T16:55:23Z</time>
      </trkpt>
      <trkpt lat="59.8798682" lon="17.6745982">
        <ele>32.3416</ele>
        <time>2013-05-19T16:55:24Z</time>
      </trkpt>
      <trkpt lat="59.8798015" lon="17.6746652">
        <ele>32.3416</ele>
        <time>2013-05-19T16:55:25Z</time>
      </trkpt>
      <trkpt lat="59.8797342" lon="17.6747315">
        <ele>32.3416</ele>
        <time>2013-05-19T16:55:26Z</time>
      </trkpt>
      <trkpt lat="59.879666" lon="17.6747959">
        <ele>32.3416</ele>
        <time>2013-05-19T16:55:27Z</time>
      </trkpt>
      <trkpt lat="59.8795959" lon="17.6748575">
        <ele>32.3416</ele>
        <time>2013-05-19T16:55:28Z</time>
      </trkpt>
      <trkpt lat="59.8795257" lon="17.6749189">
        <ele>32.3416</ele>
        <time>2013-05-19T16:55:29Z</time>
      </trkpt>
      <trkpt lat="59.8794559" lon="17.6749829">
        <ele>32.3416</ele>
        <time>2013-05-19T16:55:30Z</time>
      </trkpt>
      <trkpt lat="59.8793878" lon="17.6750501">
        <ele>32.3416</ele>
        <time>2013-05-19T16:55:31Z</time>
      </trkpt>
      <trkpt lat="59.8793198" lon="17.6751175">
        <ele>32.3416</ele>
        <time>2013-05-19T16:55:32Z</time>
      </trkpt>
      <trkpt lat="59.8792498" lon="17.6751724">
        <ele>32.3416</ele>
        <time>2013-05-19T16:55:33Z</time>
      </trkpt>
      <trkpt lat="59.8791756" lon="17.6751919">
        <ele>32.3416</ele>
        <time>2013-05-19T16:55:34Z</time>
      </trkpt>
      <trkpt lat="59.8791093" lon="17.6751146">
        <ele>31.8607</ele>
        <time>2013-05-19T16:55:35Z</time>
      </trkpt>
      <trkpt lat="59.8790538" lon="17.675017">
        <ele>31.3801</ele>
        <time>2013-05-19T16:55:36Z</time>
      </trkpt>
      <trkpt lat="59.8790027" lon="17.6748952">
        <ele>31.3801</ele>
        <time>2013-05-19T16:55:37Z</time>
      </trkpt>
      <trkpt lat="59.8789574" lon="17.6747656">
        <ele>30.8995</ele>
        <time>2013-05-19T16:55:38Z</time>
      </trkpt>
      <trkpt lat="59.8789026" lon="17.6746536">
        <ele>30.8995</ele>
        <time>2013-05-19T16:55:39Z</time>
      </trkpt>
      <trkpt lat="59.878832" lon="17.6745943">
        <ele>30.4188</ele>
        <time>2013-05-19T16:55:40Z</time>
      </trkpt>
      <trkpt lat="59.8787601" lon="17.6745928">
        <ele>30.4188</ele>
        <time>2013-05-19T16:55:41Z</time>
      </trkpt>
      <trkpt lat="59.8786924" lon="17.674618">
        <ele>30.4188</ele>
        <time>2013-05-19T16:55:42Z</time>
      </trkpt>
      <trkpt lat="59.8786198" lon="17.6746695">
        <ele>30.4188</ele>
        <time>2013-05-19T16:55:43Z</time>
      </trkpt>
      <trkpt lat="59.8785524" lon="17.6747046">
        <ele>29.9381</ele>
        <time>2013-05-19T16:55:44Z</time>
      </trkpt>
      <trkpt lat="59.8784847" lon="17.6747299">
        <ele>29.4575</ele>
        <time>2013-05-19T16:55:45Z</time>
      </trkpt>
      <trkpt lat="59.8784162" lon="17.6747481">
        <ele>29.4575</ele>
        <time>2013-05-19T16:55:46Z</time>
      </trkpt>
      <trkpt lat="59.8783499" lon="17.6747875">
        <ele>28.4962</ele>
        <time>2013-05-19T16:55:47Z</time>
      </trkpt>
      <trkpt lat="59.8782888" lon="17.6748448">
        <ele>28.4962</ele>
        <time>2013-05-19T16:55:48Z</time>
      </trkpt>
      <trkpt lat="59.8782282" lon="17.6749113">
        <ele>28.0155</ele>
        <time>2013-05-19T16:55:49Z</time>
      </trkpt>
      <trkpt lat="59.8781684" lon="17.6749802">
        <ele>28.0155</ele>
        <time>2013-05-19T16:55:50Z</time>
      </trkpt>
      <trkpt lat="59.8781085" lon="17.6750511">
        <ele>28.0155</ele>
        <time>2013-05-19T16:55:51Z</time>
      </trkpt>
      <trkpt lat="59.8780508" lon="17.6751199">
        <ele>28.0155</ele>
        <time>2013-05-19T16:55:52Z</time>
      </trkpt>
      <trkpt lat="59.8779915" lon="17.6751844">
        <ele>27.5349</ele>
        <time>2013-05-19T16:55:53Z</time>
      </trkpt>
      <trkpt lat="59.8779313" lon="17.6752485">
        <ele>27.5349</ele>
        <time>2013-05-19T16:55:54Z</time>
      </trkpt>
      <trkpt lat="59.8778732" lon="17.6753049">
        <ele>27.5349</ele>
        <time>2013-05-19T16:55:55Z</time>
      </trkpt>
      <trkpt lat="59.8778167" lon="17.6753671">
        <ele>27.5349</ele>
        <time>2013-05-19T16:55:56Z</time>
      </trkpt>
      <trkpt lat="59.8777646" lon="17.6753676">
        <ele>28.0155</ele>
        <time>2013-05-19T16:55:57Z</time>
      </trkpt>
      <trkpt lat="59.877707" lon="17.6754027">
        <ele>28.4962</ele>
        <time>2013-05-19T16:55:58Z</time>
      </trkpt>
      <trkpt lat="59.8776414" lon="17.675509">
        <ele>28.4962</ele>
        <time>2013-05-19T16:55:59Z</time>
      </trkpt>
      <trkpt lat="59.8775758" lon="17.6755633">
        <ele>28.4962</ele>
        <time>2013-05-19T16:56:00Z</time>
      </trkpt>
      <trkpt lat="59.8775092" lon="17.6756038">
        <ele>28.4962</ele>
        <time>2013-05-19T16:56:01Z</time>
      </trkpt>
      <trkpt lat="59.8774416" lon="17.6756458">
        <ele>28.4962</ele>
        <time>2013-05-19T16:56:02Z</time>
      </trkpt>
      <trkpt lat="59.8773728" lon="17.6756909">
        <ele>28.0155</ele>
        <time>2013-05-19T16:56:03Z</time>
      </trkpt>
      <trkpt lat="59.8773016" lon="17.6757068">
        <ele>27.5349</ele>
        <time>2013-05-19T16:56:04Z</time>
      </trkpt>
      <trkpt lat="59.8772289" lon="17.6757587">
        <ele>28.0155</ele>
        <time>2013-05-19T16:56:05Z</time>
      </trkpt>
      <trkpt lat="59.8771609" lon="17.6758416">
        <ele>28.0155</ele>
        <time>2013-05-19T16:56:06Z</time>
      </trkpt>
      <trkpt lat="59.877097" lon="17.6759212">
        <ele>27.5349</ele>
        <time>2013-05-19T16:56:07Z</time>
      </trkpt>
      <trkpt lat="59.877031" lon="17.6759659">
        <ele>27.5349</ele>
        <time>2013-05-19T16:56:08Z</time>
      </trkpt>
      <trkpt lat="59.8769669" lon="17.6759906">
        <ele>27.0543</ele>
        <time>2013-05-19T16:56:09Z</time>
      </trkpt>
      <trkpt lat="59.8769022" lon="17.6759963">
        <ele>27.0543</ele>
        <time>2013-05-19T16:56:10Z</time>
      </trkpt>
      <trkpt lat="59.876832" lon="17.6760183">
        <ele>28.4962</ele>
        <time>2013-05-19T16:56:11Z</time>
      </trkpt>
      <trkpt lat="59.8767587" lon="17.6760099">
        <ele>28.9769</ele>
        <time>2013-05-19T16:56:12Z</time>
      </trkpt>
      <trkpt lat="59.8766856" lon="17.6759831">
        <ele>28.0155</ele>
        <time>2013-05-19T16:56:13Z</time>
      </trkpt>
      <trkpt lat="59.8766124" lon="17.6759711">
        <ele>28.0155</ele>
        <time>2013-05-19T16:56:14Z</time>
      </trkpt>
      <trkpt lat="59.8765389" lon="17.6759562">
        <ele>28.4962</ele>
        <time>2013-05-19T16:56:15Z</time>
      </trkpt>
      <trkpt lat="59.8764675" lon="17.6759525">
        <ele>28.9769</ele>
        <time>2013-05-19T16:56:16Z</time>
      </trkpt>
      <trkpt lat="59.8763984" lon="17.6759561">
        <ele>29.4575</ele>
        <time>2013-05-19T16:56:17Z</time>
      </trkpt>
      <trkpt lat="59.8763339" lon="17.6759509">
        <ele>29.9381</ele>
        <time>2013-05-19T16:56:18Z</time>
      </trkpt>
      <trkpt lat="59.8762754" lon="17.6759139">
        <ele>29.4575</ele>
        <time>2013-05-19T16:56:19Z</time>
      </trkpt>
      <trkpt lat="59.876226" lon="17.6758215">
        <ele>28.4962</ele>
        <time>2013-05-19T16:56:20Z</time>
      </trkpt>
      <trkpt lat="59.8761777" lon="17.675723">
        <ele>27.5349</ele>
        <time>2013-05-19T16:56:21Z</time>
      </trkpt>
      <trkpt lat="59.8761353" lon="17.6756116">
        <ele>26.5736</ele>
        <time>2013-05-19T16:56:22Z</time>
      </trkpt>
      <trkpt lat="59.8760992" lon="17.6754942">
        <ele>26.5736</ele>
        <time>2013-05-19T16:56:23Z</time>
      </trkpt>
      <trkpt lat="59.8760728" lon="17.6753614">
        <ele>26.0929</ele>
        <time>2013-05-19T16:56:24Z</time>
      </trkpt>
      <trkpt lat="59.8760516" lon="17.6752278">
        <ele>25.6123</ele>
        <time>2013-05-19T16:56:25Z</time>
      </trkpt>
      <trkpt lat="59.8760309" lon="17.6750978">
        <ele>25.6123</ele>
        <time>2013-05-19T16:56:26Z</time>
      </trkpt>
      <trkpt lat="59.8760111" lon="17.6749652">
        <ele>25.1317</ele>
        <time>2013-05-19T16:56:27Z</time>
      </trkpt>
      <trkpt lat="59.8759912" lon="17.6748386">
        <ele>25.1317</ele>
        <time>2013-05-19T16:56:28Z</time>
      </trkpt>
      <trkpt lat="59.8759681" lon="17.674716">
        <ele>25.6123</ele>
        <time>2013-05-19T16:56:29Z</time>
      </trkpt>
      <trkpt lat="59.8759443" lon="17.6745993">
        <ele>25.6123</ele>
        <time>2013-05-19T16:56:30Z</time>
      </trkpt>
      <trkpt lat="59.875919" lon="17.6744901">
        <ele>25.6123</ele>
        <time>2013-05-19T16:56:31Z</time>
      </trkpt>
      <trkpt lat="59.8758903" lon="17.6743907">
        <ele>25.6123</ele>
        <time>2013-05-19T16:56:32Z</time>
      </trkpt>
      <trkpt lat="59.875863" lon="17.6743004">
        <ele>26.0929</ele>
        <time>2013-05-19T16:56:33Z</time>
      </trkpt>
      <trkpt lat="59.8758374" lon="17.6742311">
        <ele>26.0929</ele>
        <time>2013-05-19T16:56:34Z</time>
      </trkpt>
      <trkpt lat="59.875806" lon="17.6742015">
        <ele>26.0929</ele>
        <time>2013-05-19T16:56:35Z</time>
      </trkpt>
      <trkpt lat="59.8757726" lon="17.6742141">
        <ele>25.6123</ele>
        <time>2013-05-19T16:56:36Z</time>
      </trkpt>
      <trkpt lat="59.8757464" lon="17.6742555">
        <ele>26.0929</ele>
        <time>2013-05-19T16:56:37Z</time>
      </trkpt>
      <trkpt lat="59.8757188" lon="17.6743171">
        <ele>25.6123</ele>
        <time>2013-05-19T16:56:38Z</time>
      </trkpt>
      <trkpt lat="59.8756903" lon="17.6743929">
        <ele>25.1317</ele>
        <time>2013-05-19T16:56:39Z</time>
      </trkpt>
      <trkpt lat="59.8756585" lon="17.6744803">
        <ele>25.1317</ele>
        <time>2013-05-19T16:56:40Z</time>
      </trkpt>
      <trkpt lat="59.8756222" lon="17.6745749">
        <ele>24.651</ele>
        <time>2013-05-19T16:56:41Z</time>
      </trkpt>
      <trkpt lat="59.8755797" lon="17.6746726">
        <ele>24.1703</ele>
        <time>2013-05-19T16:56:42Z</time>
      </trkpt>
      <trkpt lat="59.8755278" lon="17.6747661">
        <ele>23.6896</ele>
        <time>2013-05-19T16:56:43Z</time>
      </trkpt>
      <trkpt lat="59.8754663" lon="17.674851">
        <ele>23.209</ele>
        <time>2013-05-19T16:56:44Z</time>
      </trkpt>
      <trkpt lat="59.8753973" lon="17.6749271">
        <ele>22.7283</ele>
        <time>2013-05-19T16:56:45Z</time>
      </trkpt>
      <trkpt lat="59.8753222" lon="17.6749955">
        <ele>22.2476</ele>
        <time>2013-05-19T16:56:46Z</time>
      </trkpt>
      <trkpt lat="59.8752456" lon="17.6750607">
        <ele>21.767</ele>
        <time>2013-05-19T16:56:47Z</time>
      </trkpt>
      <trkpt lat="59.875169" lon="17.6751259">
        <ele>21.2864</ele>
        <time>2013-05-19T16:56:48Z</time>
      </trkpt>
      <trkpt lat="59.8749963" lon="17.6752413">
        <ele>20.8057</ele>
        <time>2013-05-19T16:56:51Z</time>
      </trkpt>
      <trkpt lat="59.8749177" lon="17.675309">
        <ele>20.8057</ele>
        <time>2013-05-19T16:56:52Z</time>
      </trkpt>
      <trkpt lat="59.874845" lon="17.6753801">
        <ele>21.2864</ele>
        <time>2013-05-19T16:56:53Z</time>
      </trkpt>
      <trkpt lat="59.8747799" lon="17.6754522">
        <ele>21.767</ele>
        <time>2013-05-19T16:56:54Z</time>
      </trkpt>
      <trkpt lat="59.8747238" lon="17.6755252">
        <ele>22.2476</ele>
        <time>2013-05-19T16:56:55Z</time>
      </trkpt>
      <trkpt lat="59.8746705" lon="17.6756">
        <ele>22.2476</ele>
        <time>2013-05-19T16:56:56Z</time>
      </trkpt>
      <trkpt lat="59.8745911" lon="17.6756356">
        <ele>22.7283</ele>
        <time>2013-05-19T16:56:57Z</time>
      </trkpt>
      <trkpt lat="59.8745162" lon="17.6756955">
        <ele>23.209</ele>
        <time>2013-05-19T16:56:58Z</time>
      </trkpt>
      <trkpt lat="59.8744809" lon="17.6758012">
        <ele>23.209</ele>
        <time>2013-05-19T16:56:59Z</time>
      </trkpt>
      <trkpt lat="59.8744477" lon="17.6759036">
        <ele>23.6896</ele>
        <time>2013-05-19T16:57:00Z</time>
      </trkpt>
      <trkpt lat="59.8744258" lon="17.6760177">
        <ele>23.6896</ele>
        <time>2013-05-19T16:57:01Z</time>
      </trkpt>
      <trkpt lat="59.8744042" lon="17.6761346">
        <ele>23.6896</ele>
        <time>2013-05-19T16:57:02Z</time>
      </trkpt>
      <trkpt lat="59.8743676" lon="17.676237">
        <ele>23.6896</ele>
        <time>2013-05-19T16:57:03Z</time>
      </trkpt>
      <trkpt lat="59.8743274" lon="17.6763226">
        <ele>23.6896</ele>
        <time>2013-05-19T16:57:04Z</time>
      </trkpt>
      <trkpt lat="59.8742846" lon="17.6763939">
        <ele>24.1703</ele>
        <time>2013-05-19T16:57:05Z</time>
      </trkpt>
      <trkpt lat="59.874231" lon="17.6764367">
        <ele>24.1703</ele>
        <time>2013-05-19T16:57:06Z</time>
      </trkpt>
      <trkpt lat="59.8741727" lon="17.676472">
        <ele>24.1703</ele>
        <time>2013-05-19T16:57:07Z</time>
      </trkpt>
      <trkpt lat="59.8741151" lon="17.676506">
        <ele>24.1703</ele>
        <time>2013-05-19T16:57:08Z</time>
      </trkpt>
      <trkpt lat="59.8740618" lon="17.6765436">
        <ele>24.1703</ele>
        <time>2013-05-19T16:57:09Z</time>
      </trkpt>
      <trkpt lat="59.8740132" lon="17.6765951">
        <ele>24.651</ele>
        <time>2013-05-19T16:57:10Z</time>
      </trkpt>
      <trkpt lat="59.873983" lon="17.6766702">
        <ele>24.651</ele>
        <time>2013-05-19T16:57:11Z</time>
      </trkpt>
      <trkpt lat="59.8739509" lon="17.6767445">
        <ele>24.651</ele>
        <time>2013-05-19T16:57:12Z</time>
      </trkpt>
      <trkpt lat="59.8739235" lon="17.6768258">
        <ele>24.651</ele>
        <time>2013-05-19T16:57:13Z</time>
      </trkpt>
      <trkpt lat="59.8739002" lon="17.6769228">
        <ele>24.651</ele>
        <time>2013-05-19T16:57:14Z</time>
      </trkpt>
      <trkpt lat="59.87388" lon="17.6770294">
        <ele>24.651</ele>
        <time>2013-05-19T16:57:15Z</time>
      </trkpt>
      <trkpt lat="59.8738665" lon="17.6771365">
        <ele>24.651</ele>
        <time>2013-05-19T16:57:16Z</time>
      </trkpt>
      <trkpt lat="59.8738515" lon="17.6772517">
        <ele>24.651</ele>
        <time>2013-05-19T16:57:17Z</time>
      </trkpt>
      <trkpt lat="59.8738354" lon="17.6773712">
        <ele>24.651</ele>
        <time>2013-05-19T16:57:18Z</time>
      </trkpt>
      <trkpt lat="59.8738185" lon="17.6774926">
        <ele>24.651</ele>
        <time>2013-05-19T16:57:19Z</time>
      </trkpt>
      <trkpt lat="59.8738011" lon="17.6776164">
        <ele>24.1703</ele>
        <time>2013-05-19T16:57:20Z</time>
      </trkpt>
      <trkpt lat="59.8737832" lon="17.6777427">
        <ele>24.1703</ele>
        <time>2013-05-19T16:57:21Z</time>
      </trkpt>
      <trkpt lat="59.8737666" lon="17.6778712">
        <ele>24.1703</ele>
        <time>2013-05-19T16:57:22Z</time>
      </trkpt>
      <trkpt lat="59.8737479" lon="17.6779977">
        <ele>24.1703</ele>
        <time>2013-05-19T16:57:23Z</time>
      </trkpt>
      <trkpt lat="59.8737149" lon="17.6781113">
        <ele>24.651</ele>
        <time>2013-05-19T16:57:24Z</time>
      </trkpt>
      <trkpt lat="59.8736605" lon="17.6781825">
        <ele>24.1703</ele>
        <time>2013-05-19T16:57:25Z</time>
      </trkpt>
      <trkpt lat="59.8735921" lon="17.6782166">
        <ele>23.6896</ele>
        <time>2013-05-19T16:57:26Z</time>
      </trkpt>
      <trkpt lat="59.8735195" lon="17.6782354">
        <ele>23.6896</ele>
        <time>2013-05-19T16:57:27Z</time>
      </trkpt>
      <trkpt lat="59.8734454" lon="17.6782524">
        <ele>23.209</ele>
        <time>2013-05-19T16:57:28Z</time>
      </trkpt>
      <trkpt lat="59.8733704" lon="17.6782695">
        <ele>23.209</ele>
        <time>2013-05-19T16:57:29Z</time>
      </trkpt>
      <trkpt lat="59.8732937" lon="17.6782861">
        <ele>23.209</ele>
        <time>2013-05-19T16:57:30Z</time>
      </trkpt>
      <trkpt lat="59.8732162" lon="17.678304">
        <ele>23.209</ele>
        <time>2013-05-19T16:57:31Z</time>
      </trkpt>
      <trkpt lat="59.8731378" lon="17.6783239">
        <ele>23.209</ele>
        <time>2013-05-19T16:57:32Z</time>
      </trkpt>
      <trkpt lat="59.8730584" lon="17.678343">
        <ele>22.7283</ele>
        <time>2013-05-19T16:57:33Z</time>
      </trkpt>
      <trkpt lat="59.8729772" lon="17.6783607">
        <ele>22.7283</ele>
        <time>2013-05-19T16:57:34Z</time>
      </trkpt>
      <trkpt lat="59.8728944" lon="17.6783795">
        <ele>22.7283</ele>
        <time>2013-05-19T16:57:35Z</time>
      </trkpt>
      <trkpt lat="59.8728109" lon="17.6783996">
        <ele>22.7283</ele>
        <time>2013-05-19T16:57:36Z</time>
      </trkpt>
      <trkpt lat="59.8727276" lon="17.6784213">
        <ele>22.2476</ele>
        <time>2013-05-19T16:57:37Z</time>
      </trkpt>
      <trkpt lat="59.8726439" lon="17.6784418">
        <ele>22.2476</ele>
        <time>2013-05-19T16:57:38Z</time>
      </trkpt>
      <trkpt lat="59.872559" lon="17.6784594">
        <ele>22.2476</ele>
        <time>2013-05-19T16:57:39Z</time>
      </trkpt>
      <trkpt lat="59.8724729" lon="17.6784782">
        <ele>22.2476</ele>
        <time>2013-05-19T16:57:40Z</time>
      </trkpt>
      <trkpt lat="59.8723852" lon="17.6785035">
        <ele>22.2476</ele>
        <time>2013-05-19T16:57:41Z</time>
      </trkpt>
      <trkpt lat="59.8722969" lon="17.6785344">
        <ele>21.767</ele>
        <time>2013-05-19T16:57:42Z</time>
      </trkpt>
      <trkpt lat="59.8722074" lon="17.6785647">
        <ele>21.767</ele>
        <time>2013-05-19T16:57:43Z</time>
      </trkpt>
      <trkpt lat="59.8721175" lon="17.6785921">
        <ele>21.767</ele>
        <time>2013-05-19T16:57:44Z</time>
      </trkpt>
      <trkpt lat="59.8720267" lon="17.6786198">
        <ele>21.2864</ele>
        <time>2013-05-19T16:57:45Z</time>
      </trkpt>
      <trkpt lat="59.8719354" lon="17.6786467">
        <ele>21.2864</ele>
        <time>2013-05-19T16:57:46Z</time>
      </trkpt>
      <trkpt lat="59.8718437" lon="17.6786711">
        <ele>21.2864</ele>
        <time>2013-05-19T16:57:47Z</time>
      </trkpt>
      <trkpt lat="59.871752" lon="17.6786952">
        <ele>20.8057</ele>
        <time>2013-05-19T16:57:48Z</time>
      </trkpt>
      <trkpt lat="59.8716602" lon="17.6787193">
        <ele>20.8057</ele>
        <time>2013-05-19T16:57:49Z</time>
      </trkpt>
      <trkpt lat="59.8715679" lon="17.678742">
        <ele>20.8057</ele>
        <time>2013-05-19T16:57:50Z</time>
      </trkpt>
      <trkpt lat="59.8714747" lon="17.6787646">
        <ele>20.325</ele>
        <time>2013-05-19T16:57:51Z</time>
      </trkpt>
      <trkpt lat="59.8713817" lon="17.6787859">
        <ele>20.325</ele>
        <time>2013-05-19T16:57:52Z</time>
      </trkpt>
      <trkpt lat="59.871287" lon="17.6788057">
        <ele>20.325</ele>
        <time>2013-05-19T16:57:53Z</time>
      </trkpt>
      <trkpt lat="59.8711909" lon="17.6788269">
        <ele>20.325</ele>
        <time>2013-05-19T16:57:54Z</time>
      </trkpt>
      <trkpt lat="59.8710942" lon="17.6788518">
        <ele>19.8444</ele>
        <time>2013-05-19T16:57:55Z</time>
      </trkpt>
      <trkpt lat="59.8709987" lon="17.6788792">
        <ele>19.8444</ele>
        <time>2013-05-19T16:57:56Z</time>
      </trkpt>
      <trkpt lat="59.8709052" lon="17.6789067">
        <ele>19.8444</ele>
        <time>2013-05-19T16:57:57Z</time>
      </trkpt>
      <trkpt lat="59.8708127" lon="17.6789334">
        <ele>19.3638</ele>
        <time>2013-05-19T16:57:58Z</time>
      </trkpt>
      <trkpt lat="59.8707212" lon="17.6789598">
        <ele>19.3638</ele>
        <time>2013-05-19T16:57:59Z</time>
      </trkpt>
      <trkpt lat="59.8706315" lon="17.6789859">
        <ele>19.3638</ele>
        <time>2013-05-19T16:58:00Z</time>
      </trkpt>
      <trkpt lat="59.8705431" lon="17.6790144">
        <ele>18.8831</ele>
        <time>2013-05-19T16:58:01Z</time>
      </trkpt>
      <trkpt lat="59.8704565" lon="17.6790429">
        <ele>18.8831</ele>
        <time>2013-05-19T16:58:02Z</time>
      </trkpt>
      <trkpt lat="59.8703701" lon="17.6790714">
        <ele>18.8831</ele>
        <time>2013-05-19T16:58:03Z</time>
      </trkpt>
      <trkpt lat="59.870283" lon="17.6791016">
        <ele>18.4023</ele>
        <time>2013-05-19T16:58:04Z</time>
      </trkpt>
      <trkpt lat="59.8701963" lon="17.6791335">
        <ele>18.4023</ele>
        <time>2013-05-19T16:58:05Z</time>
      </trkpt>
      <trkpt lat="59.8701094" lon="17.6791662">
        <ele>18.4023</ele>
        <time>2013-05-19T16:58:06Z</time>
      </trkpt>
      <trkpt lat="59.870024" lon="17.6792019">
        <ele>17.9218</ele>
        <time>2013-05-19T16:58:07Z</time>
      </trkpt>
      <trkpt lat="59.8699406" lon="17.6792408">
        <ele>17.9218</ele>
        <time>2013-05-19T16:58:08Z</time>
      </trkpt>
      <trkpt lat="59.8698593" lon="17.67928">
        <ele>17.9218</ele>
        <time>2013-05-19T16:58:09Z</time>
      </trkpt>
      <trkpt lat="59.8697805" lon="17.6793159">
        <ele>17.9218</ele>
        <time>2013-05-19T16:58:10Z</time>
      </trkpt>
      <trkpt lat="59.8697058" lon="17.679347">
        <ele>17.9218</ele>
        <time>2013-05-19T16:58:11Z</time>
      </trkpt>
      <trkpt lat="59.8696389" lon="17.6793738">
        <ele>17.9218</ele>
        <time>2013-05-19T16:58:12Z</time>
      </trkpt>
      <trkpt lat="59.8695814" lon="17.6793983">
        <ele>17.9218</ele>
        <time>2013-05-19T16:58:13Z</time>
      </trkpt>
      <trkpt lat="59.8695312" lon="17.679418">
        <ele>17.9218</ele>
        <time>2013-05-19T16:58:14Z</time>
      </trkpt>
      <trkpt lat="59.8694853" lon="17.6794378">
        <ele>17.9218</ele>
        <time>2013-05-19T16:58:15Z</time>
      </trkpt>
      <trkpt lat="59.8694417" lon="17.6794672">
        <ele>17.9218</ele>
        <time>2013-05-19T16:58:16Z</time>
      </trkpt>
      <trkpt lat="59.8693975" lon="17.6795017">
        <ele>17.9218</ele>
        <time>2013-05-19T16:58:17Z</time>
      </trkpt>
      <trkpt lat="59.8693505" lon="17.6795284">
        <ele>17.9218</ele>
        <time>2013-05-19T16:58:18Z</time>
      </trkpt>
      <trkpt lat="59.8693004" lon="17.679545">
        <ele>17.9218</ele>
        <time>2013-05-19T16:58:19Z</time>
      </trkpt>
      <trkpt lat="59.8692472" lon="17.6795599">
        <ele>17.9218</ele>
        <time>2013-05-19T16:58:20Z</time>
      </trkpt>
      <trkpt lat="59.869192" lon="17.679574">
        <ele>17.9218</ele>
        <time>2013-05-19T16:58:21Z</time>
      </trkpt>
      <trkpt lat="59.869135" lon="17.6795779">
        <ele>17.4412</ele>
        <time>2013-05-19T16:58:22Z</time>
      </trkpt>
      <trkpt lat="59.8690756" lon="17.6795578">
        <ele>17.4412</ele>
        <time>2013-05-19T16:58:23Z</time>
      </trkpt>
      <trkpt lat="59.869018" lon="17.6795105">
        <ele>16.9604</ele>
        <time>2013-05-19T16:58:24Z</time>
      </trkpt>
      <trkpt lat="59.8689615" lon="17.6794453">
        <ele>16.4797</ele>
        <time>2013-05-19T16:58:25Z</time>
      </trkpt>
      <trkpt lat="59.8689024" lon="17.6793818">
        <ele>16.4797</ele>
        <time>2013-05-19T16:58:26Z</time>
      </trkpt>
      <trkpt lat="59.8688372" lon="17.6793386">
        <ele>15.999</ele>
        <time>2013-05-19T16:58:27Z</time>
      </trkpt>
      <trkpt lat="59.8687661" lon="17.6793266">
        <ele>15.5184</ele>
        <time>2013-05-19T16:58:28Z</time>
      </trkpt>
      <trkpt lat="59.8686922" lon="17.6793511">
        <ele>15.0377</ele>
        <time>2013-05-19T16:58:29Z</time>
      </trkpt>
      <trkpt lat="59.8686211" lon="17.6794081">
        <ele>15.0377</ele>
        <time>2013-05-19T16:58:30Z</time>
      </trkpt>
      <trkpt lat="59.868557" lon="17.679487">
        <ele>15.0377</ele>
        <time>2013-05-19T16:58:31Z</time>
      </trkpt>
      <trkpt lat="59.8685008" lon="17.6795776">
        <ele>15.5184</ele>
        <time>2013-05-19T16:58:32Z</time>
      </trkpt>
      <trkpt lat="59.8684471" lon="17.67967">
        <ele>15.999</ele>
        <time>2013-05-19T16:58:33Z</time>
      </trkpt>
      <trkpt lat="59.8683937" lon="17.6797573">
        <ele>15.999</ele>
        <time>2013-05-19T16:58:34Z</time>
      </trkpt>
      <trkpt lat="59.8683383" lon="17.679837">
        <ele>15.999</ele>
        <time>2013-05-19T16:58:35Z</time>
      </trkpt>
      <trkpt lat="59.8682798" lon="17.6799096">
        <ele>15.999</ele>
        <time>2013-05-19T16:58:36Z</time>
      </trkpt>
      <trkpt lat="59.868218" lon="17.6799746">
        <ele>15.999</ele>
        <time>2013-05-19T16:58:37Z</time>
      </trkpt>
      <trkpt lat="59.8681511" lon="17.6800285">
        <ele>16.4797</ele>
        <time>2013-05-19T16:58:38Z</time>
      </trkpt>
      <trkpt lat="59.8680823" lon="17.6800741">
        <ele>16.4797</ele>
        <time>2013-05-19T16:58:39Z</time>
      </trkpt>
      <trkpt lat="59.868011" lon="17.6801142">
        <ele>16.4797</ele>
        <time>2013-05-19T16:58:40Z</time>
      </trkpt>
      <trkpt lat="59.8679353" lon="17.6801509">
        <ele>16.4797</ele>
        <time>2013-05-19T16:58:41Z</time>
      </trkpt>
      <trkpt lat="59.8678586" lon="17.6801861">
        <ele>16.4797</ele>
        <time>2013-05-19T16:58:42Z</time>
      </trkpt>
      <trkpt lat="59.867779" lon="17.6802224">
        <ele>16.4797</ele>
        <time>2013-05-19T16:58:43Z</time>
      </trkpt>
      <trkpt lat="59.8676982" lon="17.6802611">
        <ele>16.4797</ele>
        <time>2013-05-19T16:58:44Z</time>
      </trkpt>
      <trkpt lat="59.8676184" lon="17.6802986">
        <ele>16.4797</ele>
        <time>2013-05-19T16:58:45Z</time>
      </trkpt>
      <trkpt lat="59.8675385" lon="17.6803334">
        <ele>15.999</ele>
        <time>2013-05-19T16:58:46Z</time>
      </trkpt>
      <trkpt lat="59.867457" lon="17.680364">
        <ele>15.999</ele>
        <time>2013-05-19T16:58:47Z</time>
      </trkpt>
      <trkpt lat="59.8673749" lon="17.6803968">
        <ele>15.999</ele>
        <time>2013-05-19T16:58:48Z</time>
      </trkpt>
      <trkpt lat="59.8672928" lon="17.6804351">
        <ele>15.999</ele>
        <time>2013-05-19T16:58:49Z</time>
      </trkpt>
      <trkpt lat="59.8672097" lon="17.6804733">
        <ele>15.999</ele>
        <time>2013-05-19T16:58:50Z</time>
      </trkpt>
      <trkpt lat="59.8671258" lon="17.6805098">
        <ele>15.999</ele>
        <time>2013-05-19T16:58:51Z</time>
      </trkpt>
      <trkpt lat="59.8670414" lon="17.6805453">
        <ele>15.999</ele>
        <time>2013-05-19T16:58:52Z</time>
      </trkpt>
      <trkpt lat="59.8669568" lon="17.6805814">
        <ele>15.5184</ele>
        <time>2013-05-19T16:58:53Z</time>
      </trkpt>
      <trkpt lat="59.8668722" lon="17.6806185">
        <ele>15.5184</ele>
        <time>2013-05-19T16:58:54Z</time>
      </trkpt>
      <trkpt lat="59.8667879" lon="17.6806565">
        <ele>15.5184</ele>
        <time>2013-05-19T16:58:55Z</time>
      </trkpt>
      <trkpt lat="59.8667036" lon="17.6806954">
        <ele>15.5184</ele>
        <time>2013-05-19T16:58:56Z</time>
      </trkpt>
      <trkpt lat="59.8666187" lon="17.6807345">
        <ele>15.0377</ele>
        <time>2013-05-19T16:58:57Z</time>
      </trkpt>
      <trkpt lat="59.8665344" lon="17.6807745">
        <ele>15.0377</ele>
        <time>2013-05-19T16:58:58Z</time>
      </trkpt>
      <trkpt lat="59.8664507" lon="17.6808161">
        <ele>15.0377</ele>
        <time>2013-05-19T16:58:59Z</time>
      </trkpt>
      <trkpt lat="59.8663688" lon="17.6808583">
        <ele>15.0377</ele>
        <time>2013-05-19T16:59:00Z</time>
      </trkpt>
      <trkpt lat="59.8662879" lon="17.6808999">
        <ele>15.0377</ele>
        <time>2013-05-19T16:59:01Z</time>
      </trkpt>
      <trkpt lat="59.8662086" lon="17.680941">
        <ele>15.0377</ele>
        <time>2013-05-19T16:59:02Z</time>
      </trkpt>
      <trkpt lat="59.86613" lon="17.6809832">
        <ele>14.557</ele>
        <time>2013-05-19T16:59:03Z</time>
      </trkpt>
      <trkpt lat="59.8660546" lon="17.6810272">
        <ele>14.0764</ele>
        <time>2013-05-19T16:59:04Z</time>
      </trkpt>
      <trkpt lat="59.865982" lon="17.681071">
        <ele>14.0764</ele>
        <time>2013-05-19T16:59:05Z</time>
      </trkpt>
      <trkpt lat="59.865914" lon="17.6811127">
        <ele>14.0764</ele>
        <time>2013-05-19T16:59:06Z</time>
      </trkpt>
      <trkpt lat="59.8658535" lon="17.681149">
        <ele>14.0764</ele>
        <time>2013-05-19T16:59:07Z</time>
      </trkpt>
      <trkpt lat="59.8658025" lon="17.6811828">
        <ele>14.557</ele>
        <time>2013-05-19T16:59:08Z</time>
      </trkpt>
      <trkpt lat="59.8657618" lon="17.6812133">
        <ele>14.557</ele>
        <time>2013-05-19T16:59:09Z</time>
      </trkpt>
      <trkpt lat="59.8657322" lon="17.6812361">
        <ele>14.557</ele>
        <time>2013-05-19T16:59:10Z</time>
      </trkpt>
      <trkpt lat="59.8657103" lon="17.6812507">
        <ele>14.557</ele>
        <time>2013-05-19T16:59:11Z</time>
      </trkpt>
      <trkpt lat="59.8656939" lon="17.6812636">
        <ele>14.557</ele>
        <time>2013-05-19T16:59:12Z</time>
      </trkpt>
      <trkpt lat="59.8656833" lon="17.6812751">
        <ele>15.0377</ele>
        <time>2013-05-19T16:59:13Z</time>
      </trkpt>
      <trkpt lat="59.8656806" lon="17.6812798">
        <ele>15.0377</ele>
        <time>2013-05-19T16:59:14Z</time>
      </trkpt>
      <trkpt lat="59.8656794" lon="17.6812821">
        <ele>15.0377</ele>
        <time>2013-05-19T16:59:15Z</time>
      </trkpt>
      <trkpt lat="59.8656539" lon="17.6812997">
        <ele>15.0377</ele>
        <time>2013-05-19T16:59:18Z</time>
      </trkpt>
      <trkpt lat="59.8656295" lon="17.6813175">
        <ele>15.0377</ele>
        <time>2013-05-19T16:59:19Z</time>
      </trkpt>
      <trkpt lat="59.8655975" lon="17.681333">
        <ele>15.0377</ele>
        <time>2013-05-19T16:59:20Z</time>
      </trkpt>
      <trkpt lat="59.8655566" lon="17.6813362">
        <ele>15.0377</ele>
        <time>2013-05-19T16:59:21Z</time>
      </trkpt>
      <trkpt lat="59.8655095" lon="17.6813325">
        <ele>15.0377</ele>
        <time>2013-05-19T16:59:22Z</time>
      </trkpt>
      <trkpt lat="59.8654575" lon="17.6813334">
        <ele>15.0377</ele>
        <time>2013-05-19T16:59:23Z</time>
      </trkpt>
      <trkpt lat="59.8654026" lon="17.6813438">
        <ele>14.557</ele>
        <time>2013-05-19T16:59:24Z</time>
      </trkpt>
      <trkpt lat="59.8653449" lon="17.6813553">
        <ele>14.557</ele>
        <time>2013-05-19T16:59:25Z</time>
      </trkpt>
      <trkpt lat="59.8652821" lon="17.6813521">
        <ele>14.0764</ele>
        <time>2013-05-19T16:59:26Z</time>
      </trkpt>
      <trkpt lat="59.8652166" lon="17.681332">
        <ele>14.0764</ele>
        <time>2013-05-19T16:59:27Z</time>
      </trkpt>
      <trkpt lat="59.8651515" lon="17.6813066">
        <ele>13.5958</ele>
        <time>2013-05-19T16:59:28Z</time>
      </trkpt>
      <trkpt lat="59.8650846" lon="17.6812936">
        <ele>13.5958</ele>
        <time>2013-05-19T16:59:29Z</time>
      </trkpt>
      <trkpt lat="59.8650179" lon="17.6813081">
        <ele>13.5958</ele>
        <time>2013-05-19T16:59:30Z</time>
      </trkpt>
      <trkpt lat="59.8649537" lon="17.6813569">
        <ele>14.0764</ele>
        <time>2013-05-19T16:59:31Z</time>
      </trkpt>
      <trkpt lat="59.864896" lon="17.6814359">
        <ele>14.0764</ele>
        <time>2013-05-19T16:59:32Z</time>
      </trkpt>
      <trkpt lat="59.8648438" lon="17.6815338">
        <ele>14.0764</ele>
        <time>2013-05-19T16:59:33Z</time>
      </trkpt>
      <trkpt lat="59.8647932" lon="17.6816367">
        <ele>14.0764</ele>
        <time>2013-05-19T16:59:34Z</time>
      </trkpt>
      <trkpt lat="59.8647397" lon="17.6817334">
        <ele>14.0764</ele>
        <time>2013-05-19T16:59:35Z</time>
      </trkpt>
      <trkpt lat="59.8646796" lon="17.6818158">
        <ele>14.0764</ele>
        <time>2013-05-19T16:59:36Z</time>
      </trkpt>
      <trkpt lat="59.8646143" lon="17.6818832">
        <ele>14.0764</ele>
        <time>2013-05-19T16:59:37Z</time>
      </trkpt>
      <trkpt lat="59.8645459" lon="17.681941">
        <ele>14.557</ele>
        <time>2013-05-19T16:59:38Z</time>
      </trkpt>
      <trkpt lat="59.864475" lon="17.6819941">
        <ele>14.557</ele>
        <time>2013-05-19T16:59:39Z</time>
      </trkpt>
      <trkpt lat="59.8644035" lon="17.682047">
        <ele>14.557</ele>
        <time>2013-05-19T16:59:40Z</time>
      </trkpt>
      <trkpt lat="59.864332" lon="17.6821006">
        <ele>14.557</ele>
        <time>2013-05-19T16:59:41Z</time>
      </trkpt>
      <trkpt lat="59.8642594" lon="17.6821531">
        <ele>14.557</ele>
        <time>2013-05-19T16:59:42Z</time>
      </trkpt>
      <trkpt lat="59.8641869" lon="17.6822038">
        <ele>15.0377</ele>
        <time>2013-05-19T16:59:43Z</time>
      </trkpt>
      <trkpt lat="59.8641161" lon="17.6822547">
        <ele>15.0377</ele>
        <time>2013-05-19T16:59:44Z</time>
      </trkpt>
      <trkpt lat="59.8640449" lon="17.6823064">
        <ele>15.0377</ele>
        <time>2013-05-19T16:59:45Z</time>
      </trkpt>
      <trkpt lat="59.8639734" lon="17.6823572">
        <ele>15.5184</ele>
        <time>2013-05-19T16:59:46Z</time>
      </trkpt>
      <trkpt lat="59.8639042" lon="17.6824063">
        <ele>15.999</ele>
        <time>2013-05-19T16:59:47Z</time>
      </trkpt>
      <trkpt lat="59.8638379" lon="17.6824566">
        <ele>15.999</ele>
        <time>2013-05-19T16:59:48Z</time>
      </trkpt>
      <trkpt lat="59.8637751" lon="17.6825083">
        <ele>16.4797</ele>
        <time>2013-05-19T16:59:49Z</time>
      </trkpt>
      <trkpt lat="59.8637159" lon="17.6825602">
        <ele>16.4797</ele>
        <time>2013-05-19T16:59:50Z</time>
      </trkpt>
      <trkpt lat="59.8636615" lon="17.6826099">
        <ele>15.999</ele>
        <time>2013-05-19T16:59:51Z</time>
      </trkpt>
      <trkpt lat="59.8636067" lon="17.6826489">
        <ele>15.999</ele>
        <time>2013-05-19T16:59:52Z</time>
      </trkpt>
      <trkpt lat="59.8635502" lon="17.6826726">
        <ele>16.4797</ele>
        <time>2013-05-19T16:59:53Z</time>
      </trkpt>
      <trkpt lat="59.8634942" lon="17.6826918">
        <ele>16.4797</ele>
        <time>2013-05-19T16:59:54Z</time>
      </trkpt>
      <trkpt lat="59.8634388" lon="17.6827243">
        <ele>16.4797</ele>
        <time>2013-05-19T16:59:55Z</time>
      </trkpt>
      <trkpt lat="59.8633844" lon="17.6827669">
        <ele>16.4797</ele>
        <time>2013-05-19T16:59:56Z</time>
      </trkpt>
      <trkpt lat="59.8633297" lon="17.6828094">
        <ele>16.4797</ele>
        <time>2013-05-19T16:59:57Z</time>
      </trkpt>
      <trkpt lat="59.8632748" lon="17.6828462">
        <ele>16.4797</ele>
        <time>2013-05-19T16:59:58Z</time>
      </trkpt>
      <trkpt lat="59.8632159" lon="17.6828805">
        <ele>15.999</ele>
        <time>2013-05-19T16:59:59Z</time>
      </trkpt>
      <trkpt lat="59.8631549" lon="17.6829221">
        <ele>15.999</ele>
        <time>2013-05-19T17:00:00Z</time>
      </trkpt>
      <trkpt lat="59.8630904" lon="17.6829687">
        <ele>15.5184</ele>
        <time>2013-05-19T17:00:01Z</time>
      </trkpt>
      <trkpt lat="59.8630261" lon="17.6830155">
        <ele>15.0377</ele>
        <time>2013-05-19T17:00:02Z</time>
      </trkpt>
      <trkpt lat="59.8629608" lon="17.6830647">
        <ele>15.0377</ele>
        <time>2013-05-19T17:00:03Z</time>
      </trkpt>
      <trkpt lat="59.8628954" lon="17.6831165">
        <ele>15.0377</ele>
        <time>2013-05-19T17:00:04Z</time>
      </trkpt>
      <trkpt lat="59.8628294" lon="17.6831668">
        <ele>15.5184</ele>
        <time>2013-05-19T17:00:05Z</time>
      </trkpt>
      <trkpt lat="59.8627629" lon="17.6832138">
        <ele>15.5184</ele>
        <time>2013-05-19T17:00:06Z</time>
      </trkpt>
      <trkpt lat="59.8626961" lon="17.6832621">
        <ele>15.5184</ele>
        <time>2013-05-19T17:00:07Z</time>
      </trkpt>
      <trkpt lat="59.862629" lon="17.6833103">
        <ele>15.5184</ele>
        <time>2013-05-19T17:00:08Z</time>
      </trkpt>
      <trkpt lat="59.8625621" lon="17.6833579">
        <ele>15.5184</ele>
        <time>2013-05-19T17:00:09Z</time>
      </trkpt>
      <trkpt lat="59.8624946" lon="17.6834044">
        <ele>15.5184</ele>
        <time>2013-05-19T17:00:10Z</time>
      </trkpt>
      <trkpt lat="59.8624247" lon="17.6834522">
        <ele>15.5184</ele>
        <time>2013-05-19T17:00:11Z</time>
      </trkpt>
      <trkpt lat="59.8623539" lon="17.6835023">
        <ele>15.0377</ele>
        <time>2013-05-19T17:00:12Z</time>
      </trkpt>
      <trkpt lat="59.8622823" lon="17.6835543">
        <ele>15.0377</ele>
        <time>2013-05-19T17:00:13Z</time>
      </trkpt>
      <trkpt lat="59.8622108" lon="17.6836071">
        <ele>15.0377</ele>
        <time>2013-05-19T17:00:14Z</time>
      </trkpt>
      <trkpt lat="59.8621394" lon="17.6836577">
        <ele>15.0377</ele>
        <time>2013-05-19T17:00:15Z</time>
      </trkpt>
      <trkpt lat="59.8620671" lon="17.6837055">
        <ele>14.557</ele>
        <time>2013-05-19T17:00:16Z</time>
      </trkpt>
      <trkpt lat="59.8619982" lon="17.6837549">
        <ele>14.557</ele>
        <time>2013-05-19T17:00:17Z</time>
      </trkpt>
      <trkpt lat="59.8619275" lon="17.6838056">
        <ele>14.557</ele>
        <time>2013-05-19T17:00:18Z</time>
      </trkpt>
      <trkpt lat="59.8618558" lon="17.6838566">
        <ele>14.557</ele>
        <time>2013-05-19T17:00:19Z</time>
      </trkpt>
      <trkpt lat="59.861785" lon="17.683905">
        <ele>14.557</ele>
        <time>2013-05-19T17:00:20Z</time>
      </trkpt>
      <trkpt lat="59.861715" lon="17.6839552">
        <ele>14.0764</ele>
        <time>2013-05-19T17:00:21Z</time>
      </trkpt>
      <trkpt lat="59.8616436" lon="17.6840066">
        <ele>14.0764</ele>
        <time>2013-05-19T17:00:22Z</time>
      </trkpt>
      <trkpt lat="59.8615732" lon="17.6840553">
        <ele>14.0764</ele>
        <time>2013-05-19T17:00:23Z</time>
      </trkpt>
      <trkpt lat="59.8615021" lon="17.6841049">
        <ele>14.0764</ele>
        <time>2013-05-19T17:00:24Z</time>
      </trkpt>
      <trkpt lat="59.8614318" lon="17.6841572">
        <ele>14.0764</ele>
        <time>2013-05-19T17:00:25Z</time>
      </trkpt>
      <trkpt lat="59.8613629" lon="17.684211">
        <ele>14.0764</ele>
        <time>2013-05-19T17:00:26Z</time>
      </trkpt>
      <trkpt lat="59.8612925" lon="17.6842651">
        <ele>14.0764</ele>
        <time>2013-05-19T17:00:27Z</time>
      </trkpt>
      <trkpt lat="59.8612214" lon="17.6843202">
        <ele>14.0764</ele>
        <time>2013-05-19T17:00:28Z</time>
      </trkpt>
      <trkpt lat="59.8611513" lon="17.6843785">
        <ele>14.0764</ele>
        <time>2013-05-19T17:00:29Z</time>
      </trkpt>
      <trkpt lat="59.8610839" lon="17.6844399">
        <ele>14.0764</ele>
        <time>2013-05-19T17:00:30Z</time>
      </trkpt>
      <trkpt lat="59.8610168" lon="17.6845017">
        <ele>13.5958</ele>
        <time>2013-05-19T17:00:31Z</time>
      </trkpt>
      <trkpt lat="59.8609483" lon="17.684564">
        <ele>13.5958</ele>
        <time>2013-05-19T17:00:32Z</time>
      </trkpt>
      <trkpt lat="59.860879" lon="17.6846291">
        <ele>13.1151</ele>
        <time>2013-05-19T17:00:33Z</time>
      </trkpt>
      <trkpt lat="59.8608085" lon="17.684698">
        <ele>13.1151</ele>
        <time>2013-05-19T17:00:34Z</time>
      </trkpt>
      <trkpt lat="59.8607406" lon="17.68477">
        <ele>12.6344</ele>
        <time>2013-05-19T17:00:35Z</time>
      </trkpt>
      <trkpt lat="59.8606723" lon="17.6848424">
        <ele>12.1538</ele>
        <time>2013-05-19T17:00:36Z</time>
      </trkpt>
      <trkpt lat="59.8606041" lon="17.6849164">
        <ele>11.6732</ele>
        <time>2013-05-19T17:00:37Z</time>
      </trkpt>
      <trkpt lat="59.8605366" lon="17.6849918">
        <ele>11.1925</ele>
        <time>2013-05-19T17:00:38Z</time>
      </trkpt>
      <trkpt lat="59.8604709" lon="17.6850669">
        <ele>10.7118</ele>
        <time>2013-05-19T17:00:39Z</time>
      </trkpt>
      <trkpt lat="59.8604079" lon="17.6851347">
        <ele>10.2312</ele>
        <time>2013-05-19T17:00:40Z</time>
      </trkpt>
      <trkpt lat="59.8603512" lon="17.6852021">
        <ele>10.2312</ele>
        <time>2013-05-19T17:00:41Z</time>
      </trkpt>
      <trkpt lat="59.8602986" lon="17.6852661">
        <ele>9.75061</ele>
        <time>2013-05-19T17:00:42Z</time>
      </trkpt>
      <trkpt lat="59.8602362" lon="17.6853493">
        <ele>9.75061</ele>
        <time>2013-05-19T17:00:43Z</time>
      </trkpt>
      <trkpt lat="59.8601735" lon="17.685431">
        <ele>9.75061</ele>
        <time>2013-05-19T17:00:44Z</time>
      </trkpt>
      <trkpt lat="59.8601119" lon="17.6855213">
        <ele>10.2312</ele>
        <time>2013-05-19T17:00:45Z</time>
      </trkpt>
      <trkpt lat="59.8600542" lon="17.6855958">
        <ele>10.2312</ele>
        <time>2013-05-19T17:00:46Z</time>
      </trkpt>
      <trkpt lat="59.8600023" lon="17.6856703">
        <ele>9.75061</ele>
        <time>2013-05-19T17:00:47Z</time>
      </trkpt>
      <trkpt lat="59.8599528" lon="17.6857325">
        <ele>9.2699</ele>
        <time>2013-05-19T17:00:48Z</time>
      </trkpt>
      <trkpt lat="59.8598993" lon="17.6857822">
        <ele>8.30859</ele>
        <time>2013-05-19T17:00:49Z</time>
      </trkpt>
      <trkpt lat="59.8598435" lon="17.6858361">
        <ele>7.82788</ele>
        <time>2013-05-19T17:00:50Z</time>
      </trkpt>
      <trkpt lat="59.8597902" lon="17.6858976">
        <ele>7.82788</ele>
        <time>2013-05-19T17:00:51Z</time>
      </trkpt>
      <trkpt lat="59.8597381" lon="17.6859642">
        <ele>8.30859</ele>
        <time>2013-05-19T17:00:52Z</time>
      </trkpt>
      <trkpt lat="59.8596832" lon="17.6860366">
        <ele>8.78918</ele>
        <time>2013-05-19T17:00:53Z</time>
      </trkpt>
      <trkpt lat="59.8596284" lon="17.6861099">
        <ele>8.78918</ele>
        <time>2013-05-19T17:00:54Z</time>
      </trkpt>
      <trkpt lat="59.8595933" lon="17.6862122">
        <ele>10.2312</ele>
        <time>2013-05-19T17:00:55Z</time>
      </trkpt>
      <trkpt lat="59.8595652" lon="17.6863114">
        <ele>11.1925</ele>
        <time>2013-05-19T17:00:56Z</time>
      </trkpt>
      <trkpt lat="59.8595279" lon="17.6864097">
        <ele>11.6732</ele>
        <time>2013-05-19T17:00:57Z</time>
      </trkpt>
      <trkpt lat="59.8594865" lon="17.686493">
        <ele>11.6732</ele>
        <time>2013-05-19T17:00:58Z</time>
      </trkpt>
      <trkpt lat="59.8594399" lon="17.6865777">
        <ele>12.6344</ele>
        <time>2013-05-19T17:00:59Z</time>
      </trkpt>
      <trkpt lat="59.8593883" lon="17.6866363">
        <ele>13.1151</ele>
        <time>2013-05-19T17:01:00Z</time>
      </trkpt>
      <trkpt lat="59.8593342" lon="17.686668">
        <ele>13.1151</ele>
        <time>2013-05-19T17:01:01Z</time>
      </trkpt>
      <trkpt lat="59.8592763" lon="17.6866825">
        <ele>13.1151</ele>
        <time>2013-05-19T17:01:02Z</time>
      </trkpt>
      <trkpt lat="59.8592373" lon="17.6866927">
        <ele>13.1151</ele>
        <time>2013-05-19T17:01:03Z</time>
      </trkpt>
      <trkpt lat="59.8592166" lon="17.6866823">
        <ele>13.1151</ele>
        <time>2013-05-19T17:01:04Z</time>
      </trkpt>
      <trkpt lat="59.8592036" lon="17.6866701">
        <ele>13.1151</ele>
        <time>2013-05-19T17:01:05Z</time>
      </trkpt>
      <trkpt lat="59.8591947" lon="17.6866787">
        <ele>13.5958</ele>
        <time>2013-05-19T17:01:06Z</time>
      </trkpt>
      <trkpt lat="59.8591856" lon="17.6867018">
        <ele>14.0764</ele>
        <time>2013-05-19T17:01:07Z</time>
      </trkpt>
      <trkpt lat="59.8591737" lon="17.6867182">
        <ele>14.0764</ele>
        <time>2013-05-19T17:01:08Z</time>
      </trkpt>
      <trkpt lat="59.8591582" lon="17.6867144">
        <ele>14.0764</ele>
        <time>2013-05-19T17:01:09Z</time>
      </trkpt>
      <trkpt lat="59.8591386" lon="17.6867036">
        <ele>14.557</ele>
        <time>2013-05-19T17:01:10Z</time>
      </trkpt>
      <trkpt lat="59.8591202" lon="17.6867017">
        <ele>14.557</ele>
        <time>2013-05-19T17:01:11Z</time>
      </trkpt>
      <trkpt lat="59.859096" lon="17.6867178">
        <ele>14.0764</ele>
        <time>2013-05-19T17:01:12Z</time>
      </trkpt>
      <trkpt lat="59.8590664" lon="17.6867389">
        <ele>14.0764</ele>
        <time>2013-05-19T17:01:13Z</time>
      </trkpt>
      <trkpt lat="59.8590285" lon="17.6867474">
        <ele>14.0764</ele>
        <time>2013-05-19T17:01:14Z</time>
      </trkpt>
      <trkpt lat="59.8589865" lon="17.6867616">
        <ele>13.5958</ele>
        <time>2013-05-19T17:01:15Z</time>
      </trkpt>
      <trkpt lat="59.8589495" lon="17.6868047">
        <ele>13.5958</ele>
        <time>2013-05-19T17:01:16Z</time>
      </trkpt>
      <trkpt lat="59.8589445" lon="17.6868917">
        <ele>13.1151</ele>
        <time>2013-05-19T17:01:17Z</time>
      </trkpt>
      <trkpt lat="59.8589627" lon="17.6869942">
        <ele>12.6344</ele>
        <time>2013-05-19T17:01:18Z</time>
      </trkpt>
      <trkpt lat="59.858997" lon="17.6871007">
        <ele>12.6344</ele>
        <time>2013-05-19T17:01:19Z</time>
      </trkpt>
      <trkpt lat="59.859035" lon="17.6872009">
        <ele>12.6344</ele>
        <time>2013-05-19T17:01:20Z</time>
      </trkpt>
      <trkpt lat="59.8590746" lon="17.6873065">
        <ele>12.6344</ele>
        <time>2013-05-19T17:01:21Z</time>
      </trkpt>
      <trkpt lat="59.8591443" lon="17.6875039">
        <ele>12.6344</ele>
        <time>2013-05-19T17:01:22Z</time>
      </trkpt>
      <trkpt lat="59.8591851" lon="17.6876808">
        <ele>12.1538</ele>
        <time>2013-05-19T17:01:23Z</time>
      </trkpt>
      <trkpt lat="59.859224" lon="17.6877844">
        <ele>12.1538</ele>
        <time>2013-05-19T17:01:24Z</time>
      </trkpt>
      <trkpt lat="59.8592612" lon="17.6878865">
        <ele>12.6344</ele>
        <time>2013-05-19T17:01:25Z</time>
      </trkpt>
      <trkpt lat="59.8592939" lon="17.6880004">
        <ele>14.0764</ele>
        <time>2013-05-19T17:01:26Z</time>
      </trkpt>
      <trkpt lat="59.8593222" lon="17.688093">
        <ele>14.0764</ele>
        <time>2013-05-19T17:01:27Z</time>
      </trkpt>
      <trkpt lat="59.8593462" lon="17.6881944">
        <ele>14.0764</ele>
        <time>2013-05-19T17:01:28Z</time>
      </trkpt>
      <trkpt lat="59.8593667" lon="17.6882998">
        <ele>14.557</ele>
        <time>2013-05-19T17:01:29Z</time>
      </trkpt>
      <trkpt lat="59.8593843" lon="17.6884127">
        <ele>15.0377</ele>
        <time>2013-05-19T17:01:30Z</time>
      </trkpt>
      <trkpt lat="59.8593976" lon="17.688535">
        <ele>15.0377</ele>
        <time>2013-05-19T17:01:31Z</time>
      </trkpt>
      <trkpt lat="59.8594172" lon="17.6886518">
        <ele>15.0377</ele>
        <time>2013-05-19T17:01:32Z</time>
      </trkpt>
      <trkpt lat="59.8594442" lon="17.6887634">
        <ele>15.0377</ele>
        <time>2013-05-19T17:01:33Z</time>
      </trkpt>
      <trkpt lat="59.8594719" lon="17.6888742">
        <ele>14.557</ele>
        <time>2013-05-19T17:01:34Z</time>
      </trkpt>
      <trkpt lat="59.8594999" lon="17.6889916">
        <ele>14.557</ele>
        <time>2013-05-19T17:01:35Z</time>
      </trkpt>
      <trkpt lat="59.8595291" lon="17.6891111">
        <ele>14.557</ele>
        <time>2013-05-19T17:01:36Z</time>
      </trkpt>
      <trkpt lat="59.859555" lon="17.6892379">
        <ele>14.0764</ele>
        <time>2013-05-19T17:01:37Z</time>
      </trkpt>
      <trkpt lat="59.8595776" lon="17.6893696">
        <ele>14.0764</ele>
        <time>2013-05-19T17:01:38Z</time>
      </trkpt>
      <trkpt lat="59.8595954" lon="17.6895027">
        <ele>14.0764</ele>
        <time>2013-05-19T17:01:39Z</time>
      </trkpt>
      <trkpt lat="59.8596114" lon="17.6896373">
        <ele>14.0764</ele>
        <time>2013-05-19T17:01:40Z</time>
      </trkpt>
      <trkpt lat="59.8596265" lon="17.6897725">
        <ele>14.557</ele>
        <time>2013-05-19T17:01:41Z</time>
      </trkpt>
      <trkpt lat="59.8596424" lon="17.6899082">
        <ele>14.557</ele>
        <time>2013-05-19T17:01:42Z</time>
      </trkpt>
      <trkpt lat="59.8596592" lon="17.6900444">
        <ele>14.557</ele>
        <time>2013-05-19T17:01:43Z</time>
      </trkpt>
      <trkpt lat="59.8596802" lon="17.6901826">
        <ele>14.557</ele>
        <time>2013-05-19T17:01:44Z</time>
      </trkpt>
      <trkpt lat="59.859705" lon="17.6903209">
        <ele>14.557</ele>
        <time>2013-05-19T17:01:45Z</time>
      </trkpt>
      <trkpt lat="59.8597294" lon="17.6904618">
        <ele>15.0377</ele>
        <time>2013-05-19T17:01:46Z</time>
      </trkpt>
      <trkpt lat="59.8597542" lon="17.6906039">
        <ele>15.5184</ele>
        <time>2013-05-19T17:01:47Z</time>
      </trkpt>
      <trkpt lat="59.8597803" lon="17.6907432">
        <ele>15.5184</ele>
        <time>2013-05-19T17:01:48Z</time>
      </trkpt>
      <trkpt lat="59.859807" lon="17.6908806">
        <ele>15.0377</ele>
        <time>2013-05-19T17:01:49Z</time>
      </trkpt>
      <trkpt lat="59.8598352" lon="17.6910145">
        <ele>15.0377</ele>
        <time>2013-05-19T17:01:50Z</time>
      </trkpt>
      <trkpt lat="59.8598638" lon="17.6911491">
        <ele>15.0377</ele>
        <time>2013-05-19T17:01:51Z</time>
      </trkpt>
      <trkpt lat="59.8598908" lon="17.6912829">
        <ele>14.557</ele>
        <time>2013-05-19T17:01:52Z</time>
      </trkpt>
      <trkpt lat="59.8599181" lon="17.6914164">
        <ele>14.557</ele>
        <time>2013-05-19T17:01:53Z</time>
      </trkpt>
      <trkpt lat="59.8599448" lon="17.6915498">
        <ele>14.0764</ele>
        <time>2013-05-19T17:01:54Z</time>
      </trkpt>
      <trkpt lat="59.8599715" lon="17.6916845">
        <ele>13.5958</ele>
        <time>2013-05-19T17:01:55Z</time>
      </trkpt>
      <trkpt lat="59.8599947" lon="17.6918207">
        <ele>13.1151</ele>
        <time>2013-05-19T17:01:56Z</time>
      </trkpt>
      <trkpt lat="59.8600158" lon="17.6919607">
        <ele>13.1151</ele>
        <time>2013-05-19T17:01:57Z</time>
      </trkpt>
      <trkpt lat="59.8600356" lon="17.6921025">
        <ele>13.1151</ele>
        <time>2013-05-19T17:01:58Z</time>
      </trkpt>
      <trkpt lat="59.8600528" lon="17.6922423">
        <ele>12.6344</ele>
        <time>2013-05-19T17:01:59Z</time>
      </trkpt>
      <trkpt lat="59.8600678" lon="17.692375">
        <ele>12.6344</ele>
        <time>2013-05-19T17:02:00Z</time>
      </trkpt>
      <trkpt lat="59.8600904" lon="17.6925085">
        <ele>12.6344</ele>
        <time>2013-05-19T17:02:01Z</time>
      </trkpt>
      <trkpt lat="59.860121" lon="17.69264">
        <ele>13.1151</ele>
        <time>2013-05-19T17:02:02Z</time>
      </trkpt>
      <trkpt lat="59.8601616" lon="17.6927541">
        <ele>13.5958</ele>
        <time>2013-05-19T17:02:03Z</time>
      </trkpt>
      <trkpt lat="59.8602112" lon="17.6928576">
        <ele>13.1151</ele>
        <time>2013-05-19T17:02:04Z</time>
      </trkpt>
      <trkpt lat="59.8602641" lon="17.6929518">
        <ele>12.6344</ele>
        <time>2013-05-19T17:02:05Z</time>
      </trkpt>
      <trkpt lat="59.8603186" lon="17.6930425">
        <ele>12.6344</ele>
        <time>2013-05-19T17:02:06Z</time>
      </trkpt>
      <trkpt lat="59.860374" lon="17.6931307">
        <ele>11.6732</ele>
        <time>2013-05-19T17:02:07Z</time>
      </trkpt>
      <trkpt lat="59.8604277" lon="17.693225">
        <ele>11.6732</ele>
        <time>2013-05-19T17:02:08Z</time>
      </trkpt>
      <trkpt lat="59.8604754" lon="17.6933292">
        <ele>11.6732</ele>
        <time>2013-05-19T17:02:09Z</time>
      </trkpt>
      <trkpt lat="59.8605072" lon="17.6934518">
        <ele>11.6732</ele>
        <time>2013-05-19T17:02:10Z</time>
      </trkpt>
      <trkpt lat="59.8605219" lon="17.6935887">
        <ele>12.6344</ele>
        <time>2013-05-19T17:02:11Z</time>
      </trkpt>
      <trkpt lat="59.8605263" lon="17.6937273">
        <ele>13.1151</ele>
        <time>2013-05-19T17:02:12Z</time>
      </trkpt>
      <trkpt lat="59.8605283" lon="17.693872">
        <ele>13.1151</ele>
        <time>2013-05-19T17:02:13Z</time>
      </trkpt>
      <trkpt lat="59.8605328" lon="17.6940179">
        <ele>12.1538</ele>
        <time>2013-05-19T17:02:14Z</time>
      </trkpt>
      <trkpt lat="59.8605418" lon="17.6941652">
        <ele>12.1538</ele>
        <time>2013-05-19T17:02:15Z</time>
      </trkpt>
      <trkpt lat="59.8605547" lon="17.6943132">
        <ele>12.6344</ele>
        <time>2013-05-19T17:02:16Z</time>
      </trkpt>
      <trkpt lat="59.8605698" lon="17.6944595">
        <ele>12.6344</ele>
        <time>2013-05-19T17:02:17Z</time>
      </trkpt>
      <trkpt lat="59.8605864" lon="17.6946061">
        <ele>12.6344</ele>
        <time>2013-05-19T17:02:18Z</time>
      </trkpt>
      <trkpt lat="59.8606039" lon="17.6947522">
        <ele>13.1151</ele>
        <time>2013-05-19T17:02:19Z</time>
      </trkpt>
      <trkpt lat="59.860622" lon="17.6948972">
        <ele>13.1151</ele>
        <time>2013-05-19T17:02:20Z</time>
      </trkpt>
      <trkpt lat="59.8606439" lon="17.6950427">
        <ele>13.1151</ele>
        <time>2013-05-19T17:02:21Z</time>
      </trkpt>
      <trkpt lat="59.8606671" lon="17.6951846">
        <ele>13.1151</ele>
        <time>2013-05-19T17:02:22Z</time>
      </trkpt>
      <trkpt lat="59.8606898" lon="17.695325">
        <ele>13.1151</ele>
        <time>2013-05-19T17:02:23Z</time>
      </trkpt>
      <trkpt lat="59.8607126" lon="17.6954643">
        <ele>12.1538</ele>
        <time>2013-05-19T17:02:24Z</time>
      </trkpt>
      <trkpt lat="59.8607393" lon="17.6955985">
        <ele>12.6344</ele>
        <time>2013-05-19T17:02:25Z</time>
      </trkpt>
      <trkpt lat="59.8607693" lon="17.695726">
        <ele>12.1538</ele>
        <time>2013-05-19T17:02:26Z</time>
      </trkpt>
      <trkpt lat="59.8608001" lon="17.6958524">
        <ele>12.1538</ele>
        <time>2013-05-19T17:02:27Z</time>
      </trkpt>
      <trkpt lat="59.8608298" lon="17.6959806">
        <ele>11.6732</ele>
        <time>2013-05-19T17:02:28Z</time>
      </trkpt>
      <trkpt lat="59.8608548" lon="17.6961146">
        <ele>11.6732</ele>
        <time>2013-05-19T17:02:29Z</time>
      </trkpt>
      <trkpt lat="59.8608707" lon="17.6962532">
        <ele>11.1925</ele>
        <time>2013-05-19T17:02:30Z</time>
      </trkpt>
      <trkpt lat="59.8608759" lon="17.6963983">
        <ele>11.1925</ele>
        <time>2013-05-19T17:02:31Z</time>
      </trkpt>
      <trkpt lat="59.8608722" lon="17.6965393">
        <ele>10.7118</ele>
        <time>2013-05-19T17:02:32Z</time>
      </trkpt>
      <trkpt lat="59.8608639" lon="17.6966707">
        <ele>10.2312</ele>
        <time>2013-05-19T17:02:33Z</time>
      </trkpt>
      <trkpt lat="59.860864" lon="17.6968014">
        <ele>10.2312</ele>
        <time>2013-05-19T17:02:34Z</time>
      </trkpt>
      <trkpt lat="59.8608703" lon="17.6969334">
        <ele>9.75061</ele>
        <time>2013-05-19T17:02:35Z</time>
      </trkpt>
      <trkpt lat="59.8608842" lon="17.6970832">
        <ele>10.2312</ele>
        <time>2013-05-19T17:02:36Z</time>
      </trkpt>
      <trkpt lat="59.8609104" lon="17.6972389">
        <ele>9.75061</ele>
        <time>2013-05-19T17:02:37Z</time>
      </trkpt>
      <trkpt lat="59.8609457" lon="17.697354">
        <ele>9.75061</ele>
        <time>2013-05-19T17:02:38Z</time>
      </trkpt>
      <trkpt lat="59.8609821" lon="17.697487">
        <ele>10.2312</ele>
        <time>2013-05-19T17:02:39Z</time>
      </trkpt>
      <trkpt lat="59.8610173" lon="17.6976073">
        <ele>10.2312</ele>
        <time>2013-05-19T17:02:40Z</time>
      </trkpt>
      <trkpt lat="59.8610505" lon="17.6977193">
        <ele>9.75061</ele>
        <time>2013-05-19T17:02:41Z</time>
      </trkpt>
      <trkpt lat="59.8610893" lon="17.6978186">
        <ele>9.2699</ele>
        <time>2013-05-19T17:02:42Z</time>
      </trkpt>
      <trkpt lat="59.8611266" lon="17.6979371">
        <ele>9.2699</ele>
        <time>2013-05-19T17:02:43Z</time>
      </trkpt>
      <trkpt lat="59.8611546" lon="17.698068">
        <ele>9.2699</ele>
        <time>2013-05-19T17:02:44Z</time>
      </trkpt>
      <trkpt lat="59.8611867" lon="17.6981853">
        <ele>8.78918</ele>
        <time>2013-05-19T17:02:45Z</time>
      </trkpt>
      <trkpt lat="59.861224" lon="17.698304">
        <ele>8.78918</ele>
        <time>2013-05-19T17:02:46Z</time>
      </trkpt>
      <trkpt lat="59.8612661" lon="17.6984154">
        <ele>8.78918</ele>
        <time>2013-05-19T17:02:47Z</time>
      </trkpt>
      <trkpt lat="59.861311" lon="17.6985183">
        <ele>8.30859</ele>
        <time>2013-05-19T17:02:48Z</time>
      </trkpt>
      <trkpt lat="59.8613586" lon="17.6986128">
        <ele>8.30859</ele>
        <time>2013-05-19T17:02:49Z</time>
      </trkpt>
      <trkpt lat="59.8614101" lon="17.6987127">
        <ele>7.82788</ele>
        <time>2013-05-19T17:02:50Z</time>
      </trkpt>
      <trkpt lat="59.8614657" lon="17.6988152">
        <ele>8.78918</ele>
        <time>2013-05-19T17:02:51Z</time>
      </trkpt>
      <trkpt lat="59.8615134" lon="17.6989251">
        <ele>8.78918</ele>
        <time>2013-05-19T17:02:52Z</time>
      </trkpt>
      <trkpt lat="59.861545" lon="17.6990484">
        <ele>8.78918</ele>
        <time>2013-05-19T17:02:53Z</time>
      </trkpt>
      <trkpt lat="59.8615678" lon="17.6991774">
        <ele>9.2699</ele>
        <time>2013-05-19T17:02:54Z</time>
      </trkpt>
      <trkpt lat="59.8615869" lon="17.6993042">
        <ele>8.78918</ele>
        <time>2013-05-19T17:02:55Z</time>
      </trkpt>
      <trkpt lat="59.8616021" lon="17.6994318">
        <ele>8.30859</ele>
        <time>2013-05-19T17:02:56Z</time>
      </trkpt>
      <trkpt lat="59.8616154" lon="17.6995628">
        <ele>8.30859</ele>
        <time>2013-05-19T17:02:57Z</time>
      </trkpt>
      <trkpt lat="59.861626" lon="17.6996913">
        <ele>7.82788</ele>
        <time>2013-05-19T17:02:58Z</time>
      </trkpt>
      <trkpt lat="59.8616362" lon="17.6998176">
        <ele>7.34717</ele>
        <time>2013-05-19T17:02:59Z</time>
      </trkpt>
      <trkpt lat="59.8616441" lon="17.6999477">
        <ele>7.82788</ele>
        <time>2013-05-19T17:03:00Z</time>
      </trkpt>
      <trkpt lat="59.8616503" lon="17.7000812">
        <ele>8.30859</ele>
        <time>2013-05-19T17:03:01Z</time>
      </trkpt>
      <trkpt lat="59.8616582" lon="17.7002112">
        <ele>8.78918</ele>
        <time>2013-05-19T17:03:02Z</time>
      </trkpt>
      <trkpt lat="59.8616625" lon="17.7003482">
        <ele>9.2699</ele>
        <time>2013-05-19T17:03:03Z</time>
      </trkpt>
      <trkpt lat="59.8616648" lon="17.7004808">
        <ele>9.75061</ele>
        <time>2013-05-19T17:03:04Z</time>
      </trkpt>
      <trkpt lat="59.8616653" lon="17.7006134">
        <ele>9.75061</ele>
        <time>2013-05-19T17:03:05Z</time>
      </trkpt>
      <trkpt lat="59.8616679" lon="17.7007439">
        <ele>9.75061</ele>
        <time>2013-05-19T17:03:06Z</time>
      </trkpt>
      <trkpt lat="59.8616721" lon="17.7008828">
        <ele>9.2699</ele>
        <time>2013-05-19T17:03:07Z</time>
      </trkpt>
      <trkpt lat="59.8616859" lon="17.7010024">
        <ele>10.2312</ele>
        <time>2013-05-19T17:03:08Z</time>
      </trkpt>
      <trkpt lat="59.8617078" lon="17.7011433">
        <ele>10.7118</ele>
        <time>2013-05-19T17:03:09Z</time>
      </trkpt>
      <trkpt lat="59.8617285" lon="17.701284">
        <ele>10.7118</ele>
        <time>2013-05-19T17:03:10Z</time>
      </trkpt>
      <trkpt lat="59.8617506" lon="17.7014247">
        <ele>10.7118</ele>
        <time>2013-05-19T17:03:11Z</time>
      </trkpt>
      <trkpt lat="59.8617737" lon="17.7015587">
        <ele>10.7118</ele>
        <time>2013-05-19T17:03:12Z</time>
      </trkpt>
      <trkpt lat="59.8617975" lon="17.7016909">
        <ele>10.7118</ele>
        <time>2013-05-19T17:03:13Z</time>
      </trkpt>
      <trkpt lat="59.8618238" lon="17.7018148">
        <ele>10.2312</ele>
        <time>2013-05-19T17:03:14Z</time>
      </trkpt>
      <trkpt lat="59.8618512" lon="17.7019394">
        <ele>10.2312</ele>
        <time>2013-05-19T17:03:15Z</time>
      </trkpt>
      <trkpt lat="59.8618802" lon="17.7020617">
        <ele>9.75061</ele>
        <time>2013-05-19T17:03:16Z</time>
      </trkpt>
      <trkpt lat="59.8619088" lon="17.702184">
        <ele>9.2699</ele>
        <time>2013-05-19T17:03:17Z</time>
      </trkpt>
      <trkpt lat="59.8619373" lon="17.7023056">
        <ele>9.2699</ele>
        <time>2013-05-19T17:03:18Z</time>
      </trkpt>
      <trkpt lat="59.8619682" lon="17.7024267">
        <ele>9.2699</ele>
        <time>2013-05-19T17:03:19Z</time>
      </trkpt>
      <trkpt lat="59.8619999" lon="17.7025487">
        <ele>9.2699</ele>
        <time>2013-05-19T17:03:20Z</time>
      </trkpt>
      <trkpt lat="59.8620296" lon="17.7026724">
        <ele>9.75061</ele>
        <time>2013-05-19T17:03:21Z</time>
      </trkpt>
      <trkpt lat="59.8620553" lon="17.7027998">
        <ele>9.75061</ele>
        <time>2013-05-19T17:03:22Z</time>
      </trkpt>
      <trkpt lat="59.8620736" lon="17.7029318">
        <ele>10.2312</ele>
        <time>2013-05-19T17:03:23Z</time>
      </trkpt>
      <trkpt lat="59.8620849" lon="17.7030666">
        <ele>9.75061</ele>
        <time>2013-05-19T17:03:24Z</time>
      </trkpt>
      <trkpt lat="59.862086" lon="17.7031996">
        <ele>9.75061</ele>
        <time>2013-05-19T17:03:25Z</time>
      </trkpt>
      <trkpt lat="59.8620874" lon="17.7033329">
        <ele>10.2312</ele>
        <time>2013-05-19T17:03:26Z</time>
      </trkpt>
      <trkpt lat="59.8620864" lon="17.7034757">
        <ele>10.2312</ele>
        <time>2013-05-19T17:03:27Z</time>
      </trkpt>
      <trkpt lat="59.8620806" lon="17.7035967">
        <ele>10.7118</ele>
        <time>2013-05-19T17:03:28Z</time>
      </trkpt>
      <trkpt lat="59.862073" lon="17.7037204">
        <ele>11.1925</ele>
        <time>2013-05-19T17:03:29Z</time>
      </trkpt>
      <trkpt lat="59.8620657" lon="17.7038407">
        <ele>11.6732</ele>
        <time>2013-05-19T17:03:30Z</time>
      </trkpt>
      <trkpt lat="59.8620593" lon="17.7039513">
        <ele>11.6732</ele>
        <time>2013-05-19T17:03:31Z</time>
      </trkpt>
      <trkpt lat="59.8620476" lon="17.7040447">
        <ele>12.6344</ele>
        <time>2013-05-19T17:03:32Z</time>
      </trkpt>
      <trkpt lat="59.8620231" lon="17.7040964">
        <ele>11.6732</ele>
        <time>2013-05-19T17:03:33Z</time>
      </trkpt>
      <trkpt lat="59.8619905" lon="17.7041105">
        <ele>11.1925</ele>
        <time>2013-05-19T17:03:34Z</time>
      </trkpt>
      <trkpt lat="59.8619516" lon="17.7040738">
        <ele>10.7118</ele>
        <time>2013-05-19T17:03:35Z</time>
      </trkpt>
      <trkpt lat="59.8619042" lon="17.704054">
        <ele>10.2312</ele>
        <time>2013-05-19T17:03:36Z</time>
      </trkpt>
      <trkpt lat="59.8618524" lon="17.7040502">
        <ele>10.7118</ele>
        <time>2013-05-19T17:03:37Z</time>
      </trkpt>
      <trkpt lat="59.8617803" lon="17.7040198">
        <ele>12.1538</ele>
        <time>2013-05-19T17:03:38Z</time>
      </trkpt>
      <trkpt lat="59.8616932" lon="17.7039277">
        <ele>12.1538</ele>
        <time>2013-05-19T17:03:39Z</time>
      </trkpt>
      <trkpt lat="59.8616266" lon="17.7038996">
        <ele>12.6344</ele>
        <time>2013-05-19T17:03:40Z</time>
      </trkpt>
      <trkpt lat="59.8615486" lon="17.7038503">
        <ele>13.5958</ele>
        <time>2013-05-19T17:03:41Z</time>
      </trkpt>
      <trkpt lat="59.8614819" lon="17.7037927">
        <ele>15.0377</ele>
        <time>2013-05-19T17:03:42Z</time>
      </trkpt>
      <trkpt lat="59.8614136" lon="17.7037531">
        <ele>16.4797</ele>
        <time>2013-05-19T17:03:43Z</time>
      </trkpt>
      <trkpt lat="59.8613438" lon="17.7037228">
        <ele>17.4412</ele>
        <time>2013-05-19T17:03:44Z</time>
      </trkpt>
      <trkpt lat="59.8612694" lon="17.7037344">
        <ele>16.9604</ele>
        <time>2013-05-19T17:03:45Z</time>
      </trkpt>
      <trkpt lat="59.861191" lon="17.703734">
        <ele>17.4412</ele>
        <time>2013-05-19T17:03:46Z</time>
      </trkpt>
      <trkpt lat="59.8611181" lon="17.7037354">
        <ele>18.8831</ele>
        <time>2013-05-19T17:03:47Z</time>
      </trkpt>
      <trkpt lat="59.8610603" lon="17.7037119">
        <ele>19.3638</ele>
        <time>2013-05-19T17:03:48Z</time>
      </trkpt>
      <trkpt lat="59.8609752" lon="17.7036712">
        <ele>19.8444</ele>
        <time>2013-05-19T17:03:49Z</time>
      </trkpt>
      <trkpt lat="59.8609097" lon="17.703639">
        <ele>22.7283</ele>
        <time>2013-05-19T17:03:50Z</time>
      </trkpt>
      <trkpt lat="59.8608312" lon="17.7036666">
        <ele>22.7283</ele>
        <time>2013-05-19T17:03:51Z</time>
      </trkpt>
      <trkpt lat="59.860761" lon="17.7037036">
        <ele>22.7283</ele>
        <time>2013-05-19T17:03:52Z</time>
      </trkpt>
      <trkpt lat="59.8606744" lon="17.7037629">
        <ele>21.767</ele>
        <time>2013-05-19T17:03:53Z</time>
      </trkpt>
      <trkpt lat="59.8605901" lon="17.7038421">
        <ele>21.767</ele>
        <time>2013-05-19T17:03:54Z</time>
      </trkpt>
      <trkpt lat="59.8604972" lon="17.7038954">
        <ele>19.8444</ele>
        <time>2013-05-19T17:03:55Z</time>
      </trkpt>
      <trkpt lat="59.8604194" lon="17.7039384">
        <ele>19.3638</ele>
        <time>2013-05-19T17:03:56Z</time>
      </trkpt>
      <trkpt lat="59.8603354" lon="17.7039746">
        <ele>18.8831</ele>
        <time>2013-05-19T17:03:57Z</time>
      </trkpt>
      <trkpt lat="59.8602614" lon="17.7040063">
        <ele>18.8831</ele>
        <time>2013-05-19T17:03:58Z</time>
      </trkpt>
      <trkpt lat="59.8601922" lon="17.7040372">
        <ele>18.4023</ele>
        <time>2013-05-19T17:03:59Z</time>
      </trkpt>
      <trkpt lat="59.8601091" lon="17.7040813">
        <ele>17.9218</ele>
        <time>2013-05-19T17:04:00Z</time>
      </trkpt>
      <trkpt lat="59.8600334" lon="17.7041177">
        <ele>17.4412</ele>
        <time>2013-05-19T17:04:01Z</time>
      </trkpt>
      <trkpt lat="59.859962" lon="17.7041554">
        <ele>16.9604</ele>
        <time>2013-05-19T17:04:02Z</time>
      </trkpt>
      <trkpt lat="59.8598885" lon="17.7041901">
        <ele>16.4797</ele>
        <time>2013-05-19T17:04:03Z</time>
      </trkpt>
      <trkpt lat="59.8598141" lon="17.7042244">
        <ele>16.4797</ele>
        <time>2013-05-19T17:04:04Z</time>
      </trkpt>
      <trkpt lat="59.8597402" lon="17.7042579">
        <ele>16.4797</ele>
        <time>2013-05-19T17:04:05Z</time>
      </trkpt>
      <trkpt lat="59.8596638" lon="17.7042895">
        <ele>15.999</ele>
        <time>2013-05-19T17:04:06Z</time>
      </trkpt>
      <trkpt lat="59.8595893" lon="17.7043201">
        <ele>15.5184</ele>
        <time>2013-05-19T17:04:07Z</time>
      </trkpt>
      <trkpt lat="59.8595084" lon="17.7043694">
        <ele>15.0377</ele>
        <time>2013-05-19T17:04:08Z</time>
      </trkpt>
      <trkpt lat="59.8594342" lon="17.7043968">
        <ele>15.0377</ele>
        <time>2013-05-19T17:04:09Z</time>
      </trkpt>
      <trkpt lat="59.8593575" lon="17.7044347">
        <ele>15.0377</ele>
        <time>2013-05-19T17:04:10Z</time>
      </trkpt>
      <trkpt lat="59.8592847" lon="17.7044762">
        <ele>15.5184</ele>
        <time>2013-05-19T17:04:11Z</time>
      </trkpt>
      <trkpt lat="59.859216" lon="17.7045167">
        <ele>15.5184</ele>
        <time>2013-05-19T17:04:12Z</time>
      </trkpt>
      <trkpt lat="59.8591582" lon="17.704556">
        <ele>15.0377</ele>
        <time>2013-05-19T17:04:13Z</time>
      </trkpt>
      <trkpt lat="59.8591038" lon="17.7046048">
        <ele>14.0764</ele>
        <time>2013-05-19T17:04:14Z</time>
      </trkpt>
      <trkpt lat="59.8590554" lon="17.7046606">
        <ele>12.6344</ele>
        <time>2013-05-19T17:04:15Z</time>
      </trkpt>
      <trkpt lat="59.8590134" lon="17.704728">
        <ele>11.6732</ele>
        <time>2013-05-19T17:04:16Z</time>
      </trkpt>
      <trkpt lat="59.8589764" lon="17.7048062">
        <ele>11.6732</ele>
        <time>2013-05-19T17:04:17Z</time>
      </trkpt>
      <trkpt lat="59.8589409" lon="17.7048852">
        <ele>12.1538</ele>
        <time>2013-05-19T17:04:18Z</time>
      </trkpt>
      <trkpt lat="59.8589106" lon="17.7049629">
        <ele>12.1538</ele>
        <time>2013-05-19T17:04:19Z</time>
      </trkpt>
      <trkpt lat="59.8588878" lon="17.7050128">
        <ele>11.6732</ele>
        <time>2013-05-19T17:04:20Z</time>
      </trkpt>
      <trkpt lat="59.8588702" lon="17.7050443">
        <ele>11.1925</ele>
        <time>2013-05-19T17:04:21Z</time>
      </trkpt>
      <trkpt lat="59.8588474" lon="17.7050666">
        <ele>11.6732</ele>
        <time>2013-05-19T17:04:22Z</time>
      </trkpt>
      <trkpt lat="59.8588244" lon="17.7050616">
        <ele>11.6732</ele>
        <time>2013-05-19T17:04:23Z</time>
      </trkpt>
      <trkpt lat="59.8588008" lon="17.7050245">
        <ele>11.1925</ele>
        <time>2013-05-19T17:04:24Z</time>
      </trkpt>
      <trkpt lat="59.8587811" lon="17.7049733">
        <ele>11.1925</ele>
        <time>2013-05-19T17:04:25Z</time>
      </trkpt>
      <trkpt lat="59.8587625" lon="17.7049092">
        <ele>11.1925</ele>
        <time>2013-05-19T17:04:26Z</time>
      </trkpt>
      <trkpt lat="59.8587425" lon="17.7048358">
        <ele>10.7118</ele>
        <time>2013-05-19T17:04:27Z</time>
      </trkpt>
      <trkpt lat="59.8587204" lon="17.7047564">
        <ele>10.7118</ele>
        <time>2013-05-19T17:04:28Z</time>
      </trkpt>
      <trkpt lat="59.8586951" lon="17.704672">
        <ele>10.2312</ele>
        <time>2013-05-19T17:04:29Z</time>
      </trkpt>
      <trkpt lat="59.8586662" lon="17.7045868">
        <ele>9.75061</ele>
        <time>2013-05-19T17:04:30Z</time>
      </trkpt>
      <trkpt lat="59.858638" lon="17.7044986">
        <ele>8.78918</ele>
        <time>2013-05-19T17:04:31Z</time>
      </trkpt>
      <trkpt lat="59.8586102" lon="17.7044048">
        <ele>8.78918</ele>
        <time>2013-05-19T17:04:32Z</time>
      </trkpt>
      <trkpt lat="59.858579" lon="17.7043046">
        <ele>9.2699</ele>
        <time>2013-05-19T17:04:33Z</time>
      </trkpt>
      <trkpt lat="59.8585516" lon="17.7041996">
        <ele>8.78918</ele>
        <time>2013-05-19T17:04:34Z</time>
      </trkpt>
      <trkpt lat="59.8585235" lon="17.7040979">
        <ele>8.30859</ele>
        <time>2013-05-19T17:04:35Z</time>
      </trkpt>
      <trkpt lat="59.8584559" lon="17.7039924">
        <ele>8.30859</ele>
        <time>2013-05-19T17:04:36Z</time>
      </trkpt>
      <trkpt lat="59.8584266" lon="17.7039072">
        <ele>9.2699</ele>
        <time>2013-05-19T17:04:37Z</time>
      </trkpt>
      <trkpt lat="59.8583835" lon="17.7039319">
        <ele>9.2699</ele>
        <time>2013-05-19T17:04:38Z</time>
      </trkpt>
      <trkpt lat="59.8583578" lon="17.7039653">
        <ele>10.2312</ele>
        <time>2013-05-19T17:04:39Z</time>
      </trkpt>
      <trkpt lat="59.8583141" lon="17.7039929">
        <ele>13.1151</ele>
        <time>2013-05-19T17:04:40Z</time>
      </trkpt>
      <trkpt lat="59.8582671" lon="17.7040368">
        <ele>13.5958</ele>
        <time>2013-05-19T17:04:41Z</time>
      </trkpt>
      <trkpt lat="59.8582324" lon="17.7040781">
        <ele>14.0764</ele>
        <time>2013-05-19T17:04:42Z</time>
      </trkpt>
      <trkpt lat="59.8581915" lon="17.7041129">
        <ele>14.557</ele>
        <time>2013-05-19T17:04:43Z</time>
      </trkpt>
      <trkpt lat="59.8581646" lon="17.7041458">
        <ele>15.999</ele>
        <time>2013-05-19T17:04:44Z</time>
      </trkpt>
      <trkpt lat="59.8581564" lon="17.7041845">
        <ele>15.5184</ele>
        <time>2013-05-19T17:04:45Z</time>
      </trkpt>
      <trkpt lat="59.8581629" lon="17.7042146">
        <ele>14.0764</ele>
        <time>2013-05-19T17:04:46Z</time>
      </trkpt>
      <trkpt lat="59.8581714" lon="17.7042377">
        <ele>13.5958</ele>
        <time>2013-05-19T17:04:47Z</time>
      </trkpt>
      <trkpt lat="59.8581776" lon="17.7042493">
        <ele>13.5958</ele>
        <time>2013-05-19T17:04:48Z</time>
      </trkpt>
      <trkpt lat="59.8581838" lon="17.7042546">
        <ele>13.5958</ele>
        <time>2013-05-19T17:04:49Z</time>
      </trkpt>
      <trkpt lat="59.8581836" lon="17.704251">
        <ele>14.0764</ele>
        <time>2013-05-19T17:04:50Z</time>
      </trkpt>
      <trkpt lat="59.8581931" lon="17.704268">
        <ele>16.4797</ele>
        <time>2013-05-19T17:04:51Z</time>
      </trkpt>
      <trkpt lat="59.8582823" lon="17.7041492">
        <ele>32.8223</ele>
        <time>2013-05-19T17:07:28Z</time>
      </trkpt>
      <trkpt lat="59.8582978" lon="17.7041233">
        <ele>30.8995</ele>
        <time>2013-05-19T17:07:29Z</time>
      </trkpt>
      <trkpt lat="59.8583216" lon="17.7040919">
        <ele>30.4188</ele>
        <time>2013-05-19T17:07:30Z</time>
      </trkpt>
      <trkpt lat="59.858334" lon="17.7040536">
        <ele>29.9381</ele>
        <time>2013-05-19T17:07:31Z</time>
      </trkpt>
      <trkpt lat="59.8583528" lon="17.7040187">
        <ele>29.4575</ele>
        <time>2013-05-19T17:07:32Z</time>
      </trkpt>
      <trkpt lat="59.8583802" lon="17.7039935">
        <ele>28.9769</ele>
        <time>2013-05-19T17:07:33Z</time>
      </trkpt>
      <trkpt lat="59.8584281" lon="17.7040177">
        <ele>26.5736</ele>
        <time>2013-05-19T17:07:34Z</time>
      </trkpt>
      <trkpt lat="59.8584646" lon="17.7040514">
        <ele>26.0929</ele>
        <time>2013-05-19T17:07:35Z</time>
      </trkpt>
      <trkpt lat="59.8584909" lon="17.7041176">
        <ele>25.6123</ele>
        <time>2013-05-19T17:07:36Z</time>
      </trkpt>
      <trkpt lat="59.8585055" lon="17.7042037">
        <ele>26.0929</ele>
        <time>2013-05-19T17:07:37Z</time>
      </trkpt>
      <trkpt lat="59.8585103" lon="17.7042802">
        <ele>26.0929</ele>
        <time>2013-05-19T17:07:38Z</time>
      </trkpt>
      <trkpt lat="59.8585287" lon="17.7043719">
        <ele>25.6123</ele>
        <time>2013-05-19T17:07:39Z</time>
      </trkpt>
      <trkpt lat="59.8585496" lon="17.7044776">
        <ele>24.1703</ele>
        <time>2013-05-19T17:07:40Z</time>
      </trkpt>
      <trkpt lat="59.8585759" lon="17.7045816">
        <ele>23.6896</ele>
        <time>2013-05-19T17:07:41Z</time>
      </trkpt>
      <trkpt lat="59.8586111" lon="17.7046812">
        <ele>24.651</ele>
        <time>2013-05-19T17:07:42Z</time>
      </trkpt>
      <trkpt lat="59.8586372" lon="17.7047762">
        <ele>24.651</ele>
        <time>2013-05-19T17:07:43Z</time>
      </trkpt>
      <trkpt lat="59.8586656" lon="17.7048729">
        <ele>24.651</ele>
        <time>2013-05-19T17:07:44Z</time>
      </trkpt>
      <trkpt lat="59.8586971" lon="17.7049481">
        <ele>24.651</ele>
        <time>2013-05-19T17:07:45Z</time>
      </trkpt>
      <trkpt lat="59.8587318" lon="17.7050144">
        <ele>25.1317</ele>
        <time>2013-05-19T17:07:46Z</time>
      </trkpt>
      <trkpt lat="59.8587669" lon="17.7050724">
        <ele>25.1317</ele>
        <time>2013-05-19T17:07:47Z</time>
      </trkpt>
      <trkpt lat="59.8588028" lon="17.7050781">
        <ele>22.2476</ele>
        <time>2013-05-19T17:07:48Z</time>
      </trkpt>
      <trkpt lat="59.858839" lon="17.7050598">
        <ele>20.325</ele>
        <time>2013-05-19T17:07:49Z</time>
      </trkpt>
      <trkpt lat="59.8588966" lon="17.7049611">
        <ele>19.3638</ele>
        <time>2013-05-19T17:07:50Z</time>
      </trkpt>
      <trkpt lat="59.8589359" lon="17.7048664">
        <ele>17.9218</ele>
        <time>2013-05-19T17:07:51Z</time>
      </trkpt>
      <trkpt lat="59.8589868" lon="17.7048559">
        <ele>18.4023</ele>
        <time>2013-05-19T17:07:52Z</time>
      </trkpt>
      <trkpt lat="59.8590157" lon="17.7047796">
        <ele>17.4412</ele>
        <time>2013-05-19T17:07:53Z</time>
      </trkpt>
      <trkpt lat="59.8590534" lon="17.7047189">
        <ele>16.4797</ele>
        <time>2013-05-19T17:07:54Z</time>
      </trkpt>
      <trkpt lat="59.8590955" lon="17.7046552">
        <ele>15.999</ele>
        <time>2013-05-19T17:07:55Z</time>
      </trkpt>
      <trkpt lat="59.8591442" lon="17.7046015">
        <ele>15.0377</ele>
        <time>2013-05-19T17:07:56Z</time>
      </trkpt>
      <trkpt lat="59.8591991" lon="17.704564">
        <ele>14.0764</ele>
        <time>2013-05-19T17:07:57Z</time>
      </trkpt>
      <trkpt lat="59.8592561" lon="17.7045259">
        <ele>13.5958</ele>
        <time>2013-05-19T17:07:58Z</time>
      </trkpt>
      <trkpt lat="59.8593116" lon="17.7044771">
        <ele>12.1538</ele>
        <time>2013-05-19T17:07:59Z</time>
      </trkpt>
      <trkpt lat="59.8593755" lon="17.7044455">
        <ele>11.6732</ele>
        <time>2013-05-19T17:08:00Z</time>
      </trkpt>
      <trkpt lat="59.8594369" lon="17.7044083">
        <ele>11.1925</ele>
        <time>2013-05-19T17:08:01Z</time>
      </trkpt>
      <trkpt lat="59.8594969" lon="17.7043704">
        <ele>10.2312</ele>
        <time>2013-05-19T17:08:02Z</time>
      </trkpt>
      <trkpt lat="59.8595633" lon="17.7043371">
        <ele>11.1925</ele>
        <time>2013-05-19T17:08:03Z</time>
      </trkpt>
      <trkpt lat="59.8596285" lon="17.7043032">
        <ele>11.6732</ele>
        <time>2013-05-19T17:08:04Z</time>
      </trkpt>
      <trkpt lat="59.8596906" lon="17.7042714">
        <ele>11.1925</ele>
        <time>2013-05-19T17:08:05Z</time>
      </trkpt>
      <trkpt lat="59.8597545" lon="17.7042388">
        <ele>11.1925</ele>
        <time>2013-05-19T17:08:06Z</time>
      </trkpt>
      <trkpt lat="59.8598202" lon="17.7042166">
        <ele>11.1925</ele>
        <time>2013-05-19T17:08:07Z</time>
      </trkpt>
      <trkpt lat="59.8598829" lon="17.7041887">
        <ele>11.1925</ele>
        <time>2013-05-19T17:08:08Z</time>
      </trkpt>
      <trkpt lat="59.8599474" lon="17.7041569">
        <ele>11.1925</ele>
        <time>2013-05-19T17:08:09Z</time>
      </trkpt>
      <trkpt lat="59.8600134" lon="17.7041294">
        <ele>12.1538</ele>
        <time>2013-05-19T17:08:10Z</time>
      </trkpt>
      <trkpt lat="59.8600833" lon="17.7041037">
        <ele>12.6344</ele>
        <time>2013-05-19T17:08:11Z</time>
      </trkpt>
      <trkpt lat="59.8601496" lon="17.7040691">
        <ele>11.6732</ele>
        <time>2013-05-19T17:08:12Z</time>
      </trkpt>
      <trkpt lat="59.8602127" lon="17.70404">
        <ele>11.1925</ele>
        <time>2013-05-19T17:08:13Z</time>
      </trkpt>
      <trkpt lat="59.8602776" lon="17.7040122">
        <ele>12.1538</ele>
        <time>2013-05-19T17:08:14Z</time>
      </trkpt>
      <trkpt lat="59.8603357" lon="17.7039758">
        <ele>11.1925</ele>
        <time>2013-05-19T17:08:15Z</time>
      </trkpt>
      <trkpt lat="59.860415" lon="17.7038777">
        <ele>12.6344</ele>
        <time>2013-05-19T17:08:16Z</time>
      </trkpt>
      <trkpt lat="59.8604858" lon="17.7038694">
        <ele>13.5958</ele>
        <time>2013-05-19T17:08:17Z</time>
      </trkpt>
      <trkpt lat="59.8605578" lon="17.7038684">
        <ele>12.6344</ele>
        <time>2013-05-19T17:08:18Z</time>
      </trkpt>
      <trkpt lat="59.8606252" lon="17.7038508">
        <ele>12.1538</ele>
        <time>2013-05-19T17:08:19Z</time>
      </trkpt>
      <trkpt lat="59.8606828" lon="17.7038438">
        <ele>12.6344</ele>
        <time>2013-05-19T17:08:20Z</time>
      </trkpt>
      <trkpt lat="59.8607392" lon="17.7038235">
        <ele>12.6344</ele>
        <time>2013-05-19T17:08:21Z</time>
      </trkpt>
      <trkpt lat="59.8607973" lon="17.7037914">
        <ele>12.6344</ele>
        <time>2013-05-19T17:08:22Z</time>
      </trkpt>
      <trkpt lat="59.8608641" lon="17.7037469">
        <ele>11.6732</ele>
        <time>2013-05-19T17:08:23Z</time>
      </trkpt>
      <trkpt lat="59.860935" lon="17.7037235">
        <ele>11.6732</ele>
        <time>2013-05-19T17:08:24Z</time>
      </trkpt>
      <trkpt lat="59.861004" lon="17.7037269">
        <ele>11.6732</ele>
        <time>2013-05-19T17:08:25Z</time>
      </trkpt>
      <trkpt lat="59.8610679" lon="17.7037282">
        <ele>11.6732</ele>
        <time>2013-05-19T17:08:26Z</time>
      </trkpt>
      <trkpt lat="59.8611339" lon="17.7037168">
        <ele>10.7118</ele>
        <time>2013-05-19T17:08:27Z</time>
      </trkpt>
      <trkpt lat="59.8612037" lon="17.7037193">
        <ele>12.1538</ele>
        <time>2013-05-19T17:08:28Z</time>
      </trkpt>
      <trkpt lat="59.8612642" lon="17.7037343">
        <ele>11.6732</ele>
        <time>2013-05-19T17:08:29Z</time>
      </trkpt>
      <trkpt lat="59.8613224" lon="17.7037459">
        <ele>11.1925</ele>
        <time>2013-05-19T17:08:30Z</time>
      </trkpt>
      <trkpt lat="59.8613892" lon="17.7037686">
        <ele>12.1538</ele>
        <time>2013-05-19T17:08:31Z</time>
      </trkpt>
      <trkpt lat="59.8614561" lon="17.703795">
        <ele>13.5958</ele>
        <time>2013-05-19T17:08:32Z</time>
      </trkpt>
      <trkpt lat="59.8615265" lon="17.7038296">
        <ele>14.0764</ele>
        <time>2013-05-19T17:08:33Z</time>
      </trkpt>
      <trkpt lat="59.8616015" lon="17.703869">
        <ele>15.0377</ele>
        <time>2013-05-19T17:08:34Z</time>
      </trkpt>
      <trkpt lat="59.8616712" lon="17.7039028">
        <ele>15.999</ele>
        <time>2013-05-19T17:08:35Z</time>
      </trkpt>
      <trkpt lat="59.8617403" lon="17.7039404">
        <ele>15.999</ele>
        <time>2013-05-19T17:08:36Z</time>
      </trkpt>
      <trkpt lat="59.8618105" lon="17.7039773">
        <ele>15.5184</ele>
        <time>2013-05-19T17:08:37Z</time>
      </trkpt>
      <trkpt lat="59.8618817" lon="17.7040113">
        <ele>15.5184</ele>
        <time>2013-05-19T17:08:38Z</time>
      </trkpt>
      <trkpt lat="59.8619485" lon="17.7040442">
        <ele>15.999</ele>
        <time>2013-05-19T17:08:39Z</time>
      </trkpt>
      <trkpt lat="59.862012" lon="17.7040737">
        <ele>15.5184</ele>
        <time>2013-05-19T17:08:40Z</time>
      </trkpt>
      <trkpt lat="59.8620754" lon="17.7041021">
        <ele>15.999</ele>
        <time>2013-05-19T17:08:41Z</time>
      </trkpt>
      <trkpt lat="59.8621393" lon="17.7041327">
        <ele>15.999</ele>
        <time>2013-05-19T17:08:42Z</time>
      </trkpt>
      <trkpt lat="59.8622061" lon="17.7041626">
        <ele>17.4412</ele>
        <time>2013-05-19T17:08:43Z</time>
      </trkpt>
      <trkpt lat="59.8622688" lon="17.7041788">
        <ele>15.999</ele>
        <time>2013-05-19T17:08:44Z</time>
      </trkpt>
      <trkpt lat="59.8623336" lon="17.704196">
        <ele>15.5184</ele>
        <time>2013-05-19T17:08:45Z</time>
      </trkpt>
      <trkpt lat="59.8623994" lon="17.7042172">
        <ele>15.5184</ele>
        <time>2013-05-19T17:08:46Z</time>
      </trkpt>
      <trkpt lat="59.8624657" lon="17.7042384">
        <ele>15.5184</ele>
        <time>2013-05-19T17:08:47Z</time>
      </trkpt>
      <trkpt lat="59.8625282" lon="17.7042675">
        <ele>15.0377</ele>
        <time>2013-05-19T17:08:48Z</time>
      </trkpt>
      <trkpt lat="59.8625961" lon="17.7042978">
        <ele>15.5184</ele>
        <time>2013-05-19T17:08:49Z</time>
      </trkpt>
      <trkpt lat="59.8626619" lon="17.7043242">
        <ele>15.5184</ele>
        <time>2013-05-19T17:08:50Z</time>
      </trkpt>
      <trkpt lat="59.8627278" lon="17.7043476">
        <ele>15.0377</ele>
        <time>2013-05-19T17:08:51Z</time>
      </trkpt>
      <trkpt lat="59.8627929" lon="17.7043709">
        <ele>15.999</ele>
        <time>2013-05-19T17:08:52Z</time>
      </trkpt>
      <trkpt lat="59.8628547" lon="17.7043937">
        <ele>15.999</ele>
        <time>2013-05-19T17:08:53Z</time>
      </trkpt>
      <trkpt lat="59.8629167" lon="17.704409">
        <ele>15.999</ele>
        <time>2013-05-19T17:08:54Z</time>
      </trkpt>
      <trkpt lat="59.8629806" lon="17.704413">
        <ele>16.4797</ele>
        <time>2013-05-19T17:08:55Z</time>
      </trkpt>
      <trkpt lat="59.8630415" lon="17.7043965">
        <ele>16.4797</ele>
        <time>2013-05-19T17:08:56Z</time>
      </trkpt>
      <trkpt lat="59.8631029" lon="17.7043643">
        <ele>16.4797</ele>
        <time>2013-05-19T17:08:57Z</time>
      </trkpt>
      <trkpt lat="59.8631629" lon="17.7043239">
        <ele>16.4797</ele>
        <time>2013-05-19T17:08:58Z</time>
      </trkpt>
      <trkpt lat="59.8632195" lon="17.7042747">
        <ele>16.4797</ele>
        <time>2013-05-19T17:08:59Z</time>
      </trkpt>
      <trkpt lat="59.8632789" lon="17.7042177">
        <ele>15.999</ele>
        <time>2013-05-19T17:09:00Z</time>
      </trkpt>
      <trkpt lat="59.8633375" lon="17.704158">
        <ele>14.557</ele>
        <time>2013-05-19T17:09:01Z</time>
      </trkpt>
      <trkpt lat="59.8633943" lon="17.7041047">
        <ele>14.557</ele>
        <time>2013-05-19T17:09:02Z</time>
      </trkpt>
      <trkpt lat="59.8634486" lon="17.7040431">
        <ele>14.0764</ele>
        <time>2013-05-19T17:09:03Z</time>
      </trkpt>
      <trkpt lat="59.8635043" lon="17.70398">
        <ele>13.5958</ele>
        <time>2013-05-19T17:09:04Z</time>
      </trkpt>
      <trkpt lat="59.8635601" lon="17.7039126">
        <ele>13.1151</ele>
        <time>2013-05-19T17:09:05Z</time>
      </trkpt>
      <trkpt lat="59.8636172" lon="17.7038416">
        <ele>13.5958</ele>
        <time>2013-05-19T17:09:06Z</time>
      </trkpt>
      <trkpt lat="59.863672" lon="17.7037747">
        <ele>13.5958</ele>
        <time>2013-05-19T17:09:07Z</time>
      </trkpt>
      <trkpt lat="59.8637277" lon="17.7037067">
        <ele>14.0764</ele>
        <time>2013-05-19T17:09:08Z</time>
      </trkpt>
      <trkpt lat="59.8637843" lon="17.7036375">
        <ele>15.0377</ele>
        <time>2013-05-19T17:09:09Z</time>
      </trkpt>
      <trkpt lat="59.8638382" lon="17.7035681">
        <ele>15.0377</ele>
        <time>2013-05-19T17:09:10Z</time>
      </trkpt>
      <trkpt lat="59.8638919" lon="17.7035054">
        <ele>15.0377</ele>
        <time>2013-05-19T17:09:11Z</time>
      </trkpt>
      <trkpt lat="59.8639517" lon="17.7034484">
        <ele>15.0377</ele>
        <time>2013-05-19T17:09:12Z</time>
      </trkpt>
      <trkpt lat="59.8640083" lon="17.703392">
        <ele>15.5184</ele>
        <time>2013-05-19T17:09:13Z</time>
      </trkpt>
      <trkpt lat="59.8640585" lon="17.7033222">
        <ele>15.0377</ele>
        <time>2013-05-19T17:09:14Z</time>
      </trkpt>
      <trkpt lat="59.8641003" lon="17.7032426">
        <ele>13.5958</ele>
        <time>2013-05-19T17:09:15Z</time>
      </trkpt>
      <trkpt lat="59.8641435" lon="17.7031944">
        <ele>13.1151</ele>
        <time>2013-05-19T17:09:16Z</time>
      </trkpt>
      <trkpt lat="59.8641747" lon="17.7031568">
        <ele>12.6344</ele>
        <time>2013-05-19T17:09:17Z</time>
      </trkpt>
      <trkpt lat="59.864199" lon="17.7031305">
        <ele>12.6344</ele>
        <time>2013-05-19T17:09:18Z</time>
      </trkpt>
      <trkpt lat="59.8642186" lon="17.7031128">
        <ele>12.6344</ele>
        <time>2013-05-19T17:09:19Z</time>
      </trkpt>
      <trkpt lat="59.8642345" lon="17.703106">
        <ele>13.1151</ele>
        <time>2013-05-19T17:09:20Z</time>
      </trkpt>
      <trkpt lat="59.8642457" lon="17.7031049">
        <ele>14.0764</ele>
        <time>2013-05-19T17:09:21Z</time>
      </trkpt>
      <trkpt lat="59.8642497" lon="17.7031012">
        <ele>13.1151</ele>
        <time>2013-05-19T17:09:22Z</time>
      </trkpt>
      <trkpt lat="59.8642514" lon="17.7030827">
        <ele>11.6732</ele>
        <time>2013-05-19T17:09:23Z</time>
      </trkpt>
      <trkpt lat="59.864257" lon="17.7030632">
        <ele>12.1538</ele>
        <time>2013-05-19T17:09:24Z</time>
      </trkpt>
      <trkpt lat="59.8642648" lon="17.7030385">
        <ele>12.6344</ele>
        <time>2013-05-19T17:09:25Z</time>
      </trkpt>
      <trkpt lat="59.8642712" lon="17.7030227">
        <ele>12.6344</ele>
        <time>2013-05-19T17:09:26Z</time>
      </trkpt>
      <trkpt lat="59.8642812" lon="17.7030241">
        <ele>13.1151</ele>
        <time>2013-05-19T17:09:27Z</time>
      </trkpt>
      <trkpt lat="59.8642936" lon="17.7030252">
        <ele>13.5958</ele>
        <time>2013-05-19T17:09:28Z</time>
      </trkpt>
      <trkpt lat="59.8643115" lon="17.7029991">
        <ele>13.5958</ele>
        <time>2013-05-19T17:09:29Z</time>
      </trkpt>
      <trkpt lat="59.864327" lon="17.7029647">
        <ele>13.5958</ele>
        <time>2013-05-19T17:09:30Z</time>
      </trkpt>
      <trkpt lat="59.8643283" lon="17.7028997">
        <ele>13.5958</ele>
        <time>2013-05-19T17:09:31Z</time>
      </trkpt>
      <trkpt lat="59.8643181" lon="17.7028261">
        <ele>12.6344</ele>
        <time>2013-05-19T17:09:32Z</time>
      </trkpt>
      <trkpt lat="59.8642912" lon="17.7027434">
        <ele>12.6344</ele>
        <time>2013-05-19T17:09:33Z</time>
      </trkpt>
      <trkpt lat="59.8642672" lon="17.7026496">
        <ele>12.6344</ele>
        <time>2013-05-19T17:09:34Z</time>
      </trkpt>
      <trkpt lat="59.8642495" lon="17.7025426">
        <ele>13.1151</ele>
        <time>2013-05-19T17:09:35Z</time>
      </trkpt>
      <trkpt lat="59.8642404" lon="17.7024264">
        <ele>13.1151</ele>
        <time>2013-05-19T17:09:36Z</time>
      </trkpt>
      <trkpt lat="59.8642324" lon="17.702304">
        <ele>13.1151</ele>
        <time>2013-05-19T17:09:37Z</time>
      </trkpt>
      <trkpt lat="59.8642184" lon="17.7021799">
        <ele>12.6344</ele>
        <time>2013-05-19T17:09:38Z</time>
      </trkpt>
      <trkpt lat="59.8641901" lon="17.702067">
        <ele>13.5958</ele>
        <time>2013-05-19T17:09:39Z</time>
      </trkpt>
      <trkpt lat="59.8641555" lon="17.7019525">
        <ele>13.1151</ele>
        <time>2013-05-19T17:09:40Z</time>
      </trkpt>
      <trkpt lat="59.8641192" lon="17.7018332">
        <ele>13.1151</ele>
        <time>2013-05-19T17:09:41Z</time>
      </trkpt>
      <trkpt lat="59.8640793" lon="17.7017139">
        <ele>13.1151</ele>
        <time>2013-05-19T17:09:42Z</time>
      </trkpt>
      <trkpt lat="59.8640394" lon="17.7015914">
        <ele>13.5958</ele>
        <time>2013-05-19T17:09:43Z</time>
      </trkpt>
      <trkpt lat="59.863997" lon="17.701465">
        <ele>14.0764</ele>
        <time>2013-05-19T17:09:44Z</time>
      </trkpt>
      <trkpt lat="59.8639581" lon="17.7013392">
        <ele>14.0764</ele>
        <time>2013-05-19T17:09:45Z</time>
      </trkpt>
      <trkpt lat="59.8639166" lon="17.7012127">
        <ele>14.0764</ele>
        <time>2013-05-19T17:09:46Z</time>
      </trkpt>
      <trkpt lat="59.8638752" lon="17.7010879">
        <ele>14.0764</ele>
        <time>2013-05-19T17:09:47Z</time>
      </trkpt>
      <trkpt lat="59.8638348" lon="17.7009631">
        <ele>14.0764</ele>
        <time>2013-05-19T17:09:48Z</time>
      </trkpt>
      <trkpt lat="59.8637933" lon="17.700838">
        <ele>14.557</ele>
        <time>2013-05-19T17:09:49Z</time>
      </trkpt>
      <trkpt lat="59.8637489" lon="17.700707">
        <ele>13.5958</ele>
        <time>2013-05-19T17:09:50Z</time>
      </trkpt>
      <trkpt lat="59.8637113" lon="17.7005725">
        <ele>13.5958</ele>
        <time>2013-05-19T17:09:51Z</time>
      </trkpt>
      <trkpt lat="59.8636745" lon="17.7004394">
        <ele>13.5958</ele>
        <time>2013-05-19T17:09:52Z</time>
      </trkpt>
      <trkpt lat="59.8636377" lon="17.7003079">
        <ele>13.5958</ele>
        <time>2013-05-19T17:09:53Z</time>
      </trkpt>
      <trkpt lat="59.8636017" lon="17.7001731">
        <ele>14.0764</ele>
        <time>2013-05-19T17:09:54Z</time>
      </trkpt>
      <trkpt lat="59.863567" lon="17.700033">
        <ele>14.0764</ele>
        <time>2013-05-19T17:09:55Z</time>
      </trkpt>
      <trkpt lat="59.8635324" lon="17.6998921">
        <ele>14.557</ele>
        <time>2013-05-19T17:09:56Z</time>
      </trkpt>
      <trkpt lat="59.8634968" lon="17.6997457">
        <ele>14.0764</ele>
        <time>2013-05-19T17:09:57Z</time>
      </trkpt>
      <trkpt lat="59.8634635" lon="17.6995981">
        <ele>14.0764</ele>
        <time>2013-05-19T17:09:58Z</time>
      </trkpt>
      <trkpt lat="59.8634319" lon="17.6994459">
        <ele>14.557</ele>
        <time>2013-05-19T17:09:59Z</time>
      </trkpt>
      <trkpt lat="59.8634003" lon="17.6992914">
        <ele>14.557</ele>
        <time>2013-05-19T17:10:00Z</time>
      </trkpt>
      <trkpt lat="59.8633697" lon="17.6991335">
        <ele>14.0764</ele>
        <time>2013-05-19T17:10:01Z</time>
      </trkpt>
      <trkpt lat="59.8633414" lon="17.6989739">
        <ele>14.0764</ele>
        <time>2013-05-19T17:10:02Z</time>
      </trkpt>
      <trkpt lat="59.8633109" lon="17.6988137">
        <ele>14.557</ele>
        <time>2013-05-19T17:10:03Z</time>
      </trkpt>
      <trkpt lat="59.8632815" lon="17.6986496">
        <ele>14.0764</ele>
        <time>2013-05-19T17:10:04Z</time>
      </trkpt>
      <trkpt lat="59.8632551" lon="17.6984829">
        <ele>14.0764</ele>
        <time>2013-05-19T17:10:05Z</time>
      </trkpt>
      <trkpt lat="59.8632297" lon="17.6983144">
        <ele>14.0764</ele>
        <time>2013-05-19T17:10:06Z</time>
      </trkpt>
      <trkpt lat="59.8632053" lon="17.6981462">
        <ele>14.0764</ele>
        <time>2013-05-19T17:10:07Z</time>
      </trkpt>
      <trkpt lat="59.8631815" lon="17.6979788">
        <ele>13.5958</ele>
        <time>2013-05-19T17:10:08Z</time>
      </trkpt>
      <trkpt lat="59.8631593" lon="17.697812">
        <ele>13.5958</ele>
        <time>2013-05-19T17:10:09Z</time>
      </trkpt>
      <trkpt lat="59.8631397" lon="17.6976457">
        <ele>13.1151</ele>
        <time>2013-05-19T17:10:10Z</time>
      </trkpt>
      <trkpt lat="59.8631235" lon="17.6974795">
        <ele>13.1151</ele>
        <time>2013-05-19T17:10:11Z</time>
      </trkpt>
      <trkpt lat="59.8631075" lon="17.6973167">
        <ele>13.1151</ele>
        <time>2013-05-19T17:10:12Z</time>
      </trkpt>
      <trkpt lat="59.8630884" lon="17.6971529">
        <ele>12.1538</ele>
        <time>2013-05-19T17:10:13Z</time>
      </trkpt>
      <trkpt lat="59.8630698" lon="17.696993">
        <ele>11.1925</ele>
        <time>2013-05-19T17:10:14Z</time>
      </trkpt>
      <trkpt lat="59.8630525" lon="17.6968366">
        <ele>11.6732</ele>
        <time>2013-05-19T17:10:15Z</time>
      </trkpt>
      <trkpt lat="59.863036" lon="17.6966822">
        <ele>11.6732</ele>
        <time>2013-05-19T17:10:16Z</time>
      </trkpt>
      <trkpt lat="59.8630215" lon="17.6965304">
        <ele>11.6732</ele>
        <time>2013-05-19T17:10:17Z</time>
      </trkpt>
      <trkpt lat="59.863007" lon="17.6963805">
        <ele>12.1538</ele>
        <time>2013-05-19T17:10:18Z</time>
      </trkpt>
      <trkpt lat="59.8629902" lon="17.6962326">
        <ele>12.1538</ele>
        <time>2013-05-19T17:10:19Z</time>
      </trkpt>
      <trkpt lat="59.8629727" lon="17.696084">
        <ele>12.1538</ele>
        <time>2013-05-19T17:10:20Z</time>
      </trkpt>
      <trkpt lat="59.8629571" lon="17.6959326">
        <ele>12.1538</ele>
        <time>2013-05-19T17:10:21Z</time>
      </trkpt>
      <trkpt lat="59.8629401" lon="17.6957835">
        <ele>12.6344</ele>
        <time>2013-05-19T17:10:22Z</time>
      </trkpt>
      <trkpt lat="59.8629235" lon="17.6956285">
        <ele>12.1538</ele>
        <time>2013-05-19T17:10:23Z</time>
      </trkpt>
      <trkpt lat="59.8629068" lon="17.6954717">
        <ele>11.1925</ele>
        <time>2013-05-19T17:10:24Z</time>
      </trkpt>
      <trkpt lat="59.8628884" lon="17.6953172">
        <ele>11.1925</ele>
        <time>2013-05-19T17:10:25Z</time>
      </trkpt>
      <trkpt lat="59.8628661" lon="17.6951585">
        <ele>10.7118</ele>
        <time>2013-05-19T17:10:26Z</time>
      </trkpt>
      <trkpt lat="59.862848" lon="17.6950013">
        <ele>11.1925</ele>
        <time>2013-05-19T17:10:27Z</time>
      </trkpt>
      <trkpt lat="59.8628276" lon="17.6948389">
        <ele>10.2312</ele>
        <time>2013-05-19T17:10:28Z</time>
      </trkpt>
      <trkpt lat="59.8628103" lon="17.6946805">
        <ele>10.7118</ele>
        <time>2013-05-19T17:10:29Z</time>
      </trkpt>
      <trkpt lat="59.8627944" lon="17.6945221">
        <ele>10.7118</ele>
        <time>2013-05-19T17:10:30Z</time>
      </trkpt>
      <trkpt lat="59.8627786" lon="17.6943651">
        <ele>11.1925</ele>
        <time>2013-05-19T17:10:31Z</time>
      </trkpt>
      <trkpt lat="59.862762" lon="17.6942097">
        <ele>11.1925</ele>
        <time>2013-05-19T17:10:32Z</time>
      </trkpt>
      <trkpt lat="59.8627405" lon="17.6940548">
        <ele>11.6732</ele>
        <time>2013-05-19T17:10:33Z</time>
      </trkpt>
      <trkpt lat="59.862717" lon="17.6939015">
        <ele>12.1538</ele>
        <time>2013-05-19T17:10:34Z</time>
      </trkpt>
      <trkpt lat="59.8626952" lon="17.6937518">
        <ele>13.1151</ele>
        <time>2013-05-19T17:10:35Z</time>
      </trkpt>
      <trkpt lat="59.8626718" lon="17.6935995">
        <ele>13.1151</ele>
        <time>2013-05-19T17:10:36Z</time>
      </trkpt>
      <trkpt lat="59.8626485" lon="17.6934458">
        <ele>13.5958</ele>
        <time>2013-05-19T17:10:37Z</time>
      </trkpt>
      <trkpt lat="59.8626224" lon="17.6932908">
        <ele>13.5958</ele>
        <time>2013-05-19T17:10:38Z</time>
      </trkpt>
      <trkpt lat="59.8625947" lon="17.6931398">
        <ele>13.1151</ele>
        <time>2013-05-19T17:10:39Z</time>
      </trkpt>
      <trkpt lat="59.8625682" lon="17.6929901">
        <ele>12.1538</ele>
        <time>2013-05-19T17:10:40Z</time>
      </trkpt>
      <trkpt lat="59.8625382" lon="17.6928463">
        <ele>12.1538</ele>
        <time>2013-05-19T17:10:41Z</time>
      </trkpt>
      <trkpt lat="59.8625055" lon="17.6927055">
        <ele>12.6344</ele>
        <time>2013-05-19T17:10:42Z</time>
      </trkpt>
      <trkpt lat="59.8624715" lon="17.6925682">
        <ele>12.6344</ele>
        <time>2013-05-19T17:10:43Z</time>
      </trkpt>
      <trkpt lat="59.8624385" lon="17.6924335">
        <ele>12.6344</ele>
        <time>2013-05-19T17:10:44Z</time>
      </trkpt>
      <trkpt lat="59.8624056" lon="17.6923066">
        <ele>12.6344</ele>
        <time>2013-05-19T17:10:45Z</time>
      </trkpt>
      <trkpt lat="59.8623786" lon="17.6921849">
        <ele>12.1538</ele>
        <time>2013-05-19T17:10:46Z</time>
      </trkpt>
      <trkpt lat="59.8623661" lon="17.6920611">
        <ele>12.1538</ele>
        <time>2013-05-19T17:10:47Z</time>
      </trkpt>
      <trkpt lat="59.8623681" lon="17.6919358">
        <ele>12.1538</ele>
        <time>2013-05-19T17:10:48Z</time>
      </trkpt>
      <trkpt lat="59.862396" lon="17.6918296">
        <ele>12.1538</ele>
        <time>2013-05-19T17:10:49Z</time>
      </trkpt>
      <trkpt lat="59.8624326" lon="17.6917346">
        <ele>12.1538</ele>
        <time>2013-05-19T17:10:50Z</time>
      </trkpt>
      <trkpt lat="59.8624852" lon="17.6916782">
        <ele>12.1538</ele>
        <time>2013-05-19T17:10:51Z</time>
      </trkpt>
      <trkpt lat="59.8625411" lon="17.6916342">
        <ele>12.1538</ele>
        <time>2013-05-19T17:10:52Z</time>
      </trkpt>
      <trkpt lat="59.8625978" lon="17.6915925">
        <ele>12.1538</ele>
        <time>2013-05-19T17:10:53Z</time>
      </trkpt>
      <trkpt lat="59.8626573" lon="17.6915517">
        <ele>12.1538</ele>
        <time>2013-05-19T17:10:54Z</time>
      </trkpt>
      <trkpt lat="59.862719" lon="17.691515">
        <ele>12.1538</ele>
        <time>2013-05-19T17:10:55Z</time>
      </trkpt>
      <trkpt lat="59.862778" lon="17.6914778">
        <ele>11.6732</ele>
        <time>2013-05-19T17:10:56Z</time>
      </trkpt>
      <trkpt lat="59.8628358" lon="17.6914371">
        <ele>11.6732</ele>
        <time>2013-05-19T17:10:57Z</time>
      </trkpt>
      <trkpt lat="59.8628914" lon="17.6913948">
        <ele>11.6732</ele>
        <time>2013-05-19T17:10:58Z</time>
      </trkpt>
      <trkpt lat="59.8629458" lon="17.6913534">
        <ele>11.6732</ele>
        <time>2013-05-19T17:10:59Z</time>
      </trkpt>
      <trkpt lat="59.8629997" lon="17.6913221">
        <ele>12.6344</ele>
        <time>2013-05-19T17:11:00Z</time>
      </trkpt>
      <trkpt lat="59.8630521" lon="17.6912875">
        <ele>14.0764</ele>
        <time>2013-05-19T17:11:01Z</time>
      </trkpt>
      <trkpt lat="59.8631038" lon="17.6912447">
        <ele>14.0764</ele>
        <time>2013-05-19T17:11:02Z</time>
      </trkpt>
      <trkpt lat="59.8631566" lon="17.6912006">
        <ele>14.557</ele>
        <time>2013-05-19T17:11:03Z</time>
      </trkpt>
      <trkpt lat="59.8632073" lon="17.691152">
        <ele>15.0377</ele>
        <time>2013-05-19T17:11:04Z</time>
      </trkpt>
      <trkpt lat="59.8632551" lon="17.6910928">
        <ele>15.5184</ele>
        <time>2013-05-19T17:11:05Z</time>
      </trkpt>
      <trkpt lat="59.8633032" lon="17.6910355">
        <ele>15.5184</ele>
        <time>2013-05-19T17:11:06Z</time>
      </trkpt>
      <trkpt lat="59.8633526" lon="17.6909845">
        <ele>16.4797</ele>
        <time>2013-05-19T17:11:07Z</time>
      </trkpt>
      <trkpt lat="59.8634013" lon="17.6909279">
        <ele>15.999</ele>
        <time>2013-05-19T17:11:08Z</time>
      </trkpt>
      <trkpt lat="59.8634529" lon="17.6908751">
        <ele>15.999</ele>
        <time>2013-05-19T17:11:09Z</time>
      </trkpt>
      <trkpt lat="59.8635042" lon="17.6908207">
        <ele>15.999</ele>
        <time>2013-05-19T17:11:10Z</time>
      </trkpt>
      <trkpt lat="59.8635566" lon="17.6907615">
        <ele>15.999</ele>
        <time>2013-05-19T17:11:11Z</time>
      </trkpt>
      <trkpt lat="59.8636088" lon="17.6907009">
        <ele>15.999</ele>
        <time>2013-05-19T17:11:12Z</time>
      </trkpt>
      <trkpt lat="59.8636632" lon="17.6906365">
        <ele>15.999</ele>
        <time>2013-05-19T17:11:13Z</time>
      </trkpt>
      <trkpt lat="59.8637202" lon="17.6905752">
        <ele>15.999</ele>
        <time>2013-05-19T17:11:14Z</time>
      </trkpt>
      <trkpt lat="59.8637727" lon="17.6905091">
        <ele>15.0377</ele>
        <time>2013-05-19T17:11:15Z</time>
      </trkpt>
      <trkpt lat="59.8638294" lon="17.6904488">
        <ele>14.557</ele>
        <time>2013-05-19T17:11:16Z</time>
      </trkpt>
      <trkpt lat="59.863884" lon="17.6903898">
        <ele>14.557</ele>
        <time>2013-05-19T17:11:17Z</time>
      </trkpt>
      <trkpt lat="59.8639378" lon="17.6903219">
        <ele>13.5958</ele>
        <time>2013-05-19T17:11:18Z</time>
      </trkpt>
      <trkpt lat="59.8639938" lon="17.6902576">
        <ele>12.6344</ele>
        <time>2013-05-19T17:11:19Z</time>
      </trkpt>
      <trkpt lat="59.8640554" lon="17.6901986">
        <ele>12.6344</ele>
        <time>2013-05-19T17:11:20Z</time>
      </trkpt>
      <trkpt lat="59.8641176" lon="17.6901448">
        <ele>12.1538</ele>
        <time>2013-05-19T17:11:21Z</time>
      </trkpt>
      <trkpt lat="59.8641798" lon="17.6900936">
        <ele>12.1538</ele>
        <time>2013-05-19T17:11:22Z</time>
      </trkpt>
      <trkpt lat="59.8642386" lon="17.6900406">
        <ele>11.1925</ele>
        <time>2013-05-19T17:11:23Z</time>
      </trkpt>
      <trkpt lat="59.8642966" lon="17.6899879">
        <ele>10.7118</ele>
        <time>2013-05-19T17:11:24Z</time>
      </trkpt>
      <trkpt lat="59.8643536" lon="17.6899408">
        <ele>10.2312</ele>
        <time>2013-05-19T17:11:25Z</time>
      </trkpt>
      <trkpt lat="59.8644129" lon="17.6898942">
        <ele>11.1925</ele>
        <time>2013-05-19T17:11:26Z</time>
      </trkpt>
      <trkpt lat="59.8644699" lon="17.6898427">
        <ele>11.1925</ele>
        <time>2013-05-19T17:11:27Z</time>
      </trkpt>
      <trkpt lat="59.8645249" lon="17.6897905">
        <ele>11.1925</ele>
        <time>2013-05-19T17:11:28Z</time>
      </trkpt>
      <trkpt lat="59.8645796" lon="17.6897413">
        <ele>10.7118</ele>
        <time>2013-05-19T17:11:29Z</time>
      </trkpt>
      <trkpt lat="59.8646339" lon="17.689691">
        <ele>10.7118</ele>
        <time>2013-05-19T17:11:30Z</time>
      </trkpt>
      <trkpt lat="59.8646869" lon="17.6896351">
        <ele>10.2312</ele>
        <time>2013-05-19T17:11:31Z</time>
      </trkpt>
      <trkpt lat="59.8647361" lon="17.6895676">
        <ele>10.7118</ele>
        <time>2013-05-19T17:11:32Z</time>
      </trkpt>
      <trkpt lat="59.8647732" lon="17.6894746">
        <ele>11.1925</ele>
        <time>2013-05-19T17:11:33Z</time>
      </trkpt>
      <trkpt lat="59.8648018" lon="17.6893379">
        <ele>11.1925</ele>
        <time>2013-05-19T17:11:34Z</time>
      </trkpt>
      <trkpt lat="59.8648024" lon="17.6891996">
        <ele>11.1925</ele>
        <time>2013-05-19T17:11:35Z</time>
      </trkpt>
      <trkpt lat="59.8647703" lon="17.6890834">
        <ele>11.6732</ele>
        <time>2013-05-19T17:11:36Z</time>
      </trkpt>
      <trkpt lat="59.8647584" lon="17.6889543">
        <ele>11.1925</ele>
        <time>2013-05-19T17:11:37Z</time>
      </trkpt>
      <trkpt lat="59.8647426" lon="17.6888303">
        <ele>11.1925</ele>
        <time>2013-05-19T17:11:38Z</time>
      </trkpt>
      <trkpt lat="59.8647309" lon="17.6887103">
        <ele>11.6732</ele>
        <time>2013-05-19T17:11:39Z</time>
      </trkpt>
      <trkpt lat="59.8647224" lon="17.6885997">
        <ele>11.6732</ele>
        <time>2013-05-19T17:11:40Z</time>
      </trkpt>
      <trkpt lat="59.8647245" lon="17.6885017">
        <ele>11.6732</ele>
        <time>2013-05-19T17:11:41Z</time>
      </trkpt>
      <trkpt lat="59.8647382" lon="17.6884246">
        <ele>11.1925</ele>
        <time>2013-05-19T17:11:42Z</time>
      </trkpt>
      <trkpt lat="59.8647753" lon="17.6883956">
        <ele>12.1538</ele>
        <time>2013-05-19T17:11:43Z</time>
      </trkpt>
      <trkpt lat="59.8648173" lon="17.6883692">
        <ele>13.1151</ele>
        <time>2013-05-19T17:11:44Z</time>
      </trkpt>
      <trkpt lat="59.8648652" lon="17.6883417">
        <ele>13.5958</ele>
        <time>2013-05-19T17:11:45Z</time>
      </trkpt>
      <trkpt lat="59.8649198" lon="17.6883163">
        <ele>14.557</ele>
        <time>2013-05-19T17:11:46Z</time>
      </trkpt>
      <trkpt lat="59.8649744" lon="17.6882858">
        <ele>13.5958</ele>
        <time>2013-05-19T17:11:47Z</time>
      </trkpt>
      <trkpt lat="59.8650355" lon="17.6882609">
        <ele>14.0764</ele>
        <time>2013-05-19T17:11:48Z</time>
      </trkpt>
      <trkpt lat="59.8650918" lon="17.6882365">
        <ele>14.0764</ele>
        <time>2013-05-19T17:11:49Z</time>
      </trkpt>
      <trkpt lat="59.8651448" lon="17.688202">
        <ele>14.0764</ele>
        <time>2013-05-19T17:11:50Z</time>
      </trkpt>
      <trkpt lat="59.8651945" lon="17.6881742">
        <ele>14.0764</ele>
        <time>2013-05-19T17:11:51Z</time>
      </trkpt>
      <trkpt lat="59.865234" lon="17.6881231">
        <ele>13.1151</ele>
        <time>2013-05-19T17:11:52Z</time>
      </trkpt>
      <trkpt lat="59.8652695" lon="17.6880556">
        <ele>13.1151</ele>
        <time>2013-05-19T17:11:53Z</time>
      </trkpt>
      <trkpt lat="59.8652935" lon="17.6879812">
        <ele>12.6344</ele>
        <time>2013-05-19T17:11:54Z</time>
      </trkpt>
      <trkpt lat="59.8653018" lon="17.6878991">
        <ele>11.1925</ele>
        <time>2013-05-19T17:11:55Z</time>
      </trkpt>
      <trkpt lat="59.8652832" lon="17.6877725">
        <ele>8.78918</ele>
        <time>2013-05-19T17:11:56Z</time>
      </trkpt>
      <trkpt lat="59.8652246" lon="17.6876212">
        <ele>8.78918</ele>
        <time>2013-05-19T17:11:57Z</time>
      </trkpt>
      <trkpt lat="59.8651799" lon="17.6874614">
        <ele>9.75061</ele>
        <time>2013-05-19T17:11:58Z</time>
      </trkpt>
      <trkpt lat="59.8651349" lon="17.6872943">
        <ele>10.7118</ele>
        <time>2013-05-19T17:11:59Z</time>
      </trkpt>
      <trkpt lat="59.8651287" lon="17.6871496">
        <ele>11.1925</ele>
        <time>2013-05-19T17:12:00Z</time>
      </trkpt>
      <trkpt lat="59.8651364" lon="17.6870033">
        <ele>11.1925</ele>
        <time>2013-05-19T17:12:01Z</time>
      </trkpt>
      <trkpt lat="59.8651412" lon="17.6868426">
        <ele>10.7118</ele>
        <time>2013-05-19T17:12:02Z</time>
      </trkpt>
      <trkpt lat="59.865154" lon="17.6867044">
        <ele>10.7118</ele>
        <time>2013-05-19T17:12:03Z</time>
      </trkpt>
      <trkpt lat="59.8651618" lon="17.6865601">
        <ele>11.1925</ele>
        <time>2013-05-19T17:12:04Z</time>
      </trkpt>
      <trkpt lat="59.8651826" lon="17.6864443">
        <ele>10.7118</ele>
        <time>2013-05-19T17:12:05Z</time>
      </trkpt>
      <trkpt lat="59.8651786" lon="17.6862926">
        <ele>10.7118</ele>
        <time>2013-05-19T17:12:06Z</time>
      </trkpt>
      <trkpt lat="59.8651947" lon="17.6861603">
        <ele>11.6732</ele>
        <time>2013-05-19T17:12:07Z</time>
      </trkpt>
      <trkpt lat="59.8652009" lon="17.6860493">
        <ele>12.1538</ele>
        <time>2013-05-19T17:12:08Z</time>
      </trkpt>
      <trkpt lat="59.8652028" lon="17.6859238">
        <ele>13.1151</ele>
        <time>2013-05-19T17:12:09Z</time>
      </trkpt>
      <trkpt lat="59.8651949" lon="17.6857885">
        <ele>13.1151</ele>
        <time>2013-05-19T17:12:10Z</time>
      </trkpt>
      <trkpt lat="59.8651926" lon="17.6856588">
        <ele>13.5958</ele>
        <time>2013-05-19T17:12:11Z</time>
      </trkpt>
      <trkpt lat="59.8651816" lon="17.6855479">
        <ele>13.5958</ele>
        <time>2013-05-19T17:12:12Z</time>
      </trkpt>
      <trkpt lat="59.8651733" lon="17.6854254">
        <ele>14.0764</ele>
        <time>2013-05-19T17:12:13Z</time>
      </trkpt>
      <trkpt lat="59.8651646" lon="17.6853008">
        <ele>14.557</ele>
        <time>2013-05-19T17:12:14Z</time>
      </trkpt>
      <trkpt lat="59.8651547" lon="17.6851797">
        <ele>14.557</ele>
        <time>2013-05-19T17:12:15Z</time>
      </trkpt>
      <trkpt lat="59.8651407" lon="17.6850591">
        <ele>15.0377</ele>
        <time>2013-05-19T17:12:16Z</time>
      </trkpt>
      <trkpt lat="59.8651179" lon="17.684943">
        <ele>14.0764</ele>
        <time>2013-05-19T17:12:17Z</time>
      </trkpt>
      <trkpt lat="59.8651056" lon="17.6848235">
        <ele>14.0764</ele>
        <time>2013-05-19T17:12:18Z</time>
      </trkpt>
      <trkpt lat="59.8650934" lon="17.6847031">
        <ele>14.557</ele>
        <time>2013-05-19T17:12:19Z</time>
      </trkpt>
      <trkpt lat="59.8650874" lon="17.6845806">
        <ele>13.5958</ele>
        <time>2013-05-19T17:12:20Z</time>
      </trkpt>
      <trkpt lat="59.8650916" lon="17.6844609">
        <ele>14.0764</ele>
        <time>2013-05-19T17:12:21Z</time>
      </trkpt>
      <trkpt lat="59.8651132" lon="17.6843571">
        <ele>14.0764</ele>
        <time>2013-05-19T17:12:22Z</time>
      </trkpt>
      <trkpt lat="59.8651359" lon="17.6842653">
        <ele>14.0764</ele>
        <time>2013-05-19T17:12:23Z</time>
      </trkpt>
      <trkpt lat="59.865139" lon="17.6841658">
        <ele>15.5184</ele>
        <time>2013-05-19T17:12:24Z</time>
      </trkpt>
      <trkpt lat="59.8651338" lon="17.6840635">
        <ele>15.999</ele>
        <time>2013-05-19T17:12:25Z</time>
      </trkpt>
      <trkpt lat="59.8651174" lon="17.683961">
        <ele>15.999</ele>
        <time>2013-05-19T17:12:26Z</time>
      </trkpt>
      <trkpt lat="59.865092" lon="17.6838533">
        <ele>16.9604</ele>
        <time>2013-05-19T17:12:27Z</time>
      </trkpt>
      <trkpt lat="59.8650768" lon="17.6837448">
        <ele>16.9604</ele>
        <time>2013-05-19T17:12:28Z</time>
      </trkpt>
      <trkpt lat="59.8650687" lon="17.6836342">
        <ele>17.4412</ele>
        <time>2013-05-19T17:12:29Z</time>
      </trkpt>
      <trkpt lat="59.8650517" lon="17.683509">
        <ele>16.9604</ele>
        <time>2013-05-19T17:12:30Z</time>
      </trkpt>
      <trkpt lat="59.8650441" lon="17.6833894">
        <ele>17.4412</ele>
        <time>2013-05-19T17:12:31Z</time>
      </trkpt>
      <trkpt lat="59.8650367" lon="17.6832611">
        <ele>16.9604</ele>
        <time>2013-05-19T17:12:32Z</time>
      </trkpt>
      <trkpt lat="59.8650481" lon="17.6831425">
        <ele>17.4412</ele>
        <time>2013-05-19T17:12:33Z</time>
      </trkpt>
      <trkpt lat="59.8650731" lon="17.6830311">
        <ele>17.4412</ele>
        <time>2013-05-19T17:12:34Z</time>
      </trkpt>
      <trkpt lat="59.8651086" lon="17.6829305">
        <ele>18.4023</ele>
        <time>2013-05-19T17:12:35Z</time>
      </trkpt>
      <trkpt lat="59.8651543" lon="17.6828383">
        <ele>17.4412</ele>
        <time>2013-05-19T17:12:36Z</time>
      </trkpt>
      <trkpt lat="59.8652042" lon="17.6827669">
        <ele>16.9604</ele>
        <time>2013-05-19T17:12:37Z</time>
      </trkpt>
      <trkpt lat="59.8652603" lon="17.6827082">
        <ele>17.4412</ele>
        <time>2013-05-19T17:12:38Z</time>
      </trkpt>
      <trkpt lat="59.865319" lon="17.6826545">
        <ele>16.9604</ele>
        <time>2013-05-19T17:12:39Z</time>
      </trkpt>
      <trkpt lat="59.8653784" lon="17.6826066">
        <ele>16.9604</ele>
        <time>2013-05-19T17:12:40Z</time>
      </trkpt>
      <trkpt lat="59.865441" lon="17.6825732">
        <ele>17.4412</ele>
        <time>2013-05-19T17:12:41Z</time>
      </trkpt>
      <trkpt lat="59.8654934" lon="17.6825237">
        <ele>15.5184</ele>
        <time>2013-05-19T17:12:42Z</time>
      </trkpt>
      <trkpt lat="59.8655473" lon="17.6824773">
        <ele>14.557</ele>
        <time>2013-05-19T17:12:43Z</time>
      </trkpt>
      <trkpt lat="59.865599" lon="17.6824783">
        <ele>14.0764</ele>
        <time>2013-05-19T17:12:44Z</time>
      </trkpt>
      <trkpt lat="59.8656653" lon="17.682431">
        <ele>13.1151</ele>
        <time>2013-05-19T17:12:45Z</time>
      </trkpt>
      <trkpt lat="59.8657308" lon="17.6823915">
        <ele>12.6344</ele>
        <time>2013-05-19T17:12:46Z</time>
      </trkpt>
      <trkpt lat="59.8657954" lon="17.6823381">
        <ele>11.6732</ele>
        <time>2013-05-19T17:12:47Z</time>
      </trkpt>
      <trkpt lat="59.8658639" lon="17.6822971">
        <ele>11.1925</ele>
        <time>2013-05-19T17:12:48Z</time>
      </trkpt>
      <trkpt lat="59.8659204" lon="17.682252">
        <ele>11.1925</ele>
        <time>2013-05-19T17:12:49Z</time>
      </trkpt>
      <trkpt lat="59.8659836" lon="17.68221">
        <ele>10.7118</ele>
        <time>2013-05-19T17:12:50Z</time>
      </trkpt>
      <trkpt lat="59.8660647" lon="17.6822033">
        <ele>8.78918</ele>
        <time>2013-05-19T17:12:51Z</time>
      </trkpt>
      <trkpt lat="59.8661385" lon="17.6822057">
        <ele>8.78918</ele>
        <time>2013-05-19T17:12:52Z</time>
      </trkpt>
      <trkpt lat="59.8661994" lon="17.6822509">
        <ele>9.2699</ele>
        <time>2013-05-19T17:12:53Z</time>
      </trkpt>
      <trkpt lat="59.8662652" lon="17.6822995">
        <ele>9.2699</ele>
        <time>2013-05-19T17:12:54Z</time>
      </trkpt>
      <trkpt lat="59.8663196" lon="17.6823383">
        <ele>9.2699</ele>
        <time>2013-05-19T17:12:55Z</time>
      </trkpt>
      <trkpt lat="59.8663767" lon="17.6823504">
        <ele>9.75061</ele>
        <time>2013-05-19T17:12:56Z</time>
      </trkpt>
      <trkpt lat="59.8664144" lon="17.6823105">
        <ele>8.78918</ele>
        <time>2013-05-19T17:12:57Z</time>
      </trkpt>
      <trkpt lat="59.866462" lon="17.6822907">
        <ele>10.2312</ele>
        <time>2013-05-19T17:12:58Z</time>
      </trkpt>
      <trkpt lat="59.8665024" lon="17.6822546">
        <ele>9.75061</ele>
        <time>2013-05-19T17:12:59Z</time>
      </trkpt>
      <trkpt lat="59.8665626" lon="17.6822598">
        <ele>11.1925</ele>
        <time>2013-05-19T17:13:00Z</time>
      </trkpt>
      <trkpt lat="59.8666164" lon="17.6822717">
        <ele>9.75061</ele>
        <time>2013-05-19T17:13:01Z</time>
      </trkpt>
      <trkpt lat="59.8666798" lon="17.6822819">
        <ele>10.7118</ele>
        <time>2013-05-19T17:13:02Z</time>
      </trkpt>
      <trkpt lat="59.8667406" lon="17.6822725">
        <ele>11.6732</ele>
        <time>2013-05-19T17:13:03Z</time>
      </trkpt>
      <trkpt lat="59.8668159" lon="17.6822717">
        <ele>13.5958</ele>
        <time>2013-05-19T17:13:04Z</time>
      </trkpt>
      <trkpt lat="59.8668859" lon="17.6822238">
        <ele>15.999</ele>
        <time>2013-05-19T17:13:05Z</time>
      </trkpt>
      <trkpt lat="59.8669413" lon="17.6821826">
        <ele>15.999</ele>
        <time>2013-05-19T17:13:06Z</time>
      </trkpt>
      <trkpt lat="59.866991" lon="17.6821122">
        <ele>15.999</ele>
        <time>2013-05-19T17:13:07Z</time>
      </trkpt>
      <trkpt lat="59.8670469" lon="17.6820313">
        <ele>15.999</ele>
        <time>2013-05-19T17:13:08Z</time>
      </trkpt>
      <trkpt lat="59.867096" lon="17.6819853">
        <ele>15.0377</ele>
        <time>2013-05-19T17:13:09Z</time>
      </trkpt>
      <trkpt lat="59.8671506" lon="17.6819537">
        <ele>14.557</ele>
        <time>2013-05-19T17:13:10Z</time>
      </trkpt>
      <trkpt lat="59.8672372" lon="17.6819463">
        <ele>17.9218</ele>
        <time>2013-05-19T17:13:11Z</time>
      </trkpt>
      <trkpt lat="59.8673049" lon="17.681956">
        <ele>18.8831</ele>
        <time>2013-05-19T17:13:12Z</time>
      </trkpt>
      <trkpt lat="59.8673706" lon="17.6819826">
        <ele>18.8831</ele>
        <time>2013-05-19T17:13:13Z</time>
      </trkpt>
      <trkpt lat="59.8674225" lon="17.6820514">
        <ele>17.9218</ele>
        <time>2013-05-19T17:13:14Z</time>
      </trkpt>
      <trkpt lat="59.8674769" lon="17.6820915">
        <ele>17.9218</ele>
        <time>2013-05-19T17:13:15Z</time>
      </trkpt>
      <trkpt lat="59.8675322" lon="17.6821271">
        <ele>16.9604</ele>
        <time>2013-05-19T17:13:16Z</time>
      </trkpt>
      <trkpt lat="59.8675871" lon="17.6820695">
        <ele>15.5184</ele>
        <time>2013-05-19T17:13:17Z</time>
      </trkpt>
      <trkpt lat="59.8676271" lon="17.6821189">
        <ele>15.5184</ele>
        <time>2013-05-19T17:13:18Z</time>
      </trkpt>
      <trkpt lat="59.8676737" lon="17.682095">
        <ele>14.0764</ele>
        <time>2013-05-19T17:13:19Z</time>
      </trkpt>
      <trkpt lat="59.8677235" lon="17.6820458">
        <ele>13.5958</ele>
        <time>2013-05-19T17:13:20Z</time>
      </trkpt>
      <trkpt lat="59.8677711" lon="17.6819775">
        <ele>13.1151</ele>
        <time>2013-05-19T17:13:21Z</time>
      </trkpt>
      <trkpt lat="59.8678197" lon="17.6818837">
        <ele>12.1538</ele>
        <time>2013-05-19T17:13:22Z</time>
      </trkpt>
      <trkpt lat="59.8678575" lon="17.6817878">
        <ele>11.6732</ele>
        <time>2013-05-19T17:13:23Z</time>
      </trkpt>
      <trkpt lat="59.8679084" lon="17.6817076">
        <ele>12.1538</ele>
        <time>2013-05-19T17:13:24Z</time>
      </trkpt>
      <trkpt lat="59.8679623" lon="17.6816525">
        <ele>12.6344</ele>
        <time>2013-05-19T17:13:25Z</time>
      </trkpt>
      <trkpt lat="59.868012" lon="17.6815774">
        <ele>12.6344</ele>
        <time>2013-05-19T17:13:26Z</time>
      </trkpt>
      <trkpt lat="59.8680659" lon="17.68156">
        <ele>11.6732</ele>
        <time>2013-05-19T17:13:27Z</time>
      </trkpt>
      <trkpt lat="59.8681273" lon="17.6815815">
        <ele>12.1538</ele>
        <time>2013-05-19T17:13:28Z</time>
      </trkpt>
      <trkpt lat="59.8681881" lon="17.6816336">
        <ele>12.6344</ele>
        <time>2013-05-19T17:13:29Z</time>
      </trkpt>
      <trkpt lat="59.8682814" lon="17.6816427">
        <ele>13.5958</ele>
        <time>2013-05-19T17:13:30Z</time>
      </trkpt>
      <trkpt lat="59.8683499" lon="17.6816904">
        <ele>13.5958</ele>
        <time>2013-05-19T17:13:31Z</time>
      </trkpt>
      <trkpt lat="59.8684062" lon="17.6817143">
        <ele>11.6732</ele>
        <time>2013-05-19T17:13:32Z</time>
      </trkpt>
      <trkpt lat="59.8684622" lon="17.6817376">
        <ele>11.1925</ele>
        <time>2013-05-19T17:13:33Z</time>
      </trkpt>
      <trkpt lat="59.8685117" lon="17.6817236">
        <ele>10.2312</ele>
        <time>2013-05-19T17:13:34Z</time>
      </trkpt>
      <trkpt lat="59.8685544" lon="17.6816778">
        <ele>10.2312</ele>
        <time>2013-05-19T17:13:35Z</time>
      </trkpt>
      <trkpt lat="59.8685899" lon="17.6816312">
        <ele>8.78918</ele>
        <time>2013-05-19T17:13:36Z</time>
      </trkpt>
      <trkpt lat="59.8686721" lon="17.6815479">
        <ele>8.30859</ele>
        <time>2013-05-19T17:13:37Z</time>
      </trkpt>
      <trkpt lat="59.8687324" lon="17.6815112">
        <ele>8.30859</ele>
        <time>2013-05-19T17:13:38Z</time>
      </trkpt>
      <trkpt lat="59.8687651" lon="17.6814171">
        <ele>7.82788</ele>
        <time>2013-05-19T17:13:39Z</time>
      </trkpt>
      <trkpt lat="59.8688387" lon="17.681347">
        <ele>11.6732</ele>
        <time>2013-05-19T17:13:40Z</time>
      </trkpt>
      <trkpt lat="59.8688831" lon="17.6812513">
        <ele>12.6344</ele>
        <time>2013-05-19T17:13:41Z</time>
      </trkpt>
      <trkpt lat="59.868932" lon="17.6811663">
        <ele>13.5958</ele>
        <time>2013-05-19T17:13:42Z</time>
      </trkpt>
      <trkpt lat="59.8689786" lon="17.6811008">
        <ele>15.0377</ele>
        <time>2013-05-19T17:13:43Z</time>
      </trkpt>
      <trkpt lat="59.8690227" lon="17.6810329">
        <ele>15.999</ele>
        <time>2013-05-19T17:13:44Z</time>
      </trkpt>
      <trkpt lat="59.8690621" lon="17.6809611">
        <ele>16.4797</ele>
        <time>2013-05-19T17:13:45Z</time>
      </trkpt>
      <trkpt lat="59.8691128" lon="17.6809405">
        <ele>17.4412</ele>
        <time>2013-05-19T17:13:46Z</time>
      </trkpt>
      <trkpt lat="59.8691687" lon="17.6809605">
        <ele>18.4023</ele>
        <time>2013-05-19T17:13:47Z</time>
      </trkpt>
      <trkpt lat="59.8692239" lon="17.6810026">
        <ele>19.3638</ele>
        <time>2013-05-19T17:13:48Z</time>
      </trkpt>
      <trkpt lat="59.8692747" lon="17.6810417">
        <ele>18.4023</ele>
        <time>2013-05-19T17:13:49Z</time>
      </trkpt>
      <trkpt lat="59.8693312" lon="17.6810694">
        <ele>17.9218</ele>
        <time>2013-05-19T17:13:50Z</time>
      </trkpt>
      <trkpt lat="59.8693911" lon="17.6810813">
        <ele>18.8831</ele>
        <time>2013-05-19T17:13:51Z</time>
      </trkpt>
      <trkpt lat="59.869451" lon="17.6810756">
        <ele>18.8831</ele>
        <time>2013-05-19T17:13:52Z</time>
      </trkpt>
      <trkpt lat="59.8695138" lon="17.6810699">
        <ele>19.3638</ele>
        <time>2013-05-19T17:13:53Z</time>
      </trkpt>
      <trkpt lat="59.8695737" lon="17.6810451">
        <ele>19.3638</ele>
        <time>2013-05-19T17:13:54Z</time>
      </trkpt>
      <trkpt lat="59.8696483" lon="17.6810487">
        <ele>20.325</ele>
        <time>2013-05-19T17:13:55Z</time>
      </trkpt>
      <trkpt lat="59.8697173" lon="17.6810852">
        <ele>21.767</ele>
        <time>2013-05-19T17:13:56Z</time>
      </trkpt>
      <trkpt lat="59.8697871" lon="17.6811021">
        <ele>23.209</ele>
        <time>2013-05-19T17:13:57Z</time>
      </trkpt>
      <trkpt lat="59.8698671" lon="17.6810709">
        <ele>24.1703</ele>
        <time>2013-05-19T17:13:58Z</time>
      </trkpt>
      <trkpt lat="59.8699376" lon="17.681046">
        <ele>24.651</ele>
        <time>2013-05-19T17:13:59Z</time>
      </trkpt>
      <trkpt lat="59.8700085" lon="17.6810104">
        <ele>25.6123</ele>
        <time>2013-05-19T17:14:00Z</time>
      </trkpt>
      <trkpt lat="59.8700721" lon="17.680984">
        <ele>25.6123</ele>
        <time>2013-05-19T17:14:01Z</time>
      </trkpt>
      <trkpt lat="59.8701245" lon="17.6809521">
        <ele>24.651</ele>
        <time>2013-05-19T17:14:02Z</time>
      </trkpt>
      <trkpt lat="59.8701815" lon="17.6809353">
        <ele>24.651</ele>
        <time>2013-05-19T17:14:03Z</time>
      </trkpt>
      <trkpt lat="59.8702382" lon="17.6809206">
        <ele>22.7283</ele>
        <time>2013-05-19T17:14:04Z</time>
      </trkpt>
      <trkpt lat="59.8702949" lon="17.6808916">
        <ele>21.767</ele>
        <time>2013-05-19T17:14:05Z</time>
      </trkpt>
      <trkpt lat="59.8703594" lon="17.6808591">
        <ele>21.2864</ele>
        <time>2013-05-19T17:14:06Z</time>
      </trkpt>
      <trkpt lat="59.8704294" lon="17.6808403">
        <ele>21.767</ele>
        <time>2013-05-19T17:14:07Z</time>
      </trkpt>
      <trkpt lat="59.8704911" lon="17.6808252">
        <ele>21.2864</ele>
        <time>2013-05-19T17:14:08Z</time>
      </trkpt>
      <trkpt lat="59.8705461" lon="17.6808151">
        <ele>20.325</ele>
        <time>2013-05-19T17:14:09Z</time>
      </trkpt>
      <trkpt lat="59.8705988" lon="17.6808151">
        <ele>19.3638</ele>
        <time>2013-05-19T17:14:10Z</time>
      </trkpt>
      <trkpt lat="59.8706619" lon="17.6808031">
        <ele>21.2864</ele>
        <time>2013-05-19T17:14:11Z</time>
      </trkpt>
      <trkpt lat="59.8707192" lon="17.6807797">
        <ele>21.2864</ele>
        <time>2013-05-19T17:14:12Z</time>
      </trkpt>
      <trkpt lat="59.87078" lon="17.6807372">
        <ele>21.767</ele>
        <time>2013-05-19T17:14:13Z</time>
      </trkpt>
      <trkpt lat="59.8708414" lon="17.6807067">
        <ele>22.7283</ele>
        <time>2013-05-19T17:14:14Z</time>
      </trkpt>
      <trkpt lat="59.8708989" lon="17.6806664">
        <ele>23.209</ele>
        <time>2013-05-19T17:14:15Z</time>
      </trkpt>
      <trkpt lat="59.8709417" lon="17.6805866">
        <ele>21.767</ele>
        <time>2013-05-19T17:14:16Z</time>
      </trkpt>
      <trkpt lat="59.8709678" lon="17.68049">
        <ele>19.3638</ele>
        <time>2013-05-19T17:14:17Z</time>
      </trkpt>
      <trkpt lat="59.8709952" lon="17.6803929">
        <ele>17.9218</ele>
        <time>2013-05-19T17:14:18Z</time>
      </trkpt>
      <trkpt lat="59.8710109" lon="17.6802991">
        <ele>15.5184</ele>
        <time>2013-05-19T17:14:19Z</time>
      </trkpt>
      <trkpt lat="59.8710333" lon="17.68021">
        <ele>15.0377</ele>
        <time>2013-05-19T17:14:20Z</time>
      </trkpt>
      <trkpt lat="59.8710423" lon="17.6801296">
        <ele>14.0764</ele>
        <time>2013-05-19T17:14:21Z</time>
      </trkpt>
      <trkpt lat="59.8710342" lon="17.6800404">
        <ele>13.5958</ele>
        <time>2013-05-19T17:14:22Z</time>
      </trkpt>
      <trkpt lat="59.8710268" lon="17.6799468">
        <ele>13.5958</ele>
        <time>2013-05-19T17:14:23Z</time>
      </trkpt>
      <trkpt lat="59.8710211" lon="17.6798505">
        <ele>14.0764</ele>
        <time>2013-05-19T17:14:24Z</time>
      </trkpt>
      <trkpt lat="59.8710218" lon="17.6797551">
        <ele>14.0764</ele>
        <time>2013-05-19T17:14:25Z</time>
      </trkpt>
      <trkpt lat="59.871033" lon="17.6796635">
        <ele>14.0764</ele>
        <time>2013-05-19T17:14:26Z</time>
      </trkpt>
      <trkpt lat="59.8710539" lon="17.6795776">
        <ele>14.0764</ele>
        <time>2013-05-19T17:14:27Z</time>
      </trkpt>
      <trkpt lat="59.8710888" lon="17.6795045">
        <ele>13.5958</ele>
        <time>2013-05-19T17:14:28Z</time>
      </trkpt>
      <trkpt lat="59.8711268" lon="17.6794522">
        <ele>13.1151</ele>
        <time>2013-05-19T17:14:29Z</time>
      </trkpt>
      <trkpt lat="59.8711756" lon="17.6794209">
        <ele>12.6344</ele>
        <time>2013-05-19T17:14:30Z</time>
      </trkpt>
      <trkpt lat="59.8712293" lon="17.6794119">
        <ele>13.5958</ele>
        <time>2013-05-19T17:14:31Z</time>
      </trkpt>
      <trkpt lat="59.8712843" lon="17.6794053">
        <ele>14.0764</ele>
        <time>2013-05-19T17:14:32Z</time>
      </trkpt>
      <trkpt lat="59.8713419" lon="17.6793965">
        <ele>15.0377</ele>
        <time>2013-05-19T17:14:33Z</time>
      </trkpt>
      <trkpt lat="59.8714002" lon="17.6793849">
        <ele>15.5184</ele>
        <time>2013-05-19T17:14:34Z</time>
      </trkpt>
      <trkpt lat="59.8714588" lon="17.6793707">
        <ele>15.5184</ele>
        <time>2013-05-19T17:14:35Z</time>
      </trkpt>
      <trkpt lat="59.8715206" lon="17.6793667">
        <ele>16.4797</ele>
        <time>2013-05-19T17:14:36Z</time>
      </trkpt>
      <trkpt lat="59.8715809" lon="17.6793537">
        <ele>16.9604</ele>
        <time>2013-05-19T17:14:37Z</time>
      </trkpt>
      <trkpt lat="59.8716405" lon="17.6793474">
        <ele>17.9218</ele>
        <time>2013-05-19T17:14:38Z</time>
      </trkpt>
      <trkpt lat="59.8716998" lon="17.6793338">
        <ele>18.4023</ele>
        <time>2013-05-19T17:14:39Z</time>
      </trkpt>
      <trkpt lat="59.8717603" lon="17.6793267">
        <ele>19.3638</ele>
        <time>2013-05-19T17:14:40Z</time>
      </trkpt>
      <trkpt lat="59.8718192" lon="17.6793106">
        <ele>19.8444</ele>
        <time>2013-05-19T17:14:41Z</time>
      </trkpt>
      <trkpt lat="59.8718751" lon="17.6792919">
        <ele>19.3638</ele>
        <time>2013-05-19T17:14:42Z</time>
      </trkpt>
      <trkpt lat="59.8719339" lon="17.6792831">
        <ele>19.8444</ele>
        <time>2013-05-19T17:14:43Z</time>
      </trkpt>
      <trkpt lat="59.8719903" lon="17.6792724">
        <ele>20.325</ele>
        <time>2013-05-19T17:14:44Z</time>
      </trkpt>
      <trkpt lat="59.8720571" lon="17.6792748">
        <ele>22.2476</ele>
        <time>2013-05-19T17:14:45Z</time>
      </trkpt>
      <trkpt lat="59.8721064" lon="17.6792645">
        <ele>21.767</ele>
        <time>2013-05-19T17:14:46Z</time>
      </trkpt>
      <trkpt lat="59.8721517" lon="17.6792474">
        <ele>21.2864</ele>
        <time>2013-05-19T17:14:47Z</time>
      </trkpt>
      <trkpt lat="59.8721975" lon="17.6792346">
        <ele>20.8057</ele>
        <time>2013-05-19T17:14:48Z</time>
      </trkpt>
      <trkpt lat="59.8722398" lon="17.6792461">
        <ele>19.8444</ele>
        <time>2013-05-19T17:14:49Z</time>
      </trkpt>
      <trkpt lat="59.8722814" lon="17.6792846">
        <ele>20.325</ele>
        <time>2013-05-19T17:14:50Z</time>
      </trkpt>
      <trkpt lat="59.8723092" lon="17.6793494">
        <ele>19.8444</ele>
        <time>2013-05-19T17:14:51Z</time>
      </trkpt>
      <trkpt lat="59.872315" lon="17.6794428">
        <ele>18.8831</ele>
        <time>2013-05-19T17:14:52Z</time>
      </trkpt>
      <trkpt lat="59.8723177" lon="17.6795458">
        <ele>18.8831</ele>
        <time>2013-05-19T17:14:53Z</time>
      </trkpt>
      <trkpt lat="59.8723204" lon="17.6796537">
        <ele>18.8831</ele>
        <time>2013-05-19T17:14:54Z</time>
      </trkpt>
      <trkpt lat="59.872325" lon="17.6797659">
        <ele>18.8831</ele>
        <time>2013-05-19T17:14:55Z</time>
      </trkpt>
      <trkpt lat="59.8723307" lon="17.6798812">
        <ele>18.8831</ele>
        <time>2013-05-19T17:14:56Z</time>
      </trkpt>
      <trkpt lat="59.8723382" lon="17.6800014">
        <ele>18.8831</ele>
        <time>2013-05-19T17:14:57Z</time>
      </trkpt>
      <trkpt lat="59.8723467" lon="17.6801244">
        <ele>18.8831</ele>
        <time>2013-05-19T17:14:58Z</time>
      </trkpt>
      <trkpt lat="59.8723558" lon="17.6802499">
        <ele>18.8831</ele>
        <time>2013-05-19T17:14:59Z</time>
      </trkpt>
      <trkpt lat="59.8723657" lon="17.6803784">
        <ele>18.8831</ele>
        <time>2013-05-19T17:15:00Z</time>
      </trkpt>
      <trkpt lat="59.8723757" lon="17.680508">
        <ele>18.8831</ele>
        <time>2013-05-19T17:15:01Z</time>
      </trkpt>
      <trkpt lat="59.8723851" lon="17.680638">
        <ele>19.3638</ele>
        <time>2013-05-19T17:15:02Z</time>
      </trkpt>
      <trkpt lat="59.872396" lon="17.6807689">
        <ele>19.3638</ele>
        <time>2013-05-19T17:15:03Z</time>
      </trkpt>
      <trkpt lat="59.8724082" lon="17.6809009">
        <ele>19.3638</ele>
        <time>2013-05-19T17:15:04Z</time>
      </trkpt>
      <trkpt lat="59.8724219" lon="17.6810343">
        <ele>19.8444</ele>
        <time>2013-05-19T17:15:05Z</time>
      </trkpt>
      <trkpt lat="59.8724358" lon="17.6811688">
        <ele>19.8444</ele>
        <time>2013-05-19T17:15:06Z</time>
      </trkpt>
      <trkpt lat="59.8724493" lon="17.6813049">
        <ele>19.8444</ele>
        <time>2013-05-19T17:15:07Z</time>
      </trkpt>
      <trkpt lat="59.8724625" lon="17.6814419">
        <ele>19.8444</ele>
        <time>2013-05-19T17:15:08Z</time>
      </trkpt>
      <trkpt lat="59.8724762" lon="17.6815796">
        <ele>20.325</ele>
        <time>2013-05-19T17:15:09Z</time>
      </trkpt>
      <trkpt lat="59.8724907" lon="17.6817179">
        <ele>20.325</ele>
        <time>2013-05-19T17:15:10Z</time>
      </trkpt>
      <trkpt lat="59.8725058" lon="17.6818563">
        <ele>20.325</ele>
        <time>2013-05-19T17:15:11Z</time>
      </trkpt>
      <trkpt lat="59.8725208" lon="17.6819933">
        <ele>20.325</ele>
        <time>2013-05-19T17:15:12Z</time>
      </trkpt>
      <trkpt lat="59.8725363" lon="17.6821295">
        <ele>20.8057</ele>
        <time>2013-05-19T17:15:13Z</time>
      </trkpt>
      <trkpt lat="59.8725518" lon="17.682265">
        <ele>20.8057</ele>
        <time>2013-05-19T17:15:14Z</time>
      </trkpt>
      <trkpt lat="59.8725673" lon="17.6823991">
        <ele>21.2864</ele>
        <time>2013-05-19T17:15:15Z</time>
      </trkpt>
      <trkpt lat="59.8725829" lon="17.682531">
        <ele>21.2864</ele>
        <time>2013-05-19T17:15:16Z</time>
      </trkpt>
      <trkpt lat="59.8725988" lon="17.6826603">
        <ele>21.767</ele>
        <time>2013-05-19T17:15:17Z</time>
      </trkpt>
      <trkpt lat="59.8726159" lon="17.682787">
        <ele>21.767</ele>
        <time>2013-05-19T17:15:18Z</time>
      </trkpt>
      <trkpt lat="59.8726342" lon="17.6829109">
        <ele>22.2476</ele>
        <time>2013-05-19T17:15:19Z</time>
      </trkpt>
      <trkpt lat="59.8726529" lon="17.6830326">
        <ele>22.2476</ele>
        <time>2013-05-19T17:15:20Z</time>
      </trkpt>
      <trkpt lat="59.8726713" lon="17.6831519">
        <ele>22.2476</ele>
        <time>2013-05-19T17:15:21Z</time>
      </trkpt>
      <trkpt lat="59.8726915" lon="17.6832699">
        <ele>22.2476</ele>
        <time>2013-05-19T17:15:22Z</time>
      </trkpt>
      <trkpt lat="59.8727143" lon="17.6833859">
        <ele>22.2476</ele>
        <time>2013-05-19T17:15:23Z</time>
      </trkpt>
      <trkpt lat="59.8727374" lon="17.6835012">
        <ele>22.2476</ele>
        <time>2013-05-19T17:15:24Z</time>
      </trkpt>
      <trkpt lat="59.8727606" lon="17.6836157">
        <ele>22.2476</ele>
        <time>2013-05-19T17:15:25Z</time>
      </trkpt>
      <trkpt lat="59.8727855" lon="17.6837277">
        <ele>22.7283</ele>
        <time>2013-05-19T17:15:26Z</time>
      </trkpt>
      <trkpt lat="59.8728119" lon="17.6838361">
        <ele>22.7283</ele>
        <time>2013-05-19T17:15:27Z</time>
      </trkpt>
      <trkpt lat="59.8728389" lon="17.6839421">
        <ele>22.7283</ele>
        <time>2013-05-19T17:15:28Z</time>
      </trkpt>
      <trkpt lat="59.8728656" lon="17.6840465">
        <ele>22.7283</ele>
        <time>2013-05-19T17:15:29Z</time>
      </trkpt>
      <trkpt lat="59.8728911" lon="17.6841517">
        <ele>22.7283</ele>
        <time>2013-05-19T17:15:30Z</time>
      </trkpt>
      <trkpt lat="59.8729166" lon="17.6842578">
        <ele>23.209</ele>
        <time>2013-05-19T17:15:31Z</time>
      </trkpt>
      <trkpt lat="59.872944" lon="17.684365">
        <ele>23.209</ele>
        <time>2013-05-19T17:15:32Z</time>
      </trkpt>
      <trkpt lat="59.8729694" lon="17.684465">
        <ele>22.2476</ele>
        <time>2013-05-19T17:15:33Z</time>
      </trkpt>
      <trkpt lat="59.8729946" lon="17.6845654">
        <ele>22.7283</ele>
        <time>2013-05-19T17:15:34Z</time>
      </trkpt>
      <trkpt lat="59.8730161" lon="17.6846639">
        <ele>21.2864</ele>
        <time>2013-05-19T17:15:35Z</time>
      </trkpt>
      <trkpt lat="59.8730381" lon="17.6847628">
        <ele>20.325</ele>
        <time>2013-05-19T17:15:36Z</time>
      </trkpt>
      <trkpt lat="59.8730609" lon="17.6848629">
        <ele>19.3638</ele>
        <time>2013-05-19T17:15:37Z</time>
      </trkpt>
      <trkpt lat="59.8730844" lon="17.6849634">
        <ele>18.4023</ele>
        <time>2013-05-19T17:15:38Z</time>
      </trkpt>
      <trkpt lat="59.8731086" lon="17.6850656">
        <ele>17.4412</ele>
        <time>2013-05-19T17:15:39Z</time>
      </trkpt>
      <trkpt lat="59.8731361" lon="17.6851718">
        <ele>17.9218</ele>
        <time>2013-05-19T17:15:40Z</time>
      </trkpt>
      <trkpt lat="59.8731634" lon="17.6852772">
        <ele>17.9218</ele>
        <time>2013-05-19T17:15:41Z</time>
      </trkpt>
      <trkpt lat="59.8731896" lon="17.6853808">
        <ele>18.4023</ele>
        <time>2013-05-19T17:15:42Z</time>
      </trkpt>
      <trkpt lat="59.8732149" lon="17.6854844">
        <ele>18.4023</ele>
        <time>2013-05-19T17:15:43Z</time>
      </trkpt>
      <trkpt lat="59.8732391" lon="17.685588">
        <ele>18.8831</ele>
        <time>2013-05-19T17:15:44Z</time>
      </trkpt>
      <trkpt lat="59.8732641" lon="17.6856895">
        <ele>19.3638</ele>
        <time>2013-05-19T17:15:45Z</time>
      </trkpt>
      <trkpt lat="59.8732906" lon="17.6857885">
        <ele>19.3638</ele>
        <time>2013-05-19T17:15:46Z</time>
      </trkpt>
      <trkpt lat="59.8733164" lon="17.6858879">
        <ele>19.8444</ele>
        <time>2013-05-19T17:15:47Z</time>
      </trkpt>
      <trkpt lat="59.8733424" lon="17.6859873">
        <ele>19.8444</ele>
        <time>2013-05-19T17:15:48Z</time>
      </trkpt>
      <trkpt lat="59.8733692" lon="17.6860848">
        <ele>20.325</ele>
        <time>2013-05-19T17:15:49Z</time>
      </trkpt>
      <trkpt lat="59.8733957" lon="17.6861806">
        <ele>20.325</ele>
        <time>2013-05-19T17:15:50Z</time>
      </trkpt>
      <trkpt lat="59.8734225" lon="17.6862765">
        <ele>20.8057</ele>
        <time>2013-05-19T17:15:51Z</time>
      </trkpt>
      <trkpt lat="59.873449" lon="17.6863732">
        <ele>20.8057</ele>
        <time>2013-05-19T17:15:52Z</time>
      </trkpt>
      <trkpt lat="59.873475" lon="17.6864707">
        <ele>21.2864</ele>
        <time>2013-05-19T17:15:53Z</time>
      </trkpt>
      <trkpt lat="59.8735009" lon="17.6865676">
        <ele>21.2864</ele>
        <time>2013-05-19T17:15:54Z</time>
      </trkpt>
      <trkpt lat="59.8735272" lon="17.6866645">
        <ele>21.767</ele>
        <time>2013-05-19T17:15:55Z</time>
      </trkpt>
      <trkpt lat="59.8735537" lon="17.6867622">
        <ele>21.767</ele>
        <time>2013-05-19T17:15:56Z</time>
      </trkpt>
      <trkpt lat="59.8735796" lon="17.6868605">
        <ele>22.2476</ele>
        <time>2013-05-19T17:15:57Z</time>
      </trkpt>
      <trkpt lat="59.8736013" lon="17.6869551">
        <ele>20.8057</ele>
        <time>2013-05-19T17:15:58Z</time>
      </trkpt>
      <trkpt lat="59.8736231" lon="17.6870498">
        <ele>19.8444</ele>
        <time>2013-05-19T17:15:59Z</time>
      </trkpt>
      <trkpt lat="59.8736453" lon="17.6871436">
        <ele>18.8831</ele>
        <time>2013-05-19T17:16:00Z</time>
      </trkpt>
      <trkpt lat="59.8736676" lon="17.6872368">
        <ele>17.9218</ele>
        <time>2013-05-19T17:16:01Z</time>
      </trkpt>
      <trkpt lat="59.8736915" lon="17.6873319">
        <ele>18.4023</ele>
        <time>2013-05-19T17:16:02Z</time>
      </trkpt>
      <trkpt lat="59.8737169" lon="17.6874269">
        <ele>18.4023</ele>
        <time>2013-05-19T17:16:03Z</time>
      </trkpt>
      <trkpt lat="59.8737428" lon="17.6875207">
        <ele>18.8831</ele>
        <time>2013-05-19T17:16:04Z</time>
      </trkpt>
      <trkpt lat="59.8737676" lon="17.687612">
        <ele>19.3638</ele>
        <time>2013-05-19T17:16:05Z</time>
      </trkpt>
      <trkpt lat="59.873794" lon="17.6877018">
        <ele>19.8444</ele>
        <time>2013-05-19T17:16:06Z</time>
      </trkpt>
      <trkpt lat="59.8738211" lon="17.6877881">
        <ele>19.8444</ele>
        <time>2013-05-19T17:16:07Z</time>
      </trkpt>
      <trkpt lat="59.8738474" lon="17.6878777">
        <ele>20.325</ele>
        <time>2013-05-19T17:16:08Z</time>
      </trkpt>
      <trkpt lat="59.8738737" lon="17.6879666">
        <ele>20.325</ele>
        <time>2013-05-19T17:16:09Z</time>
      </trkpt>
      <trkpt lat="59.8738996" lon="17.6880557">
        <ele>20.8057</ele>
        <time>2013-05-19T17:16:10Z</time>
      </trkpt>
      <trkpt lat="59.8739247" lon="17.6881434">
        <ele>20.8057</ele>
        <time>2013-05-19T17:16:11Z</time>
      </trkpt>
      <trkpt lat="59.873949" lon="17.6882324">
        <ele>21.2864</ele>
        <time>2013-05-19T17:16:12Z</time>
      </trkpt>
      <trkpt lat="59.8739738" lon="17.688322">
        <ele>21.2864</ele>
        <time>2013-05-19T17:16:13Z</time>
      </trkpt>
      <trkpt lat="59.8739998" lon="17.6884112">
        <ele>21.767</ele>
        <time>2013-05-19T17:16:14Z</time>
      </trkpt>
      <trkpt lat="59.8740262" lon="17.6885018">
        <ele>21.767</ele>
        <time>2013-05-19T17:16:15Z</time>
      </trkpt>
      <trkpt lat="59.874052" lon="17.6885954">
        <ele>21.767</ele>
        <time>2013-05-19T17:16:16Z</time>
      </trkpt>
      <trkpt lat="59.8740769" lon="17.6886919">
        <ele>22.2476</ele>
        <time>2013-05-19T17:16:17Z</time>
      </trkpt>
      <trkpt lat="59.8741026" lon="17.6887896">
        <ele>22.2476</ele>
        <time>2013-05-19T17:16:18Z</time>
      </trkpt>
      <trkpt lat="59.8741285" lon="17.6888865">
        <ele>22.7283</ele>
        <time>2013-05-19T17:16:19Z</time>
      </trkpt>
      <trkpt lat="59.8741551" lon="17.688984">
        <ele>22.7283</ele>
        <time>2013-05-19T17:16:20Z</time>
      </trkpt>
      <trkpt lat="59.8741811" lon="17.6890814">
        <ele>22.7283</ele>
        <time>2013-05-19T17:16:21Z</time>
      </trkpt>
      <trkpt lat="59.8742082" lon="17.6891804">
        <ele>23.209</ele>
        <time>2013-05-19T17:16:22Z</time>
      </trkpt>
      <trkpt lat="59.8742358" lon="17.6892814">
        <ele>23.209</ele>
        <time>2013-05-19T17:16:23Z</time>
      </trkpt>
      <trkpt lat="59.8742633" lon="17.689384">
        <ele>23.209</ele>
        <time>2013-05-19T17:16:24Z</time>
      </trkpt>
      <trkpt lat="59.8742907" lon="17.6894876">
        <ele>23.6896</ele>
        <time>2013-05-19T17:16:25Z</time>
      </trkpt>
      <trkpt lat="59.8743188" lon="17.6895921">
        <ele>23.6896</ele>
        <time>2013-05-19T17:16:26Z</time>
      </trkpt>
      <trkpt lat="59.8743473" lon="17.6896969">
        <ele>23.6896</ele>
        <time>2013-05-19T17:16:27Z</time>
      </trkpt>
      <trkpt lat="59.8743762" lon="17.6898025">
        <ele>24.1703</ele>
        <time>2013-05-19T17:16:28Z</time>
      </trkpt>
      <trkpt lat="59.8744057" lon="17.6899085">
        <ele>24.1703</ele>
        <time>2013-05-19T17:16:29Z</time>
      </trkpt>
      <trkpt lat="59.8744358" lon="17.6900132">
        <ele>24.651</ele>
        <time>2013-05-19T17:16:30Z</time>
      </trkpt>
      <trkpt lat="59.8744659" lon="17.6901167">
        <ele>24.651</ele>
        <time>2013-05-19T17:16:31Z</time>
      </trkpt>
      <trkpt lat="59.8744954" lon="17.6902194">
        <ele>24.651</ele>
        <time>2013-05-19T17:16:32Z</time>
      </trkpt>
      <trkpt lat="59.8745248" lon="17.6903208">
        <ele>25.1317</ele>
        <time>2013-05-19T17:16:33Z</time>
      </trkpt>
      <trkpt lat="59.8745555" lon="17.6904198">
        <ele>25.1317</ele>
        <time>2013-05-19T17:16:34Z</time>
      </trkpt>
      <trkpt lat="59.8745879" lon="17.6905153">
        <ele>25.6123</ele>
        <time>2013-05-19T17:16:35Z</time>
      </trkpt>
      <trkpt lat="59.8746206" lon="17.6906091">
        <ele>25.6123</ele>
        <time>2013-05-19T17:16:36Z</time>
      </trkpt>
      <trkpt lat="59.8746527" lon="17.6907022">
        <ele>26.0929</ele>
        <time>2013-05-19T17:16:37Z</time>
      </trkpt>
      <trkpt lat="59.874685" lon="17.6907944">
        <ele>26.0929</ele>
        <time>2013-05-19T17:16:38Z</time>
      </trkpt>
      <trkpt lat="59.8747185" lon="17.6908846">
        <ele>26.5736</ele>
        <time>2013-05-19T17:16:39Z</time>
      </trkpt>
      <trkpt lat="59.8747523" lon="17.6909723">
        <ele>26.5736</ele>
        <time>2013-05-19T17:16:40Z</time>
      </trkpt>
      <trkpt lat="59.8747872" lon="17.6910608">
        <ele>26.5736</ele>
        <time>2013-05-19T17:16:41Z</time>
      </trkpt>
      <trkpt lat="59.8748234" lon="17.6911476">
        <ele>27.0543</ele>
        <time>2013-05-19T17:16:42Z</time>
      </trkpt>
      <trkpt lat="59.8748595" lon="17.6912331">
        <ele>27.0543</ele>
        <time>2013-05-19T17:16:43Z</time>
      </trkpt>
      <trkpt lat="59.8748957" lon="17.6913186">
        <ele>27.0543</ele>
        <time>2013-05-19T17:16:44Z</time>
      </trkpt>
      <trkpt lat="59.8749314" lon="17.6914037">
        <ele>27.0543</ele>
        <time>2013-05-19T17:16:45Z</time>
      </trkpt>
      <trkpt lat="59.8749662" lon="17.6914897">
        <ele>27.5349</ele>
        <time>2013-05-19T17:16:46Z</time>
      </trkpt>
      <trkpt lat="59.875001" lon="17.6915761">
        <ele>27.5349</ele>
        <time>2013-05-19T17:16:47Z</time>
      </trkpt>
      <trkpt lat="59.8750367" lon="17.6916626">
        <ele>27.5349</ele>
        <time>2013-05-19T17:16:48Z</time>
      </trkpt>
      <trkpt lat="59.8750741" lon="17.6917471">
        <ele>27.5349</ele>
        <time>2013-05-19T17:16:49Z</time>
      </trkpt>
      <trkpt lat="59.8751112" lon="17.6918324">
        <ele>27.5349</ele>
        <time>2013-05-19T17:16:50Z</time>
      </trkpt>
      <trkpt lat="59.8751476" lon="17.6919191">
        <ele>27.5349</ele>
        <time>2013-05-19T17:16:51Z</time>
      </trkpt>
      <trkpt lat="59.8751853" lon="17.6920047">
        <ele>27.5349</ele>
        <time>2013-05-19T17:16:52Z</time>
      </trkpt>
      <trkpt lat="59.8752236" lon="17.69209">
        <ele>27.5349</ele>
        <time>2013-05-19T17:16:53Z</time>
      </trkpt>
      <trkpt lat="59.875261" lon="17.6921754">
        <ele>27.5349</ele>
        <time>2013-05-19T17:16:54Z</time>
      </trkpt>
      <trkpt lat="59.8752983" lon="17.6922624">
        <ele>27.5349</ele>
        <time>2013-05-19T17:16:55Z</time>
      </trkpt>
      <trkpt lat="59.8753345" lon="17.6923492">
        <ele>27.5349</ele>
        <time>2013-05-19T17:16:56Z</time>
      </trkpt>
      <trkpt lat="59.8753714" lon="17.6924367">
        <ele>27.5349</ele>
        <time>2013-05-19T17:16:57Z</time>
      </trkpt>
      <trkpt lat="59.8754093" lon="17.6925229">
        <ele>27.0543</ele>
        <time>2013-05-19T17:16:58Z</time>
      </trkpt>
      <trkpt lat="59.8754473" lon="17.6926084">
        <ele>27.0543</ele>
        <time>2013-05-19T17:16:59Z</time>
      </trkpt>
      <trkpt lat="59.8754843" lon="17.6926961">
        <ele>27.0543</ele>
        <time>2013-05-19T17:17:00Z</time>
      </trkpt>
      <trkpt lat="59.8755211" lon="17.6927857">
        <ele>27.0543</ele>
        <time>2013-05-19T17:17:01Z</time>
      </trkpt>
      <trkpt lat="59.8755594" lon="17.6928763">
        <ele>27.0543</ele>
        <time>2013-05-19T17:17:02Z</time>
      </trkpt>
      <trkpt lat="59.8755983" lon="17.6929689">
        <ele>27.0543</ele>
        <time>2013-05-19T17:17:03Z</time>
      </trkpt>
      <trkpt lat="59.8756381" lon="17.6930643">
        <ele>27.0543</ele>
        <time>2013-05-19T17:17:04Z</time>
      </trkpt>
      <trkpt lat="59.875679" lon="17.6931626">
        <ele>27.0543</ele>
        <time>2013-05-19T17:17:05Z</time>
      </trkpt>
      <trkpt lat="59.8757215" lon="17.6932653">
        <ele>26.5736</ele>
        <time>2013-05-19T17:17:06Z</time>
      </trkpt>
      <trkpt lat="59.8757661" lon="17.6933721">
        <ele>26.5736</ele>
        <time>2013-05-19T17:17:07Z</time>
      </trkpt>
      <trkpt lat="59.8758125" lon="17.6934819">
        <ele>26.0929</ele>
        <time>2013-05-19T17:17:08Z</time>
      </trkpt>
      <trkpt lat="59.8758599" lon="17.6935958">
        <ele>26.0929</ele>
        <time>2013-05-19T17:17:09Z</time>
      </trkpt>
      <trkpt lat="59.8759076" lon="17.6937143">
        <ele>25.6123</ele>
        <time>2013-05-19T17:17:10Z</time>
      </trkpt>
      <trkpt lat="59.8759561" lon="17.6938367">
        <ele>25.1317</ele>
        <time>2013-05-19T17:17:11Z</time>
      </trkpt>
      <trkpt lat="59.8760054" lon="17.6939637">
        <ele>25.1317</ele>
        <time>2013-05-19T17:17:12Z</time>
      </trkpt>
      <trkpt lat="59.8760542" lon="17.6940943">
        <ele>24.651</ele>
        <time>2013-05-19T17:17:13Z</time>
      </trkpt>
      <trkpt lat="59.8761045" lon="17.694228">
        <ele>24.1703</ele>
        <time>2013-05-19T17:17:14Z</time>
      </trkpt>
      <trkpt lat="59.876155" lon="17.6943637">
        <ele>24.1703</ele>
        <time>2013-05-19T17:17:15Z</time>
      </trkpt>
      <trkpt lat="59.8762062" lon="17.6945036">
        <ele>23.6896</ele>
        <time>2013-05-19T17:17:16Z</time>
      </trkpt>
      <trkpt lat="59.8762576" lon="17.6946448">
        <ele>23.6896</ele>
        <time>2013-05-19T17:17:17Z</time>
      </trkpt>
      <trkpt lat="59.8763079" lon="17.6947877">
        <ele>23.209</ele>
        <time>2013-05-19T17:17:18Z</time>
      </trkpt>
      <trkpt lat="59.8763573" lon="17.6949324">
        <ele>22.7283</ele>
        <time>2013-05-19T17:17:19Z</time>
      </trkpt>
      <trkpt lat="59.8764062" lon="17.6950773">
        <ele>22.7283</ele>
        <time>2013-05-19T17:17:20Z</time>
      </trkpt>
      <trkpt lat="59.876452" lon="17.6952173">
        <ele>21.2864</ele>
        <time>2013-05-19T17:17:21Z</time>
      </trkpt>
      <trkpt lat="59.8764939" lon="17.6953462">
        <ele>19.3638</ele>
        <time>2013-05-19T17:17:22Z</time>
      </trkpt>
      <trkpt lat="59.8765408" lon="17.6954838">
        <ele>19.3638</ele>
        <time>2013-05-19T17:17:23Z</time>
      </trkpt>
      <trkpt lat="59.8765877" lon="17.6956187">
        <ele>18.8831</ele>
        <time>2013-05-19T17:17:24Z</time>
      </trkpt>
      <trkpt lat="59.8766336" lon="17.6957581">
        <ele>18.4023</ele>
        <time>2013-05-19T17:17:25Z</time>
      </trkpt>
      <trkpt lat="59.8766704" lon="17.6958784">
        <ele>18.4023</ele>
        <time>2013-05-19T17:17:26Z</time>
      </trkpt>
      <trkpt lat="59.8767031" lon="17.6959942">
        <ele>18.4023</ele>
        <time>2013-05-19T17:17:27Z</time>
      </trkpt>
      <trkpt lat="59.8767351" lon="17.696101">
        <ele>17.9218</ele>
        <time>2013-05-19T17:17:28Z</time>
      </trkpt>
      <trkpt lat="59.8767657" lon="17.6962024">
        <ele>17.9218</ele>
        <time>2013-05-19T17:17:29Z</time>
      </trkpt>
      <trkpt lat="59.8767934" lon="17.6963">
        <ele>17.9218</ele>
        <time>2013-05-19T17:17:30Z</time>
      </trkpt>
      <trkpt lat="59.8768192" lon="17.6963902">
        <ele>17.9218</ele>
        <time>2013-05-19T17:17:31Z</time>
      </trkpt>
      <trkpt lat="59.8768436" lon="17.6964755">
        <ele>17.9218</ele>
        <time>2013-05-19T17:17:32Z</time>
      </trkpt>
      <trkpt lat="59.8768677" lon="17.6965589">
        <ele>17.9218</ele>
        <time>2013-05-19T17:17:33Z</time>
      </trkpt>
      <trkpt lat="59.8768907" lon="17.6966501">
        <ele>18.4023</ele>
        <time>2013-05-19T17:17:34Z</time>
      </trkpt>
      <trkpt lat="59.8769135" lon="17.6967354">
        <ele>18.4023</ele>
        <time>2013-05-19T17:17:35Z</time>
      </trkpt>
      <trkpt lat="59.8769364" lon="17.6968189">
        <ele>18.4023</ele>
        <time>2013-05-19T17:17:36Z</time>
      </trkpt>
      <trkpt lat="59.8769592" lon="17.6969049">
        <ele>18.8831</ele>
        <time>2013-05-19T17:17:37Z</time>
      </trkpt>
      <trkpt lat="59.8769813" lon="17.6969883">
        <ele>18.8831</ele>
        <time>2013-05-19T17:17:38Z</time>
      </trkpt>
      <trkpt lat="59.8770034" lon="17.6970708">
        <ele>18.8831</ele>
        <time>2013-05-19T17:17:39Z</time>
      </trkpt>
      <trkpt lat="59.8770245" lon="17.6971536">
        <ele>19.3638</ele>
        <time>2013-05-19T17:17:40Z</time>
      </trkpt>
      <trkpt lat="59.8770438" lon="17.6972328">
        <ele>19.8444</ele>
        <time>2013-05-19T17:17:41Z</time>
      </trkpt>
      <trkpt lat="59.8770627" lon="17.6973002">
        <ele>19.8444</ele>
        <time>2013-05-19T17:17:42Z</time>
      </trkpt>
      <trkpt lat="59.8770816" lon="17.6973707">
        <ele>19.8444</ele>
        <time>2013-05-19T17:17:43Z</time>
      </trkpt>
      <trkpt lat="59.8770992" lon="17.6974407">
        <ele>19.8444</ele>
        <time>2013-05-19T17:17:44Z</time>
      </trkpt>
      <trkpt lat="59.8771184" lon="17.6975121">
        <ele>20.8057</ele>
        <time>2013-05-19T17:17:45Z</time>
      </trkpt>
      <trkpt lat="59.8771356" lon="17.6975849">
        <ele>20.8057</ele>
        <time>2013-05-19T17:17:46Z</time>
      </trkpt>
      <trkpt lat="59.8771524" lon="17.6976557">
        <ele>21.767</ele>
        <time>2013-05-19T17:17:47Z</time>
      </trkpt>
      <trkpt lat="59.8771694" lon="17.6977204">
        <ele>21.767</ele>
        <time>2013-05-19T17:17:48Z</time>
      </trkpt>
      <trkpt lat="59.8771855" lon="17.6977871">
        <ele>22.2476</ele>
        <time>2013-05-19T17:17:49Z</time>
      </trkpt>
      <trkpt lat="59.8772023" lon="17.6978546">
        <ele>22.2476</ele>
        <time>2013-05-19T17:17:50Z</time>
      </trkpt>
      <trkpt lat="59.8772207" lon="17.6979209">
        <ele>22.7283</ele>
        <time>2013-05-19T17:17:51Z</time>
      </trkpt>
      <trkpt lat="59.8772379" lon="17.697989">
        <ele>22.7283</ele>
        <time>2013-05-19T17:17:52Z</time>
      </trkpt>
      <trkpt lat="59.8772554" lon="17.6980601">
        <ele>23.209</ele>
        <time>2013-05-19T17:17:53Z</time>
      </trkpt>
      <trkpt lat="59.877274" lon="17.6981304">
        <ele>23.209</ele>
        <time>2013-05-19T17:17:54Z</time>
      </trkpt>
      <trkpt lat="59.877292" lon="17.6982024">
        <ele>23.209</ele>
        <time>2013-05-19T17:17:55Z</time>
      </trkpt>
      <trkpt lat="59.8773096" lon="17.6982775">
        <ele>23.6896</ele>
        <time>2013-05-19T17:17:56Z</time>
      </trkpt>
      <trkpt lat="59.8773284" lon="17.6983524">
        <ele>23.6896</ele>
        <time>2013-05-19T17:17:57Z</time>
      </trkpt>
      <trkpt lat="59.8773489" lon="17.6984298">
        <ele>23.6896</ele>
        <time>2013-05-19T17:17:58Z</time>
      </trkpt>
      <trkpt lat="59.8773699" lon="17.6985119">
        <ele>24.1703</ele>
        <time>2013-05-19T17:17:59Z</time>
      </trkpt>
      <trkpt lat="59.8773911" lon="17.698594">
        <ele>24.1703</ele>
        <time>2013-05-19T17:18:00Z</time>
      </trkpt>
      <trkpt lat="59.8774128" lon="17.6986743">
        <ele>24.1703</ele>
        <time>2013-05-19T17:18:01Z</time>
      </trkpt>
      <trkpt lat="59.877435" lon="17.6987546">
        <ele>24.1703</ele>
        <time>2013-05-19T17:18:02Z</time>
      </trkpt>
      <trkpt lat="59.8774558" lon="17.698835">
        <ele>24.1703</ele>
        <time>2013-05-19T17:18:03Z</time>
      </trkpt>
      <trkpt lat="59.877477" lon="17.6989174">
        <ele>24.1703</ele>
        <time>2013-05-19T17:18:04Z</time>
      </trkpt>
      <trkpt lat="59.8774995" lon="17.6990013">
        <ele>24.1703</ele>
        <time>2013-05-19T17:18:05Z</time>
      </trkpt>
      <trkpt lat="59.8775236" lon="17.6990863">
        <ele>24.1703</ele>
        <time>2013-05-19T17:18:06Z</time>
      </trkpt>
      <trkpt lat="59.8775481" lon="17.6991729">
        <ele>24.1703</ele>
        <time>2013-05-19T17:18:07Z</time>
      </trkpt>
      <trkpt lat="59.8775725" lon="17.6992617">
        <ele>24.1703</ele>
        <time>2013-05-19T17:18:08Z</time>
      </trkpt>
      <trkpt lat="59.8775981" lon="17.6993505">
        <ele>24.1703</ele>
        <time>2013-05-19T17:18:09Z</time>
      </trkpt>
      <trkpt lat="59.8776251" lon="17.6994385">
        <ele>24.1703</ele>
        <time>2013-05-19T17:18:10Z</time>
      </trkpt>
      <trkpt lat="59.8776523" lon="17.6995271">
        <ele>24.1703</ele>
        <time>2013-05-19T17:18:11Z</time>
      </trkpt>
      <trkpt lat="59.87768" lon="17.6996177">
        <ele>24.1703</ele>
        <time>2013-05-19T17:18:12Z</time>
      </trkpt>
      <trkpt lat="59.8777062" lon="17.699708">
        <ele>22.7283</ele>
        <time>2013-05-19T17:18:13Z</time>
      </trkpt>
      <trkpt lat="59.8777343" lon="17.6998042">
        <ele>22.7283</ele>
        <time>2013-05-19T17:18:14Z</time>
      </trkpt>
      <trkpt lat="59.8777631" lon="17.6998995">
        <ele>22.7283</ele>
        <time>2013-05-19T17:18:15Z</time>
      </trkpt>
      <trkpt lat="59.8777926" lon="17.6999959">
        <ele>22.7283</ele>
        <time>2013-05-19T17:18:16Z</time>
      </trkpt>
      <trkpt lat="59.8778226" lon="17.7000928">
        <ele>22.2476</ele>
        <time>2013-05-19T17:18:17Z</time>
      </trkpt>
      <trkpt lat="59.8778529" lon="17.7001903">
        <ele>22.2476</ele>
        <time>2013-05-19T17:18:18Z</time>
      </trkpt>
      <trkpt lat="59.8778828" lon="17.7002877">
        <ele>22.2476</ele>
        <time>2013-05-19T17:18:19Z</time>
      </trkpt>
      <trkpt lat="59.8779136" lon="17.7003839">
        <ele>22.2476</ele>
        <time>2013-05-19T17:18:20Z</time>
      </trkpt>
      <trkpt lat="59.877945" lon="17.7004761">
        <ele>21.2864</ele>
        <time>2013-05-19T17:18:21Z</time>
      </trkpt>
      <trkpt lat="59.8779765" lon="17.7005688">
        <ele>20.325</ele>
        <time>2013-05-19T17:18:22Z</time>
      </trkpt>
      <trkpt lat="59.8780086" lon="17.7006621">
        <ele>19.8444</ele>
        <time>2013-05-19T17:18:23Z</time>
      </trkpt>
      <trkpt lat="59.8780413" lon="17.7007553">
        <ele>18.8831</ele>
        <time>2013-05-19T17:18:24Z</time>
      </trkpt>
      <trkpt lat="59.8780776" lon="17.7008552">
        <ele>18.8831</ele>
        <time>2013-05-19T17:18:25Z</time>
      </trkpt>
      <trkpt lat="59.8781127" lon="17.7009476">
        <ele>18.4023</ele>
        <time>2013-05-19T17:18:26Z</time>
      </trkpt>
      <trkpt lat="59.878148" lon="17.7010396">
        <ele>17.9218</ele>
        <time>2013-05-19T17:18:27Z</time>
      </trkpt>
      <trkpt lat="59.8781837" lon="17.7011338">
        <ele>17.4412</ele>
        <time>2013-05-19T17:18:28Z</time>
      </trkpt>
      <trkpt lat="59.8782199" lon="17.7012291">
        <ele>17.4412</ele>
        <time>2013-05-19T17:18:29Z</time>
      </trkpt>
      <trkpt lat="59.8782566" lon="17.7013232">
        <ele>17.4412</ele>
        <time>2013-05-19T17:18:30Z</time>
      </trkpt>
      <trkpt lat="59.8782934" lon="17.7014172">
        <ele>17.4412</ele>
        <time>2013-05-19T17:18:31Z</time>
      </trkpt>
      <trkpt lat="59.8783316" lon="17.701511">
        <ele>16.9604</ele>
        <time>2013-05-19T17:18:32Z</time>
      </trkpt>
      <trkpt lat="59.87837" lon="17.7016055">
        <ele>16.9604</ele>
        <time>2013-05-19T17:18:33Z</time>
      </trkpt>
      <trkpt lat="59.878407" lon="17.7017032">
        <ele>16.9604</ele>
        <time>2013-05-19T17:18:34Z</time>
      </trkpt>
      <trkpt lat="59.8784427" lon="17.7018015">
        <ele>16.4797</ele>
        <time>2013-05-19T17:18:35Z</time>
      </trkpt>
      <trkpt lat="59.8784774" lon="17.7019001">
        <ele>16.4797</ele>
        <time>2013-05-19T17:18:36Z</time>
      </trkpt>
      <trkpt lat="59.8785124" lon="17.7020001">
        <ele>16.4797</ele>
        <time>2013-05-19T17:18:37Z</time>
      </trkpt>
      <trkpt lat="59.8785478" lon="17.702099">
        <ele>16.4797</ele>
        <time>2013-05-19T17:18:38Z</time>
      </trkpt>
      <trkpt lat="59.8785836" lon="17.7021973">
        <ele>15.999</ele>
        <time>2013-05-19T17:18:39Z</time>
      </trkpt>
      <trkpt lat="59.8786177" lon="17.7022972">
        <ele>15.999</ele>
        <time>2013-05-19T17:18:40Z</time>
      </trkpt>
      <trkpt lat="59.8786509" lon="17.7023985">
        <ele>15.999</ele>
        <time>2013-05-19T17:18:41Z</time>
      </trkpt>
      <trkpt lat="59.8786849" lon="17.7024992">
        <ele>15.999</ele>
        <time>2013-05-19T17:18:42Z</time>
      </trkpt>
      <trkpt lat="59.8787188" lon="17.7025985">
        <ele>15.999</ele>
        <time>2013-05-19T17:18:43Z</time>
      </trkpt>
      <trkpt lat="59.8787519" lon="17.7026977">
        <ele>15.999</ele>
        <time>2013-05-19T17:18:44Z</time>
      </trkpt>
      <trkpt lat="59.8787851" lon="17.7027976">
        <ele>15.5184</ele>
        <time>2013-05-19T17:18:45Z</time>
      </trkpt>
      <trkpt lat="59.8788192" lon="17.7028969">
        <ele>15.5184</ele>
        <time>2013-05-19T17:18:46Z</time>
      </trkpt>
      <trkpt lat="59.8788545" lon="17.7029945">
        <ele>15.5184</ele>
        <time>2013-05-19T17:18:47Z</time>
      </trkpt>
      <trkpt lat="59.8788903" lon="17.7030925">
        <ele>15.5184</ele>
        <time>2013-05-19T17:18:48Z</time>
      </trkpt>
      <trkpt lat="59.8789263" lon="17.7031911">
        <ele>15.5184</ele>
        <time>2013-05-19T17:18:49Z</time>
      </trkpt>
      <trkpt lat="59.8789622" lon="17.7032902">
        <ele>15.5184</ele>
        <time>2013-05-19T17:18:50Z</time>
      </trkpt>
      <trkpt lat="59.8789986" lon="17.7033902">
        <ele>15.0377</ele>
        <time>2013-05-19T17:18:51Z</time>
      </trkpt>
      <trkpt lat="59.8790358" lon="17.7034905">
        <ele>15.0377</ele>
        <time>2013-05-19T17:18:52Z</time>
      </trkpt>
      <trkpt lat="59.8790731" lon="17.7035919">
        <ele>15.0377</ele>
        <time>2013-05-19T17:18:53Z</time>
      </trkpt>
      <trkpt lat="59.8791113" lon="17.703693">
        <ele>15.0377</ele>
        <time>2013-05-19T17:18:54Z</time>
      </trkpt>
      <trkpt lat="59.8791496" lon="17.7037944">
        <ele>15.0377</ele>
        <time>2013-05-19T17:18:55Z</time>
      </trkpt>
      <trkpt lat="59.8791874" lon="17.7038974">
        <ele>14.557</ele>
        <time>2013-05-19T17:18:56Z</time>
      </trkpt>
      <trkpt lat="59.8792248" lon="17.7040006">
        <ele>14.557</ele>
        <time>2013-05-19T17:18:57Z</time>
      </trkpt>
      <trkpt lat="59.8792621" lon="17.7041037">
        <ele>14.557</ele>
        <time>2013-05-19T17:18:58Z</time>
      </trkpt>
      <trkpt lat="59.8792992" lon="17.7042062">
        <ele>14.557</ele>
        <time>2013-05-19T17:18:59Z</time>
      </trkpt>
      <trkpt lat="59.8793361" lon="17.7043089">
        <ele>14.557</ele>
        <time>2013-05-19T17:19:00Z</time>
      </trkpt>
      <trkpt lat="59.879372" lon="17.7044124">
        <ele>14.557</ele>
        <time>2013-05-19T17:19:01Z</time>
      </trkpt>
      <trkpt lat="59.8794072" lon="17.7045156">
        <ele>14.557</ele>
        <time>2013-05-19T17:19:02Z</time>
      </trkpt>
      <trkpt lat="59.8794429" lon="17.7046191">
        <ele>14.0764</ele>
        <time>2013-05-19T17:19:03Z</time>
      </trkpt>
      <trkpt lat="59.8794782" lon="17.7047242">
        <ele>14.0764</ele>
        <time>2013-05-19T17:19:04Z</time>
      </trkpt>
      <trkpt lat="59.8795132" lon="17.7048303">
        <ele>14.0764</ele>
        <time>2013-05-19T17:19:05Z</time>
      </trkpt>
      <trkpt lat="59.8795474" lon="17.7049373">
        <ele>14.0764</ele>
        <time>2013-05-19T17:19:06Z</time>
      </trkpt>
      <trkpt lat="59.8795816" lon="17.7050453">
        <ele>14.0764</ele>
        <time>2013-05-19T17:19:07Z</time>
      </trkpt>
      <trkpt lat="59.8796166" lon="17.705154">
        <ele>14.0764</ele>
        <time>2013-05-19T17:19:08Z</time>
      </trkpt>
      <trkpt lat="59.8796517" lon="17.7052646">
        <ele>14.0764</ele>
        <time>2013-05-19T17:19:09Z</time>
      </trkpt>
      <trkpt lat="59.8796849" lon="17.7053735">
        <ele>13.1151</ele>
        <time>2013-05-19T17:19:10Z</time>
      </trkpt>
      <trkpt lat="59.8797195" lon="17.7054853">
        <ele>13.1151</ele>
        <time>2013-05-19T17:19:11Z</time>
      </trkpt>
      <trkpt lat="59.8797557" lon="17.7056011">
        <ele>13.5958</ele>
        <time>2013-05-19T17:19:12Z</time>
      </trkpt>
      <trkpt lat="59.8797914" lon="17.7057171">
        <ele>13.5958</ele>
        <time>2013-05-19T17:19:13Z</time>
      </trkpt>
      <trkpt lat="59.8798273" lon="17.7058324">
        <ele>13.1151</ele>
        <time>2013-05-19T17:19:14Z</time>
      </trkpt>
      <trkpt lat="59.8798625" lon="17.7059489">
        <ele>13.1151</ele>
        <time>2013-05-19T17:19:15Z</time>
      </trkpt>
      <trkpt lat="59.8798975" lon="17.706066">
        <ele>13.1151</ele>
        <time>2013-05-19T17:19:16Z</time>
      </trkpt>
      <trkpt lat="59.879933" lon="17.706183">
        <ele>13.1151</ele>
        <time>2013-05-19T17:19:17Z</time>
      </trkpt>
      <trkpt lat="59.8799688" lon="17.7063015">
        <ele>13.1151</ele>
        <time>2013-05-19T17:19:18Z</time>
      </trkpt>
      <trkpt lat="59.8800034" lon="17.7064217">
        <ele>13.1151</ele>
        <time>2013-05-19T17:19:19Z</time>
      </trkpt>
      <trkpt lat="59.8800366" lon="17.7065429">
        <ele>13.1151</ele>
        <time>2013-05-19T17:19:20Z</time>
      </trkpt>
      <trkpt lat="59.8800696" lon="17.7066668">
        <ele>13.1151</ele>
        <time>2013-05-19T17:19:21Z</time>
      </trkpt>
      <trkpt lat="59.8800994" lon="17.706793">
        <ele>13.5958</ele>
        <time>2013-05-19T17:19:22Z</time>
      </trkpt>
      <trkpt lat="59.8801268" lon="17.7069221">
        <ele>13.5958</ele>
        <time>2013-05-19T17:19:23Z</time>
      </trkpt>
      <trkpt lat="59.8801529" lon="17.7070521">
        <ele>13.5958</ele>
        <time>2013-05-19T17:19:24Z</time>
      </trkpt>
      <trkpt lat="59.8801794" lon="17.7071811">
        <ele>14.0764</ele>
        <time>2013-05-19T17:19:25Z</time>
      </trkpt>
      <trkpt lat="59.880206" lon="17.7073092">
        <ele>14.0764</ele>
        <time>2013-05-19T17:19:26Z</time>
      </trkpt>
      <trkpt lat="59.8802286" lon="17.7074376">
        <ele>14.0764</ele>
        <time>2013-05-19T17:19:27Z</time>
      </trkpt>
      <trkpt lat="59.8802493" lon="17.7075673">
        <ele>14.557</ele>
        <time>2013-05-19T17:19:28Z</time>
      </trkpt>
      <trkpt lat="59.8802693" lon="17.7076976">
        <ele>14.557</ele>
        <time>2013-05-19T17:19:29Z</time>
      </trkpt>
      <trkpt lat="59.8802903" lon="17.7078283">
        <ele>15.0377</ele>
        <time>2013-05-19T17:19:30Z</time>
      </trkpt>
      <trkpt lat="59.8803122" lon="17.7079596">
        <ele>15.0377</ele>
        <time>2013-05-19T17:19:31Z</time>
      </trkpt>
      <trkpt lat="59.8803349" lon="17.7080897">
        <ele>15.0377</ele>
        <time>2013-05-19T17:19:32Z</time>
      </trkpt>
      <trkpt lat="59.8803577" lon="17.7082184">
        <ele>15.0377</ele>
        <time>2013-05-19T17:19:33Z</time>
      </trkpt>
      <trkpt lat="59.8803822" lon="17.7083461">
        <ele>15.0377</ele>
        <time>2013-05-19T17:19:34Z</time>
      </trkpt>
      <trkpt lat="59.8804109" lon="17.7084706">
        <ele>16.4797</ele>
        <time>2013-05-19T17:19:35Z</time>
      </trkpt>
      <trkpt lat="59.8804381" lon="17.7085864">
        <ele>15.999</ele>
        <time>2013-05-19T17:19:36Z</time>
      </trkpt>
      <trkpt lat="59.880466" lon="17.7086923">
        <ele>15.999</ele>
        <time>2013-05-19T17:19:37Z</time>
      </trkpt>
      <trkpt lat="59.8804944" lon="17.7087962">
        <ele>15.999</ele>
        <time>2013-05-19T17:19:38Z</time>
      </trkpt>
      <trkpt lat="59.8805265" lon="17.7089009">
        <ele>16.4797</ele>
        <time>2013-05-19T17:19:39Z</time>
      </trkpt>
      <trkpt lat="59.8805598" lon="17.7090058">
        <ele>16.9604</ele>
        <time>2013-05-19T17:19:40Z</time>
      </trkpt>
      <trkpt lat="59.8805929" lon="17.7091075">
        <ele>16.9604</ele>
        <time>2013-05-19T17:19:41Z</time>
      </trkpt>
      <trkpt lat="59.8806321" lon="17.7092243">
        <ele>17.9218</ele>
        <time>2013-05-19T17:19:42Z</time>
      </trkpt>
      <trkpt lat="59.8806689" lon="17.7093185">
        <ele>17.9218</ele>
        <time>2013-05-19T17:19:43Z</time>
      </trkpt>
      <trkpt lat="59.8807053" lon="17.709409">
        <ele>17.9218</ele>
        <time>2013-05-19T17:19:44Z</time>
      </trkpt>
      <trkpt lat="59.880744" lon="17.7094986">
        <ele>17.9218</ele>
        <time>2013-05-19T17:19:45Z</time>
      </trkpt>
      <trkpt lat="59.8807854" lon="17.7095905">
        <ele>17.9218</ele>
        <time>2013-05-19T17:19:46Z</time>
      </trkpt>
      <trkpt lat="59.8808286" lon="17.7096843">
        <ele>18.4023</ele>
        <time>2013-05-19T17:19:47Z</time>
      </trkpt>
      <trkpt lat="59.8808752" lon="17.7097859">
        <ele>18.8831</ele>
        <time>2013-05-19T17:19:48Z</time>
      </trkpt>
      <trkpt lat="59.8809137" lon="17.709879">
        <ele>18.4023</ele>
        <time>2013-05-19T17:19:49Z</time>
      </trkpt>
      <trkpt lat="59.8809528" lon="17.7099852">
        <ele>17.4412</ele>
        <time>2013-05-19T17:19:50Z</time>
      </trkpt>
      <trkpt lat="59.8809855" lon="17.7101028">
        <ele>15.5184</ele>
        <time>2013-05-19T17:19:51Z</time>
      </trkpt>
      <trkpt lat="59.8810161" lon="17.7102244">
        <ele>14.557</ele>
        <time>2013-05-19T17:19:52Z</time>
      </trkpt>
      <trkpt lat="59.8810498" lon="17.7103481">
        <ele>14.557</ele>
        <time>2013-05-19T17:19:53Z</time>
      </trkpt>
      <trkpt lat="59.8810866" lon="17.7104621">
        <ele>14.557</ele>
        <time>2013-05-19T17:19:54Z</time>
      </trkpt>
      <trkpt lat="59.8811268" lon="17.7105706">
        <ele>15.0377</ele>
        <time>2013-05-19T17:19:55Z</time>
      </trkpt>
      <trkpt lat="59.8811652" lon="17.7106783">
        <ele>15.5184</ele>
        <time>2013-05-19T17:19:56Z</time>
      </trkpt>
      <trkpt lat="59.8812015" lon="17.7107855">
        <ele>15.0377</ele>
        <time>2013-05-19T17:19:57Z</time>
      </trkpt>
      <trkpt lat="59.8812426" lon="17.7108999">
        <ele>15.5184</ele>
        <time>2013-05-19T17:19:58Z</time>
      </trkpt>
      <trkpt lat="59.8812846" lon="17.711013">
        <ele>15.5184</ele>
        <time>2013-05-19T17:19:59Z</time>
      </trkpt>
      <trkpt lat="59.8813289" lon="17.711125">
        <ele>15.999</ele>
        <time>2013-05-19T17:20:00Z</time>
      </trkpt>
      <trkpt lat="59.8813715" lon="17.7112367">
        <ele>15.999</ele>
        <time>2013-05-19T17:20:01Z</time>
      </trkpt>
      <trkpt lat="59.8814134" lon="17.7113506">
        <ele>16.4797</ele>
        <time>2013-05-19T17:20:02Z</time>
      </trkpt>
      <trkpt lat="59.8814533" lon="17.7114651">
        <ele>16.4797</ele>
        <time>2013-05-19T17:20:03Z</time>
      </trkpt>
      <trkpt lat="59.8814907" lon="17.7115822">
        <ele>16.9604</ele>
        <time>2013-05-19T17:20:04Z</time>
      </trkpt>
      <trkpt lat="59.8815238" lon="17.7117023">
        <ele>16.9604</ele>
        <time>2013-05-19T17:20:05Z</time>
      </trkpt>
      <trkpt lat="59.8815528" lon="17.7118232">
        <ele>17.4412</ele>
        <time>2013-05-19T17:20:06Z</time>
      </trkpt>
      <trkpt lat="59.8815786" lon="17.7119448">
        <ele>17.4412</ele>
        <time>2013-05-19T17:20:07Z</time>
      </trkpt>
      <trkpt lat="59.881601" lon="17.7120667">
        <ele>17.9218</ele>
        <time>2013-05-19T17:20:08Z</time>
      </trkpt>
      <trkpt lat="59.8816211" lon="17.7121887">
        <ele>17.9218</ele>
        <time>2013-05-19T17:20:09Z</time>
      </trkpt>
      <trkpt lat="59.8816414" lon="17.7123098">
        <ele>18.4023</ele>
        <time>2013-05-19T17:20:10Z</time>
      </trkpt>
      <trkpt lat="59.8816614" lon="17.7124301">
        <ele>18.4023</ele>
        <time>2013-05-19T17:20:11Z</time>
      </trkpt>
      <trkpt lat="59.8816793" lon="17.7125498">
        <ele>18.8831</ele>
        <time>2013-05-19T17:20:12Z</time>
      </trkpt>
      <trkpt lat="59.8816963" lon="17.712668">
        <ele>18.8831</ele>
        <time>2013-05-19T17:20:13Z</time>
      </trkpt>
      <trkpt lat="59.8817127" lon="17.7127864">
        <ele>18.8831</ele>
        <time>2013-05-19T17:20:14Z</time>
      </trkpt>
      <trkpt lat="59.881729" lon="17.712905">
        <ele>18.8831</ele>
        <time>2013-05-19T17:20:15Z</time>
      </trkpt>
      <trkpt lat="59.8817456" lon="17.7130218">
        <ele>18.8831</ele>
        <time>2013-05-19T17:20:16Z</time>
      </trkpt>
      <trkpt lat="59.8817614" lon="17.7131374">
        <ele>19.3638</ele>
        <time>2013-05-19T17:20:17Z</time>
      </trkpt>
      <trkpt lat="59.8817772" lon="17.7132524">
        <ele>19.3638</ele>
        <time>2013-05-19T17:20:18Z</time>
      </trkpt>
      <trkpt lat="59.8817947" lon="17.7133678">
        <ele>19.8444</ele>
        <time>2013-05-19T17:20:19Z</time>
      </trkpt>
      <trkpt lat="59.8818114" lon="17.7134842">
        <ele>19.8444</ele>
        <time>2013-05-19T17:20:20Z</time>
      </trkpt>
      <trkpt lat="59.8818279" lon="17.7136033">
        <ele>19.8444</ele>
        <time>2013-05-19T17:20:21Z</time>
      </trkpt>
      <trkpt lat="59.8818453" lon="17.7137228">
        <ele>19.8444</ele>
        <time>2013-05-19T17:20:22Z</time>
      </trkpt>
      <trkpt lat="59.881863" lon="17.7138413">
        <ele>19.8444</ele>
        <time>2013-05-19T17:20:23Z</time>
      </trkpt>
      <trkpt lat="59.8818802" lon="17.7139603">
        <ele>19.8444</ele>
        <time>2013-05-19T17:20:24Z</time>
      </trkpt>
      <trkpt lat="59.8818973" lon="17.7140799">
        <ele>19.8444</ele>
        <time>2013-05-19T17:20:25Z</time>
      </trkpt>
      <trkpt lat="59.8819149" lon="17.7141998">
        <ele>19.8444</ele>
        <time>2013-05-19T17:20:26Z</time>
      </trkpt>
      <trkpt lat="59.881933" lon="17.7143202">
        <ele>20.325</ele>
        <time>2013-05-19T17:20:27Z</time>
      </trkpt>
      <trkpt lat="59.8819509" lon="17.7144406">
        <ele>20.325</ele>
        <time>2013-05-19T17:20:28Z</time>
      </trkpt>
      <trkpt lat="59.8819693" lon="17.7145609">
        <ele>20.325</ele>
        <time>2013-05-19T17:20:29Z</time>
      </trkpt>
      <trkpt lat="59.8819879" lon="17.7146813">
        <ele>20.325</ele>
        <time>2013-05-19T17:20:30Z</time>
      </trkpt>
      <trkpt lat="59.8820066" lon="17.7148021">
        <ele>20.325</ele>
        <time>2013-05-19T17:20:31Z</time>
      </trkpt>
      <trkpt lat="59.8820245" lon="17.7149224">
        <ele>19.8444</ele>
        <time>2013-05-19T17:20:32Z</time>
      </trkpt>
      <trkpt lat="59.8820417" lon="17.7150423">
        <ele>19.8444</ele>
        <time>2013-05-19T17:20:33Z</time>
      </trkpt>
      <trkpt lat="59.8820589" lon="17.7151617">
        <ele>20.325</ele>
        <time>2013-05-19T17:20:34Z</time>
      </trkpt>
      <trkpt lat="59.8820759" lon="17.7152808">
        <ele>20.325</ele>
        <time>2013-05-19T17:20:35Z</time>
      </trkpt>
      <trkpt lat="59.8820926" lon="17.7153993">
        <ele>20.325</ele>
        <time>2013-05-19T17:20:36Z</time>
      </trkpt>
      <trkpt lat="59.8821091" lon="17.7155166">
        <ele>20.325</ele>
        <time>2013-05-19T17:20:37Z</time>
      </trkpt>
      <trkpt lat="59.8821253" lon="17.7156327">
        <ele>20.325</ele>
        <time>2013-05-19T17:20:38Z</time>
      </trkpt>
      <trkpt lat="59.8821412" lon="17.7157484">
        <ele>20.8057</ele>
        <time>2013-05-19T17:20:39Z</time>
      </trkpt>
      <trkpt lat="59.8821571" lon="17.7158646">
        <ele>20.8057</ele>
        <time>2013-05-19T17:20:40Z</time>
      </trkpt>
      <trkpt lat="59.8821732" lon="17.7159816">
        <ele>20.8057</ele>
        <time>2013-05-19T17:20:41Z</time>
      </trkpt>
      <trkpt lat="59.882189" lon="17.7160981">
        <ele>21.2864</ele>
        <time>2013-05-19T17:20:42Z</time>
      </trkpt>
      <trkpt lat="59.8822051" lon="17.7162123">
        <ele>21.2864</ele>
        <time>2013-05-19T17:20:43Z</time>
      </trkpt>
      <trkpt lat="59.8822213" lon="17.7163258">
        <ele>21.2864</ele>
        <time>2013-05-19T17:20:44Z</time>
      </trkpt>
      <trkpt lat="59.882236" lon="17.7164394">
        <ele>21.767</ele>
        <time>2013-05-19T17:20:45Z</time>
      </trkpt>
      <trkpt lat="59.8822501" lon="17.716552">
        <ele>21.767</ele>
        <time>2013-05-19T17:20:46Z</time>
      </trkpt>
      <trkpt lat="59.8822646" lon="17.7166634">
        <ele>21.767</ele>
        <time>2013-05-19T17:20:47Z</time>
      </trkpt>
      <trkpt lat="59.8822783" lon="17.7167742">
        <ele>21.767</ele>
        <time>2013-05-19T17:20:48Z</time>
      </trkpt>
      <trkpt lat="59.8822915" lon="17.7168851">
        <ele>21.767</ele>
        <time>2013-05-19T17:20:49Z</time>
      </trkpt>
      <trkpt lat="59.8823044" lon="17.7169966">
        <ele>22.2476</ele>
        <time>2013-05-19T17:20:50Z</time>
      </trkpt>
      <trkpt lat="59.8823163" lon="17.7171104">
        <ele>22.2476</ele>
        <time>2013-05-19T17:20:51Z</time>
      </trkpt>
      <trkpt lat="59.8823272" lon="17.717226">
        <ele>22.2476</ele>
        <time>2013-05-19T17:20:52Z</time>
      </trkpt>
      <trkpt lat="59.8823377" lon="17.7173428">
        <ele>22.2476</ele>
        <time>2013-05-19T17:20:53Z</time>
      </trkpt>
      <trkpt lat="59.882347" lon="17.7174604">
        <ele>22.2476</ele>
        <time>2013-05-19T17:20:54Z</time>
      </trkpt>
      <trkpt lat="59.8823546" lon="17.7175777">
        <ele>22.7283</ele>
        <time>2013-05-19T17:20:55Z</time>
      </trkpt>
      <trkpt lat="59.8823608" lon="17.7176946">
        <ele>22.7283</ele>
        <time>2013-05-19T17:20:56Z</time>
      </trkpt>
      <trkpt lat="59.8823649" lon="17.7178114">
        <ele>22.7283</ele>
        <time>2013-05-19T17:20:57Z</time>
      </trkpt>
      <trkpt lat="59.8823664" lon="17.7179263">
        <ele>23.209</ele>
        <time>2013-05-19T17:20:58Z</time>
      </trkpt>
      <trkpt lat="59.8823686" lon="17.7180381">
        <ele>23.209</ele>
        <time>2013-05-19T17:20:59Z</time>
      </trkpt>
      <trkpt lat="59.8823752" lon="17.7181511">
        <ele>23.209</ele>
        <time>2013-05-19T17:21:00Z</time>
      </trkpt>
      <trkpt lat="59.8823859" lon="17.7182677">
        <ele>23.209</ele>
        <time>2013-05-19T17:21:01Z</time>
      </trkpt>
      <trkpt lat="59.8824008" lon="17.7183857">
        <ele>23.209</ele>
        <time>2013-05-19T17:21:02Z</time>
      </trkpt>
      <trkpt lat="59.8824192" lon="17.7185039">
        <ele>23.209</ele>
        <time>2013-05-19T17:21:03Z</time>
      </trkpt>
      <trkpt lat="59.8824396" lon="17.7186221">
        <ele>23.209</ele>
        <time>2013-05-19T17:21:04Z</time>
      </trkpt>
      <trkpt lat="59.8824612" lon="17.7187401">
        <ele>23.209</ele>
        <time>2013-05-19T17:21:05Z</time>
      </trkpt>
      <trkpt lat="59.8824826" lon="17.7188503">
        <ele>22.7283</ele>
        <time>2013-05-19T17:21:06Z</time>
      </trkpt>
      <trkpt lat="59.8825066" lon="17.7189675">
        <ele>22.7283</ele>
        <time>2013-05-19T17:21:07Z</time>
      </trkpt>
      <trkpt lat="59.8825309" lon="17.7190835">
        <ele>22.7283</ele>
        <time>2013-05-19T17:21:08Z</time>
      </trkpt>
      <trkpt lat="59.8825557" lon="17.7191983">
        <ele>22.7283</ele>
        <time>2013-05-19T17:21:09Z</time>
      </trkpt>
      <trkpt lat="59.8825815" lon="17.7193126">
        <ele>22.7283</ele>
        <time>2013-05-19T17:21:10Z</time>
      </trkpt>
      <trkpt lat="59.8826069" lon="17.719427">
        <ele>22.7283</ele>
        <time>2013-05-19T17:21:11Z</time>
      </trkpt>
      <trkpt lat="59.8826317" lon="17.7195409">
        <ele>22.7283</ele>
        <time>2013-05-19T17:21:12Z</time>
      </trkpt>
      <trkpt lat="59.8826566" lon="17.7196547">
        <ele>22.7283</ele>
        <time>2013-05-19T17:21:13Z</time>
      </trkpt>
      <trkpt lat="59.882682" lon="17.7197669">
        <ele>22.7283</ele>
        <time>2013-05-19T17:21:14Z</time>
      </trkpt>
      <trkpt lat="59.882707" lon="17.7198791">
        <ele>23.209</ele>
        <time>2013-05-19T17:21:15Z</time>
      </trkpt>
      <trkpt lat="59.8827323" lon="17.7199925">
        <ele>23.209</ele>
        <time>2013-05-19T17:21:16Z</time>
      </trkpt>
      <trkpt lat="59.8827582" lon="17.7201057">
        <ele>23.209</ele>
        <time>2013-05-19T17:21:17Z</time>
      </trkpt>
      <trkpt lat="59.8827832" lon="17.720219">
        <ele>23.6896</ele>
        <time>2013-05-19T17:21:18Z</time>
      </trkpt>
      <trkpt lat="59.8828078" lon="17.720332">
        <ele>24.1703</ele>
        <time>2013-05-19T17:21:19Z</time>
      </trkpt>
      <trkpt lat="59.8828318" lon="17.7204445">
        <ele>24.1703</ele>
        <time>2013-05-19T17:21:20Z</time>
      </trkpt>
      <trkpt lat="59.8828535" lon="17.7205594">
        <ele>24.1703</ele>
        <time>2013-05-19T17:21:21Z</time>
      </trkpt>
      <trkpt lat="59.8828679" lon="17.7206738">
        <ele>24.1703</ele>
        <time>2013-05-19T17:21:22Z</time>
      </trkpt>
      <trkpt lat="59.8828676" lon="17.7207933">
        <ele>24.651</ele>
        <time>2013-05-19T17:21:23Z</time>
      </trkpt>
      <trkpt lat="59.8828505" lon="17.720909">
        <ele>24.651</ele>
        <time>2013-05-19T17:21:24Z</time>
      </trkpt>
      <trkpt lat="59.8828189" lon="17.7210162">
        <ele>25.6123</ele>
        <time>2013-05-19T17:21:25Z</time>
      </trkpt>
      <trkpt lat="59.8827675" lon="17.7211037">
        <ele>22.7283</ele>
        <time>2013-05-19T17:21:26Z</time>
      </trkpt>
      <trkpt lat="59.8827078" lon="17.721172">
        <ele>20.325</ele>
        <time>2013-05-19T17:21:27Z</time>
      </trkpt>
      <trkpt lat="59.8826454" lon="17.7212258">
        <ele>18.8831</ele>
        <time>2013-05-19T17:21:28Z</time>
      </trkpt>
      <trkpt lat="59.8825826" lon="17.7212757">
        <ele>18.4023</ele>
        <time>2013-05-19T17:21:29Z</time>
      </trkpt>
      <trkpt lat="59.8825188" lon="17.7213322">
        <ele>16.9604</ele>
        <time>2013-05-19T17:21:30Z</time>
      </trkpt>
      <trkpt lat="59.8824534" lon="17.7213824">
        <ele>15.5184</ele>
        <time>2013-05-19T17:21:31Z</time>
      </trkpt>
      <trkpt lat="59.8823904" lon="17.7214362">
        <ele>14.557</ele>
        <time>2013-05-19T17:21:32Z</time>
      </trkpt>
      <trkpt lat="59.8823286" lon="17.7214917">
        <ele>14.0764</ele>
        <time>2013-05-19T17:21:33Z</time>
      </trkpt>
      <trkpt lat="59.8822676" lon="17.7215512">
        <ele>13.5958</ele>
        <time>2013-05-19T17:21:34Z</time>
      </trkpt>
      <trkpt lat="59.8822071" lon="17.7216135">
        <ele>12.6344</ele>
        <time>2013-05-19T17:21:35Z</time>
      </trkpt>
      <trkpt lat="59.8821475" lon="17.7216788">
        <ele>12.6344</ele>
        <time>2013-05-19T17:21:36Z</time>
      </trkpt>
      <trkpt lat="59.8820903" lon="17.7217507">
        <ele>12.1538</ele>
        <time>2013-05-19T17:21:37Z</time>
      </trkpt>
      <trkpt lat="59.882035" lon="17.721829">
        <ele>11.6732</ele>
        <time>2013-05-19T17:21:38Z</time>
      </trkpt>
      <trkpt lat="59.8819812" lon="17.7219145">
        <ele>11.1925</ele>
        <time>2013-05-19T17:21:39Z</time>
      </trkpt>
      <trkpt lat="59.8819294" lon="17.7220056">
        <ele>11.1925</ele>
        <time>2013-05-19T17:21:40Z</time>
      </trkpt>
      <trkpt lat="59.8818792" lon="17.722102">
        <ele>10.7118</ele>
        <time>2013-05-19T17:21:41Z</time>
      </trkpt>
      <trkpt lat="59.8818305" lon="17.7222035">
        <ele>10.7118</ele>
        <time>2013-05-19T17:21:42Z</time>
      </trkpt>
      <trkpt lat="59.8817821" lon="17.7223065">
        <ele>10.7118</ele>
        <time>2013-05-19T17:21:43Z</time>
      </trkpt>
      <trkpt lat="59.8817331" lon="17.7224082">
        <ele>10.7118</ele>
        <time>2013-05-19T17:21:44Z</time>
      </trkpt>
      <trkpt lat="59.8816847" lon="17.7225107">
        <ele>10.2312</ele>
        <time>2013-05-19T17:21:45Z</time>
      </trkpt>
      <trkpt lat="59.8816373" lon="17.7226147">
        <ele>10.2312</ele>
        <time>2013-05-19T17:21:46Z</time>
      </trkpt>
      <trkpt lat="59.8815906" lon="17.7227184">
        <ele>10.2312</ele>
        <time>2013-05-19T17:21:47Z</time>
      </trkpt>
      <trkpt lat="59.8815449" lon="17.7228205">
        <ele>10.7118</ele>
        <time>2013-05-19T17:21:48Z</time>
      </trkpt>
      <trkpt lat="59.8815005" lon="17.7229241">
        <ele>10.7118</ele>
        <time>2013-05-19T17:21:49Z</time>
      </trkpt>
      <trkpt lat="59.88146" lon="17.7230309">
        <ele>10.7118</ele>
        <time>2013-05-19T17:21:50Z</time>
      </trkpt>
      <trkpt lat="59.881427" lon="17.7231432">
        <ele>11.1925</ele>
        <time>2013-05-19T17:21:51Z</time>
      </trkpt>
      <trkpt lat="59.8814026" lon="17.7232608">
        <ele>11.1925</ele>
        <time>2013-05-19T17:21:52Z</time>
      </trkpt>
      <trkpt lat="59.8813885" lon="17.7233825">
        <ele>11.1925</ele>
        <time>2013-05-19T17:21:53Z</time>
      </trkpt>
      <trkpt lat="59.881387" lon="17.7235068">
        <ele>11.6732</ele>
        <time>2013-05-19T17:21:54Z</time>
      </trkpt>
      <trkpt lat="59.8813958" lon="17.7236291">
        <ele>11.6732</ele>
        <time>2013-05-19T17:21:55Z</time>
      </trkpt>
      <trkpt lat="59.8814117" lon="17.7237472">
        <ele>12.1538</ele>
        <time>2013-05-19T17:21:56Z</time>
      </trkpt>
      <trkpt lat="59.8814326" lon="17.7238622">
        <ele>12.1538</ele>
        <time>2013-05-19T17:21:57Z</time>
      </trkpt>
      <trkpt lat="59.881457" lon="17.7239739">
        <ele>12.1538</ele>
        <time>2013-05-19T17:21:58Z</time>
      </trkpt>
      <trkpt lat="59.8814799" lon="17.7240632">
        <ele>11.1925</ele>
        <time>2013-05-19T17:21:59Z</time>
      </trkpt>
      <trkpt lat="59.8815077" lon="17.7241678">
        <ele>11.6732</ele>
        <time>2013-05-19T17:22:00Z</time>
      </trkpt>
      <trkpt lat="59.8815381" lon="17.7242839">
        <ele>12.1538</ele>
        <time>2013-05-19T17:22:01Z</time>
      </trkpt>
      <trkpt lat="59.8815674" lon="17.7243936">
        <ele>12.6344</ele>
        <time>2013-05-19T17:22:02Z</time>
      </trkpt>
      <trkpt lat="59.8815968" lon="17.7245014">
        <ele>13.1151</ele>
        <time>2013-05-19T17:22:03Z</time>
      </trkpt>
      <trkpt lat="59.8816243" lon="17.7245957">
        <ele>13.1151</ele>
        <time>2013-05-19T17:22:04Z</time>
      </trkpt>
      <trkpt lat="59.8816527" lon="17.7246963">
        <ele>13.5958</ele>
        <time>2013-05-19T17:22:05Z</time>
      </trkpt>
      <trkpt lat="59.8816803" lon="17.7247958">
        <ele>14.0764</ele>
        <time>2013-05-19T17:22:06Z</time>
      </trkpt>
      <trkpt lat="59.8817078" lon="17.7248936">
        <ele>14.557</ele>
        <time>2013-05-19T17:22:07Z</time>
      </trkpt>
      <trkpt lat="59.8817352" lon="17.7249965">
        <ele>14.0764</ele>
        <time>2013-05-19T17:22:08Z</time>
      </trkpt>
      <trkpt lat="59.8817644" lon="17.7250987">
        <ele>14.0764</ele>
        <time>2013-05-19T17:22:09Z</time>
      </trkpt>
      <trkpt lat="59.8817916" lon="17.7251991">
        <ele>13.1151</ele>
        <time>2013-05-19T17:22:10Z</time>
      </trkpt>
      <trkpt lat="59.8818189" lon="17.7252997">
        <ele>13.1151</ele>
        <time>2013-05-19T17:22:11Z</time>
      </trkpt>
      <trkpt lat="59.8818486" lon="17.7253997">
        <ele>13.1151</ele>
        <time>2013-05-19T17:22:12Z</time>
      </trkpt>
      <trkpt lat="59.8818779" lon="17.7254976">
        <ele>13.5958</ele>
        <time>2013-05-19T17:22:13Z</time>
      </trkpt>
      <trkpt lat="59.8819056" lon="17.7255921">
        <ele>14.0764</ele>
        <time>2013-05-19T17:22:14Z</time>
      </trkpt>
      <trkpt lat="59.8819378" lon="17.7256847">
        <ele>15.5184</ele>
        <time>2013-05-19T17:22:15Z</time>
      </trkpt>
      <trkpt lat="59.881968" lon="17.7257755">
        <ele>15.0377</ele>
        <time>2013-05-19T17:22:16Z</time>
      </trkpt>
      <trkpt lat="59.8819984" lon="17.7258686">
        <ele>15.0377</ele>
        <time>2013-05-19T17:22:17Z</time>
      </trkpt>
      <trkpt lat="59.8820292" lon="17.7259638">
        <ele>15.0377</ele>
        <time>2013-05-19T17:22:18Z</time>
      </trkpt>
      <trkpt lat="59.8820631" lon="17.7260692">
        <ele>15.5184</ele>
        <time>2013-05-19T17:22:19Z</time>
      </trkpt>
      <trkpt lat="59.8820967" lon="17.7261698">
        <ele>15.999</ele>
        <time>2013-05-19T17:22:20Z</time>
      </trkpt>
      <trkpt lat="59.8821304" lon="17.7262714">
        <ele>16.4797</ele>
        <time>2013-05-19T17:22:21Z</time>
      </trkpt>
      <trkpt lat="59.882164" lon="17.7263708">
        <ele>16.9604</ele>
        <time>2013-05-19T17:22:22Z</time>
      </trkpt>
      <trkpt lat="59.8821971" lon="17.726466">
        <ele>16.9604</ele>
        <time>2013-05-19T17:22:23Z</time>
      </trkpt>
      <trkpt lat="59.8822289" lon="17.7265606">
        <ele>17.4412</ele>
        <time>2013-05-19T17:22:24Z</time>
      </trkpt>
      <trkpt lat="59.8822604" lon="17.7266517">
        <ele>17.4412</ele>
        <time>2013-05-19T17:22:25Z</time>
      </trkpt>
      <trkpt lat="59.8822918" lon="17.7267423">
        <ele>17.4412</ele>
        <time>2013-05-19T17:22:26Z</time>
      </trkpt>
      <trkpt lat="59.8823221" lon="17.7268344">
        <ele>17.4412</ele>
        <time>2013-05-19T17:22:27Z</time>
      </trkpt>
      <trkpt lat="59.8823516" lon="17.7269261">
        <ele>17.4412</ele>
        <time>2013-05-19T17:22:28Z</time>
      </trkpt>
      <trkpt lat="59.8823796" lon="17.7270182">
        <ele>17.9218</ele>
        <time>2013-05-19T17:22:29Z</time>
      </trkpt>
      <trkpt lat="59.8824064" lon="17.7271091">
        <ele>17.9218</ele>
        <time>2013-05-19T17:22:30Z</time>
      </trkpt>
      <trkpt lat="59.8824319" lon="17.7271982">
        <ele>17.9218</ele>
        <time>2013-05-19T17:22:31Z</time>
      </trkpt>
      <trkpt lat="59.8824558" lon="17.7272821">
        <ele>17.4412</ele>
        <time>2013-05-19T17:22:32Z</time>
      </trkpt>
      <trkpt lat="59.8824795" lon="17.727369">
        <ele>17.4412</ele>
        <time>2013-05-19T17:22:33Z</time>
      </trkpt>
      <trkpt lat="59.8825017" lon="17.7274587">
        <ele>17.4412</ele>
        <time>2013-05-19T17:22:34Z</time>
      </trkpt>
      <trkpt lat="59.8825241" lon="17.7275507">
        <ele>17.9218</ele>
        <time>2013-05-19T17:22:35Z</time>
      </trkpt>
      <trkpt lat="59.8825459" lon="17.7276451">
        <ele>17.9218</ele>
        <time>2013-05-19T17:22:36Z</time>
      </trkpt>
      <trkpt lat="59.8825682" lon="17.7277417">
        <ele>17.9218</ele>
        <time>2013-05-19T17:22:37Z</time>
      </trkpt>
      <trkpt lat="59.8825897" lon="17.7278414">
        <ele>17.9218</ele>
        <time>2013-05-19T17:22:38Z</time>
      </trkpt>
      <trkpt lat="59.8826099" lon="17.7279457">
        <ele>17.9218</ele>
        <time>2013-05-19T17:22:39Z</time>
      </trkpt>
      <trkpt lat="59.8826297" lon="17.7280537">
        <ele>17.9218</ele>
        <time>2013-05-19T17:22:40Z</time>
      </trkpt>
      <trkpt lat="59.8826504" lon="17.728163">
        <ele>18.4023</ele>
        <time>2013-05-19T17:22:41Z</time>
      </trkpt>
      <trkpt lat="59.8826725" lon="17.7282735">
        <ele>18.4023</ele>
        <time>2013-05-19T17:22:42Z</time>
      </trkpt>
      <trkpt lat="59.882692" lon="17.7283855">
        <ele>18.4023</ele>
        <time>2013-05-19T17:22:43Z</time>
      </trkpt>
      <trkpt lat="59.8827125" lon="17.7285011">
        <ele>18.4023</ele>
        <time>2013-05-19T17:22:44Z</time>
      </trkpt>
      <trkpt lat="59.8827345" lon="17.7286205">
        <ele>18.8831</ele>
        <time>2013-05-19T17:22:45Z</time>
      </trkpt>
      <trkpt lat="59.882759" lon="17.7287403">
        <ele>19.3638</ele>
        <time>2013-05-19T17:22:46Z</time>
      </trkpt>
      <trkpt lat="59.8827844" lon="17.7288589">
        <ele>19.3638</ele>
        <time>2013-05-19T17:22:47Z</time>
      </trkpt>
      <trkpt lat="59.8828058" lon="17.7289784">
        <ele>19.3638</ele>
        <time>2013-05-19T17:22:48Z</time>
      </trkpt>
      <trkpt lat="59.8828248" lon="17.7290999">
        <ele>19.3638</ele>
        <time>2013-05-19T17:22:49Z</time>
      </trkpt>
      <trkpt lat="59.8828422" lon="17.7292215">
        <ele>19.3638</ele>
        <time>2013-05-19T17:22:50Z</time>
      </trkpt>
      <trkpt lat="59.8828581" lon="17.7293467">
        <ele>19.8444</ele>
        <time>2013-05-19T17:22:51Z</time>
      </trkpt>
      <trkpt lat="59.8828706" lon="17.7294697">
        <ele>20.325</ele>
        <time>2013-05-19T17:22:52Z</time>
      </trkpt>
      <trkpt lat="59.8828804" lon="17.7295919">
        <ele>21.2864</ele>
        <time>2013-05-19T17:22:53Z</time>
      </trkpt>
      <trkpt lat="59.8828862" lon="17.7297101">
        <ele>22.2476</ele>
        <time>2013-05-19T17:22:54Z</time>
      </trkpt>
      <trkpt lat="59.882882" lon="17.7298175">
        <ele>21.2864</ele>
        <time>2013-05-19T17:22:55Z</time>
      </trkpt>
      <trkpt lat="59.8828748" lon="17.7299188">
        <ele>21.2864</ele>
        <time>2013-05-19T17:22:56Z</time>
      </trkpt>
      <trkpt lat="59.8828551" lon="17.7300155">
        <ele>18.8831</ele>
        <time>2013-05-19T17:22:57Z</time>
      </trkpt>
      <trkpt lat="59.8828307" lon="17.7301114">
        <ele>17.4412</ele>
        <time>2013-05-19T17:22:58Z</time>
      </trkpt>
      <trkpt lat="59.8828012" lon="17.7301936">
        <ele>15.999</ele>
        <time>2013-05-19T17:22:59Z</time>
      </trkpt>
      <trkpt lat="59.8827696" lon="17.7302749">
        <ele>15.0377</ele>
        <time>2013-05-19T17:23:00Z</time>
      </trkpt>
      <trkpt lat="59.8827364" lon="17.7303549">
        <ele>15.999</ele>
        <time>2013-05-19T17:23:01Z</time>
      </trkpt>
      <trkpt lat="59.8827023" lon="17.7304299">
        <ele>15.999</ele>
        <time>2013-05-19T17:23:02Z</time>
      </trkpt>
      <trkpt lat="59.8826783" lon="17.730522">
        <ele>15.5184</ele>
        <time>2013-05-19T17:23:03Z</time>
      </trkpt>
      <trkpt lat="59.8826659" lon="17.7306238">
        <ele>15.999</ele>
        <time>2013-05-19T17:23:04Z</time>
      </trkpt>
      <trkpt lat="59.8826654" lon="17.7307292">
        <ele>15.5184</ele>
        <time>2013-05-19T17:23:05Z</time>
      </trkpt>
      <trkpt lat="59.8826761" lon="17.7308332">
        <ele>15.5184</ele>
        <time>2013-05-19T17:23:06Z</time>
      </trkpt>
      <trkpt lat="59.8826934" lon="17.7309619">
        <ele>16.9604</ele>
        <time>2013-05-19T17:23:07Z</time>
      </trkpt>
      <trkpt lat="59.8827165" lon="17.7310838">
        <ele>18.4023</ele>
        <time>2013-05-19T17:23:08Z</time>
      </trkpt>
      <trkpt lat="59.8827396" lon="17.7312045">
        <ele>18.8831</ele>
        <time>2013-05-19T17:23:09Z</time>
      </trkpt>
      <trkpt lat="59.8827645" lon="17.7313225">
        <ele>19.3638</ele>
        <time>2013-05-19T17:23:10Z</time>
      </trkpt>
      <trkpt lat="59.8827966" lon="17.7314323">
        <ele>18.8831</ele>
        <time>2013-05-19T17:23:11Z</time>
      </trkpt>
      <trkpt lat="59.882837" lon="17.7315431">
        <ele>18.8831</ele>
        <time>2013-05-19T17:23:12Z</time>
      </trkpt>
      <trkpt lat="59.8828836" lon="17.7316582">
        <ele>18.8831</ele>
        <time>2013-05-19T17:23:13Z</time>
      </trkpt>
      <trkpt lat="59.8829339" lon="17.7317751">
        <ele>18.8831</ele>
        <time>2013-05-19T17:23:14Z</time>
      </trkpt>
      <trkpt lat="59.8829864" lon="17.7318911">
        <ele>18.8831</ele>
        <time>2013-05-19T17:23:15Z</time>
      </trkpt>
      <trkpt lat="59.8830394" lon="17.7320063">
        <ele>18.8831</ele>
        <time>2013-05-19T17:23:16Z</time>
      </trkpt>
      <trkpt lat="59.8830908" lon="17.7321208">
        <ele>18.8831</ele>
        <time>2013-05-19T17:23:17Z</time>
      </trkpt>
      <trkpt lat="59.8831416" lon="17.7322326">
        <ele>18.8831</ele>
        <time>2013-05-19T17:23:18Z</time>
      </trkpt>
      <trkpt lat="59.883191" lon="17.7323426">
        <ele>19.3638</ele>
        <time>2013-05-19T17:23:19Z</time>
      </trkpt>
      <trkpt lat="59.8832362" lon="17.7324544">
        <ele>19.3638</ele>
        <time>2013-05-19T17:23:20Z</time>
      </trkpt>
      <trkpt lat="59.8832782" lon="17.7325687">
        <ele>19.3638</ele>
        <time>2013-05-19T17:23:21Z</time>
      </trkpt>
      <trkpt lat="59.8833174" lon="17.7326874">
        <ele>19.3638</ele>
        <time>2013-05-19T17:23:22Z</time>
      </trkpt>
      <trkpt lat="59.8833522" lon="17.7328106">
        <ele>18.8831</ele>
        <time>2013-05-19T17:23:23Z</time>
      </trkpt>
      <trkpt lat="59.8833814" lon="17.7329381">
        <ele>18.8831</ele>
        <time>2013-05-19T17:23:24Z</time>
      </trkpt>
      <trkpt lat="59.8834058" lon="17.7330667">
        <ele>18.8831</ele>
        <time>2013-05-19T17:23:25Z</time>
      </trkpt>
      <trkpt lat="59.8834279" lon="17.7331926">
        <ele>18.8831</ele>
        <time>2013-05-19T17:23:26Z</time>
      </trkpt>
      <trkpt lat="59.8834485" lon="17.7333159">
        <ele>18.8831</ele>
        <time>2013-05-19T17:23:27Z</time>
      </trkpt>
      <trkpt lat="59.8834689" lon="17.7334381">
        <ele>18.8831</ele>
        <time>2013-05-19T17:23:28Z</time>
      </trkpt>
      <trkpt lat="59.8834892" lon="17.7335599">
        <ele>18.8831</ele>
        <time>2013-05-19T17:23:29Z</time>
      </trkpt>
      <trkpt lat="59.8835088" lon="17.7336806">
        <ele>18.8831</ele>
        <time>2013-05-19T17:23:30Z</time>
      </trkpt>
      <trkpt lat="59.8835278" lon="17.7338008">
        <ele>18.8831</ele>
        <time>2013-05-19T17:23:31Z</time>
      </trkpt>
      <trkpt lat="59.8835439" lon="17.733922">
        <ele>18.4023</ele>
        <time>2013-05-19T17:23:32Z</time>
      </trkpt>
      <trkpt lat="59.8835571" lon="17.7340443">
        <ele>18.4023</ele>
        <time>2013-05-19T17:23:33Z</time>
      </trkpt>
      <trkpt lat="59.8835671" lon="17.7341681">
        <ele>18.4023</ele>
        <time>2013-05-19T17:23:34Z</time>
      </trkpt>
      <trkpt lat="59.883572" lon="17.7342921">
        <ele>18.8831</ele>
        <time>2013-05-19T17:23:35Z</time>
      </trkpt>
      <trkpt lat="59.883569" lon="17.734414">
        <ele>18.8831</ele>
        <time>2013-05-19T17:23:36Z</time>
      </trkpt>
      <trkpt lat="59.8835575" lon="17.7345347">
        <ele>18.8831</ele>
        <time>2013-05-19T17:23:37Z</time>
      </trkpt>
      <trkpt lat="59.8835383" lon="17.7346548">
        <ele>18.8831</ele>
        <time>2013-05-19T17:23:38Z</time>
      </trkpt>
      <trkpt lat="59.8835125" lon="17.7347697">
        <ele>18.8831</ele>
        <time>2013-05-19T17:23:39Z</time>
      </trkpt>
      <trkpt lat="59.8834813" lon="17.734878">
        <ele>19.3638</ele>
        <time>2013-05-19T17:23:40Z</time>
      </trkpt>
      <trkpt lat="59.8834454" lon="17.7349802">
        <ele>19.3638</ele>
        <time>2013-05-19T17:23:41Z</time>
      </trkpt>
      <trkpt lat="59.8834078" lon="17.7350798">
        <ele>19.3638</ele>
        <time>2013-05-19T17:23:42Z</time>
      </trkpt>
      <trkpt lat="59.8833747" lon="17.735186">
        <ele>19.3638</ele>
        <time>2013-05-19T17:23:43Z</time>
      </trkpt>
      <trkpt lat="59.8833506" lon="17.7353009">
        <ele>19.8444</ele>
        <time>2013-05-19T17:23:44Z</time>
      </trkpt>
      <trkpt lat="59.8833363" lon="17.7354227">
        <ele>19.8444</ele>
        <time>2013-05-19T17:23:45Z</time>
      </trkpt>
      <trkpt lat="59.883332" lon="17.7355473">
        <ele>19.8444</ele>
        <time>2013-05-19T17:23:46Z</time>
      </trkpt>
      <trkpt lat="59.8833371" lon="17.7356723">
        <ele>20.325</ele>
        <time>2013-05-19T17:23:47Z</time>
      </trkpt>
      <trkpt lat="59.8833491" lon="17.7357935">
        <ele>20.8057</ele>
        <time>2013-05-19T17:23:48Z</time>
      </trkpt>
      <trkpt lat="59.8833658" lon="17.7359089">
        <ele>21.2864</ele>
        <time>2013-05-19T17:23:49Z</time>
      </trkpt>
      <trkpt lat="59.8833855" lon="17.7360174">
        <ele>21.2864</ele>
        <time>2013-05-19T17:23:50Z</time>
      </trkpt>
      <trkpt lat="59.8834074" lon="17.7361111">
        <ele>21.2864</ele>
        <time>2013-05-19T17:23:51Z</time>
      </trkpt>
      <trkpt lat="59.8834295" lon="17.736209">
        <ele>21.2864</ele>
        <time>2013-05-19T17:23:52Z</time>
      </trkpt>
      <trkpt lat="59.8834498" lon="17.7363046">
        <ele>21.767</ele>
        <time>2013-05-19T17:23:53Z</time>
      </trkpt>
      <trkpt lat="59.8834708" lon="17.7363954">
        <ele>22.2476</ele>
        <time>2013-05-19T17:23:54Z</time>
      </trkpt>
      <trkpt lat="59.8834933" lon="17.7364804">
        <ele>22.2476</ele>
        <time>2013-05-19T17:23:55Z</time>
      </trkpt>
      <trkpt lat="59.883516" lon="17.7365617">
        <ele>23.209</ele>
        <time>2013-05-19T17:23:56Z</time>
      </trkpt>
      <trkpt lat="59.8835382" lon="17.7366377">
        <ele>23.6896</ele>
        <time>2013-05-19T17:23:57Z</time>
      </trkpt>
      <trkpt lat="59.8835601" lon="17.736711">
        <ele>24.1703</ele>
        <time>2013-05-19T17:23:58Z</time>
      </trkpt>
      <trkpt lat="59.8835834" lon="17.7367838">
        <ele>24.651</ele>
        <time>2013-05-19T17:23:59Z</time>
      </trkpt>
      <trkpt lat="59.8836058" lon="17.7368532">
        <ele>25.1317</ele>
        <time>2013-05-19T17:24:00Z</time>
      </trkpt>
      <trkpt lat="59.8836285" lon="17.7369233">
        <ele>24.651</ele>
        <time>2013-05-19T17:24:01Z</time>
      </trkpt>
      <trkpt lat="59.8836523" lon="17.7369941">
        <ele>24.651</ele>
        <time>2013-05-19T17:24:02Z</time>
      </trkpt>
      <trkpt lat="59.8836767" lon="17.7370647">
        <ele>25.1317</ele>
        <time>2013-05-19T17:24:03Z</time>
      </trkpt>
      <trkpt lat="59.883701" lon="17.737136">
        <ele>24.651</ele>
        <time>2013-05-19T17:24:04Z</time>
      </trkpt>
      <trkpt lat="59.8837248" lon="17.7372103">
        <ele>24.651</ele>
        <time>2013-05-19T17:24:05Z</time>
      </trkpt>
      <trkpt lat="59.8837487" lon="17.7372896">
        <ele>25.1317</ele>
        <time>2013-05-19T17:24:06Z</time>
      </trkpt>
      <trkpt lat="59.8837726" lon="17.7373739">
        <ele>25.1317</ele>
        <time>2013-05-19T17:24:07Z</time>
      </trkpt>
      <trkpt lat="59.8837956" lon="17.7374616">
        <ele>25.1317</ele>
        <time>2013-05-19T17:24:08Z</time>
      </trkpt>
      <trkpt lat="59.8838152" lon="17.7375527">
        <ele>25.1317</ele>
        <time>2013-05-19T17:24:09Z</time>
      </trkpt>
      <trkpt lat="59.8838341" lon="17.7376484">
        <ele>25.1317</ele>
        <time>2013-05-19T17:24:10Z</time>
      </trkpt>
      <trkpt lat="59.883851" lon="17.7377455">
        <ele>25.1317</ele>
        <time>2013-05-19T17:24:11Z</time>
      </trkpt>
      <trkpt lat="59.8838667" lon="17.7378454">
        <ele>25.1317</ele>
        <time>2013-05-19T17:24:12Z</time>
      </trkpt>
      <trkpt lat="59.8838791" lon="17.7379494">
        <ele>25.1317</ele>
        <time>2013-05-19T17:24:13Z</time>
      </trkpt>
      <trkpt lat="59.8838888" lon="17.7380562">
        <ele>24.651</ele>
        <time>2013-05-19T17:24:14Z</time>
      </trkpt>
      <trkpt lat="59.8838983" lon="17.7381646">
        <ele>24.651</ele>
        <time>2013-05-19T17:24:15Z</time>
      </trkpt>
      <trkpt lat="59.8839082" lon="17.7382735">
        <ele>24.651</ele>
        <time>2013-05-19T17:24:16Z</time>
      </trkpt>
      <trkpt lat="59.8839188" lon="17.7383828">
        <ele>24.651</ele>
        <time>2013-05-19T17:24:17Z</time>
      </trkpt>
      <trkpt lat="59.88393" lon="17.7384909">
        <ele>24.651</ele>
        <time>2013-05-19T17:24:18Z</time>
      </trkpt>
      <trkpt lat="59.8839409" lon="17.738598">
        <ele>24.651</ele>
        <time>2013-05-19T17:24:19Z</time>
      </trkpt>
      <trkpt lat="59.8839508" lon="17.7387056">
        <ele>24.651</ele>
        <time>2013-05-19T17:24:20Z</time>
      </trkpt>
      <trkpt lat="59.8839614" lon="17.7388136">
        <ele>25.1317</ele>
        <time>2013-05-19T17:24:21Z</time>
      </trkpt>
      <trkpt lat="59.8839729" lon="17.7389214">
        <ele>25.1317</ele>
        <time>2013-05-19T17:24:22Z</time>
      </trkpt>
      <trkpt lat="59.8839832" lon="17.7390286">
        <ele>25.1317</ele>
        <time>2013-05-19T17:24:23Z</time>
      </trkpt>
      <trkpt lat="59.8839921" lon="17.739135">
        <ele>25.1317</ele>
        <time>2013-05-19T17:24:24Z</time>
      </trkpt>
      <trkpt lat="59.8840014" lon="17.7392401">
        <ele>25.1317</ele>
        <time>2013-05-19T17:24:25Z</time>
      </trkpt>
      <trkpt lat="59.8840105" lon="17.7393443">
        <ele>24.651</ele>
        <time>2013-05-19T17:24:26Z</time>
      </trkpt>
      <trkpt lat="59.8840197" lon="17.7394486">
        <ele>24.1703</ele>
        <time>2013-05-19T17:24:27Z</time>
      </trkpt>
      <trkpt lat="59.8840307" lon="17.7395523">
        <ele>24.1703</ele>
        <time>2013-05-19T17:24:28Z</time>
      </trkpt>
      <trkpt lat="59.8840439" lon="17.739654">
        <ele>24.1703</ele>
        <time>2013-05-19T17:24:29Z</time>
      </trkpt>
      <trkpt lat="59.8840634" lon="17.739752">
        <ele>24.1703</ele>
        <time>2013-05-19T17:24:30Z</time>
      </trkpt>
      <trkpt lat="59.8840934" lon="17.7398357">
        <ele>24.1703</ele>
        <time>2013-05-19T17:24:31Z</time>
      </trkpt>
      <trkpt lat="59.8841359" lon="17.7398987">
        <ele>24.1703</ele>
        <time>2013-05-19T17:24:32Z</time>
      </trkpt>
      <trkpt lat="59.8841873" lon="17.7399306">
        <ele>23.6896</ele>
        <time>2013-05-19T17:24:33Z</time>
      </trkpt>
      <trkpt lat="59.8842407" lon="17.7399198">
        <ele>21.767</ele>
        <time>2013-05-19T17:24:34Z</time>
      </trkpt>
      <trkpt lat="59.8842928" lon="17.7398828">
        <ele>19.8444</ele>
        <time>2013-05-19T17:24:35Z</time>
      </trkpt>
      <trkpt lat="59.8843506" lon="17.7398059">
        <ele>18.8831</ele>
        <time>2013-05-19T17:24:36Z</time>
      </trkpt>
      <trkpt lat="59.8844104" lon="17.7397407">
        <ele>17.9218</ele>
        <time>2013-05-19T17:24:37Z</time>
      </trkpt>
      <trkpt lat="59.8844687" lon="17.7396754">
        <ele>16.9604</ele>
        <time>2013-05-19T17:24:38Z</time>
      </trkpt>
      <trkpt lat="59.8845304" lon="17.739633">
        <ele>16.4797</ele>
        <time>2013-05-19T17:24:39Z</time>
      </trkpt>
      <trkpt lat="59.8845913" lon="17.7395994">
        <ele>15.5184</ele>
        <time>2013-05-19T17:24:40Z</time>
      </trkpt>
      <trkpt lat="59.8846536" lon="17.7395501">
        <ele>15.0377</ele>
        <time>2013-05-19T17:24:41Z</time>
      </trkpt>
      <trkpt lat="59.8847189" lon="17.7395061">
        <ele>14.557</ele>
        <time>2013-05-19T17:24:42Z</time>
      </trkpt>
      <trkpt lat="59.8847867" lon="17.7394698">
        <ele>14.557</ele>
        <time>2013-05-19T17:24:43Z</time>
      </trkpt>
      <trkpt lat="59.884855" lon="17.7394391">
        <ele>13.5958</ele>
        <time>2013-05-19T17:24:44Z</time>
      </trkpt>
      <trkpt lat="59.8849276" lon="17.7394106">
        <ele>13.5958</ele>
        <time>2013-05-19T17:24:45Z</time>
      </trkpt>
      <trkpt lat="59.8850017" lon="17.7393901">
        <ele>13.1151</ele>
        <time>2013-05-19T17:24:46Z</time>
      </trkpt>
      <trkpt lat="59.8850802" lon="17.7393989">
        <ele>13.1151</ele>
        <time>2013-05-19T17:24:47Z</time>
      </trkpt>
      <trkpt lat="59.8851566" lon="17.739448">
        <ele>13.1151</ele>
        <time>2013-05-19T17:24:48Z</time>
      </trkpt>
      <trkpt lat="59.8852193" lon="17.7395408">
        <ele>12.6344</ele>
        <time>2013-05-19T17:24:49Z</time>
      </trkpt>
      <trkpt lat="59.8852657" lon="17.7396615">
        <ele>12.6344</ele>
        <time>2013-05-19T17:24:50Z</time>
      </trkpt>
      <trkpt lat="59.8852896" lon="17.7397975">
        <ele>12.1538</ele>
        <time>2013-05-19T17:24:51Z</time>
      </trkpt>
      <trkpt lat="59.8853085" lon="17.7399376">
        <ele>12.6344</ele>
        <time>2013-05-19T17:24:52Z</time>
      </trkpt>
      <trkpt lat="59.8853243" lon="17.740077">
        <ele>12.1538</ele>
        <time>2013-05-19T17:24:53Z</time>
      </trkpt>
      <trkpt lat="59.8853451" lon="17.7402176">
        <ele>12.6344</ele>
        <time>2013-05-19T17:24:54Z</time>
      </trkpt>
      <trkpt lat="59.8853675" lon="17.7403513">
        <ele>12.6344</ele>
        <time>2013-05-19T17:24:55Z</time>
      </trkpt>
      <trkpt lat="59.8853941" lon="17.7404824">
        <ele>13.1151</ele>
        <time>2013-05-19T17:24:56Z</time>
      </trkpt>
      <trkpt lat="59.8854213" lon="17.7406119">
        <ele>13.1151</ele>
        <time>2013-05-19T17:24:57Z</time>
      </trkpt>
      <trkpt lat="59.8854528" lon="17.7407419">
        <ele>13.1151</ele>
        <time>2013-05-19T17:24:58Z</time>
      </trkpt>
      <trkpt lat="59.8854908" lon="17.7408684">
        <ele>13.5958</ele>
        <time>2013-05-19T17:24:59Z</time>
      </trkpt>
      <trkpt lat="59.8855378" lon="17.7409846">
        <ele>13.5958</ele>
        <time>2013-05-19T17:25:00Z</time>
      </trkpt>
      <trkpt lat="59.8855938" lon="17.7410895">
        <ele>14.0764</ele>
        <time>2013-05-19T17:25:01Z</time>
      </trkpt>
      <trkpt lat="59.8856569" lon="17.7411793">
        <ele>14.0764</ele>
        <time>2013-05-19T17:25:02Z</time>
      </trkpt>
      <trkpt lat="59.8857252" lon="17.7412552">
        <ele>14.0764</ele>
        <time>2013-05-19T17:25:03Z</time>
      </trkpt>
      <trkpt lat="59.8857969" lon="17.7413268">
        <ele>14.0764</ele>
        <time>2013-05-19T17:25:04Z</time>
      </trkpt>
      <trkpt lat="59.8858713" lon="17.7413974">
        <ele>14.0764</ele>
        <time>2013-05-19T17:25:05Z</time>
      </trkpt>
      <trkpt lat="59.8859495" lon="17.7414687">
        <ele>14.0764</ele>
        <time>2013-05-19T17:25:06Z</time>
      </trkpt>
      <trkpt lat="59.8860279" lon="17.7415484">
        <ele>13.5958</ele>
        <time>2013-05-19T17:25:07Z</time>
      </trkpt>
      <trkpt lat="59.8861066" lon="17.7416337">
        <ele>13.5958</ele>
        <time>2013-05-19T17:25:08Z</time>
      </trkpt>
      <trkpt lat="59.8861841" lon="17.7417228">
        <ele>13.5958</ele>
        <time>2013-05-19T17:25:09Z</time>
      </trkpt>
      <trkpt lat="59.886261" lon="17.7418138">
        <ele>13.5958</ele>
        <time>2013-05-19T17:25:10Z</time>
      </trkpt>
      <trkpt lat="59.886337" lon="17.7419055">
        <ele>13.1151</ele>
        <time>2013-05-19T17:25:11Z</time>
      </trkpt>
      <trkpt lat="59.8864117" lon="17.7419967">
        <ele>13.1151</ele>
        <time>2013-05-19T17:25:12Z</time>
      </trkpt>
      <trkpt lat="59.8864848" lon="17.7420873">
        <ele>13.5958</ele>
        <time>2013-05-19T17:25:13Z</time>
      </trkpt>
      <trkpt lat="59.8865558" lon="17.7421773">
        <ele>13.1151</ele>
        <time>2013-05-19T17:25:14Z</time>
      </trkpt>
      <trkpt lat="59.8866257" lon="17.7422645">
        <ele>13.5958</ele>
        <time>2013-05-19T17:25:15Z</time>
      </trkpt>
      <trkpt lat="59.8866939" lon="17.7423501">
        <ele>13.5958</ele>
        <time>2013-05-19T17:25:16Z</time>
      </trkpt>
      <trkpt lat="59.8867584" lon="17.7424365">
        <ele>13.5958</ele>
        <time>2013-05-19T17:25:17Z</time>
      </trkpt>
      <trkpt lat="59.886819" lon="17.7425239">
        <ele>13.5958</ele>
        <time>2013-05-19T17:25:18Z</time>
      </trkpt>
      <trkpt lat="59.8868777" lon="17.7426104">
        <ele>13.5958</ele>
        <time>2013-05-19T17:25:19Z</time>
      </trkpt>
      <trkpt lat="59.8869364" lon="17.7426974">
        <ele>13.5958</ele>
        <time>2013-05-19T17:25:20Z</time>
      </trkpt>
      <trkpt lat="59.8869936" lon="17.7427867">
        <ele>13.5958</ele>
        <time>2013-05-19T17:25:21Z</time>
      </trkpt>
      <trkpt lat="59.8870511" lon="17.7428774">
        <ele>13.5958</ele>
        <time>2013-05-19T17:25:22Z</time>
      </trkpt>
      <trkpt lat="59.8871059" lon="17.7429686">
        <ele>13.5958</ele>
        <time>2013-05-19T17:25:23Z</time>
      </trkpt>
      <trkpt lat="59.8871597" lon="17.7430601">
        <ele>13.5958</ele>
        <time>2013-05-19T17:25:24Z</time>
      </trkpt>
      <trkpt lat="59.8872131" lon="17.7431487">
        <ele>13.5958</ele>
        <time>2013-05-19T17:25:25Z</time>
      </trkpt>
      <trkpt lat="59.8872659" lon="17.7432328">
        <ele>14.0764</ele>
        <time>2013-05-19T17:25:26Z</time>
      </trkpt>
      <trkpt lat="59.8873162" lon="17.7433143">
        <ele>14.0764</ele>
        <time>2013-05-19T17:25:27Z</time>
      </trkpt>
      <trkpt lat="59.8873649" lon="17.7433946">
        <ele>14.557</ele>
        <time>2013-05-19T17:25:28Z</time>
      </trkpt>
      <trkpt lat="59.887412" lon="17.7434741">
        <ele>14.557</ele>
        <time>2013-05-19T17:25:29Z</time>
      </trkpt>
      <trkpt lat="59.887458" lon="17.7435529">
        <ele>15.0377</ele>
        <time>2013-05-19T17:25:30Z</time>
      </trkpt>
      <trkpt lat="59.8875022" lon="17.7436294">
        <ele>15.0377</ele>
        <time>2013-05-19T17:25:31Z</time>
      </trkpt>
      <trkpt lat="59.8875456" lon="17.7437029">
        <ele>15.0377</ele>
        <time>2013-05-19T17:25:32Z</time>
      </trkpt>
      <trkpt lat="59.8875886" lon="17.7437748">
        <ele>15.0377</ele>
        <time>2013-05-19T17:25:33Z</time>
      </trkpt>
      <trkpt lat="59.8876316" lon="17.7438463">
        <ele>15.5184</ele>
        <time>2013-05-19T17:25:34Z</time>
      </trkpt>
      <trkpt lat="59.8876742" lon="17.7439178">
        <ele>15.5184</ele>
        <time>2013-05-19T17:25:35Z</time>
      </trkpt>
      <trkpt lat="59.8877169" lon="17.7439895">
        <ele>15.5184</ele>
        <time>2013-05-19T17:25:36Z</time>
      </trkpt>
      <trkpt lat="59.88776" lon="17.7440609">
        <ele>15.5184</ele>
        <time>2013-05-19T17:25:37Z</time>
      </trkpt>
      <trkpt lat="59.8878036" lon="17.7441327">
        <ele>15.5184</ele>
        <time>2013-05-19T17:25:38Z</time>
      </trkpt>
      <trkpt lat="59.8878466" lon="17.7442064">
        <ele>15.999</ele>
        <time>2013-05-19T17:25:39Z</time>
      </trkpt>
      <trkpt lat="59.8878899" lon="17.7442807">
        <ele>15.999</ele>
        <time>2013-05-19T17:25:40Z</time>
      </trkpt>
      <trkpt lat="59.8879332" lon="17.744355">
        <ele>15.999</ele>
        <time>2013-05-19T17:25:41Z</time>
      </trkpt>
      <trkpt lat="59.8879772" lon="17.7444282">
        <ele>16.4797</ele>
        <time>2013-05-19T17:25:42Z</time>
      </trkpt>
      <trkpt lat="59.8880212" lon="17.7445033">
        <ele>16.4797</ele>
        <time>2013-05-19T17:25:43Z</time>
      </trkpt>
      <trkpt lat="59.8880652" lon="17.744579">
        <ele>16.4797</ele>
        <time>2013-05-19T17:25:44Z</time>
      </trkpt>
      <trkpt lat="59.8881081" lon="17.7446519">
        <ele>16.4797</ele>
        <time>2013-05-19T17:25:45Z</time>
      </trkpt>
      <trkpt lat="59.8881522" lon="17.7447249">
        <ele>16.9604</ele>
        <time>2013-05-19T17:25:46Z</time>
      </trkpt>
      <trkpt lat="59.8881956" lon="17.7447972">
        <ele>16.9604</ele>
        <time>2013-05-19T17:25:47Z</time>
      </trkpt>
      <trkpt lat="59.8882377" lon="17.7448688">
        <ele>17.4412</ele>
        <time>2013-05-19T17:25:48Z</time>
      </trkpt>
      <trkpt lat="59.8882791" lon="17.7449399">
        <ele>17.4412</ele>
        <time>2013-05-19T17:25:49Z</time>
      </trkpt>
      <trkpt lat="59.8883209" lon="17.7450104">
        <ele>17.4412</ele>
        <time>2013-05-19T17:25:50Z</time>
      </trkpt>
      <trkpt lat="59.8883631" lon="17.745081">
        <ele>17.9218</ele>
        <time>2013-05-19T17:25:51Z</time>
      </trkpt>
      <trkpt lat="59.8884048" lon="17.7451514">
        <ele>17.9218</ele>
        <time>2013-05-19T17:25:52Z</time>
      </trkpt>
      <trkpt lat="59.8884447" lon="17.7452223">
        <ele>17.4412</ele>
        <time>2013-05-19T17:25:53Z</time>
      </trkpt>
      <trkpt lat="59.8884852" lon="17.7452943">
        <ele>17.9218</ele>
        <time>2013-05-19T17:25:54Z</time>
      </trkpt>
      <trkpt lat="59.8885268" lon="17.7453651">
        <ele>17.9218</ele>
        <time>2013-05-19T17:25:55Z</time>
      </trkpt>
      <trkpt lat="59.8885687" lon="17.745435">
        <ele>17.9218</ele>
        <time>2013-05-19T17:25:56Z</time>
      </trkpt>
      <trkpt lat="59.8886108" lon="17.745506">
        <ele>17.9218</ele>
        <time>2013-05-19T17:25:57Z</time>
      </trkpt>
      <trkpt lat="59.8886526" lon="17.7455785">
        <ele>17.9218</ele>
        <time>2013-05-19T17:25:58Z</time>
      </trkpt>
      <trkpt lat="59.8886939" lon="17.7456507">
        <ele>17.9218</ele>
        <time>2013-05-19T17:25:59Z</time>
      </trkpt>
      <trkpt lat="59.8887353" lon="17.7457212">
        <ele>18.4023</ele>
        <time>2013-05-19T17:26:00Z</time>
      </trkpt>
      <trkpt lat="59.8887765" lon="17.7457911">
        <ele>18.4023</ele>
        <time>2013-05-19T17:26:01Z</time>
      </trkpt>
      <trkpt lat="59.8888171" lon="17.7458603">
        <ele>18.4023</ele>
        <time>2013-05-19T17:26:02Z</time>
      </trkpt>
      <trkpt lat="59.888857" lon="17.7459294">
        <ele>18.4023</ele>
        <time>2013-05-19T17:26:03Z</time>
      </trkpt>
      <trkpt lat="59.8888961" lon="17.7459978">
        <ele>18.4023</ele>
        <time>2013-05-19T17:26:04Z</time>
      </trkpt>
      <trkpt lat="59.8889344" lon="17.7460656">
        <ele>18.4023</ele>
        <time>2013-05-19T17:26:05Z</time>
      </trkpt>
      <trkpt lat="59.8889734" lon="17.7461314">
        <ele>18.4023</ele>
        <time>2013-05-19T17:26:06Z</time>
      </trkpt>
      <trkpt lat="59.8890119" lon="17.7461976">
        <ele>18.4023</ele>
        <time>2013-05-19T17:26:07Z</time>
      </trkpt>
      <trkpt lat="59.8890503" lon="17.7462652">
        <ele>18.4023</ele>
        <time>2013-05-19T17:26:08Z</time>
      </trkpt>
      <trkpt lat="59.8890889" lon="17.7463325">
        <ele>18.4023</ele>
        <time>2013-05-19T17:26:09Z</time>
      </trkpt>
      <trkpt lat="59.8891277" lon="17.7463992">
        <ele>18.4023</ele>
        <time>2013-05-19T17:26:10Z</time>
      </trkpt>
      <trkpt lat="59.8891673" lon="17.7464657">
        <ele>18.4023</ele>
        <time>2013-05-19T17:26:11Z</time>
      </trkpt>
      <trkpt lat="59.8892069" lon="17.7465334">
        <ele>18.4023</ele>
        <time>2013-05-19T17:26:12Z</time>
      </trkpt>
      <trkpt lat="59.8892462" lon="17.7466014">
        <ele>18.4023</ele>
        <time>2013-05-19T17:26:13Z</time>
      </trkpt>
      <trkpt lat="59.8892861" lon="17.7466687">
        <ele>18.8831</ele>
        <time>2013-05-19T17:26:14Z</time>
      </trkpt>
      <trkpt lat="59.8893261" lon="17.7467357">
        <ele>18.8831</ele>
        <time>2013-05-19T17:26:15Z</time>
      </trkpt>
      <trkpt lat="59.8893669" lon="17.7468029">
        <ele>18.8831</ele>
        <time>2013-05-19T17:26:16Z</time>
      </trkpt>
      <trkpt lat="59.8894063" lon="17.7468717">
        <ele>18.8831</ele>
        <time>2013-05-19T17:26:17Z</time>
      </trkpt>
      <trkpt lat="59.8894452" lon="17.7469428">
        <ele>18.8831</ele>
        <time>2013-05-19T17:26:18Z</time>
      </trkpt>
      <trkpt lat="59.8894859" lon="17.7470137">
        <ele>18.8831</ele>
        <time>2013-05-19T17:26:19Z</time>
      </trkpt>
      <trkpt lat="59.8895269" lon="17.7470825">
        <ele>18.8831</ele>
        <time>2013-05-19T17:26:20Z</time>
      </trkpt>
      <trkpt lat="59.8895674" lon="17.7471513">
        <ele>18.8831</ele>
        <time>2013-05-19T17:26:21Z</time>
      </trkpt>
      <trkpt lat="59.8896077" lon="17.7472207">
        <ele>19.3638</ele>
        <time>2013-05-19T17:26:22Z</time>
      </trkpt>
      <trkpt lat="59.8896482" lon="17.7472895">
        <ele>19.3638</ele>
        <time>2013-05-19T17:26:23Z</time>
      </trkpt>
      <trkpt lat="59.8896887" lon="17.7473581">
        <ele>19.3638</ele>
        <time>2013-05-19T17:26:24Z</time>
      </trkpt>
      <trkpt lat="59.8897281" lon="17.7474278">
        <ele>19.3638</ele>
        <time>2013-05-19T17:26:25Z</time>
      </trkpt>
      <trkpt lat="59.8897667" lon="17.7474965">
        <ele>19.8444</ele>
        <time>2013-05-19T17:26:26Z</time>
      </trkpt>
      <trkpt lat="59.8898048" lon="17.747564">
        <ele>19.8444</ele>
        <time>2013-05-19T17:26:27Z</time>
      </trkpt>
      <trkpt lat="59.889843" lon="17.7476306">
        <ele>19.8444</ele>
        <time>2013-05-19T17:26:28Z</time>
      </trkpt>
      <trkpt lat="59.8898824" lon="17.7476972">
        <ele>20.325</ele>
        <time>2013-05-19T17:26:29Z</time>
      </trkpt>
      <trkpt lat="59.8899218" lon="17.7477646">
        <ele>20.8057</ele>
        <time>2013-05-19T17:26:30Z</time>
      </trkpt>
      <trkpt lat="59.8899602" lon="17.7478316">
        <ele>20.8057</ele>
        <time>2013-05-19T17:26:31Z</time>
      </trkpt>
      <trkpt lat="59.8899983" lon="17.7478973">
        <ele>21.2864</ele>
        <time>2013-05-19T17:26:32Z</time>
      </trkpt>
      <trkpt lat="59.8900362" lon="17.747964">
        <ele>21.2864</ele>
        <time>2013-05-19T17:26:33Z</time>
      </trkpt>
      <trkpt lat="59.8900729" lon="17.7480301">
        <ele>21.2864</ele>
        <time>2013-05-19T17:26:34Z</time>
      </trkpt>
      <trkpt lat="59.8901119" lon="17.7480942">
        <ele>21.767</ele>
        <time>2013-05-19T17:26:35Z</time>
      </trkpt>
      <trkpt lat="59.8901496" lon="17.7481562">
        <ele>21.767</ele>
        <time>2013-05-19T17:26:36Z</time>
      </trkpt>
      <trkpt lat="59.8901896" lon="17.7482178">
        <ele>22.7283</ele>
        <time>2013-05-19T17:26:37Z</time>
      </trkpt>
      <trkpt lat="59.8902268" lon="17.7482759">
        <ele>22.7283</ele>
        <time>2013-05-19T17:26:38Z</time>
      </trkpt>
      <trkpt lat="59.8902641" lon="17.7483304">
        <ele>22.7283</ele>
        <time>2013-05-19T17:26:39Z</time>
      </trkpt>
      <trkpt lat="59.8903015" lon="17.7483827">
        <ele>23.209</ele>
        <time>2013-05-19T17:26:40Z</time>
      </trkpt>
      <trkpt lat="59.8903358" lon="17.7484331">
        <ele>23.209</ele>
        <time>2013-05-19T17:26:41Z</time>
      </trkpt>
      <trkpt lat="59.8903724" lon="17.7484827">
        <ele>23.209</ele>
        <time>2013-05-19T17:26:42Z</time>
      </trkpt>
      <trkpt lat="59.8904109" lon="17.7485293">
        <ele>23.209</ele>
        <time>2013-05-19T17:26:43Z</time>
      </trkpt>
      <trkpt lat="59.8904537" lon="17.7485662">
        <ele>23.6896</ele>
        <time>2013-05-19T17:26:44Z</time>
      </trkpt>
      <trkpt lat="59.8904992" lon="17.7485827">
        <ele>24.1703</ele>
        <time>2013-05-19T17:26:45Z</time>
      </trkpt>
      <trkpt lat="59.8905466" lon="17.7485845">
        <ele>24.1703</ele>
        <time>2013-05-19T17:26:46Z</time>
      </trkpt>
      <trkpt lat="59.8905937" lon="17.7485661">
        <ele>23.6896</ele>
        <time>2013-05-19T17:26:47Z</time>
      </trkpt>
      <trkpt lat="59.8906413" lon="17.7485297">
        <ele>23.209</ele>
        <time>2013-05-19T17:26:48Z</time>
      </trkpt>
      <trkpt lat="59.8906885" lon="17.7484843">
        <ele>22.2476</ele>
        <time>2013-05-19T17:26:49Z</time>
      </trkpt>
      <trkpt lat="59.8907336" lon="17.7484299">
        <ele>21.2864</ele>
        <time>2013-05-19T17:26:50Z</time>
      </trkpt>
      <trkpt lat="59.890778" lon="17.7483619">
        <ele>19.8444</ele>
        <time>2013-05-19T17:26:51Z</time>
      </trkpt>
      <trkpt lat="59.8908219" lon="17.7482858">
        <ele>18.4023</ele>
        <time>2013-05-19T17:26:52Z</time>
      </trkpt>
      <trkpt lat="59.8908697" lon="17.7482076">
        <ele>17.9218</ele>
        <time>2013-05-19T17:26:53Z</time>
      </trkpt>
      <trkpt lat="59.8909205" lon="17.7481303">
        <ele>17.9218</ele>
        <time>2013-05-19T17:26:54Z</time>
      </trkpt>
      <trkpt lat="59.8909712" lon="17.7480552">
        <ele>16.9604</ele>
        <time>2013-05-19T17:26:55Z</time>
      </trkpt>
      <trkpt lat="59.8910242" lon="17.7479837">
        <ele>16.9604</ele>
        <time>2013-05-19T17:26:56Z</time>
      </trkpt>
      <trkpt lat="59.8910783" lon="17.7479118">
        <ele>16.4797</ele>
        <time>2013-05-19T17:26:57Z</time>
      </trkpt>
      <trkpt lat="59.8911327" lon="17.7478383">
        <ele>16.4797</ele>
        <time>2013-05-19T17:26:58Z</time>
      </trkpt>
      <trkpt lat="59.8911847" lon="17.7477631">
        <ele>15.999</ele>
        <time>2013-05-19T17:26:59Z</time>
      </trkpt>
      <trkpt lat="59.8912374" lon="17.7476891">
        <ele>15.5184</ele>
        <time>2013-05-19T17:27:00Z</time>
      </trkpt>
      <trkpt lat="59.8912908" lon="17.747617">
        <ele>15.5184</ele>
        <time>2013-05-19T17:27:01Z</time>
      </trkpt>
      <trkpt lat="59.8913425" lon="17.7475419">
        <ele>15.0377</ele>
        <time>2013-05-19T17:27:02Z</time>
      </trkpt>
      <trkpt lat="59.8913928" lon="17.7474654">
        <ele>15.0377</ele>
        <time>2013-05-19T17:27:03Z</time>
      </trkpt>
      <trkpt lat="59.8914433" lon="17.7473898">
        <ele>14.557</ele>
        <time>2013-05-19T17:27:04Z</time>
      </trkpt>
      <trkpt lat="59.8914949" lon="17.7473139">
        <ele>14.557</ele>
        <time>2013-05-19T17:27:05Z</time>
      </trkpt>
      <trkpt lat="59.8915463" lon="17.7472373">
        <ele>14.557</ele>
        <time>2013-05-19T17:27:06Z</time>
      </trkpt>
      <trkpt lat="59.8915965" lon="17.7471607">
        <ele>14.0764</ele>
        <time>2013-05-19T17:27:07Z</time>
      </trkpt>
      <trkpt lat="59.8916453" lon="17.7470828">
        <ele>13.5958</ele>
        <time>2013-05-19T17:27:08Z</time>
      </trkpt>
      <trkpt lat="59.8916948" lon="17.7470036">
        <ele>13.5958</ele>
        <time>2013-05-19T17:27:09Z</time>
      </trkpt>
      <trkpt lat="59.8917472" lon="17.7469225">
        <ele>13.1151</ele>
        <time>2013-05-19T17:27:10Z</time>
      </trkpt>
      <trkpt lat="59.8918012" lon="17.7468391">
        <ele>13.1151</ele>
        <time>2013-05-19T17:27:11Z</time>
      </trkpt>
      <trkpt lat="59.8918559" lon="17.7467539">
        <ele>13.5958</ele>
        <time>2013-05-19T17:27:12Z</time>
      </trkpt>
      <trkpt lat="59.891911" lon="17.7466676">
        <ele>13.5958</ele>
        <time>2013-05-19T17:27:13Z</time>
      </trkpt>
      <trkpt lat="59.8919678" lon="17.7465821">
        <ele>13.5958</ele>
        <time>2013-05-19T17:27:14Z</time>
      </trkpt>
      <trkpt lat="59.8920244" lon="17.7464957">
        <ele>14.0764</ele>
        <time>2013-05-19T17:27:15Z</time>
      </trkpt>
      <trkpt lat="59.8920796" lon="17.7464073">
        <ele>14.0764</ele>
        <time>2013-05-19T17:27:16Z</time>
      </trkpt>
      <trkpt lat="59.892131" lon="17.7463131">
        <ele>14.557</ele>
        <time>2013-05-19T17:27:17Z</time>
      </trkpt>
      <trkpt lat="59.8921791" lon="17.7462143">
        <ele>15.0377</ele>
        <time>2013-05-19T17:27:18Z</time>
      </trkpt>
      <trkpt lat="59.8922233" lon="17.7461108">
        <ele>15.5184</ele>
        <time>2013-05-19T17:27:19Z</time>
      </trkpt>
      <trkpt lat="59.8922626" lon="17.7460035">
        <ele>15.5184</ele>
        <time>2013-05-19T17:27:20Z</time>
      </trkpt>
      <trkpt lat="59.8922985" lon="17.7458937">
        <ele>15.5184</ele>
        <time>2013-05-19T17:27:21Z</time>
      </trkpt>
      <trkpt lat="59.8923329" lon="17.7457822">
        <ele>15.5184</ele>
        <time>2013-05-19T17:27:22Z</time>
      </trkpt>
      <trkpt lat="59.8923668" lon="17.745669">
        <ele>15.5184</ele>
        <time>2013-05-19T17:27:23Z</time>
      </trkpt>
      <trkpt lat="59.8924016" lon="17.7455552">
        <ele>15.5184</ele>
        <time>2013-05-19T17:27:24Z</time>
      </trkpt>
      <trkpt lat="59.8924362" lon="17.745443">
        <ele>15.5184</ele>
        <time>2013-05-19T17:27:25Z</time>
      </trkpt>
      <trkpt lat="59.8924707" lon="17.745331">
        <ele>15.0377</ele>
        <time>2013-05-19T17:27:26Z</time>
      </trkpt>
      <trkpt lat="59.892508" lon="17.7452186">
        <ele>15.5184</ele>
        <time>2013-05-19T17:27:27Z</time>
      </trkpt>
      <trkpt lat="59.892544" lon="17.7451046">
        <ele>15.999</ele>
        <time>2013-05-19T17:27:28Z</time>
      </trkpt>
      <trkpt lat="59.89258" lon="17.7449908">
        <ele>16.4797</ele>
        <time>2013-05-19T17:27:29Z</time>
      </trkpt>
      <trkpt lat="59.8926158" lon="17.7448787">
        <ele>16.9604</ele>
        <time>2013-05-19T17:27:30Z</time>
      </trkpt>
      <trkpt lat="59.8926505" lon="17.7447659">
        <ele>17.9218</ele>
        <time>2013-05-19T17:27:31Z</time>
      </trkpt>
      <trkpt lat="59.8926863" lon="17.7446549">
        <ele>18.4023</ele>
        <time>2013-05-19T17:27:32Z</time>
      </trkpt>
      <trkpt lat="59.8927184" lon="17.7445516">
        <ele>18.8831</ele>
        <time>2013-05-19T17:27:33Z</time>
      </trkpt>
      <trkpt lat="59.8927516" lon="17.74445">
        <ele>19.3638</ele>
        <time>2013-05-19T17:27:34Z</time>
      </trkpt>
      <trkpt lat="59.8927815" lon="17.7443543">
        <ele>19.3638</ele>
        <time>2013-05-19T17:27:35Z</time>
      </trkpt>
      <trkpt lat="59.8928116" lon="17.7442654">
        <ele>19.3638</ele>
        <time>2013-05-19T17:27:36Z</time>
      </trkpt>
      <trkpt lat="59.8928392" lon="17.7441826">
        <ele>19.3638</ele>
        <time>2013-05-19T17:27:37Z</time>
      </trkpt>
      <trkpt lat="59.8928676" lon="17.7440967">
        <ele>19.3638</ele>
        <time>2013-05-19T17:27:38Z</time>
      </trkpt>
      <trkpt lat="59.8928952" lon="17.7440139">
        <ele>19.8444</ele>
        <time>2013-05-19T17:27:39Z</time>
      </trkpt>
      <trkpt lat="59.892919" lon="17.7439409">
        <ele>18.8831</ele>
        <time>2013-05-19T17:27:40Z</time>
      </trkpt>
      <trkpt lat="59.8929439" lon="17.7438701">
        <ele>19.3638</ele>
        <time>2013-05-19T17:27:41Z</time>
      </trkpt>
      <trkpt lat="59.8929651" lon="17.7437942">
        <ele>19.3638</ele>
        <time>2013-05-19T17:27:42Z</time>
      </trkpt>
      <trkpt lat="59.8929889" lon="17.7437145">
        <ele>20.325</ele>
        <time>2013-05-19T17:27:43Z</time>
      </trkpt>
      <trkpt lat="59.8930122" lon="17.7436288">
        <ele>20.325</ele>
        <time>2013-05-19T17:27:44Z</time>
      </trkpt>
      <trkpt lat="59.8930365" lon="17.7435467">
        <ele>20.8057</ele>
        <time>2013-05-19T17:27:45Z</time>
      </trkpt>
      <trkpt lat="59.893061" lon="17.7434669">
        <ele>20.8057</ele>
        <time>2013-05-19T17:27:46Z</time>
      </trkpt>
      <trkpt lat="59.8930908" lon="17.7433847">
        <ele>21.2864</ele>
        <time>2013-05-19T17:27:47Z</time>
      </trkpt>
      <trkpt lat="59.893122" lon="17.7432969">
        <ele>21.2864</ele>
        <time>2013-05-19T17:27:48Z</time>
      </trkpt>
      <trkpt lat="59.8931495" lon="17.743203">
        <ele>20.8057</ele>
        <time>2013-05-19T17:27:49Z</time>
      </trkpt>
      <trkpt lat="59.8931767" lon="17.7430995">
        <ele>20.8057</ele>
        <time>2013-05-19T17:27:50Z</time>
      </trkpt>
      <trkpt lat="59.8932033" lon="17.7429913">
        <ele>20.325</ele>
        <time>2013-05-19T17:27:51Z</time>
      </trkpt>
      <trkpt lat="59.8932312" lon="17.7428828">
        <ele>19.8444</ele>
        <time>2013-05-19T17:27:52Z</time>
      </trkpt>
      <trkpt lat="59.8932609" lon="17.7427674">
        <ele>19.3638</ele>
        <time>2013-05-19T17:27:53Z</time>
      </trkpt>
      <trkpt lat="59.8932956" lon="17.7426504">
        <ele>19.3638</ele>
        <time>2013-05-19T17:27:54Z</time>
      </trkpt>
      <trkpt lat="59.8933282" lon="17.7425209">
        <ele>18.8831</ele>
        <time>2013-05-19T17:27:55Z</time>
      </trkpt>
      <trkpt lat="59.8933619" lon="17.7423877">
        <ele>18.4023</ele>
        <time>2013-05-19T17:27:56Z</time>
      </trkpt>
      <trkpt lat="59.893396" lon="17.742256">
        <ele>17.9218</ele>
        <time>2013-05-19T17:27:57Z</time>
      </trkpt>
      <trkpt lat="59.8934342" lon="17.7421263">
        <ele>17.4412</ele>
        <time>2013-05-19T17:27:58Z</time>
      </trkpt>
      <trkpt lat="59.8934789" lon="17.7419931">
        <ele>16.9604</ele>
        <time>2013-05-19T17:27:59Z</time>
      </trkpt>
      <trkpt lat="59.8935246" lon="17.7418571">
        <ele>16.9604</ele>
        <time>2013-05-19T17:28:00Z</time>
      </trkpt>
      <trkpt lat="59.8935699" lon="17.7417211">
        <ele>16.9604</ele>
        <time>2013-05-19T17:28:01Z</time>
      </trkpt>
      <trkpt lat="59.8936205" lon="17.7415546">
        <ele>16.9604</ele>
        <time>2013-05-19T17:28:02Z</time>
      </trkpt>
      <trkpt lat="59.893668" lon="17.7414055">
        <ele>16.9604</ele>
        <time>2013-05-19T17:28:03Z</time>
      </trkpt>
      <trkpt lat="59.893712" lon="17.7412588">
        <ele>17.4412</ele>
        <time>2013-05-19T17:28:04Z</time>
      </trkpt>
      <trkpt lat="59.8937536" lon="17.7411322">
        <ele>17.4412</ele>
        <time>2013-05-19T17:28:05Z</time>
      </trkpt>
      <trkpt lat="59.893797" lon="17.7410041">
        <ele>17.9218</ele>
        <time>2013-05-19T17:28:06Z</time>
      </trkpt>
      <trkpt lat="59.8938359" lon="17.7408813">
        <ele>17.9218</ele>
        <time>2013-05-19T17:28:07Z</time>
      </trkpt>
      <trkpt lat="59.8938762" lon="17.7407619">
        <ele>17.9218</ele>
        <time>2013-05-19T17:28:08Z</time>
      </trkpt>
      <trkpt lat="59.8939176" lon="17.740645">
        <ele>17.9218</ele>
        <time>2013-05-19T17:28:09Z</time>
      </trkpt>
      <trkpt lat="59.8939591" lon="17.7405312">
        <ele>17.9218</ele>
        <time>2013-05-19T17:28:10Z</time>
      </trkpt>
      <trkpt lat="59.8939976" lon="17.7404147">
        <ele>18.4023</ele>
        <time>2013-05-19T17:28:11Z</time>
      </trkpt>
      <trkpt lat="59.8940347" lon="17.7403022">
        <ele>18.4023</ele>
        <time>2013-05-19T17:28:12Z</time>
      </trkpt>
      <trkpt lat="59.8940689" lon="17.7401923">
        <ele>18.4023</ele>
        <time>2013-05-19T17:28:13Z</time>
      </trkpt>
      <trkpt lat="59.8941001" lon="17.7400889">
        <ele>18.8831</ele>
        <time>2013-05-19T17:28:14Z</time>
      </trkpt>
      <trkpt lat="59.8941321" lon="17.7399964">
        <ele>19.3638</ele>
        <time>2013-05-19T17:28:15Z</time>
      </trkpt>
      <trkpt lat="59.8941628" lon="17.7399149">
        <ele>19.8444</ele>
        <time>2013-05-19T17:28:16Z</time>
      </trkpt>
      <trkpt lat="59.8941958" lon="17.7398397">
        <ele>19.8444</ele>
        <time>2013-05-19T17:28:17Z</time>
      </trkpt>
      <trkpt lat="59.8942254" lon="17.7397759">
        <ele>19.8444</ele>
        <time>2013-05-19T17:28:18Z</time>
      </trkpt>
      <trkpt lat="59.894255" lon="17.7397209">
        <ele>20.325</ele>
        <time>2013-05-19T17:28:19Z</time>
      </trkpt>
      <trkpt lat="59.8942865" lon="17.7396719">
        <ele>20.8057</ele>
        <time>2013-05-19T17:28:20Z</time>
      </trkpt>
      <trkpt lat="59.8943174" lon="17.7396294">
        <ele>20.8057</ele>
        <time>2013-05-19T17:28:21Z</time>
      </trkpt>
      <trkpt lat="59.894379" lon="17.7395642">
        <ele>20.8057</ele>
        <time>2013-05-19T17:28:22Z</time>
      </trkpt>
      <trkpt lat="59.8944019" lon="17.7395381">
        <ele>20.325</ele>
        <time>2013-05-19T17:28:23Z</time>
      </trkpt>
      <trkpt lat="59.8944097" lon="17.7395139">
        <ele>20.325</ele>
        <time>2013-05-19T17:28:24Z</time>
      </trkpt>
      <trkpt lat="59.8944" lon="17.7395133">
        <ele>19.8444</ele>
        <time>2013-05-19T17:28:25Z</time>
      </trkpt>
      <trkpt lat="59.8943849" lon="17.7395282">
        <ele>18.8831</ele>
        <time>2013-05-19T17:28:26Z</time>
      </trkpt>
      <trkpt lat="59.8943715" lon="17.7395473">
        <ele>18.8831</ele>
        <time>2013-05-19T17:28:27Z</time>
      </trkpt>
      <trkpt lat="59.8943668" lon="17.7395803">
        <ele>18.8831</ele>
        <time>2013-05-19T17:28:28Z</time>
      </trkpt>
      <trkpt lat="59.8943682" lon="17.7396131">
        <ele>18.8831</ele>
        <time>2013-05-19T17:28:29Z</time>
      </trkpt>
      <trkpt lat="59.8947283" lon="17.7394315">
        <ele>29.9381</ele>
        <time>2013-05-19T17:53:53Z</time>
      </trkpt>
      <trkpt lat="59.8947448" lon="17.7394046">
        <ele>29.4575</ele>
        <time>2013-05-19T17:53:54Z</time>
      </trkpt>
      <trkpt lat="59.8947639" lon="17.7393857">
        <ele>28.9769</ele>
        <time>2013-05-19T17:53:55Z</time>
      </trkpt>
      <trkpt lat="59.8947939" lon="17.7393687">
        <ele>28.4962</ele>
        <time>2013-05-19T17:53:56Z</time>
      </trkpt>
      <trkpt lat="59.8948256" lon="17.739345">
        <ele>26.5736</ele>
        <time>2013-05-19T17:53:57Z</time>
      </trkpt>
      <trkpt lat="59.8948658" lon="17.7393274">
        <ele>25.6123</ele>
        <time>2013-05-19T17:53:58Z</time>
      </trkpt>
      <trkpt lat="59.8949146" lon="17.7393085">
        <ele>24.651</ele>
        <time>2013-05-19T17:53:59Z</time>
      </trkpt>
      <trkpt lat="59.894969" lon="17.7392899">
        <ele>23.6896</ele>
        <time>2013-05-19T17:54:00Z</time>
      </trkpt>
      <trkpt lat="59.8950283" lon="17.7392709">
        <ele>23.209</ele>
        <time>2013-05-19T17:54:01Z</time>
      </trkpt>
      <trkpt lat="59.8950905" lon="17.7392519">
        <ele>22.2476</ele>
        <time>2013-05-19T17:54:02Z</time>
      </trkpt>
      <trkpt lat="59.8951542" lon="17.7392344">
        <ele>21.767</ele>
        <time>2013-05-19T17:54:03Z</time>
      </trkpt>
      <trkpt lat="59.8952187" lon="17.739216">
        <ele>21.767</ele>
        <time>2013-05-19T17:54:04Z</time>
      </trkpt>
      <trkpt lat="59.8952838" lon="17.7391992">
        <ele>21.2864</ele>
        <time>2013-05-19T17:54:05Z</time>
      </trkpt>
      <trkpt lat="59.89535" lon="17.7391838">
        <ele>21.2864</ele>
        <time>2013-05-19T17:54:06Z</time>
      </trkpt>
      <trkpt lat="59.8954168" lon="17.7391673">
        <ele>20.8057</ele>
        <time>2013-05-19T17:54:07Z</time>
      </trkpt>
      <trkpt lat="59.8954842" lon="17.7391493">
        <ele>20.8057</ele>
        <time>2013-05-19T17:54:08Z</time>
      </trkpt>
      <trkpt lat="59.8955523" lon="17.7391335">
        <ele>20.325</ele>
        <time>2013-05-19T17:54:09Z</time>
      </trkpt>
      <trkpt lat="59.8956224" lon="17.7391052">
        <ele>21.767</ele>
        <time>2013-05-19T17:54:10Z</time>
      </trkpt>
      <trkpt lat="59.8956929" lon="17.7390749">
        <ele>23.209</ele>
        <time>2013-05-19T17:54:11Z</time>
      </trkpt>
      <trkpt lat="59.8957639" lon="17.7390461">
        <ele>24.1703</ele>
        <time>2013-05-19T17:54:12Z</time>
      </trkpt>
      <trkpt lat="59.8958354" lon="17.7390198">
        <ele>25.1317</ele>
        <time>2013-05-19T17:54:13Z</time>
      </trkpt>
      <trkpt lat="59.8959068" lon="17.7389931">
        <ele>26.0929</ele>
        <time>2013-05-19T17:54:14Z</time>
      </trkpt>
      <trkpt lat="59.8959772" lon="17.7389643">
        <ele>27.0543</ele>
        <time>2013-05-19T17:54:15Z</time>
      </trkpt>
      <trkpt lat="59.8960465" lon="17.7389352">
        <ele>28.0155</ele>
        <time>2013-05-19T17:54:16Z</time>
      </trkpt>
      <trkpt lat="59.896114" lon="17.7389082">
        <ele>28.9769</ele>
        <time>2013-05-19T17:54:17Z</time>
      </trkpt>
      <trkpt lat="59.8961787" lon="17.7388824">
        <ele>29.9381</ele>
        <time>2013-05-19T17:54:18Z</time>
      </trkpt>
      <trkpt lat="59.8962389" lon="17.7388573">
        <ele>29.9381</ele>
        <time>2013-05-19T17:54:19Z</time>
      </trkpt>
      <trkpt lat="59.8962941" lon="17.7388425">
        <ele>29.9381</ele>
        <time>2013-05-19T17:54:20Z</time>
      </trkpt>
      <trkpt lat="59.8963436" lon="17.7388115">
        <ele>29.4575</ele>
        <time>2013-05-19T17:54:21Z</time>
      </trkpt>
      <trkpt lat="59.8963886" lon="17.7387589">
        <ele>28.9769</ele>
        <time>2013-05-19T17:54:22Z</time>
      </trkpt>
      <trkpt lat="59.8964283" lon="17.7386955">
        <ele>28.9769</ele>
        <time>2013-05-19T17:54:23Z</time>
      </trkpt>
      <trkpt lat="59.8964662" lon="17.7386193">
        <ele>28.4962</ele>
        <time>2013-05-19T17:54:24Z</time>
      </trkpt>
      <trkpt lat="59.8965029" lon="17.7385295">
        <ele>28.4962</ele>
        <time>2013-05-19T17:54:25Z</time>
      </trkpt>
      <trkpt lat="59.8965372" lon="17.7384238">
        <ele>28.4962</ele>
        <time>2013-05-19T17:54:26Z</time>
      </trkpt>
      <trkpt lat="59.8965716" lon="17.7383086">
        <ele>28.4962</ele>
        <time>2013-05-19T17:54:27Z</time>
      </trkpt>
      <trkpt lat="59.8966036" lon="17.7381898">
        <ele>28.9769</ele>
        <time>2013-05-19T17:54:28Z</time>
      </trkpt>
      <trkpt lat="59.8966332" lon="17.7380744">
        <ele>29.4575</ele>
        <time>2013-05-19T17:54:29Z</time>
      </trkpt>
      <trkpt lat="59.8966642" lon="17.7379618">
        <ele>29.4575</ele>
        <time>2013-05-19T17:54:30Z</time>
      </trkpt>
      <trkpt lat="59.8966948" lon="17.7378534">
        <ele>29.4575</ele>
        <time>2013-05-19T17:54:31Z</time>
      </trkpt>
      <trkpt lat="59.8967287" lon="17.7377447">
        <ele>29.9381</ele>
        <time>2013-05-19T17:54:32Z</time>
      </trkpt>
      <trkpt lat="59.8967658" lon="17.7376403">
        <ele>29.9381</ele>
        <time>2013-05-19T17:54:33Z</time>
      </trkpt>
      <trkpt lat="59.8968039" lon="17.737538">
        <ele>29.9381</ele>
        <time>2013-05-19T17:54:34Z</time>
      </trkpt>
      <trkpt lat="59.8968412" lon="17.7374335">
        <ele>29.9381</ele>
        <time>2013-05-19T17:54:35Z</time>
      </trkpt>
      <trkpt lat="59.8968782" lon="17.7373231">
        <ele>29.4575</ele>
        <time>2013-05-19T17:54:36Z</time>
      </trkpt>
      <trkpt lat="59.8969164" lon="17.7372085">
        <ele>28.9769</ele>
        <time>2013-05-19T17:54:37Z</time>
      </trkpt>
      <trkpt lat="59.8969558" lon="17.7370927">
        <ele>28.4962</ele>
        <time>2013-05-19T17:54:38Z</time>
      </trkpt>
      <trkpt lat="59.8969956" lon="17.7369756">
        <ele>28.4962</ele>
        <time>2013-05-19T17:54:39Z</time>
      </trkpt>
      <trkpt lat="59.897034" lon="17.7368559">
        <ele>28.0155</ele>
        <time>2013-05-19T17:54:40Z</time>
      </trkpt>
      <trkpt lat="59.8970701" lon="17.7367327">
        <ele>28.0155</ele>
        <time>2013-05-19T17:54:41Z</time>
      </trkpt>
      <trkpt lat="59.8971036" lon="17.7366025">
        <ele>28.0155</ele>
        <time>2013-05-19T17:54:42Z</time>
      </trkpt>
      <trkpt lat="59.8971309" lon="17.7364644">
        <ele>27.5349</ele>
        <time>2013-05-19T17:54:43Z</time>
      </trkpt>
      <trkpt lat="59.8971517" lon="17.7363223">
        <ele>27.5349</ele>
        <time>2013-05-19T17:54:44Z</time>
      </trkpt>
      <trkpt lat="59.8971665" lon="17.7361763">
        <ele>27.5349</ele>
        <time>2013-05-19T17:54:45Z</time>
      </trkpt>
      <trkpt lat="59.8971761" lon="17.73603">
        <ele>27.5349</ele>
        <time>2013-05-19T17:54:46Z</time>
      </trkpt>
      <trkpt lat="59.8971848" lon="17.7358816">
        <ele>27.5349</ele>
        <time>2013-05-19T17:54:47Z</time>
      </trkpt>
      <trkpt lat="59.8971924" lon="17.7357298">
        <ele>27.5349</ele>
        <time>2013-05-19T17:54:48Z</time>
      </trkpt>
      <trkpt lat="59.8971977" lon="17.7355753">
        <ele>28.0155</ele>
        <time>2013-05-19T17:54:49Z</time>
      </trkpt>
      <trkpt lat="59.8971994" lon="17.7354273">
        <ele>27.5349</ele>
        <time>2013-05-19T17:54:50Z</time>
      </trkpt>
      <trkpt lat="59.8972034" lon="17.7352875">
        <ele>27.5349</ele>
        <time>2013-05-19T17:54:51Z</time>
      </trkpt>
      <trkpt lat="59.8972066" lon="17.735147">
        <ele>27.5349</ele>
        <time>2013-05-19T17:54:52Z</time>
      </trkpt>
      <trkpt lat="59.8972153" lon="17.7350182">
        <ele>27.5349</ele>
        <time>2013-05-19T17:54:53Z</time>
      </trkpt>
      <trkpt lat="59.8972281" lon="17.7348895">
        <ele>27.0543</ele>
        <time>2013-05-19T17:54:54Z</time>
      </trkpt>
      <trkpt lat="59.897246" lon="17.7347595">
        <ele>27.5349</ele>
        <time>2013-05-19T17:54:55Z</time>
      </trkpt>
      <trkpt lat="59.8972638" lon="17.734631">
        <ele>27.0543</ele>
        <time>2013-05-19T17:54:56Z</time>
      </trkpt>
      <trkpt lat="59.8972849" lon="17.7345068">
        <ele>27.0543</ele>
        <time>2013-05-19T17:54:57Z</time>
      </trkpt>
      <trkpt lat="59.8973117" lon="17.7343871">
        <ele>27.5349</ele>
        <time>2013-05-19T17:54:58Z</time>
      </trkpt>
      <trkpt lat="59.8973428" lon="17.7342818">
        <ele>27.0543</ele>
        <time>2013-05-19T17:54:59Z</time>
      </trkpt>
      <trkpt lat="59.8973721" lon="17.7341701">
        <ele>26.5736</ele>
        <time>2013-05-19T17:55:00Z</time>
      </trkpt>
      <trkpt lat="59.8973995" lon="17.7340557">
        <ele>26.5736</ele>
        <time>2013-05-19T17:55:01Z</time>
      </trkpt>
      <trkpt lat="59.8974258" lon="17.7339422">
        <ele>26.0929</ele>
        <time>2013-05-19T17:55:02Z</time>
      </trkpt>
      <trkpt lat="59.8974508" lon="17.7338281">
        <ele>26.0929</ele>
        <time>2013-05-19T17:55:03Z</time>
      </trkpt>
      <trkpt lat="59.8974707" lon="17.7337085">
        <ele>26.0929</ele>
        <time>2013-05-19T17:55:04Z</time>
      </trkpt>
      <trkpt lat="59.8974892" lon="17.7335892">
        <ele>26.0929</ele>
        <time>2013-05-19T17:55:05Z</time>
      </trkpt>
      <trkpt lat="59.8975053" lon="17.7334651">
        <ele>25.6123</ele>
        <time>2013-05-19T17:55:06Z</time>
      </trkpt>
      <trkpt lat="59.8975184" lon="17.733337">
        <ele>25.6123</ele>
        <time>2013-05-19T17:55:07Z</time>
      </trkpt>
      <trkpt lat="59.8975287" lon="17.7332051">
        <ele>25.6123</ele>
        <time>2013-05-19T17:55:08Z</time>
      </trkpt>
      <trkpt lat="59.8975406" lon="17.7330732">
        <ele>25.6123</ele>
        <time>2013-05-19T17:55:09Z</time>
      </trkpt>
      <trkpt lat="59.8975511" lon="17.7329375">
        <ele>25.1317</ele>
        <time>2013-05-19T17:55:10Z</time>
      </trkpt>
      <trkpt lat="59.8975602" lon="17.7327999">
        <ele>25.1317</ele>
        <time>2013-05-19T17:55:11Z</time>
      </trkpt>
      <trkpt lat="59.897567" lon="17.7326596">
        <ele>25.1317</ele>
        <time>2013-05-19T17:55:12Z</time>
      </trkpt>
      <trkpt lat="59.8975728" lon="17.7325187">
        <ele>25.1317</ele>
        <time>2013-05-19T17:55:13Z</time>
      </trkpt>
      <trkpt lat="59.8975774" lon="17.732377">
        <ele>25.1317</ele>
        <time>2013-05-19T17:55:14Z</time>
      </trkpt>
      <trkpt lat="59.8975838" lon="17.7322331">
        <ele>24.651</ele>
        <time>2013-05-19T17:55:15Z</time>
      </trkpt>
      <trkpt lat="59.8975903" lon="17.7320897">
        <ele>24.651</ele>
        <time>2013-05-19T17:55:16Z</time>
      </trkpt>
      <trkpt lat="59.8975962" lon="17.7319461">
        <ele>24.651</ele>
        <time>2013-05-19T17:55:17Z</time>
      </trkpt>
      <trkpt lat="59.8976045" lon="17.7318031">
        <ele>24.651</ele>
        <time>2013-05-19T17:55:18Z</time>
      </trkpt>
      <trkpt lat="59.897613" lon="17.7316607">
        <ele>24.651</ele>
        <time>2013-05-19T17:55:19Z</time>
      </trkpt>
      <trkpt lat="59.8976133" lon="17.7315133">
        <ele>24.651</ele>
        <time>2013-05-19T17:55:20Z</time>
      </trkpt>
      <trkpt lat="59.8976106" lon="17.731367">
        <ele>24.651</ele>
        <time>2013-05-19T17:55:21Z</time>
      </trkpt>
      <trkpt lat="59.8976073" lon="17.7312287">
        <ele>25.1317</ele>
        <time>2013-05-19T17:55:22Z</time>
      </trkpt>
      <trkpt lat="59.8975995" lon="17.7310896">
        <ele>25.1317</ele>
        <time>2013-05-19T17:55:23Z</time>
      </trkpt>
      <trkpt lat="59.8975866" lon="17.7309447">
        <ele>23.6896</ele>
        <time>2013-05-19T17:55:24Z</time>
      </trkpt>
      <trkpt lat="59.8975708" lon="17.7307969">
        <ele>22.7283</ele>
        <time>2013-05-19T17:55:25Z</time>
      </trkpt>
      <trkpt lat="59.897554" lon="17.7306459">
        <ele>22.7283</ele>
        <time>2013-05-19T17:55:26Z</time>
      </trkpt>
      <trkpt lat="59.8975359" lon="17.730489">
        <ele>22.2476</ele>
        <time>2013-05-19T17:55:27Z</time>
      </trkpt>
      <trkpt lat="59.8975202" lon="17.730321">
        <ele>21.767</ele>
        <time>2013-05-19T17:55:28Z</time>
      </trkpt>
      <trkpt lat="59.8975073" lon="17.7301418">
        <ele>21.767</ele>
        <time>2013-05-19T17:55:29Z</time>
      </trkpt>
      <trkpt lat="59.8975043" lon="17.7299595">
        <ele>21.767</ele>
        <time>2013-05-19T17:55:30Z</time>
      </trkpt>
      <trkpt lat="59.8975101" lon="17.7297733">
        <ele>21.767</ele>
        <time>2013-05-19T17:55:31Z</time>
      </trkpt>
      <trkpt lat="59.8975265" lon="17.7295877">
        <ele>21.2864</ele>
        <time>2013-05-19T17:55:32Z</time>
      </trkpt>
      <trkpt lat="59.89755" lon="17.729405">
        <ele>20.8057</ele>
        <time>2013-05-19T17:55:33Z</time>
      </trkpt>
      <trkpt lat="59.897578" lon="17.7292241">
        <ele>20.325</ele>
        <time>2013-05-19T17:55:34Z</time>
      </trkpt>
      <trkpt lat="59.8976097" lon="17.729044">
        <ele>19.8444</ele>
        <time>2013-05-19T17:55:35Z</time>
      </trkpt>
      <trkpt lat="59.8976457" lon="17.7288689">
        <ele>19.3638</ele>
        <time>2013-05-19T17:55:36Z</time>
      </trkpt>
      <trkpt lat="59.8976824" lon="17.7286953">
        <ele>19.3638</ele>
        <time>2013-05-19T17:55:37Z</time>
      </trkpt>
      <trkpt lat="59.8977194" lon="17.7285222">
        <ele>18.8831</ele>
        <time>2013-05-19T17:55:38Z</time>
      </trkpt>
      <trkpt lat="59.8977577" lon="17.7283513">
        <ele>18.8831</ele>
        <time>2013-05-19T17:55:39Z</time>
      </trkpt>
      <trkpt lat="59.8977982" lon="17.7281839">
        <ele>18.4023</ele>
        <time>2013-05-19T17:55:40Z</time>
      </trkpt>
      <trkpt lat="59.8978432" lon="17.7280212">
        <ele>18.4023</ele>
        <time>2013-05-19T17:55:41Z</time>
      </trkpt>
      <trkpt lat="59.8978923" lon="17.7278633">
        <ele>18.8831</ele>
        <time>2013-05-19T17:55:42Z</time>
      </trkpt>
      <trkpt lat="59.8979457" lon="17.7277136">
        <ele>18.8831</ele>
        <time>2013-05-19T17:55:43Z</time>
      </trkpt>
      <trkpt lat="59.8980004" lon="17.7275695">
        <ele>19.3638</ele>
        <time>2013-05-19T17:55:44Z</time>
      </trkpt>
      <trkpt lat="59.8980545" lon="17.7274292">
        <ele>19.8444</ele>
        <time>2013-05-19T17:55:45Z</time>
      </trkpt>
      <trkpt lat="59.8981067" lon="17.7272861">
        <ele>19.8444</ele>
        <time>2013-05-19T17:55:46Z</time>
      </trkpt>
      <trkpt lat="59.8981567" lon="17.7271401">
        <ele>19.8444</ele>
        <time>2013-05-19T17:55:47Z</time>
      </trkpt>
      <trkpt lat="59.8982052" lon="17.7269935">
        <ele>20.325</ele>
        <time>2013-05-19T17:55:48Z</time>
      </trkpt>
      <trkpt lat="59.8982511" lon="17.7268462">
        <ele>20.325</ele>
        <time>2013-05-19T17:55:49Z</time>
      </trkpt>
      <trkpt lat="59.8982938" lon="17.7266965">
        <ele>20.325</ele>
        <time>2013-05-19T17:55:50Z</time>
      </trkpt>
      <trkpt lat="59.898334" lon="17.7265451">
        <ele>20.8057</ele>
        <time>2013-05-19T17:55:51Z</time>
      </trkpt>
      <trkpt lat="59.8983735" lon="17.7263948">
        <ele>20.8057</ele>
        <time>2013-05-19T17:55:52Z</time>
      </trkpt>
      <trkpt lat="59.8984113" lon="17.726244">
        <ele>20.8057</ele>
        <time>2013-05-19T17:55:53Z</time>
      </trkpt>
      <trkpt lat="59.8984466" lon="17.7260927">
        <ele>21.2864</ele>
        <time>2013-05-19T17:55:54Z</time>
      </trkpt>
      <trkpt lat="59.8984803" lon="17.7259425">
        <ele>21.2864</ele>
        <time>2013-05-19T17:55:55Z</time>
      </trkpt>
      <trkpt lat="59.8985108" lon="17.7257918">
        <ele>21.2864</ele>
        <time>2013-05-19T17:55:56Z</time>
      </trkpt>
      <trkpt lat="59.8985389" lon="17.7256421">
        <ele>21.767</ele>
        <time>2013-05-19T17:55:57Z</time>
      </trkpt>
      <trkpt lat="59.8985647" lon="17.7254929">
        <ele>21.767</ele>
        <time>2013-05-19T17:55:58Z</time>
      </trkpt>
      <trkpt lat="59.8985885" lon="17.7253431">
        <ele>21.767</ele>
        <time>2013-05-19T17:55:59Z</time>
      </trkpt>
      <trkpt lat="59.8986125" lon="17.7251956">
        <ele>22.2476</ele>
        <time>2013-05-19T17:56:00Z</time>
      </trkpt>
      <trkpt lat="59.8986357" lon="17.7250511">
        <ele>22.2476</ele>
        <time>2013-05-19T17:56:01Z</time>
      </trkpt>
      <trkpt lat="59.898659" lon="17.7249074">
        <ele>22.2476</ele>
        <time>2013-05-19T17:56:02Z</time>
      </trkpt>
      <trkpt lat="59.8986823" lon="17.7247604">
        <ele>22.2476</ele>
        <time>2013-05-19T17:56:03Z</time>
      </trkpt>
      <trkpt lat="59.8987067" lon="17.7246147">
        <ele>22.7283</ele>
        <time>2013-05-19T17:56:04Z</time>
      </trkpt>
      <trkpt lat="59.8987308" lon="17.7244677">
        <ele>22.7283</ele>
        <time>2013-05-19T17:56:05Z</time>
      </trkpt>
      <trkpt lat="59.8987549" lon="17.7243201">
        <ele>23.209</ele>
        <time>2013-05-19T17:56:06Z</time>
      </trkpt>
      <trkpt lat="59.898778" lon="17.7241713">
        <ele>23.209</ele>
        <time>2013-05-19T17:56:07Z</time>
      </trkpt>
      <trkpt lat="59.8988004" lon="17.7240149">
        <ele>23.209</ele>
        <time>2013-05-19T17:56:08Z</time>
      </trkpt>
      <trkpt lat="59.8988232" lon="17.7238578">
        <ele>23.209</ele>
        <time>2013-05-19T17:56:09Z</time>
      </trkpt>
      <trkpt lat="59.898846" lon="17.723704">
        <ele>23.209</ele>
        <time>2013-05-19T17:56:10Z</time>
      </trkpt>
      <trkpt lat="59.8988686" lon="17.7235532">
        <ele>23.209</ele>
        <time>2013-05-19T17:56:11Z</time>
      </trkpt>
      <trkpt lat="59.8988912" lon="17.7233999">
        <ele>23.6896</ele>
        <time>2013-05-19T17:56:12Z</time>
      </trkpt>
      <trkpt lat="59.8989152" lon="17.7232502">
        <ele>23.6896</ele>
        <time>2013-05-19T17:56:13Z</time>
      </trkpt>
      <trkpt lat="59.8989387" lon="17.723098">
        <ele>23.6896</ele>
        <time>2013-05-19T17:56:14Z</time>
      </trkpt>
      <trkpt lat="59.8989634" lon="17.722943">
        <ele>24.1703</ele>
        <time>2013-05-19T17:56:15Z</time>
      </trkpt>
      <trkpt lat="59.8989904" lon="17.7227972">
        <ele>24.1703</ele>
        <time>2013-05-19T17:56:16Z</time>
      </trkpt>
      <trkpt lat="59.8990157" lon="17.7226517">
        <ele>24.1703</ele>
        <time>2013-05-19T17:56:17Z</time>
      </trkpt>
      <trkpt lat="59.8990399" lon="17.7225054">
        <ele>24.1703</ele>
        <time>2013-05-19T17:56:18Z</time>
      </trkpt>
      <trkpt lat="59.8990621" lon="17.7223579">
        <ele>24.1703</ele>
        <time>2013-05-19T17:56:19Z</time>
      </trkpt>
      <trkpt lat="59.8990844" lon="17.7222093">
        <ele>24.1703</ele>
        <time>2013-05-19T17:56:20Z</time>
      </trkpt>
      <trkpt lat="59.8991081" lon="17.7220599">
        <ele>24.1703</ele>
        <time>2013-05-19T17:56:21Z</time>
      </trkpt>
      <trkpt lat="59.8991328" lon="17.7219097">
        <ele>23.6896</ele>
        <time>2013-05-19T17:56:22Z</time>
      </trkpt>
      <trkpt lat="59.8991574" lon="17.7217591">
        <ele>23.6896</ele>
        <time>2013-05-19T17:56:23Z</time>
      </trkpt>
      <trkpt lat="59.8991817" lon="17.7216082">
        <ele>23.6896</ele>
        <time>2013-05-19T17:56:24Z</time>
      </trkpt>
      <trkpt lat="59.8992055" lon="17.7214574">
        <ele>23.209</ele>
        <time>2013-05-19T17:56:25Z</time>
      </trkpt>
      <trkpt lat="59.8992294" lon="17.7213068">
        <ele>23.209</ele>
        <time>2013-05-19T17:56:26Z</time>
      </trkpt>
      <trkpt lat="59.8992538" lon="17.7211569">
        <ele>22.7283</ele>
        <time>2013-05-19T17:56:27Z</time>
      </trkpt>
      <trkpt lat="59.8992794" lon="17.7210081">
        <ele>22.7283</ele>
        <time>2013-05-19T17:56:28Z</time>
      </trkpt>
      <trkpt lat="59.8993064" lon="17.7208632">
        <ele>22.7283</ele>
        <time>2013-05-19T17:56:29Z</time>
      </trkpt>
      <trkpt lat="59.8993336" lon="17.72072">
        <ele>22.7283</ele>
        <time>2013-05-19T17:56:30Z</time>
      </trkpt>
      <trkpt lat="59.8993607" lon="17.720578">
        <ele>22.7283</ele>
        <time>2013-05-19T17:56:31Z</time>
      </trkpt>
      <trkpt lat="59.8993872" lon="17.7204364">
        <ele>22.7283</ele>
        <time>2013-05-19T17:56:32Z</time>
      </trkpt>
      <trkpt lat="59.8994127" lon="17.7202931">
        <ele>22.7283</ele>
        <time>2013-05-19T17:56:33Z</time>
      </trkpt>
      <trkpt lat="59.8994395" lon="17.7201495">
        <ele>22.7283</ele>
        <time>2013-05-19T17:56:34Z</time>
      </trkpt>
      <trkpt lat="59.8994691" lon="17.7200099">
        <ele>22.7283</ele>
        <time>2013-05-19T17:56:35Z</time>
      </trkpt>
      <trkpt lat="59.8994988" lon="17.7198695">
        <ele>22.7283</ele>
        <time>2013-05-19T17:56:36Z</time>
      </trkpt>
      <trkpt lat="59.8995296" lon="17.7197278">
        <ele>22.7283</ele>
        <time>2013-05-19T17:56:37Z</time>
      </trkpt>
      <trkpt lat="59.8995604" lon="17.719586">
        <ele>22.7283</ele>
        <time>2013-05-19T17:56:38Z</time>
      </trkpt>
      <trkpt lat="59.8995928" lon="17.7194446">
        <ele>22.7283</ele>
        <time>2013-05-19T17:56:39Z</time>
      </trkpt>
      <trkpt lat="59.899625" lon="17.719304">
        <ele>22.7283</ele>
        <time>2013-05-19T17:56:40Z</time>
      </trkpt>
      <trkpt lat="59.8996594" lon="17.7191627">
        <ele>22.2476</ele>
        <time>2013-05-19T17:56:41Z</time>
      </trkpt>
      <trkpt lat="59.8996974" lon="17.7190228">
        <ele>21.767</ele>
        <time>2013-05-19T17:56:42Z</time>
      </trkpt>
      <trkpt lat="59.8997389" lon="17.7188906">
        <ele>21.767</ele>
        <time>2013-05-19T17:56:43Z</time>
      </trkpt>
      <trkpt lat="59.8997795" lon="17.7187576">
        <ele>21.767</ele>
        <time>2013-05-19T17:56:44Z</time>
      </trkpt>
      <trkpt lat="59.8998225" lon="17.7186332">
        <ele>21.767</ele>
        <time>2013-05-19T17:56:45Z</time>
      </trkpt>
      <trkpt lat="59.899868" lon="17.7185147">
        <ele>21.767</ele>
        <time>2013-05-19T17:56:46Z</time>
      </trkpt>
      <trkpt lat="59.8999091" lon="17.7183786">
        <ele>21.767</ele>
        <time>2013-05-19T17:56:47Z</time>
      </trkpt>
      <trkpt lat="59.8999485" lon="17.7182401">
        <ele>21.767</ele>
        <time>2013-05-19T17:56:48Z</time>
      </trkpt>
      <trkpt lat="59.8999882" lon="17.7181045">
        <ele>21.2864</ele>
        <time>2013-05-19T17:56:49Z</time>
      </trkpt>
      <trkpt lat="59.9000246" lon="17.7179626">
        <ele>21.767</ele>
        <time>2013-05-19T17:56:50Z</time>
      </trkpt>
      <trkpt lat="59.9000569" lon="17.7178149">
        <ele>21.767</ele>
        <time>2013-05-19T17:56:51Z</time>
      </trkpt>
      <trkpt lat="59.9000825" lon="17.7176624">
        <ele>21.767</ele>
        <time>2013-05-19T17:56:52Z</time>
      </trkpt>
      <trkpt lat="59.9001006" lon="17.7175003">
        <ele>21.2864</ele>
        <time>2013-05-19T17:56:53Z</time>
      </trkpt>
      <trkpt lat="59.9001141" lon="17.7173325">
        <ele>21.2864</ele>
        <time>2013-05-19T17:56:54Z</time>
      </trkpt>
      <trkpt lat="59.9001235" lon="17.7171612">
        <ele>21.2864</ele>
        <time>2013-05-19T17:56:55Z</time>
      </trkpt>
      <trkpt lat="59.9001311" lon="17.7169882">
        <ele>21.2864</ele>
        <time>2013-05-19T17:56:56Z</time>
      </trkpt>
      <trkpt lat="59.9001391" lon="17.7168147">
        <ele>21.2864</ele>
        <time>2013-05-19T17:56:57Z</time>
      </trkpt>
      <trkpt lat="59.9001488" lon="17.7166416">
        <ele>21.2864</ele>
        <time>2013-05-19T17:56:58Z</time>
      </trkpt>
      <trkpt lat="59.9001592" lon="17.71647">
        <ele>21.2864</ele>
        <time>2013-05-19T17:56:59Z</time>
      </trkpt>
      <trkpt lat="59.9001707" lon="17.7163006">
        <ele>21.2864</ele>
        <time>2013-05-19T17:57:00Z</time>
      </trkpt>
      <trkpt lat="59.9001845" lon="17.716135">
        <ele>21.2864</ele>
        <time>2013-05-19T17:57:01Z</time>
      </trkpt>
      <trkpt lat="59.900201" lon="17.7159756">
        <ele>21.2864</ele>
        <time>2013-05-19T17:57:02Z</time>
      </trkpt>
      <trkpt lat="59.9002213" lon="17.7158211">
        <ele>21.2864</ele>
        <time>2013-05-19T17:57:03Z</time>
      </trkpt>
      <trkpt lat="59.900246" lon="17.7156689">
        <ele>21.2864</ele>
        <time>2013-05-19T17:57:04Z</time>
      </trkpt>
      <trkpt lat="59.9002732" lon="17.715517">
        <ele>21.767</ele>
        <time>2013-05-19T17:57:05Z</time>
      </trkpt>
      <trkpt lat="59.9003041" lon="17.7153648">
        <ele>21.767</ele>
        <time>2013-05-19T17:57:06Z</time>
      </trkpt>
      <trkpt lat="59.9003369" lon="17.7152114">
        <ele>21.767</ele>
        <time>2013-05-19T17:57:07Z</time>
      </trkpt>
      <trkpt lat="59.9003715" lon="17.7150592">
        <ele>21.767</ele>
        <time>2013-05-19T17:57:08Z</time>
      </trkpt>
      <trkpt lat="59.9004073" lon="17.714909">
        <ele>21.767</ele>
        <time>2013-05-19T17:57:09Z</time>
      </trkpt>
      <trkpt lat="59.9004444" lon="17.7147613">
        <ele>21.767</ele>
        <time>2013-05-19T17:57:10Z</time>
      </trkpt>
      <trkpt lat="59.9004829" lon="17.7146152">
        <ele>21.767</ele>
        <time>2013-05-19T17:57:11Z</time>
      </trkpt>
      <trkpt lat="59.9005231" lon="17.7144686">
        <ele>21.767</ele>
        <time>2013-05-19T17:57:12Z</time>
      </trkpt>
      <trkpt lat="59.9005661" lon="17.7143224">
        <ele>21.767</ele>
        <time>2013-05-19T17:57:13Z</time>
      </trkpt>
      <trkpt lat="59.9006135" lon="17.7141801">
        <ele>21.767</ele>
        <time>2013-05-19T17:57:14Z</time>
      </trkpt>
      <trkpt lat="59.9006628" lon="17.7140415">
        <ele>21.767</ele>
        <time>2013-05-19T17:57:15Z</time>
      </trkpt>
      <trkpt lat="59.9007097" lon="17.7139032">
        <ele>21.767</ele>
        <time>2013-05-19T17:57:16Z</time>
      </trkpt>
      <trkpt lat="59.9007533" lon="17.7137657">
        <ele>21.767</ele>
        <time>2013-05-19T17:57:17Z</time>
      </trkpt>
      <trkpt lat="59.9007954" lon="17.7136316">
        <ele>21.767</ele>
        <time>2013-05-19T17:57:18Z</time>
      </trkpt>
      <trkpt lat="59.900835" lon="17.7135008">
        <ele>21.767</ele>
        <time>2013-05-19T17:57:19Z</time>
      </trkpt>
      <trkpt lat="59.9008726" lon="17.7133746">
        <ele>22.2476</ele>
        <time>2013-05-19T17:57:20Z</time>
      </trkpt>
      <trkpt lat="59.9009117" lon="17.7132575">
        <ele>22.2476</ele>
        <time>2013-05-19T17:57:21Z</time>
      </trkpt>
      <trkpt lat="59.9009515" lon="17.713148">
        <ele>22.2476</ele>
        <time>2013-05-19T17:57:22Z</time>
      </trkpt>
      <trkpt lat="59.9009901" lon="17.7130398">
        <ele>22.7283</ele>
        <time>2013-05-19T17:57:23Z</time>
      </trkpt>
      <trkpt lat="59.9010242" lon="17.7129292">
        <ele>22.7283</ele>
        <time>2013-05-19T17:57:24Z</time>
      </trkpt>
      <trkpt lat="59.9010486" lon="17.7128137">
        <ele>23.209</ele>
        <time>2013-05-19T17:57:25Z</time>
      </trkpt>
      <trkpt lat="59.9010604" lon="17.7126918">
        <ele>22.7283</ele>
        <time>2013-05-19T17:57:26Z</time>
      </trkpt>
      <trkpt lat="59.9010554" lon="17.712568">
        <ele>22.7283</ele>
        <time>2013-05-19T17:57:27Z</time>
      </trkpt>
      <trkpt lat="59.9010137" lon="17.7124691">
        <ele>22.2476</ele>
        <time>2013-05-19T17:57:28Z</time>
      </trkpt>
      <trkpt lat="59.9009521" lon="17.7123922">
        <ele>22.7283</ele>
        <time>2013-05-19T17:57:29Z</time>
      </trkpt>
      <trkpt lat="59.9008845" lon="17.7123275">
        <ele>22.7283</ele>
        <time>2013-05-19T17:57:30Z</time>
      </trkpt>
      <trkpt lat="59.9008191" lon="17.7122546">
        <ele>22.7283</ele>
        <time>2013-05-19T17:57:31Z</time>
      </trkpt>
      <trkpt lat="59.9007575" lon="17.7121677">
        <ele>22.7283</ele>
        <time>2013-05-19T17:57:32Z</time>
      </trkpt>
      <trkpt lat="59.9007016" lon="17.7120631">
        <ele>23.209</ele>
        <time>2013-05-19T17:57:33Z</time>
      </trkpt>
      <trkpt lat="59.9006496" lon="17.7119479">
        <ele>23.209</ele>
        <time>2013-05-19T17:57:34Z</time>
      </trkpt>
      <trkpt lat="59.9005937" lon="17.7118339">
        <ele>22.7283</ele>
        <time>2013-05-19T17:57:35Z</time>
      </trkpt>
      <trkpt lat="59.9005307" lon="17.711733">
        <ele>22.7283</ele>
        <time>2013-05-19T17:57:36Z</time>
      </trkpt>
      <trkpt lat="59.9004626" lon="17.7116452">
        <ele>22.7283</ele>
        <time>2013-05-19T17:57:37Z</time>
      </trkpt>
      <trkpt lat="59.9003907" lon="17.7115646">
        <ele>22.7283</ele>
        <time>2013-05-19T17:57:38Z</time>
      </trkpt>
      <trkpt lat="59.9003177" lon="17.7114849">
        <ele>22.7283</ele>
        <time>2013-05-19T17:57:39Z</time>
      </trkpt>
      <trkpt lat="59.9002441" lon="17.7114034">
        <ele>23.209</ele>
        <time>2013-05-19T17:57:40Z</time>
      </trkpt>
      <trkpt lat="59.900169" lon="17.711322">
        <ele>23.209</ele>
        <time>2013-05-19T17:57:41Z</time>
      </trkpt>
      <trkpt lat="59.9000943" lon="17.7112389">
        <ele>23.209</ele>
        <time>2013-05-19T17:57:42Z</time>
      </trkpt>
      <trkpt lat="59.9000194" lon="17.7111549">
        <ele>23.209</ele>
        <time>2013-05-19T17:57:43Z</time>
      </trkpt>
      <trkpt lat="59.8999447" lon="17.711068">
        <ele>23.209</ele>
        <time>2013-05-19T17:57:44Z</time>
      </trkpt>
      <trkpt lat="59.8998701" lon="17.7109772">
        <ele>23.209</ele>
        <time>2013-05-19T17:57:45Z</time>
      </trkpt>
      <trkpt lat="59.8997941" lon="17.7108872">
        <ele>23.209</ele>
        <time>2013-05-19T17:57:46Z</time>
      </trkpt>
      <trkpt lat="59.8997168" lon="17.7107996">
        <ele>23.209</ele>
        <time>2013-05-19T17:57:47Z</time>
      </trkpt>
      <trkpt lat="59.8996391" lon="17.71071">
        <ele>22.7283</ele>
        <time>2013-05-19T17:57:48Z</time>
      </trkpt>
      <trkpt lat="59.8995641" lon="17.7106146">
        <ele>22.7283</ele>
        <time>2013-05-19T17:57:49Z</time>
      </trkpt>
      <trkpt lat="59.8994883" lon="17.7105188">
        <ele>22.7283</ele>
        <time>2013-05-19T17:57:50Z</time>
      </trkpt>
      <trkpt lat="59.8994127" lon="17.7104196">
        <ele>23.209</ele>
        <time>2013-05-19T17:57:51Z</time>
      </trkpt>
      <trkpt lat="59.8993372" lon="17.7103193">
        <ele>23.6896</ele>
        <time>2013-05-19T17:57:52Z</time>
      </trkpt>
      <trkpt lat="59.8992614" lon="17.710221">
        <ele>23.6896</ele>
        <time>2013-05-19T17:57:53Z</time>
      </trkpt>
      <trkpt lat="59.899186" lon="17.7101223">
        <ele>23.6896</ele>
        <time>2013-05-19T17:57:54Z</time>
      </trkpt>
      <trkpt lat="59.8991113" lon="17.7100216">
        <ele>24.1703</ele>
        <time>2013-05-19T17:57:55Z</time>
      </trkpt>
      <trkpt lat="59.8990363" lon="17.7099198">
        <ele>24.1703</ele>
        <time>2013-05-19T17:57:56Z</time>
      </trkpt>
      <trkpt lat="59.8989615" lon="17.7098179">
        <ele>24.1703</ele>
        <time>2013-05-19T17:57:57Z</time>
      </trkpt>
      <trkpt lat="59.8988858" lon="17.7097179">
        <ele>24.651</ele>
        <time>2013-05-19T17:57:58Z</time>
      </trkpt>
      <trkpt lat="59.8988098" lon="17.7096175">
        <ele>24.651</ele>
        <time>2013-05-19T17:57:59Z</time>
      </trkpt>
      <trkpt lat="59.8987336" lon="17.7095159">
        <ele>24.651</ele>
        <time>2013-05-19T17:58:00Z</time>
      </trkpt>
      <trkpt lat="59.8986564" lon="17.709414">
        <ele>24.651</ele>
        <time>2013-05-19T17:58:01Z</time>
      </trkpt>
      <trkpt lat="59.8985787" lon="17.7093112">
        <ele>24.651</ele>
        <time>2013-05-19T17:58:02Z</time>
      </trkpt>
      <trkpt lat="59.8985017" lon="17.7092047">
        <ele>24.651</ele>
        <time>2013-05-19T17:58:03Z</time>
      </trkpt>
      <trkpt lat="59.8984247" lon="17.7090967">
        <ele>24.651</ele>
        <time>2013-05-19T17:58:04Z</time>
      </trkpt>
      <trkpt lat="59.8983466" lon="17.7089889">
        <ele>24.651</ele>
        <time>2013-05-19T17:58:05Z</time>
      </trkpt>
      <trkpt lat="59.8982678" lon="17.7088819">
        <ele>24.651</ele>
        <time>2013-05-19T17:58:06Z</time>
      </trkpt>
      <trkpt lat="59.8981886" lon="17.7087741">
        <ele>25.1317</ele>
        <time>2013-05-19T17:58:07Z</time>
      </trkpt>
      <trkpt lat="59.8981087" lon="17.7086658">
        <ele>25.1317</ele>
        <time>2013-05-19T17:58:08Z</time>
      </trkpt>
      <trkpt lat="59.8980281" lon="17.7085579">
        <ele>25.1317</ele>
        <time>2013-05-19T17:58:09Z</time>
      </trkpt>
      <trkpt lat="59.8979481" lon="17.7084492">
        <ele>25.1317</ele>
        <time>2013-05-19T17:58:10Z</time>
      </trkpt>
      <trkpt lat="59.8978685" lon="17.7083414">
        <ele>25.1317</ele>
        <time>2013-05-19T17:58:11Z</time>
      </trkpt>
      <trkpt lat="59.8977893" lon="17.7082358">
        <ele>25.1317</ele>
        <time>2013-05-19T17:58:12Z</time>
      </trkpt>
      <trkpt lat="59.8977107" lon="17.70813">
        <ele>25.1317</ele>
        <time>2013-05-19T17:58:13Z</time>
      </trkpt>
      <trkpt lat="59.8976337" lon="17.7080219">
        <ele>25.1317</ele>
        <time>2013-05-19T17:58:14Z</time>
      </trkpt>
      <trkpt lat="59.8975567" lon="17.7079132">
        <ele>25.1317</ele>
        <time>2013-05-19T17:58:15Z</time>
      </trkpt>
      <trkpt lat="59.8974793" lon="17.707806">
        <ele>25.1317</ele>
        <time>2013-05-19T17:58:16Z</time>
      </trkpt>
      <trkpt lat="59.8974022" lon="17.7076994">
        <ele>24.651</ele>
        <time>2013-05-19T17:58:17Z</time>
      </trkpt>
      <trkpt lat="59.8973246" lon="17.707593">
        <ele>24.651</ele>
        <time>2013-05-19T17:58:18Z</time>
      </trkpt>
      <trkpt lat="59.897247" lon="17.7074858">
        <ele>24.651</ele>
        <time>2013-05-19T17:58:19Z</time>
      </trkpt>
      <trkpt lat="59.8971691" lon="17.7073787">
        <ele>24.1703</ele>
        <time>2013-05-19T17:58:20Z</time>
      </trkpt>
      <trkpt lat="59.897091" lon="17.7072728">
        <ele>24.1703</ele>
        <time>2013-05-19T17:58:21Z</time>
      </trkpt>
      <trkpt lat="59.8970143" lon="17.7071662">
        <ele>24.1703</ele>
        <time>2013-05-19T17:58:22Z</time>
      </trkpt>
      <trkpt lat="59.8969368" lon="17.7070606">
        <ele>24.1703</ele>
        <time>2013-05-19T17:58:23Z</time>
      </trkpt>
      <trkpt lat="59.8968591" lon="17.7069564">
        <ele>24.1703</ele>
        <time>2013-05-19T17:58:24Z</time>
      </trkpt>
      <trkpt lat="59.8967811" lon="17.7068528">
        <ele>24.651</ele>
        <time>2013-05-19T17:58:25Z</time>
      </trkpt>
      <trkpt lat="59.8967045" lon="17.7067477">
        <ele>24.1703</ele>
        <time>2013-05-19T17:58:26Z</time>
      </trkpt>
      <trkpt lat="59.896628" lon="17.706642">
        <ele>23.6896</ele>
        <time>2013-05-19T17:58:27Z</time>
      </trkpt>
      <trkpt lat="59.896551" lon="17.7065366">
        <ele>23.209</ele>
        <time>2013-05-19T17:58:28Z</time>
      </trkpt>
      <trkpt lat="59.8964731" lon="17.7064323">
        <ele>22.7283</ele>
        <time>2013-05-19T17:58:29Z</time>
      </trkpt>
      <trkpt lat="59.8963957" lon="17.7063275">
        <ele>22.2476</ele>
        <time>2013-05-19T17:58:30Z</time>
      </trkpt>
      <trkpt lat="59.8963166" lon="17.7062229">
        <ele>22.2476</ele>
        <time>2013-05-19T17:58:31Z</time>
      </trkpt>
      <trkpt lat="59.8962371" lon="17.7061186">
        <ele>22.2476</ele>
        <time>2013-05-19T17:58:32Z</time>
      </trkpt>
      <trkpt lat="59.8961579" lon="17.7060132">
        <ele>22.7283</ele>
        <time>2013-05-19T17:58:33Z</time>
      </trkpt>
      <trkpt lat="59.8960791" lon="17.705907">
        <ele>22.7283</ele>
        <time>2013-05-19T17:58:34Z</time>
      </trkpt>
      <trkpt lat="59.896" lon="17.7058017">
        <ele>22.7283</ele>
        <time>2013-05-19T17:58:35Z</time>
      </trkpt>
      <trkpt lat="59.8959199" lon="17.7056966">
        <ele>23.209</ele>
        <time>2013-05-19T17:58:36Z</time>
      </trkpt>
      <trkpt lat="59.8958395" lon="17.7055905">
        <ele>23.209</ele>
        <time>2013-05-19T17:58:37Z</time>
      </trkpt>
      <trkpt lat="59.8957583" lon="17.7054842">
        <ele>23.209</ele>
        <time>2013-05-19T17:58:38Z</time>
      </trkpt>
      <trkpt lat="59.8956778" lon="17.7053768">
        <ele>23.6896</ele>
        <time>2013-05-19T17:58:39Z</time>
      </trkpt>
      <trkpt lat="59.8955976" lon="17.7052683">
        <ele>23.6896</ele>
        <time>2013-05-19T17:58:40Z</time>
      </trkpt>
      <trkpt lat="59.8955167" lon="17.7051616">
        <ele>23.6896</ele>
        <time>2013-05-19T17:58:41Z</time>
      </trkpt>
      <trkpt lat="59.8954345" lon="17.7050569">
        <ele>23.6896</ele>
        <time>2013-05-19T17:58:42Z</time>
      </trkpt>
      <trkpt lat="59.8953526" lon="17.7049496">
        <ele>24.1703</ele>
        <time>2013-05-19T17:58:43Z</time>
      </trkpt>
      <trkpt lat="59.8952718" lon="17.7048401">
        <ele>24.1703</ele>
        <time>2013-05-19T17:58:44Z</time>
      </trkpt>
      <trkpt lat="59.8951905" lon="17.7047309">
        <ele>24.1703</ele>
        <time>2013-05-19T17:58:45Z</time>
      </trkpt>
      <trkpt lat="59.8951092" lon="17.7046223">
        <ele>24.651</ele>
        <time>2013-05-19T17:58:46Z</time>
      </trkpt>
      <trkpt lat="59.8950287" lon="17.7045133">
        <ele>24.651</ele>
        <time>2013-05-19T17:58:47Z</time>
      </trkpt>
      <trkpt lat="59.8949491" lon="17.7044032">
        <ele>24.651</ele>
        <time>2013-05-19T17:58:48Z</time>
      </trkpt>
      <trkpt lat="59.8948703" lon="17.7042942">
        <ele>25.1317</ele>
        <time>2013-05-19T17:58:49Z</time>
      </trkpt>
      <trkpt lat="59.8947916" lon="17.7041885">
        <ele>25.1317</ele>
        <time>2013-05-19T17:58:50Z</time>
      </trkpt>
      <trkpt lat="59.8947139" lon="17.7040844">
        <ele>25.1317</ele>
        <time>2013-05-19T17:58:51Z</time>
      </trkpt>
      <trkpt lat="59.8946371" lon="17.7039814">
        <ele>25.6123</ele>
        <time>2013-05-19T17:58:52Z</time>
      </trkpt>
      <trkpt lat="59.8945611" lon="17.7038794">
        <ele>25.6123</ele>
        <time>2013-05-19T17:58:53Z</time>
      </trkpt>
      <trkpt lat="59.8944858" lon="17.7037784">
        <ele>25.6123</ele>
        <time>2013-05-19T17:58:54Z</time>
      </trkpt>
      <trkpt lat="59.8944109" lon="17.703679">
        <ele>25.6123</ele>
        <time>2013-05-19T17:58:55Z</time>
      </trkpt>
      <trkpt lat="59.8943374" lon="17.7035796">
        <ele>26.0929</ele>
        <time>2013-05-19T17:58:56Z</time>
      </trkpt>
      <trkpt lat="59.8942649" lon="17.7034814">
        <ele>26.0929</ele>
        <time>2013-05-19T17:58:57Z</time>
      </trkpt>
      <trkpt lat="59.8941932" lon="17.7033858">
        <ele>26.5736</ele>
        <time>2013-05-19T17:58:58Z</time>
      </trkpt>
      <trkpt lat="59.8941219" lon="17.7032914">
        <ele>26.5736</ele>
        <time>2013-05-19T17:58:59Z</time>
      </trkpt>
      <trkpt lat="59.8940513" lon="17.7031963">
        <ele>26.5736</ele>
        <time>2013-05-19T17:59:00Z</time>
      </trkpt>
      <trkpt lat="59.8939804" lon="17.7031015">
        <ele>27.0543</ele>
        <time>2013-05-19T17:59:01Z</time>
      </trkpt>
      <trkpt lat="59.8939095" lon="17.7030077">
        <ele>27.0543</ele>
        <time>2013-05-19T17:59:02Z</time>
      </trkpt>
      <trkpt lat="59.8938394" lon="17.7029147">
        <ele>27.0543</ele>
        <time>2013-05-19T17:59:03Z</time>
      </trkpt>
      <trkpt lat="59.8937699" lon="17.7028217">
        <ele>27.0543</ele>
        <time>2013-05-19T17:59:04Z</time>
      </trkpt>
      <trkpt lat="59.893701" lon="17.7027298">
        <ele>27.0543</ele>
        <time>2013-05-19T17:59:05Z</time>
      </trkpt>
      <trkpt lat="59.8936328" lon="17.7026381">
        <ele>27.0543</ele>
        <time>2013-05-19T17:59:06Z</time>
      </trkpt>
      <trkpt lat="59.8935654" lon="17.7025465">
        <ele>27.0543</ele>
        <time>2013-05-19T17:59:07Z</time>
      </trkpt>
      <trkpt lat="59.8934986" lon="17.7024558">
        <ele>27.0543</ele>
        <time>2013-05-19T17:59:08Z</time>
      </trkpt>
      <trkpt lat="59.8934321" lon="17.7023669">
        <ele>27.5349</ele>
        <time>2013-05-19T17:59:09Z</time>
      </trkpt>
      <trkpt lat="59.893366" lon="17.7022778">
        <ele>27.5349</ele>
        <time>2013-05-19T17:59:10Z</time>
      </trkpt>
      <trkpt lat="59.8933" lon="17.7021887">
        <ele>27.5349</ele>
        <time>2013-05-19T17:59:11Z</time>
      </trkpt>
      <trkpt lat="59.8932332" lon="17.7021006">
        <ele>27.5349</ele>
        <time>2013-05-19T17:59:12Z</time>
      </trkpt>
      <trkpt lat="59.8931658" lon="17.702012">
        <ele>27.5349</ele>
        <time>2013-05-19T17:59:13Z</time>
      </trkpt>
      <trkpt lat="59.8930992" lon="17.7019224">
        <ele>27.5349</ele>
        <time>2013-05-19T17:59:14Z</time>
      </trkpt>
      <trkpt lat="59.893034" lon="17.7018316">
        <ele>27.5349</ele>
        <time>2013-05-19T17:59:15Z</time>
      </trkpt>
      <trkpt lat="59.8929691" lon="17.7017442">
        <ele>27.0543</ele>
        <time>2013-05-19T17:59:16Z</time>
      </trkpt>
      <trkpt lat="59.892905" lon="17.7016565">
        <ele>27.0543</ele>
        <time>2013-05-19T17:59:17Z</time>
      </trkpt>
      <trkpt lat="59.8928431" lon="17.7015634">
        <ele>27.0543</ele>
        <time>2013-05-19T17:59:18Z</time>
      </trkpt>
      <trkpt lat="59.8927801" lon="17.7014774">
        <ele>27.0543</ele>
        <time>2013-05-19T17:59:19Z</time>
      </trkpt>
      <trkpt lat="59.8927196" lon="17.7013894">
        <ele>27.0543</ele>
        <time>2013-05-19T17:59:20Z</time>
      </trkpt>
      <trkpt lat="59.8926589" lon="17.7013061">
        <ele>26.5736</ele>
        <time>2013-05-19T17:59:21Z</time>
      </trkpt>
      <trkpt lat="59.8926014" lon="17.7012303">
        <ele>26.5736</ele>
        <time>2013-05-19T17:59:22Z</time>
      </trkpt>
      <trkpt lat="59.8925522" lon="17.7011623">
        <ele>26.5736</ele>
        <time>2013-05-19T17:59:23Z</time>
      </trkpt>
      <trkpt lat="59.8925128" lon="17.7011066">
        <ele>26.0929</ele>
        <time>2013-05-19T17:59:24Z</time>
      </trkpt>
      <trkpt lat="59.8924845" lon="17.7010668">
        <ele>26.0929</ele>
        <time>2013-05-19T17:59:25Z</time>
      </trkpt>
      <trkpt lat="59.8924622" lon="17.7010418">
        <ele>26.5736</ele>
        <time>2013-05-19T17:59:26Z</time>
      </trkpt>
      <trkpt lat="59.8924505" lon="17.7010092">
        <ele>27.5349</ele>
        <time>2013-05-19T17:59:27Z</time>
      </trkpt>
      <trkpt lat="59.8924526" lon="17.7009693">
        <ele>28.4962</ele>
        <time>2013-05-19T17:59:28Z</time>
      </trkpt>
      <trkpt lat="59.8924608" lon="17.7009371">
        <ele>28.9769</ele>
        <time>2013-05-19T17:59:29Z</time>
      </trkpt>
      <trkpt lat="59.8924708" lon="17.7009163">
        <ele>29.9381</ele>
        <time>2013-05-19T17:59:30Z</time>
      </trkpt>
      <trkpt lat="59.8924843" lon="17.7009046">
        <ele>29.9381</ele>
        <time>2013-05-19T17:59:31Z</time>
      </trkpt>
      <trkpt lat="59.8924973" lon="17.7008932">
        <ele>30.4188</ele>
        <time>2013-05-19T17:59:32Z</time>
      </trkpt>
      <trkpt lat="59.8925118" lon="17.7008603">
        <ele>29.9381</ele>
        <time>2013-05-19T17:59:33Z</time>
      </trkpt>
      <trkpt lat="59.892534" lon="17.7008237">
        <ele>30.4188</ele>
        <time>2013-05-19T17:59:34Z</time>
      </trkpt>
      <trkpt lat="59.8925582" lon="17.7007725">
        <ele>30.8995</ele>
        <time>2013-05-19T17:59:35Z</time>
      </trkpt>
      <trkpt lat="59.8925841" lon="17.7007039">
        <ele>30.8995</ele>
        <time>2013-05-19T17:59:36Z</time>
      </trkpt>
      <trkpt lat="59.8926145" lon="17.7006294">
        <ele>31.3801</ele>
        <time>2013-05-19T17:59:37Z</time>
      </trkpt>
      <trkpt lat="59.8926482" lon="17.700551">
        <ele>31.8607</ele>
        <time>2013-05-19T17:59:38Z</time>
      </trkpt>
      <trkpt lat="59.8926841" lon="17.7004674">
        <ele>31.8607</ele>
        <time>2013-05-19T17:59:39Z</time>
      </trkpt>
      <trkpt lat="59.8927211" lon="17.7003742">
        <ele>31.8607</ele>
        <time>2013-05-19T17:59:40Z</time>
      </trkpt>
      <trkpt lat="59.8927578" lon="17.7002846">
        <ele>32.3416</ele>
        <time>2013-05-19T17:59:41Z</time>
      </trkpt>
      <trkpt lat="59.8927955" lon="17.7001979">
        <ele>32.3416</ele>
        <time>2013-05-19T17:59:42Z</time>
      </trkpt>
      <trkpt lat="59.892838" lon="17.7001161">
        <ele>32.3416</ele>
        <time>2013-05-19T17:59:43Z</time>
      </trkpt>
      <trkpt lat="59.8928801" lon="17.7000276">
        <ele>32.3416</ele>
        <time>2013-05-19T17:59:44Z</time>
      </trkpt>
      <trkpt lat="59.8929222" lon="17.6999353">
        <ele>32.3416</ele>
        <time>2013-05-19T17:59:45Z</time>
      </trkpt>
      <trkpt lat="59.892964" lon="17.6998374">
        <ele>32.3416</ele>
        <time>2013-05-19T17:59:46Z</time>
      </trkpt>
      <trkpt lat="59.8930049" lon="17.6997359">
        <ele>32.3416</ele>
        <time>2013-05-19T17:59:47Z</time>
      </trkpt>
      <trkpt lat="59.8930483" lon="17.6996348">
        <ele>32.3416</ele>
        <time>2013-05-19T17:59:48Z</time>
      </trkpt>
      <trkpt lat="59.8930926" lon="17.6995323">
        <ele>32.3416</ele>
        <time>2013-05-19T17:59:49Z</time>
      </trkpt>
      <trkpt lat="59.8931349" lon="17.699426">
        <ele>32.3416</ele>
        <time>2013-05-19T17:59:50Z</time>
      </trkpt>
      <trkpt lat="59.8931736" lon="17.6993127">
        <ele>32.3416</ele>
        <time>2013-05-19T17:59:51Z</time>
      </trkpt>
      <trkpt lat="59.8932059" lon="17.6991909">
        <ele>32.3416</ele>
        <time>2013-05-19T17:59:52Z</time>
      </trkpt>
      <trkpt lat="59.8932267" lon="17.6990626">
        <ele>32.3416</ele>
        <time>2013-05-19T17:59:53Z</time>
      </trkpt>
      <trkpt lat="59.8932392" lon="17.6989322">
        <ele>32.3416</ele>
        <time>2013-05-19T17:59:54Z</time>
      </trkpt>
      <trkpt lat="59.8932551" lon="17.698804">
        <ele>32.3416</ele>
        <time>2013-05-19T17:59:55Z</time>
      </trkpt>
      <trkpt lat="59.8932825" lon="17.6986865">
        <ele>32.3416</ele>
        <time>2013-05-19T17:59:56Z</time>
      </trkpt>
      <trkpt lat="59.893326" lon="17.6985907">
        <ele>32.3416</ele>
        <time>2013-05-19T17:59:57Z</time>
      </trkpt>
      <trkpt lat="59.8933788" lon="17.6985029">
        <ele>31.8607</ele>
        <time>2013-05-19T17:59:58Z</time>
      </trkpt>
      <trkpt lat="59.8934309" lon="17.6984185">
        <ele>31.3801</ele>
        <time>2013-05-19T17:59:59Z</time>
      </trkpt>
      <trkpt lat="59.8934789" lon="17.6983254">
        <ele>30.8995</ele>
        <time>2013-05-19T18:00:00Z</time>
      </trkpt>
      <trkpt lat="59.8935228" lon="17.6982222">
        <ele>30.4188</ele>
        <time>2013-05-19T18:00:01Z</time>
      </trkpt>
      <trkpt lat="59.8935685" lon="17.6981138">
        <ele>30.4188</ele>
        <time>2013-05-19T18:00:02Z</time>
      </trkpt>
      <trkpt lat="59.8936085" lon="17.6979937">
        <ele>30.4188</ele>
        <time>2013-05-19T18:00:03Z</time>
      </trkpt>
      <trkpt lat="59.8936436" lon="17.6978686">
        <ele>30.8995</ele>
        <time>2013-05-19T18:00:04Z</time>
      </trkpt>
      <trkpt lat="59.8936742" lon="17.6977393">
        <ele>30.8995</ele>
        <time>2013-05-19T18:00:05Z</time>
      </trkpt>
      <trkpt lat="59.8937017" lon="17.6976048">
        <ele>31.3801</ele>
        <time>2013-05-19T18:00:06Z</time>
      </trkpt>
      <trkpt lat="59.8937251" lon="17.6974635">
        <ele>30.8995</ele>
        <time>2013-05-19T18:00:07Z</time>
      </trkpt>
      <trkpt lat="59.8937451" lon="17.6973208">
        <ele>29.9381</ele>
        <time>2013-05-19T18:00:08Z</time>
      </trkpt>
      <trkpt lat="59.8937626" lon="17.6971795">
        <ele>30.4188</ele>
        <time>2013-05-19T18:00:09Z</time>
      </trkpt>
      <trkpt lat="59.8937753" lon="17.6970319">
        <ele>30.8995</ele>
        <time>2013-05-19T18:00:10Z</time>
      </trkpt>
      <trkpt lat="59.8937844" lon="17.6968846">
        <ele>31.3801</ele>
        <time>2013-05-19T18:00:11Z</time>
      </trkpt>
      <trkpt lat="59.8937938" lon="17.6967442">
        <ele>31.3801</ele>
        <time>2013-05-19T18:00:12Z</time>
      </trkpt>
      <trkpt lat="59.8937944" lon="17.6966045">
        <ele>31.3801</ele>
        <time>2013-05-19T18:00:13Z</time>
      </trkpt>
      <trkpt lat="59.8937966" lon="17.6964665">
        <ele>31.3801</ele>
        <time>2013-05-19T18:00:14Z</time>
      </trkpt>
      <trkpt lat="59.8937923" lon="17.6963352">
        <ele>31.3801</ele>
        <time>2013-05-19T18:00:15Z</time>
      </trkpt>
      <trkpt lat="59.8937887" lon="17.6962003">
        <ele>32.3416</ele>
        <time>2013-05-19T18:00:16Z</time>
      </trkpt>
      <trkpt lat="59.893793" lon="17.6960571">
        <ele>31.3801</ele>
        <time>2013-05-19T18:00:17Z</time>
      </trkpt>
      <trkpt lat="59.8937965" lon="17.6959114">
        <ele>31.3801</ele>
        <time>2013-05-19T18:00:18Z</time>
      </trkpt>
      <trkpt lat="59.8938016" lon="17.6957606">
        <ele>31.3801</ele>
        <time>2013-05-19T18:00:19Z</time>
      </trkpt>
      <trkpt lat="59.8938071" lon="17.6956063">
        <ele>30.8995</ele>
        <time>2013-05-19T18:00:20Z</time>
      </trkpt>
      <trkpt lat="59.8938134" lon="17.6954505">
        <ele>30.8995</ele>
        <time>2013-05-19T18:00:21Z</time>
      </trkpt>
      <trkpt lat="59.8938181" lon="17.6952939">
        <ele>30.8995</ele>
        <time>2013-05-19T18:00:22Z</time>
      </trkpt>
      <trkpt lat="59.8938206" lon="17.6951339">
        <ele>31.3801</ele>
        <time>2013-05-19T18:00:23Z</time>
      </trkpt>
      <trkpt lat="59.8938217" lon="17.6949722">
        <ele>31.3801</ele>
        <time>2013-05-19T18:00:24Z</time>
      </trkpt>
      <trkpt lat="59.8938232" lon="17.6948091">
        <ele>31.3801</ele>
        <time>2013-05-19T18:00:25Z</time>
      </trkpt>
      <trkpt lat="59.8938294" lon="17.6946501">
        <ele>31.3801</ele>
        <time>2013-05-19T18:00:26Z</time>
      </trkpt>
      <trkpt lat="59.8938348" lon="17.6944877">
        <ele>31.3801</ele>
        <time>2013-05-19T18:00:27Z</time>
      </trkpt>
      <trkpt lat="59.8938399" lon="17.6943247">
        <ele>31.3801</ele>
        <time>2013-05-19T18:00:28Z</time>
      </trkpt>
      <trkpt lat="59.8938436" lon="17.6941631">
        <ele>31.8607</ele>
        <time>2013-05-19T18:00:29Z</time>
      </trkpt>
      <trkpt lat="59.8938458" lon="17.694001">
        <ele>31.8607</ele>
        <time>2013-05-19T18:00:30Z</time>
      </trkpt>
      <trkpt lat="59.8938481" lon="17.6938386">
        <ele>31.8607</ele>
        <time>2013-05-19T18:00:31Z</time>
      </trkpt>
      <trkpt lat="59.893851" lon="17.6936757">
        <ele>31.8607</ele>
        <time>2013-05-19T18:00:32Z</time>
      </trkpt>
      <trkpt lat="59.8938556" lon="17.6935138">
        <ele>31.8607</ele>
        <time>2013-05-19T18:00:33Z</time>
      </trkpt>
      <trkpt lat="59.8938606" lon="17.6933518">
        <ele>32.3416</ele>
        <time>2013-05-19T18:00:34Z</time>
      </trkpt>
      <trkpt lat="59.8938674" lon="17.6931903">
        <ele>32.3416</ele>
        <time>2013-05-19T18:00:35Z</time>
      </trkpt>
      <trkpt lat="59.8938745" lon="17.6930286">
        <ele>31.8607</ele>
        <time>2013-05-19T18:00:36Z</time>
      </trkpt>
      <trkpt lat="59.8938804" lon="17.692865">
        <ele>32.3416</ele>
        <time>2013-05-19T18:00:37Z</time>
      </trkpt>
      <trkpt lat="59.8938839" lon="17.6927055">
        <ele>31.8607</ele>
        <time>2013-05-19T18:00:38Z</time>
      </trkpt>
      <trkpt lat="59.8938902" lon="17.6925455">
        <ele>32.3416</ele>
        <time>2013-05-19T18:00:39Z</time>
      </trkpt>
      <trkpt lat="59.8938954" lon="17.6923807">
        <ele>32.3416</ele>
        <time>2013-05-19T18:00:40Z</time>
      </trkpt>
      <trkpt lat="59.8938988" lon="17.692218">
        <ele>31.8607</ele>
        <time>2013-05-19T18:00:41Z</time>
      </trkpt>
      <trkpt lat="59.8939023" lon="17.6920507">
        <ele>31.3801</ele>
        <time>2013-05-19T18:00:42Z</time>
      </trkpt>
      <trkpt lat="59.8939011" lon="17.691893">
        <ele>30.8995</ele>
        <time>2013-05-19T18:00:43Z</time>
      </trkpt>
      <trkpt lat="59.8939009" lon="17.6917335">
        <ele>29.9381</ele>
        <time>2013-05-19T18:00:44Z</time>
      </trkpt>
      <trkpt lat="59.8939032" lon="17.6915749">
        <ele>29.4575</ele>
        <time>2013-05-19T18:00:45Z</time>
      </trkpt>
      <trkpt lat="59.8939084" lon="17.6914195">
        <ele>29.9381</ele>
        <time>2013-05-19T18:00:46Z</time>
      </trkpt>
      <trkpt lat="59.8939203" lon="17.6912712">
        <ele>29.4575</ele>
        <time>2013-05-19T18:00:47Z</time>
      </trkpt>
      <trkpt lat="59.8939341" lon="17.6911227">
        <ele>28.4962</ele>
        <time>2013-05-19T18:00:48Z</time>
      </trkpt>
      <trkpt lat="59.8939534" lon="17.6909809">
        <ele>27.5349</ele>
        <time>2013-05-19T18:00:49Z</time>
      </trkpt>
      <trkpt lat="59.8939773" lon="17.6908406">
        <ele>27.5349</ele>
        <time>2013-05-19T18:00:50Z</time>
      </trkpt>
      <trkpt lat="59.894002" lon="17.6906903">
        <ele>26.5736</ele>
        <time>2013-05-19T18:00:51Z</time>
      </trkpt>
      <trkpt lat="59.8940288" lon="17.6905488">
        <ele>26.5736</ele>
        <time>2013-05-19T18:00:52Z</time>
      </trkpt>
      <trkpt lat="59.8940524" lon="17.6904065">
        <ele>26.5736</ele>
        <time>2013-05-19T18:00:53Z</time>
      </trkpt>
      <trkpt lat="59.8940742" lon="17.690265">
        <ele>27.0543</ele>
        <time>2013-05-19T18:00:54Z</time>
      </trkpt>
      <trkpt lat="59.8940928" lon="17.6901201">
        <ele>27.0543</ele>
        <time>2013-05-19T18:00:55Z</time>
      </trkpt>
      <trkpt lat="59.8941146" lon="17.6899989">
        <ele>27.0543</ele>
        <time>2013-05-19T18:00:56Z</time>
      </trkpt>
      <trkpt lat="59.8941249" lon="17.6898741">
        <ele>26.5736</ele>
        <time>2013-05-19T18:00:57Z</time>
      </trkpt>
      <trkpt lat="59.8941368" lon="17.6897429">
        <ele>26.0929</ele>
        <time>2013-05-19T18:00:58Z</time>
      </trkpt>
      <trkpt lat="59.8941491" lon="17.6896083">
        <ele>26.0929</ele>
        <time>2013-05-19T18:00:59Z</time>
      </trkpt>
      <trkpt lat="59.8941617" lon="17.6894705">
        <ele>26.0929</ele>
        <time>2013-05-19T18:01:00Z</time>
      </trkpt>
      <trkpt lat="59.8941756" lon="17.6893294">
        <ele>25.6123</ele>
        <time>2013-05-19T18:01:01Z</time>
      </trkpt>
      <trkpt lat="59.8941907" lon="17.6891844">
        <ele>25.6123</ele>
        <time>2013-05-19T18:01:02Z</time>
      </trkpt>
      <trkpt lat="59.8942082" lon="17.6890379">
        <ele>25.1317</ele>
        <time>2013-05-19T18:01:03Z</time>
      </trkpt>
      <trkpt lat="59.894228" lon="17.6888929">
        <ele>24.651</ele>
        <time>2013-05-19T18:01:04Z</time>
      </trkpt>
      <trkpt lat="59.8942508" lon="17.6887498">
        <ele>24.651</ele>
        <time>2013-05-19T18:01:05Z</time>
      </trkpt>
      <trkpt lat="59.8942751" lon="17.6886048">
        <ele>23.6896</ele>
        <time>2013-05-19T18:01:06Z</time>
      </trkpt>
      <trkpt lat="59.8943039" lon="17.6884583">
        <ele>23.209</ele>
        <time>2013-05-19T18:01:07Z</time>
      </trkpt>
      <trkpt lat="59.8943324" lon="17.6883055">
        <ele>23.209</ele>
        <time>2013-05-19T18:01:08Z</time>
      </trkpt>
      <trkpt lat="59.8943632" lon="17.6881514">
        <ele>22.7283</ele>
        <time>2013-05-19T18:01:09Z</time>
      </trkpt>
      <trkpt lat="59.8943937" lon="17.6879914">
        <ele>22.2476</ele>
        <time>2013-05-19T18:01:10Z</time>
      </trkpt>
      <trkpt lat="59.8944296" lon="17.6878428">
        <ele>22.2476</ele>
        <time>2013-05-19T18:01:11Z</time>
      </trkpt>
      <trkpt lat="59.8944646" lon="17.6876937">
        <ele>21.767</ele>
        <time>2013-05-19T18:01:12Z</time>
      </trkpt>
      <trkpt lat="59.8944993" lon="17.687544">
        <ele>21.2864</ele>
        <time>2013-05-19T18:01:13Z</time>
      </trkpt>
      <trkpt lat="59.8945332" lon="17.6873943">
        <ele>20.8057</ele>
        <time>2013-05-19T18:01:14Z</time>
      </trkpt>
      <trkpt lat="59.8945678" lon="17.6872481">
        <ele>20.8057</ele>
        <time>2013-05-19T18:01:15Z</time>
      </trkpt>
      <trkpt lat="59.8945989" lon="17.6870963">
        <ele>20.325</ele>
        <time>2013-05-19T18:01:16Z</time>
      </trkpt>
      <trkpt lat="59.8946303" lon="17.6869477">
        <ele>19.8444</ele>
        <time>2013-05-19T18:01:17Z</time>
      </trkpt>
      <trkpt lat="59.8946574" lon="17.6867908">
        <ele>19.8444</ele>
        <time>2013-05-19T18:01:18Z</time>
      </trkpt>
      <trkpt lat="59.8946827" lon="17.6866313">
        <ele>19.8444</ele>
        <time>2013-05-19T18:01:19Z</time>
      </trkpt>
      <trkpt lat="59.8947062" lon="17.6864706">
        <ele>19.8444</ele>
        <time>2013-05-19T18:01:20Z</time>
      </trkpt>
      <trkpt lat="59.8947267" lon="17.6863101">
        <ele>19.8444</ele>
        <time>2013-05-19T18:01:21Z</time>
      </trkpt>
      <trkpt lat="59.8947445" lon="17.6861483">
        <ele>19.8444</ele>
        <time>2013-05-19T18:01:22Z</time>
      </trkpt>
      <trkpt lat="59.8947584" lon="17.6859853">
        <ele>19.8444</ele>
        <time>2013-05-19T18:01:23Z</time>
      </trkpt>
      <trkpt lat="59.8947692" lon="17.6858215">
        <ele>19.8444</ele>
        <time>2013-05-19T18:01:24Z</time>
      </trkpt>
      <trkpt lat="59.8947776" lon="17.6856538">
        <ele>19.3638</ele>
        <time>2013-05-19T18:01:25Z</time>
      </trkpt>
      <trkpt lat="59.8947854" lon="17.6854932">
        <ele>19.8444</ele>
        <time>2013-05-19T18:01:26Z</time>
      </trkpt>
      <trkpt lat="59.8947942" lon="17.6853236">
        <ele>19.3638</ele>
        <time>2013-05-19T18:01:27Z</time>
      </trkpt>
      <trkpt lat="59.8948046" lon="17.6851574">
        <ele>19.3638</ele>
        <time>2013-05-19T18:01:28Z</time>
      </trkpt>
      <trkpt lat="59.894814" lon="17.6849931">
        <ele>19.3638</ele>
        <time>2013-05-19T18:01:29Z</time>
      </trkpt>
      <trkpt lat="59.8948277" lon="17.6848307">
        <ele>18.8831</ele>
        <time>2013-05-19T18:01:30Z</time>
      </trkpt>
      <trkpt lat="59.8948424" lon="17.6846715">
        <ele>18.8831</ele>
        <time>2013-05-19T18:01:31Z</time>
      </trkpt>
      <trkpt lat="59.8948573" lon="17.6845186">
        <ele>18.8831</ele>
        <time>2013-05-19T18:01:32Z</time>
      </trkpt>
      <trkpt lat="59.8948688" lon="17.6843673">
        <ele>19.3638</ele>
        <time>2013-05-19T18:01:33Z</time>
      </trkpt>
      <trkpt lat="59.8948807" lon="17.6842184">
        <ele>19.3638</ele>
        <time>2013-05-19T18:01:34Z</time>
      </trkpt>
      <trkpt lat="59.894891" lon="17.6840692">
        <ele>19.3638</ele>
        <time>2013-05-19T18:01:35Z</time>
      </trkpt>
      <trkpt lat="59.8949085" lon="17.6839229">
        <ele>19.3638</ele>
        <time>2013-05-19T18:01:36Z</time>
      </trkpt>
      <trkpt lat="59.8949386" lon="17.6837822">
        <ele>19.3638</ele>
        <time>2013-05-19T18:01:37Z</time>
      </trkpt>
      <trkpt lat="59.894976" lon="17.6836475">
        <ele>19.8444</ele>
        <time>2013-05-19T18:01:38Z</time>
      </trkpt>
      <trkpt lat="59.8950242" lon="17.683521">
        <ele>19.8444</ele>
        <time>2013-05-19T18:01:39Z</time>
      </trkpt>
      <trkpt lat="59.8950836" lon="17.6834114">
        <ele>20.325</ele>
        <time>2013-05-19T18:01:40Z</time>
      </trkpt>
      <trkpt lat="59.8951455" lon="17.6833123">
        <ele>21.2864</ele>
        <time>2013-05-19T18:01:41Z</time>
      </trkpt>
      <trkpt lat="59.8952055" lon="17.6832155">
        <ele>21.767</ele>
        <time>2013-05-19T18:01:42Z</time>
      </trkpt>
      <trkpt lat="59.8952656" lon="17.6831296">
        <ele>22.7283</ele>
        <time>2013-05-19T18:01:43Z</time>
      </trkpt>
      <trkpt lat="59.8953294" lon="17.6830584">
        <ele>23.209</ele>
        <time>2013-05-19T18:01:44Z</time>
      </trkpt>
      <trkpt lat="59.8953918" lon="17.6829928">
        <ele>23.6896</ele>
        <time>2013-05-19T18:01:45Z</time>
      </trkpt>
      <trkpt lat="59.8954531" lon="17.6829234">
        <ele>24.651</ele>
        <time>2013-05-19T18:01:46Z</time>
      </trkpt>
      <trkpt lat="59.895514" lon="17.6828482">
        <ele>24.651</ele>
        <time>2013-05-19T18:01:47Z</time>
      </trkpt>
      <trkpt lat="59.8955779" lon="17.6827757">
        <ele>25.1317</ele>
        <time>2013-05-19T18:01:48Z</time>
      </trkpt>
      <trkpt lat="59.895641" lon="17.6827164">
        <ele>25.1317</ele>
        <time>2013-05-19T18:01:49Z</time>
      </trkpt>
      <trkpt lat="59.8957043" lon="17.6826684">
        <ele>26.0929</ele>
        <time>2013-05-19T18:01:50Z</time>
      </trkpt>
      <trkpt lat="59.8957669" lon="17.6826297">
        <ele>26.0929</ele>
        <time>2013-05-19T18:01:51Z</time>
      </trkpt>
      <trkpt lat="59.8958295" lon="17.6825913">
        <ele>27.0543</ele>
        <time>2013-05-19T18:01:52Z</time>
      </trkpt>
      <trkpt lat="59.8958913" lon="17.6825442">
        <ele>27.0543</ele>
        <time>2013-05-19T18:01:53Z</time>
      </trkpt>
      <trkpt lat="59.8959533" lon="17.6824912">
        <ele>28.0155</ele>
        <time>2013-05-19T18:01:54Z</time>
      </trkpt>
      <trkpt lat="59.8960161" lon="17.6824241">
        <ele>28.4962</ele>
        <time>2013-05-19T18:01:55Z</time>
      </trkpt>
      <trkpt lat="59.8960762" lon="17.6823504">
        <ele>28.0155</ele>
        <time>2013-05-19T18:01:56Z</time>
      </trkpt>
      <trkpt lat="59.8961397" lon="17.6822738">
        <ele>27.5349</ele>
        <time>2013-05-19T18:01:57Z</time>
      </trkpt>
      <trkpt lat="59.8962061" lon="17.6822007">
        <ele>27.0543</ele>
        <time>2013-05-19T18:01:58Z</time>
      </trkpt>
      <trkpt lat="59.8962762" lon="17.6821275">
        <ele>26.5736</ele>
        <time>2013-05-19T18:01:59Z</time>
      </trkpt>
      <trkpt lat="59.8963502" lon="17.6820498">
        <ele>26.5736</ele>
        <time>2013-05-19T18:02:00Z</time>
      </trkpt>
      <trkpt lat="59.8964237" lon="17.681968">
        <ele>26.5736</ele>
        <time>2013-05-19T18:02:01Z</time>
      </trkpt>
      <trkpt lat="59.8964978" lon="17.6818811">
        <ele>26.0929</ele>
        <time>2013-05-19T18:02:02Z</time>
      </trkpt>
      <trkpt lat="59.8965714" lon="17.6817915">
        <ele>26.0929</ele>
        <time>2013-05-19T18:02:03Z</time>
      </trkpt>
      <trkpt lat="59.8966436" lon="17.6817004">
        <ele>26.0929</ele>
        <time>2013-05-19T18:02:04Z</time>
      </trkpt>
      <trkpt lat="59.8967129" lon="17.6816062">
        <ele>25.6123</ele>
        <time>2013-05-19T18:02:05Z</time>
      </trkpt>
      <trkpt lat="59.8967792" lon="17.6815064">
        <ele>25.6123</ele>
        <time>2013-05-19T18:02:06Z</time>
      </trkpt>
      <trkpt lat="59.896843" lon="17.6813993">
        <ele>25.1317</ele>
        <time>2013-05-19T18:02:07Z</time>
      </trkpt>
      <trkpt lat="59.8969046" lon="17.6812854">
        <ele>25.1317</ele>
        <time>2013-05-19T18:02:08Z</time>
      </trkpt>
      <trkpt lat="59.896964" lon="17.6811664">
        <ele>25.1317</ele>
        <time>2013-05-19T18:02:09Z</time>
      </trkpt>
      <trkpt lat="59.8970221" lon="17.6810453">
        <ele>25.1317</ele>
        <time>2013-05-19T18:02:10Z</time>
      </trkpt>
      <trkpt lat="59.8970794" lon="17.6809231">
        <ele>25.1317</ele>
        <time>2013-05-19T18:02:11Z</time>
      </trkpt>
      <trkpt lat="59.8971345" lon="17.6807983">
        <ele>25.1317</ele>
        <time>2013-05-19T18:02:12Z</time>
      </trkpt>
      <trkpt lat="59.8971874" lon="17.6806705">
        <ele>25.1317</ele>
        <time>2013-05-19T18:02:13Z</time>
      </trkpt>
      <trkpt lat="59.8972379" lon="17.6805401">
        <ele>25.1317</ele>
        <time>2013-05-19T18:02:14Z</time>
      </trkpt>
      <trkpt lat="59.8972869" lon="17.6804094">
        <ele>25.1317</ele>
        <time>2013-05-19T18:02:15Z</time>
      </trkpt>
      <trkpt lat="59.8973358" lon="17.6802797">
        <ele>25.1317</ele>
        <time>2013-05-19T18:02:16Z</time>
      </trkpt>
      <trkpt lat="59.8973851" lon="17.6801526">
        <ele>25.1317</ele>
        <time>2013-05-19T18:02:17Z</time>
      </trkpt>
      <trkpt lat="59.8974339" lon="17.6800276">
        <ele>25.1317</ele>
        <time>2013-05-19T18:02:18Z</time>
      </trkpt>
      <trkpt lat="59.8974824" lon="17.6799028">
        <ele>25.1317</ele>
        <time>2013-05-19T18:02:19Z</time>
      </trkpt>
      <trkpt lat="59.8975304" lon="17.6797795">
        <ele>25.1317</ele>
        <time>2013-05-19T18:02:20Z</time>
      </trkpt>
      <trkpt lat="59.8975779" lon="17.6796569">
        <ele>25.1317</ele>
        <time>2013-05-19T18:02:21Z</time>
      </trkpt>
      <trkpt lat="59.8976246" lon="17.6795334">
        <ele>25.1317</ele>
        <time>2013-05-19T18:02:22Z</time>
      </trkpt>
      <trkpt lat="59.8976713" lon="17.6794095">
        <ele>25.1317</ele>
        <time>2013-05-19T18:02:23Z</time>
      </trkpt>
      <trkpt lat="59.8977182" lon="17.6792857">
        <ele>25.1317</ele>
        <time>2013-05-19T18:02:24Z</time>
      </trkpt>
      <trkpt lat="59.8977643" lon="17.6791606">
        <ele>25.1317</ele>
        <time>2013-05-19T18:02:25Z</time>
      </trkpt>
      <trkpt lat="59.89781" lon="17.6790346">
        <ele>25.1317</ele>
        <time>2013-05-19T18:02:26Z</time>
      </trkpt>
      <trkpt lat="59.8978566" lon="17.6789093">
        <ele>25.1317</ele>
        <time>2013-05-19T18:02:27Z</time>
      </trkpt>
      <trkpt lat="59.8979043" lon="17.6787858">
        <ele>25.1317</ele>
        <time>2013-05-19T18:02:28Z</time>
      </trkpt>
      <trkpt lat="59.8979518" lon="17.6786627">
        <ele>25.1317</ele>
        <time>2013-05-19T18:02:29Z</time>
      </trkpt>
      <trkpt lat="59.8979965" lon="17.6785354">
        <ele>25.1317</ele>
        <time>2013-05-19T18:02:30Z</time>
      </trkpt>
      <trkpt lat="59.8980405" lon="17.6784053">
        <ele>25.1317</ele>
        <time>2013-05-19T18:02:31Z</time>
      </trkpt>
      <trkpt lat="59.8980831" lon="17.6782702">
        <ele>24.651</ele>
        <time>2013-05-19T18:02:32Z</time>
      </trkpt>
      <trkpt lat="59.898123" lon="17.6781312">
        <ele>24.651</ele>
        <time>2013-05-19T18:02:33Z</time>
      </trkpt>
      <trkpt lat="59.8981605" lon="17.6779892">
        <ele>24.651</ele>
        <time>2013-05-19T18:02:34Z</time>
      </trkpt>
      <trkpt lat="59.8981957" lon="17.677844">
        <ele>24.651</ele>
        <time>2013-05-19T18:02:35Z</time>
      </trkpt>
      <trkpt lat="59.8982291" lon="17.6776974">
        <ele>24.651</ele>
        <time>2013-05-19T18:02:36Z</time>
      </trkpt>
      <trkpt lat="59.8982584" lon="17.6775432">
        <ele>24.651</ele>
        <time>2013-05-19T18:02:37Z</time>
      </trkpt>
      <trkpt lat="59.898286" lon="17.6773911">
        <ele>24.651</ele>
        <time>2013-05-19T18:02:38Z</time>
      </trkpt>
      <trkpt lat="59.8983089" lon="17.6772326">
        <ele>23.6896</ele>
        <time>2013-05-19T18:02:39Z</time>
      </trkpt>
      <trkpt lat="59.898328" lon="17.6770745">
        <ele>23.6896</ele>
        <time>2013-05-19T18:02:40Z</time>
      </trkpt>
      <trkpt lat="59.8983442" lon="17.6769151">
        <ele>23.6896</ele>
        <time>2013-05-19T18:02:41Z</time>
      </trkpt>
      <trkpt lat="59.8983601" lon="17.6767567">
        <ele>24.651</ele>
        <time>2013-05-19T18:02:42Z</time>
      </trkpt>
      <trkpt lat="59.898374" lon="17.6765995">
        <ele>25.1317</ele>
        <time>2013-05-19T18:02:43Z</time>
      </trkpt>
      <trkpt lat="59.898386" lon="17.6764433">
        <ele>25.6123</ele>
        <time>2013-05-19T18:02:44Z</time>
      </trkpt>
      <trkpt lat="59.8983967" lon="17.676284">
        <ele>26.0929</ele>
        <time>2013-05-19T18:02:45Z</time>
      </trkpt>
      <trkpt lat="59.8984037" lon="17.6761229">
        <ele>26.5736</ele>
        <time>2013-05-19T18:02:46Z</time>
      </trkpt>
      <trkpt lat="59.8984088" lon="17.6759608">
        <ele>27.0543</ele>
        <time>2013-05-19T18:02:47Z</time>
      </trkpt>
      <trkpt lat="59.8984125" lon="17.6758011">
        <ele>27.5349</ele>
        <time>2013-05-19T18:02:48Z</time>
      </trkpt>
      <trkpt lat="59.8984176" lon="17.6756452">
        <ele>28.4962</ele>
        <time>2013-05-19T18:02:49Z</time>
      </trkpt>
      <trkpt lat="59.8984302" lon="17.6755013">
        <ele>28.9769</ele>
        <time>2013-05-19T18:02:50Z</time>
      </trkpt>
      <trkpt lat="59.8984423" lon="17.6753587">
        <ele>29.4575</ele>
        <time>2013-05-19T18:02:51Z</time>
      </trkpt>
      <trkpt lat="59.8984643" lon="17.6752178">
        <ele>29.4575</ele>
        <time>2013-05-19T18:02:52Z</time>
      </trkpt>
      <trkpt lat="59.8984933" lon="17.675077">
        <ele>29.4575</ele>
        <time>2013-05-19T18:02:53Z</time>
      </trkpt>
      <trkpt lat="59.8985336" lon="17.6749528">
        <ele>29.9381</ele>
        <time>2013-05-19T18:02:54Z</time>
      </trkpt>
      <trkpt lat="59.8985856" lon="17.6748388">
        <ele>29.9381</ele>
        <time>2013-05-19T18:02:55Z</time>
      </trkpt>
      <trkpt lat="59.8986422" lon="17.6747398">
        <ele>30.4188</ele>
        <time>2013-05-19T18:02:56Z</time>
      </trkpt>
      <trkpt lat="59.8986975" lon="17.6746626">
        <ele>30.4188</ele>
        <time>2013-05-19T18:02:57Z</time>
      </trkpt>
      <trkpt lat="59.8987502" lon="17.6745876">
        <ele>31.8607</ele>
        <time>2013-05-19T18:02:58Z</time>
      </trkpt>
      <trkpt lat="59.8988082" lon="17.6745228">
        <ele>32.3416</ele>
        <time>2013-05-19T18:02:59Z</time>
      </trkpt>
      <trkpt lat="59.8988617" lon="17.6744571">
        <ele>32.3416</ele>
        <time>2013-05-19T18:03:00Z</time>
      </trkpt>
      <trkpt lat="59.8989144" lon="17.6743912">
        <ele>32.3416</ele>
        <time>2013-05-19T18:03:01Z</time>
      </trkpt>
      <trkpt lat="59.8989629" lon="17.6743077">
        <ele>32.8223</ele>
        <time>2013-05-19T18:03:02Z</time>
      </trkpt>
      <trkpt lat="59.8990077" lon="17.6742113">
        <ele>33.7834</ele>
        <time>2013-05-19T18:03:03Z</time>
      </trkpt>
      <trkpt lat="59.8990501" lon="17.6741089">
        <ele>34.7449</ele>
        <time>2013-05-19T18:03:04Z</time>
      </trkpt>
      <trkpt lat="59.8990875" lon="17.6739927">
        <ele>36.1868</ele>
        <time>2013-05-19T18:03:05Z</time>
      </trkpt>
      <trkpt lat="59.8991175" lon="17.6738566">
        <ele>36.6675</ele>
        <time>2013-05-19T18:03:06Z</time>
      </trkpt>
      <trkpt lat="59.8991393" lon="17.6737151">
        <ele>37.1481</ele>
        <time>2013-05-19T18:03:07Z</time>
      </trkpt>
      <trkpt lat="59.8991582" lon="17.6735873">
        <ele>37.1481</ele>
        <time>2013-05-19T18:03:08Z</time>
      </trkpt>
      <trkpt lat="59.8991678" lon="17.6734656">
        <ele>37.6287</ele>
        <time>2013-05-19T18:03:09Z</time>
      </trkpt>
      <trkpt lat="59.8991759" lon="17.6733594">
        <ele>38.1094</ele>
        <time>2013-05-19T18:03:10Z</time>
      </trkpt>
      <trkpt lat="59.8991807" lon="17.6732479">
        <ele>38.5901</ele>
        <time>2013-05-19T18:03:11Z</time>
      </trkpt>
      <trkpt lat="59.8991865" lon="17.6731381">
        <ele>38.5901</ele>
        <time>2013-05-19T18:03:12Z</time>
      </trkpt>
      <trkpt lat="59.8991973" lon="17.6730336">
        <ele>38.5901</ele>
        <time>2013-05-19T18:03:13Z</time>
      </trkpt>
      <trkpt lat="59.8992131" lon="17.6729049">
        <ele>38.1094</ele>
        <time>2013-05-19T18:03:14Z</time>
      </trkpt>
      <trkpt lat="59.8992354" lon="17.6727898">
        <ele>38.5901</ele>
        <time>2013-05-19T18:03:15Z</time>
      </trkpt>
      <trkpt lat="59.8992625" lon="17.6726844">
        <ele>39.0707</ele>
        <time>2013-05-19T18:03:16Z</time>
      </trkpt>
      <trkpt lat="59.8992901" lon="17.6725745">
        <ele>38.1094</ele>
        <time>2013-05-19T18:03:17Z</time>
      </trkpt>
      <trkpt lat="59.8993085" lon="17.6724522">
        <ele>38.5901</ele>
        <time>2013-05-19T18:03:18Z</time>
      </trkpt>
      <trkpt lat="59.8993262" lon="17.6723306">
        <ele>38.1094</ele>
        <time>2013-05-19T18:03:19Z</time>
      </trkpt>
      <trkpt lat="59.8993392" lon="17.6721939">
        <ele>38.1094</ele>
        <time>2013-05-19T18:03:20Z</time>
      </trkpt>
      <trkpt lat="59.8993412" lon="17.6720392">
        <ele>37.6287</ele>
        <time>2013-05-19T18:03:21Z</time>
      </trkpt>
      <trkpt lat="59.8993475" lon="17.6718808">
        <ele>37.1481</ele>
        <time>2013-05-19T18:03:22Z</time>
      </trkpt>
      <trkpt lat="59.8993511" lon="17.6717228">
        <ele>36.6675</ele>
        <time>2013-05-19T18:03:23Z</time>
      </trkpt>
      <trkpt lat="59.8993526" lon="17.6715623">
        <ele>36.1868</ele>
        <time>2013-05-19T18:03:24Z</time>
      </trkpt>
      <trkpt lat="59.8993511" lon="17.6713992">
        <ele>35.7061</ele>
        <time>2013-05-19T18:03:25Z</time>
      </trkpt>
      <trkpt lat="59.899349" lon="17.6712373">
        <ele>33.7834</ele>
        <time>2013-05-19T18:03:26Z</time>
      </trkpt>
      <trkpt lat="59.8993438" lon="17.6710747">
        <ele>33.3029</ele>
        <time>2013-05-19T18:03:27Z</time>
      </trkpt>
      <trkpt lat="59.8993443" lon="17.6709154">
        <ele>33.3029</ele>
        <time>2013-05-19T18:03:28Z</time>
      </trkpt>
      <trkpt lat="59.8993486" lon="17.6707623">
        <ele>33.7834</ele>
        <time>2013-05-19T18:03:29Z</time>
      </trkpt>
      <trkpt lat="59.8993598" lon="17.6706116">
        <ele>34.2642</ele>
        <time>2013-05-19T18:03:30Z</time>
      </trkpt>
      <trkpt lat="59.899381" lon="17.6704695">
        <ele>34.2642</ele>
        <time>2013-05-19T18:03:31Z</time>
      </trkpt>
      <trkpt lat="59.8994174" lon="17.6703368">
        <ele>32.3416</ele>
        <time>2013-05-19T18:03:32Z</time>
      </trkpt>
      <trkpt lat="59.8994605" lon="17.6702325">
        <ele>32.8223</ele>
        <time>2013-05-19T18:03:33Z</time>
      </trkpt>
      <trkpt lat="59.8995219" lon="17.6701968">
        <ele>32.3416</ele>
        <time>2013-05-19T18:03:34Z</time>
      </trkpt>
      <trkpt lat="59.899584" lon="17.6701684">
        <ele>32.3416</ele>
        <time>2013-05-19T18:03:35Z</time>
      </trkpt>
      <trkpt lat="59.8996444" lon="17.6701326">
        <ele>31.8607</ele>
        <time>2013-05-19T18:03:36Z</time>
      </trkpt>
      <trkpt lat="59.8997064" lon="17.6701013">
        <ele>32.3416</ele>
        <time>2013-05-19T18:03:37Z</time>
      </trkpt>
      <trkpt lat="59.8997659" lon="17.6700675">
        <ele>32.3416</ele>
        <time>2013-05-19T18:03:38Z</time>
      </trkpt>
      <trkpt lat="59.8998277" lon="17.6700371">
        <ele>32.3416</ele>
        <time>2013-05-19T18:03:39Z</time>
      </trkpt>
      <trkpt lat="59.8998928" lon="17.6700087">
        <ele>32.3416</ele>
        <time>2013-05-19T18:03:40Z</time>
      </trkpt>
      <trkpt lat="59.8999541" lon="17.6699766">
        <ele>32.3416</ele>
        <time>2013-05-19T18:03:41Z</time>
      </trkpt>
      <trkpt lat="59.9000235" lon="17.6699664">
        <ele>33.3029</ele>
        <time>2013-05-19T18:03:42Z</time>
      </trkpt>
      <trkpt lat="59.9000929" lon="17.6699513">
        <ele>34.2642</ele>
        <time>2013-05-19T18:03:43Z</time>
      </trkpt>
      <trkpt lat="59.9001637" lon="17.6699186">
        <ele>35.2255</ele>
        <time>2013-05-19T18:03:44Z</time>
      </trkpt>
      <trkpt lat="59.9002353" lon="17.6698834">
        <ele>35.7061</ele>
        <time>2013-05-19T18:03:45Z</time>
      </trkpt>
      <trkpt lat="59.9003187" lon="17.6698576">
        <ele>35.7061</ele>
        <time>2013-05-19T18:03:46Z</time>
      </trkpt>
      <trkpt lat="59.9004032" lon="17.6698349">
        <ele>35.7061</ele>
        <time>2013-05-19T18:03:47Z</time>
      </trkpt>
      <trkpt lat="59.9004818" lon="17.6698053">
        <ele>35.7061</ele>
        <time>2013-05-19T18:03:48Z</time>
      </trkpt>
      <trkpt lat="59.9005649" lon="17.6697704">
        <ele>36.6675</ele>
        <time>2013-05-19T18:03:49Z</time>
      </trkpt>
      <trkpt lat="59.9006429" lon="17.6697445">
        <ele>37.1481</ele>
        <time>2013-05-19T18:03:50Z</time>
      </trkpt>
      <trkpt lat="59.9007109" lon="17.6697354">
        <ele>37.1481</ele>
        <time>2013-05-19T18:03:51Z</time>
      </trkpt>
      <trkpt lat="59.9007855" lon="17.66974">
        <ele>37.1481</ele>
        <time>2013-05-19T18:03:52Z</time>
      </trkpt>
      <trkpt lat="59.9008746" lon="17.6697297">
        <ele>37.6287</ele>
        <time>2013-05-19T18:03:53Z</time>
      </trkpt>
      <trkpt lat="59.9009446" lon="17.6697118">
        <ele>38.1094</ele>
        <time>2013-05-19T18:03:54Z</time>
      </trkpt>
      <trkpt lat="59.9010094" lon="17.669687">
        <ele>38.5901</ele>
        <time>2013-05-19T18:03:55Z</time>
      </trkpt>
      <trkpt lat="59.9010771" lon="17.6696821">
        <ele>37.6287</ele>
        <time>2013-05-19T18:03:56Z</time>
      </trkpt>
      <trkpt lat="59.9011432" lon="17.6696512">
        <ele>37.1481</ele>
        <time>2013-05-19T18:03:57Z</time>
      </trkpt>
      <trkpt lat="59.9012113" lon="17.6696359">
        <ele>37.6287</ele>
        <time>2013-05-19T18:03:58Z</time>
      </trkpt>
      <trkpt lat="59.9012879" lon="17.6696239">
        <ele>38.5901</ele>
        <time>2013-05-19T18:03:59Z</time>
      </trkpt>
      <trkpt lat="59.9013685" lon="17.6696084">
        <ele>38.1094</ele>
        <time>2013-05-19T18:04:00Z</time>
      </trkpt>
      <trkpt lat="59.9014505" lon="17.6696059">
        <ele>38.5901</ele>
        <time>2013-05-19T18:04:01Z</time>
      </trkpt>
      <trkpt lat="59.9015353" lon="17.6696111">
        <ele>38.5901</ele>
        <time>2013-05-19T18:04:02Z</time>
      </trkpt>
      <trkpt lat="59.9016163" lon="17.6696038">
        <ele>39.5513</ele>
        <time>2013-05-19T18:04:03Z</time>
      </trkpt>
      <trkpt lat="59.9016957" lon="17.6696316">
        <ele>39.5513</ele>
        <time>2013-05-19T18:04:04Z</time>
      </trkpt>
      <trkpt lat="59.9017698" lon="17.669687">
        <ele>39.5513</ele>
        <time>2013-05-19T18:04:05Z</time>
      </trkpt>
      <trkpt lat="59.9018459" lon="17.6697285">
        <ele>39.5513</ele>
        <time>2013-05-19T18:04:06Z</time>
      </trkpt>
      <trkpt lat="59.901924" lon="17.6697711">
        <ele>40.5128</ele>
        <time>2013-05-19T18:04:07Z</time>
      </trkpt>
      <trkpt lat="59.9020028" lon="17.6698197">
        <ele>41.474</ele>
        <time>2013-05-19T18:04:08Z</time>
      </trkpt>
      <trkpt lat="59.9020717" lon="17.6698776">
        <ele>41.474</ele>
        <time>2013-05-19T18:04:09Z</time>
      </trkpt>
      <trkpt lat="59.9021389" lon="17.6699321">
        <ele>40.9934</ele>
        <time>2013-05-19T18:04:10Z</time>
      </trkpt>
      <trkpt lat="59.9022099" lon="17.6699617">
        <ele>40.9934</ele>
        <time>2013-05-19T18:04:11Z</time>
      </trkpt>
      <trkpt lat="59.9022814" lon="17.6699758">
        <ele>40.5128</ele>
        <time>2013-05-19T18:04:12Z</time>
      </trkpt>
      <trkpt lat="59.902358" lon="17.6699777">
        <ele>40.5128</ele>
        <time>2013-05-19T18:04:13Z</time>
      </trkpt>
      <trkpt lat="59.9024327" lon="17.6699648">
        <ele>40.0321</ele>
        <time>2013-05-19T18:04:14Z</time>
      </trkpt>
      <trkpt lat="59.9025085" lon="17.6699411">
        <ele>40.0321</ele>
        <time>2013-05-19T18:04:15Z</time>
      </trkpt>
      <trkpt lat="59.902583" lon="17.6699119">
        <ele>40.0321</ele>
        <time>2013-05-19T18:04:16Z</time>
      </trkpt>
      <trkpt lat="59.9026555" lon="17.6698798">
        <ele>39.5513</ele>
        <time>2013-05-19T18:04:17Z</time>
      </trkpt>
      <trkpt lat="59.9027233" lon="17.669857">
        <ele>39.0707</ele>
        <time>2013-05-19T18:04:18Z</time>
      </trkpt>
      <trkpt lat="59.9027907" lon="17.6698307">
        <ele>39.5513</ele>
        <time>2013-05-19T18:04:19Z</time>
      </trkpt>
      <trkpt lat="59.9028569" lon="17.6698072">
        <ele>39.5513</ele>
        <time>2013-05-19T18:04:20Z</time>
      </trkpt>
      <trkpt lat="59.9029186" lon="17.669803">
        <ele>39.5513</ele>
        <time>2013-05-19T18:04:21Z</time>
      </trkpt>
      <trkpt lat="59.902978" lon="17.6698187">
        <ele>39.0707</ele>
        <time>2013-05-19T18:04:22Z</time>
      </trkpt>
      <trkpt lat="59.9030382" lon="17.6698634">
        <ele>38.1094</ele>
        <time>2013-05-19T18:04:23Z</time>
      </trkpt>
      <trkpt lat="59.9031047" lon="17.6699141">
        <ele>37.6287</ele>
        <time>2013-05-19T18:04:24Z</time>
      </trkpt>
      <trkpt lat="59.9031657" lon="17.6699503">
        <ele>38.5901</ele>
        <time>2013-05-19T18:04:25Z</time>
      </trkpt>
      <trkpt lat="59.9032371" lon="17.6699688">
        <ele>38.5901</ele>
        <time>2013-05-19T18:04:26Z</time>
      </trkpt>
      <trkpt lat="59.9033134" lon="17.6699709">
        <ele>38.5901</ele>
        <time>2013-05-19T18:04:27Z</time>
      </trkpt>
      <trkpt lat="59.9033916" lon="17.6699089">
        <ele>39.0707</ele>
        <time>2013-05-19T18:04:28Z</time>
      </trkpt>
      <trkpt lat="59.9034516" lon="17.6697893">
        <ele>39.5513</ele>
        <time>2013-05-19T18:04:29Z</time>
      </trkpt>
      <trkpt lat="59.9034966" lon="17.6696591">
        <ele>39.5513</ele>
        <time>2013-05-19T18:04:30Z</time>
      </trkpt>
      <trkpt lat="59.9035281" lon="17.6695121">
        <ele>39.5513</ele>
        <time>2013-05-19T18:04:31Z</time>
      </trkpt>
      <trkpt lat="59.903549" lon="17.6693618">
        <ele>39.5513</ele>
        <time>2013-05-19T18:04:32Z</time>
      </trkpt>
      <trkpt lat="59.9035755" lon="17.6692309">
        <ele>40.0321</ele>
        <time>2013-05-19T18:04:33Z</time>
      </trkpt>
      <trkpt lat="59.9036091" lon="17.6691091">
        <ele>40.5128</ele>
        <time>2013-05-19T18:04:34Z</time>
      </trkpt>
      <trkpt lat="59.9036533" lon="17.6689832">
        <ele>40.9934</ele>
        <time>2013-05-19T18:04:35Z</time>
      </trkpt>
      <trkpt lat="59.9036982" lon="17.6688449">
        <ele>40.0321</ele>
        <time>2013-05-19T18:04:36Z</time>
      </trkpt>
      <trkpt lat="59.9037439" lon="17.6687317">
        <ele>39.5513</ele>
        <time>2013-05-19T18:04:37Z</time>
      </trkpt>
      <trkpt lat="59.9037887" lon="17.6686107">
        <ele>39.5513</ele>
        <time>2013-05-19T18:04:38Z</time>
      </trkpt>
      <trkpt lat="59.9038327" lon="17.6685028">
        <ele>39.5513</ele>
        <time>2013-05-19T18:04:39Z</time>
      </trkpt>
      <trkpt lat="59.903882" lon="17.6683993">
        <ele>39.5513</ele>
        <time>2013-05-19T18:04:40Z</time>
      </trkpt>
      <trkpt lat="59.9039344" lon="17.6683082">
        <ele>39.5513</ele>
        <time>2013-05-19T18:04:41Z</time>
      </trkpt>
      <trkpt lat="59.9039923" lon="17.6682313">
        <ele>40.0321</ele>
        <time>2013-05-19T18:04:42Z</time>
      </trkpt>
      <trkpt lat="59.9040426" lon="17.6681446">
        <ele>39.5513</ele>
        <time>2013-05-19T18:04:43Z</time>
      </trkpt>
      <trkpt lat="59.9041016" lon="17.6680764">
        <ele>38.5901</ele>
        <time>2013-05-19T18:04:44Z</time>
      </trkpt>
      <trkpt lat="59.9041676" lon="17.668021">
        <ele>38.5901</ele>
        <time>2013-05-19T18:04:45Z</time>
      </trkpt>
      <trkpt lat="59.9042307" lon="17.6679819">
        <ele>38.1094</ele>
        <time>2013-05-19T18:04:46Z</time>
      </trkpt>
      <trkpt lat="59.9042968" lon="17.6679556">
        <ele>37.1481</ele>
        <time>2013-05-19T18:04:47Z</time>
      </trkpt>
      <trkpt lat="59.9043647" lon="17.6679358">
        <ele>37.1481</ele>
        <time>2013-05-19T18:04:48Z</time>
      </trkpt>
      <trkpt lat="59.9044353" lon="17.6679187">
        <ele>36.1868</ele>
        <time>2013-05-19T18:04:49Z</time>
      </trkpt>
      <trkpt lat="59.9045074" lon="17.6679037">
        <ele>35.7061</ele>
        <time>2013-05-19T18:04:50Z</time>
      </trkpt>
      <trkpt lat="59.9045836" lon="17.6678974">
        <ele>35.7061</ele>
        <time>2013-05-19T18:04:51Z</time>
      </trkpt>
      <trkpt lat="59.9046607" lon="17.667892">
        <ele>35.2255</ele>
        <time>2013-05-19T18:04:52Z</time>
      </trkpt>
      <trkpt lat="59.9047425" lon="17.6678917">
        <ele>35.2255</ele>
        <time>2013-05-19T18:04:53Z</time>
      </trkpt>
      <trkpt lat="59.9048289" lon="17.6679148">
        <ele>36.1868</ele>
        <time>2013-05-19T18:04:54Z</time>
      </trkpt>
      <trkpt lat="59.9049179" lon="17.6679526">
        <ele>36.6675</ele>
        <time>2013-05-19T18:04:55Z</time>
      </trkpt>
      <trkpt lat="59.9050071" lon="17.6680104">
        <ele>36.1868</ele>
        <time>2013-05-19T18:04:56Z</time>
      </trkpt>
      <trkpt lat="59.9050996" lon="17.6680622">
        <ele>35.7061</ele>
        <time>2013-05-19T18:04:57Z</time>
      </trkpt>
      <trkpt lat="59.9051932" lon="17.6681128">
        <ele>35.7061</ele>
        <time>2013-05-19T18:04:58Z</time>
      </trkpt>
      <trkpt lat="59.9052868" lon="17.6681611">
        <ele>35.7061</ele>
        <time>2013-05-19T18:04:59Z</time>
      </trkpt>
      <trkpt lat="59.9053806" lon="17.668208">
        <ele>35.7061</ele>
        <time>2013-05-19T18:05:00Z</time>
      </trkpt>
      <trkpt lat="59.9054724" lon="17.6682542">
        <ele>35.2255</ele>
        <time>2013-05-19T18:05:01Z</time>
      </trkpt>
      <trkpt lat="59.9055646" lon="17.6683041">
        <ele>35.2255</ele>
        <time>2013-05-19T18:05:02Z</time>
      </trkpt>
      <trkpt lat="59.9056566" lon="17.6683419">
        <ele>35.7061</ele>
        <time>2013-05-19T18:05:03Z</time>
      </trkpt>
      <trkpt lat="59.9057454" lon="17.6683814">
        <ele>35.7061</ele>
        <time>2013-05-19T18:05:04Z</time>
      </trkpt>
      <trkpt lat="59.9058298" lon="17.6684206">
        <ele>35.7061</ele>
        <time>2013-05-19T18:05:05Z</time>
      </trkpt>
      <trkpt lat="59.905907" lon="17.6684668">
        <ele>35.2255</ele>
        <time>2013-05-19T18:05:06Z</time>
      </trkpt>
      <trkpt lat="59.9059902" lon="17.6685008">
        <ele>35.2255</ele>
        <time>2013-05-19T18:05:07Z</time>
      </trkpt>
      <trkpt lat="59.9060723" lon="17.6685282">
        <ele>35.7061</ele>
        <time>2013-05-19T18:05:08Z</time>
      </trkpt>
      <trkpt lat="59.9061513" lon="17.6685458">
        <ele>36.6675</ele>
        <time>2013-05-19T18:05:09Z</time>
      </trkpt>
      <trkpt lat="59.9062226" lon="17.6685698">
        <ele>36.6675</ele>
        <time>2013-05-19T18:05:10Z</time>
      </trkpt>
      <trkpt lat="59.9062923" lon="17.6685872">
        <ele>37.1481</ele>
        <time>2013-05-19T18:05:11Z</time>
      </trkpt>
      <trkpt lat="59.9063628" lon="17.6685983">
        <ele>37.6287</ele>
        <time>2013-05-19T18:05:12Z</time>
      </trkpt>
      <trkpt lat="59.9064326" lon="17.6686004">
        <ele>38.1094</ele>
        <time>2013-05-19T18:05:13Z</time>
      </trkpt>
      <trkpt lat="59.9065038" lon="17.6685952">
        <ele>38.1094</ele>
        <time>2013-05-19T18:05:14Z</time>
      </trkpt>
      <trkpt lat="59.9065748" lon="17.6685827">
        <ele>38.5901</ele>
        <time>2013-05-19T18:05:15Z</time>
      </trkpt>
      <trkpt lat="59.9066455" lon="17.6685663">
        <ele>38.5901</ele>
        <time>2013-05-19T18:05:16Z</time>
      </trkpt>
      <trkpt lat="59.9067155" lon="17.6685455">
        <ele>39.0707</ele>
        <time>2013-05-19T18:05:17Z</time>
      </trkpt>
      <trkpt lat="59.9067874" lon="17.6685247">
        <ele>39.0707</ele>
        <time>2013-05-19T18:05:18Z</time>
      </trkpt>
      <trkpt lat="59.9068594" lon="17.6684937">
        <ele>38.5901</ele>
        <time>2013-05-19T18:05:19Z</time>
      </trkpt>
      <trkpt lat="59.9069302" lon="17.6684625">
        <ele>38.5901</ele>
        <time>2013-05-19T18:05:20Z</time>
      </trkpt>
      <trkpt lat="59.9070074" lon="17.6684315">
        <ele>38.5901</ele>
        <time>2013-05-19T18:05:21Z</time>
      </trkpt>
      <trkpt lat="59.907083" lon="17.6684046">
        <ele>39.0707</ele>
        <time>2013-05-19T18:05:22Z</time>
      </trkpt>
      <trkpt lat="59.90716" lon="17.6683791">
        <ele>39.0707</ele>
        <time>2013-05-19T18:05:23Z</time>
      </trkpt>
      <trkpt lat="59.9072358" lon="17.6683537">
        <ele>39.5513</ele>
        <time>2013-05-19T18:05:24Z</time>
      </trkpt>
      <trkpt lat="59.9073132" lon="17.6683239">
        <ele>40.5128</ele>
        <time>2013-05-19T18:05:25Z</time>
      </trkpt>
      <trkpt lat="59.9073928" lon="17.6682906">
        <ele>41.474</ele>
        <time>2013-05-19T18:05:26Z</time>
      </trkpt>
      <trkpt lat="59.9074746" lon="17.6682392">
        <ele>40.9934</ele>
        <time>2013-05-19T18:05:27Z</time>
      </trkpt>
      <trkpt lat="59.9075492" lon="17.6681693">
        <ele>40.5128</ele>
        <time>2013-05-19T18:05:28Z</time>
      </trkpt>
      <trkpt lat="59.9076113" lon="17.6680787">
        <ele>40.5128</ele>
        <time>2013-05-19T18:05:29Z</time>
      </trkpt>
      <trkpt lat="59.9076621" lon="17.667972">
        <ele>40.9934</ele>
        <time>2013-05-19T18:05:30Z</time>
      </trkpt>
      <trkpt lat="59.9076919" lon="17.6678212">
        <ele>40.9934</ele>
        <time>2013-05-19T18:05:31Z</time>
      </trkpt>
      <trkpt lat="59.9077147" lon="17.6676648">
        <ele>40.9934</ele>
        <time>2013-05-19T18:05:32Z</time>
      </trkpt>
      <trkpt lat="59.9077328" lon="17.6674913">
        <ele>40.9934</ele>
        <time>2013-05-19T18:05:33Z</time>
      </trkpt>
      <trkpt lat="59.9077521" lon="17.6673269">
        <ele>40.9934</ele>
        <time>2013-05-19T18:05:34Z</time>
      </trkpt>
      <trkpt lat="59.9077676" lon="17.6671663">
        <ele>40.9934</ele>
        <time>2013-05-19T18:05:35Z</time>
      </trkpt>
      <trkpt lat="59.9077816" lon="17.667008">
        <ele>40.9934</ele>
        <time>2013-05-19T18:05:36Z</time>
      </trkpt>
      <trkpt lat="59.9077956" lon="17.6668537">
        <ele>40.5128</ele>
        <time>2013-05-19T18:05:37Z</time>
      </trkpt>
      <trkpt lat="59.9078014" lon="17.6667008">
        <ele>40.0321</ele>
        <time>2013-05-19T18:05:38Z</time>
      </trkpt>
      <trkpt lat="59.9078071" lon="17.6665481">
        <ele>39.5513</ele>
        <time>2013-05-19T18:05:39Z</time>
      </trkpt>
      <trkpt lat="59.9078217" lon="17.6664025">
        <ele>40.0321</ele>
        <time>2013-05-19T18:05:40Z</time>
      </trkpt>
      <trkpt lat="59.907829" lon="17.6662399">
        <ele>39.5513</ele>
        <time>2013-05-19T18:05:41Z</time>
      </trkpt>
      <trkpt lat="59.9078369" lon="17.6660803">
        <ele>39.5513</ele>
        <time>2013-05-19T18:05:42Z</time>
      </trkpt>
      <trkpt lat="59.9078481" lon="17.6659285">
        <ele>39.5513</ele>
        <time>2013-05-19T18:05:43Z</time>
      </trkpt>
      <trkpt lat="59.9078651" lon="17.6657725">
        <ele>39.0707</ele>
        <time>2013-05-19T18:05:44Z</time>
      </trkpt>
      <trkpt lat="59.9078921" lon="17.6656369">
        <ele>38.5901</ele>
        <time>2013-05-19T18:05:45Z</time>
      </trkpt>
      <trkpt lat="59.9079107" lon="17.6654947">
        <ele>38.1094</ele>
        <time>2013-05-19T18:05:46Z</time>
      </trkpt>
      <trkpt lat="59.9079343" lon="17.6653443">
        <ele>37.1481</ele>
        <time>2013-05-19T18:05:47Z</time>
      </trkpt>
      <trkpt lat="59.9079616" lon="17.6651914">
        <ele>35.7061</ele>
        <time>2013-05-19T18:05:48Z</time>
      </trkpt>
      <trkpt lat="59.9079791" lon="17.6650442">
        <ele>35.2255</ele>
        <time>2013-05-19T18:05:49Z</time>
      </trkpt>
      <trkpt lat="59.9079936" lon="17.6648848">
        <ele>34.7449</ele>
        <time>2013-05-19T18:05:50Z</time>
      </trkpt>
      <trkpt lat="59.908006" lon="17.6647262">
        <ele>34.2642</ele>
        <time>2013-05-19T18:05:51Z</time>
      </trkpt>
      <trkpt lat="59.9080179" lon="17.6645656">
        <ele>32.8223</ele>
        <time>2013-05-19T18:05:52Z</time>
      </trkpt>
      <trkpt lat="59.908025" lon="17.6644009">
        <ele>31.8607</ele>
        <time>2013-05-19T18:05:53Z</time>
      </trkpt>
      <trkpt lat="59.9080241" lon="17.6642372">
        <ele>30.8995</ele>
        <time>2013-05-19T18:05:54Z</time>
      </trkpt>
      <trkpt lat="59.9080185" lon="17.6640743">
        <ele>29.9381</ele>
        <time>2013-05-19T18:05:55Z</time>
      </trkpt>
      <trkpt lat="59.9080089" lon="17.6639093">
        <ele>28.9769</ele>
        <time>2013-05-19T18:05:56Z</time>
      </trkpt>
      <trkpt lat="59.9079893" lon="17.6637414">
        <ele>28.4962</ele>
        <time>2013-05-19T18:05:57Z</time>
      </trkpt>
      <trkpt lat="59.9079669" lon="17.6635799">
        <ele>27.5349</ele>
        <time>2013-05-19T18:05:58Z</time>
      </trkpt>
      <trkpt lat="59.907946" lon="17.6634203">
        <ele>26.5736</ele>
        <time>2013-05-19T18:05:59Z</time>
      </trkpt>
      <trkpt lat="59.9079267" lon="17.6632597">
        <ele>26.0929</ele>
        <time>2013-05-19T18:06:00Z</time>
      </trkpt>
      <trkpt lat="59.9078998" lon="17.6631001">
        <ele>25.1317</ele>
        <time>2013-05-19T18:06:01Z</time>
      </trkpt>
      <trkpt lat="59.9078721" lon="17.6629374">
        <ele>24.651</ele>
        <time>2013-05-19T18:06:02Z</time>
      </trkpt>
      <trkpt lat="59.9078469" lon="17.6627712">
        <ele>24.1703</ele>
        <time>2013-05-19T18:06:03Z</time>
      </trkpt>
      <trkpt lat="59.9078214" lon="17.662604">
        <ele>24.1703</ele>
        <time>2013-05-19T18:06:04Z</time>
      </trkpt>
      <trkpt lat="59.9077966" lon="17.6624349">
        <ele>23.6896</ele>
        <time>2013-05-19T18:06:05Z</time>
      </trkpt>
      <trkpt lat="59.9077772" lon="17.6622611">
        <ele>24.1703</ele>
        <time>2013-05-19T18:06:06Z</time>
      </trkpt>
      <trkpt lat="59.9077646" lon="17.6620865">
        <ele>24.651</ele>
        <time>2013-05-19T18:06:07Z</time>
      </trkpt>
      <trkpt lat="59.9077546" lon="17.6619128">
        <ele>25.1317</ele>
        <time>2013-05-19T18:06:08Z</time>
      </trkpt>
      <trkpt lat="59.9077377" lon="17.6617314">
        <ele>25.6123</ele>
        <time>2013-05-19T18:06:09Z</time>
      </trkpt>
      <trkpt lat="59.9077255" lon="17.6615626">
        <ele>26.0929</ele>
        <time>2013-05-19T18:06:10Z</time>
      </trkpt>
      <trkpt lat="59.9077126" lon="17.6613985">
        <ele>26.5736</ele>
        <time>2013-05-19T18:06:11Z</time>
      </trkpt>
      <trkpt lat="59.9076987" lon="17.6612396">
        <ele>27.0543</ele>
        <time>2013-05-19T18:06:12Z</time>
      </trkpt>
      <trkpt lat="59.9076853" lon="17.6610841">
        <ele>27.5349</ele>
        <time>2013-05-19T18:06:13Z</time>
      </trkpt>
      <trkpt lat="59.9076691" lon="17.6609303">
        <ele>27.5349</ele>
        <time>2013-05-19T18:06:14Z</time>
      </trkpt>
      <trkpt lat="59.907649" lon="17.6607758">
        <ele>27.5349</ele>
        <time>2013-05-19T18:06:15Z</time>
      </trkpt>
      <trkpt lat="59.9076293" lon="17.6606193">
        <ele>27.5349</ele>
        <time>2013-05-19T18:06:16Z</time>
      </trkpt>
      <trkpt lat="59.9076046" lon="17.6604604">
        <ele>27.5349</ele>
        <time>2013-05-19T18:06:17Z</time>
      </trkpt>
      <trkpt lat="59.907574" lon="17.6602998">
        <ele>27.5349</ele>
        <time>2013-05-19T18:06:18Z</time>
      </trkpt>
      <trkpt lat="59.9075412" lon="17.6601379">
        <ele>27.0543</ele>
        <time>2013-05-19T18:06:19Z</time>
      </trkpt>
      <trkpt lat="59.9075116" lon="17.6599729">
        <ele>27.0543</ele>
        <time>2013-05-19T18:06:20Z</time>
      </trkpt>
      <trkpt lat="59.907488" lon="17.6598044">
        <ele>27.0543</ele>
        <time>2013-05-19T18:06:21Z</time>
      </trkpt>
      <trkpt lat="59.9074693" lon="17.6596344">
        <ele>27.0543</ele>
        <time>2013-05-19T18:06:22Z</time>
      </trkpt>
      <trkpt lat="59.9074517" lon="17.6594642">
        <ele>27.0543</ele>
        <time>2013-05-19T18:06:23Z</time>
      </trkpt>
      <trkpt lat="59.9074346" lon="17.6592964">
        <ele>27.0543</ele>
        <time>2013-05-19T18:06:24Z</time>
      </trkpt>
      <trkpt lat="59.9074185" lon="17.6591316">
        <ele>27.0543</ele>
        <time>2013-05-19T18:06:25Z</time>
      </trkpt>
      <trkpt lat="59.9074015" lon="17.6589716">
        <ele>27.5349</ele>
        <time>2013-05-19T18:06:26Z</time>
      </trkpt>
      <trkpt lat="59.9073839" lon="17.6588119">
        <ele>27.5349</ele>
        <time>2013-05-19T18:06:27Z</time>
      </trkpt>
      <trkpt lat="59.9073647" lon="17.658652">
        <ele>27.0543</ele>
        <time>2013-05-19T18:06:28Z</time>
      </trkpt>
      <trkpt lat="59.9073461" lon="17.6584857">
        <ele>27.0543</ele>
        <time>2013-05-19T18:06:29Z</time>
      </trkpt>
      <trkpt lat="59.9073232" lon="17.658312">
        <ele>27.0543</ele>
        <time>2013-05-19T18:06:30Z</time>
      </trkpt>
      <trkpt lat="59.9073006" lon="17.658139">
        <ele>27.0543</ele>
        <time>2013-05-19T18:06:31Z</time>
      </trkpt>
      <trkpt lat="59.9072759" lon="17.6579646">
        <ele>26.5736</ele>
        <time>2013-05-19T18:06:32Z</time>
      </trkpt>
      <trkpt lat="59.9072486" lon="17.6577911">
        <ele>26.5736</ele>
        <time>2013-05-19T18:06:33Z</time>
      </trkpt>
      <trkpt lat="59.9072187" lon="17.6576175">
        <ele>26.5736</ele>
        <time>2013-05-19T18:06:34Z</time>
      </trkpt>
      <trkpt lat="59.9071896" lon="17.6574435">
        <ele>26.5736</ele>
        <time>2013-05-19T18:06:35Z</time>
      </trkpt>
      <trkpt lat="59.9071615" lon="17.6572678">
        <ele>26.5736</ele>
        <time>2013-05-19T18:06:36Z</time>
      </trkpt>
      <trkpt lat="59.9071347" lon="17.6570916">
        <ele>26.5736</ele>
        <time>2013-05-19T18:06:37Z</time>
      </trkpt>
      <trkpt lat="59.9071117" lon="17.6569146">
        <ele>26.5736</ele>
        <time>2013-05-19T18:06:38Z</time>
      </trkpt>
      <trkpt lat="59.9070948" lon="17.6567369">
        <ele>26.5736</ele>
        <time>2013-05-19T18:06:39Z</time>
      </trkpt>
      <trkpt lat="59.9070829" lon="17.6565573">
        <ele>26.5736</ele>
        <time>2013-05-19T18:06:40Z</time>
      </trkpt>
      <trkpt lat="59.9070741" lon="17.6563758">
        <ele>26.5736</ele>
        <time>2013-05-19T18:06:41Z</time>
      </trkpt>
      <trkpt lat="59.9070684" lon="17.6561923">
        <ele>26.0929</ele>
        <time>2013-05-19T18:06:42Z</time>
      </trkpt>
      <trkpt lat="59.9070648" lon="17.6560053">
        <ele>26.0929</ele>
        <time>2013-05-19T18:06:43Z</time>
      </trkpt>
      <trkpt lat="59.9070617" lon="17.6558159">
        <ele>25.6123</ele>
        <time>2013-05-19T18:06:44Z</time>
      </trkpt>
      <trkpt lat="59.9070599" lon="17.6556256">
        <ele>25.6123</ele>
        <time>2013-05-19T18:06:45Z</time>
      </trkpt>
      <trkpt lat="59.9070596" lon="17.6554342">
        <ele>25.6123</ele>
        <time>2013-05-19T18:06:46Z</time>
      </trkpt>
      <trkpt lat="59.9070597" lon="17.6552409">
        <ele>25.6123</ele>
        <time>2013-05-19T18:06:47Z</time>
      </trkpt>
      <trkpt lat="59.9070595" lon="17.6550445">
        <ele>25.1317</ele>
        <time>2013-05-19T18:06:48Z</time>
      </trkpt>
      <trkpt lat="59.9070601" lon="17.6548467">
        <ele>25.1317</ele>
        <time>2013-05-19T18:06:49Z</time>
      </trkpt>
      <trkpt lat="59.9070633" lon="17.6546496">
        <ele>25.1317</ele>
        <time>2013-05-19T18:06:50Z</time>
      </trkpt>
      <trkpt lat="59.907068" lon="17.654452">
        <ele>25.1317</ele>
        <time>2013-05-19T18:06:51Z</time>
      </trkpt>
      <trkpt lat="59.9070739" lon="17.6542551">
        <ele>25.1317</ele>
        <time>2013-05-19T18:06:52Z</time>
      </trkpt>
      <trkpt lat="59.9070798" lon="17.6540591">
        <ele>25.1317</ele>
        <time>2013-05-19T18:06:53Z</time>
      </trkpt>
      <trkpt lat="59.9070851" lon="17.6538644">
        <ele>25.1317</ele>
        <time>2013-05-19T18:06:54Z</time>
      </trkpt>
      <trkpt lat="59.9070915" lon="17.6536706">
        <ele>25.1317</ele>
        <time>2013-05-19T18:06:55Z</time>
      </trkpt>
      <trkpt lat="59.9070988" lon="17.6534776">
        <ele>25.1317</ele>
        <time>2013-05-19T18:06:56Z</time>
      </trkpt>
      <trkpt lat="59.9071025" lon="17.6532828">
        <ele>24.651</ele>
        <time>2013-05-19T18:06:57Z</time>
      </trkpt>
      <trkpt lat="59.9071057" lon="17.653089">
        <ele>24.651</ele>
        <time>2013-05-19T18:06:58Z</time>
      </trkpt>
      <trkpt lat="59.9071079" lon="17.6528968">
        <ele>24.651</ele>
        <time>2013-05-19T18:06:59Z</time>
      </trkpt>
      <trkpt lat="59.907107" lon="17.6527052">
        <ele>24.651</ele>
        <time>2013-05-19T18:07:00Z</time>
      </trkpt>
      <trkpt lat="59.9071019" lon="17.652514">
        <ele>24.1703</ele>
        <time>2013-05-19T18:07:01Z</time>
      </trkpt>
      <trkpt lat="59.9070917" lon="17.6523229">
        <ele>24.1703</ele>
        <time>2013-05-19T18:07:02Z</time>
      </trkpt>
      <trkpt lat="59.9070762" lon="17.6521326">
        <ele>24.1703</ele>
        <time>2013-05-19T18:07:03Z</time>
      </trkpt>
      <trkpt lat="59.9070553" lon="17.6519442">
        <ele>23.6896</ele>
        <time>2013-05-19T18:07:04Z</time>
      </trkpt>
      <trkpt lat="59.9070317" lon="17.6517586">
        <ele>23.6896</ele>
        <time>2013-05-19T18:07:05Z</time>
      </trkpt>
      <trkpt lat="59.907004" lon="17.6515752">
        <ele>23.6896</ele>
        <time>2013-05-19T18:07:06Z</time>
      </trkpt>
      <trkpt lat="59.90697" lon="17.6513957">
        <ele>23.6896</ele>
        <time>2013-05-19T18:07:07Z</time>
      </trkpt>
      <trkpt lat="59.9069314" lon="17.6512196">
        <ele>23.6896</ele>
        <time>2013-05-19T18:07:08Z</time>
      </trkpt>
      <trkpt lat="59.906891" lon="17.6510438">
        <ele>23.6896</ele>
        <time>2013-05-19T18:07:09Z</time>
      </trkpt>
      <trkpt lat="59.9068498" lon="17.6508671">
        <ele>23.6896</ele>
        <time>2013-05-19T18:07:10Z</time>
      </trkpt>
      <trkpt lat="59.9068071" lon="17.6506897">
        <ele>23.6896</ele>
        <time>2013-05-19T18:07:11Z</time>
      </trkpt>
      <trkpt lat="59.9067647" lon="17.6505112">
        <ele>23.6896</ele>
        <time>2013-05-19T18:07:12Z</time>
      </trkpt>
      <trkpt lat="59.9067224" lon="17.6503311">
        <ele>23.6896</ele>
        <time>2013-05-19T18:07:13Z</time>
      </trkpt>
      <trkpt lat="59.9066802" lon="17.6501497">
        <ele>23.209</ele>
        <time>2013-05-19T18:07:14Z</time>
      </trkpt>
      <trkpt lat="59.9066369" lon="17.6499695">
        <ele>23.209</ele>
        <time>2013-05-19T18:07:15Z</time>
      </trkpt>
      <trkpt lat="59.9065928" lon="17.6497922">
        <ele>22.7283</ele>
        <time>2013-05-19T18:07:16Z</time>
      </trkpt>
      <trkpt lat="59.9065494" lon="17.6496158">
        <ele>22.7283</ele>
        <time>2013-05-19T18:07:17Z</time>
      </trkpt>
      <trkpt lat="59.9065064" lon="17.6494402">
        <ele>22.7283</ele>
        <time>2013-05-19T18:07:18Z</time>
      </trkpt>
      <trkpt lat="59.9064602" lon="17.6492677">
        <ele>22.2476</ele>
        <time>2013-05-19T18:07:19Z</time>
      </trkpt>
      <trkpt lat="59.9064099" lon="17.6490989">
        <ele>22.2476</ele>
        <time>2013-05-19T18:07:20Z</time>
      </trkpt>
      <trkpt lat="59.906355" lon="17.6489352">
        <ele>21.767</ele>
        <time>2013-05-19T18:07:21Z</time>
      </trkpt>
      <trkpt lat="59.9062955" lon="17.6487772">
        <ele>21.767</ele>
        <time>2013-05-19T18:07:22Z</time>
      </trkpt>
      <trkpt lat="59.9062347" lon="17.6486232">
        <ele>21.767</ele>
        <time>2013-05-19T18:07:23Z</time>
      </trkpt>
      <trkpt lat="59.906176" lon="17.6484682">
        <ele>21.767</ele>
        <time>2013-05-19T18:07:24Z</time>
      </trkpt>
      <trkpt lat="59.9061214" lon="17.6483089">
        <ele>21.767</ele>
        <time>2013-05-19T18:07:25Z</time>
      </trkpt>
      <trkpt lat="59.9060721" lon="17.6481446">
        <ele>21.767</ele>
        <time>2013-05-19T18:07:26Z</time>
      </trkpt>
      <trkpt lat="59.9060312" lon="17.6479722">
        <ele>21.767</ele>
        <time>2013-05-19T18:07:27Z</time>
      </trkpt>
      <trkpt lat="59.9060003" lon="17.6477924">
        <ele>21.767</ele>
        <time>2013-05-19T18:07:28Z</time>
      </trkpt>
      <trkpt lat="59.9059784" lon="17.6476078">
        <ele>22.2476</ele>
        <time>2013-05-19T18:07:29Z</time>
      </trkpt>
      <trkpt lat="59.9059649" lon="17.64742">
        <ele>22.2476</ele>
        <time>2013-05-19T18:07:30Z</time>
      </trkpt>
      <trkpt lat="59.9059588" lon="17.6472305">
        <ele>22.2476</ele>
        <time>2013-05-19T18:07:31Z</time>
      </trkpt>
      <trkpt lat="59.9059614" lon="17.6470424">
        <ele>22.2476</ele>
        <time>2013-05-19T18:07:32Z</time>
      </trkpt>
      <trkpt lat="59.9059713" lon="17.6468584">
        <ele>22.2476</ele>
        <time>2013-05-19T18:07:33Z</time>
      </trkpt>
      <trkpt lat="59.9059852" lon="17.6466796">
        <ele>22.2476</ele>
        <time>2013-05-19T18:07:34Z</time>
      </trkpt>
      <trkpt lat="59.9060022" lon="17.6465067">
        <ele>22.2476</ele>
        <time>2013-05-19T18:07:35Z</time>
      </trkpt>
      <trkpt lat="59.906022" lon="17.6463368">
        <ele>22.2476</ele>
        <time>2013-05-19T18:07:36Z</time>
      </trkpt>
      <trkpt lat="59.9060443" lon="17.6461704">
        <ele>22.2476</ele>
        <time>2013-05-19T18:07:37Z</time>
      </trkpt>
      <trkpt lat="59.9060681" lon="17.6460084">
        <ele>22.2476</ele>
        <time>2013-05-19T18:07:38Z</time>
      </trkpt>
      <trkpt lat="59.9060923" lon="17.6458503">
        <ele>21.767</ele>
        <time>2013-05-19T18:07:39Z</time>
      </trkpt>
      <trkpt lat="59.9061151" lon="17.6456946">
        <ele>21.767</ele>
        <time>2013-05-19T18:07:40Z</time>
      </trkpt>
      <trkpt lat="59.9061338" lon="17.6455394">
        <ele>21.767</ele>
        <time>2013-05-19T18:07:41Z</time>
      </trkpt>
      <trkpt lat="59.9061478" lon="17.6453816">
        <ele>21.767</ele>
        <time>2013-05-19T18:07:42Z</time>
      </trkpt>
      <trkpt lat="59.9061572" lon="17.6452206">
        <ele>21.2864</ele>
        <time>2013-05-19T18:07:43Z</time>
      </trkpt>
      <trkpt lat="59.9061609" lon="17.6450568">
        <ele>20.8057</ele>
        <time>2013-05-19T18:07:44Z</time>
      </trkpt>
      <trkpt lat="59.9061558" lon="17.6448911">
        <ele>20.8057</ele>
        <time>2013-05-19T18:07:45Z</time>
      </trkpt>
      <trkpt lat="59.9061396" lon="17.6447259">
        <ele>20.325</ele>
        <time>2013-05-19T18:07:46Z</time>
      </trkpt>
      <trkpt lat="59.9061147" lon="17.6445647">
        <ele>20.325</ele>
        <time>2013-05-19T18:07:47Z</time>
      </trkpt>
      <trkpt lat="59.9060819" lon="17.6444083">
        <ele>19.8444</ele>
        <time>2013-05-19T18:07:48Z</time>
      </trkpt>
      <trkpt lat="59.9060413" lon="17.6442617">
        <ele>19.3638</ele>
        <time>2013-05-19T18:07:49Z</time>
      </trkpt>
      <trkpt lat="59.9059956" lon="17.6441216">
        <ele>19.3638</ele>
        <time>2013-05-19T18:07:50Z</time>
      </trkpt>
      <trkpt lat="59.9059495" lon="17.6439838">
        <ele>18.8831</ele>
        <time>2013-05-19T18:07:51Z</time>
      </trkpt>
      <trkpt lat="59.9059096" lon="17.6438502">
        <ele>18.8831</ele>
        <time>2013-05-19T18:07:52Z</time>
      </trkpt>
      <trkpt lat="59.9058742" lon="17.6437241">
        <ele>18.8831</ele>
        <time>2013-05-19T18:07:53Z</time>
      </trkpt>
      <trkpt lat="59.9058485" lon="17.6436075">
        <ele>18.8831</ele>
        <time>2013-05-19T18:07:54Z</time>
      </trkpt>
      <trkpt lat="59.9058392" lon="17.6435039">
        <ele>19.3638</ele>
        <time>2013-05-19T18:07:55Z</time>
      </trkpt>
      <trkpt lat="59.9058459" lon="17.6434178">
        <ele>19.3638</ele>
        <time>2013-05-19T18:07:56Z</time>
      </trkpt>
      <trkpt lat="59.9058666" lon="17.6433572">
        <ele>19.8444</ele>
        <time>2013-05-19T18:07:57Z</time>
      </trkpt>
      <trkpt lat="59.9058975" lon="17.6433192">
        <ele>19.8444</ele>
        <time>2013-05-19T18:07:58Z</time>
      </trkpt>
      <trkpt lat="59.9059356" lon="17.6433057">
        <ele>19.8444</ele>
        <time>2013-05-19T18:07:59Z</time>
      </trkpt>
      <trkpt lat="59.9059799" lon="17.6433172">
        <ele>19.8444</ele>
        <time>2013-05-19T18:08:00Z</time>
      </trkpt>
      <trkpt lat="59.9060254" lon="17.6433508">
        <ele>19.8444</ele>
        <time>2013-05-19T18:08:01Z</time>
      </trkpt>
      <trkpt lat="59.9060729" lon="17.6433847">
        <ele>19.8444</ele>
        <time>2013-05-19T18:08:02Z</time>
      </trkpt>
      <trkpt lat="59.906125" lon="17.6434124">
        <ele>19.8444</ele>
        <time>2013-05-19T18:08:03Z</time>
      </trkpt>
      <trkpt lat="59.9061781" lon="17.6434364">
        <ele>19.8444</ele>
        <time>2013-05-19T18:08:04Z</time>
      </trkpt>
      <trkpt lat="59.9062303" lon="17.6434619">
        <ele>19.8444</ele>
        <time>2013-05-19T18:08:05Z</time>
      </trkpt>
      <trkpt lat="59.9062834" lon="17.6434894">
        <ele>19.8444</ele>
        <time>2013-05-19T18:08:06Z</time>
      </trkpt>
      <trkpt lat="59.9063396" lon="17.6435157">
        <ele>19.8444</ele>
        <time>2013-05-19T18:08:07Z</time>
      </trkpt>
      <trkpt lat="59.9063977" lon="17.6435428">
        <ele>19.8444</ele>
        <time>2013-05-19T18:08:08Z</time>
      </trkpt>
      <trkpt lat="59.9064583" lon="17.643565">
        <ele>19.8444</ele>
        <time>2013-05-19T18:08:09Z</time>
      </trkpt>
      <trkpt lat="59.9065214" lon="17.6435836">
        <ele>19.8444</ele>
        <time>2013-05-19T18:08:10Z</time>
      </trkpt>
      <trkpt lat="59.9065852" lon="17.6436033">
        <ele>20.325</ele>
        <time>2013-05-19T18:08:11Z</time>
      </trkpt>
      <trkpt lat="59.9066491" lon="17.6436235">
        <ele>20.8057</ele>
        <time>2013-05-19T18:08:12Z</time>
      </trkpt>
      <trkpt lat="59.9067136" lon="17.6436432">
        <ele>20.8057</ele>
        <time>2013-05-19T18:08:13Z</time>
      </trkpt>
      <trkpt lat="59.9067786" lon="17.6436621">
        <ele>21.2864</ele>
        <time>2013-05-19T18:08:14Z</time>
      </trkpt>
      <trkpt lat="59.9068442" lon="17.6436805">
        <ele>21.2864</ele>
        <time>2013-05-19T18:08:15Z</time>
      </trkpt>
      <trkpt lat="59.9069105" lon="17.6436996">
        <ele>21.767</ele>
        <time>2013-05-19T18:08:16Z</time>
      </trkpt>
      <trkpt lat="59.9069767" lon="17.6437172">
        <ele>21.767</ele>
        <time>2013-05-19T18:08:17Z</time>
      </trkpt>
      <trkpt lat="59.9070429" lon="17.6437333">
        <ele>22.2476</ele>
        <time>2013-05-19T18:08:18Z</time>
      </trkpt>
      <trkpt lat="59.9071083" lon="17.6437499">
        <ele>22.2476</ele>
        <time>2013-05-19T18:08:19Z</time>
      </trkpt>
      <trkpt lat="59.907173" lon="17.6437653">
        <ele>22.2476</ele>
        <time>2013-05-19T18:08:20Z</time>
      </trkpt>
      <trkpt lat="59.9072371" lon="17.6437799">
        <ele>22.7283</ele>
        <time>2013-05-19T18:08:21Z</time>
      </trkpt>
      <trkpt lat="59.9073009" lon="17.6437955">
        <ele>22.7283</ele>
        <time>2013-05-19T18:08:22Z</time>
      </trkpt>
      <trkpt lat="59.9073646" lon="17.6438096">
        <ele>22.7283</ele>
        <time>2013-05-19T18:08:23Z</time>
      </trkpt>
      <trkpt lat="59.9074283" lon="17.6438234">
        <ele>22.7283</ele>
        <time>2013-05-19T18:08:24Z</time>
      </trkpt>
      <trkpt lat="59.9074904" lon="17.6438385">
        <ele>23.209</ele>
        <time>2013-05-19T18:08:25Z</time>
      </trkpt>
      <trkpt lat="59.9075495" lon="17.6438498">
        <ele>23.209</ele>
        <time>2013-05-19T18:08:26Z</time>
      </trkpt>
      <trkpt lat="59.907607" lon="17.6438559">
        <ele>23.209</ele>
        <time>2013-05-19T18:08:27Z</time>
      </trkpt>
      <trkpt lat="59.9076639" lon="17.6438623">
        <ele>23.209</ele>
        <time>2013-05-19T18:08:28Z</time>
      </trkpt>
      <trkpt lat="59.9077202" lon="17.643869">
        <ele>23.6896</ele>
        <time>2013-05-19T18:08:29Z</time>
      </trkpt>
      <trkpt lat="59.9077768" lon="17.6438717">
        <ele>23.6896</ele>
        <time>2013-05-19T18:08:30Z</time>
      </trkpt>
      <trkpt lat="59.9078331" lon="17.6438714">
        <ele>23.6896</ele>
        <time>2013-05-19T18:08:31Z</time>
      </trkpt>
      <trkpt lat="59.907889" lon="17.6438654">
        <ele>23.6896</ele>
        <time>2013-05-19T18:08:32Z</time>
      </trkpt>
      <trkpt lat="59.9079453" lon="17.643853">
        <ele>23.6896</ele>
        <time>2013-05-19T18:08:33Z</time>
      </trkpt>
      <trkpt lat="59.9080013" lon="17.6438399">
        <ele>24.1703</ele>
        <time>2013-05-19T18:08:34Z</time>
      </trkpt>
      <trkpt lat="59.9080573" lon="17.6438327">
        <ele>24.1703</ele>
        <time>2013-05-19T18:08:35Z</time>
      </trkpt>
      <trkpt lat="59.9081127" lon="17.6438341">
        <ele>24.1703</ele>
        <time>2013-05-19T18:08:36Z</time>
      </trkpt>
      <trkpt lat="59.908167" lon="17.6438373">
        <ele>24.1703</ele>
        <time>2013-05-19T18:08:37Z</time>
      </trkpt>
      <trkpt lat="59.9082204" lon="17.6438307">
        <ele>24.651</ele>
        <time>2013-05-19T18:08:38Z</time>
      </trkpt>
      <trkpt lat="59.9082723" lon="17.6438059">
        <ele>24.651</ele>
        <time>2013-05-19T18:08:39Z</time>
      </trkpt>
      <trkpt lat="59.908324" lon="17.6437685">
        <ele>24.651</ele>
        <time>2013-05-19T18:08:40Z</time>
      </trkpt>
      <trkpt lat="59.9083779" lon="17.6437318">
        <ele>24.1703</ele>
        <time>2013-05-19T18:08:41Z</time>
      </trkpt>
      <trkpt lat="59.9084358" lon="17.6437094">
        <ele>24.1703</ele>
        <time>2013-05-19T18:08:42Z</time>
      </trkpt>
      <trkpt lat="59.9084971" lon="17.6437036">
        <ele>24.1703</ele>
        <time>2013-05-19T18:08:43Z</time>
      </trkpt>
      <trkpt lat="59.9085606" lon="17.6437069">
        <ele>24.1703</ele>
        <time>2013-05-19T18:08:44Z</time>
      </trkpt>
      <trkpt lat="59.9086255" lon="17.6437094">
        <ele>24.1703</ele>
        <time>2013-05-19T18:08:45Z</time>
      </trkpt>
      <trkpt lat="59.9086916" lon="17.6437054">
        <ele>24.1703</ele>
        <time>2013-05-19T18:08:46Z</time>
      </trkpt>
      <trkpt lat="59.9087583" lon="17.6437007">
        <ele>23.6896</ele>
        <time>2013-05-19T18:08:47Z</time>
      </trkpt>
      <trkpt lat="59.9088261" lon="17.6436984">
        <ele>23.6896</ele>
        <time>2013-05-19T18:08:48Z</time>
      </trkpt>
      <trkpt lat="59.9088947" lon="17.6436935">
        <ele>23.6896</ele>
        <time>2013-05-19T18:08:49Z</time>
      </trkpt>
      <trkpt lat="59.9089633" lon="17.6436841">
        <ele>24.1703</ele>
        <time>2013-05-19T18:08:50Z</time>
      </trkpt>
      <trkpt lat="59.9090311" lon="17.6436757">
        <ele>24.1703</ele>
        <time>2013-05-19T18:08:51Z</time>
      </trkpt>
      <trkpt lat="59.9090985" lon="17.6436692">
        <ele>24.1703</ele>
        <time>2013-05-19T18:08:52Z</time>
      </trkpt>
      <trkpt lat="59.9091653" lon="17.6436611">
        <ele>24.1703</ele>
        <time>2013-05-19T18:08:53Z</time>
      </trkpt>
      <trkpt lat="59.9092316" lon="17.6436519">
        <ele>24.1703</ele>
        <time>2013-05-19T18:08:54Z</time>
      </trkpt>
      <trkpt lat="59.909298" lon="17.6436416">
        <ele>24.1703</ele>
        <time>2013-05-19T18:08:55Z</time>
      </trkpt>
      <trkpt lat="59.9093645" lon="17.6436291">
        <ele>24.1703</ele>
        <time>2013-05-19T18:08:56Z</time>
      </trkpt>
      <trkpt lat="59.909431" lon="17.6436147">
        <ele>24.1703</ele>
        <time>2013-05-19T18:08:57Z</time>
      </trkpt>
      <trkpt lat="59.9094978" lon="17.6436022">
        <ele>24.1703</ele>
        <time>2013-05-19T18:08:58Z</time>
      </trkpt>
      <trkpt lat="59.909565" lon="17.6435886">
        <ele>24.1703</ele>
        <time>2013-05-19T18:08:59Z</time>
      </trkpt>
      <trkpt lat="59.9096321" lon="17.6435697">
        <ele>24.1703</ele>
        <time>2013-05-19T18:09:00Z</time>
      </trkpt>
      <trkpt lat="59.9096988" lon="17.6435528">
        <ele>24.1703</ele>
        <time>2013-05-19T18:09:01Z</time>
      </trkpt>
      <trkpt lat="59.9097647" lon="17.6435386">
        <ele>24.1703</ele>
        <time>2013-05-19T18:09:02Z</time>
      </trkpt>
      <trkpt lat="59.9098304" lon="17.6435303">
        <ele>24.1703</ele>
        <time>2013-05-19T18:09:03Z</time>
      </trkpt>
      <trkpt lat="59.9098965" lon="17.6435318">
        <ele>24.1703</ele>
        <time>2013-05-19T18:09:04Z</time>
      </trkpt>
      <trkpt lat="59.9099624" lon="17.6435451">
        <ele>24.1703</ele>
        <time>2013-05-19T18:09:05Z</time>
      </trkpt>
      <trkpt lat="59.9100268" lon="17.643563">
        <ele>24.1703</ele>
        <time>2013-05-19T18:09:06Z</time>
      </trkpt>
      <trkpt lat="59.9100879" lon="17.643581">
        <ele>24.651</ele>
        <time>2013-05-19T18:09:07Z</time>
      </trkpt>
      <trkpt lat="59.9101449" lon="17.6435976">
        <ele>25.1317</ele>
        <time>2013-05-19T18:09:08Z</time>
      </trkpt>
      <trkpt lat="59.9101998" lon="17.6436048">
        <ele>25.1317</ele>
        <time>2013-05-19T18:09:09Z</time>
      </trkpt>
      <trkpt lat="59.9102541" lon="17.6436021">
        <ele>25.6123</ele>
        <time>2013-05-19T18:09:10Z</time>
      </trkpt>
      <trkpt lat="59.9103089" lon="17.6435927">
        <ele>25.6123</ele>
        <time>2013-05-19T18:09:11Z</time>
      </trkpt>
      <trkpt lat="59.910365" lon="17.643582">
        <ele>25.6123</ele>
        <time>2013-05-19T18:09:12Z</time>
      </trkpt>
      <trkpt lat="59.9104225" lon="17.6435753">
        <ele>26.0929</ele>
        <time>2013-05-19T18:09:13Z</time>
      </trkpt>
      <trkpt lat="59.9104806" lon="17.6435644">
        <ele>26.0929</ele>
        <time>2013-05-19T18:09:14Z</time>
      </trkpt>
      <trkpt lat="59.9105384" lon="17.6435383">
        <ele>26.0929</ele>
        <time>2013-05-19T18:09:15Z</time>
      </trkpt>
      <trkpt lat="59.9105966" lon="17.6435018">
        <ele>25.6123</ele>
        <time>2013-05-19T18:09:16Z</time>
      </trkpt>
      <trkpt lat="59.9106591" lon="17.6434699">
        <ele>26.0929</ele>
        <time>2013-05-19T18:09:17Z</time>
      </trkpt>
      <trkpt lat="59.9107248" lon="17.6434488">
        <ele>26.0929</ele>
        <time>2013-05-19T18:09:18Z</time>
      </trkpt>
      <trkpt lat="59.9107918" lon="17.643434">
        <ele>26.0929</ele>
        <time>2013-05-19T18:09:19Z</time>
      </trkpt>
      <trkpt lat="59.9108597" lon="17.643421">
        <ele>26.0929</ele>
        <time>2013-05-19T18:09:20Z</time>
      </trkpt>
      <trkpt lat="59.9109274" lon="17.6434096">
        <ele>26.0929</ele>
        <time>2013-05-19T18:09:21Z</time>
      </trkpt>
      <trkpt lat="59.9109944" lon="17.6433974">
        <ele>26.0929</ele>
        <time>2013-05-19T18:09:22Z</time>
      </trkpt>
      <trkpt lat="59.9110606" lon="17.6433845">
        <ele>26.5736</ele>
        <time>2013-05-19T18:09:23Z</time>
      </trkpt>
      <trkpt lat="59.911126" lon="17.6433722">
        <ele>26.5736</ele>
        <time>2013-05-19T18:09:24Z</time>
      </trkpt>
      <trkpt lat="59.9111913" lon="17.6433619">
        <ele>26.5736</ele>
        <time>2013-05-19T18:09:25Z</time>
      </trkpt>
      <trkpt lat="59.9112568" lon="17.6433498">
        <ele>26.5736</ele>
        <time>2013-05-19T18:09:26Z</time>
      </trkpt>
      <trkpt lat="59.9113213" lon="17.6433318">
        <ele>26.5736</ele>
        <time>2013-05-19T18:09:27Z</time>
      </trkpt>
      <trkpt lat="59.9113853" lon="17.6433119">
        <ele>26.5736</ele>
        <time>2013-05-19T18:09:28Z</time>
      </trkpt>
      <trkpt lat="59.91145" lon="17.6432938">
        <ele>26.5736</ele>
        <time>2013-05-19T18:09:29Z</time>
      </trkpt>
      <trkpt lat="59.9115155" lon="17.6432807">
        <ele>26.5736</ele>
        <time>2013-05-19T18:09:30Z</time>
      </trkpt>
      <trkpt lat="59.9115821" lon="17.6432716">
        <ele>26.5736</ele>
        <time>2013-05-19T18:09:31Z</time>
      </trkpt>
      <trkpt lat="59.9116497" lon="17.6432604">
        <ele>26.5736</ele>
        <time>2013-05-19T18:09:32Z</time>
      </trkpt>
      <trkpt lat="59.9117186" lon="17.6432464">
        <ele>26.5736</ele>
        <time>2013-05-19T18:09:33Z</time>
      </trkpt>
      <trkpt lat="59.9117874" lon="17.6432354">
        <ele>26.5736</ele>
        <time>2013-05-19T18:09:34Z</time>
      </trkpt>
      <trkpt lat="59.9118548" lon="17.6432235">
        <ele>27.0543</ele>
        <time>2013-05-19T18:09:35Z</time>
      </trkpt>
      <trkpt lat="59.9119211" lon="17.643206">
        <ele>27.0543</ele>
        <time>2013-05-19T18:09:36Z</time>
      </trkpt>
      <trkpt lat="59.9119875" lon="17.6431866">
        <ele>27.0543</ele>
        <time>2013-05-19T18:09:37Z</time>
      </trkpt>
      <trkpt lat="59.9120544" lon="17.643167">
        <ele>27.0543</ele>
        <time>2013-05-19T18:09:38Z</time>
      </trkpt>
      <trkpt lat="59.9121231" lon="17.6431479">
        <ele>27.0543</ele>
        <time>2013-05-19T18:09:39Z</time>
      </trkpt>
      <trkpt lat="59.912195" lon="17.6431268">
        <ele>27.0543</ele>
        <time>2013-05-19T18:09:40Z</time>
      </trkpt>
      <trkpt lat="59.9122691" lon="17.643104">
        <ele>26.5736</ele>
        <time>2013-05-19T18:09:41Z</time>
      </trkpt>
      <trkpt lat="59.9123447" lon="17.6430832">
        <ele>26.5736</ele>
        <time>2013-05-19T18:09:42Z</time>
      </trkpt>
      <trkpt lat="59.912421" lon="17.6430662">
        <ele>26.5736</ele>
        <time>2013-05-19T18:09:43Z</time>
      </trkpt>
      <trkpt lat="59.9124981" lon="17.6430538">
        <ele>26.0929</ele>
        <time>2013-05-19T18:09:44Z</time>
      </trkpt>
      <trkpt lat="59.9125754" lon="17.6430506">
        <ele>26.0929</ele>
        <time>2013-05-19T18:09:45Z</time>
      </trkpt>
      <trkpt lat="59.9126514" lon="17.6430656">
        <ele>26.0929</ele>
        <time>2013-05-19T18:09:46Z</time>
      </trkpt>
      <trkpt lat="59.9127225" lon="17.643096">
        <ele>26.5736</ele>
        <time>2013-05-19T18:09:47Z</time>
      </trkpt>
      <trkpt lat="59.9127877" lon="17.6431209">
        <ele>27.0543</ele>
        <time>2013-05-19T18:09:48Z</time>
      </trkpt>
      <trkpt lat="59.9128495" lon="17.6431298">
        <ele>27.0543</ele>
        <time>2013-05-19T18:09:49Z</time>
      </trkpt>
      <trkpt lat="59.9129104" lon="17.643125">
        <ele>27.0543</ele>
        <time>2013-05-19T18:09:50Z</time>
      </trkpt>
      <trkpt lat="59.9129721" lon="17.6431143">
        <ele>27.5349</ele>
        <time>2013-05-19T18:09:51Z</time>
      </trkpt>
      <trkpt lat="59.9130343" lon="17.6431038">
        <ele>27.5349</ele>
        <time>2013-05-19T18:09:52Z</time>
      </trkpt>
      <trkpt lat="59.9130963" lon="17.6430919">
        <ele>27.5349</ele>
        <time>2013-05-19T18:09:53Z</time>
      </trkpt>
      <trkpt lat="59.9131596" lon="17.6430785">
        <ele>27.5349</ele>
        <time>2013-05-19T18:09:54Z</time>
      </trkpt>
      <trkpt lat="59.9132229" lon="17.6430661">
        <ele>27.5349</ele>
        <time>2013-05-19T18:09:55Z</time>
      </trkpt>
      <trkpt lat="59.9132872" lon="17.6430532">
        <ele>27.0543</ele>
        <time>2013-05-19T18:09:56Z</time>
      </trkpt>
      <trkpt lat="59.9133515" lon="17.6430371">
        <ele>27.0543</ele>
        <time>2013-05-19T18:09:57Z</time>
      </trkpt>
      <trkpt lat="59.9134161" lon="17.6430196">
        <ele>27.0543</ele>
        <time>2013-05-19T18:09:58Z</time>
      </trkpt>
      <trkpt lat="59.9134808" lon="17.643003">
        <ele>27.0543</ele>
        <time>2013-05-19T18:09:59Z</time>
      </trkpt>
      <trkpt lat="59.9135456" lon="17.6429898">
        <ele>27.0543</ele>
        <time>2013-05-19T18:10:00Z</time>
      </trkpt>
      <trkpt lat="59.9136114" lon="17.6429765">
        <ele>27.0543</ele>
        <time>2013-05-19T18:10:01Z</time>
      </trkpt>
      <trkpt lat="59.9136773" lon="17.6429666">
        <ele>27.0543</ele>
        <time>2013-05-19T18:10:02Z</time>
      </trkpt>
      <trkpt lat="59.9137443" lon="17.6429563">
        <ele>27.0543</ele>
        <time>2013-05-19T18:10:03Z</time>
      </trkpt>
      <trkpt lat="59.9138122" lon="17.642946">
        <ele>27.0543</ele>
        <time>2013-05-19T18:10:04Z</time>
      </trkpt>
      <trkpt lat="59.9138808" lon="17.6429317">
        <ele>27.0543</ele>
        <time>2013-05-19T18:10:05Z</time>
      </trkpt>
      <trkpt lat="59.9139502" lon="17.6429179">
        <ele>27.0543</ele>
        <time>2013-05-19T18:10:06Z</time>
      </trkpt>
      <trkpt lat="59.9140196" lon="17.6429046">
        <ele>27.0543</ele>
        <time>2013-05-19T18:10:07Z</time>
      </trkpt>
      <trkpt lat="59.9140898" lon="17.642891">
        <ele>27.0543</ele>
        <time>2013-05-19T18:10:08Z</time>
      </trkpt>
      <trkpt lat="59.9141605" lon="17.6428776">
        <ele>27.0543</ele>
        <time>2013-05-19T18:10:09Z</time>
      </trkpt>
      <trkpt lat="59.9142319" lon="17.6428631">
        <ele>26.5736</ele>
        <time>2013-05-19T18:10:10Z</time>
      </trkpt>
      <trkpt lat="59.9143044" lon="17.642848">
        <ele>26.5736</ele>
        <time>2013-05-19T18:10:11Z</time>
      </trkpt>
      <trkpt lat="59.9143781" lon="17.6428345">
        <ele>26.5736</ele>
        <time>2013-05-19T18:10:12Z</time>
      </trkpt>
      <trkpt lat="59.9144526" lon="17.6428222">
        <ele>26.0929</ele>
        <time>2013-05-19T18:10:13Z</time>
      </trkpt>
      <trkpt lat="59.9145271" lon="17.6428116">
        <ele>26.0929</ele>
        <time>2013-05-19T18:10:14Z</time>
      </trkpt>
      <trkpt lat="59.9146016" lon="17.6428023">
        <ele>26.0929</ele>
        <time>2013-05-19T18:10:15Z</time>
      </trkpt>
      <trkpt lat="59.9146759" lon="17.6427898">
        <ele>25.6123</ele>
        <time>2013-05-19T18:10:16Z</time>
      </trkpt>
      <trkpt lat="59.9147503" lon="17.6427756">
        <ele>25.6123</ele>
        <time>2013-05-19T18:10:17Z</time>
      </trkpt>
      <trkpt lat="59.9148244" lon="17.642762">
        <ele>25.6123</ele>
        <time>2013-05-19T18:10:18Z</time>
      </trkpt>
      <trkpt lat="59.9148972" lon="17.6427487">
        <ele>25.6123</ele>
        <time>2013-05-19T18:10:19Z</time>
      </trkpt>
      <trkpt lat="59.9149684" lon="17.642737">
        <ele>25.1317</ele>
        <time>2013-05-19T18:10:20Z</time>
      </trkpt>
      <trkpt lat="59.9150381" lon="17.6427247">
        <ele>25.1317</ele>
        <time>2013-05-19T18:10:21Z</time>
      </trkpt>
      <trkpt lat="59.9151075" lon="17.6427085">
        <ele>25.1317</ele>
        <time>2013-05-19T18:10:22Z</time>
      </trkpt>
      <trkpt lat="59.9151752" lon="17.6426837">
        <ele>25.1317</ele>
        <time>2013-05-19T18:10:23Z</time>
      </trkpt>
      <trkpt lat="59.9152435" lon="17.6426439">
        <ele>25.1317</ele>
        <time>2013-05-19T18:10:24Z</time>
      </trkpt>
      <trkpt lat="59.9153165" lon="17.6425956">
        <ele>24.651</ele>
        <time>2013-05-19T18:10:25Z</time>
      </trkpt>
      <trkpt lat="59.9153963" lon="17.6425486">
        <ele>24.651</ele>
        <time>2013-05-19T18:10:26Z</time>
      </trkpt>
      <trkpt lat="59.9154783" lon="17.6425082">
        <ele>24.1703</ele>
        <time>2013-05-19T18:10:27Z</time>
      </trkpt>
      <trkpt lat="59.9155637" lon="17.6424782">
        <ele>24.1703</ele>
        <time>2013-05-19T18:10:28Z</time>
      </trkpt>
      <trkpt lat="59.9156498" lon="17.6424546">
        <ele>24.1703</ele>
        <time>2013-05-19T18:10:29Z</time>
      </trkpt>
      <trkpt lat="59.9157363" lon="17.6424378">
        <ele>24.1703</ele>
        <time>2013-05-19T18:10:30Z</time>
      </trkpt>
      <trkpt lat="59.9158227" lon="17.6424318">
        <ele>24.1703</ele>
        <time>2013-05-19T18:10:31Z</time>
      </trkpt>
      <trkpt lat="59.9159082" lon="17.6424356">
        <ele>24.651</ele>
        <time>2013-05-19T18:10:32Z</time>
      </trkpt>
      <trkpt lat="59.9159922" lon="17.6424412">
        <ele>24.651</ele>
        <time>2013-05-19T18:10:33Z</time>
      </trkpt>
      <trkpt lat="59.9160741" lon="17.642444">
        <ele>24.651</ele>
        <time>2013-05-19T18:10:34Z</time>
      </trkpt>
      <trkpt lat="59.9161538" lon="17.6424448">
        <ele>24.651</ele>
        <time>2013-05-19T18:10:35Z</time>
      </trkpt>
      <trkpt lat="59.9162313" lon="17.6424434">
        <ele>24.651</ele>
        <time>2013-05-19T18:10:36Z</time>
      </trkpt>
      <trkpt lat="59.9163071" lon="17.6424392">
        <ele>25.1317</ele>
        <time>2013-05-19T18:10:37Z</time>
      </trkpt>
      <trkpt lat="59.9163817" lon="17.6424305">
        <ele>25.1317</ele>
        <time>2013-05-19T18:10:38Z</time>
      </trkpt>
      <trkpt lat="59.9164559" lon="17.642419">
        <ele>24.651</ele>
        <time>2013-05-19T18:10:39Z</time>
      </trkpt>
      <trkpt lat="59.9165303" lon="17.6424067">
        <ele>24.651</ele>
        <time>2013-05-19T18:10:40Z</time>
      </trkpt>
      <trkpt lat="59.9166045" lon="17.6423951">
        <ele>24.651</ele>
        <time>2013-05-19T18:10:41Z</time>
      </trkpt>
      <trkpt lat="59.916679" lon="17.6423843">
        <ele>24.651</ele>
        <time>2013-05-19T18:10:42Z</time>
      </trkpt>
      <trkpt lat="59.9167545" lon="17.6423735">
        <ele>24.1703</ele>
        <time>2013-05-19T18:10:43Z</time>
      </trkpt>
      <trkpt lat="59.9168314" lon="17.6423619">
        <ele>24.1703</ele>
        <time>2013-05-19T18:10:44Z</time>
      </trkpt>
      <trkpt lat="59.9169096" lon="17.6423491">
        <ele>23.6896</ele>
        <time>2013-05-19T18:10:45Z</time>
      </trkpt>
      <trkpt lat="59.9169886" lon="17.6423337">
        <ele>23.6896</ele>
        <time>2013-05-19T18:10:46Z</time>
      </trkpt>
      <trkpt lat="59.9170674" lon="17.6423124">
        <ele>23.209</ele>
        <time>2013-05-19T18:10:47Z</time>
      </trkpt>
      <trkpt lat="59.9171467" lon="17.6422853">
        <ele>23.209</ele>
        <time>2013-05-19T18:10:48Z</time>
      </trkpt>
      <trkpt lat="59.9172274" lon="17.6422632">
        <ele>23.209</ele>
        <time>2013-05-19T18:10:49Z</time>
      </trkpt>
      <trkpt lat="59.9173089" lon="17.6422559">
        <ele>23.209</ele>
        <time>2013-05-19T18:10:50Z</time>
      </trkpt>
      <trkpt lat="59.9173902" lon="17.6422566">
        <ele>23.209</ele>
        <time>2013-05-19T18:10:51Z</time>
      </trkpt>
      <trkpt lat="59.9174707" lon="17.6422558">
        <ele>23.209</ele>
        <time>2013-05-19T18:10:52Z</time>
      </trkpt>
      <trkpt lat="59.9175503" lon="17.6422529">
        <ele>23.209</ele>
        <time>2013-05-19T18:10:53Z</time>
      </trkpt>
      <trkpt lat="59.917629" lon="17.6422531">
        <ele>23.209</ele>
        <time>2013-05-19T18:10:54Z</time>
      </trkpt>
      <trkpt lat="59.9177068" lon="17.6422552">
        <ele>23.209</ele>
        <time>2013-05-19T18:10:55Z</time>
      </trkpt>
      <trkpt lat="59.9177841" lon="17.642255">
        <ele>23.209</ele>
        <time>2013-05-19T18:10:56Z</time>
      </trkpt>
      <trkpt lat="59.9178601" lon="17.6422521">
        <ele>23.6896</ele>
        <time>2013-05-19T18:10:57Z</time>
      </trkpt>
      <trkpt lat="59.9179346" lon="17.6422461">
        <ele>23.6896</ele>
        <time>2013-05-19T18:10:58Z</time>
      </trkpt>
      <trkpt lat="59.9180065" lon="17.6422392">
        <ele>23.6896</ele>
        <time>2013-05-19T18:10:59Z</time>
      </trkpt>
      <trkpt lat="59.9180766" lon="17.6422337">
        <ele>23.6896</ele>
        <time>2013-05-19T18:11:00Z</time>
      </trkpt>
      <trkpt lat="59.918146" lon="17.6422285">
        <ele>24.1703</ele>
        <time>2013-05-19T18:11:01Z</time>
      </trkpt>
      <trkpt lat="59.9182144" lon="17.6422233">
        <ele>24.1703</ele>
        <time>2013-05-19T18:11:02Z</time>
      </trkpt>
      <trkpt lat="59.9182819" lon="17.6422181">
        <ele>24.1703</ele>
        <time>2013-05-19T18:11:03Z</time>
      </trkpt>
      <trkpt lat="59.9183489" lon="17.6422098">
        <ele>24.1703</ele>
        <time>2013-05-19T18:11:04Z</time>
      </trkpt>
      <trkpt lat="59.9184139" lon="17.6421996">
        <ele>24.651</ele>
        <time>2013-05-19T18:11:05Z</time>
      </trkpt>
      <trkpt lat="59.9184781" lon="17.6421897">
        <ele>24.651</ele>
        <time>2013-05-19T18:11:06Z</time>
      </trkpt>
      <trkpt lat="59.9185423" lon="17.6421802">
        <ele>25.1317</ele>
        <time>2013-05-19T18:11:07Z</time>
      </trkpt>
      <trkpt lat="59.9186087" lon="17.642172">
        <ele>25.1317</ele>
        <time>2013-05-19T18:11:08Z</time>
      </trkpt>
      <trkpt lat="59.918676" lon="17.6421651">
        <ele>25.6123</ele>
        <time>2013-05-19T18:11:09Z</time>
      </trkpt>
      <trkpt lat="59.9187443" lon="17.6421548">
        <ele>25.6123</ele>
        <time>2013-05-19T18:11:10Z</time>
      </trkpt>
      <trkpt lat="59.9188113" lon="17.6421457">
        <ele>25.6123</ele>
        <time>2013-05-19T18:11:11Z</time>
      </trkpt>
      <trkpt lat="59.918877" lon="17.6421382">
        <ele>25.6123</ele>
        <time>2013-05-19T18:11:12Z</time>
      </trkpt>
      <trkpt lat="59.9189402" lon="17.6421306">
        <ele>25.6123</ele>
        <time>2013-05-19T18:11:13Z</time>
      </trkpt>
      <trkpt lat="59.9190019" lon="17.6421233">
        <ele>25.6123</ele>
        <time>2013-05-19T18:11:14Z</time>
      </trkpt>
      <trkpt lat="59.9190629" lon="17.6421149">
        <ele>25.6123</ele>
        <time>2013-05-19T18:11:15Z</time>
      </trkpt>
      <trkpt lat="59.919123" lon="17.6421074">
        <ele>25.6123</ele>
        <time>2013-05-19T18:11:16Z</time>
      </trkpt>
      <trkpt lat="59.9191827" lon="17.6421017">
        <ele>25.6123</ele>
        <time>2013-05-19T18:11:17Z</time>
      </trkpt>
      <trkpt lat="59.9192427" lon="17.6420972">
        <ele>25.1317</ele>
        <time>2013-05-19T18:11:18Z</time>
      </trkpt>
      <trkpt lat="59.9193033" lon="17.6420912">
        <ele>25.1317</ele>
        <time>2013-05-19T18:11:19Z</time>
      </trkpt>
      <trkpt lat="59.9193648" lon="17.6420819">
        <ele>25.1317</ele>
        <time>2013-05-19T18:11:20Z</time>
      </trkpt>
      <trkpt lat="59.9194276" lon="17.6420719">
        <ele>25.1317</ele>
        <time>2013-05-19T18:11:21Z</time>
      </trkpt>
      <trkpt lat="59.9194917" lon="17.6420652">
        <ele>25.1317</ele>
        <time>2013-05-19T18:11:22Z</time>
      </trkpt>
      <trkpt lat="59.919556" lon="17.6420606">
        <ele>25.1317</ele>
        <time>2013-05-19T18:11:23Z</time>
      </trkpt>
      <trkpt lat="59.9196194" lon="17.6420581">
        <ele>25.1317</ele>
        <time>2013-05-19T18:11:24Z</time>
      </trkpt>
      <trkpt lat="59.9196835" lon="17.6420506">
        <ele>25.1317</ele>
        <time>2013-05-19T18:11:25Z</time>
      </trkpt>
      <trkpt lat="59.9197468" lon="17.6420352">
        <ele>25.1317</ele>
        <time>2013-05-19T18:11:26Z</time>
      </trkpt>
      <trkpt lat="59.91981" lon="17.6420175">
        <ele>25.1317</ele>
        <time>2013-05-19T18:11:27Z</time>
      </trkpt>
      <trkpt lat="59.9198731" lon="17.6419995">
        <ele>25.1317</ele>
        <time>2013-05-19T18:11:28Z</time>
      </trkpt>
      <trkpt lat="59.9199371" lon="17.6419824">
        <ele>25.1317</ele>
        <time>2013-05-19T18:11:29Z</time>
      </trkpt>
      <trkpt lat="59.9200024" lon="17.6419679">
        <ele>25.1317</ele>
        <time>2013-05-19T18:11:30Z</time>
      </trkpt>
      <trkpt lat="59.9200689" lon="17.6419577">
        <ele>25.6123</ele>
        <time>2013-05-19T18:11:31Z</time>
      </trkpt>
      <trkpt lat="59.9201356" lon="17.6419542">
        <ele>25.6123</ele>
        <time>2013-05-19T18:11:32Z</time>
      </trkpt>
      <trkpt lat="59.9202015" lon="17.6419525">
        <ele>25.6123</ele>
        <time>2013-05-19T18:11:33Z</time>
      </trkpt>
      <trkpt lat="59.9202661" lon="17.6419497">
        <ele>25.6123</ele>
        <time>2013-05-19T18:11:34Z</time>
      </trkpt>
      <trkpt lat="59.9203318" lon="17.641945">
        <ele>25.6123</ele>
        <time>2013-05-19T18:11:35Z</time>
      </trkpt>
      <trkpt lat="59.9203984" lon="17.6419415">
        <ele>26.0929</ele>
        <time>2013-05-19T18:11:36Z</time>
      </trkpt>
      <trkpt lat="59.9204657" lon="17.6419395">
        <ele>26.0929</ele>
        <time>2013-05-19T18:11:37Z</time>
      </trkpt>
      <trkpt lat="59.9205333" lon="17.6419379">
        <ele>26.0929</ele>
        <time>2013-05-19T18:11:38Z</time>
      </trkpt>
      <trkpt lat="59.9206007" lon="17.6419367">
        <ele>26.0929</ele>
        <time>2013-05-19T18:11:39Z</time>
      </trkpt>
      <trkpt lat="59.9206682" lon="17.6419348">
        <ele>25.6123</ele>
        <time>2013-05-19T18:11:40Z</time>
      </trkpt>
      <trkpt lat="59.9207352" lon="17.6419335">
        <ele>25.1317</ele>
        <time>2013-05-19T18:11:41Z</time>
      </trkpt>
      <trkpt lat="59.9208034" lon="17.6419306">
        <ele>25.6123</ele>
        <time>2013-05-19T18:11:42Z</time>
      </trkpt>
      <trkpt lat="59.9208719" lon="17.6419301">
        <ele>25.6123</ele>
        <time>2013-05-19T18:11:43Z</time>
      </trkpt>
      <trkpt lat="59.9209401" lon="17.6419304">
        <ele>25.6123</ele>
        <time>2013-05-19T18:11:44Z</time>
      </trkpt>
      <trkpt lat="59.9210049" lon="17.641927">
        <ele>25.6123</ele>
        <time>2013-05-19T18:11:45Z</time>
      </trkpt>
      <trkpt lat="59.9210698" lon="17.6419197">
        <ele>25.6123</ele>
        <time>2013-05-19T18:11:46Z</time>
      </trkpt>
      <trkpt lat="59.9211365" lon="17.6419119">
        <ele>25.6123</ele>
        <time>2013-05-19T18:11:47Z</time>
      </trkpt>
      <trkpt lat="59.9212023" lon="17.6419072">
        <ele>25.6123</ele>
        <time>2013-05-19T18:11:48Z</time>
      </trkpt>
      <trkpt lat="59.9212663" lon="17.6419009">
        <ele>25.6123</ele>
        <time>2013-05-19T18:11:49Z</time>
      </trkpt>
      <trkpt lat="59.9213296" lon="17.6418938">
        <ele>25.6123</ele>
        <time>2013-05-19T18:11:50Z</time>
      </trkpt>
      <trkpt lat="59.9213903" lon="17.6418862">
        <ele>25.1317</ele>
        <time>2013-05-19T18:11:51Z</time>
      </trkpt>
      <trkpt lat="59.9214514" lon="17.6418802">
        <ele>24.651</ele>
        <time>2013-05-19T18:11:52Z</time>
      </trkpt>
      <trkpt lat="59.921513" lon="17.641875">
        <ele>25.1317</ele>
        <time>2013-05-19T18:11:53Z</time>
      </trkpt>
      <trkpt lat="59.9215756" lon="17.64187">
        <ele>26.0929</ele>
        <time>2013-05-19T18:11:54Z</time>
      </trkpt>
      <trkpt lat="59.9216362" lon="17.6418623">
        <ele>26.0929</ele>
        <time>2013-05-19T18:11:55Z</time>
      </trkpt>
      <trkpt lat="59.9217001" lon="17.6418535">
        <ele>25.6123</ele>
        <time>2013-05-19T18:11:56Z</time>
      </trkpt>
      <trkpt lat="59.9217669" lon="17.6418507">
        <ele>25.6123</ele>
        <time>2013-05-19T18:11:57Z</time>
      </trkpt>
      <trkpt lat="59.9218333" lon="17.6418432">
        <ele>25.1317</ele>
        <time>2013-05-19T18:11:58Z</time>
      </trkpt>
      <trkpt lat="59.921901" lon="17.6418369">
        <ele>25.1317</ele>
        <time>2013-05-19T18:11:59Z</time>
      </trkpt>
      <trkpt lat="59.9219691" lon="17.64183">
        <ele>24.651</ele>
        <time>2013-05-19T18:12:00Z</time>
      </trkpt>
      <trkpt lat="59.9220384" lon="17.6418217">
        <ele>24.651</ele>
        <time>2013-05-19T18:12:01Z</time>
      </trkpt>
      <trkpt lat="59.9221079" lon="17.6418118">
        <ele>24.1703</ele>
        <time>2013-05-19T18:12:02Z</time>
      </trkpt>
      <trkpt lat="59.922178" lon="17.6418011">
        <ele>24.1703</ele>
        <time>2013-05-19T18:12:03Z</time>
      </trkpt>
      <trkpt lat="59.9222477" lon="17.6417902">
        <ele>23.6896</ele>
        <time>2013-05-19T18:12:04Z</time>
      </trkpt>
      <trkpt lat="59.9223166" lon="17.6417788">
        <ele>23.6896</ele>
        <time>2013-05-19T18:12:05Z</time>
      </trkpt>
      <trkpt lat="59.9223852" lon="17.6417683">
        <ele>23.209</ele>
        <time>2013-05-19T18:12:06Z</time>
      </trkpt>
      <trkpt lat="59.9224532" lon="17.6417592">
        <ele>23.209</ele>
        <time>2013-05-19T18:12:07Z</time>
      </trkpt>
      <trkpt lat="59.9225208" lon="17.6417512">
        <ele>22.7283</ele>
        <time>2013-05-19T18:12:08Z</time>
      </trkpt>
      <trkpt lat="59.9225889" lon="17.641741">
        <ele>22.7283</ele>
        <time>2013-05-19T18:12:09Z</time>
      </trkpt>
      <trkpt lat="59.922657" lon="17.6417307">
        <ele>22.2476</ele>
        <time>2013-05-19T18:12:10Z</time>
      </trkpt>
      <trkpt lat="59.9227252" lon="17.641722">
        <ele>22.2476</ele>
        <time>2013-05-19T18:12:11Z</time>
      </trkpt>
      <trkpt lat="59.9227934" lon="17.6417137">
        <ele>22.2476</ele>
        <time>2013-05-19T18:12:12Z</time>
      </trkpt>
      <trkpt lat="59.9228621" lon="17.6417104">
        <ele>21.767</ele>
        <time>2013-05-19T18:12:13Z</time>
      </trkpt>
      <trkpt lat="59.9229326" lon="17.6417088">
        <ele>21.767</ele>
        <time>2013-05-19T18:12:14Z</time>
      </trkpt>
      <trkpt lat="59.9230045" lon="17.6417032">
        <ele>21.2864</ele>
        <time>2013-05-19T18:12:15Z</time>
      </trkpt>
      <trkpt lat="59.9230778" lon="17.6416974">
        <ele>21.2864</ele>
        <time>2013-05-19T18:12:16Z</time>
      </trkpt>
      <trkpt lat="59.9231509" lon="17.6416861">
        <ele>21.2864</ele>
        <time>2013-05-19T18:12:17Z</time>
      </trkpt>
      <trkpt lat="59.9232244" lon="17.6416752">
        <ele>20.8057</ele>
        <time>2013-05-19T18:12:18Z</time>
      </trkpt>
      <trkpt lat="59.9232986" lon="17.6416658">
        <ele>20.8057</ele>
        <time>2013-05-19T18:12:19Z</time>
      </trkpt>
      <trkpt lat="59.9233737" lon="17.6416551">
        <ele>20.325</ele>
        <time>2013-05-19T18:12:20Z</time>
      </trkpt>
      <trkpt lat="59.9234495" lon="17.6416435">
        <ele>20.325</ele>
        <time>2013-05-19T18:12:21Z</time>
      </trkpt>
      <trkpt lat="59.9235266" lon="17.6416317">
        <ele>19.8444</ele>
        <time>2013-05-19T18:12:22Z</time>
      </trkpt>
      <trkpt lat="59.9236041" lon="17.6416188">
        <ele>19.3638</ele>
        <time>2013-05-19T18:12:23Z</time>
      </trkpt>
      <trkpt lat="59.9236821" lon="17.6416047">
        <ele>19.3638</ele>
        <time>2013-05-19T18:12:24Z</time>
      </trkpt>
      <trkpt lat="59.9237612" lon="17.6415918">
        <ele>18.8831</ele>
        <time>2013-05-19T18:12:25Z</time>
      </trkpt>
      <trkpt lat="59.9238405" lon="17.6415819">
        <ele>18.8831</ele>
        <time>2013-05-19T18:12:26Z</time>
      </trkpt>
      <trkpt lat="59.9239197" lon="17.6415737">
        <ele>18.4023</ele>
        <time>2013-05-19T18:12:27Z</time>
      </trkpt>
      <trkpt lat="59.9239986" lon="17.6415638">
        <ele>18.4023</ele>
        <time>2013-05-19T18:12:28Z</time>
      </trkpt>
      <trkpt lat="59.9240776" lon="17.6415529">
        <ele>18.4023</ele>
        <time>2013-05-19T18:12:29Z</time>
      </trkpt>
      <trkpt lat="59.9241556" lon="17.6415446">
        <ele>18.4023</ele>
        <time>2013-05-19T18:12:30Z</time>
      </trkpt>
      <trkpt lat="59.924233" lon="17.6415394">
        <ele>18.4023</ele>
        <time>2013-05-19T18:12:31Z</time>
      </trkpt>
      <trkpt lat="59.9243092" lon="17.6415364">
        <ele>17.9218</ele>
        <time>2013-05-19T18:12:32Z</time>
      </trkpt>
      <trkpt lat="59.9243843" lon="17.6415307">
        <ele>17.9218</ele>
        <time>2013-05-19T18:12:33Z</time>
      </trkpt>
      <trkpt lat="59.9244585" lon="17.6415209">
        <ele>17.9218</ele>
        <time>2013-05-19T18:12:34Z</time>
      </trkpt>
      <trkpt lat="59.9245322" lon="17.6415086">
        <ele>17.9218</ele>
        <time>2013-05-19T18:12:35Z</time>
      </trkpt>
      <trkpt lat="59.9246057" lon="17.6414935">
        <ele>17.9218</ele>
        <time>2013-05-19T18:12:36Z</time>
      </trkpt>
      <trkpt lat="59.9246792" lon="17.6414753">
        <ele>17.9218</ele>
        <time>2013-05-19T18:12:37Z</time>
      </trkpt>
      <trkpt lat="59.9247525" lon="17.6414562">
        <ele>17.9218</ele>
        <time>2013-05-19T18:12:38Z</time>
      </trkpt>
      <trkpt lat="59.9248257" lon="17.6414385">
        <ele>17.9218</ele>
        <time>2013-05-19T18:12:39Z</time>
      </trkpt>
      <trkpt lat="59.9248993" lon="17.6414271">
        <ele>17.9218</ele>
        <time>2013-05-19T18:12:40Z</time>
      </trkpt>
      <trkpt lat="59.9249732" lon="17.6414214">
        <ele>17.4412</ele>
        <time>2013-05-19T18:12:41Z</time>
      </trkpt>
      <trkpt lat="59.9250476" lon="17.6414215">
        <ele>17.4412</ele>
        <time>2013-05-19T18:12:42Z</time>
      </trkpt>
      <trkpt lat="59.9251225" lon="17.641423">
        <ele>17.4412</ele>
        <time>2013-05-19T18:12:43Z</time>
      </trkpt>
      <trkpt lat="59.9251976" lon="17.6414261">
        <ele>17.4412</ele>
        <time>2013-05-19T18:12:44Z</time>
      </trkpt>
      <trkpt lat="59.9252719" lon="17.6414302">
        <ele>17.4412</ele>
        <time>2013-05-19T18:12:45Z</time>
      </trkpt>
      <trkpt lat="59.9253459" lon="17.6414309">
        <ele>16.9604</ele>
        <time>2013-05-19T18:12:46Z</time>
      </trkpt>
      <trkpt lat="59.92542" lon="17.641426">
        <ele>16.4797</ele>
        <time>2013-05-19T18:12:47Z</time>
      </trkpt>
      <trkpt lat="59.9254954" lon="17.6414192">
        <ele>16.4797</ele>
        <time>2013-05-19T18:12:48Z</time>
      </trkpt>
      <trkpt lat="59.9255716" lon="17.641412">
        <ele>15.999</ele>
        <time>2013-05-19T18:12:49Z</time>
      </trkpt>
      <trkpt lat="59.9256482" lon="17.6414029">
        <ele>15.999</ele>
        <time>2013-05-19T18:12:50Z</time>
      </trkpt>
      <trkpt lat="59.9257251" lon="17.6413938">
        <ele>15.5184</ele>
        <time>2013-05-19T18:12:51Z</time>
      </trkpt>
      <trkpt lat="59.9258022" lon="17.6413841">
        <ele>15.5184</ele>
        <time>2013-05-19T18:12:52Z</time>
      </trkpt>
      <trkpt lat="59.9258793" lon="17.6413746">
        <ele>15.0377</ele>
        <time>2013-05-19T18:12:53Z</time>
      </trkpt>
      <trkpt lat="59.9259571" lon="17.6413661">
        <ele>15.0377</ele>
        <time>2013-05-19T18:12:54Z</time>
      </trkpt>
      <trkpt lat="59.9260359" lon="17.6413577">
        <ele>14.557</ele>
        <time>2013-05-19T18:12:55Z</time>
      </trkpt>
      <trkpt lat="59.9261151" lon="17.6413489">
        <ele>14.557</ele>
        <time>2013-05-19T18:12:56Z</time>
      </trkpt>
      <trkpt lat="59.9261942" lon="17.6413401">
        <ele>14.0764</ele>
        <time>2013-05-19T18:12:57Z</time>
      </trkpt>
      <trkpt lat="59.9262725" lon="17.6413308">
        <ele>14.0764</ele>
        <time>2013-05-19T18:12:58Z</time>
      </trkpt>
      <trkpt lat="59.9263501" lon="17.6413215">
        <ele>13.5958</ele>
        <time>2013-05-19T18:12:59Z</time>
      </trkpt>
      <trkpt lat="59.926429" lon="17.6413111">
        <ele>15.0377</ele>
        <time>2013-05-19T18:13:00Z</time>
      </trkpt>
      <trkpt lat="59.9265068" lon="17.6413003">
        <ele>15.5184</ele>
        <time>2013-05-19T18:13:01Z</time>
      </trkpt>
      <trkpt lat="59.9265834" lon="17.6412878">
        <ele>16.4797</ele>
        <time>2013-05-19T18:13:02Z</time>
      </trkpt>
      <trkpt lat="59.9266591" lon="17.6412749">
        <ele>17.4412</ele>
        <time>2013-05-19T18:13:03Z</time>
      </trkpt>
      <trkpt lat="59.9267342" lon="17.6412624">
        <ele>17.9218</ele>
        <time>2013-05-19T18:13:04Z</time>
      </trkpt>
      <trkpt lat="59.9268096" lon="17.6412499">
        <ele>18.4023</ele>
        <time>2013-05-19T18:13:05Z</time>
      </trkpt>
      <trkpt lat="59.926885" lon="17.6412382">
        <ele>19.3638</ele>
        <time>2013-05-19T18:13:06Z</time>
      </trkpt>
      <trkpt lat="59.9269606" lon="17.6412272">
        <ele>19.8444</ele>
        <time>2013-05-19T18:13:07Z</time>
      </trkpt>
      <trkpt lat="59.9270361" lon="17.6412153">
        <ele>20.325</ele>
        <time>2013-05-19T18:13:08Z</time>
      </trkpt>
      <trkpt lat="59.9271107" lon="17.6412057">
        <ele>20.8057</ele>
        <time>2013-05-19T18:13:09Z</time>
      </trkpt>
      <trkpt lat="59.9271843" lon="17.6411995">
        <ele>21.2864</ele>
        <time>2013-05-19T18:13:10Z</time>
      </trkpt>
      <trkpt lat="59.9272568" lon="17.6411939">
        <ele>21.767</ele>
        <time>2013-05-19T18:13:11Z</time>
      </trkpt>
      <trkpt lat="59.9273281" lon="17.6411865">
        <ele>22.2476</ele>
        <time>2013-05-19T18:13:12Z</time>
      </trkpt>
      <trkpt lat="59.9273988" lon="17.6411781">
        <ele>22.7283</ele>
        <time>2013-05-19T18:13:13Z</time>
      </trkpt>
      <trkpt lat="59.9274695" lon="17.6411691">
        <ele>23.209</ele>
        <time>2013-05-19T18:13:14Z</time>
      </trkpt>
      <trkpt lat="59.9275402" lon="17.6411599">
        <ele>23.6896</ele>
        <time>2013-05-19T18:13:15Z</time>
      </trkpt>
      <trkpt lat="59.9276094" lon="17.6411558">
        <ele>22.7283</ele>
        <time>2013-05-19T18:13:16Z</time>
      </trkpt>
      <trkpt lat="59.9276785" lon="17.6411506">
        <ele>22.2476</ele>
        <time>2013-05-19T18:13:17Z</time>
      </trkpt>
      <trkpt lat="59.9277479" lon="17.6411479">
        <ele>21.767</ele>
        <time>2013-05-19T18:13:18Z</time>
      </trkpt>
      <trkpt lat="59.9278178" lon="17.6411452">
        <ele>21.767</ele>
        <time>2013-05-19T18:13:19Z</time>
      </trkpt>
      <trkpt lat="59.9278868" lon="17.6411412">
        <ele>21.767</ele>
        <time>2013-05-19T18:13:20Z</time>
      </trkpt>
      <trkpt lat="59.9279551" lon="17.6411359">
        <ele>21.2864</ele>
        <time>2013-05-19T18:13:21Z</time>
      </trkpt>
      <trkpt lat="59.9280224" lon="17.6411256">
        <ele>21.2864</ele>
        <time>2013-05-19T18:13:22Z</time>
      </trkpt>
      <trkpt lat="59.9280896" lon="17.6411173">
        <ele>21.767</ele>
        <time>2013-05-19T18:13:23Z</time>
      </trkpt>
      <trkpt lat="59.9281559" lon="17.6411114">
        <ele>21.767</ele>
        <time>2013-05-19T18:13:24Z</time>
      </trkpt>
      <trkpt lat="59.9282204" lon="17.6411064">
        <ele>21.767</ele>
        <time>2013-05-19T18:13:25Z</time>
      </trkpt>
      <trkpt lat="59.9282841" lon="17.6410993">
        <ele>21.767</ele>
        <time>2013-05-19T18:13:26Z</time>
      </trkpt>
      <trkpt lat="59.928347" lon="17.641092">
        <ele>21.2864</ele>
        <time>2013-05-19T18:13:27Z</time>
      </trkpt>
      <trkpt lat="59.9284094" lon="17.6410831">
        <ele>21.2864</ele>
        <time>2013-05-19T18:13:28Z</time>
      </trkpt>
      <trkpt lat="59.9284711" lon="17.6410722">
        <ele>20.8057</ele>
        <time>2013-05-19T18:13:29Z</time>
      </trkpt>
      <trkpt lat="59.9285316" lon="17.6410631">
        <ele>20.8057</ele>
        <time>2013-05-19T18:13:30Z</time>
      </trkpt>
      <trkpt lat="59.9285913" lon="17.641055">
        <ele>20.325</ele>
        <time>2013-05-19T18:13:31Z</time>
      </trkpt>
      <trkpt lat="59.9286509" lon="17.6410437">
        <ele>20.325</ele>
        <time>2013-05-19T18:13:32Z</time>
      </trkpt>
      <trkpt lat="59.9287115" lon="17.641027">
        <ele>20.8057</ele>
        <time>2013-05-19T18:13:33Z</time>
      </trkpt>
      <trkpt lat="59.9287735" lon="17.6410106">
        <ele>20.8057</ele>
        <time>2013-05-19T18:13:34Z</time>
      </trkpt>
      <trkpt lat="59.9288361" lon="17.6409955">
        <ele>21.2864</ele>
        <time>2013-05-19T18:13:35Z</time>
      </trkpt>
      <trkpt lat="59.928899" lon="17.6409802">
        <ele>21.2864</ele>
        <time>2013-05-19T18:13:36Z</time>
      </trkpt>
      <trkpt lat="59.928963" lon="17.6409685">
        <ele>21.2864</ele>
        <time>2013-05-19T18:13:37Z</time>
      </trkpt>
      <trkpt lat="59.9290283" lon="17.6409624">
        <ele>21.2864</ele>
        <time>2013-05-19T18:13:38Z</time>
      </trkpt>
      <trkpt lat="59.9290945" lon="17.6409574">
        <ele>21.2864</ele>
        <time>2013-05-19T18:13:39Z</time>
      </trkpt>
      <trkpt lat="59.9291614" lon="17.6409516">
        <ele>21.2864</ele>
        <time>2013-05-19T18:13:40Z</time>
      </trkpt>
      <trkpt lat="59.9292284" lon="17.6409474">
        <ele>21.2864</ele>
        <time>2013-05-19T18:13:41Z</time>
      </trkpt>
      <trkpt lat="59.9292963" lon="17.6409436">
        <ele>21.767</ele>
        <time>2013-05-19T18:13:42Z</time>
      </trkpt>
      <trkpt lat="59.9293651" lon="17.6409381">
        <ele>22.2476</ele>
        <time>2013-05-19T18:13:43Z</time>
      </trkpt>
      <trkpt lat="59.9294343" lon="17.6409303">
        <ele>22.7283</ele>
        <time>2013-05-19T18:13:44Z</time>
      </trkpt>
      <trkpt lat="59.9295038" lon="17.6409199">
        <ele>23.209</ele>
        <time>2013-05-19T18:13:45Z</time>
      </trkpt>
      <trkpt lat="59.9295729" lon="17.6409065">
        <ele>23.209</ele>
        <time>2013-05-19T18:13:46Z</time>
      </trkpt>
      <trkpt lat="59.9296415" lon="17.6408906">
        <ele>23.6896</ele>
        <time>2013-05-19T18:13:47Z</time>
      </trkpt>
      <trkpt lat="59.9297084" lon="17.6408745">
        <ele>24.1703</ele>
        <time>2013-05-19T18:13:48Z</time>
      </trkpt>
      <trkpt lat="59.9297736" lon="17.6408578">
        <ele>24.651</ele>
        <time>2013-05-19T18:13:49Z</time>
      </trkpt>
      <trkpt lat="59.929838" lon="17.6408444">
        <ele>25.1317</ele>
        <time>2013-05-19T18:13:50Z</time>
      </trkpt>
      <trkpt lat="59.9299031" lon="17.6408379">
        <ele>25.1317</ele>
        <time>2013-05-19T18:13:51Z</time>
      </trkpt>
      <trkpt lat="59.9299697" lon="17.6408374">
        <ele>25.1317</ele>
        <time>2013-05-19T18:13:52Z</time>
      </trkpt>
      <trkpt lat="59.9300359" lon="17.640841">
        <ele>25.1317</ele>
        <time>2013-05-19T18:13:53Z</time>
      </trkpt>
      <trkpt lat="59.9301022" lon="17.6408422">
        <ele>25.6123</ele>
        <time>2013-05-19T18:13:54Z</time>
      </trkpt>
      <trkpt lat="59.9301676" lon="17.6408428">
        <ele>25.6123</ele>
        <time>2013-05-19T18:13:55Z</time>
      </trkpt>
      <trkpt lat="59.9302317" lon="17.6408437">
        <ele>26.0929</ele>
        <time>2013-05-19T18:13:56Z</time>
      </trkpt>
      <trkpt lat="59.9302944" lon="17.6408427">
        <ele>26.0929</ele>
        <time>2013-05-19T18:13:57Z</time>
      </trkpt>
      <trkpt lat="59.9303566" lon="17.6408428">
        <ele>26.5736</ele>
        <time>2013-05-19T18:13:58Z</time>
      </trkpt>
      <trkpt lat="59.930419" lon="17.6408454">
        <ele>27.0543</ele>
        <time>2013-05-19T18:13:59Z</time>
      </trkpt>
      <trkpt lat="59.9304809" lon="17.6408454">
        <ele>27.0543</ele>
        <time>2013-05-19T18:14:00Z</time>
      </trkpt>
      <trkpt lat="59.9305415" lon="17.6408396">
        <ele>27.5349</ele>
        <time>2013-05-19T18:14:01Z</time>
      </trkpt>
      <trkpt lat="59.9306001" lon="17.6408282">
        <ele>28.0155</ele>
        <time>2013-05-19T18:14:02Z</time>
      </trkpt>
      <trkpt lat="59.9306561" lon="17.6408196">
        <ele>28.0155</ele>
        <time>2013-05-19T18:14:03Z</time>
      </trkpt>
      <trkpt lat="59.9307114" lon="17.6408086">
        <ele>28.4962</ele>
        <time>2013-05-19T18:14:04Z</time>
      </trkpt>
      <trkpt lat="59.9307654" lon="17.6408037">
        <ele>28.4962</ele>
        <time>2013-05-19T18:14:05Z</time>
      </trkpt>
      <trkpt lat="59.9308205" lon="17.6408045">
        <ele>28.4962</ele>
        <time>2013-05-19T18:14:06Z</time>
      </trkpt>
      <trkpt lat="59.9308775" lon="17.6408136">
        <ele>28.4962</ele>
        <time>2013-05-19T18:14:07Z</time>
      </trkpt>
      <trkpt lat="59.9309351" lon="17.6408335">
        <ele>28.4962</ele>
        <time>2013-05-19T18:14:08Z</time>
      </trkpt>
      <trkpt lat="59.9309937" lon="17.6408654">
        <ele>28.4962</ele>
        <time>2013-05-19T18:14:09Z</time>
      </trkpt>
      <trkpt lat="59.9310487" lon="17.640905">
        <ele>28.9769</ele>
        <time>2013-05-19T18:14:10Z</time>
      </trkpt>
      <trkpt lat="59.9311023" lon="17.6409481">
        <ele>28.4962</ele>
        <time>2013-05-19T18:14:11Z</time>
      </trkpt>
      <trkpt lat="59.9311553" lon="17.6409933">
        <ele>28.4962</ele>
        <time>2013-05-19T18:14:12Z</time>
      </trkpt>
      <trkpt lat="59.9312062" lon="17.6410381">
        <ele>28.4962</ele>
        <time>2013-05-19T18:14:13Z</time>
      </trkpt>
      <trkpt lat="59.9312548" lon="17.6410824">
        <ele>27.5349</ele>
        <time>2013-05-19T18:14:14Z</time>
      </trkpt>
      <trkpt lat="59.9313026" lon="17.6411241">
        <ele>27.0543</ele>
        <time>2013-05-19T18:14:15Z</time>
      </trkpt>
      <trkpt lat="59.9313465" lon="17.6411588">
        <ele>26.5736</ele>
        <time>2013-05-19T18:14:16Z</time>
      </trkpt>
      <trkpt lat="59.931389" lon="17.641195">
        <ele>26.5736</ele>
        <time>2013-05-19T18:14:17Z</time>
      </trkpt>
      <trkpt lat="59.9314336" lon="17.6412303">
        <ele>26.0929</ele>
        <time>2013-05-19T18:14:18Z</time>
      </trkpt>
      <trkpt lat="59.9314823" lon="17.6412699">
        <ele>25.6123</ele>
        <time>2013-05-19T18:14:19Z</time>
      </trkpt>
      <trkpt lat="59.931534" lon="17.6413074">
        <ele>25.1317</ele>
        <time>2013-05-19T18:14:20Z</time>
      </trkpt>
      <trkpt lat="59.9315863" lon="17.6413448">
        <ele>25.6123</ele>
        <time>2013-05-19T18:14:21Z</time>
      </trkpt>
      <trkpt lat="59.9316407" lon="17.6413908">
        <ele>25.6123</ele>
        <time>2013-05-19T18:14:22Z</time>
      </trkpt>
      <trkpt lat="59.9316962" lon="17.6414363">
        <ele>25.6123</ele>
        <time>2013-05-19T18:14:23Z</time>
      </trkpt>
      <trkpt lat="59.9317531" lon="17.6414794">
        <ele>25.1317</ele>
        <time>2013-05-19T18:14:24Z</time>
      </trkpt>
      <trkpt lat="59.9318127" lon="17.6415183">
        <ele>25.1317</ele>
        <time>2013-05-19T18:14:25Z</time>
      </trkpt>
      <trkpt lat="59.9318719" lon="17.6415582">
        <ele>25.1317</ele>
        <time>2013-05-19T18:14:26Z</time>
      </trkpt>
      <trkpt lat="59.9319296" lon="17.6416012">
        <ele>25.1317</ele>
        <time>2013-05-19T18:14:27Z</time>
      </trkpt>
      <trkpt lat="59.9319831" lon="17.6416411">
        <ele>25.6123</ele>
        <time>2013-05-19T18:14:28Z</time>
      </trkpt>
      <trkpt lat="59.9320321" lon="17.6416847">
        <ele>26.0929</ele>
        <time>2013-05-19T18:14:29Z</time>
      </trkpt>
      <trkpt lat="59.9320779" lon="17.6417312">
        <ele>26.0929</ele>
        <time>2013-05-19T18:14:30Z</time>
      </trkpt>
      <trkpt lat="59.9321234" lon="17.6417768">
        <ele>25.6123</ele>
        <time>2013-05-19T18:14:31Z</time>
      </trkpt>
      <trkpt lat="59.9321727" lon="17.6418217">
        <ele>26.0929</ele>
        <time>2013-05-19T18:14:32Z</time>
      </trkpt>
      <trkpt lat="59.932223" lon="17.6418693">
        <ele>26.0929</ele>
        <time>2013-05-19T18:14:33Z</time>
      </trkpt>
      <trkpt lat="59.9322738" lon="17.6419182">
        <ele>26.0929</ele>
        <time>2013-05-19T18:14:34Z</time>
      </trkpt>
      <trkpt lat="59.932326" lon="17.6419656">
        <ele>26.0929</ele>
        <time>2013-05-19T18:14:35Z</time>
      </trkpt>
      <trkpt lat="59.9323794" lon="17.6420144">
        <ele>26.0929</ele>
        <time>2013-05-19T18:14:36Z</time>
      </trkpt>
      <trkpt lat="59.9324318" lon="17.6420658">
        <ele>26.0929</ele>
        <time>2013-05-19T18:14:37Z</time>
      </trkpt>
      <trkpt lat="59.932484" lon="17.6421177">
        <ele>26.0929</ele>
        <time>2013-05-19T18:14:38Z</time>
      </trkpt>
      <trkpt lat="59.9325342" lon="17.6421697">
        <ele>26.0929</ele>
        <time>2013-05-19T18:14:39Z</time>
      </trkpt>
      <trkpt lat="59.9325845" lon="17.6422198">
        <ele>26.5736</ele>
        <time>2013-05-19T18:14:40Z</time>
      </trkpt>
      <trkpt lat="59.9326327" lon="17.6422734">
        <ele>26.5736</ele>
        <time>2013-05-19T18:14:41Z</time>
      </trkpt>
      <trkpt lat="59.9326791" lon="17.6423295">
        <ele>26.5736</ele>
        <time>2013-05-19T18:14:42Z</time>
      </trkpt>
      <trkpt lat="59.9327203" lon="17.6423918">
        <ele>26.5736</ele>
        <time>2013-05-19T18:14:43Z</time>
      </trkpt>
      <trkpt lat="59.9327591" lon="17.6424599">
        <ele>27.0543</ele>
        <time>2013-05-19T18:14:44Z</time>
      </trkpt>
      <trkpt lat="59.9327954" lon="17.6425315">
        <ele>27.0543</ele>
        <time>2013-05-19T18:14:45Z</time>
      </trkpt>
      <trkpt lat="59.9328302" lon="17.6426036">
        <ele>27.5349</ele>
        <time>2013-05-19T18:14:46Z</time>
      </trkpt>
      <trkpt lat="59.9328656" lon="17.6426715">
        <ele>28.0155</ele>
        <time>2013-05-19T18:14:47Z</time>
      </trkpt>
      <trkpt lat="59.9329031" lon="17.6427338">
        <ele>27.5349</ele>
        <time>2013-05-19T18:14:48Z</time>
      </trkpt>
      <trkpt lat="59.9329426" lon="17.6427924">
        <ele>27.5349</ele>
        <time>2013-05-19T18:14:49Z</time>
      </trkpt>
      <trkpt lat="59.9329839" lon="17.6428483">
        <ele>28.0155</ele>
        <time>2013-05-19T18:14:50Z</time>
      </trkpt>
      <trkpt lat="59.9330258" lon="17.6428987">
        <ele>28.4962</ele>
        <time>2013-05-19T18:14:51Z</time>
      </trkpt>
      <trkpt lat="59.9330662" lon="17.6429474">
        <ele>28.9769</ele>
        <time>2013-05-19T18:14:52Z</time>
      </trkpt>
      <trkpt lat="59.933103" lon="17.6430013">
        <ele>28.9769</ele>
        <time>2013-05-19T18:14:53Z</time>
      </trkpt>
      <trkpt lat="59.9331414" lon="17.6430546">
        <ele>29.4575</ele>
        <time>2013-05-19T18:14:54Z</time>
      </trkpt>
      <trkpt lat="59.9331783" lon="17.643107">
        <ele>29.4575</ele>
        <time>2013-05-19T18:14:55Z</time>
      </trkpt>
      <trkpt lat="59.9332139" lon="17.6431596">
        <ele>29.9381</ele>
        <time>2013-05-19T18:14:56Z</time>
      </trkpt>
      <trkpt lat="59.9332474" lon="17.6432137">
        <ele>29.9381</ele>
        <time>2013-05-19T18:14:57Z</time>
      </trkpt>
      <trkpt lat="59.933279" lon="17.6432703">
        <ele>29.4575</ele>
        <time>2013-05-19T18:14:58Z</time>
      </trkpt>
      <trkpt lat="59.9333098" lon="17.6433255">
        <ele>29.4575</ele>
        <time>2013-05-19T18:14:59Z</time>
      </trkpt>
      <trkpt lat="59.9333399" lon="17.6433764">
        <ele>29.4575</ele>
        <time>2013-05-19T18:15:00Z</time>
      </trkpt>
      <trkpt lat="59.9333692" lon="17.6434251">
        <ele>28.9769</ele>
        <time>2013-05-19T18:15:01Z</time>
      </trkpt>
      <trkpt lat="59.9334002" lon="17.6434697">
        <ele>28.9769</ele>
        <time>2013-05-19T18:15:02Z</time>
      </trkpt>
      <trkpt lat="59.9334294" lon="17.6435038">
        <ele>29.9381</ele>
        <time>2013-05-19T18:15:03Z</time>
      </trkpt>
      <trkpt lat="59.9334584" lon="17.6435375">
        <ele>30.4188</ele>
        <time>2013-05-19T18:15:04Z</time>
      </trkpt>
      <trkpt lat="59.9334879" lon="17.6435709">
        <ele>30.8995</ele>
        <time>2013-05-19T18:15:05Z</time>
      </trkpt>
      <trkpt lat="59.9335168" lon="17.6436099">
        <ele>30.8995</ele>
        <time>2013-05-19T18:15:06Z</time>
      </trkpt>
      <trkpt lat="59.9335373" lon="17.6436443">
        <ele>31.8607</ele>
        <time>2013-05-19T18:15:07Z</time>
      </trkpt>
      <trkpt lat="59.9335589" lon="17.6436788">
        <ele>31.3801</ele>
        <time>2013-05-19T18:15:08Z</time>
      </trkpt>
      <trkpt lat="59.9335901" lon="17.6437165">
        <ele>32.3416</ele>
        <time>2013-05-19T18:15:09Z</time>
      </trkpt>
      <trkpt lat="59.933618" lon="17.6437463">
        <ele>32.8223</ele>
        <time>2013-05-19T18:15:10Z</time>
      </trkpt>
      <trkpt lat="59.9336484" lon="17.6437816">
        <ele>32.8223</ele>
        <time>2013-05-19T18:15:11Z</time>
      </trkpt>
      <trkpt lat="59.9336811" lon="17.6438161">
        <ele>32.8223</ele>
        <time>2013-05-19T18:15:12Z</time>
      </trkpt>
      <trkpt lat="59.9337188" lon="17.6438452">
        <ele>33.3029</ele>
        <time>2013-05-19T18:15:13Z</time>
      </trkpt>
      <trkpt lat="59.9337505" lon="17.6438862">
        <ele>32.8223</ele>
        <time>2013-05-19T18:15:14Z</time>
      </trkpt>
      <trkpt lat="59.9337844" lon="17.6439255">
        <ele>32.8223</ele>
        <time>2013-05-19T18:15:15Z</time>
      </trkpt>
      <trkpt lat="59.9338206" lon="17.6439659">
        <ele>32.8223</ele>
        <time>2013-05-19T18:15:16Z</time>
      </trkpt>
      <trkpt lat="59.9338586" lon="17.6440121">
        <ele>32.8223</ele>
        <time>2013-05-19T18:15:17Z</time>
      </trkpt>
      <trkpt lat="59.9338952" lon="17.6440621">
        <ele>32.8223</ele>
        <time>2013-05-19T18:15:18Z</time>
      </trkpt>
      <trkpt lat="59.9339376" lon="17.6441083">
        <ele>33.7834</ele>
        <time>2013-05-19T18:15:19Z</time>
      </trkpt>
      <trkpt lat="59.9339785" lon="17.644156">
        <ele>34.7449</ele>
        <time>2013-05-19T18:15:20Z</time>
      </trkpt>
      <trkpt lat="59.9340182" lon="17.6442122">
        <ele>34.7449</ele>
        <time>2013-05-19T18:15:21Z</time>
      </trkpt>
      <trkpt lat="59.9340598" lon="17.6442627">
        <ele>35.2255</ele>
        <time>2013-05-19T18:15:22Z</time>
      </trkpt>
      <trkpt lat="59.9341043" lon="17.6443141">
        <ele>35.2255</ele>
        <time>2013-05-19T18:15:23Z</time>
      </trkpt>
      <trkpt lat="59.9341493" lon="17.6443678">
        <ele>35.2255</ele>
        <time>2013-05-19T18:15:24Z</time>
      </trkpt>
      <trkpt lat="59.9341922" lon="17.6444247">
        <ele>35.7061</ele>
        <time>2013-05-19T18:15:25Z</time>
      </trkpt>
      <trkpt lat="59.9342334" lon="17.6444823">
        <ele>36.6675</ele>
        <time>2013-05-19T18:15:26Z</time>
      </trkpt>
      <trkpt lat="59.9342728" lon="17.6445407">
        <ele>37.1481</ele>
        <time>2013-05-19T18:15:27Z</time>
      </trkpt>
      <trkpt lat="59.9343124" lon="17.644603">
        <ele>37.6287</ele>
        <time>2013-05-19T18:15:28Z</time>
      </trkpt>
      <trkpt lat="59.9343488" lon="17.6446672">
        <ele>38.1094</ele>
        <time>2013-05-19T18:15:29Z</time>
      </trkpt>
      <trkpt lat="59.93438" lon="17.6447236">
        <ele>39.0707</ele>
        <time>2013-05-19T18:15:30Z</time>
      </trkpt>
      <trkpt lat="59.9344074" lon="17.6447667">
        <ele>40.0321</ele>
        <time>2013-05-19T18:15:31Z</time>
      </trkpt>
      <trkpt lat="59.934439" lon="17.6448144">
        <ele>39.0707</ele>
        <time>2013-05-19T18:15:32Z</time>
      </trkpt>
      <trkpt lat="59.9344717" lon="17.6448574">
        <ele>39.5513</ele>
        <time>2013-05-19T18:15:33Z</time>
      </trkpt>
      <trkpt lat="59.9345058" lon="17.6449034">
        <ele>39.5513</ele>
        <time>2013-05-19T18:15:34Z</time>
      </trkpt>
      <trkpt lat="59.9345412" lon="17.6449502">
        <ele>39.0707</ele>
        <time>2013-05-19T18:15:35Z</time>
      </trkpt>
      <trkpt lat="59.9345784" lon="17.6449979">
        <ele>39.0707</ele>
        <time>2013-05-19T18:15:36Z</time>
      </trkpt>
      <trkpt lat="59.9346145" lon="17.6450449">
        <ele>39.5513</ele>
        <time>2013-05-19T18:15:37Z</time>
      </trkpt>
      <trkpt lat="59.9346539" lon="17.6450895">
        <ele>39.5513</ele>
        <time>2013-05-19T18:15:38Z</time>
      </trkpt>
      <trkpt lat="59.9346918" lon="17.6451393">
        <ele>39.5513</ele>
        <time>2013-05-19T18:15:39Z</time>
      </trkpt>
      <trkpt lat="59.93473" lon="17.6451884">
        <ele>39.5513</ele>
        <time>2013-05-19T18:15:40Z</time>
      </trkpt>
      <trkpt lat="59.9347694" lon="17.645235">
        <ele>40.5128</ele>
        <time>2013-05-19T18:15:41Z</time>
      </trkpt>
      <trkpt lat="59.9348082" lon="17.6452843">
        <ele>41.474</ele>
        <time>2013-05-19T18:15:42Z</time>
      </trkpt>
      <trkpt lat="59.9348477" lon="17.6453382">
        <ele>42.4354</ele>
        <time>2013-05-19T18:15:43Z</time>
      </trkpt>
      <trkpt lat="59.9348871" lon="17.6453903">
        <ele>42.916</ele>
        <time>2013-05-19T18:15:44Z</time>
      </trkpt>
      <trkpt lat="59.934924" lon="17.6454609">
        <ele>42.4354</ele>
        <time>2013-05-19T18:15:45Z</time>
      </trkpt>
      <trkpt lat="59.9349558" lon="17.6455204">
        <ele>42.916</ele>
        <time>2013-05-19T18:15:46Z</time>
      </trkpt>
      <trkpt lat="59.9350005" lon="17.6455622">
        <ele>42.916</ele>
        <time>2013-05-19T18:15:47Z</time>
      </trkpt>
      <trkpt lat="59.9350435" lon="17.6456021">
        <ele>43.8773</ele>
        <time>2013-05-19T18:15:48Z</time>
      </trkpt>
      <trkpt lat="59.9350848" lon="17.6456514">
        <ele>43.8773</ele>
        <time>2013-05-19T18:15:49Z</time>
      </trkpt>
      <trkpt lat="59.9351211" lon="17.6457037">
        <ele>43.8773</ele>
        <time>2013-05-19T18:15:50Z</time>
      </trkpt>
      <trkpt lat="59.9351588" lon="17.6457592">
        <ele>44.358</ele>
        <time>2013-05-19T18:15:51Z</time>
      </trkpt>
      <trkpt lat="59.9351915" lon="17.6458235">
        <ele>44.8386</ele>
        <time>2013-05-19T18:15:52Z</time>
      </trkpt>
      <trkpt lat="59.9352154" lon="17.6458975">
        <ele>45.3192</ele>
        <time>2013-05-19T18:15:53Z</time>
      </trkpt>
      <trkpt lat="59.9352429" lon="17.6459719">
        <ele>45.3192</ele>
        <time>2013-05-19T18:15:54Z</time>
      </trkpt>
      <trkpt lat="59.935276" lon="17.6460447">
        <ele>44.358</ele>
        <time>2013-05-19T18:15:55Z</time>
      </trkpt>
      <trkpt lat="59.9353139" lon="17.6461115">
        <ele>43.3966</ele>
        <time>2013-05-19T18:15:56Z</time>
      </trkpt>
      <trkpt lat="59.9353536" lon="17.6461647">
        <ele>43.8773</ele>
        <time>2013-05-19T18:15:57Z</time>
      </trkpt>
      <trkpt lat="59.9353928" lon="17.6462176">
        <ele>44.358</ele>
        <time>2013-05-19T18:15:58Z</time>
      </trkpt>
      <trkpt lat="59.9354377" lon="17.646273">
        <ele>44.8386</ele>
        <time>2013-05-19T18:15:59Z</time>
      </trkpt>
      <trkpt lat="59.9354843" lon="17.6463316">
        <ele>45.3192</ele>
        <time>2013-05-19T18:16:00Z</time>
      </trkpt>
      <trkpt lat="59.9355354" lon="17.6463933">
        <ele>45.7999</ele>
        <time>2013-05-19T18:16:01Z</time>
      </trkpt>
      <trkpt lat="59.9355865" lon="17.6464559">
        <ele>46.2806</ele>
        <time>2013-05-19T18:16:02Z</time>
      </trkpt>
      <trkpt lat="59.9356366" lon="17.64652">
        <ele>46.7612</ele>
        <time>2013-05-19T18:16:03Z</time>
      </trkpt>
      <trkpt lat="59.9356895" lon="17.6465817">
        <ele>47.2418</ele>
        <time>2013-05-19T18:16:04Z</time>
      </trkpt>
      <trkpt lat="59.9357421" lon="17.6466441">
        <ele>47.7225</ele>
        <time>2013-05-19T18:16:05Z</time>
      </trkpt>
      <trkpt lat="59.935795" lon="17.646708">
        <ele>48.2034</ele>
        <time>2013-05-19T18:16:06Z</time>
      </trkpt>
      <trkpt lat="59.9358479" lon="17.646772">
        <ele>48.684</ele>
        <time>2013-05-19T18:16:07Z</time>
      </trkpt>
      <trkpt lat="59.9359003" lon="17.646837">
        <ele>48.684</ele>
        <time>2013-05-19T18:16:08Z</time>
      </trkpt>
      <trkpt lat="59.9359562" lon="17.646907">
        <ele>47.2418</ele>
        <time>2013-05-19T18:16:09Z</time>
      </trkpt>
      <trkpt lat="59.9360095" lon="17.6469746">
        <ele>46.7612</ele>
        <time>2013-05-19T18:16:10Z</time>
      </trkpt>
      <trkpt lat="59.9360626" lon="17.6470438">
        <ele>46.7612</ele>
        <time>2013-05-19T18:16:11Z</time>
      </trkpt>
      <trkpt lat="59.9361169" lon="17.6471133">
        <ele>46.2806</ele>
        <time>2013-05-19T18:16:12Z</time>
      </trkpt>
      <trkpt lat="59.9361722" lon="17.6471818">
        <ele>46.2806</ele>
        <time>2013-05-19T18:16:13Z</time>
      </trkpt>
      <trkpt lat="59.9362282" lon="17.6472511">
        <ele>46.2806</ele>
        <time>2013-05-19T18:16:14Z</time>
      </trkpt>
      <trkpt lat="59.9362842" lon="17.647321">
        <ele>45.7999</ele>
        <time>2013-05-19T18:16:15Z</time>
      </trkpt>
      <trkpt lat="59.9363405" lon="17.6473926">
        <ele>45.7999</ele>
        <time>2013-05-19T18:16:16Z</time>
      </trkpt>
      <trkpt lat="59.9363969" lon="17.6474645">
        <ele>45.3192</ele>
        <time>2013-05-19T18:16:17Z</time>
      </trkpt>
      <trkpt lat="59.9364546" lon="17.6475365">
        <ele>45.3192</ele>
        <time>2013-05-19T18:16:18Z</time>
      </trkpt>
      <trkpt lat="59.9365131" lon="17.6476104">
        <ele>45.3192</ele>
        <time>2013-05-19T18:16:19Z</time>
      </trkpt>
      <trkpt lat="59.9365722" lon="17.6476843">
        <ele>44.8386</ele>
        <time>2013-05-19T18:16:20Z</time>
      </trkpt>
      <trkpt lat="59.9366308" lon="17.6477563">
        <ele>44.8386</ele>
        <time>2013-05-19T18:16:21Z</time>
      </trkpt>
      <trkpt lat="59.9366892" lon="17.6478314">
        <ele>44.8386</ele>
        <time>2013-05-19T18:16:22Z</time>
      </trkpt>
      <trkpt lat="59.9367473" lon="17.6479064">
        <ele>44.8386</ele>
        <time>2013-05-19T18:16:23Z</time>
      </trkpt>
      <trkpt lat="59.9368074" lon="17.647981">
        <ele>44.8386</ele>
        <time>2013-05-19T18:16:24Z</time>
      </trkpt>
      <trkpt lat="59.9368685" lon="17.6480559">
        <ele>44.8386</ele>
        <time>2013-05-19T18:16:25Z</time>
      </trkpt>
      <trkpt lat="59.9369301" lon="17.6481281">
        <ele>45.3192</ele>
        <time>2013-05-19T18:16:26Z</time>
      </trkpt>
      <trkpt lat="59.9369891" lon="17.6482011">
        <ele>45.7999</ele>
        <time>2013-05-19T18:16:27Z</time>
      </trkpt>
      <trkpt lat="59.9370487" lon="17.6482772">
        <ele>46.2806</ele>
        <time>2013-05-19T18:16:28Z</time>
      </trkpt>
      <trkpt lat="59.93711" lon="17.6483665">
        <ele>45.7999</ele>
        <time>2013-05-19T18:16:29Z</time>
      </trkpt>
      <trkpt lat="59.9371706" lon="17.6484544">
        <ele>45.3192</ele>
        <time>2013-05-19T18:16:30Z</time>
      </trkpt>
      <trkpt lat="59.9372295" lon="17.6485441">
        <ele>44.8386</ele>
        <time>2013-05-19T18:16:31Z</time>
      </trkpt>
      <trkpt lat="59.9372871" lon="17.6486322">
        <ele>43.8773</ele>
        <time>2013-05-19T18:16:32Z</time>
      </trkpt>
      <trkpt lat="59.9373441" lon="17.6487211">
        <ele>42.916</ele>
        <time>2013-05-19T18:16:33Z</time>
      </trkpt>
      <trkpt lat="59.9374014" lon="17.6488103">
        <ele>42.4354</ele>
        <time>2013-05-19T18:16:34Z</time>
      </trkpt>
      <trkpt lat="59.9374611" lon="17.6488997">
        <ele>42.4354</ele>
        <time>2013-05-19T18:16:35Z</time>
      </trkpt>
      <trkpt lat="59.9375186" lon="17.6489936">
        <ele>42.4354</ele>
        <time>2013-05-19T18:16:36Z</time>
      </trkpt>
      <trkpt lat="59.9375735" lon="17.6490885">
        <ele>42.4354</ele>
        <time>2013-05-19T18:16:37Z</time>
      </trkpt>
      <trkpt lat="59.9376267" lon="17.649189">
        <ele>41.9547</ele>
        <time>2013-05-19T18:16:38Z</time>
      </trkpt>
      <trkpt lat="59.9376784" lon="17.6492941">
        <ele>41.9547</ele>
        <time>2013-05-19T18:16:39Z</time>
      </trkpt>
      <trkpt lat="59.9377284" lon="17.649403">
        <ele>41.474</ele>
        <time>2013-05-19T18:16:40Z</time>
      </trkpt>
      <trkpt lat="59.9377714" lon="17.6495189">
        <ele>41.9547</ele>
        <time>2013-05-19T18:16:41Z</time>
      </trkpt>
      <trkpt lat="59.9378102" lon="17.6496448">
        <ele>41.474</ele>
        <time>2013-05-19T18:16:42Z</time>
      </trkpt>
      <trkpt lat="59.9378518" lon="17.6497655">
        <ele>41.474</ele>
        <time>2013-05-19T18:16:43Z</time>
      </trkpt>
      <trkpt lat="59.9378955" lon="17.6498835">
        <ele>40.9934</ele>
        <time>2013-05-19T18:16:44Z</time>
      </trkpt>
      <trkpt lat="59.9379401" lon="17.6500003">
        <ele>40.9934</ele>
        <time>2013-05-19T18:16:45Z</time>
      </trkpt>
      <trkpt lat="59.9379858" lon="17.6501174">
        <ele>40.5128</ele>
        <time>2013-05-19T18:16:46Z</time>
      </trkpt>
      <trkpt lat="59.938031" lon="17.6502385">
        <ele>40.5128</ele>
        <time>2013-05-19T18:16:47Z</time>
      </trkpt>
      <trkpt lat="59.9380749" lon="17.6503617">
        <ele>40.5128</ele>
        <time>2013-05-19T18:16:48Z</time>
      </trkpt>
      <trkpt lat="59.9381182" lon="17.6504857">
        <ele>40.0321</ele>
        <time>2013-05-19T18:16:49Z</time>
      </trkpt>
      <trkpt lat="59.9381618" lon="17.6506078">
        <ele>40.0321</ele>
        <time>2013-05-19T18:16:50Z</time>
      </trkpt>
      <trkpt lat="59.9382045" lon="17.6507252">
        <ele>39.5513</ele>
        <time>2013-05-19T18:16:51Z</time>
      </trkpt>
      <trkpt lat="59.9382506" lon="17.6508394">
        <ele>39.0707</ele>
        <time>2013-05-19T18:16:52Z</time>
      </trkpt>
      <trkpt lat="59.9383013" lon="17.6509481">
        <ele>39.0707</ele>
        <time>2013-05-19T18:16:53Z</time>
      </trkpt>
      <trkpt lat="59.9383531" lon="17.6510538">
        <ele>38.5901</ele>
        <time>2013-05-19T18:16:54Z</time>
      </trkpt>
      <trkpt lat="59.9384031" lon="17.6511642">
        <ele>38.5901</ele>
        <time>2013-05-19T18:16:55Z</time>
      </trkpt>
      <trkpt lat="59.9384458" lon="17.6512822">
        <ele>38.5901</ele>
        <time>2013-05-19T18:16:56Z</time>
      </trkpt>
      <trkpt lat="59.9384851" lon="17.6514017">
        <ele>38.5901</ele>
        <time>2013-05-19T18:16:57Z</time>
      </trkpt>
      <trkpt lat="59.9385236" lon="17.6515198">
        <ele>38.5901</ele>
        <time>2013-05-19T18:16:58Z</time>
      </trkpt>
      <trkpt lat="59.9385614" lon="17.6516379">
        <ele>38.5901</ele>
        <time>2013-05-19T18:16:59Z</time>
      </trkpt>
      <trkpt lat="59.9385962" lon="17.6517579">
        <ele>39.0707</ele>
        <time>2013-05-19T18:17:00Z</time>
      </trkpt>
      <trkpt lat="59.9386305" lon="17.6518763">
        <ele>39.0707</ele>
        <time>2013-05-19T18:17:01Z</time>
      </trkpt>
      <trkpt lat="59.9386654" lon="17.6519899">
        <ele>38.5901</ele>
        <time>2013-05-19T18:17:02Z</time>
      </trkpt>
      <trkpt lat="59.9387002" lon="17.6521023">
        <ele>38.1094</ele>
        <time>2013-05-19T18:17:03Z</time>
      </trkpt>
      <trkpt lat="59.9387343" lon="17.6522157">
        <ele>38.1094</ele>
        <time>2013-05-19T18:17:04Z</time>
      </trkpt>
      <trkpt lat="59.9387668" lon="17.6523284">
        <ele>37.6287</ele>
        <time>2013-05-19T18:17:05Z</time>
      </trkpt>
      <trkpt lat="59.9387981" lon="17.652441">
        <ele>37.6287</ele>
        <time>2013-05-19T18:17:06Z</time>
      </trkpt>
      <trkpt lat="59.9388306" lon="17.6525549">
        <ele>37.6287</ele>
        <time>2013-05-19T18:17:07Z</time>
      </trkpt>
      <trkpt lat="59.9388623" lon="17.652671">
        <ele>37.1481</ele>
        <time>2013-05-19T18:17:08Z</time>
      </trkpt>
      <trkpt lat="59.9388934" lon="17.6527891">
        <ele>37.1481</ele>
        <time>2013-05-19T18:17:09Z</time>
      </trkpt>
      <trkpt lat="59.9389235" lon="17.6529063">
        <ele>37.1481</ele>
        <time>2013-05-19T18:17:10Z</time>
      </trkpt>
      <trkpt lat="59.9389541" lon="17.6530226">
        <ele>36.6675</ele>
        <time>2013-05-19T18:17:11Z</time>
      </trkpt>
      <trkpt lat="59.9389844" lon="17.6531397">
        <ele>36.6675</ele>
        <time>2013-05-19T18:17:12Z</time>
      </trkpt>
      <trkpt lat="59.9390128" lon="17.653258">
        <ele>36.6675</ele>
        <time>2013-05-19T18:17:13Z</time>
      </trkpt>
      <trkpt lat="59.9390391" lon="17.6533766">
        <ele>36.1868</ele>
        <time>2013-05-19T18:17:14Z</time>
      </trkpt>
      <trkpt lat="59.9390646" lon="17.6534942">
        <ele>36.1868</ele>
        <time>2013-05-19T18:17:15Z</time>
      </trkpt>
      <trkpt lat="59.9390921" lon="17.6536127">
        <ele>35.7061</ele>
        <time>2013-05-19T18:17:16Z</time>
      </trkpt>
      <trkpt lat="59.9391192" lon="17.6537318">
        <ele>35.7061</ele>
        <time>2013-05-19T18:17:17Z</time>
      </trkpt>
      <trkpt lat="59.9391457" lon="17.6538507">
        <ele>35.7061</ele>
        <time>2013-05-19T18:17:18Z</time>
      </trkpt>
      <trkpt lat="59.9391714" lon="17.6539692">
        <ele>35.7061</ele>
        <time>2013-05-19T18:17:19Z</time>
      </trkpt>
      <trkpt lat="59.9391947" lon="17.6540868">
        <ele>35.2255</ele>
        <time>2013-05-19T18:17:20Z</time>
      </trkpt>
      <trkpt lat="59.9392193" lon="17.6542043">
        <ele>35.2255</ele>
        <time>2013-05-19T18:17:21Z</time>
      </trkpt>
      <trkpt lat="59.9392425" lon="17.6543212">
        <ele>35.2255</ele>
        <time>2013-05-19T18:17:22Z</time>
      </trkpt>
      <trkpt lat="59.9392653" lon="17.654438">
        <ele>35.2255</ele>
        <time>2013-05-19T18:17:23Z</time>
      </trkpt>
      <trkpt lat="59.9392881" lon="17.6545539">
        <ele>35.2255</ele>
        <time>2013-05-19T18:17:24Z</time>
      </trkpt>
      <trkpt lat="59.939311" lon="17.654669">
        <ele>35.2255</ele>
        <time>2013-05-19T18:17:25Z</time>
      </trkpt>
      <trkpt lat="59.9393336" lon="17.6547839">
        <ele>34.7449</ele>
        <time>2013-05-19T18:17:26Z</time>
      </trkpt>
      <trkpt lat="59.9393568" lon="17.6548991">
        <ele>34.7449</ele>
        <time>2013-05-19T18:17:27Z</time>
      </trkpt>
      <trkpt lat="59.9393803" lon="17.6550154">
        <ele>34.7449</ele>
        <time>2013-05-19T18:17:28Z</time>
      </trkpt>
      <trkpt lat="59.9394037" lon="17.6551326">
        <ele>34.2642</ele>
        <time>2013-05-19T18:17:29Z</time>
      </trkpt>
      <trkpt lat="59.9394274" lon="17.655251">
        <ele>34.2642</ele>
        <time>2013-05-19T18:17:30Z</time>
      </trkpt>
      <trkpt lat="59.9394524" lon="17.6553699">
        <ele>34.2642</ele>
        <time>2013-05-19T18:17:31Z</time>
      </trkpt>
      <trkpt lat="59.9394782" lon="17.6554911">
        <ele>33.7834</ele>
        <time>2013-05-19T18:17:32Z</time>
      </trkpt>
      <trkpt lat="59.9395039" lon="17.6556158">
        <ele>33.7834</ele>
        <time>2013-05-19T18:17:33Z</time>
      </trkpt>
      <trkpt lat="59.9395291" lon="17.6557428">
        <ele>33.3029</ele>
        <time>2013-05-19T18:17:34Z</time>
      </trkpt>
      <trkpt lat="59.9395549" lon="17.6558713">
        <ele>33.3029</ele>
        <time>2013-05-19T18:17:35Z</time>
      </trkpt>
      <trkpt lat="59.9395808" lon="17.6559998">
        <ele>32.8223</ele>
        <time>2013-05-19T18:17:36Z</time>
      </trkpt>
      <trkpt lat="59.9396072" lon="17.6561297">
        <ele>32.8223</ele>
        <time>2013-05-19T18:17:37Z</time>
      </trkpt>
      <trkpt lat="59.9396348" lon="17.6562602">
        <ele>32.3416</ele>
        <time>2013-05-19T18:17:38Z</time>
      </trkpt>
      <trkpt lat="59.9396632" lon="17.6563912">
        <ele>32.3416</ele>
        <time>2013-05-19T18:17:39Z</time>
      </trkpt>
      <trkpt lat="59.9396912" lon="17.656523">
        <ele>31.8607</ele>
        <time>2013-05-19T18:17:40Z</time>
      </trkpt>
      <trkpt lat="59.9397195" lon="17.6566562">
        <ele>31.8607</ele>
        <time>2013-05-19T18:17:41Z</time>
      </trkpt>
      <trkpt lat="59.9397476" lon="17.6567901">
        <ele>31.3801</ele>
        <time>2013-05-19T18:17:42Z</time>
      </trkpt>
      <trkpt lat="59.9397757" lon="17.6569245">
        <ele>31.3801</ele>
        <time>2013-05-19T18:17:43Z</time>
      </trkpt>
      <trkpt lat="59.9398045" lon="17.6570604">
        <ele>30.8995</ele>
        <time>2013-05-19T18:17:44Z</time>
      </trkpt>
      <trkpt lat="59.939833" lon="17.6571969">
        <ele>30.4188</ele>
        <time>2013-05-19T18:17:45Z</time>
      </trkpt>
      <trkpt lat="59.9398613" lon="17.6573357">
        <ele>30.4188</ele>
        <time>2013-05-19T18:17:46Z</time>
      </trkpt>
      <trkpt lat="59.939891" lon="17.6574785">
        <ele>29.9381</ele>
        <time>2013-05-19T18:17:47Z</time>
      </trkpt>
      <trkpt lat="59.9399171" lon="17.6576165">
        <ele>29.4575</ele>
        <time>2013-05-19T18:17:48Z</time>
      </trkpt>
      <trkpt lat="59.939946" lon="17.6577531">
        <ele>28.9769</ele>
        <time>2013-05-19T18:17:49Z</time>
      </trkpt>
      <trkpt lat="59.9399771" lon="17.6578916">
        <ele>28.9769</ele>
        <time>2013-05-19T18:17:50Z</time>
      </trkpt>
      <trkpt lat="59.9400077" lon="17.6580326">
        <ele>28.4962</ele>
        <time>2013-05-19T18:17:51Z</time>
      </trkpt>
      <trkpt lat="59.9400375" lon="17.658175">
        <ele>28.0155</ele>
        <time>2013-05-19T18:17:52Z</time>
      </trkpt>
      <trkpt lat="59.9400672" lon="17.6583179">
        <ele>27.5349</ele>
        <time>2013-05-19T18:17:53Z</time>
      </trkpt>
      <trkpt lat="59.9400977" lon="17.6584601">
        <ele>27.5349</ele>
        <time>2013-05-19T18:17:54Z</time>
      </trkpt>
      <trkpt lat="59.9401286" lon="17.6586017">
        <ele>27.0543</ele>
        <time>2013-05-19T18:17:55Z</time>
      </trkpt>
      <trkpt lat="59.9401593" lon="17.6587427">
        <ele>26.5736</ele>
        <time>2013-05-19T18:17:56Z</time>
      </trkpt>
      <trkpt lat="59.9401892" lon="17.6588844">
        <ele>26.5736</ele>
        <time>2013-05-19T18:17:57Z</time>
      </trkpt>
      <trkpt lat="59.9402164" lon="17.6590261">
        <ele>26.5736</ele>
        <time>2013-05-19T18:17:58Z</time>
      </trkpt>
      <trkpt lat="59.9402412" lon="17.6591665">
        <ele>26.5736</ele>
        <time>2013-05-19T18:17:59Z</time>
      </trkpt>
      <trkpt lat="59.9402645" lon="17.6593047">
        <ele>26.5736</ele>
        <time>2013-05-19T18:18:00Z</time>
      </trkpt>
      <trkpt lat="59.9402859" lon="17.6594414">
        <ele>26.5736</ele>
        <time>2013-05-19T18:18:01Z</time>
      </trkpt>
      <trkpt lat="59.9403121" lon="17.6595761">
        <ele>27.0543</ele>
        <time>2013-05-19T18:18:02Z</time>
      </trkpt>
      <trkpt lat="59.9403417" lon="17.6597116">
        <ele>27.5349</ele>
        <time>2013-05-19T18:18:03Z</time>
      </trkpt>
      <trkpt lat="59.9403683" lon="17.6598413">
        <ele>27.5349</ele>
        <time>2013-05-19T18:18:04Z</time>
      </trkpt>
      <trkpt lat="59.9403939" lon="17.6599542">
        <ele>28.0155</ele>
        <time>2013-05-19T18:18:05Z</time>
      </trkpt>
      <trkpt lat="59.9404335" lon="17.6600624">
        <ele>28.4962</ele>
        <time>2013-05-19T18:18:06Z</time>
      </trkpt>
      <trkpt lat="59.9404981" lon="17.6601609">
        <ele>28.9769</ele>
        <time>2013-05-19T18:18:07Z</time>
      </trkpt>
      <trkpt lat="59.9405524" lon="17.6603827">
        <ele>29.9381</ele>
        <time>2013-05-19T18:18:08Z</time>
      </trkpt>
      <trkpt lat="59.9404826" lon="17.6604702">
        <ele>30.4188</ele>
        <time>2013-05-19T18:18:09Z</time>
      </trkpt>
      <trkpt lat="59.9404648" lon="17.660614">
        <ele>30.4188</ele>
        <time>2013-05-19T18:18:10Z</time>
      </trkpt>
      <trkpt lat="59.9404417" lon="17.6607542">
        <ele>30.4188</ele>
        <time>2013-05-19T18:18:11Z</time>
      </trkpt>
      <trkpt lat="59.9404091" lon="17.6608951">
        <ele>29.9381</ele>
        <time>2013-05-19T18:18:12Z</time>
      </trkpt>
      <trkpt lat="59.9403947" lon="17.6610504">
        <ele>28.9769</ele>
        <time>2013-05-19T18:18:13Z</time>
      </trkpt>
      <trkpt lat="59.9403863" lon="17.6611952">
        <ele>28.9769</ele>
        <time>2013-05-19T18:18:14Z</time>
      </trkpt>
      <trkpt lat="59.940385" lon="17.6613375">
        <ele>28.9769</ele>
        <time>2013-05-19T18:18:15Z</time>
      </trkpt>
      <trkpt lat="59.9403887" lon="17.6614762">
        <ele>28.9769</ele>
        <time>2013-05-19T18:18:16Z</time>
      </trkpt>
      <trkpt lat="59.9404027" lon="17.6616191">
        <ele>28.9769</ele>
        <time>2013-05-19T18:18:17Z</time>
      </trkpt>
      <trkpt lat="59.9404282" lon="17.6617527">
        <ele>28.9769</ele>
        <time>2013-05-19T18:18:18Z</time>
      </trkpt>
      <trkpt lat="59.9404664" lon="17.6618691">
        <ele>28.9769</ele>
        <time>2013-05-19T18:18:19Z</time>
      </trkpt>
      <trkpt lat="59.9405126" lon="17.6619673">
        <ele>29.4575</ele>
        <time>2013-05-19T18:18:20Z</time>
      </trkpt>
      <trkpt lat="59.9405712" lon="17.6620445">
        <ele>29.4575</ele>
        <time>2013-05-19T18:18:21Z</time>
      </trkpt>
      <trkpt lat="59.940636" lon="17.6621009">
        <ele>29.4575</ele>
        <time>2013-05-19T18:18:22Z</time>
      </trkpt>
      <trkpt lat="59.9407049" lon="17.6621385">
        <ele>29.4575</ele>
        <time>2013-05-19T18:18:23Z</time>
      </trkpt>
      <trkpt lat="59.9407701" lon="17.6621615">
        <ele>29.9381</ele>
        <time>2013-05-19T18:18:24Z</time>
      </trkpt>
      <trkpt lat="59.9408349" lon="17.662179">
        <ele>29.9381</ele>
        <time>2013-05-19T18:18:25Z</time>
      </trkpt>
      <trkpt lat="59.9408991" lon="17.6621937">
        <ele>29.9381</ele>
        <time>2013-05-19T18:18:26Z</time>
      </trkpt>
      <trkpt lat="59.9409634" lon="17.6622108">
        <ele>29.9381</ele>
        <time>2013-05-19T18:18:27Z</time>
      </trkpt>
      <trkpt lat="59.9410277" lon="17.6622346">
        <ele>29.9381</ele>
        <time>2013-05-19T18:18:28Z</time>
      </trkpt>
      <trkpt lat="59.9410913" lon="17.6622651">
        <ele>29.9381</ele>
        <time>2013-05-19T18:18:29Z</time>
      </trkpt>
      <trkpt lat="59.941154" lon="17.6623019">
        <ele>29.9381</ele>
        <time>2013-05-19T18:18:30Z</time>
      </trkpt>
      <trkpt lat="59.9412162" lon="17.6623447">
        <ele>29.9381</ele>
        <time>2013-05-19T18:18:31Z</time>
      </trkpt>
      <trkpt lat="59.9412777" lon="17.6623936">
        <ele>29.9381</ele>
        <time>2013-05-19T18:18:32Z</time>
      </trkpt>
      <trkpt lat="59.9413378" lon="17.6624489">
        <ele>29.4575</ele>
        <time>2013-05-19T18:18:33Z</time>
      </trkpt>
      <trkpt lat="59.9413975" lon="17.6625094">
        <ele>29.4575</ele>
        <time>2013-05-19T18:18:34Z</time>
      </trkpt>
      <trkpt lat="59.9414556" lon="17.6625749">
        <ele>29.4575</ele>
        <time>2013-05-19T18:18:35Z</time>
      </trkpt>
      <trkpt lat="59.9415113" lon="17.6626453">
        <ele>29.4575</ele>
        <time>2013-05-19T18:18:36Z</time>
      </trkpt>
      <trkpt lat="59.9415632" lon="17.6627211">
        <ele>29.4575</ele>
        <time>2013-05-19T18:18:37Z</time>
      </trkpt>
      <trkpt lat="59.9416124" lon="17.6628021">
        <ele>29.4575</ele>
        <time>2013-05-19T18:18:38Z</time>
      </trkpt>
      <trkpt lat="59.9416599" lon="17.6628867">
        <ele>29.4575</ele>
        <time>2013-05-19T18:18:39Z</time>
      </trkpt>
      <trkpt lat="59.9417051" lon="17.6629725">
        <ele>29.4575</ele>
        <time>2013-05-19T18:18:40Z</time>
      </trkpt>
      <trkpt lat="59.9417502" lon="17.6630569">
        <ele>29.4575</ele>
        <time>2013-05-19T18:18:41Z</time>
      </trkpt>
      <trkpt lat="59.9417966" lon="17.6631412">
        <ele>29.9381</ele>
        <time>2013-05-19T18:18:42Z</time>
      </trkpt>
      <trkpt lat="59.9418445" lon="17.6632222">
        <ele>29.4575</ele>
        <time>2013-05-19T18:18:43Z</time>
      </trkpt>
      <trkpt lat="59.9418927" lon="17.6633018">
        <ele>29.9381</ele>
        <time>2013-05-19T18:18:44Z</time>
      </trkpt>
      <trkpt lat="59.9419394" lon="17.6633824">
        <ele>29.4575</ele>
        <time>2013-05-19T18:18:45Z</time>
      </trkpt>
      <trkpt lat="59.9419862" lon="17.6634617">
        <ele>29.4575</ele>
        <time>2013-05-19T18:18:46Z</time>
      </trkpt>
      <trkpt lat="59.9420341" lon="17.6635389">
        <ele>29.4575</ele>
        <time>2013-05-19T18:18:47Z</time>
      </trkpt>
      <trkpt lat="59.9420828" lon="17.6636145">
        <ele>29.4575</ele>
        <time>2013-05-19T18:18:48Z</time>
      </trkpt>
      <trkpt lat="59.9421315" lon="17.6636885">
        <ele>29.4575</ele>
        <time>2013-05-19T18:18:49Z</time>
      </trkpt>
      <trkpt lat="59.9421801" lon="17.663761">
        <ele>29.9381</ele>
        <time>2013-05-19T18:18:50Z</time>
      </trkpt>
      <trkpt lat="59.9422288" lon="17.6638335">
        <ele>29.9381</ele>
        <time>2013-05-19T18:18:51Z</time>
      </trkpt>
      <trkpt lat="59.942279" lon="17.6639051">
        <ele>29.9381</ele>
        <time>2013-05-19T18:18:52Z</time>
      </trkpt>
      <trkpt lat="59.9423304" lon="17.6639759">
        <ele>29.9381</ele>
        <time>2013-05-19T18:18:53Z</time>
      </trkpt>
      <trkpt lat="59.9423826" lon="17.6640465">
        <ele>29.9381</ele>
        <time>2013-05-19T18:18:54Z</time>
      </trkpt>
      <trkpt lat="59.9424356" lon="17.6641163">
        <ele>29.9381</ele>
        <time>2013-05-19T18:18:55Z</time>
      </trkpt>
      <trkpt lat="59.9424897" lon="17.6641848">
        <ele>29.4575</ele>
        <time>2013-05-19T18:18:56Z</time>
      </trkpt>
      <trkpt lat="59.9425444" lon="17.6642531">
        <ele>29.4575</ele>
        <time>2013-05-19T18:18:57Z</time>
      </trkpt>
      <trkpt lat="59.9426006" lon="17.6643217">
        <ele>29.4575</ele>
        <time>2013-05-19T18:18:58Z</time>
      </trkpt>
      <trkpt lat="59.9426581" lon="17.66439">
        <ele>29.4575</ele>
        <time>2013-05-19T18:18:59Z</time>
      </trkpt>
      <trkpt lat="59.9427171" lon="17.6644557">
        <ele>29.4575</ele>
        <time>2013-05-19T18:19:00Z</time>
      </trkpt>
      <trkpt lat="59.9427774" lon="17.664519">
        <ele>28.9769</ele>
        <time>2013-05-19T18:19:01Z</time>
      </trkpt>
      <trkpt lat="59.9428387" lon="17.6645826">
        <ele>28.9769</ele>
        <time>2013-05-19T18:19:02Z</time>
      </trkpt>
      <trkpt lat="59.9428997" lon="17.6646477">
        <ele>28.9769</ele>
        <time>2013-05-19T18:19:03Z</time>
      </trkpt>
      <trkpt lat="59.9429618" lon="17.6647121">
        <ele>28.9769</ele>
        <time>2013-05-19T18:19:04Z</time>
      </trkpt>
      <trkpt lat="59.9430249" lon="17.6647742">
        <ele>28.4962</ele>
        <time>2013-05-19T18:19:05Z</time>
      </trkpt>
      <trkpt lat="59.9430892" lon="17.6648344">
        <ele>28.4962</ele>
        <time>2013-05-19T18:19:06Z</time>
      </trkpt>
      <trkpt lat="59.9431548" lon="17.664894">
        <ele>28.4962</ele>
        <time>2013-05-19T18:19:07Z</time>
      </trkpt>
      <trkpt lat="59.9432209" lon="17.6649531">
        <ele>28.0155</ele>
        <time>2013-05-19T18:19:08Z</time>
      </trkpt>
      <trkpt lat="59.943288" lon="17.6650103">
        <ele>28.0155</ele>
        <time>2013-05-19T18:19:09Z</time>
      </trkpt>
      <trkpt lat="59.9433564" lon="17.6650649">
        <ele>28.0155</ele>
        <time>2013-05-19T18:19:10Z</time>
      </trkpt>
      <trkpt lat="59.9434255" lon="17.6651183">
        <ele>28.0155</ele>
        <time>2013-05-19T18:19:11Z</time>
      </trkpt>
      <trkpt lat="59.9434952" lon="17.6651706">
        <ele>27.5349</ele>
        <time>2013-05-19T18:19:12Z</time>
      </trkpt>
      <trkpt lat="59.9435659" lon="17.6652202">
        <ele>27.5349</ele>
        <time>2013-05-19T18:19:13Z</time>
      </trkpt>
      <trkpt lat="59.9436374" lon="17.6652668">
        <ele>27.5349</ele>
        <time>2013-05-19T18:19:14Z</time>
      </trkpt>
      <trkpt lat="59.9437088" lon="17.6653116">
        <ele>27.0543</ele>
        <time>2013-05-19T18:19:15Z</time>
      </trkpt>
      <trkpt lat="59.9437803" lon="17.665355">
        <ele>27.0543</ele>
        <time>2013-05-19T18:19:16Z</time>
      </trkpt>
      <trkpt lat="59.9438516" lon="17.6653965">
        <ele>27.0543</ele>
        <time>2013-05-19T18:19:17Z</time>
      </trkpt>
      <trkpt lat="59.9439226" lon="17.6654379">
        <ele>27.0543</ele>
        <time>2013-05-19T18:19:18Z</time>
      </trkpt>
      <trkpt lat="59.9439936" lon="17.6654783">
        <ele>26.5736</ele>
        <time>2013-05-19T18:19:19Z</time>
      </trkpt>
      <trkpt lat="59.9440647" lon="17.6655147">
        <ele>26.5736</ele>
        <time>2013-05-19T18:19:20Z</time>
      </trkpt>
      <trkpt lat="59.944136" lon="17.6655493">
        <ele>26.5736</ele>
        <time>2013-05-19T18:19:21Z</time>
      </trkpt>
      <trkpt lat="59.9442072" lon="17.665583">
        <ele>26.0929</ele>
        <time>2013-05-19T18:19:22Z</time>
      </trkpt>
      <trkpt lat="59.9442787" lon="17.6656146">
        <ele>26.0929</ele>
        <time>2013-05-19T18:19:23Z</time>
      </trkpt>
      <trkpt lat="59.9443502" lon="17.6656446">
        <ele>26.0929</ele>
        <time>2013-05-19T18:19:24Z</time>
      </trkpt>
      <trkpt lat="59.9444219" lon="17.6656727">
        <ele>26.0929</ele>
        <time>2013-05-19T18:19:25Z</time>
      </trkpt>
      <trkpt lat="59.9444936" lon="17.6656989">
        <ele>26.0929</ele>
        <time>2013-05-19T18:19:26Z</time>
      </trkpt>
      <trkpt lat="59.9445656" lon="17.6657245">
        <ele>25.6123</ele>
        <time>2013-05-19T18:19:27Z</time>
      </trkpt>
      <trkpt lat="59.9446376" lon="17.6657518">
        <ele>25.6123</ele>
        <time>2013-05-19T18:19:28Z</time>
      </trkpt>
      <trkpt lat="59.9447096" lon="17.6657788">
        <ele>25.6123</ele>
        <time>2013-05-19T18:19:29Z</time>
      </trkpt>
      <trkpt lat="59.9447816" lon="17.6658047">
        <ele>25.6123</ele>
        <time>2013-05-19T18:19:30Z</time>
      </trkpt>
      <trkpt lat="59.9448532" lon="17.6658317">
        <ele>25.6123</ele>
        <time>2013-05-19T18:19:31Z</time>
      </trkpt>
      <trkpt lat="59.9449231" lon="17.6658588">
        <ele>25.6123</ele>
        <time>2013-05-19T18:19:32Z</time>
      </trkpt>
      <trkpt lat="59.9449938" lon="17.665885">
        <ele>25.6123</ele>
        <time>2013-05-19T18:19:33Z</time>
      </trkpt>
      <trkpt lat="59.9450637" lon="17.6659109">
        <ele>25.6123</ele>
        <time>2013-05-19T18:19:34Z</time>
      </trkpt>
      <trkpt lat="59.9451352" lon="17.6659377">
        <ele>25.6123</ele>
        <time>2013-05-19T18:19:35Z</time>
      </trkpt>
      <trkpt lat="59.9452059" lon="17.665964">
        <ele>25.6123</ele>
        <time>2013-05-19T18:19:36Z</time>
      </trkpt>
      <trkpt lat="59.9452768" lon="17.6659896">
        <ele>25.6123</ele>
        <time>2013-05-19T18:19:37Z</time>
      </trkpt>
      <trkpt lat="59.9453476" lon="17.6660161">
        <ele>25.1317</ele>
        <time>2013-05-19T18:19:38Z</time>
      </trkpt>
      <trkpt lat="59.9454178" lon="17.6660427">
        <ele>25.1317</ele>
        <time>2013-05-19T18:19:39Z</time>
      </trkpt>
      <trkpt lat="59.9454887" lon="17.6660687">
        <ele>25.1317</ele>
        <time>2013-05-19T18:19:40Z</time>
      </trkpt>
      <trkpt lat="59.9455597" lon="17.6660948">
        <ele>25.1317</ele>
        <time>2013-05-19T18:19:41Z</time>
      </trkpt>
      <trkpt lat="59.9456306" lon="17.6661217">
        <ele>25.1317</ele>
        <time>2013-05-19T18:19:42Z</time>
      </trkpt>
      <trkpt lat="59.9457014" lon="17.6661477">
        <ele>25.1317</ele>
        <time>2013-05-19T18:19:43Z</time>
      </trkpt>
      <trkpt lat="59.9457723" lon="17.6661731">
        <ele>25.1317</ele>
        <time>2013-05-19T18:19:44Z</time>
      </trkpt>
      <trkpt lat="59.9458428" lon="17.6661979">
        <ele>25.1317</ele>
        <time>2013-05-19T18:19:45Z</time>
      </trkpt>
      <trkpt lat="59.9459128" lon="17.6662227">
        <ele>25.1317</ele>
        <time>2013-05-19T18:19:46Z</time>
      </trkpt>
      <trkpt lat="59.9459827" lon="17.6662471">
        <ele>24.651</ele>
        <time>2013-05-19T18:19:47Z</time>
      </trkpt>
      <trkpt lat="59.9460527" lon="17.666273">
        <ele>24.651</ele>
        <time>2013-05-19T18:19:48Z</time>
      </trkpt>
      <trkpt lat="59.9461232" lon="17.6663003">
        <ele>24.651</ele>
        <time>2013-05-19T18:19:49Z</time>
      </trkpt>
      <trkpt lat="59.9461936" lon="17.6663299">
        <ele>24.651</ele>
        <time>2013-05-19T18:19:50Z</time>
      </trkpt>
      <trkpt lat="59.9462625" lon="17.6663701">
        <ele>24.651</ele>
        <time>2013-05-19T18:19:51Z</time>
      </trkpt>
      <trkpt lat="59.94633" lon="17.666421">
        <ele>24.651</ele>
        <time>2013-05-19T18:19:52Z</time>
      </trkpt>
      <trkpt lat="59.9463977" lon="17.6664711">
        <ele>24.651</ele>
        <time>2013-05-19T18:19:53Z</time>
      </trkpt>
      <trkpt lat="59.9464676" lon="17.6665097">
        <ele>24.651</ele>
        <time>2013-05-19T18:19:54Z</time>
      </trkpt>
      <trkpt lat="59.9465391" lon="17.666535">
        <ele>24.651</ele>
        <time>2013-05-19T18:19:55Z</time>
      </trkpt>
      <trkpt lat="59.9466117" lon="17.6665512">
        <ele>24.651</ele>
        <time>2013-05-19T18:19:56Z</time>
      </trkpt>
      <trkpt lat="59.9466846" lon="17.6665603">
        <ele>24.651</ele>
        <time>2013-05-19T18:19:57Z</time>
      </trkpt>
      <trkpt lat="59.9467573" lon="17.6665657">
        <ele>24.651</ele>
        <time>2013-05-19T18:19:58Z</time>
      </trkpt>
      <trkpt lat="59.9468303" lon="17.6665801">
        <ele>24.1703</ele>
        <time>2013-05-19T18:19:59Z</time>
      </trkpt>
      <trkpt lat="59.9469028" lon="17.6666039">
        <ele>24.1703</ele>
        <time>2013-05-19T18:20:00Z</time>
      </trkpt>
      <trkpt lat="59.946975" lon="17.6666309">
        <ele>24.1703</ele>
        <time>2013-05-19T18:20:01Z</time>
      </trkpt>
      <trkpt lat="59.9470469" lon="17.666663">
        <ele>24.1703</ele>
        <time>2013-05-19T18:20:02Z</time>
      </trkpt>
      <trkpt lat="59.9471187" lon="17.6666965">
        <ele>24.1703</ele>
        <time>2013-05-19T18:20:03Z</time>
      </trkpt>
      <trkpt lat="59.9471904" lon="17.6667281">
        <ele>24.1703</ele>
        <time>2013-05-19T18:20:04Z</time>
      </trkpt>
      <trkpt lat="59.9472618" lon="17.6667598">
        <ele>24.1703</ele>
        <time>2013-05-19T18:20:05Z</time>
      </trkpt>
      <trkpt lat="59.9473323" lon="17.6667933">
        <ele>23.6896</ele>
        <time>2013-05-19T18:20:06Z</time>
      </trkpt>
      <trkpt lat="59.9474028" lon="17.6668277">
        <ele>23.6896</ele>
        <time>2013-05-19T18:20:07Z</time>
      </trkpt>
      <trkpt lat="59.9474732" lon="17.6668624">
        <ele>23.6896</ele>
        <time>2013-05-19T18:20:08Z</time>
      </trkpt>
      <trkpt lat="59.9475431" lon="17.6668976">
        <ele>23.6896</ele>
        <time>2013-05-19T18:20:09Z</time>
      </trkpt>
      <trkpt lat="59.9476128" lon="17.6669325">
        <ele>23.6896</ele>
        <time>2013-05-19T18:20:10Z</time>
      </trkpt>
      <trkpt lat="59.947681" lon="17.6669667">
        <ele>23.6896</ele>
        <time>2013-05-19T18:20:11Z</time>
      </trkpt>
      <trkpt lat="59.9477481" lon="17.6670006">
        <ele>23.6896</ele>
        <time>2013-05-19T18:20:12Z</time>
      </trkpt>
      <trkpt lat="59.947815" lon="17.6670359">
        <ele>23.6896</ele>
        <time>2013-05-19T18:20:13Z</time>
      </trkpt>
      <trkpt lat="59.9478827" lon="17.6670713">
        <ele>23.6896</ele>
        <time>2013-05-19T18:20:14Z</time>
      </trkpt>
      <trkpt lat="59.9479507" lon="17.6671067">
        <ele>23.6896</ele>
        <time>2013-05-19T18:20:15Z</time>
      </trkpt>
      <trkpt lat="59.9480181" lon="17.6671427">
        <ele>23.6896</ele>
        <time>2013-05-19T18:20:16Z</time>
      </trkpt>
      <trkpt lat="59.9480853" lon="17.667179">
        <ele>23.209</ele>
        <time>2013-05-19T18:20:17Z</time>
      </trkpt>
      <trkpt lat="59.9481528" lon="17.6672155">
        <ele>23.209</ele>
        <time>2013-05-19T18:20:18Z</time>
      </trkpt>
      <trkpt lat="59.9482208" lon="17.6672524">
        <ele>23.209</ele>
        <time>2013-05-19T18:20:19Z</time>
      </trkpt>
      <trkpt lat="59.9482895" lon="17.6672897">
        <ele>23.209</ele>
        <time>2013-05-19T18:20:20Z</time>
      </trkpt>
      <trkpt lat="59.9483586" lon="17.6673279">
        <ele>23.209</ele>
        <time>2013-05-19T18:20:21Z</time>
      </trkpt>
      <trkpt lat="59.9484278" lon="17.6673683">
        <ele>23.209</ele>
        <time>2013-05-19T18:20:22Z</time>
      </trkpt>
      <trkpt lat="59.9484973" lon="17.6674079">
        <ele>23.209</ele>
        <time>2013-05-19T18:20:23Z</time>
      </trkpt>
      <trkpt lat="59.9485675" lon="17.6674466">
        <ele>23.209</ele>
        <time>2013-05-19T18:20:24Z</time>
      </trkpt>
      <trkpt lat="59.9486387" lon="17.667487">
        <ele>23.209</ele>
        <time>2013-05-19T18:20:25Z</time>
      </trkpt>
      <trkpt lat="59.9487112" lon="17.667528">
        <ele>23.209</ele>
        <time>2013-05-19T18:20:26Z</time>
      </trkpt>
      <trkpt lat="59.9487848" lon="17.6675701">
        <ele>23.209</ele>
        <time>2013-05-19T18:20:27Z</time>
      </trkpt>
      <trkpt lat="59.9488588" lon="17.6676136">
        <ele>22.7283</ele>
        <time>2013-05-19T18:20:28Z</time>
      </trkpt>
      <trkpt lat="59.9489336" lon="17.667657">
        <ele>22.7283</ele>
        <time>2013-05-19T18:20:29Z</time>
      </trkpt>
      <trkpt lat="59.9490089" lon="17.6677002">
        <ele>22.7283</ele>
        <time>2013-05-19T18:20:30Z</time>
      </trkpt>
      <trkpt lat="59.9490842" lon="17.667743">
        <ele>22.7283</ele>
        <time>2013-05-19T18:20:31Z</time>
      </trkpt>
      <trkpt lat="59.9491593" lon="17.6677864">
        <ele>22.7283</ele>
        <time>2013-05-19T18:20:32Z</time>
      </trkpt>
      <trkpt lat="59.9492337" lon="17.6678302">
        <ele>22.7283</ele>
        <time>2013-05-19T18:20:33Z</time>
      </trkpt>
      <trkpt lat="59.9493063" lon="17.667871">
        <ele>22.7283</ele>
        <time>2013-05-19T18:20:34Z</time>
      </trkpt>
      <trkpt lat="59.9493784" lon="17.6679093">
        <ele>22.7283</ele>
        <time>2013-05-19T18:20:35Z</time>
      </trkpt>
      <trkpt lat="59.9494516" lon="17.6679477">
        <ele>22.2476</ele>
        <time>2013-05-19T18:20:36Z</time>
      </trkpt>
      <trkpt lat="59.9495244" lon="17.6679864">
        <ele>22.2476</ele>
        <time>2013-05-19T18:20:37Z</time>
      </trkpt>
      <trkpt lat="59.9495965" lon="17.6680249">
        <ele>22.2476</ele>
        <time>2013-05-19T18:20:38Z</time>
      </trkpt>
      <trkpt lat="59.949668" lon="17.6680627">
        <ele>22.2476</ele>
        <time>2013-05-19T18:20:39Z</time>
      </trkpt>
      <trkpt lat="59.949739" lon="17.6680988">
        <ele>22.2476</ele>
        <time>2013-05-19T18:20:40Z</time>
      </trkpt>
      <trkpt lat="59.9498099" lon="17.6681316">
        <ele>22.2476</ele>
        <time>2013-05-19T18:20:41Z</time>
      </trkpt>
      <trkpt lat="59.9498799" lon="17.6681619">
        <ele>22.2476</ele>
        <time>2013-05-19T18:20:42Z</time>
      </trkpt>
      <trkpt lat="59.9499485" lon="17.6681899">
        <ele>22.2476</ele>
        <time>2013-05-19T18:20:43Z</time>
      </trkpt>
      <trkpt lat="59.950016" lon="17.6682156">
        <ele>22.2476</ele>
        <time>2013-05-19T18:20:44Z</time>
      </trkpt>
      <trkpt lat="59.9500827" lon="17.6682382">
        <ele>22.2476</ele>
        <time>2013-05-19T18:20:45Z</time>
      </trkpt>
      <trkpt lat="59.9501487" lon="17.668258">
        <ele>22.2476</ele>
        <time>2013-05-19T18:20:46Z</time>
      </trkpt>
      <trkpt lat="59.9502141" lon="17.668276">
        <ele>22.2476</ele>
        <time>2013-05-19T18:20:47Z</time>
      </trkpt>
      <trkpt lat="59.9502798" lon="17.6682897">
        <ele>21.767</ele>
        <time>2013-05-19T18:20:48Z</time>
      </trkpt>
      <trkpt lat="59.9503455" lon="17.6682988">
        <ele>21.767</ele>
        <time>2013-05-19T18:20:49Z</time>
      </trkpt>
      <trkpt lat="59.9504124" lon="17.6683036">
        <ele>21.767</ele>
        <time>2013-05-19T18:20:50Z</time>
      </trkpt>
      <trkpt lat="59.9504803" lon="17.6683061">
        <ele>21.2864</ele>
        <time>2013-05-19T18:20:51Z</time>
      </trkpt>
      <trkpt lat="59.9505486" lon="17.6683073">
        <ele>21.2864</ele>
        <time>2013-05-19T18:20:52Z</time>
      </trkpt>
      <trkpt lat="59.950617" lon="17.6683067">
        <ele>21.2864</ele>
        <time>2013-05-19T18:20:53Z</time>
      </trkpt>
      <trkpt lat="59.9506854" lon="17.6683026">
        <ele>20.8057</ele>
        <time>2013-05-19T18:20:54Z</time>
      </trkpt>
      <trkpt lat="59.9507543" lon="17.668294">
        <ele>20.8057</ele>
        <time>2013-05-19T18:20:55Z</time>
      </trkpt>
      <trkpt lat="59.9508232" lon="17.6682824">
        <ele>20.8057</ele>
        <time>2013-05-19T18:20:56Z</time>
      </trkpt>
      <trkpt lat="59.950892" lon="17.6682678">
        <ele>20.8057</ele>
        <time>2013-05-19T18:20:57Z</time>
      </trkpt>
      <trkpt lat="59.9509609" lon="17.6682489">
        <ele>20.325</ele>
        <time>2013-05-19T18:20:58Z</time>
      </trkpt>
      <trkpt lat="59.9510298" lon="17.6682273">
        <ele>20.325</ele>
        <time>2013-05-19T18:20:59Z</time>
      </trkpt>
      <trkpt lat="59.951098" lon="17.6682052">
        <ele>19.8444</ele>
        <time>2013-05-19T18:21:00Z</time>
      </trkpt>
      <trkpt lat="59.9511656" lon="17.6681852">
        <ele>19.8444</ele>
        <time>2013-05-19T18:21:01Z</time>
      </trkpt>
      <trkpt lat="59.9512323" lon="17.6681651">
        <ele>19.8444</ele>
        <time>2013-05-19T18:21:02Z</time>
      </trkpt>
      <trkpt lat="59.9512992" lon="17.668142">
        <ele>19.3638</ele>
        <time>2013-05-19T18:21:03Z</time>
      </trkpt>
      <trkpt lat="59.9513667" lon="17.668116">
        <ele>19.3638</ele>
        <time>2013-05-19T18:21:04Z</time>
      </trkpt>
      <trkpt lat="59.9514349" lon="17.668092">
        <ele>19.3638</ele>
        <time>2013-05-19T18:21:05Z</time>
      </trkpt>
      <trkpt lat="59.9515039" lon="17.668078">
        <ele>18.8831</ele>
        <time>2013-05-19T18:21:06Z</time>
      </trkpt>
      <trkpt lat="59.9515731" lon="17.6680802">
        <ele>18.8831</ele>
        <time>2013-05-19T18:21:07Z</time>
      </trkpt>
      <trkpt lat="59.9516398" lon="17.6681133">
        <ele>18.8831</ele>
        <time>2013-05-19T18:21:08Z</time>
      </trkpt>
      <trkpt lat="59.9516991" lon="17.6681835">
        <ele>18.8831</ele>
        <time>2013-05-19T18:21:09Z</time>
      </trkpt>
      <trkpt lat="59.9517476" lon="17.6682826">
        <ele>18.4023</ele>
        <time>2013-05-19T18:21:10Z</time>
      </trkpt>
      <trkpt lat="59.9517823" lon="17.6684024">
        <ele>18.4023</ele>
        <time>2013-05-19T18:21:11Z</time>
      </trkpt>
      <trkpt lat="59.9518084" lon="17.6685305">
        <ele>18.8831</ele>
        <time>2013-05-19T18:21:12Z</time>
      </trkpt>
      <trkpt lat="59.9518296" lon="17.66866">
        <ele>18.8831</ele>
        <time>2013-05-19T18:21:13Z</time>
      </trkpt>
      <trkpt lat="59.9518457" lon="17.668789">
        <ele>18.8831</ele>
        <time>2013-05-19T18:21:14Z</time>
      </trkpt>
      <trkpt lat="59.9518546" lon="17.6689172">
        <ele>19.3638</ele>
        <time>2013-05-19T18:21:15Z</time>
      </trkpt>
      <trkpt lat="59.9518549" lon="17.6690436">
        <ele>19.3638</ele>
        <time>2013-05-19T18:21:16Z</time>
      </trkpt>
      <trkpt lat="59.9518483" lon="17.6691666">
        <ele>19.3638</ele>
        <time>2013-05-19T18:21:17Z</time>
      </trkpt>
      <trkpt lat="59.9518399" lon="17.6692883">
        <ele>19.8444</ele>
        <time>2013-05-19T18:21:18Z</time>
      </trkpt>
      <trkpt lat="59.9518331" lon="17.6694109">
        <ele>19.8444</ele>
        <time>2013-05-19T18:21:19Z</time>
      </trkpt>
      <trkpt lat="59.9518269" lon="17.6695342">
        <ele>19.8444</ele>
        <time>2013-05-19T18:21:20Z</time>
      </trkpt>
      <trkpt lat="59.9518198" lon="17.6696576">
        <ele>19.8444</ele>
        <time>2013-05-19T18:21:21Z</time>
      </trkpt>
      <trkpt lat="59.9518124" lon="17.6697809">
        <ele>19.8444</ele>
        <time>2013-05-19T18:21:22Z</time>
      </trkpt>
      <trkpt lat="59.9518048" lon="17.6699036">
        <ele>19.8444</ele>
        <time>2013-05-19T18:21:23Z</time>
      </trkpt>
      <trkpt lat="59.9517976" lon="17.6700253">
        <ele>20.325</ele>
        <time>2013-05-19T18:21:24Z</time>
      </trkpt>
      <trkpt lat="59.9517904" lon="17.6701471">
        <ele>20.325</ele>
        <time>2013-05-19T18:21:25Z</time>
      </trkpt>
      <trkpt lat="59.9517818" lon="17.6702689">
        <ele>20.325</ele>
        <time>2013-05-19T18:21:26Z</time>
      </trkpt>
      <trkpt lat="59.9517721" lon="17.6703909">
        <ele>20.325</ele>
        <time>2013-05-19T18:21:27Z</time>
      </trkpt>
      <trkpt lat="59.9517619" lon="17.670513">
        <ele>20.8057</ele>
        <time>2013-05-19T18:21:28Z</time>
      </trkpt>
      <trkpt lat="59.951753" lon="17.6706356">
        <ele>20.8057</ele>
        <time>2013-05-19T18:21:29Z</time>
      </trkpt>
      <trkpt lat="59.9517461" lon="17.6707574">
        <ele>20.8057</ele>
        <time>2013-05-19T18:21:30Z</time>
      </trkpt>
      <trkpt lat="59.9517417" lon="17.6708774">
        <ele>21.2864</ele>
        <time>2013-05-19T18:21:31Z</time>
      </trkpt>
      <trkpt lat="59.9517425" lon="17.6709941">
        <ele>21.2864</ele>
        <time>2013-05-19T18:21:32Z</time>
      </trkpt>
      <trkpt lat="59.9517525" lon="17.6711039">
        <ele>21.767</ele>
        <time>2013-05-19T18:21:33Z</time>
      </trkpt>
      <trkpt lat="59.9517727" lon="17.6712021">
        <ele>22.2476</ele>
        <time>2013-05-19T18:21:34Z</time>
      </trkpt>
      <trkpt lat="59.9517944" lon="17.6712924">
        <ele>22.7283</ele>
        <time>2013-05-19T18:21:35Z</time>
      </trkpt>
      <trkpt lat="59.9518101" lon="17.67138">
        <ele>23.209</ele>
        <time>2013-05-19T18:21:36Z</time>
      </trkpt>
      <trkpt lat="59.9518201" lon="17.6714685">
        <ele>23.209</ele>
        <time>2013-05-19T18:21:37Z</time>
      </trkpt>
      <trkpt lat="59.9518229" lon="17.671556">
        <ele>23.6896</ele>
        <time>2013-05-19T18:21:38Z</time>
      </trkpt>
      <trkpt lat="59.9518227" lon="17.671643">
        <ele>23.6896</ele>
        <time>2013-05-19T18:21:39Z</time>
      </trkpt>
      <trkpt lat="59.9518207" lon="17.6717297">
        <ele>23.6896</ele>
        <time>2013-05-19T18:21:40Z</time>
      </trkpt>
      <trkpt lat="59.9518184" lon="17.6718166">
        <ele>24.1703</ele>
        <time>2013-05-19T18:21:41Z</time>
      </trkpt>
      <trkpt lat="59.9518191" lon="17.6719042">
        <ele>24.1703</ele>
        <time>2013-05-19T18:21:42Z</time>
      </trkpt>
      <trkpt lat="59.9518224" lon="17.6719928">
        <ele>24.1703</ele>
        <time>2013-05-19T18:21:43Z</time>
      </trkpt>
      <trkpt lat="59.9518285" lon="17.672083">
        <ele>24.1703</ele>
        <time>2013-05-19T18:21:44Z</time>
      </trkpt>
      <trkpt lat="59.9518378" lon="17.6721751">
        <ele>24.1703</ele>
        <time>2013-05-19T18:21:45Z</time>
      </trkpt>
      <trkpt lat="59.9518484" lon="17.6722685">
        <ele>24.1703</ele>
        <time>2013-05-19T18:21:46Z</time>
      </trkpt>
      <trkpt lat="59.9518576" lon="17.6723643">
        <ele>24.651</ele>
        <time>2013-05-19T18:21:47Z</time>
      </trkpt>
      <trkpt lat="59.9518664" lon="17.6724612">
        <ele>24.651</ele>
        <time>2013-05-19T18:21:48Z</time>
      </trkpt>
      <trkpt lat="59.9518759" lon="17.6725576">
        <ele>24.651</ele>
        <time>2013-05-19T18:21:49Z</time>
      </trkpt>
      <trkpt lat="59.9518857" lon="17.6726529">
        <ele>25.1317</ele>
        <time>2013-05-19T18:21:50Z</time>
      </trkpt>
      <trkpt lat="59.9518966" lon="17.6727465">
        <ele>25.1317</ele>
        <time>2013-05-19T18:21:51Z</time>
      </trkpt>
      <trkpt lat="59.9519087" lon="17.672838">
        <ele>25.1317</ele>
        <time>2013-05-19T18:21:52Z</time>
      </trkpt>
      <trkpt lat="59.9519202" lon="17.6729294">
        <ele>25.6123</ele>
        <time>2013-05-19T18:21:53Z</time>
      </trkpt>
      <trkpt lat="59.9519316" lon="17.6730225">
        <ele>25.6123</ele>
        <time>2013-05-19T18:21:54Z</time>
      </trkpt>
      <trkpt lat="59.9519441" lon="17.6731165">
        <ele>25.6123</ele>
        <time>2013-05-19T18:21:55Z</time>
      </trkpt>
      <trkpt lat="59.9519582" lon="17.6732102">
        <ele>25.6123</ele>
        <time>2013-05-19T18:21:56Z</time>
      </trkpt>
      <trkpt lat="59.9519725" lon="17.6733044">
        <ele>25.6123</ele>
        <time>2013-05-19T18:21:57Z</time>
      </trkpt>
      <trkpt lat="59.9519876" lon="17.673398">
        <ele>26.0929</ele>
        <time>2013-05-19T18:21:58Z</time>
      </trkpt>
      <trkpt lat="59.9520041" lon="17.67349">
        <ele>26.0929</ele>
        <time>2013-05-19T18:21:59Z</time>
      </trkpt>
      <trkpt lat="59.9520196" lon="17.6735825">
        <ele>26.0929</ele>
        <time>2013-05-19T18:22:00Z</time>
      </trkpt>
      <trkpt lat="59.9520339" lon="17.6736756">
        <ele>26.0929</ele>
        <time>2013-05-19T18:22:01Z</time>
      </trkpt>
      <trkpt lat="59.9520488" lon="17.6737684">
        <ele>26.5736</ele>
        <time>2013-05-19T18:22:02Z</time>
      </trkpt>
      <trkpt lat="59.9520662" lon="17.6738602">
        <ele>26.5736</ele>
        <time>2013-05-19T18:22:03Z</time>
      </trkpt>
      <trkpt lat="59.952083" lon="17.6739492">
        <ele>26.5736</ele>
        <time>2013-05-19T18:22:04Z</time>
      </trkpt>
      <trkpt lat="59.9520985" lon="17.674032">
        <ele>27.0543</ele>
        <time>2013-05-19T18:22:05Z</time>
      </trkpt>
      <trkpt lat="59.9521151" lon="17.6741134">
        <ele>27.0543</ele>
        <time>2013-05-19T18:22:06Z</time>
      </trkpt>
      <trkpt lat="59.9521342" lon="17.674198">
        <ele>27.0543</ele>
        <time>2013-05-19T18:22:07Z</time>
      </trkpt>
      <trkpt lat="59.9521542" lon="17.6742854">
        <ele>27.0543</ele>
        <time>2013-05-19T18:22:08Z</time>
      </trkpt>
      <trkpt lat="59.9521739" lon="17.6743775">
        <ele>27.0543</ele>
        <time>2013-05-19T18:22:09Z</time>
      </trkpt>
      <trkpt lat="59.9521933" lon="17.6744732">
        <ele>27.5349</ele>
        <time>2013-05-19T18:22:10Z</time>
      </trkpt>
      <trkpt lat="59.9522133" lon="17.6745716">
        <ele>27.5349</ele>
        <time>2013-05-19T18:22:11Z</time>
      </trkpt>
      <trkpt lat="59.9522322" lon="17.6746726">
        <ele>28.0155</ele>
        <time>2013-05-19T18:22:12Z</time>
      </trkpt>
      <trkpt lat="59.9522483" lon="17.6747733">
        <ele>28.4962</ele>
        <time>2013-05-19T18:22:13Z</time>
      </trkpt>
      <trkpt lat="59.9522622" lon="17.6748668">
        <ele>28.4962</ele>
        <time>2013-05-19T18:22:14Z</time>
      </trkpt>
      <trkpt lat="59.9522797" lon="17.6749548">
        <ele>28.4962</ele>
        <time>2013-05-19T18:22:15Z</time>
      </trkpt>
      <trkpt lat="59.9522977" lon="17.6750403">
        <ele>28.4962</ele>
        <time>2013-05-19T18:22:16Z</time>
      </trkpt>
      <trkpt lat="59.9523161" lon="17.6751269">
        <ele>28.9769</ele>
        <time>2013-05-19T18:22:17Z</time>
      </trkpt>
      <trkpt lat="59.9523352" lon="17.6752122">
        <ele>28.9769</ele>
        <time>2013-05-19T18:22:18Z</time>
      </trkpt>
      <trkpt lat="59.9523575" lon="17.6752908">
        <ele>28.9769</ele>
        <time>2013-05-19T18:22:19Z</time>
      </trkpt>
      <trkpt lat="59.9523853" lon="17.6753657">
        <ele>28.9769</ele>
        <time>2013-05-19T18:22:20Z</time>
      </trkpt>
      <trkpt lat="59.952415" lon="17.6754438">
        <ele>28.4962</ele>
        <time>2013-05-19T18:22:21Z</time>
      </trkpt>
      <trkpt lat="59.9524459" lon="17.6755286">
        <ele>28.4962</ele>
        <time>2013-05-19T18:22:22Z</time>
      </trkpt>
      <trkpt lat="59.9524772" lon="17.6756208">
        <ele>28.4962</ele>
        <time>2013-05-19T18:22:23Z</time>
      </trkpt>
      <trkpt lat="59.9525115" lon="17.6757163">
        <ele>28.0155</ele>
        <time>2013-05-19T18:22:24Z</time>
      </trkpt>
      <trkpt lat="59.9525505" lon="17.6758142">
        <ele>27.5349</ele>
        <time>2013-05-19T18:22:25Z</time>
      </trkpt>
      <trkpt lat="59.9525921" lon="17.6759172">
        <ele>27.5349</ele>
        <time>2013-05-19T18:22:26Z</time>
      </trkpt>
      <trkpt lat="59.952634" lon="17.6760233">
        <ele>27.0543</ele>
        <time>2013-05-19T18:22:27Z</time>
      </trkpt>
      <trkpt lat="59.952674" lon="17.6761342">
        <ele>26.5736</ele>
        <time>2013-05-19T18:22:28Z</time>
      </trkpt>
      <trkpt lat="59.9527126" lon="17.6762463">
        <ele>26.5736</ele>
        <time>2013-05-19T18:22:29Z</time>
      </trkpt>
      <trkpt lat="59.9527507" lon="17.676356">
        <ele>26.5736</ele>
        <time>2013-05-19T18:22:30Z</time>
      </trkpt>
      <trkpt lat="59.95279" lon="17.6764615">
        <ele>26.0929</ele>
        <time>2013-05-19T18:22:31Z</time>
      </trkpt>
      <trkpt lat="59.9528318" lon="17.6765649">
        <ele>26.0929</ele>
        <time>2013-05-19T18:22:32Z</time>
      </trkpt>
      <trkpt lat="59.9528744" lon="17.676669">
        <ele>25.6123</ele>
        <time>2013-05-19T18:22:33Z</time>
      </trkpt>
      <trkpt lat="59.9529154" lon="17.6767746">
        <ele>25.6123</ele>
        <time>2013-05-19T18:22:34Z</time>
      </trkpt>
      <trkpt lat="59.9529552" lon="17.6768796">
        <ele>25.6123</ele>
        <time>2013-05-19T18:22:35Z</time>
      </trkpt>
      <trkpt lat="59.9529958" lon="17.6769822">
        <ele>25.1317</ele>
        <time>2013-05-19T18:22:36Z</time>
      </trkpt>
      <trkpt lat="59.9530357" lon="17.6770839">
        <ele>25.1317</ele>
        <time>2013-05-19T18:22:37Z</time>
      </trkpt>
      <trkpt lat="59.9530734" lon="17.6771859">
        <ele>25.1317</ele>
        <time>2013-05-19T18:22:38Z</time>
      </trkpt>
      <trkpt lat="59.9531101" lon="17.6772874">
        <ele>25.1317</ele>
        <time>2013-05-19T18:22:39Z</time>
      </trkpt>
      <trkpt lat="59.9531402" lon="17.6773832">
        <ele>24.651</ele>
        <time>2013-05-19T18:22:40Z</time>
      </trkpt>
      <trkpt lat="59.9531726" lon="17.6774806">
        <ele>24.651</ele>
        <time>2013-05-19T18:22:41Z</time>
      </trkpt>
      <trkpt lat="59.9532074" lon="17.6775811">
        <ele>24.1703</ele>
        <time>2013-05-19T18:22:42Z</time>
      </trkpt>
      <trkpt lat="59.9532422" lon="17.6776852">
        <ele>24.1703</ele>
        <time>2013-05-19T18:22:43Z</time>
      </trkpt>
      <trkpt lat="59.9532744" lon="17.6777888">
        <ele>23.6896</ele>
        <time>2013-05-19T18:22:44Z</time>
      </trkpt>
      <trkpt lat="59.9533076" lon="17.677891">
        <ele>23.6896</ele>
        <time>2013-05-19T18:22:45Z</time>
      </trkpt>
      <trkpt lat="59.9533437" lon="17.6779944">
        <ele>23.209</ele>
        <time>2013-05-19T18:22:46Z</time>
      </trkpt>
      <trkpt lat="59.9533816" lon="17.6781003">
        <ele>23.209</ele>
        <time>2013-05-19T18:22:47Z</time>
      </trkpt>
      <trkpt lat="59.9534168" lon="17.6782101">
        <ele>22.7283</ele>
        <time>2013-05-19T18:22:48Z</time>
      </trkpt>
      <trkpt lat="59.9534495" lon="17.6783227">
        <ele>22.7283</ele>
        <time>2013-05-19T18:22:49Z</time>
      </trkpt>
      <trkpt lat="59.9534846" lon="17.6784358">
        <ele>22.2476</ele>
        <time>2013-05-19T18:22:50Z</time>
      </trkpt>
      <trkpt lat="59.9535194" lon="17.6785493">
        <ele>22.2476</ele>
        <time>2013-05-19T18:22:51Z</time>
      </trkpt>
      <trkpt lat="59.9535547" lon="17.6786641">
        <ele>21.767</ele>
        <time>2013-05-19T18:22:52Z</time>
      </trkpt>
      <trkpt lat="59.95359" lon="17.6787787">
        <ele>21.2864</ele>
        <time>2013-05-19T18:22:53Z</time>
      </trkpt>
      <trkpt lat="59.9536271" lon="17.6788936">
        <ele>21.2864</ele>
        <time>2013-05-19T18:22:54Z</time>
      </trkpt>
      <trkpt lat="59.9536642" lon="17.6790072">
        <ele>20.8057</ele>
        <time>2013-05-19T18:22:55Z</time>
      </trkpt>
      <trkpt lat="59.9537007" lon="17.6791217">
        <ele>20.8057</ele>
        <time>2013-05-19T18:22:56Z</time>
      </trkpt>
      <trkpt lat="59.9537359" lon="17.6792361">
        <ele>20.325</ele>
        <time>2013-05-19T18:22:57Z</time>
      </trkpt>
      <trkpt lat="59.9537742" lon="17.6793522">
        <ele>20.325</ele>
        <time>2013-05-19T18:22:58Z</time>
      </trkpt>
      <trkpt lat="59.9538116" lon="17.6794672">
        <ele>20.325</ele>
        <time>2013-05-19T18:22:59Z</time>
      </trkpt>
      <trkpt lat="59.9538494" lon="17.6795822">
        <ele>20.325</ele>
        <time>2013-05-19T18:23:00Z</time>
      </trkpt>
      <trkpt lat="59.9538872" lon="17.6796978">
        <ele>20.325</ele>
        <time>2013-05-19T18:23:01Z</time>
      </trkpt>
      <trkpt lat="59.9539245" lon="17.6798142">
        <ele>20.325</ele>
        <time>2013-05-19T18:23:02Z</time>
      </trkpt>
      <trkpt lat="59.9539617" lon="17.6799291">
        <ele>20.325</ele>
        <time>2013-05-19T18:23:03Z</time>
      </trkpt>
      <trkpt lat="59.954001" lon="17.6800437">
        <ele>20.325</ele>
        <time>2013-05-19T18:23:04Z</time>
      </trkpt>
      <trkpt lat="59.9540406" lon="17.6801572">
        <ele>20.325</ele>
        <time>2013-05-19T18:23:05Z</time>
      </trkpt>
      <trkpt lat="59.9540817" lon="17.6802709">
        <ele>20.325</ele>
        <time>2013-05-19T18:23:06Z</time>
      </trkpt>
      <trkpt lat="59.9541234" lon="17.6803836">
        <ele>20.325</ele>
        <time>2013-05-19T18:23:07Z</time>
      </trkpt>
      <trkpt lat="59.9541642" lon="17.6804935">
        <ele>20.325</ele>
        <time>2013-05-19T18:23:08Z</time>
      </trkpt>
      <trkpt lat="59.9542024" lon="17.6806025">
        <ele>20.8057</ele>
        <time>2013-05-19T18:23:09Z</time>
      </trkpt>
      <trkpt lat="59.9542374" lon="17.6807138">
        <ele>20.8057</ele>
        <time>2013-05-19T18:23:10Z</time>
      </trkpt>
      <trkpt lat="59.9542721" lon="17.6808264">
        <ele>20.8057</ele>
        <time>2013-05-19T18:23:11Z</time>
      </trkpt>
      <trkpt lat="59.9543078" lon="17.6809404">
        <ele>21.2864</ele>
        <time>2013-05-19T18:23:12Z</time>
      </trkpt>
      <trkpt lat="59.9543447" lon="17.6810575">
        <ele>21.2864</ele>
        <time>2013-05-19T18:23:13Z</time>
      </trkpt>
      <trkpt lat="59.9543819" lon="17.6811757">
        <ele>21.767</ele>
        <time>2013-05-19T18:23:14Z</time>
      </trkpt>
      <trkpt lat="59.9544192" lon="17.681292">
        <ele>21.767</ele>
        <time>2013-05-19T18:23:15Z</time>
      </trkpt>
      <trkpt lat="59.9544575" lon="17.6814048">
        <ele>21.767</ele>
        <time>2013-05-19T18:23:16Z</time>
      </trkpt>
      <trkpt lat="59.9544972" lon="17.6815154">
        <ele>22.2476</ele>
        <time>2013-05-19T18:23:17Z</time>
      </trkpt>
      <trkpt lat="59.9545381" lon="17.681624">
        <ele>22.2476</ele>
        <time>2013-05-19T18:23:18Z</time>
      </trkpt>
      <trkpt lat="59.9545817" lon="17.6817281">
        <ele>22.2476</ele>
        <time>2013-05-19T18:23:19Z</time>
      </trkpt>
      <trkpt lat="59.9546336" lon="17.6818236">
        <ele>22.7283</ele>
        <time>2013-05-19T18:23:20Z</time>
      </trkpt>
      <trkpt lat="59.9546932" lon="17.6819034">
        <ele>23.209</ele>
        <time>2013-05-19T18:23:21Z</time>
      </trkpt>
      <trkpt lat="59.9547516" lon="17.6819863">
        <ele>23.209</ele>
        <time>2013-05-19T18:23:22Z</time>
      </trkpt>
      <trkpt lat="59.9547994" lon="17.6820862">
        <ele>23.6896</ele>
        <time>2013-05-19T18:23:23Z</time>
      </trkpt>
      <trkpt lat="59.9548396" lon="17.6821976">
        <ele>23.6896</ele>
        <time>2013-05-19T18:23:24Z</time>
      </trkpt>
      <trkpt lat="59.9548774" lon="17.6823178">
        <ele>24.1703</ele>
        <time>2013-05-19T18:23:25Z</time>
      </trkpt>
      <trkpt lat="59.9549126" lon="17.6824411">
        <ele>24.651</ele>
        <time>2013-05-19T18:23:26Z</time>
      </trkpt>
      <trkpt lat="59.9549482" lon="17.6825623">
        <ele>24.651</ele>
        <time>2013-05-19T18:23:27Z</time>
      </trkpt>
      <trkpt lat="59.9549823" lon="17.68268">
        <ele>25.1317</ele>
        <time>2013-05-19T18:23:28Z</time>
      </trkpt>
      <trkpt lat="59.955017" lon="17.6827981">
        <ele>25.1317</ele>
        <time>2013-05-19T18:23:29Z</time>
      </trkpt>
      <trkpt lat="59.955053" lon="17.6829171">
        <ele>25.6123</ele>
        <time>2013-05-19T18:23:30Z</time>
      </trkpt>
      <trkpt lat="59.9550879" lon="17.6830381">
        <ele>26.0929</ele>
        <time>2013-05-19T18:23:31Z</time>
      </trkpt>
      <trkpt lat="59.955119" lon="17.6831579">
        <ele>26.0929</ele>
        <time>2013-05-19T18:23:32Z</time>
      </trkpt>
      <trkpt lat="59.9551479" lon="17.6832783">
        <ele>26.0929</ele>
        <time>2013-05-19T18:23:33Z</time>
      </trkpt>
      <trkpt lat="59.9551756" lon="17.6833993">
        <ele>26.0929</ele>
        <time>2013-05-19T18:23:34Z</time>
      </trkpt>
      <trkpt lat="59.9552043" lon="17.6835201">
        <ele>26.5736</ele>
        <time>2013-05-19T18:23:35Z</time>
      </trkpt>
      <trkpt lat="59.955236" lon="17.6836437">
        <ele>27.0543</ele>
        <time>2013-05-19T18:23:36Z</time>
      </trkpt>
      <trkpt lat="59.9552681" lon="17.6837666">
        <ele>28.0155</ele>
        <time>2013-05-19T18:23:37Z</time>
      </trkpt>
      <trkpt lat="59.9552958" lon="17.6838868">
        <ele>28.4962</ele>
        <time>2013-05-19T18:23:38Z</time>
      </trkpt>
      <trkpt lat="59.9553234" lon="17.6840074">
        <ele>28.9769</ele>
        <time>2013-05-19T18:23:39Z</time>
      </trkpt>
      <trkpt lat="59.9553498" lon="17.684127">
        <ele>29.4575</ele>
        <time>2013-05-19T18:23:40Z</time>
      </trkpt>
      <trkpt lat="59.9553723" lon="17.6842437">
        <ele>29.9381</ele>
        <time>2013-05-19T18:23:41Z</time>
      </trkpt>
      <trkpt lat="59.955394" lon="17.6843603">
        <ele>30.4188</ele>
        <time>2013-05-19T18:23:42Z</time>
      </trkpt>
      <trkpt lat="59.9554132" lon="17.6844749">
        <ele>29.9381</ele>
        <time>2013-05-19T18:23:43Z</time>
      </trkpt>
      <trkpt lat="59.9554351" lon="17.6845906">
        <ele>30.4188</ele>
        <time>2013-05-19T18:23:44Z</time>
      </trkpt>
      <trkpt lat="59.9554568" lon="17.6847039">
        <ele>30.8995</ele>
        <time>2013-05-19T18:23:45Z</time>
      </trkpt>
      <trkpt lat="59.9554749" lon="17.6848163">
        <ele>30.8995</ele>
        <time>2013-05-19T18:23:46Z</time>
      </trkpt>
      <trkpt lat="59.9554925" lon="17.6849275">
        <ele>30.8995</ele>
        <time>2013-05-19T18:23:47Z</time>
      </trkpt>
      <trkpt lat="59.9555123" lon="17.6850384">
        <ele>31.3801</ele>
        <time>2013-05-19T18:23:48Z</time>
      </trkpt>
      <trkpt lat="59.9555312" lon="17.6851503">
        <ele>31.3801</ele>
        <time>2013-05-19T18:23:49Z</time>
      </trkpt>
      <trkpt lat="59.9555477" lon="17.6852657">
        <ele>31.3801</ele>
        <time>2013-05-19T18:23:50Z</time>
      </trkpt>
      <trkpt lat="59.955562" lon="17.6853822">
        <ele>31.3801</ele>
        <time>2013-05-19T18:23:51Z</time>
      </trkpt>
      <trkpt lat="59.9555768" lon="17.6854985">
        <ele>31.8607</ele>
        <time>2013-05-19T18:23:52Z</time>
      </trkpt>
      <trkpt lat="59.9555974" lon="17.6856181">
        <ele>32.3416</ele>
        <time>2013-05-19T18:23:53Z</time>
      </trkpt>
      <trkpt lat="59.9556189" lon="17.6857365">
        <ele>33.3029</ele>
        <time>2013-05-19T18:23:54Z</time>
      </trkpt>
      <trkpt lat="59.9556417" lon="17.6858497">
        <ele>34.2642</ele>
        <time>2013-05-19T18:23:55Z</time>
      </trkpt>
      <trkpt lat="59.955665" lon="17.685961">
        <ele>34.7449</ele>
        <time>2013-05-19T18:23:56Z</time>
      </trkpt>
      <trkpt lat="59.9556877" lon="17.6860718">
        <ele>35.7061</ele>
        <time>2013-05-19T18:23:57Z</time>
      </trkpt>
      <trkpt lat="59.9557096" lon="17.6861827">
        <ele>36.1868</ele>
        <time>2013-05-19T18:23:58Z</time>
      </trkpt>
      <trkpt lat="59.9557311" lon="17.6862935">
        <ele>37.1481</ele>
        <time>2013-05-19T18:23:59Z</time>
      </trkpt>
      <trkpt lat="59.955751" lon="17.6864049">
        <ele>37.6287</ele>
        <time>2013-05-19T18:24:00Z</time>
      </trkpt>
      <trkpt lat="59.95577" lon="17.6865168">
        <ele>38.1094</ele>
        <time>2013-05-19T18:24:01Z</time>
      </trkpt>
      <trkpt lat="59.9557881" lon="17.6866267">
        <ele>38.5901</ele>
        <time>2013-05-19T18:24:02Z</time>
      </trkpt>
      <trkpt lat="59.9558064" lon="17.6867343">
        <ele>39.0707</ele>
        <time>2013-05-19T18:24:03Z</time>
      </trkpt>
      <trkpt lat="59.955825" lon="17.6868411">
        <ele>39.5513</ele>
        <time>2013-05-19T18:24:04Z</time>
      </trkpt>
      <trkpt lat="59.9558415" lon="17.6869498">
        <ele>40.0321</ele>
        <time>2013-05-19T18:24:05Z</time>
      </trkpt>
      <trkpt lat="59.9558565" lon="17.6870603">
        <ele>40.0321</ele>
        <time>2013-05-19T18:24:06Z</time>
      </trkpt>
      <trkpt lat="59.9558721" lon="17.6871711">
        <ele>40.5128</ele>
        <time>2013-05-19T18:24:07Z</time>
      </trkpt>
      <trkpt lat="59.9558898" lon="17.6872817">
        <ele>40.5128</ele>
        <time>2013-05-19T18:24:08Z</time>
      </trkpt>
      <trkpt lat="59.9559085" lon="17.6873932">
        <ele>40.5128</ele>
        <time>2013-05-19T18:24:09Z</time>
      </trkpt>
      <trkpt lat="59.9559264" lon="17.6875068">
        <ele>40.9934</ele>
        <time>2013-05-19T18:24:10Z</time>
      </trkpt>
      <trkpt lat="59.9559437" lon="17.687622">
        <ele>40.9934</ele>
        <time>2013-05-19T18:24:11Z</time>
      </trkpt>
      <trkpt lat="59.9559618" lon="17.687738">
        <ele>40.9934</ele>
        <time>2013-05-19T18:24:12Z</time>
      </trkpt>
      <trkpt lat="59.9559809" lon="17.6878544">
        <ele>40.9934</ele>
        <time>2013-05-19T18:24:13Z</time>
      </trkpt>
      <trkpt lat="59.9560007" lon="17.6879694">
        <ele>40.9934</ele>
        <time>2013-05-19T18:24:14Z</time>
      </trkpt>
      <trkpt lat="59.956021" lon="17.6880828">
        <ele>40.9934</ele>
        <time>2013-05-19T18:24:15Z</time>
      </trkpt>
      <trkpt lat="59.9560401" lon="17.6881963">
        <ele>40.9934</ele>
        <time>2013-05-19T18:24:16Z</time>
      </trkpt>
      <trkpt lat="59.9560581" lon="17.6883102">
        <ele>40.9934</ele>
        <time>2013-05-19T18:24:17Z</time>
      </trkpt>
      <trkpt lat="59.9560756" lon="17.6884241">
        <ele>40.9934</ele>
        <time>2013-05-19T18:24:18Z</time>
      </trkpt>
      <trkpt lat="59.9560943" lon="17.6885385">
        <ele>40.9934</ele>
        <time>2013-05-19T18:24:19Z</time>
      </trkpt>
      <trkpt lat="59.9561156" lon="17.6886487">
        <ele>40.9934</ele>
        <time>2013-05-19T18:24:20Z</time>
      </trkpt>
      <trkpt lat="59.9561421" lon="17.688751">
        <ele>40.5128</ele>
        <time>2013-05-19T18:24:21Z</time>
      </trkpt>
      <trkpt lat="59.9561706" lon="17.6888507">
        <ele>40.0321</ele>
        <time>2013-05-19T18:24:22Z</time>
      </trkpt>
      <trkpt lat="59.9561984" lon="17.6889524">
        <ele>39.5513</ele>
        <time>2013-05-19T18:24:23Z</time>
      </trkpt>
      <trkpt lat="59.9562229" lon="17.6890592">
        <ele>39.0707</ele>
        <time>2013-05-19T18:24:24Z</time>
      </trkpt>
      <trkpt lat="59.9562452" lon="17.6891715">
        <ele>39.0707</ele>
        <time>2013-05-19T18:24:25Z</time>
      </trkpt>
      <trkpt lat="59.9562638" lon="17.6892824">
        <ele>38.5901</ele>
        <time>2013-05-19T18:24:26Z</time>
      </trkpt>
      <trkpt lat="59.9562841" lon="17.6893927">
        <ele>38.5901</ele>
        <time>2013-05-19T18:24:27Z</time>
      </trkpt>
      <trkpt lat="59.9563041" lon="17.6895036">
        <ele>38.1094</ele>
        <time>2013-05-19T18:24:28Z</time>
      </trkpt>
      <trkpt lat="59.9563248" lon="17.6896163">
        <ele>37.6287</ele>
        <time>2013-05-19T18:24:29Z</time>
      </trkpt>
      <trkpt lat="59.9563486" lon="17.6897277">
        <ele>37.6287</ele>
        <time>2013-05-19T18:24:30Z</time>
      </trkpt>
      <trkpt lat="59.9563767" lon="17.6898368">
        <ele>37.6287</ele>
        <time>2013-05-19T18:24:31Z</time>
      </trkpt>
      <trkpt lat="59.9564052" lon="17.6899442">
        <ele>37.1481</ele>
        <time>2013-05-19T18:24:32Z</time>
      </trkpt>
      <trkpt lat="59.9564346" lon="17.6900478">
        <ele>36.6675</ele>
        <time>2013-05-19T18:24:33Z</time>
      </trkpt>
      <trkpt lat="59.9564648" lon="17.6901499">
        <ele>36.1868</ele>
        <time>2013-05-19T18:24:34Z</time>
      </trkpt>
      <trkpt lat="59.9564964" lon="17.6902526">
        <ele>35.7061</ele>
        <time>2013-05-19T18:24:35Z</time>
      </trkpt>
      <trkpt lat="59.9565295" lon="17.6903574">
        <ele>35.2255</ele>
        <time>2013-05-19T18:24:36Z</time>
      </trkpt>
      <trkpt lat="59.9565627" lon="17.6904635">
        <ele>35.2255</ele>
        <time>2013-05-19T18:24:37Z</time>
      </trkpt>
      <trkpt lat="59.9565969" lon="17.6905738">
        <ele>34.7449</ele>
        <time>2013-05-19T18:24:38Z</time>
      </trkpt>
      <trkpt lat="59.9566319" lon="17.6906867">
        <ele>34.2642</ele>
        <time>2013-05-19T18:24:39Z</time>
      </trkpt>
      <trkpt lat="59.9566683" lon="17.6907995">
        <ele>33.7834</ele>
        <time>2013-05-19T18:24:40Z</time>
      </trkpt>
      <trkpt lat="59.9567044" lon="17.6909141">
        <ele>33.3029</ele>
        <time>2013-05-19T18:24:41Z</time>
      </trkpt>
      <trkpt lat="59.9567391" lon="17.6910308">
        <ele>32.8223</ele>
        <time>2013-05-19T18:24:42Z</time>
      </trkpt>
      <trkpt lat="59.9567772" lon="17.6911476">
        <ele>32.3416</ele>
        <time>2013-05-19T18:24:43Z</time>
      </trkpt>
      <trkpt lat="59.9568176" lon="17.6912663">
        <ele>31.8607</ele>
        <time>2013-05-19T18:24:44Z</time>
      </trkpt>
      <trkpt lat="59.9568581" lon="17.6913856">
        <ele>31.3801</ele>
        <time>2013-05-19T18:24:45Z</time>
      </trkpt>
      <trkpt lat="59.9568982" lon="17.6915037">
        <ele>30.8995</ele>
        <time>2013-05-19T18:24:46Z</time>
      </trkpt>
      <trkpt lat="59.9569368" lon="17.6916211">
        <ele>29.9381</ele>
        <time>2013-05-19T18:24:47Z</time>
      </trkpt>
      <trkpt lat="59.9569764" lon="17.6917408">
        <ele>29.4575</ele>
        <time>2013-05-19T18:24:48Z</time>
      </trkpt>
      <trkpt lat="59.9570134" lon="17.6918595">
        <ele>28.9769</ele>
        <time>2013-05-19T18:24:49Z</time>
      </trkpt>
      <trkpt lat="59.9570516" lon="17.6919782">
        <ele>28.0155</ele>
        <time>2013-05-19T18:24:50Z</time>
      </trkpt>
      <trkpt lat="59.9570914" lon="17.6920984">
        <ele>27.5349</ele>
        <time>2013-05-19T18:24:51Z</time>
      </trkpt>
      <trkpt lat="59.9571336" lon="17.6922214">
        <ele>27.5349</ele>
        <time>2013-05-19T18:24:52Z</time>
      </trkpt>
      <trkpt lat="59.9571743" lon="17.6923427">
        <ele>27.0543</ele>
        <time>2013-05-19T18:24:53Z</time>
      </trkpt>
      <trkpt lat="59.9572159" lon="17.6924615">
        <ele>27.0543</ele>
        <time>2013-05-19T18:24:54Z</time>
      </trkpt>
      <trkpt lat="59.9572572" lon="17.6925789">
        <ele>26.5736</ele>
        <time>2013-05-19T18:24:55Z</time>
      </trkpt>
      <trkpt lat="59.9572958" lon="17.692697">
        <ele>26.5736</ele>
        <time>2013-05-19T18:24:56Z</time>
      </trkpt>
      <trkpt lat="59.9573334" lon="17.6928152">
        <ele>26.0929</ele>
        <time>2013-05-19T18:24:57Z</time>
      </trkpt>
      <trkpt lat="59.9573718" lon="17.6929339">
        <ele>26.0929</ele>
        <time>2013-05-19T18:24:58Z</time>
      </trkpt>
      <trkpt lat="59.9574095" lon="17.6930525">
        <ele>26.0929</ele>
        <time>2013-05-19T18:24:59Z</time>
      </trkpt>
      <trkpt lat="59.9574471" lon="17.693169">
        <ele>26.0929</ele>
        <time>2013-05-19T18:25:00Z</time>
      </trkpt>
      <trkpt lat="59.9574864" lon="17.6932823">
        <ele>25.6123</ele>
        <time>2013-05-19T18:25:01Z</time>
      </trkpt>
      <trkpt lat="59.9575256" lon="17.6933944">
        <ele>25.6123</ele>
        <time>2013-05-19T18:25:02Z</time>
      </trkpt>
      <trkpt lat="59.9575646" lon="17.6935056">
        <ele>25.1317</ele>
        <time>2013-05-19T18:25:03Z</time>
      </trkpt>
      <trkpt lat="59.9576025" lon="17.6936154">
        <ele>25.1317</ele>
        <time>2013-05-19T18:25:04Z</time>
      </trkpt>
      <trkpt lat="59.9576402" lon="17.6937243">
        <ele>25.1317</ele>
        <time>2013-05-19T18:25:05Z</time>
      </trkpt>
      <trkpt lat="59.9576763" lon="17.6938311">
        <ele>24.651</ele>
        <time>2013-05-19T18:25:06Z</time>
      </trkpt>
      <trkpt lat="59.9577117" lon="17.6939376">
        <ele>24.651</ele>
        <time>2013-05-19T18:25:07Z</time>
      </trkpt>
      <trkpt lat="59.9577487" lon="17.6940443">
        <ele>24.1703</ele>
        <time>2013-05-19T18:25:08Z</time>
      </trkpt>
      <trkpt lat="59.9577856" lon="17.6941497">
        <ele>24.1703</ele>
        <time>2013-05-19T18:25:09Z</time>
      </trkpt>
      <trkpt lat="59.9578213" lon="17.6942542">
        <ele>24.1703</ele>
        <time>2013-05-19T18:25:10Z</time>
      </trkpt>
      <trkpt lat="59.9578583" lon="17.6943577">
        <ele>24.1703</ele>
        <time>2013-05-19T18:25:11Z</time>
      </trkpt>
      <trkpt lat="59.9578949" lon="17.694461">
        <ele>23.6896</ele>
        <time>2013-05-19T18:25:12Z</time>
      </trkpt>
      <trkpt lat="59.9579308" lon="17.6945659">
        <ele>23.6896</ele>
        <time>2013-05-19T18:25:13Z</time>
      </trkpt>
      <trkpt lat="59.9579669" lon="17.6946713">
        <ele>23.6896</ele>
        <time>2013-05-19T18:25:14Z</time>
      </trkpt>
      <trkpt lat="59.9580036" lon="17.6947768">
        <ele>23.6896</ele>
        <time>2013-05-19T18:25:15Z</time>
      </trkpt>
      <trkpt lat="59.9580412" lon="17.6948825">
        <ele>23.6896</ele>
        <time>2013-05-19T18:25:16Z</time>
      </trkpt>
      <trkpt lat="59.9580804" lon="17.6949887">
        <ele>23.6896</ele>
        <time>2013-05-19T18:25:17Z</time>
      </trkpt>
      <trkpt lat="59.9581213" lon="17.6950961">
        <ele>23.6896</ele>
        <time>2013-05-19T18:25:18Z</time>
      </trkpt>
      <trkpt lat="59.9581623" lon="17.6952053">
        <ele>23.6896</ele>
        <time>2013-05-19T18:25:19Z</time>
      </trkpt>
      <trkpt lat="59.9582038" lon="17.6953148">
        <ele>23.6896</ele>
        <time>2013-05-19T18:25:20Z</time>
      </trkpt>
      <trkpt lat="59.9582455" lon="17.6954241">
        <ele>23.6896</ele>
        <time>2013-05-19T18:25:21Z</time>
      </trkpt>
      <trkpt lat="59.9582877" lon="17.6955326">
        <ele>24.1703</ele>
        <time>2013-05-19T18:25:22Z</time>
      </trkpt>
      <trkpt lat="59.9583318" lon="17.6956389">
        <ele>24.1703</ele>
        <time>2013-05-19T18:25:23Z</time>
      </trkpt>
      <trkpt lat="59.9583757" lon="17.6957426">
        <ele>24.1703</ele>
        <time>2013-05-19T18:25:24Z</time>
      </trkpt>
      <trkpt lat="59.9584188" lon="17.695846">
        <ele>24.1703</ele>
        <time>2013-05-19T18:25:25Z</time>
      </trkpt>
      <trkpt lat="59.958462" lon="17.6959473">
        <ele>24.1703</ele>
        <time>2013-05-19T18:25:26Z</time>
      </trkpt>
      <trkpt lat="59.9585042" lon="17.6960472">
        <ele>24.1703</ele>
        <time>2013-05-19T18:25:27Z</time>
      </trkpt>
      <trkpt lat="59.958544" lon="17.6961497">
        <ele>23.6896</ele>
        <time>2013-05-19T18:25:28Z</time>
      </trkpt>
      <trkpt lat="59.958582" lon="17.6962564">
        <ele>23.6896</ele>
        <time>2013-05-19T18:25:29Z</time>
      </trkpt>
      <trkpt lat="59.9586176" lon="17.6963636">
        <ele>23.6896</ele>
        <time>2013-05-19T18:25:30Z</time>
      </trkpt>
      <trkpt lat="59.958653" lon="17.6964709">
        <ele>23.6896</ele>
        <time>2013-05-19T18:25:31Z</time>
      </trkpt>
      <trkpt lat="59.9586875" lon="17.6965797">
        <ele>23.6896</ele>
        <time>2013-05-19T18:25:32Z</time>
      </trkpt>
      <trkpt lat="59.958719" lon="17.6966914">
        <ele>23.209</ele>
        <time>2013-05-19T18:25:33Z</time>
      </trkpt>
      <trkpt lat="59.9587487" lon="17.696806">
        <ele>23.209</ele>
        <time>2013-05-19T18:25:34Z</time>
      </trkpt>
      <trkpt lat="59.9587756" lon="17.6969227">
        <ele>23.209</ele>
        <time>2013-05-19T18:25:35Z</time>
      </trkpt>
      <trkpt lat="59.9587998" lon="17.697041">
        <ele>23.6896</ele>
        <time>2013-05-19T18:25:36Z</time>
      </trkpt>
      <trkpt lat="59.9588239" lon="17.6971608">
        <ele>23.6896</ele>
        <time>2013-05-19T18:25:37Z</time>
      </trkpt>
      <trkpt lat="59.9588498" lon="17.6972821">
        <ele>24.651</ele>
        <time>2013-05-19T18:25:38Z</time>
      </trkpt>
      <trkpt lat="59.9588746" lon="17.6973984">
        <ele>25.1317</ele>
        <time>2013-05-19T18:25:39Z</time>
      </trkpt>
      <trkpt lat="59.9588969" lon="17.6975079">
        <ele>25.6123</ele>
        <time>2013-05-19T18:25:40Z</time>
      </trkpt>
      <trkpt lat="59.9589186" lon="17.6976146">
        <ele>26.5736</ele>
        <time>2013-05-19T18:25:41Z</time>
      </trkpt>
      <trkpt lat="59.9589355" lon="17.6977171">
        <ele>27.0543</ele>
        <time>2013-05-19T18:25:42Z</time>
      </trkpt>
      <trkpt lat="59.9589475" lon="17.6978118">
        <ele>27.5349</ele>
        <time>2013-05-19T18:25:43Z</time>
      </trkpt>
      <trkpt lat="59.9589632" lon="17.6979068">
        <ele>28.9769</ele>
        <time>2013-05-19T18:25:44Z</time>
      </trkpt>
      <trkpt lat="59.9589778" lon="17.6980021">
        <ele>30.4188</ele>
        <time>2013-05-19T18:25:45Z</time>
      </trkpt>
      <trkpt lat="59.9589854" lon="17.6980963">
        <ele>30.8995</ele>
        <time>2013-05-19T18:25:46Z</time>
      </trkpt>
      <trkpt lat="59.9589927" lon="17.6981902">
        <ele>31.8607</ele>
        <time>2013-05-19T18:25:47Z</time>
      </trkpt>
      <trkpt lat="59.9589979" lon="17.6982818">
        <ele>32.3416</ele>
        <time>2013-05-19T18:25:48Z</time>
      </trkpt>
      <trkpt lat="59.959003" lon="17.698373">
        <ele>32.8223</ele>
        <time>2013-05-19T18:25:49Z</time>
      </trkpt>
      <trkpt lat="59.9590082" lon="17.698466">
        <ele>33.3029</ele>
        <time>2013-05-19T18:25:50Z</time>
      </trkpt>
      <trkpt lat="59.9590107" lon="17.6985589">
        <ele>33.7834</ele>
        <time>2013-05-19T18:25:51Z</time>
      </trkpt>
      <trkpt lat="59.9590139" lon="17.6986541">
        <ele>34.2642</ele>
        <time>2013-05-19T18:25:52Z</time>
      </trkpt>
      <trkpt lat="59.9590169" lon="17.698752">
        <ele>34.2642</ele>
        <time>2013-05-19T18:25:53Z</time>
      </trkpt>
      <trkpt lat="59.9590213" lon="17.6988519">
        <ele>34.2642</ele>
        <time>2013-05-19T18:25:54Z</time>
      </trkpt>
      <trkpt lat="59.9590274" lon="17.6989541">
        <ele>34.7449</ele>
        <time>2013-05-19T18:25:55Z</time>
      </trkpt>
      <trkpt lat="59.9590329" lon="17.6990589">
        <ele>34.7449</ele>
        <time>2013-05-19T18:25:56Z</time>
      </trkpt>
      <trkpt lat="59.9590381" lon="17.6991659">
        <ele>35.2255</ele>
        <time>2013-05-19T18:25:57Z</time>
      </trkpt>
      <trkpt lat="59.9590438" lon="17.6992747">
        <ele>35.2255</ele>
        <time>2013-05-19T18:25:58Z</time>
      </trkpt>
      <trkpt lat="59.959051" lon="17.6993857">
        <ele>35.2255</ele>
        <time>2013-05-19T18:25:59Z</time>
      </trkpt>
      <trkpt lat="59.9590586" lon="17.6994991">
        <ele>35.2255</ele>
        <time>2013-05-19T18:26:00Z</time>
      </trkpt>
      <trkpt lat="59.9590672" lon="17.6996143">
        <ele>35.2255</ele>
        <time>2013-05-19T18:26:01Z</time>
      </trkpt>
      <trkpt lat="59.9590774" lon="17.699726">
        <ele>35.2255</ele>
        <time>2013-05-19T18:26:02Z</time>
      </trkpt>
      <trkpt lat="59.9590888" lon="17.6998337">
        <ele>35.2255</ele>
        <time>2013-05-19T18:26:03Z</time>
      </trkpt>
      <trkpt lat="59.9590987" lon="17.69994">
        <ele>35.2255</ele>
        <time>2013-05-19T18:26:04Z</time>
      </trkpt>
      <trkpt lat="59.9591092" lon="17.7000478">
        <ele>35.2255</ele>
        <time>2013-05-19T18:26:05Z</time>
      </trkpt>
      <trkpt lat="59.959119" lon="17.7001573">
        <ele>35.2255</ele>
        <time>2013-05-19T18:26:06Z</time>
      </trkpt>
      <trkpt lat="59.9591294" lon="17.7002683">
        <ele>35.2255</ele>
        <time>2013-05-19T18:26:07Z</time>
      </trkpt>
      <trkpt lat="59.9591406" lon="17.7003811">
        <ele>35.7061</ele>
        <time>2013-05-19T18:26:08Z</time>
      </trkpt>
      <trkpt lat="59.9591517" lon="17.7004952">
        <ele>35.7061</ele>
        <time>2013-05-19T18:26:09Z</time>
      </trkpt>
      <trkpt lat="59.9591629" lon="17.7006098">
        <ele>35.7061</ele>
        <time>2013-05-19T18:26:10Z</time>
      </trkpt>
      <trkpt lat="59.9591743" lon="17.7007237">
        <ele>36.1868</ele>
        <time>2013-05-19T18:26:11Z</time>
      </trkpt>
      <trkpt lat="59.9591867" lon="17.7008366">
        <ele>36.1868</ele>
        <time>2013-05-19T18:26:12Z</time>
      </trkpt>
      <trkpt lat="59.9592009" lon="17.7009488">
        <ele>36.1868</ele>
        <time>2013-05-19T18:26:13Z</time>
      </trkpt>
      <trkpt lat="59.9592154" lon="17.7010615">
        <ele>36.1868</ele>
        <time>2013-05-19T18:26:14Z</time>
      </trkpt>
      <trkpt lat="59.9592299" lon="17.7011745">
        <ele>36.6675</ele>
        <time>2013-05-19T18:26:15Z</time>
      </trkpt>
      <trkpt lat="59.9592425" lon="17.7012867">
        <ele>36.1868</ele>
        <time>2013-05-19T18:26:16Z</time>
      </trkpt>
      <trkpt lat="59.9592574" lon="17.7013972">
        <ele>35.7061</ele>
        <time>2013-05-19T18:26:17Z</time>
      </trkpt>
      <trkpt lat="59.9592765" lon="17.7015088">
        <ele>35.7061</ele>
        <time>2013-05-19T18:26:18Z</time>
      </trkpt>
      <trkpt lat="59.9592978" lon="17.7016193">
        <ele>35.7061</ele>
        <time>2013-05-19T18:26:19Z</time>
      </trkpt>
      <trkpt lat="59.9593236" lon="17.7017323">
        <ele>35.7061</ele>
        <time>2013-05-19T18:26:20Z</time>
      </trkpt>
      <trkpt lat="59.9593507" lon="17.7018458">
        <ele>36.1868</ele>
        <time>2013-05-19T18:26:21Z</time>
      </trkpt>
      <trkpt lat="59.9593779" lon="17.701956">
        <ele>35.7061</ele>
        <time>2013-05-19T18:26:22Z</time>
      </trkpt>
      <trkpt lat="59.9594054" lon="17.7020634">
        <ele>35.2255</ele>
        <time>2013-05-19T18:26:23Z</time>
      </trkpt>
      <trkpt lat="59.959433" lon="17.7021705">
        <ele>35.2255</ele>
        <time>2013-05-19T18:26:24Z</time>
      </trkpt>
      <trkpt lat="59.9594599" lon="17.7022777">
        <ele>34.2642</ele>
        <time>2013-05-19T18:26:25Z</time>
      </trkpt>
      <trkpt lat="59.959488" lon="17.7023849">
        <ele>33.7834</ele>
        <time>2013-05-19T18:26:26Z</time>
      </trkpt>
      <trkpt lat="59.9595175" lon="17.7024915">
        <ele>33.7834</ele>
        <time>2013-05-19T18:26:27Z</time>
      </trkpt>
      <trkpt lat="59.9595453" lon="17.7025953">
        <ele>33.3029</ele>
        <time>2013-05-19T18:26:28Z</time>
      </trkpt>
      <trkpt lat="59.9595739" lon="17.7026971">
        <ele>32.3416</ele>
        <time>2013-05-19T18:26:29Z</time>
      </trkpt>
      <trkpt lat="59.9596023" lon="17.7027992">
        <ele>31.8607</ele>
        <time>2013-05-19T18:26:30Z</time>
      </trkpt>
      <trkpt lat="59.9596345" lon="17.7029055">
        <ele>31.8607</ele>
        <time>2013-05-19T18:26:31Z</time>
      </trkpt>
      <trkpt lat="59.9596647" lon="17.703008">
        <ele>31.8607</ele>
        <time>2013-05-19T18:26:32Z</time>
      </trkpt>
      <trkpt lat="59.9596935" lon="17.7031112">
        <ele>30.8995</ele>
        <time>2013-05-19T18:26:33Z</time>
      </trkpt>
      <trkpt lat="59.9597242" lon="17.7032191">
        <ele>30.4188</ele>
        <time>2013-05-19T18:26:34Z</time>
      </trkpt>
      <trkpt lat="59.9597556" lon="17.7033301">
        <ele>29.9381</ele>
        <time>2013-05-19T18:26:35Z</time>
      </trkpt>
      <trkpt lat="59.9597894" lon="17.7034453">
        <ele>29.4575</ele>
        <time>2013-05-19T18:26:36Z</time>
      </trkpt>
      <trkpt lat="59.9598232" lon="17.703563">
        <ele>28.9769</ele>
        <time>2013-05-19T18:26:37Z</time>
      </trkpt>
      <trkpt lat="59.959864" lon="17.7036857">
        <ele>28.9769</ele>
        <time>2013-05-19T18:26:38Z</time>
      </trkpt>
      <trkpt lat="59.9599032" lon="17.7038098">
        <ele>28.0155</ele>
        <time>2013-05-19T18:26:39Z</time>
      </trkpt>
      <trkpt lat="59.9599465" lon="17.7039355">
        <ele>28.0155</ele>
        <time>2013-05-19T18:26:40Z</time>
      </trkpt>
      <trkpt lat="59.9599926" lon="17.7040576">
        <ele>28.0155</ele>
        <time>2013-05-19T18:26:41Z</time>
      </trkpt>
      <trkpt lat="59.9600423" lon="17.7041706">
        <ele>27.5349</ele>
        <time>2013-05-19T18:26:42Z</time>
      </trkpt>
      <trkpt lat="59.9600972" lon="17.7042731">
        <ele>27.5349</ele>
        <time>2013-05-19T18:26:43Z</time>
      </trkpt>
      <trkpt lat="59.9601596" lon="17.7043662">
        <ele>27.5349</ele>
        <time>2013-05-19T18:26:44Z</time>
      </trkpt>
      <trkpt lat="59.9602262" lon="17.7044508">
        <ele>27.5349</ele>
        <time>2013-05-19T18:26:45Z</time>
      </trkpt>
      <trkpt lat="59.9602937" lon="17.7045316">
        <ele>27.0543</ele>
        <time>2013-05-19T18:26:46Z</time>
      </trkpt>
      <trkpt lat="59.9603606" lon="17.7046122">
        <ele>27.0543</ele>
        <time>2013-05-19T18:26:47Z</time>
      </trkpt>
      <trkpt lat="59.9604265" lon="17.7046938">
        <ele>27.0543</ele>
        <time>2013-05-19T18:26:48Z</time>
      </trkpt>
      <trkpt lat="59.9604921" lon="17.7047756">
        <ele>27.0543</ele>
        <time>2013-05-19T18:26:49Z</time>
      </trkpt>
      <trkpt lat="59.960557" lon="17.7048557">
        <ele>27.0543</ele>
        <time>2013-05-19T18:26:50Z</time>
      </trkpt>
      <trkpt lat="59.9606202" lon="17.7049332">
        <ele>27.0543</ele>
        <time>2013-05-19T18:26:51Z</time>
      </trkpt>
      <trkpt lat="59.9606823" lon="17.7050109">
        <ele>27.0543</ele>
        <time>2013-05-19T18:26:52Z</time>
      </trkpt>
      <trkpt lat="59.9607399" lon="17.7050874">
        <ele>26.5736</ele>
        <time>2013-05-19T18:26:53Z</time>
      </trkpt>
      <trkpt lat="59.9607965" lon="17.7051584">
        <ele>26.5736</ele>
        <time>2013-05-19T18:26:54Z</time>
      </trkpt>
      <trkpt lat="59.9608518" lon="17.7052309">
        <ele>26.0929</ele>
        <time>2013-05-19T18:26:55Z</time>
      </trkpt>
      <trkpt lat="59.960905" lon="17.705305">
        <ele>25.6123</ele>
        <time>2013-05-19T18:26:56Z</time>
      </trkpt>
      <trkpt lat="59.9609585" lon="17.7053813">
        <ele>25.6123</ele>
        <time>2013-05-19T18:26:57Z</time>
      </trkpt>
      <trkpt lat="59.9610115" lon="17.7054612">
        <ele>25.1317</ele>
        <time>2013-05-19T18:26:58Z</time>
      </trkpt>
      <trkpt lat="59.961063" lon="17.7055452">
        <ele>25.1317</ele>
        <time>2013-05-19T18:26:59Z</time>
      </trkpt>
      <trkpt lat="59.9611132" lon="17.7056322">
        <ele>24.651</ele>
        <time>2013-05-19T18:27:00Z</time>
      </trkpt>
      <trkpt lat="59.9611624" lon="17.705722">
        <ele>24.651</ele>
        <time>2013-05-19T18:27:01Z</time>
      </trkpt>
      <trkpt lat="59.9612104" lon="17.7058176">
        <ele>24.651</ele>
        <time>2013-05-19T18:27:02Z</time>
      </trkpt>
      <trkpt lat="59.96126" lon="17.7059098">
        <ele>24.1703</ele>
        <time>2013-05-19T18:27:03Z</time>
      </trkpt>
      <trkpt lat="59.9613087" lon="17.7060018">
        <ele>24.1703</ele>
        <time>2013-05-19T18:27:04Z</time>
      </trkpt>
      <trkpt lat="59.9613574" lon="17.706095">
        <ele>24.1703</ele>
        <time>2013-05-19T18:27:05Z</time>
      </trkpt>
      <trkpt lat="59.9614062" lon="17.7061903">
        <ele>24.1703</ele>
        <time>2013-05-19T18:27:06Z</time>
      </trkpt>
      <trkpt lat="59.9614575" lon="17.7062804">
        <ele>24.1703</ele>
        <time>2013-05-19T18:27:07Z</time>
      </trkpt>
      <trkpt lat="59.9615105" lon="17.7063663">
        <ele>24.1703</ele>
        <time>2013-05-19T18:27:08Z</time>
      </trkpt>
      <trkpt lat="59.9615657" lon="17.7064472">
        <ele>24.1703</ele>
        <time>2013-05-19T18:27:09Z</time>
      </trkpt>
      <trkpt lat="59.9616242" lon="17.7065214">
        <ele>24.1703</ele>
        <time>2013-05-19T18:27:10Z</time>
      </trkpt>
      <trkpt lat="59.9616848" lon="17.7065891">
        <ele>24.1703</ele>
        <time>2013-05-19T18:27:11Z</time>
      </trkpt>
      <trkpt lat="59.9617475" lon="17.7066521">
        <ele>24.1703</ele>
        <time>2013-05-19T18:27:12Z</time>
      </trkpt>
      <trkpt lat="59.9618118" lon="17.7067108">
        <ele>24.651</ele>
        <time>2013-05-19T18:27:13Z</time>
      </trkpt>
      <trkpt lat="59.9618776" lon="17.7067652">
        <ele>24.651</ele>
        <time>2013-05-19T18:27:14Z</time>
      </trkpt>
      <trkpt lat="59.9619449" lon="17.7068156">
        <ele>24.651</ele>
        <time>2013-05-19T18:27:15Z</time>
      </trkpt>
      <trkpt lat="59.9620132" lon="17.7068647">
        <ele>24.651</ele>
        <time>2013-05-19T18:27:16Z</time>
      </trkpt>
      <trkpt lat="59.9620826" lon="17.7069127">
        <ele>25.1317</ele>
        <time>2013-05-19T18:27:17Z</time>
      </trkpt>
      <trkpt lat="59.9621534" lon="17.7069569">
        <ele>25.1317</ele>
        <time>2013-05-19T18:27:18Z</time>
      </trkpt>
      <trkpt lat="59.9622243" lon="17.7069963">
        <ele>25.1317</ele>
        <time>2013-05-19T18:27:19Z</time>
      </trkpt>
      <trkpt lat="59.9622951" lon="17.7070318">
        <ele>24.651</ele>
        <time>2013-05-19T18:27:20Z</time>
      </trkpt>
      <trkpt lat="59.9623673" lon="17.7070658">
        <ele>24.651</ele>
        <time>2013-05-19T18:27:21Z</time>
      </trkpt>
      <trkpt lat="59.96244" lon="17.7070978">
        <ele>24.651</ele>
        <time>2013-05-19T18:27:22Z</time>
      </trkpt>
      <trkpt lat="59.9625171" lon="17.7071185">
        <ele>24.651</ele>
        <time>2013-05-19T18:27:23Z</time>
      </trkpt>
      <trkpt lat="59.9626037" lon="17.707148">
        <ele>25.1317</ele>
        <time>2013-05-19T18:27:24Z</time>
      </trkpt>
      <trkpt lat="59.9626737" lon="17.7071683">
        <ele>25.1317</ele>
        <time>2013-05-19T18:27:25Z</time>
      </trkpt>
      <trkpt lat="59.9627477" lon="17.7071719">
        <ele>25.1317</ele>
        <time>2013-05-19T18:27:26Z</time>
      </trkpt>
      <trkpt lat="59.9628247" lon="17.7071806">
        <ele>25.1317</ele>
        <time>2013-05-19T18:27:27Z</time>
      </trkpt>
      <trkpt lat="59.9628955" lon="17.7071886">
        <ele>24.651</ele>
        <time>2013-05-19T18:27:28Z</time>
      </trkpt>
      <trkpt lat="59.9629633" lon="17.7071883">
        <ele>24.651</ele>
        <time>2013-05-19T18:27:29Z</time>
      </trkpt>
      <trkpt lat="59.9630383" lon="17.7071895">
        <ele>24.651</ele>
        <time>2013-05-19T18:27:30Z</time>
      </trkpt>
      <trkpt lat="59.9631166" lon="17.70718">
        <ele>25.1317</ele>
        <time>2013-05-19T18:27:31Z</time>
      </trkpt>
      <trkpt lat="59.9631902" lon="17.7071817">
        <ele>25.1317</ele>
        <time>2013-05-19T18:27:32Z</time>
      </trkpt>
      <trkpt lat="59.9632657" lon="17.7071731">
        <ele>25.1317</ele>
        <time>2013-05-19T18:27:33Z</time>
      </trkpt>
      <trkpt lat="59.9633409" lon="17.7071687">
        <ele>24.651</ele>
        <time>2013-05-19T18:27:34Z</time>
      </trkpt>
      <trkpt lat="59.9634144" lon="17.7071724">
        <ele>24.651</ele>
        <time>2013-05-19T18:27:35Z</time>
      </trkpt>
      <trkpt lat="59.9634875" lon="17.7071786">
        <ele>25.1317</ele>
        <time>2013-05-19T18:27:36Z</time>
      </trkpt>
      <trkpt lat="59.9635584" lon="17.7071875">
        <ele>25.1317</ele>
        <time>2013-05-19T18:27:37Z</time>
      </trkpt>
      <trkpt lat="59.9636278" lon="17.7071973">
        <ele>25.1317</ele>
        <time>2013-05-19T18:27:38Z</time>
      </trkpt>
      <trkpt lat="59.963696" lon="17.7072071">
        <ele>25.1317</ele>
        <time>2013-05-19T18:27:39Z</time>
      </trkpt>
      <trkpt lat="59.9637637" lon="17.7072159">
        <ele>25.6123</ele>
        <time>2013-05-19T18:27:40Z</time>
      </trkpt>
      <trkpt lat="59.9638317" lon="17.7072246">
        <ele>25.6123</ele>
        <time>2013-05-19T18:27:41Z</time>
      </trkpt>
      <trkpt lat="59.9638989" lon="17.707234">
        <ele>25.6123</ele>
        <time>2013-05-19T18:27:42Z</time>
      </trkpt>
      <trkpt lat="59.9639662" lon="17.7072454">
        <ele>25.6123</ele>
        <time>2013-05-19T18:27:43Z</time>
      </trkpt>
      <trkpt lat="59.9640346" lon="17.7072584">
        <ele>25.6123</ele>
        <time>2013-05-19T18:27:44Z</time>
      </trkpt>
      <trkpt lat="59.9641042" lon="17.7072719">
        <ele>25.6123</ele>
        <time>2013-05-19T18:27:45Z</time>
      </trkpt>
      <trkpt lat="59.9641749" lon="17.7072867">
        <ele>25.6123</ele>
        <time>2013-05-19T18:27:46Z</time>
      </trkpt>
      <trkpt lat="59.9642458" lon="17.7073062">
        <ele>25.6123</ele>
        <time>2013-05-19T18:27:47Z</time>
      </trkpt>
      <trkpt lat="59.9643166" lon="17.70733">
        <ele>25.6123</ele>
        <time>2013-05-19T18:27:48Z</time>
      </trkpt>
      <trkpt lat="59.9643884" lon="17.7073556">
        <ele>25.6123</ele>
        <time>2013-05-19T18:27:49Z</time>
      </trkpt>
      <trkpt lat="59.9644587" lon="17.7073854">
        <ele>25.6123</ele>
        <time>2013-05-19T18:27:50Z</time>
      </trkpt>
      <trkpt lat="59.9645281" lon="17.7074184">
        <ele>25.6123</ele>
        <time>2013-05-19T18:27:51Z</time>
      </trkpt>
      <trkpt lat="59.9645964" lon="17.7074541">
        <ele>25.1317</ele>
        <time>2013-05-19T18:27:52Z</time>
      </trkpt>
      <trkpt lat="59.9646634" lon="17.7074942">
        <ele>25.1317</ele>
        <time>2013-05-19T18:27:53Z</time>
      </trkpt>
      <trkpt lat="59.9647296" lon="17.7075391">
        <ele>25.1317</ele>
        <time>2013-05-19T18:27:54Z</time>
      </trkpt>
      <trkpt lat="59.9647957" lon="17.7075869">
        <ele>25.1317</ele>
        <time>2013-05-19T18:27:55Z</time>
      </trkpt>
      <trkpt lat="59.9648627" lon="17.7076369">
        <ele>24.651</ele>
        <time>2013-05-19T18:27:56Z</time>
      </trkpt>
      <trkpt lat="59.9649316" lon="17.707688">
        <ele>24.651</ele>
        <time>2013-05-19T18:27:57Z</time>
      </trkpt>
      <trkpt lat="59.9650006" lon="17.7077426">
        <ele>24.651</ele>
        <time>2013-05-19T18:27:58Z</time>
      </trkpt>
      <trkpt lat="59.9650695" lon="17.7077991">
        <ele>24.1703</ele>
        <time>2013-05-19T18:27:59Z</time>
      </trkpt>
      <trkpt lat="59.9651398" lon="17.7078578">
        <ele>24.1703</ele>
        <time>2013-05-19T18:28:00Z</time>
      </trkpt>
      <trkpt lat="59.9652108" lon="17.7079199">
        <ele>23.6896</ele>
        <time>2013-05-19T18:28:01Z</time>
      </trkpt>
      <trkpt lat="59.9652822" lon="17.7079836">
        <ele>23.6896</ele>
        <time>2013-05-19T18:28:02Z</time>
      </trkpt>
      <trkpt lat="59.9653528" lon="17.7080495">
        <ele>23.209</ele>
        <time>2013-05-19T18:28:03Z</time>
      </trkpt>
      <trkpt lat="59.9654234" lon="17.7081168">
        <ele>23.209</ele>
        <time>2013-05-19T18:28:04Z</time>
      </trkpt>
      <trkpt lat="59.9654941" lon="17.7081882">
        <ele>23.209</ele>
        <time>2013-05-19T18:28:05Z</time>
      </trkpt>
      <trkpt lat="59.9655619" lon="17.708268">
        <ele>22.7283</ele>
        <time>2013-05-19T18:28:06Z</time>
      </trkpt>
      <trkpt lat="59.9656263" lon="17.7083561">
        <ele>22.7283</ele>
        <time>2013-05-19T18:28:07Z</time>
      </trkpt>
      <trkpt lat="59.9656867" lon="17.7084524">
        <ele>22.7283</ele>
        <time>2013-05-19T18:28:08Z</time>
      </trkpt>
      <trkpt lat="59.9657418" lon="17.7085579">
        <ele>22.2476</ele>
        <time>2013-05-19T18:28:09Z</time>
      </trkpt>
      <trkpt lat="59.9657929" lon="17.708669">
        <ele>22.2476</ele>
        <time>2013-05-19T18:28:10Z</time>
      </trkpt>
      <trkpt lat="59.9658412" lon="17.7087828">
        <ele>22.2476</ele>
        <time>2013-05-19T18:28:11Z</time>
      </trkpt>
      <trkpt lat="59.9658869" lon="17.7088984">
        <ele>22.2476</ele>
        <time>2013-05-19T18:28:12Z</time>
      </trkpt>
      <trkpt lat="59.9659287" lon="17.7090168">
        <ele>22.2476</ele>
        <time>2013-05-19T18:28:13Z</time>
      </trkpt>
      <trkpt lat="59.9659686" lon="17.7091378">
        <ele>21.767</ele>
        <time>2013-05-19T18:28:14Z</time>
      </trkpt>
      <trkpt lat="59.9660063" lon="17.709261">
        <ele>21.767</ele>
        <time>2013-05-19T18:28:15Z</time>
      </trkpt>
      <trkpt lat="59.9660424" lon="17.7093852">
        <ele>21.767</ele>
        <time>2013-05-19T18:28:16Z</time>
      </trkpt>
      <trkpt lat="59.9660784" lon="17.709509">
        <ele>21.767</ele>
        <time>2013-05-19T18:28:17Z</time>
      </trkpt>
      <trkpt lat="59.9661138" lon="17.7096325">
        <ele>21.767</ele>
        <time>2013-05-19T18:28:18Z</time>
      </trkpt>
      <trkpt lat="59.9661464" lon="17.7097566">
        <ele>21.2864</ele>
        <time>2013-05-19T18:28:19Z</time>
      </trkpt>
      <trkpt lat="59.9661781" lon="17.7098795">
        <ele>21.2864</ele>
        <time>2013-05-19T18:28:20Z</time>
      </trkpt>
      <trkpt lat="59.9662104" lon="17.7099997">
        <ele>21.2864</ele>
        <time>2013-05-19T18:28:21Z</time>
      </trkpt>
      <trkpt lat="59.9662418" lon="17.7101178">
        <ele>20.8057</ele>
        <time>2013-05-19T18:28:22Z</time>
      </trkpt>
      <trkpt lat="59.9662737" lon="17.7102335">
        <ele>20.8057</ele>
        <time>2013-05-19T18:28:23Z</time>
      </trkpt>
      <trkpt lat="59.966306" lon="17.7103478">
        <ele>20.8057</ele>
        <time>2013-05-19T18:28:24Z</time>
      </trkpt>
      <trkpt lat="59.9663382" lon="17.7104603">
        <ele>20.8057</ele>
        <time>2013-05-19T18:28:25Z</time>
      </trkpt>
      <trkpt lat="59.9663702" lon="17.7105706">
        <ele>21.2864</ele>
        <time>2013-05-19T18:28:26Z</time>
      </trkpt>
      <trkpt lat="59.9664017" lon="17.7106804">
        <ele>21.2864</ele>
        <time>2013-05-19T18:28:27Z</time>
      </trkpt>
      <trkpt lat="59.9664323" lon="17.7107901">
        <ele>21.2864</ele>
        <time>2013-05-19T18:28:28Z</time>
      </trkpt>
      <trkpt lat="59.9664633" lon="17.7108975">
        <ele>21.767</ele>
        <time>2013-05-19T18:28:29Z</time>
      </trkpt>
      <trkpt lat="59.966493" lon="17.7110008">
        <ele>21.767</ele>
        <time>2013-05-19T18:28:30Z</time>
      </trkpt>
      <trkpt lat="59.9665231" lon="17.7111032">
        <ele>21.767</ele>
        <time>2013-05-19T18:28:31Z</time>
      </trkpt>
      <trkpt lat="59.9665536" lon="17.7112062">
        <ele>22.2476</ele>
        <time>2013-05-19T18:28:32Z</time>
      </trkpt>
      <trkpt lat="59.9665846" lon="17.7113082">
        <ele>22.2476</ele>
        <time>2013-05-19T18:28:33Z</time>
      </trkpt>
      <trkpt lat="59.9666157" lon="17.7114087">
        <ele>22.7283</ele>
        <time>2013-05-19T18:28:34Z</time>
      </trkpt>
      <trkpt lat="59.9666457" lon="17.7115081">
        <ele>23.209</ele>
        <time>2013-05-19T18:28:35Z</time>
      </trkpt>
      <trkpt lat="59.9666722" lon="17.7116093">
        <ele>23.209</ele>
        <time>2013-05-19T18:28:36Z</time>
      </trkpt>
      <trkpt lat="59.9666966" lon="17.7117159">
        <ele>23.209</ele>
        <time>2013-05-19T18:28:37Z</time>
      </trkpt>
      <trkpt lat="59.9667234" lon="17.7118247">
        <ele>23.209</ele>
        <time>2013-05-19T18:28:38Z</time>
      </trkpt>
      <trkpt lat="59.9667556" lon="17.711922">
        <ele>23.209</ele>
        <time>2013-05-19T18:28:39Z</time>
      </trkpt>
      <trkpt lat="59.9667938" lon="17.7120106">
        <ele>23.6896</ele>
        <time>2013-05-19T18:28:40Z</time>
      </trkpt>
      <trkpt lat="59.9668318" lon="17.7121002">
        <ele>23.6896</ele>
        <time>2013-05-19T18:28:41Z</time>
      </trkpt>
      <trkpt lat="59.9668671" lon="17.7121928">
        <ele>23.6896</ele>
        <time>2013-05-19T18:28:42Z</time>
      </trkpt>
      <trkpt lat="59.9669026" lon="17.7122897">
        <ele>24.1703</ele>
        <time>2013-05-19T18:28:43Z</time>
      </trkpt>
      <trkpt lat="59.9669356" lon="17.7123886">
        <ele>24.651</ele>
        <time>2013-05-19T18:28:44Z</time>
      </trkpt>
      <trkpt lat="59.9669654" lon="17.7124902">
        <ele>25.1317</ele>
        <time>2013-05-19T18:28:45Z</time>
      </trkpt>
      <trkpt lat="59.9669921" lon="17.7125948">
        <ele>25.6123</ele>
        <time>2013-05-19T18:28:46Z</time>
      </trkpt>
      <trkpt lat="59.9670147" lon="17.7127026">
        <ele>25.1317</ele>
        <time>2013-05-19T18:28:47Z</time>
      </trkpt>
      <trkpt lat="59.9670357" lon="17.7128094">
        <ele>25.1317</ele>
        <time>2013-05-19T18:28:48Z</time>
      </trkpt>
      <trkpt lat="59.9670574" lon="17.712914">
        <ele>25.1317</ele>
        <time>2013-05-19T18:28:49Z</time>
      </trkpt>
      <trkpt lat="59.9670799" lon="17.7130177">
        <ele>25.1317</ele>
        <time>2013-05-19T18:28:50Z</time>
      </trkpt>
      <trkpt lat="59.9671031" lon="17.7131224">
        <ele>24.651</ele>
        <time>2013-05-19T18:28:51Z</time>
      </trkpt>
      <trkpt lat="59.9671254" lon="17.7132285">
        <ele>24.1703</ele>
        <time>2013-05-19T18:28:52Z</time>
      </trkpt>
      <trkpt lat="59.9671466" lon="17.7133373">
        <ele>24.1703</ele>
        <time>2013-05-19T18:28:53Z</time>
      </trkpt>
      <trkpt lat="59.9671669" lon="17.7134492">
        <ele>23.6896</ele>
        <time>2013-05-19T18:28:54Z</time>
      </trkpt>
      <trkpt lat="59.9671865" lon="17.7135648">
        <ele>23.6896</ele>
        <time>2013-05-19T18:28:55Z</time>
      </trkpt>
      <trkpt lat="59.9672076" lon="17.7136874">
        <ele>23.6896</ele>
        <time>2013-05-19T18:28:56Z</time>
      </trkpt>
      <trkpt lat="59.9672297" lon="17.7138157">
        <ele>23.6896</ele>
        <time>2013-05-19T18:28:57Z</time>
      </trkpt>
      <trkpt lat="59.9672532" lon="17.7139479">
        <ele>24.1703</ele>
        <time>2013-05-19T18:28:58Z</time>
      </trkpt>
      <trkpt lat="59.9672696" lon="17.7140801">
        <ele>23.6896</ele>
        <time>2013-05-19T18:28:59Z</time>
      </trkpt>
      <trkpt lat="59.9672917" lon="17.7142211">
        <ele>23.6896</ele>
        <time>2013-05-19T18:29:00Z</time>
      </trkpt>
      <trkpt lat="59.9673151" lon="17.7143638">
        <ele>24.1703</ele>
        <time>2013-05-19T18:29:01Z</time>
      </trkpt>
      <trkpt lat="59.9673383" lon="17.7145072">
        <ele>23.6896</ele>
        <time>2013-05-19T18:29:02Z</time>
      </trkpt>
      <trkpt lat="59.9673609" lon="17.7146518">
        <ele>23.6896</ele>
        <time>2013-05-19T18:29:03Z</time>
      </trkpt>
      <trkpt lat="59.9673865" lon="17.7147934">
        <ele>23.209</ele>
        <time>2013-05-19T18:29:04Z</time>
      </trkpt>
      <trkpt lat="59.9674065" lon="17.7149364">
        <ele>22.7283</ele>
        <time>2013-05-19T18:29:05Z</time>
      </trkpt>
      <trkpt lat="59.96742" lon="17.7150793">
        <ele>22.2476</ele>
        <time>2013-05-19T18:29:06Z</time>
      </trkpt>
      <trkpt lat="59.9674526" lon="17.7152503">
        <ele>21.767</ele>
        <time>2013-05-19T18:29:07Z</time>
      </trkpt>
      <trkpt lat="59.9674662" lon="17.7153897">
        <ele>21.767</ele>
        <time>2013-05-19T18:29:08Z</time>
      </trkpt>
      <trkpt lat="59.967471" lon="17.7155296">
        <ele>20.8057</ele>
        <time>2013-05-19T18:29:09Z</time>
      </trkpt>
      <trkpt lat="59.9675159" lon="17.7156334">
        <ele>20.8057</ele>
        <time>2013-05-19T18:29:10Z</time>
      </trkpt>
      <trkpt lat="59.9675407" lon="17.7157163">
        <ele>20.325</ele>
        <time>2013-05-19T18:29:11Z</time>
      </trkpt>
      <trkpt lat="59.9675676" lon="17.7158009">
        <ele>19.8444</ele>
        <time>2013-05-19T18:29:12Z</time>
      </trkpt>
      <trkpt lat="59.9675859" lon="17.715919">
        <ele>19.3638</ele>
        <time>2013-05-19T18:29:13Z</time>
      </trkpt>
      <trkpt lat="59.967617" lon="17.7160377">
        <ele>19.8444</ele>
        <time>2013-05-19T18:29:14Z</time>
      </trkpt>
      <trkpt lat="59.967645" lon="17.716135">
        <ele>19.8444</ele>
        <time>2013-05-19T18:29:15Z</time>
      </trkpt>
      <trkpt lat="59.967678" lon="17.7162267">
        <ele>20.325</ele>
        <time>2013-05-19T18:29:16Z</time>
      </trkpt>
      <trkpt lat="59.9677096" lon="17.7163183">
        <ele>20.325</ele>
        <time>2013-05-19T18:29:17Z</time>
      </trkpt>
      <trkpt lat="59.9677425" lon="17.7164048">
        <ele>20.325</ele>
        <time>2013-05-19T18:29:18Z</time>
      </trkpt>
      <trkpt lat="59.9677798" lon="17.7164902">
        <ele>20.8057</ele>
        <time>2013-05-19T18:29:19Z</time>
      </trkpt>
      <trkpt lat="59.9678189" lon="17.7165806">
        <ele>21.2864</ele>
        <time>2013-05-19T18:29:20Z</time>
      </trkpt>
      <trkpt lat="59.9678613" lon="17.7166634">
        <ele>21.767</ele>
        <time>2013-05-19T18:29:21Z</time>
      </trkpt>
      <trkpt lat="59.9679075" lon="17.7167415">
        <ele>22.7283</ele>
        <time>2013-05-19T18:29:22Z</time>
      </trkpt>
      <trkpt lat="59.9679517" lon="17.7168188">
        <ele>23.209</ele>
        <time>2013-05-19T18:29:23Z</time>
      </trkpt>
      <trkpt lat="59.9679952" lon="17.716889">
        <ele>23.209</ele>
        <time>2013-05-19T18:29:24Z</time>
      </trkpt>
      <trkpt lat="59.9680422" lon="17.7169559">
        <ele>23.6896</ele>
        <time>2013-05-19T18:29:25Z</time>
      </trkpt>
      <trkpt lat="59.9680916" lon="17.7170206">
        <ele>24.1703</ele>
        <time>2013-05-19T18:29:26Z</time>
      </trkpt>
      <trkpt lat="59.9681393" lon="17.7170781">
        <ele>24.651</ele>
        <time>2013-05-19T18:29:27Z</time>
      </trkpt>
      <trkpt lat="59.9681908" lon="17.7171323">
        <ele>24.651</ele>
        <time>2013-05-19T18:29:28Z</time>
      </trkpt>
      <trkpt lat="59.9682438" lon="17.7171835">
        <ele>24.651</ele>
        <time>2013-05-19T18:29:29Z</time>
      </trkpt>
      <trkpt lat="59.9682993" lon="17.7172311">
        <ele>24.1703</ele>
        <time>2013-05-19T18:29:30Z</time>
      </trkpt>
      <trkpt lat="59.9683589" lon="17.7172725">
        <ele>24.651</ele>
        <time>2013-05-19T18:29:31Z</time>
      </trkpt>
      <trkpt lat="59.9684208" lon="17.7173083">
        <ele>25.1317</ele>
        <time>2013-05-19T18:29:32Z</time>
      </trkpt>
      <trkpt lat="59.968481" lon="17.7173413">
        <ele>25.1317</ele>
        <time>2013-05-19T18:29:33Z</time>
      </trkpt>
      <trkpt lat="59.9685412" lon="17.7173711">
        <ele>25.6123</ele>
        <time>2013-05-19T18:29:34Z</time>
      </trkpt>
      <trkpt lat="59.9686007" lon="17.717398">
        <ele>26.0929</ele>
        <time>2013-05-19T18:29:35Z</time>
      </trkpt>
      <trkpt lat="59.9686588" lon="17.7174238">
        <ele>26.0929</ele>
        <time>2013-05-19T18:29:36Z</time>
      </trkpt>
      <trkpt lat="59.9687179" lon="17.7174451">
        <ele>26.5736</ele>
        <time>2013-05-19T18:29:37Z</time>
      </trkpt>
      <trkpt lat="59.9687749" lon="17.717462">
        <ele>26.5736</ele>
        <time>2013-05-19T18:29:38Z</time>
      </trkpt>
      <trkpt lat="59.9688329" lon="17.7174709">
        <ele>27.0543</ele>
        <time>2013-05-19T18:29:39Z</time>
      </trkpt>
      <trkpt lat="59.9688897" lon="17.7174614">
        <ele>27.0543</ele>
        <time>2013-05-19T18:29:40Z</time>
      </trkpt>
      <trkpt lat="59.968941" lon="17.7174369">
        <ele>27.0543</ele>
        <time>2013-05-19T18:29:41Z</time>
      </trkpt>
      <trkpt lat="59.9689975" lon="17.7174254">
        <ele>27.0543</ele>
        <time>2013-05-19T18:29:42Z</time>
      </trkpt>
      <trkpt lat="59.9690551" lon="17.7174309">
        <ele>27.0543</ele>
        <time>2013-05-19T18:29:43Z</time>
      </trkpt>
      <trkpt lat="59.9691126" lon="17.7174461">
        <ele>27.0543</ele>
        <time>2013-05-19T18:29:44Z</time>
      </trkpt>
      <trkpt lat="59.9691699" lon="17.7174669">
        <ele>27.0543</ele>
        <time>2013-05-19T18:29:45Z</time>
      </trkpt>
      <trkpt lat="59.9692274" lon="17.7174884">
        <ele>27.0543</ele>
        <time>2013-05-19T18:29:46Z</time>
      </trkpt>
      <trkpt lat="59.969284" lon="17.7175109">
        <ele>27.5349</ele>
        <time>2013-05-19T18:29:47Z</time>
      </trkpt>
      <trkpt lat="59.9693379" lon="17.7175373">
        <ele>27.5349</ele>
        <time>2013-05-19T18:29:48Z</time>
      </trkpt>
      <trkpt lat="59.9693934" lon="17.7175664">
        <ele>27.5349</ele>
        <time>2013-05-19T18:29:49Z</time>
      </trkpt>
      <trkpt lat="59.9694503" lon="17.7176005">
        <ele>27.5349</ele>
        <time>2013-05-19T18:29:50Z</time>
      </trkpt>
      <trkpt lat="59.9695077" lon="17.7176397">
        <ele>27.0543</ele>
        <time>2013-05-19T18:29:51Z</time>
      </trkpt>
      <trkpt lat="59.9695666" lon="17.7176764">
        <ele>27.0543</ele>
        <time>2013-05-19T18:29:52Z</time>
      </trkpt>
      <trkpt lat="59.9696263" lon="17.7177134">
        <ele>27.0543</ele>
        <time>2013-05-19T18:29:53Z</time>
      </trkpt>
      <trkpt lat="59.9696856" lon="17.7177549">
        <ele>27.0543</ele>
        <time>2013-05-19T18:29:54Z</time>
      </trkpt>
      <trkpt lat="59.9697441" lon="17.717799">
        <ele>27.0543</ele>
        <time>2013-05-19T18:29:55Z</time>
      </trkpt>
      <trkpt lat="59.9698025" lon="17.717846">
        <ele>26.5736</ele>
        <time>2013-05-19T18:29:56Z</time>
      </trkpt>
      <trkpt lat="59.9698609" lon="17.7178964">
        <ele>26.5736</ele>
        <time>2013-05-19T18:29:57Z</time>
      </trkpt>
      <trkpt lat="59.9699195" lon="17.7179502">
        <ele>26.5736</ele>
        <time>2013-05-19T18:29:58Z</time>
      </trkpt>
      <trkpt lat="59.9699786" lon="17.7180048">
        <ele>26.5736</ele>
        <time>2013-05-19T18:29:59Z</time>
      </trkpt>
      <trkpt lat="59.9700385" lon="17.7180593">
        <ele>26.5736</ele>
        <time>2013-05-19T18:30:00Z</time>
      </trkpt>
      <trkpt lat="59.9700986" lon="17.7181154">
        <ele>26.0929</ele>
        <time>2013-05-19T18:30:01Z</time>
      </trkpt>
      <trkpt lat="59.9701582" lon="17.718174">
        <ele>26.0929</ele>
        <time>2013-05-19T18:30:02Z</time>
      </trkpt>
      <trkpt lat="59.9702186" lon="17.7182314">
        <ele>26.0929</ele>
        <time>2013-05-19T18:30:03Z</time>
      </trkpt>
      <trkpt lat="59.9702797" lon="17.7182863">
        <ele>26.0929</ele>
        <time>2013-05-19T18:30:04Z</time>
      </trkpt>
      <trkpt lat="59.9703398" lon="17.7183419">
        <ele>26.5736</ele>
        <time>2013-05-19T18:30:05Z</time>
      </trkpt>
      <trkpt lat="59.9703994" lon="17.7183982">
        <ele>26.5736</ele>
        <time>2013-05-19T18:30:06Z</time>
      </trkpt>
      <trkpt lat="59.970521" lon="17.7185054">
        <ele>26.5736</ele>
        <time>2013-05-19T18:30:07Z</time>
      </trkpt>
      <trkpt lat="59.9705821" lon="17.7185584">
        <ele>26.5736</ele>
        <time>2013-05-19T18:30:08Z</time>
      </trkpt>
      <trkpt lat="59.9706422" lon="17.7186142">
        <ele>26.5736</ele>
        <time>2013-05-19T18:30:09Z</time>
      </trkpt>
      <trkpt lat="59.9707023" lon="17.7186706">
        <ele>26.5736</ele>
        <time>2013-05-19T18:30:10Z</time>
      </trkpt>
      <trkpt lat="59.9707619" lon="17.7187254">
        <ele>26.5736</ele>
        <time>2013-05-19T18:30:11Z</time>
      </trkpt>
      <trkpt lat="59.9708212" lon="17.7187791">
        <ele>26.5736</ele>
        <time>2013-05-19T18:30:12Z</time>
      </trkpt>
      <trkpt lat="59.9708808" lon="17.7188328">
        <ele>26.5736</ele>
        <time>2013-05-19T18:30:13Z</time>
      </trkpt>
      <trkpt lat="59.9709402" lon="17.7188876">
        <ele>26.5736</ele>
        <time>2013-05-19T18:30:14Z</time>
      </trkpt>
      <trkpt lat="59.9710005" lon="17.7189405">
        <ele>26.0929</ele>
        <time>2013-05-19T18:30:15Z</time>
      </trkpt>
      <trkpt lat="59.9710608" lon="17.718992">
        <ele>26.0929</ele>
        <time>2013-05-19T18:30:16Z</time>
      </trkpt>
      <trkpt lat="59.9711196" lon="17.7190474">
        <ele>26.0929</ele>
        <time>2013-05-19T18:30:17Z</time>
      </trkpt>
      <trkpt lat="59.9711773" lon="17.7191041">
        <ele>26.0929</ele>
        <time>2013-05-19T18:30:18Z</time>
      </trkpt>
      <trkpt lat="59.9712354" lon="17.7191574">
        <ele>26.0929</ele>
        <time>2013-05-19T18:30:19Z</time>
      </trkpt>
      <trkpt lat="59.9712937" lon="17.7192099">
        <ele>26.0929</ele>
        <time>2013-05-19T18:30:20Z</time>
      </trkpt>
      <trkpt lat="59.971352" lon="17.7192628">
        <ele>26.0929</ele>
        <time>2013-05-19T18:30:21Z</time>
      </trkpt>
      <trkpt lat="59.9714109" lon="17.7193156">
        <ele>26.0929</ele>
        <time>2013-05-19T18:30:22Z</time>
      </trkpt>
      <trkpt lat="59.97147" lon="17.7193689">
        <ele>26.0929</ele>
        <time>2013-05-19T18:30:23Z</time>
      </trkpt>
      <trkpt lat="59.971529" lon="17.7194223">
        <ele>25.6123</ele>
        <time>2013-05-19T18:30:24Z</time>
      </trkpt>
      <trkpt lat="59.9715881" lon="17.7194779">
        <ele>25.6123</ele>
        <time>2013-05-19T18:30:25Z</time>
      </trkpt>
      <trkpt lat="59.9716482" lon="17.7195337">
        <ele>25.6123</ele>
        <time>2013-05-19T18:30:26Z</time>
      </trkpt>
      <trkpt lat="59.9717093" lon="17.7195881">
        <ele>25.6123</ele>
        <time>2013-05-19T18:30:27Z</time>
      </trkpt>
      <trkpt lat="59.9717704" lon="17.719643">
        <ele>25.6123</ele>
        <time>2013-05-19T18:30:28Z</time>
      </trkpt>
      <trkpt lat="59.9718312" lon="17.7196991">
        <ele>25.6123</ele>
        <time>2013-05-19T18:30:29Z</time>
      </trkpt>
      <trkpt lat="59.9718923" lon="17.7197557">
        <ele>25.6123</ele>
        <time>2013-05-19T18:30:30Z</time>
      </trkpt>
      <trkpt lat="59.9719538" lon="17.7198124">
        <ele>25.6123</ele>
        <time>2013-05-19T18:30:31Z</time>
      </trkpt>
      <trkpt lat="59.9720163" lon="17.7198689">
        <ele>25.1317</ele>
        <time>2013-05-19T18:30:32Z</time>
      </trkpt>
      <trkpt lat="59.9720793" lon="17.7199253">
        <ele>25.1317</ele>
        <time>2013-05-19T18:30:33Z</time>
      </trkpt>
      <trkpt lat="59.9721429" lon="17.7199819">
        <ele>25.1317</ele>
        <time>2013-05-19T18:30:34Z</time>
      </trkpt>
      <trkpt lat="59.972207" lon="17.7200393">
        <ele>25.1317</ele>
        <time>2013-05-19T18:30:35Z</time>
      </trkpt>
      <trkpt lat="59.9722709" lon="17.720096">
        <ele>25.1317</ele>
        <time>2013-05-19T18:30:36Z</time>
      </trkpt>
      <trkpt lat="59.9723351" lon="17.7201518">
        <ele>24.651</ele>
        <time>2013-05-19T18:30:37Z</time>
      </trkpt>
      <trkpt lat="59.9723986" lon="17.7202101">
        <ele>24.651</ele>
        <time>2013-05-19T18:30:38Z</time>
      </trkpt>
      <trkpt lat="59.9724614" lon="17.7202697">
        <ele>24.651</ele>
        <time>2013-05-19T18:30:39Z</time>
      </trkpt>
      <trkpt lat="59.9725236" lon="17.7203299">
        <ele>24.651</ele>
        <time>2013-05-19T18:30:40Z</time>
      </trkpt>
      <trkpt lat="59.9725862" lon="17.7203888">
        <ele>24.651</ele>
        <time>2013-05-19T18:30:41Z</time>
      </trkpt>
      <trkpt lat="59.9726485" lon="17.7204483">
        <ele>24.651</ele>
        <time>2013-05-19T18:30:42Z</time>
      </trkpt>
      <trkpt lat="59.972711" lon="17.7205091">
        <ele>24.1703</ele>
        <time>2013-05-19T18:30:43Z</time>
      </trkpt>
      <trkpt lat="59.9727733" lon="17.7205721">
        <ele>24.1703</ele>
        <time>2013-05-19T18:30:44Z</time>
      </trkpt>
      <trkpt lat="59.9728348" lon="17.7206398">
        <ele>24.1703</ele>
        <time>2013-05-19T18:30:45Z</time>
      </trkpt>
      <trkpt lat="59.9728951" lon="17.7207123">
        <ele>24.1703</ele>
        <time>2013-05-19T18:30:46Z</time>
      </trkpt>
      <trkpt lat="59.9729551" lon="17.7207888">
        <ele>24.1703</ele>
        <time>2013-05-19T18:30:47Z</time>
      </trkpt>
      <trkpt lat="59.9730141" lon="17.7208696">
        <ele>24.1703</ele>
        <time>2013-05-19T18:30:48Z</time>
      </trkpt>
      <trkpt lat="59.9730728" lon="17.7209537">
        <ele>24.1703</ele>
        <time>2013-05-19T18:30:49Z</time>
      </trkpt>
      <trkpt lat="59.9731308" lon="17.7210396">
        <ele>24.1703</ele>
        <time>2013-05-19T18:30:50Z</time>
      </trkpt>
      <trkpt lat="59.9731873" lon="17.7211291">
        <ele>24.1703</ele>
        <time>2013-05-19T18:30:51Z</time>
      </trkpt>
      <trkpt lat="59.9732414" lon="17.7212232">
        <ele>23.6896</ele>
        <time>2013-05-19T18:30:52Z</time>
      </trkpt>
      <trkpt lat="59.9732942" lon="17.7213198">
        <ele>23.6896</ele>
        <time>2013-05-19T18:30:53Z</time>
      </trkpt>
      <trkpt lat="59.9733463" lon="17.7214177">
        <ele>23.6896</ele>
        <time>2013-05-19T18:30:54Z</time>
      </trkpt>
      <trkpt lat="59.9733969" lon="17.7215178">
        <ele>23.6896</ele>
        <time>2013-05-19T18:30:55Z</time>
      </trkpt>
      <trkpt lat="59.9734457" lon="17.7216201">
        <ele>23.6896</ele>
        <time>2013-05-19T18:30:56Z</time>
      </trkpt>
      <trkpt lat="59.9734932" lon="17.7217244">
        <ele>23.6896</ele>
        <time>2013-05-19T18:30:57Z</time>
      </trkpt>
      <trkpt lat="59.9735388" lon="17.7218311">
        <ele>23.6896</ele>
        <time>2013-05-19T18:30:58Z</time>
      </trkpt>
      <trkpt lat="59.9735824" lon="17.7219407">
        <ele>23.6896</ele>
        <time>2013-05-19T18:30:59Z</time>
      </trkpt>
      <trkpt lat="59.973625" lon="17.7220516">
        <ele>23.6896</ele>
        <time>2013-05-19T18:31:00Z</time>
      </trkpt>
      <trkpt lat="59.9736665" lon="17.7221643">
        <ele>23.6896</ele>
        <time>2013-05-19T18:31:01Z</time>
      </trkpt>
      <trkpt lat="59.9737061" lon="17.7222801">
        <ele>23.6896</ele>
        <time>2013-05-19T18:31:02Z</time>
      </trkpt>
      <trkpt lat="59.9737436" lon="17.7223984">
        <ele>23.6896</ele>
        <time>2013-05-19T18:31:03Z</time>
      </trkpt>
      <trkpt lat="59.9737793" lon="17.7225198">
        <ele>23.6896</ele>
        <time>2013-05-19T18:31:04Z</time>
      </trkpt>
      <trkpt lat="59.9738133" lon="17.7226431">
        <ele>23.6896</ele>
        <time>2013-05-19T18:31:05Z</time>
      </trkpt>
      <trkpt lat="59.9738469" lon="17.7227676">
        <ele>23.6896</ele>
        <time>2013-05-19T18:31:06Z</time>
      </trkpt>
      <trkpt lat="59.9738796" lon="17.722893">
        <ele>23.6896</ele>
        <time>2013-05-19T18:31:07Z</time>
      </trkpt>
      <trkpt lat="59.9739101" lon="17.7230202">
        <ele>23.6896</ele>
        <time>2013-05-19T18:31:08Z</time>
      </trkpt>
      <trkpt lat="59.9739388" lon="17.7231495">
        <ele>23.6896</ele>
        <time>2013-05-19T18:31:09Z</time>
      </trkpt>
      <trkpt lat="59.9739661" lon="17.7232803">
        <ele>23.6896</ele>
        <time>2013-05-19T18:31:10Z</time>
      </trkpt>
      <trkpt lat="59.9739917" lon="17.7234119">
        <ele>23.6896</ele>
        <time>2013-05-19T18:31:11Z</time>
      </trkpt>
      <trkpt lat="59.9740156" lon="17.7235446">
        <ele>24.1703</ele>
        <time>2013-05-19T18:31:12Z</time>
      </trkpt>
      <trkpt lat="59.9740368" lon="17.7236783">
        <ele>24.1703</ele>
        <time>2013-05-19T18:31:13Z</time>
      </trkpt>
      <trkpt lat="59.9740572" lon="17.7238109">
        <ele>24.1703</ele>
        <time>2013-05-19T18:31:14Z</time>
      </trkpt>
      <trkpt lat="59.974078" lon="17.7239415">
        <ele>24.1703</ele>
        <time>2013-05-19T18:31:15Z</time>
      </trkpt>
      <trkpt lat="59.9740982" lon="17.7240704">
        <ele>24.651</ele>
        <time>2013-05-19T18:31:16Z</time>
      </trkpt>
      <trkpt lat="59.974117" lon="17.7241972">
        <ele>24.651</ele>
        <time>2013-05-19T18:31:17Z</time>
      </trkpt>
      <trkpt lat="59.9741351" lon="17.7243221">
        <ele>24.651</ele>
        <time>2013-05-19T18:31:18Z</time>
      </trkpt>
      <trkpt lat="59.9741529" lon="17.7244453">
        <ele>24.651</ele>
        <time>2013-05-19T18:31:19Z</time>
      </trkpt>
      <trkpt lat="59.9741707" lon="17.7245678">
        <ele>24.651</ele>
        <time>2013-05-19T18:31:20Z</time>
      </trkpt>
      <trkpt lat="59.9741884" lon="17.7246909">
        <ele>24.651</ele>
        <time>2013-05-19T18:31:21Z</time>
      </trkpt>
      <trkpt lat="59.9742046" lon="17.7248156">
        <ele>24.651</ele>
        <time>2013-05-19T18:31:22Z</time>
      </trkpt>
      <trkpt lat="59.9742213" lon="17.7249401">
        <ele>24.651</ele>
        <time>2013-05-19T18:31:23Z</time>
      </trkpt>
      <trkpt lat="59.9742383" lon="17.7250607">
        <ele>25.1317</ele>
        <time>2013-05-19T18:31:24Z</time>
      </trkpt>
      <trkpt lat="59.9742538" lon="17.7251777">
        <ele>25.1317</ele>
        <time>2013-05-19T18:31:25Z</time>
      </trkpt>
      <trkpt lat="59.9742686" lon="17.7252935">
        <ele>25.1317</ele>
        <time>2013-05-19T18:31:26Z</time>
      </trkpt>
      <trkpt lat="59.9742824" lon="17.7254093">
        <ele>25.1317</ele>
        <time>2013-05-19T18:31:27Z</time>
      </trkpt>
      <trkpt lat="59.9742942" lon="17.7255261">
        <ele>25.1317</ele>
        <time>2013-05-19T18:31:28Z</time>
      </trkpt>
      <trkpt lat="59.9743045" lon="17.725644">
        <ele>25.1317</ele>
        <time>2013-05-19T18:31:29Z</time>
      </trkpt>
      <trkpt lat="59.9743144" lon="17.7257628">
        <ele>25.6123</ele>
        <time>2013-05-19T18:31:30Z</time>
      </trkpt>
      <trkpt lat="59.9743237" lon="17.7258836">
        <ele>25.6123</ele>
        <time>2013-05-19T18:31:31Z</time>
      </trkpt>
      <trkpt lat="59.9743315" lon="17.7260071">
        <ele>25.6123</ele>
        <time>2013-05-19T18:31:32Z</time>
      </trkpt>
      <trkpt lat="59.974338" lon="17.7261329">
        <ele>25.6123</ele>
        <time>2013-05-19T18:31:33Z</time>
      </trkpt>
      <trkpt lat="59.9743439" lon="17.7262602">
        <ele>25.6123</ele>
        <time>2013-05-19T18:31:34Z</time>
      </trkpt>
      <trkpt lat="59.9743494" lon="17.726388">
        <ele>25.6123</ele>
        <time>2013-05-19T18:31:35Z</time>
      </trkpt>
      <trkpt lat="59.9743548" lon="17.726515">
        <ele>26.0929</ele>
        <time>2013-05-19T18:31:36Z</time>
      </trkpt>
      <trkpt lat="59.9743584" lon="17.7266442">
        <ele>26.0929</ele>
        <time>2013-05-19T18:31:37Z</time>
      </trkpt>
      <trkpt lat="59.9743627" lon="17.7267754">
        <ele>26.0929</ele>
        <time>2013-05-19T18:31:38Z</time>
      </trkpt>
      <trkpt lat="59.9743665" lon="17.7269089">
        <ele>26.0929</ele>
        <time>2013-05-19T18:31:39Z</time>
      </trkpt>
      <trkpt lat="59.9743704" lon="17.7270438">
        <ele>25.6123</ele>
        <time>2013-05-19T18:31:40Z</time>
      </trkpt>
      <trkpt lat="59.974375" lon="17.7271806">
        <ele>25.6123</ele>
        <time>2013-05-19T18:31:41Z</time>
      </trkpt>
      <trkpt lat="59.9743785" lon="17.7273204">
        <ele>25.1317</ele>
        <time>2013-05-19T18:31:42Z</time>
      </trkpt>
      <trkpt lat="59.9743818" lon="17.7274632">
        <ele>25.1317</ele>
        <time>2013-05-19T18:31:43Z</time>
      </trkpt>
      <trkpt lat="59.9743858" lon="17.7276084">
        <ele>24.651</ele>
        <time>2013-05-19T18:31:44Z</time>
      </trkpt>
      <trkpt lat="59.9743894" lon="17.7277565">
        <ele>24.651</ele>
        <time>2013-05-19T18:31:45Z</time>
      </trkpt>
      <trkpt lat="59.9743926" lon="17.7279064">
        <ele>24.1703</ele>
        <time>2013-05-19T18:31:46Z</time>
      </trkpt>
      <trkpt lat="59.9743958" lon="17.7280576">
        <ele>24.1703</ele>
        <time>2013-05-19T18:31:47Z</time>
      </trkpt>
      <trkpt lat="59.9743999" lon="17.7282091">
        <ele>23.6896</ele>
        <time>2013-05-19T18:31:48Z</time>
      </trkpt>
      <trkpt lat="59.9744044" lon="17.7283599">
        <ele>23.6896</ele>
        <time>2013-05-19T18:31:49Z</time>
      </trkpt>
      <trkpt lat="59.9744088" lon="17.7285103">
        <ele>23.6896</ele>
        <time>2013-05-19T18:31:50Z</time>
      </trkpt>
      <trkpt lat="59.9744143" lon="17.7286599">
        <ele>23.6896</ele>
        <time>2013-05-19T18:31:51Z</time>
      </trkpt>
      <trkpt lat="59.9744195" lon="17.7288077">
        <ele>23.6896</ele>
        <time>2013-05-19T18:31:52Z</time>
      </trkpt>
      <trkpt lat="59.9744253" lon="17.7289535">
        <ele>23.209</ele>
        <time>2013-05-19T18:31:53Z</time>
      </trkpt>
      <trkpt lat="59.9744309" lon="17.7290966">
        <ele>23.209</ele>
        <time>2013-05-19T18:31:54Z</time>
      </trkpt>
      <trkpt lat="59.9744352" lon="17.7292376">
        <ele>23.209</ele>
        <time>2013-05-19T18:31:55Z</time>
      </trkpt>
      <trkpt lat="59.9744377" lon="17.7293772">
        <ele>23.209</ele>
        <time>2013-05-19T18:31:56Z</time>
      </trkpt>
      <trkpt lat="59.9744364" lon="17.7295152">
        <ele>23.209</ele>
        <time>2013-05-19T18:31:57Z</time>
      </trkpt>
      <trkpt lat="59.9744316" lon="17.7296514">
        <ele>23.209</ele>
        <time>2013-05-19T18:31:58Z</time>
      </trkpt>
      <trkpt lat="59.9744246" lon="17.7297854">
        <ele>23.209</ele>
        <time>2013-05-19T18:31:59Z</time>
      </trkpt>
      <trkpt lat="59.9744157" lon="17.7299172">
        <ele>23.209</ele>
        <time>2013-05-19T18:32:00Z</time>
      </trkpt>
      <trkpt lat="59.9744061" lon="17.7300472">
        <ele>23.209</ele>
        <time>2013-05-19T18:32:01Z</time>
      </trkpt>
      <trkpt lat="59.974396" lon="17.7301753">
        <ele>23.209</ele>
        <time>2013-05-19T18:32:02Z</time>
      </trkpt>
      <trkpt lat="59.9743859" lon="17.7303035">
        <ele>23.209</ele>
        <time>2013-05-19T18:32:03Z</time>
      </trkpt>
      <trkpt lat="59.974376" lon="17.7304305">
        <ele>23.209</ele>
        <time>2013-05-19T18:32:04Z</time>
      </trkpt>
      <trkpt lat="59.9743649" lon="17.7305526">
        <ele>23.209</ele>
        <time>2013-05-19T18:32:05Z</time>
      </trkpt>
      <trkpt lat="59.9743532" lon="17.7306713">
        <ele>23.209</ele>
        <time>2013-05-19T18:32:06Z</time>
      </trkpt>
      <trkpt lat="59.9743434" lon="17.7307895">
        <ele>23.209</ele>
        <time>2013-05-19T18:32:07Z</time>
      </trkpt>
      <trkpt lat="59.9743361" lon="17.7309085">
        <ele>23.209</ele>
        <time>2013-05-19T18:32:08Z</time>
      </trkpt>
      <trkpt lat="59.9743295" lon="17.7310278">
        <ele>23.209</ele>
        <time>2013-05-19T18:32:09Z</time>
      </trkpt>
      <trkpt lat="59.974324" lon="17.7311485">
        <ele>23.209</ele>
        <time>2013-05-19T18:32:10Z</time>
      </trkpt>
      <trkpt lat="59.9743191" lon="17.7312708">
        <ele>23.6896</ele>
        <time>2013-05-19T18:32:11Z</time>
      </trkpt>
      <trkpt lat="59.9743155" lon="17.7313947">
        <ele>23.6896</ele>
        <time>2013-05-19T18:32:12Z</time>
      </trkpt>
      <trkpt lat="59.9743132" lon="17.7315204">
        <ele>23.6896</ele>
        <time>2013-05-19T18:32:13Z</time>
      </trkpt>
      <trkpt lat="59.9743108" lon="17.7316462">
        <ele>23.6896</ele>
        <time>2013-05-19T18:32:14Z</time>
      </trkpt>
      <trkpt lat="59.9743102" lon="17.7317718">
        <ele>23.6896</ele>
        <time>2013-05-19T18:32:15Z</time>
      </trkpt>
      <trkpt lat="59.9743118" lon="17.7318976">
        <ele>23.6896</ele>
        <time>2013-05-19T18:32:16Z</time>
      </trkpt>
      <trkpt lat="59.9743143" lon="17.7320243">
        <ele>23.6896</ele>
        <time>2013-05-19T18:32:17Z</time>
      </trkpt>
      <trkpt lat="59.9743179" lon="17.7321522">
        <ele>23.6896</ele>
        <time>2013-05-19T18:32:18Z</time>
      </trkpt>
      <trkpt lat="59.9743225" lon="17.7322805">
        <ele>23.6896</ele>
        <time>2013-05-19T18:32:19Z</time>
      </trkpt>
      <trkpt lat="59.9743262" lon="17.7324093">
        <ele>24.1703</ele>
        <time>2013-05-19T18:32:20Z</time>
      </trkpt>
      <trkpt lat="59.9743294" lon="17.7325384">
        <ele>23.6896</ele>
        <time>2013-05-19T18:32:21Z</time>
      </trkpt>
      <trkpt lat="59.9743325" lon="17.7326678">
        <ele>23.6896</ele>
        <time>2013-05-19T18:32:22Z</time>
      </trkpt>
      <trkpt lat="59.9743329" lon="17.7327973">
        <ele>23.6896</ele>
        <time>2013-05-19T18:32:23Z</time>
      </trkpt>
      <trkpt lat="59.9743304" lon="17.7329268">
        <ele>23.6896</ele>
        <time>2013-05-19T18:32:24Z</time>
      </trkpt>
      <trkpt lat="59.9743269" lon="17.7330568">
        <ele>23.6896</ele>
        <time>2013-05-19T18:32:25Z</time>
      </trkpt>
      <trkpt lat="59.9743226" lon="17.7331874">
        <ele>23.6896</ele>
        <time>2013-05-19T18:32:26Z</time>
      </trkpt>
      <trkpt lat="59.9743176" lon="17.7333181">
        <ele>23.6896</ele>
        <time>2013-05-19T18:32:27Z</time>
      </trkpt>
      <trkpt lat="59.9743128" lon="17.7334485">
        <ele>23.6896</ele>
        <time>2013-05-19T18:32:28Z</time>
      </trkpt>
      <trkpt lat="59.9743072" lon="17.733578">
        <ele>23.6896</ele>
        <time>2013-05-19T18:32:29Z</time>
      </trkpt>
      <trkpt lat="59.9743015" lon="17.733707">
        <ele>23.6896</ele>
        <time>2013-05-19T18:32:30Z</time>
      </trkpt>
      <trkpt lat="59.9742953" lon="17.7338353">
        <ele>23.6896</ele>
        <time>2013-05-19T18:32:31Z</time>
      </trkpt>
      <trkpt lat="59.9742885" lon="17.7339629">
        <ele>23.6896</ele>
        <time>2013-05-19T18:32:32Z</time>
      </trkpt>
      <trkpt lat="59.9742821" lon="17.7340911">
        <ele>23.6896</ele>
        <time>2013-05-19T18:32:33Z</time>
      </trkpt>
      <trkpt lat="59.9742771" lon="17.7342201">
        <ele>23.6896</ele>
        <time>2013-05-19T18:32:34Z</time>
      </trkpt>
      <trkpt lat="59.9742739" lon="17.7343496">
        <ele>23.6896</ele>
        <time>2013-05-19T18:32:35Z</time>
      </trkpt>
      <trkpt lat="59.974272" lon="17.7344794">
        <ele>23.6896</ele>
        <time>2013-05-19T18:32:36Z</time>
      </trkpt>
      <trkpt lat="59.9742715" lon="17.7346095">
        <ele>23.6896</ele>
        <time>2013-05-19T18:32:37Z</time>
      </trkpt>
      <trkpt lat="59.9742739" lon="17.7347394">
        <ele>23.6896</ele>
        <time>2013-05-19T18:32:38Z</time>
      </trkpt>
      <trkpt lat="59.9742792" lon="17.7348684">
        <ele>23.6896</ele>
        <time>2013-05-19T18:32:39Z</time>
      </trkpt>
      <trkpt lat="59.9742868" lon="17.7349959">
        <ele>24.1703</ele>
        <time>2013-05-19T18:32:40Z</time>
      </trkpt>
      <trkpt lat="59.9742957" lon="17.7351215">
        <ele>24.1703</ele>
        <time>2013-05-19T18:32:41Z</time>
      </trkpt>
      <trkpt lat="59.9743062" lon="17.7352452">
        <ele>24.1703</ele>
        <time>2013-05-19T18:32:42Z</time>
      </trkpt>
      <trkpt lat="59.9743181" lon="17.7353671">
        <ele>24.1703</ele>
        <time>2013-05-19T18:32:43Z</time>
      </trkpt>
      <trkpt lat="59.9743321" lon="17.7354868">
        <ele>24.1703</ele>
        <time>2013-05-19T18:32:44Z</time>
      </trkpt>
      <trkpt lat="59.974348" lon="17.7356048">
        <ele>24.651</ele>
        <time>2013-05-19T18:32:45Z</time>
      </trkpt>
      <trkpt lat="59.974366" lon="17.735721">
        <ele>24.651</ele>
        <time>2013-05-19T18:32:46Z</time>
      </trkpt>
      <trkpt lat="59.9743858" lon="17.735836">
        <ele>24.651</ele>
        <time>2013-05-19T18:32:47Z</time>
      </trkpt>
      <trkpt lat="59.9744066" lon="17.7359499">
        <ele>24.651</ele>
        <time>2013-05-19T18:32:48Z</time>
      </trkpt>
      <trkpt lat="59.9744285" lon="17.7360624">
        <ele>25.1317</ele>
        <time>2013-05-19T18:32:49Z</time>
      </trkpt>
      <trkpt lat="59.9744527" lon="17.7361726">
        <ele>25.1317</ele>
        <time>2013-05-19T18:32:50Z</time>
      </trkpt>
      <trkpt lat="59.9744782" lon="17.7362805">
        <ele>25.1317</ele>
        <time>2013-05-19T18:32:51Z</time>
      </trkpt>
      <trkpt lat="59.9745045" lon="17.7363862">
        <ele>25.1317</ele>
        <time>2013-05-19T18:32:52Z</time>
      </trkpt>
      <trkpt lat="59.9745321" lon="17.7364909">
        <ele>25.1317</ele>
        <time>2013-05-19T18:32:53Z</time>
      </trkpt>
      <trkpt lat="59.9745604" lon="17.7365958">
        <ele>25.1317</ele>
        <time>2013-05-19T18:32:54Z</time>
      </trkpt>
      <trkpt lat="59.9745904" lon="17.7367005">
        <ele>25.6123</ele>
        <time>2013-05-19T18:32:55Z</time>
      </trkpt>
      <trkpt lat="59.974624" lon="17.736805">
        <ele>25.6123</ele>
        <time>2013-05-19T18:32:56Z</time>
      </trkpt>
      <trkpt lat="59.9746599" lon="17.7369086">
        <ele>25.6123</ele>
        <time>2013-05-19T18:32:57Z</time>
      </trkpt>
      <trkpt lat="59.9746968" lon="17.7370097">
        <ele>25.6123</ele>
        <time>2013-05-19T18:32:58Z</time>
      </trkpt>
      <trkpt lat="59.9747335" lon="17.7371067">
        <ele>25.6123</ele>
        <time>2013-05-19T18:32:59Z</time>
      </trkpt>
      <trkpt lat="59.9747703" lon="17.7372004">
        <ele>25.6123</ele>
        <time>2013-05-19T18:33:00Z</time>
      </trkpt>
      <trkpt lat="59.9748078" lon="17.7372912">
        <ele>25.6123</ele>
        <time>2013-05-19T18:33:01Z</time>
      </trkpt>
      <trkpt lat="59.9748454" lon="17.737379">
        <ele>25.1317</ele>
        <time>2013-05-19T18:33:02Z</time>
      </trkpt>
      <trkpt lat="59.9748842" lon="17.7374621">
        <ele>25.1317</ele>
        <time>2013-05-19T18:33:03Z</time>
      </trkpt>
      <trkpt lat="59.9749237" lon="17.7375423">
        <ele>25.1317</ele>
        <time>2013-05-19T18:33:04Z</time>
      </trkpt>
      <trkpt lat="59.9749633" lon="17.7376214">
        <ele>25.1317</ele>
        <time>2013-05-19T18:33:05Z</time>
      </trkpt>
      <trkpt lat="59.9750026" lon="17.7376988">
        <ele>25.1317</ele>
        <time>2013-05-19T18:33:06Z</time>
      </trkpt>
      <trkpt lat="59.9750423" lon="17.7377745">
        <ele>25.1317</ele>
        <time>2013-05-19T18:33:07Z</time>
      </trkpt>
      <trkpt lat="59.975083" lon="17.737849">
        <ele>24.651</ele>
        <time>2013-05-19T18:33:08Z</time>
      </trkpt>
      <trkpt lat="59.9751255" lon="17.7379213">
        <ele>24.651</ele>
        <time>2013-05-19T18:33:09Z</time>
      </trkpt>
      <trkpt lat="59.9751689" lon="17.737993">
        <ele>24.651</ele>
        <time>2013-05-19T18:33:10Z</time>
      </trkpt>
      <trkpt lat="59.9752135" lon="17.7380648">
        <ele>24.1703</ele>
        <time>2013-05-19T18:33:11Z</time>
      </trkpt>
      <trkpt lat="59.9752586" lon="17.7381385">
        <ele>24.1703</ele>
        <time>2013-05-19T18:33:12Z</time>
      </trkpt>
      <trkpt lat="59.9753038" lon="17.7382152">
        <ele>24.1703</ele>
        <time>2013-05-19T18:33:13Z</time>
      </trkpt>
      <trkpt lat="59.9753499" lon="17.7382919">
        <ele>24.1703</ele>
        <time>2013-05-19T18:33:14Z</time>
      </trkpt>
      <trkpt lat="59.9753969" lon="17.7383675">
        <ele>23.6896</ele>
        <time>2013-05-19T18:33:15Z</time>
      </trkpt>
      <trkpt lat="59.9754434" lon="17.7384441">
        <ele>23.6896</ele>
        <time>2013-05-19T18:33:16Z</time>
      </trkpt>
      <trkpt lat="59.9754887" lon="17.7385238">
        <ele>23.6896</ele>
        <time>2013-05-19T18:33:17Z</time>
      </trkpt>
      <trkpt lat="59.9755338" lon="17.7386058">
        <ele>23.6896</ele>
        <time>2013-05-19T18:33:18Z</time>
      </trkpt>
      <trkpt lat="59.9755786" lon="17.7386892">
        <ele>23.6896</ele>
        <time>2013-05-19T18:33:19Z</time>
      </trkpt>
      <trkpt lat="59.9756235" lon="17.7387715">
        <ele>23.6896</ele>
        <time>2013-05-19T18:33:20Z</time>
      </trkpt>
      <trkpt lat="59.9756686" lon="17.7388494">
        <ele>23.6896</ele>
        <time>2013-05-19T18:33:21Z</time>
      </trkpt>
      <trkpt lat="59.9757134" lon="17.7389238">
        <ele>23.6896</ele>
        <time>2013-05-19T18:33:22Z</time>
      </trkpt>
      <trkpt lat="59.975757" lon="17.7389964">
        <ele>23.6896</ele>
        <time>2013-05-19T18:33:23Z</time>
      </trkpt>
      <trkpt lat="59.975799" lon="17.7390684">
        <ele>23.6896</ele>
        <time>2013-05-19T18:33:24Z</time>
      </trkpt>
      <trkpt lat="59.9758397" lon="17.7391396">
        <ele>23.6896</ele>
        <time>2013-05-19T18:33:25Z</time>
      </trkpt>
      <trkpt lat="59.9758779" lon="17.7392091">
        <ele>24.1703</ele>
        <time>2013-05-19T18:33:26Z</time>
      </trkpt>
      <trkpt lat="59.9759156" lon="17.7392761">
        <ele>24.1703</ele>
        <time>2013-05-19T18:33:27Z</time>
      </trkpt>
      <trkpt lat="59.9759554" lon="17.7393419">
        <ele>24.1703</ele>
        <time>2013-05-19T18:33:28Z</time>
      </trkpt>
      <trkpt lat="59.9759951" lon="17.7394077">
        <ele>24.1703</ele>
        <time>2013-05-19T18:33:29Z</time>
      </trkpt>
      <trkpt lat="59.9760341" lon="17.7394734">
        <ele>24.651</ele>
        <time>2013-05-19T18:33:30Z</time>
      </trkpt>
      <trkpt lat="59.9760714" lon="17.7395371">
        <ele>25.1317</ele>
        <time>2013-05-19T18:33:31Z</time>
      </trkpt>
      <trkpt lat="59.976108" lon="17.7395992">
        <ele>25.6123</ele>
        <time>2013-05-19T18:33:32Z</time>
      </trkpt>
      <trkpt lat="59.9761444" lon="17.7396544">
        <ele>26.0929</ele>
        <time>2013-05-19T18:33:33Z</time>
      </trkpt>
      <trkpt lat="59.9761807" lon="17.7396962">
        <ele>26.5736</ele>
        <time>2013-05-19T18:33:34Z</time>
      </trkpt>
      <trkpt lat="59.9762182" lon="17.7397236">
        <ele>27.0543</ele>
        <time>2013-05-19T18:33:35Z</time>
      </trkpt>
      <trkpt lat="59.9762572" lon="17.7397402">
        <ele>27.5349</ele>
        <time>2013-05-19T18:33:36Z</time>
      </trkpt>
      <trkpt lat="59.9762956" lon="17.7397464">
        <ele>27.5349</ele>
        <time>2013-05-19T18:33:37Z</time>
      </trkpt>
      <trkpt lat="59.9763346" lon="17.7397428">
        <ele>28.0155</ele>
        <time>2013-05-19T18:33:38Z</time>
      </trkpt>
      <trkpt lat="59.9763749" lon="17.7397245">
        <ele>28.0155</ele>
        <time>2013-05-19T18:33:39Z</time>
      </trkpt>
      <trkpt lat="59.9764159" lon="17.7396931">
        <ele>28.0155</ele>
        <time>2013-05-19T18:33:40Z</time>
      </trkpt>
      <trkpt lat="59.9764594" lon="17.7396559">
        <ele>28.4962</ele>
        <time>2013-05-19T18:33:41Z</time>
      </trkpt>
      <trkpt lat="59.9765069" lon="17.7396196">
        <ele>28.0155</ele>
        <time>2013-05-19T18:33:42Z</time>
      </trkpt>
      <trkpt lat="59.9765551" lon="17.7395772">
        <ele>28.4962</ele>
        <time>2013-05-19T18:33:43Z</time>
      </trkpt>
      <trkpt lat="59.976605" lon="17.7395325">
        <ele>28.4962</ele>
        <time>2013-05-19T18:33:44Z</time>
      </trkpt>
      <trkpt lat="59.9766559" lon="17.7394942">
        <ele>28.4962</ele>
        <time>2013-05-19T18:33:45Z</time>
      </trkpt>
      <trkpt lat="59.9767097" lon="17.7394667">
        <ele>28.4962</ele>
        <time>2013-05-19T18:33:46Z</time>
      </trkpt>
      <trkpt lat="59.9767618" lon="17.739442">
        <ele>28.9769</ele>
        <time>2013-05-19T18:33:47Z</time>
      </trkpt>
      <trkpt lat="59.9768122" lon="17.7394197">
        <ele>29.4575</ele>
        <time>2013-05-19T18:33:48Z</time>
      </trkpt>
      <trkpt lat="59.9768639" lon="17.7394016">
        <ele>29.4575</ele>
        <time>2013-05-19T18:33:49Z</time>
      </trkpt>
      <trkpt lat="59.9769169" lon="17.7393833">
        <ele>29.9381</ele>
        <time>2013-05-19T18:33:50Z</time>
      </trkpt>
      <trkpt lat="59.976968" lon="17.7393643">
        <ele>29.4575</ele>
        <time>2013-05-19T18:33:51Z</time>
      </trkpt>
      <trkpt lat="59.9770153" lon="17.7393449">
        <ele>29.4575</ele>
        <time>2013-05-19T18:33:52Z</time>
      </trkpt>
      <trkpt lat="59.9770619" lon="17.7393248">
        <ele>29.4575</ele>
        <time>2013-05-19T18:33:53Z</time>
      </trkpt>
      <trkpt lat="59.9771075" lon="17.7393013">
        <ele>29.4575</ele>
        <time>2013-05-19T18:33:54Z</time>
      </trkpt>
      <trkpt lat="59.9771518" lon="17.7392719">
        <ele>29.4575</ele>
        <time>2013-05-19T18:33:55Z</time>
      </trkpt>
      <trkpt lat="59.9771938" lon="17.739241">
        <ele>29.9381</ele>
        <time>2013-05-19T18:33:56Z</time>
      </trkpt>
      <trkpt lat="59.9772334" lon="17.7392128">
        <ele>30.4188</ele>
        <time>2013-05-19T18:33:57Z</time>
      </trkpt>
      <trkpt lat="59.9772739" lon="17.7391899">
        <ele>30.4188</ele>
        <time>2013-05-19T18:33:58Z</time>
      </trkpt>
      <trkpt lat="59.9773146" lon="17.7391708">
        <ele>30.8995</ele>
        <time>2013-05-19T18:33:59Z</time>
      </trkpt>
      <trkpt lat="59.9773561" lon="17.7391498">
        <ele>30.8995</ele>
        <time>2013-05-19T18:34:00Z</time>
      </trkpt>
      <trkpt lat="59.9773975" lon="17.7391295">
        <ele>30.8995</ele>
        <time>2013-05-19T18:34:01Z</time>
      </trkpt>
      <trkpt lat="59.977437" lon="17.739111">
        <ele>31.3801</ele>
        <time>2013-05-19T18:34:02Z</time>
      </trkpt>
      <trkpt lat="59.9774763" lon="17.7390963">
        <ele>31.8607</ele>
        <time>2013-05-19T18:34:03Z</time>
      </trkpt>
      <trkpt lat="59.977515" lon="17.7390885">
        <ele>31.8607</ele>
        <time>2013-05-19T18:34:04Z</time>
      </trkpt>
      <trkpt lat="59.9775523" lon="17.7390817">
        <ele>32.3416</ele>
        <time>2013-05-19T18:34:05Z</time>
      </trkpt>
      <trkpt lat="59.9775888" lon="17.7390746">
        <ele>32.3416</ele>
        <time>2013-05-19T18:34:06Z</time>
      </trkpt>
      <trkpt lat="59.9776237" lon="17.739068">
        <ele>32.8223</ele>
        <time>2013-05-19T18:34:07Z</time>
      </trkpt>
      <trkpt lat="59.9776586" lon="17.7390677">
        <ele>32.8223</ele>
        <time>2013-05-19T18:34:08Z</time>
      </trkpt>
      <trkpt lat="59.9776934" lon="17.739073">
        <ele>33.3029</ele>
        <time>2013-05-19T18:34:09Z</time>
      </trkpt>
      <trkpt lat="59.9777282" lon="17.7390814">
        <ele>33.3029</ele>
        <time>2013-05-19T18:34:10Z</time>
      </trkpt>
      <trkpt lat="59.9777633" lon="17.7390911">
        <ele>33.7834</ele>
        <time>2013-05-19T18:34:11Z</time>
      </trkpt>
      <trkpt lat="59.9777981" lon="17.7391005">
        <ele>33.7834</ele>
        <time>2013-05-19T18:34:12Z</time>
      </trkpt>
      <trkpt lat="59.9778323" lon="17.7391127">
        <ele>33.7834</ele>
        <time>2013-05-19T18:34:13Z</time>
      </trkpt>
      <trkpt lat="59.9778659" lon="17.7391254">
        <ele>33.7834</ele>
        <time>2013-05-19T18:34:14Z</time>
      </trkpt>
      <trkpt lat="59.9779001" lon="17.7391393">
        <ele>34.2642</ele>
        <time>2013-05-19T18:34:15Z</time>
      </trkpt>
      <trkpt lat="59.9779338" lon="17.739157">
        <ele>34.2642</ele>
        <time>2013-05-19T18:34:16Z</time>
      </trkpt>
      <trkpt lat="59.9779675" lon="17.7391765">
        <ele>34.2642</ele>
        <time>2013-05-19T18:34:17Z</time>
      </trkpt>
      <trkpt lat="59.9780001" lon="17.7391963">
        <ele>34.2642</ele>
        <time>2013-05-19T18:34:18Z</time>
      </trkpt>
      <trkpt lat="59.9780321" lon="17.7392144">
        <ele>34.2642</ele>
        <time>2013-05-19T18:34:19Z</time>
      </trkpt>
      <trkpt lat="59.9780636" lon="17.7392325">
        <ele>34.2642</ele>
        <time>2013-05-19T18:34:20Z</time>
      </trkpt>
      <trkpt lat="59.9780967" lon="17.739248">
        <ele>34.2642</ele>
        <time>2013-05-19T18:34:21Z</time>
      </trkpt>
      <trkpt lat="59.9781333" lon="17.7392611">
        <ele>34.2642</ele>
        <time>2013-05-19T18:34:22Z</time>
      </trkpt>
      <trkpt lat="59.9781684" lon="17.7392735">
        <ele>34.2642</ele>
        <time>2013-05-19T18:34:23Z</time>
      </trkpt>
      <trkpt lat="59.9782039" lon="17.7392835">
        <ele>34.2642</ele>
        <time>2013-05-19T18:34:24Z</time>
      </trkpt>
      <trkpt lat="59.9782417" lon="17.7392921">
        <ele>34.2642</ele>
        <time>2013-05-19T18:34:25Z</time>
      </trkpt>
      <trkpt lat="59.9782816" lon="17.7392994">
        <ele>34.2642</ele>
        <time>2013-05-19T18:34:26Z</time>
      </trkpt>
      <trkpt lat="59.9783238" lon="17.7393082">
        <ele>34.2642</ele>
        <time>2013-05-19T18:34:27Z</time>
      </trkpt>
      <trkpt lat="59.9783678" lon="17.7393165">
        <ele>34.2642</ele>
        <time>2013-05-19T18:34:28Z</time>
      </trkpt>
      <trkpt lat="59.9784124" lon="17.7393241">
        <ele>34.2642</ele>
        <time>2013-05-19T18:34:29Z</time>
      </trkpt>
      <trkpt lat="59.9784586" lon="17.7393283">
        <ele>34.2642</ele>
        <time>2013-05-19T18:34:30Z</time>
      </trkpt>
      <trkpt lat="59.9785046" lon="17.7393301">
        <ele>34.2642</ele>
        <time>2013-05-19T18:34:31Z</time>
      </trkpt>
      <trkpt lat="59.9785507" lon="17.7393372">
        <ele>34.2642</ele>
        <time>2013-05-19T18:34:32Z</time>
      </trkpt>
      <trkpt lat="59.9785973" lon="17.739346">
        <ele>34.2642</ele>
        <time>2013-05-19T18:34:33Z</time>
      </trkpt>
      <trkpt lat="59.9786453" lon="17.7393494">
        <ele>33.7834</ele>
        <time>2013-05-19T18:34:34Z</time>
      </trkpt>
      <trkpt lat="59.9786925" lon="17.7393521">
        <ele>33.7834</ele>
        <time>2013-05-19T18:34:35Z</time>
      </trkpt>
    </trkseg>
  </trk>
</gpx>